<?xml version='1.0' encoding='UTF-8'?><gpx version="1.1" creator="JPX - https://github.com/jenetics/jpx" xmlns="http://www.topografix.com/GPX/1/1"><trk><trkseg><trkpt lat="45.44384125064264" lon="8.999123193503111"><ele>124.99999999999999</ele><time>2026-04-12T04:36:10.001Z</time></trkpt><trkpt lat="45.44379180569878" lon="8.999061001473434"><ele>125.0</ele><time>2026-04-12T04:36:12.001Z</time></trkpt><trkpt lat="45.443722227584296" lon="8.999067352458134"><ele>125.0</ele><time>2026-04-12T04:36:16.001Z</time></trkpt><trkpt lat="45.44381533273929" lon="8.9991192968365"><ele>125.0</ele><time>2026-04-12T04:37:16.001Z</time></trkpt><trkpt lat="45.44389070287808" lon="8.999134060299479"><ele>124.99999999999999</ele><time>2026-04-12T04:37:26.001Z</time></trkpt><trkpt lat="45.44396256665024" lon="8.999148711932126"><ele>125.0</ele><time>2026-04-12T04:37:30.001Z</time></trkpt><trkpt lat="45.44403471421567" lon="8.999099480827967"><ele>125.0</ele><time>2026-04-12T04:37:44.001Z</time></trkpt><trkpt lat="45.444031242231176" lon="8.998994989286627"><ele>125.0</ele><time>2026-04-12T04:37:46.001Z</time></trkpt><trkpt lat="45.44408848828795" lon="8.998951550846193"><ele>125.0</ele><time>2026-04-12T04:37:50.002Z</time></trkpt><trkpt lat="45.444157532213985" lon="8.998901319772353"><ele>125.0</ele><time>2026-04-12T04:37:54.002Z</time></trkpt><trkpt lat="45.44423014842745" lon="8.998857447776185"><ele>125.0</ele><time>2026-04-12T04:37:58.002Z</time></trkpt><trkpt lat="45.44426468558369" lon="8.998774219750487"><ele>125.0</ele><time>2026-04-12T04:38:02.002Z</time></trkpt><trkpt lat="45.444259038072" lon="8.998672995296845"><ele>125.0</ele><time>2026-04-12T04:38:04.001Z</time></trkpt><trkpt lat="45.44425251740058" lon="8.998557166702623"><ele>124.99999999999999</ele><time>2026-04-12T04:38:06.001Z</time></trkpt><trkpt lat="45.4442455558725" lon="8.99843763425355"><ele>125.0</ele><time>2026-04-12T04:38:08.001Z</time></trkpt><trkpt lat="45.444233467803365" lon="8.998321565044854"><ele>125.0</ele><time>2026-04-12T04:38:10.001Z</time></trkpt><trkpt lat="45.444215923114776" lon="8.998196812452639"><ele>125.0</ele><time>2026-04-12T04:38:12.001Z</time></trkpt><trkpt lat="45.44421428069339" lon="8.998060124584942"><ele>124.99999999999999</ele><time>2026-04-12T04:38:14.001Z</time></trkpt><trkpt lat="45.444198770990745" lon="8.997926079740001"><ele>125.0</ele><time>2026-04-12T04:38:16.001Z</time></trkpt><trkpt lat="45.444173591856654" lon="8.997799320329891"><ele>125.16666666666666</ele><time>2026-04-12T04:38:18.001Z</time></trkpt><trkpt lat="45.444140793734384" lon="8.997685179944815"><ele>125.33333333333333</ele><time>2026-04-12T04:38:20.001Z</time></trkpt><trkpt lat="45.444086020382805" lon="8.997564883386005"><ele>125.5</ele><time>2026-04-12T04:38:22.001Z</time></trkpt><trkpt lat="45.44404680829172" lon="8.997461008968326"><ele>125.66666666666666</ele><time>2026-04-12T04:38:24.001Z</time></trkpt><trkpt lat="45.444005012330805" lon="8.99735705038114"><ele>125.83333333333333</ele><time>2026-04-12T04:38:26Z</time></trkpt><trkpt lat="45.44396714646724" lon="8.997248983546486"><ele>126.0</ele><time>2026-04-12T04:38:28Z</time></trkpt><trkpt lat="45.44393429309366" lon="8.997136073937586"><ele>126.0</ele><time>2026-04-12T04:38:30Z</time></trkpt><trkpt lat="45.443884397462476" lon="8.997039689022795"><ele>126.0</ele><time>2026-04-12T04:38:33Z</time></trkpt><trkpt lat="45.44384534761081" lon="8.996956632196712"><ele>126.0</ele><time>2026-04-12T04:38:35Z</time></trkpt><trkpt lat="45.44380017256177" lon="8.996854566749194"><ele>126.0</ele><time>2026-04-12T04:38:37Z</time></trkpt><trkpt lat="45.44375437052239" lon="8.996730409270363"><ele>126.0</ele><time>2026-04-12T04:38:39Z</time></trkpt><trkpt lat="45.44371852558852" lon="8.996594686261812"><ele>126.0</ele><time>2026-04-12T04:38:41Z</time></trkpt><trkpt lat="45.443668842456866" lon="8.996443065237084"><ele>126.0</ele><time>2026-04-12T04:38:43Z</time></trkpt><trkpt lat="45.44361482994604" lon="8.996307401888435"><ele>126.0</ele><time>2026-04-12T04:38:45Z</time></trkpt><trkpt lat="45.44356189752395" lon="8.996149848520977"><ele>126.0</ele><time>2026-04-12T04:38:47Z</time></trkpt><trkpt lat="45.44351109831856" lon="8.99598566598064"><ele>126.0</ele><time>2026-04-12T04:38:49Z</time></trkpt><trkpt lat="45.44348167367855" lon="8.995902779596491"><ele>126.0</ele><time>2026-04-12T04:38:50Z</time></trkpt><trkpt lat="45.4434508147858" lon="8.995806016366798"><ele>126.0</ele><time>2026-04-12T04:38:51Z</time></trkpt><trkpt lat="45.44342128098343" lon="8.995721693136414"><ele>126.0</ele><time>2026-04-12T04:38:52Z</time></trkpt><trkpt lat="45.44338730006474" lon="8.99562861833086"><ele>126.0</ele><time>2026-04-12T04:38:53Z</time></trkpt><trkpt lat="45.44335387394589" lon="8.995533550858656"><ele>126.0</ele><time>2026-04-12T04:38:54Z</time></trkpt><trkpt lat="45.44331864160334" lon="8.995430781135193"><ele>126.0</ele><time>2026-04-12T04:38:55Z</time></trkpt><trkpt lat="45.4432807179006" lon="8.995329661312168"><ele>126.0</ele><time>2026-04-12T04:38:56Z</time></trkpt><trkpt lat="45.44324169668882" lon="8.99522679781314"><ele>126.0</ele><time>2026-04-12T04:38:57Z</time></trkpt><trkpt lat="45.44320408273496" lon="8.995137255559523"><ele>126.0</ele><time>2026-04-12T04:38:58Z</time></trkpt><trkpt lat="45.44317698664491" lon="8.995055294257604"><ele>126.0</ele><time>2026-04-12T04:38:59Z</time></trkpt><trkpt lat="45.443133658302045" lon="8.994969154570542"><ele>126.0</ele><time>2026-04-12T04:39:01Z</time></trkpt><trkpt lat="45.44309316323369" lon="8.994854828186888"><ele>126.0</ele><time>2026-04-12T04:39:04Z</time></trkpt><trkpt lat="45.44306053554358" lon="8.994739462270871"><ele>126.0</ele><time>2026-04-12T04:39:06Z</time></trkpt><trkpt lat="45.44299741136156" lon="8.994580822445815"><ele>126.0</ele><time>2026-04-12T04:39:08Z</time></trkpt><trkpt lat="45.44296644761257" lon="8.99449365587257"><ele>126.0</ele><time>2026-04-12T04:39:09Z</time></trkpt><trkpt lat="45.44293718737668" lon="8.994397665880747"><ele>126.0</ele><time>2026-04-12T04:39:10Z</time></trkpt><trkpt lat="45.4429073229579" lon="8.99430184294243"><ele>126.0</ele><time>2026-04-12T04:39:11Z</time></trkpt><trkpt lat="45.44287004749271" lon="8.994206180144934"><ele>126.0</ele><time>2026-04-12T04:39:12Z</time></trkpt><trkpt lat="45.442838879564924" lon="8.994096182998865"><ele>126.0</ele><time>2026-04-12T04:39:13Z</time></trkpt><trkpt lat="45.442812979967066" lon="8.993981218248486"><ele>125.19999999999999</ele><time>2026-04-12T04:39:14Z</time></trkpt><trkpt lat="45.44279125281108" lon="8.993861074623226"><ele>124.39999999999999</ele><time>2026-04-12T04:39:15Z</time></trkpt><trkpt lat="45.442765210158356" lon="8.993744469532382"><ele>123.6</ele><time>2026-04-12T04:39:16Z</time></trkpt><trkpt lat="45.44273603588386" lon="8.993621765821912"><ele>122.8</ele><time>2026-04-12T04:39:17Z</time></trkpt><trkpt lat="45.44271828592867" lon="8.993491968010947"><ele>122.0</ele><time>2026-04-12T04:39:18Z</time></trkpt><trkpt lat="45.44267723090706" lon="8.993369365462728"><ele>122.33333333333333</ele><time>2026-04-12T04:39:19Z</time></trkpt><trkpt lat="45.44264719489638" lon="8.99324719634814"><ele>122.66666666666666</ele><time>2026-04-12T04:39:20Z</time></trkpt><trkpt lat="45.442606441878084" lon="8.993130375184148"><ele>123.0</ele><time>2026-04-12T04:39:21Z</time></trkpt><trkpt lat="45.442580595284774" lon="8.993009520624476"><ele>123.33333333333334</ele><time>2026-04-12T04:39:22Z</time></trkpt><trkpt lat="45.4425536931626" lon="8.992902841648878"><ele>123.66666666666667</ele><time>2026-04-12T04:39:23Z</time></trkpt><trkpt lat="45.44253131491522" lon="8.992806592664945"><ele>124.0</ele><time>2026-04-12T04:39:24Z</time></trkpt><trkpt lat="45.44249758429927" lon="8.992705109069906"><ele>124.0</ele><time>2026-04-12T04:39:25Z</time></trkpt><trkpt lat="45.442472898752705" lon="8.992621249335484"><ele>124.00000000000001</ele><time>2026-04-12T04:39:26Z</time></trkpt><trkpt lat="45.44243636756179" lon="8.992481103810793"><ele>124.0</ele><time>2026-04-12T04:39:28Z</time></trkpt><trkpt lat="45.44241481077225" lon="8.992391780282507"><ele>124.0</ele><time>2026-04-12T04:39:31Z</time></trkpt><trkpt lat="45.44239199700825" lon="8.992294626571"><ele>124.00000000000001</ele><time>2026-04-12T04:39:35Z</time></trkpt><trkpt lat="45.44237377811913" lon="8.992198511664924"><ele>124.0</ele><time>2026-04-12T04:39:41Z</time></trkpt><trkpt lat="45.442352007609976" lon="8.992111302915918"><ele>124.0</ele><time>2026-04-12T04:39:44Z</time></trkpt><trkpt lat="45.442322985550845" lon="8.992013970098387"><ele>124.00000000000001</ele><time>2026-04-12T04:39:47Z</time></trkpt><trkpt lat="45.44230122727101" lon="8.991903445808509"><ele>124.0</ele><time>2026-04-12T04:39:50Z</time></trkpt><trkpt lat="45.442282567226655" lon="8.991806801896942"><ele>124.0</ele><time>2026-04-12T04:39:53Z</time></trkpt><trkpt lat="45.44224886497244" lon="8.9917004085061"><ele>124.0</ele><time>2026-04-12T04:39:57.001Z</time></trkpt><trkpt lat="45.44213718750666" lon="8.991764938121436"><ele>124.00000000000001</ele><time>2026-04-12T04:39:58.001Z</time></trkpt><trkpt lat="45.44205073770691" lon="8.99182208962376"><ele>124.0</ele><time>2026-04-12T04:40:00.001Z</time></trkpt><trkpt lat="45.4419502934318" lon="8.991871777515001"><ele>124.00000000000001</ele><time>2026-04-12T04:40:02.001Z</time></trkpt><trkpt lat="45.44189393176462" lon="8.991912108367261"><ele>124.0</ele><time>2026-04-12T04:40:03.001Z</time></trkpt><trkpt lat="45.44183614568676" lon="8.991958577266407"><ele>124.0</ele><time>2026-04-12T04:40:04.001Z</time></trkpt><trkpt lat="45.44178818120363" lon="8.992020659497365"><ele>124.0</ele><time>2026-04-12T04:40:05.001Z</time></trkpt><trkpt lat="45.44173840827342" lon="8.9920848036474"><ele>124.00000000000001</ele><time>2026-04-12T04:40:06.001Z</time></trkpt><trkpt lat="45.44168117990845" lon="8.992147658545308"><ele>124.0</ele><time>2026-04-12T04:40:07.001Z</time></trkpt><trkpt lat="45.44159510092218" lon="8.992279598018488"><ele>124.0</ele><time>2026-04-12T04:40:09.001Z</time></trkpt><trkpt lat="45.44152873340937" lon="8.992377253508538"><ele>124.0</ele><time>2026-04-12T04:40:11Z</time></trkpt><trkpt lat="45.441432465620736" lon="8.99247758749524"><ele>124.0</ele><time>2026-04-12T04:40:14Z</time></trkpt><trkpt lat="45.44137182673325" lon="8.992519477189681"><ele>124.0</ele><time>2026-04-12T04:40:15Z</time></trkpt><trkpt lat="45.441314827919406" lon="8.992570105647845"><ele>124.0</ele><time>2026-04-12T04:40:16Z</time></trkpt><trkpt lat="45.44130243634504" lon="8.992791720064332"><ele>124.0</ele><time>2026-04-12T04:40:18Z</time></trkpt><trkpt lat="45.44133323137734" lon="8.992889932001336"><ele>124.0</ele><time>2026-04-12T04:40:19Z</time></trkpt><trkpt lat="45.441372913242" lon="8.993006053096426"><ele>124.0</ele><time>2026-04-12T04:40:20Z</time></trkpt><trkpt lat="45.44140617661744" lon="8.993132041926051"><ele>124.0</ele><time>2026-04-12T04:40:21Z</time></trkpt><trkpt lat="45.44143803053661" lon="8.993272126931783"><ele>124.0</ele><time>2026-04-12T04:40:22Z</time></trkpt><trkpt lat="45.44147740367084" lon="8.993408688420143"><ele>123.5</ele><time>2026-04-12T04:40:23Z</time></trkpt><trkpt lat="45.441516515558554" lon="8.993544999199752"><ele>123.0</ele><time>2026-04-12T04:40:24Z</time></trkpt><trkpt lat="45.441551764986805" lon="8.993704883164305"><ele>122.5</ele><time>2026-04-12T04:40:25Z</time></trkpt><trkpt lat="45.441591234469946" lon="8.993865562525384"><ele>122.0</ele><time>2026-04-12T04:40:26Z</time></trkpt><trkpt lat="45.44163649320471" lon="8.99402621611812"><ele>122.0</ele><time>2026-04-12T04:40:27Z</time></trkpt><trkpt lat="45.441681661963" lon="8.994193058317242"><ele>122.0</ele><time>2026-04-12T04:40:28Z</time></trkpt><trkpt lat="45.44172896479781" lon="8.994368392156607"><ele>122.0</ele><time>2026-04-12T04:40:29Z</time></trkpt><trkpt lat="45.44177735043449" lon="8.994545997478701"><ele>122.0</ele><time>2026-04-12T04:40:30Z</time></trkpt><trkpt lat="45.44182774186582" lon="8.994730880567973"><ele>122.0</ele><time>2026-04-12T04:40:31Z</time></trkpt><trkpt lat="45.44187888780926" lon="8.994920319675538"><ele>122.0</ele><time>2026-04-12T04:40:32Z</time></trkpt><trkpt lat="45.4419298124834" lon="8.995113031672796"><ele>122.0</ele><time>2026-04-12T04:40:33Z</time></trkpt><trkpt lat="45.44198312569799" lon="8.99531108144923"><ele>122.0</ele><time>2026-04-12T04:40:34Z</time></trkpt><trkpt lat="45.44203568475658" lon="8.995513385342619"><ele>122.66666666666666</ele><time>2026-04-12T04:40:35Z</time></trkpt><trkpt lat="45.44209242053154" lon="8.995716653231762"><ele>123.33333333333334</ele><time>2026-04-12T04:40:36Z</time></trkpt><trkpt lat="45.44214885075251" lon="8.995927197924592"><ele>124.0</ele><time>2026-04-12T04:40:37Z</time></trkpt><trkpt lat="45.44220715277313" lon="8.996136573274093"><ele>124.33333333333334</ele><time>2026-04-12T04:40:38Z</time></trkpt><trkpt lat="45.44226148538077" lon="8.996349925792078"><ele>124.66666666666666</ele><time>2026-04-12T04:40:39Z</time></trkpt><trkpt lat="45.44232046413548" lon="8.996570563454604"><ele>125.0</ele><time>2026-04-12T04:40:40Z</time></trkpt><trkpt lat="45.44237741655015" lon="8.996792375993149"><ele>125.0</ele><time>2026-04-12T04:40:41Z</time></trkpt><trkpt lat="45.44243655570368" lon="8.997019944293003"><ele>125.0</ele><time>2026-04-12T04:40:42Z</time></trkpt><trkpt lat="45.44249858782276" lon="8.997243865885338"><ele>125.0</ele><time>2026-04-12T04:40:43Z</time></trkpt><trkpt lat="45.44256107293784" lon="8.997471646179662"><ele>124.66666666666666</ele><time>2026-04-12T04:40:44Z</time></trkpt><trkpt lat="45.442623743552744" lon="8.997703600591176"><ele>124.33333333333334</ele><time>2026-04-12T04:40:45Z</time></trkpt><trkpt lat="45.44268478118638" lon="8.997936083425309"><ele>124.0</ele><time>2026-04-12T04:40:46Z</time></trkpt><trkpt lat="45.44274832201996" lon="8.998173774925085"><ele>124.0</ele><time>2026-04-12T04:40:47Z</time></trkpt><trkpt lat="45.44281084957346" lon="8.998411500856916"><ele>124.0</ele><time>2026-04-12T04:40:48Z</time></trkpt><trkpt lat="45.4428765594877" lon="8.998654024740006"><ele>124.0</ele><time>2026-04-12T04:40:49Z</time></trkpt><trkpt lat="45.44294119429419" lon="8.99889593373039"><ele>124.0</ele><time>2026-04-12T04:40:50Z</time></trkpt><trkpt lat="45.4430040697692" lon="8.999136849642811"><ele>124.0</ele><time>2026-04-12T04:40:51Z</time></trkpt><trkpt lat="45.44307089223331" lon="8.999381030921876"><ele>124.0</ele><time>2026-04-12T04:40:52Z</time></trkpt><trkpt lat="45.44313008531293" lon="8.999623815482288"><ele>124.0</ele><time>2026-04-12T04:40:53Z</time></trkpt><trkpt lat="45.4431971504408" lon="8.999870845718084"><ele>124.0</ele><time>2026-04-12T04:40:54Z</time></trkpt><trkpt lat="45.44326068275999" lon="9.000113542580348"><ele>124.0</ele><time>2026-04-12T04:40:55Z</time></trkpt><trkpt lat="45.44332761822009" lon="9.000357551787065"><ele>124.0</ele><time>2026-04-12T04:40:56Z</time></trkpt><trkpt lat="45.44339123511248" lon="9.000606212035358"><ele>124.0</ele><time>2026-04-12T04:40:57Z</time></trkpt><trkpt lat="45.44345994089048" lon="9.0008467598582"><ele>124.0</ele><time>2026-04-12T04:40:58Z</time></trkpt><trkpt lat="45.443525083223456" lon="9.001092036183376"><ele>124.0</ele><time>2026-04-12T04:40:59Z</time></trkpt><trkpt lat="45.44359421621642" lon="9.001340903213311"><ele>124.0</ele><time>2026-04-12T04:41:00Z</time></trkpt><trkpt lat="45.443661592161725" lon="9.001589268782455"><ele>124.0</ele><time>2026-04-12T04:41:01Z</time></trkpt><trkpt lat="45.4437253269719" lon="9.001839243974397"><ele>124.0</ele><time>2026-04-12T04:41:02Z</time></trkpt><trkpt lat="45.4437935552575" lon="9.002099351490955"><ele>124.0</ele><time>2026-04-12T04:41:03Z</time></trkpt><trkpt lat="45.44386265556057" lon="9.002350912554617"><ele>124.0</ele><time>2026-04-12T04:41:04Z</time></trkpt><trkpt lat="45.44393036807482" lon="9.002608684650525"><ele>123.66666666666667</ele><time>2026-04-12T04:41:05Z</time></trkpt><trkpt lat="45.44399672976511" lon="9.002867631202989"><ele>123.33333333333334</ele><time>2026-04-12T04:41:06Z</time></trkpt><trkpt lat="45.44406572746404" lon="9.003128546739836"><ele>123.0</ele><time>2026-04-12T04:41:07Z</time></trkpt><trkpt lat="45.44413509422444" lon="9.003390017561753"><ele>123.0</ele><time>2026-04-12T04:41:08Z</time></trkpt><trkpt lat="45.44420568514121" lon="9.003654950410562"><ele>123.0</ele><time>2026-04-12T04:41:09Z</time></trkpt><trkpt lat="45.444276500953684" lon="9.003917702410865"><ele>123.0</ele><time>2026-04-12T04:41:10Z</time></trkpt><trkpt lat="45.44434554889154" lon="9.004186085812059"><ele>123.66666666666666</ele><time>2026-04-12T04:41:11Z</time></trkpt><trkpt lat="45.44441439853936" lon="9.004451026939114"><ele>124.33333333333333</ele><time>2026-04-12T04:41:12Z</time></trkpt><trkpt lat="45.44448944880689" lon="9.004721009759601"><ele>125.0</ele><time>2026-04-12T04:41:13Z</time></trkpt><trkpt lat="45.44455883974315" lon="9.004984561437851"><ele>124.33333333333333</ele><time>2026-04-12T04:41:14Z</time></trkpt><trkpt lat="45.44463089712858" lon="9.005254422965693"><ele>123.66666666666666</ele><time>2026-04-12T04:41:15Z</time></trkpt><trkpt lat="45.44470167972817" lon="9.005529068685318"><ele>123.0</ele><time>2026-04-12T04:41:16Z</time></trkpt><trkpt lat="45.44476786160293" lon="9.005799986484298"><ele>123.66666666666666</ele><time>2026-04-12T04:41:17Z</time></trkpt><trkpt lat="45.44482631667072" lon="9.006075041900555"><ele>124.33333333333333</ele><time>2026-04-12T04:41:18Z</time></trkpt><trkpt lat="45.444871453339246" lon="9.006360370499783"><ele>125.0</ele><time>2026-04-12T04:41:18.999Z</time></trkpt><trkpt lat="45.44491048359016" lon="9.00664041555684"><ele>125.0</ele><time>2026-04-12T04:41:19.999Z</time></trkpt><trkpt lat="45.44493803824644" lon="9.006922697025713"><ele>125.0</ele><time>2026-04-12T04:41:20.999Z</time></trkpt><trkpt lat="45.44495174569729" lon="9.007207967732885"><ele>125.0</ele><time>2026-04-12T04:41:21.999Z</time></trkpt><trkpt lat="45.444959327104776" lon="9.007489572878919"><ele>124.66666666666666</ele><time>2026-04-12T04:41:22.999Z</time></trkpt><trkpt lat="45.44496042616899" lon="9.007777728999836"><ele>124.33333333333334</ele><time>2026-04-12T04:41:23.999Z</time></trkpt><trkpt lat="45.44495560381908" lon="9.00806185619527"><ele>124.0</ele><time>2026-04-12T04:41:24.999Z</time></trkpt><trkpt lat="45.44493397360604" lon="9.00834478150856"><ele>124.0</ele><time>2026-04-12T04:41:25.999Z</time></trkpt><trkpt lat="45.444907080950905" lon="9.008627659605812"><ele>124.0</ele><time>2026-04-12T04:41:26.999Z</time></trkpt><trkpt lat="45.44487939285116" lon="9.008909449497729"><ele>124.0</ele><time>2026-04-12T04:41:27.999Z</time></trkpt><trkpt lat="45.44485386672786" lon="9.009193998128419"><ele>123.66666666666667</ele><time>2026-04-12T04:41:28.999Z</time></trkpt><trkpt lat="45.4448288748753" lon="9.009476229613963"><ele>123.33333333333334</ele><time>2026-04-12T04:41:29.999Z</time></trkpt><trkpt lat="45.444802984873604" lon="9.009757029398262"><ele>123.0</ele><time>2026-04-12T04:41:30.999Z</time></trkpt><trkpt lat="45.44477480978675" lon="9.010035744189612"><ele>122.66666666666666</ele><time>2026-04-12T04:41:31.999Z</time></trkpt><trkpt lat="45.444746417751986" lon="9.010307604959253"><ele>122.33333333333333</ele><time>2026-04-12T04:41:32.999Z</time></trkpt><trkpt lat="45.444719133639516" lon="9.010581659037806"><ele>122.0</ele><time>2026-04-12T04:41:33.999Z</time></trkpt><trkpt lat="45.444694621300386" lon="9.010851683468742"><ele>122.66666666666666</ele><time>2026-04-12T04:41:34.999Z</time></trkpt><trkpt lat="45.4446674852953" lon="9.011115643403356"><ele>123.33333333333334</ele><time>2026-04-12T04:41:35.999Z</time></trkpt><trkpt lat="45.4446423981199" lon="9.01137986635413"><ele>124.0</ele><time>2026-04-12T04:41:36.999Z</time></trkpt><trkpt lat="45.44461839443782" lon="9.011648852386998"><ele>123.33333333333334</ele><time>2026-04-12T04:41:37.999Z</time></trkpt><trkpt lat="45.44459152644808" lon="9.011914249852445"><ele>122.66666666666666</ele><time>2026-04-12T04:41:38.999Z</time></trkpt><trkpt lat="45.44456900075803" lon="9.012176114002665"><ele>122.0</ele><time>2026-04-12T04:41:39.999Z</time></trkpt><trkpt lat="45.44454909374035" lon="9.012435332054642"><ele>122.66666666666666</ele><time>2026-04-12T04:41:40.999Z</time></trkpt><trkpt lat="45.44452796820457" lon="9.012698672544014"><ele>123.33333333333334</ele><time>2026-04-12T04:41:41.999Z</time></trkpt><trkpt lat="45.44450635373648" lon="9.012959944429909"><ele>124.0</ele><time>2026-04-12T04:41:42.999Z</time></trkpt><trkpt lat="45.44448612409554" lon="9.013214435374525"><ele>125.0</ele><time>2026-04-12T04:41:43.999Z</time></trkpt><trkpt lat="45.444458037457075" lon="9.01347672696325"><ele>126.0</ele><time>2026-04-12T04:41:44.999Z</time></trkpt><trkpt lat="45.44443493736208" lon="9.013739853376388"><ele>127.0</ele><time>2026-04-12T04:41:45.999Z</time></trkpt><trkpt lat="45.444412913619125" lon="9.013997053136558"><ele>126.66666666666667</ele><time>2026-04-12T04:41:46.999Z</time></trkpt><trkpt lat="45.44439018075596" lon="9.01425055932509"><ele>126.33333333333334</ele><time>2026-04-12T04:41:47.999Z</time></trkpt><trkpt lat="45.44436441434779" lon="9.014500578011214"><ele>126.0</ele><time>2026-04-12T04:41:48.999Z</time></trkpt><trkpt lat="45.444337847848296" lon="9.014752932322676"><ele>125.33333333333334</ele><time>2026-04-12T04:41:49.999Z</time></trkpt><trkpt lat="45.44431486927114" lon="9.015008502638272"><ele>124.66666666666667</ele><time>2026-04-12T04:41:50.999Z</time></trkpt><trkpt lat="45.444292999259254" lon="9.015258482172198"><ele>124.0</ele><time>2026-04-12T04:41:51.999Z</time></trkpt><trkpt lat="45.444271611558435" lon="9.0155101994041"><ele>124.0</ele><time>2026-04-12T04:41:52.999Z</time></trkpt><trkpt lat="45.444249433200724" lon="9.015758148659517"><ele>124.0</ele><time>2026-04-12T04:41:53.999Z</time></trkpt><trkpt lat="45.444225241470946" lon="9.016001936116751"><ele>124.0</ele><time>2026-04-12T04:41:54.999Z</time></trkpt><trkpt lat="45.444207005389735" lon="9.016252148403423"><ele>123.66666666666667</ele><time>2026-04-12T04:41:55.999Z</time></trkpt><trkpt lat="45.444180251095474" lon="9.016496758841823"><ele>123.33333333333334</ele><time>2026-04-12T04:41:56.999Z</time></trkpt><trkpt lat="45.4441627435691" lon="9.016745083532632"><ele>123.0</ele><time>2026-04-12T04:41:57.999Z</time></trkpt><trkpt lat="45.44414359495266" lon="9.016987204665362"><ele>122.33333333333334</ele><time>2026-04-12T04:41:58.999Z</time></trkpt><trkpt lat="45.444123346487615" lon="9.017233186749202"><ele>121.66666666666667</ele><time>2026-04-12T04:41:59.999Z</time></trkpt><trkpt lat="45.444101193359955" lon="9.017478023144216"><ele>121.0</ele><time>2026-04-12T04:42:00.999Z</time></trkpt><trkpt lat="45.44407933338147" lon="9.017723326636395"><ele>121.0</ele><time>2026-04-12T04:42:02Z</time></trkpt><trkpt lat="45.44405696073898" lon="9.017973608479265"><ele>121.0</ele><time>2026-04-12T04:42:03Z</time></trkpt><trkpt lat="45.444039425195044" lon="9.018228175033201"><ele>121.0</ele><time>2026-04-12T04:42:04Z</time></trkpt><trkpt lat="45.44401636439263" lon="9.018475179657672"><ele>121.33333333333334</ele><time>2026-04-12T04:42:05Z</time></trkpt><trkpt lat="45.443992159177434" lon="9.018727046756108"><ele>121.66666666666666</ele><time>2026-04-12T04:42:06Z</time></trkpt><trkpt lat="45.44397109777942" lon="9.018973586716266"><ele>122.0</ele><time>2026-04-12T04:42:07Z</time></trkpt><trkpt lat="45.443946529867304" lon="9.019217164421036"><ele>122.0</ele><time>2026-04-12T04:42:08Z</time></trkpt><trkpt lat="45.44392867117465" lon="9.019467241226604"><ele>122.0</ele><time>2026-04-12T04:42:09Z</time></trkpt><trkpt lat="45.443908509667175" lon="9.019714499598589"><ele>122.0</ele><time>2026-04-12T04:42:10Z</time></trkpt><trkpt lat="45.44389095324522" lon="9.019969088325741"><ele>122.0</ele><time>2026-04-12T04:42:11Z</time></trkpt><trkpt lat="45.44386827458051" lon="9.02022045407388"><ele>122.0</ele><time>2026-04-12T04:42:12Z</time></trkpt><trkpt lat="45.44384656407349" lon="9.020471712146374"><ele>122.0</ele><time>2026-04-12T04:42:13Z</time></trkpt><trkpt lat="45.44382313822318" lon="9.020725803369444"><ele>122.0</ele><time>2026-04-12T04:42:14Z</time></trkpt><trkpt lat="45.44380050464925" lon="9.020980411813499"><ele>122.0</ele><time>2026-04-12T04:42:15Z</time></trkpt><trkpt lat="45.44377817064726" lon="9.021234477546386"><ele>122.0</ele><time>2026-04-12T04:42:16Z</time></trkpt><trkpt lat="45.44375594520729" lon="9.021489518163184"><ele>121.33333333333333</ele><time>2026-04-12T04:42:17Z</time></trkpt><trkpt lat="45.44373408664595" lon="9.021747690898357"><ele>120.66666666666666</ele><time>2026-04-12T04:42:18Z</time></trkpt><trkpt lat="45.44371316585597" lon="9.022006641260905"><ele>120.0</ele><time>2026-04-12T04:42:19Z</time></trkpt><trkpt lat="45.44369364280773" lon="9.02227000802614"><ele>120.33333333333334</ele><time>2026-04-12T04:42:20Z</time></trkpt><trkpt lat="45.44366830254871" lon="9.022526948279552"><ele>120.66666666666667</ele><time>2026-04-12T04:42:21Z</time></trkpt><trkpt lat="45.44364621274425" lon="9.022784864262196"><ele>121.0</ele><time>2026-04-12T04:42:22Z</time></trkpt><trkpt lat="45.44362113061783" lon="9.023044692333015"><ele>121.0</ele><time>2026-04-12T04:42:23Z</time></trkpt><trkpt lat="45.44359797079181" lon="9.02330127300202"><ele>121.0</ele><time>2026-04-12T04:42:24Z</time></trkpt><trkpt lat="45.443574640283266" lon="9.023554556054819"><ele>121.0</ele><time>2026-04-12T04:42:25Z</time></trkpt><trkpt lat="45.443546686341705" lon="9.02380582457873"><ele>121.33333333333334</ele><time>2026-04-12T04:42:26Z</time></trkpt><trkpt lat="45.443520806879235" lon="9.024056094793346"><ele>121.66666666666666</ele><time>2026-04-12T04:42:27Z</time></trkpt><trkpt lat="45.4434963058603" lon="9.0243087259483"><ele>122.0</ele><time>2026-04-12T04:42:28Z</time></trkpt><trkpt lat="45.44347266666224" lon="9.024560794982598"><ele>122.0</ele><time>2026-04-12T04:42:29Z</time></trkpt><trkpt lat="45.443449846993765" lon="9.024812492954775"><ele>122.0</ele><time>2026-04-12T04:42:30Z</time></trkpt><trkpt lat="45.44343028376511" lon="9.025060149860037"><ele>122.0</ele><time>2026-04-12T04:42:31Z</time></trkpt><trkpt lat="45.44340614745798" lon="9.025306277901578"><ele>122.0</ele><time>2026-04-12T04:42:32Z</time></trkpt><trkpt lat="45.44338352228476" lon="9.025553697669242"><ele>122.0</ele><time>2026-04-12T04:42:33Z</time></trkpt><trkpt lat="45.443356973089" lon="9.025800896473136"><ele>122.0</ele><time>2026-04-12T04:42:34Z</time></trkpt><trkpt lat="45.44333637326783" lon="9.026053478155548"><ele>122.0</ele><time>2026-04-12T04:42:35Z</time></trkpt><trkpt lat="45.44331636396955" lon="9.026305088544046"><ele>122.0</ele><time>2026-04-12T04:42:36Z</time></trkpt><trkpt lat="45.443294477741496" lon="9.026557686646113"><ele>122.0</ele><time>2026-04-12T04:42:37Z</time></trkpt><trkpt lat="45.44326986851683" lon="9.026807074481873"><ele>122.0</ele><time>2026-04-12T04:42:38Z</time></trkpt><trkpt lat="45.44324843413013" lon="9.027055099118922"><ele>122.0</ele><time>2026-04-12T04:42:39Z</time></trkpt><trkpt lat="45.443226064685405" lon="9.02730187901585"><ele>122.0</ele><time>2026-04-12T04:42:40Z</time></trkpt><trkpt lat="45.44320440056322" lon="9.027545133837057"><ele>121.66666666666666</ele><time>2026-04-12T04:42:41Z</time></trkpt><trkpt lat="45.44318399828986" lon="9.02778811378478"><ele>121.33333333333334</ele><time>2026-04-12T04:42:42Z</time></trkpt><trkpt lat="45.443162321476954" lon="9.028032556980104"><ele>121.0</ele><time>2026-04-12T04:42:43Z</time></trkpt><trkpt lat="45.44314293109903" lon="9.028279156999822"><ele>121.33333333333334</ele><time>2026-04-12T04:42:44Z</time></trkpt><trkpt lat="45.44312124804005" lon="9.028523994663049"><ele>121.66666666666666</ele><time>2026-04-12T04:42:45Z</time></trkpt><trkpt lat="45.44310305519012" lon="9.02877322449953"><ele>122.0</ele><time>2026-04-12T04:42:46Z</time></trkpt><trkpt lat="45.44308425358" lon="9.029024666187048"><ele>121.66666666666666</ele><time>2026-04-12T04:42:47Z</time></trkpt><trkpt lat="45.44306027637977" lon="9.029273610694931"><ele>121.33333333333334</ele><time>2026-04-12T04:42:48Z</time></trkpt><trkpt lat="45.443042269767304" lon="9.029524173091685"><ele>121.0</ele><time>2026-04-12T04:42:49Z</time></trkpt><trkpt lat="45.44302236874002" lon="9.029773836879592"><ele>120.66666666666667</ele><time>2026-04-12T04:42:50Z</time></trkpt><trkpt lat="45.443003613146445" lon="9.030022222480026"><ele>120.33333333333334</ele><time>2026-04-12T04:42:51Z</time></trkpt><trkpt lat="45.44298287167375" lon="9.030267218950726"><ele>120.0</ele><time>2026-04-12T04:42:52Z</time></trkpt><trkpt lat="45.442962277516656" lon="9.030511793303729"><ele>120.0</ele><time>2026-04-12T04:42:53Z</time></trkpt><trkpt lat="45.44294576041969" lon="9.030758358823903"><ele>120.0</ele><time>2026-04-12T04:42:54Z</time></trkpt><trkpt lat="45.442938842777956" lon="9.03101044820981"><ele>120.0</ele><time>2026-04-12T04:42:55Z</time></trkpt><trkpt lat="45.442935255012685" lon="9.031258991505714"><ele>120.0</ele><time>2026-04-12T04:42:56Z</time></trkpt><trkpt lat="45.44294392886804" lon="9.031510316926324"><ele>120.0</ele><time>2026-04-12T04:42:57Z</time></trkpt><trkpt lat="45.44295614133627" lon="9.031762948053826"><ele>120.0</ele><time>2026-04-12T04:42:58Z</time></trkpt><trkpt lat="45.44297737744738" lon="9.032014564533194"><ele>120.0</ele><time>2026-04-12T04:42:59Z</time></trkpt><trkpt lat="45.443001871733806" lon="9.032266316271071"><ele>120.0</ele><time>2026-04-12T04:43:00Z</time></trkpt><trkpt lat="45.4430345156476" lon="9.032519705859771"><ele>120.0</ele><time>2026-04-12T04:43:01Z</time></trkpt><trkpt lat="45.443075729411206" lon="9.032771375324586"><ele>120.0</ele><time>2026-04-12T04:43:02Z</time></trkpt><trkpt lat="45.44311213562888" lon="9.03302930333828"><ele>120.0</ele><time>2026-04-12T04:43:03Z</time></trkpt><trkpt lat="45.443150488105225" lon="9.033287071536781"><ele>120.0</ele><time>2026-04-12T04:43:04Z</time></trkpt><trkpt lat="45.4431890775438" lon="9.033545115470899"><ele>120.66666666666666</ele><time>2026-04-12T04:43:05Z</time></trkpt><trkpt lat="45.44322822512342" lon="9.033801073767114"><ele>121.33333333333333</ele><time>2026-04-12T04:43:06Z</time></trkpt><trkpt lat="45.44326533708539" lon="9.034061987896507"><ele>122.0</ele><time>2026-04-12T04:43:07Z</time></trkpt><trkpt lat="45.44330373905223" lon="9.034323313911933"><ele>122.33333333333333</ele><time>2026-04-12T04:43:08Z</time></trkpt><trkpt lat="45.44333863688764" lon="9.03458539742561"><ele>122.66666666666666</ele><time>2026-04-12T04:43:09Z</time></trkpt><trkpt lat="45.44337401518588" lon="9.034848255888678"><ele>123.0</ele><time>2026-04-12T04:43:10Z</time></trkpt><trkpt lat="45.44341651821257" lon="9.035110991459124"><ele>123.33333333333334</ele><time>2026-04-12T04:43:11Z</time></trkpt><trkpt lat="45.44345482948716" lon="9.035371078813629"><ele>123.66666666666667</ele><time>2026-04-12T04:43:12Z</time></trkpt><trkpt lat="45.443493833771946" lon="9.035632335327659"><ele>124.0</ele><time>2026-04-12T04:43:13Z</time></trkpt><trkpt lat="45.4435325736549" lon="9.035892887501978"><ele>124.0</ele><time>2026-04-12T04:43:13.999Z</time></trkpt><trkpt lat="45.443571916047894" lon="9.0361549373437"><ele>124.0</ele><time>2026-04-12T04:43:14.999Z</time></trkpt><trkpt lat="45.443609849728404" lon="9.03641614336293"><ele>124.0</ele><time>2026-04-12T04:43:15.999Z</time></trkpt><trkpt lat="45.44364827618295" lon="9.036680460658868"><ele>123.33333333333334</ele><time>2026-04-12T04:43:16.999Z</time></trkpt><trkpt lat="45.443686069268615" lon="9.036946293885075"><ele>122.66666666666666</ele><time>2026-04-12T04:43:17.999Z</time></trkpt><trkpt lat="45.443724686195736" lon="9.037210415198956"><ele>122.0</ele><time>2026-04-12T04:43:18.999Z</time></trkpt><trkpt lat="45.44376076697824" lon="9.037475999693664"><ele>122.0</ele><time>2026-04-12T04:43:19.999Z</time></trkpt><trkpt lat="45.44380279983899" lon="9.037741510380087"><ele>122.0</ele><time>2026-04-12T04:43:20.999Z</time></trkpt><trkpt lat="45.443843213631695" lon="9.03800161134825"><ele>122.0</ele><time>2026-04-12T04:43:21.999Z</time></trkpt><trkpt lat="45.4438864548063" lon="9.038255521033792"><ele>121.0</ele><time>2026-04-12T04:43:22.999Z</time></trkpt><trkpt lat="45.4439328904999" lon="9.038500806561698"><ele>120.0</ele><time>2026-04-12T04:43:23.999Z</time></trkpt><trkpt lat="45.443984511427686" lon="9.038735303630567"><ele>119.0</ele><time>2026-04-12T04:43:24.999Z</time></trkpt><trkpt lat="45.444038207411936" lon="9.038946294201304"><ele>119.5</ele><time>2026-04-12T04:43:25.999Z</time></trkpt><trkpt lat="45.44409114034157" lon="9.039139806518182"><ele>120.0</ele><time>2026-04-12T04:43:26.999Z</time></trkpt><trkpt lat="45.44414470698254" lon="9.039322897813015"><ele>120.5</ele><time>2026-04-12T04:43:27.999Z</time></trkpt><trkpt lat="45.44419330473534" lon="9.039496725104566"><ele>121.0</ele><time>2026-04-12T04:43:28.999Z</time></trkpt><trkpt lat="45.444229952257615" lon="9.039663212253314"><ele>121.0</ele><time>2026-04-12T04:43:29.999Z</time></trkpt><trkpt lat="45.44425466780066" lon="9.039829312210559"><ele>121.0</ele><time>2026-04-12T04:43:30.999Z</time></trkpt><trkpt lat="45.44425999816052" lon="9.039991878213431"><ele>121.0</ele><time>2026-04-12T04:43:31.999Z</time></trkpt><trkpt lat="45.44427588961132" lon="9.040148358479168"><ele>121.0</ele><time>2026-04-12T04:43:32.999Z</time></trkpt><trkpt lat="45.44426726913161" lon="9.040303808949986"><ele>121.25</ele><time>2026-04-12T04:43:33.999Z</time></trkpt><trkpt lat="45.44430959349277" lon="9.040451542761447"><ele>121.5</ele><time>2026-04-12T04:43:34.999Z</time></trkpt><trkpt lat="45.44437266417131" lon="9.040580859131094"><ele>121.75</ele><time>2026-04-12T04:43:35.999Z</time></trkpt><trkpt lat="45.44447162250179" lon="9.040676253605183"><ele>122.0</ele><time>2026-04-12T04:43:36.999Z</time></trkpt><trkpt lat="45.444575232084176" lon="9.04076651540918"><ele>122.25</ele><time>2026-04-12T04:43:37.999Z</time></trkpt><trkpt lat="45.44467779009422" lon="9.040878228424429"><ele>122.5</ele><time>2026-04-12T04:43:38.999Z</time></trkpt><trkpt lat="45.44476876806899" lon="9.041014486173433"><ele>122.75</ele><time>2026-04-12T04:43:39.999Z</time></trkpt><trkpt lat="45.4448508875139" lon="9.041170812168858"><ele>123.0</ele><time>2026-04-12T04:43:40.999Z</time></trkpt><trkpt lat="45.44493137242354" lon="9.04133044732184"><ele>123.0</ele><time>2026-04-12T04:43:41.999Z</time></trkpt><trkpt lat="45.44501644518516" lon="9.041492154013167"><ele>123.0</ele><time>2026-04-12T04:43:42.999Z</time></trkpt><trkpt lat="45.445108570595636" lon="9.041656453384384"><ele>123.0</ele><time>2026-04-12T04:43:43.999Z</time></trkpt><trkpt lat="45.445209547429435" lon="9.041822642834683"><ele>123.0</ele><time>2026-04-12T04:43:44.999Z</time></trkpt><trkpt lat="45.44531430260696" lon="9.041982369938387"><ele>123.0</ele><time>2026-04-12T04:43:45.999Z</time></trkpt><trkpt lat="45.44543089977642" lon="9.042140707912067"><ele>123.0</ele><time>2026-04-12T04:43:46.999Z</time></trkpt><trkpt lat="45.445547978949236" lon="9.042307144386676"><ele>123.0</ele><time>2026-04-12T04:43:47.999Z</time></trkpt><trkpt lat="45.44567038774859" lon="9.042470968822483"><ele>123.0</ele><time>2026-04-12T04:43:48.999Z</time></trkpt><trkpt lat="45.44579691939362" lon="9.0426363494484"><ele>123.0</ele><time>2026-04-12T04:43:49.999Z</time></trkpt><trkpt lat="45.445928071189755" lon="9.042803553296373"><ele>123.0</ele><time>2026-04-12T04:43:50.999Z</time></trkpt><trkpt lat="45.4460589907675" lon="9.042972995300554"><ele>123.0</ele><time>2026-04-12T04:43:51.999Z</time></trkpt><trkpt lat="45.44619414133759" lon="9.043141604812504"><ele>123.0</ele><time>2026-04-12T04:43:52.999Z</time></trkpt><trkpt lat="45.44633232245518" lon="9.043313496502625"><ele>123.0</ele><time>2026-04-12T04:43:53.999Z</time></trkpt><trkpt lat="45.44647583107753" lon="9.04348570862081"><ele>122.33333333333334</ele><time>2026-04-12T04:43:54.999Z</time></trkpt><trkpt lat="45.446620489556736" lon="9.043665035536202"><ele>121.66666666666667</ele><time>2026-04-12T04:43:55.999Z</time></trkpt><trkpt lat="45.44676420513589" lon="9.043844651406417"><ele>121.0</ele><time>2026-04-12T04:43:56.999Z</time></trkpt><trkpt lat="45.446910767300984" lon="9.044023511307943"><ele>121.33333333333334</ele><time>2026-04-12T04:43:57.999Z</time></trkpt><trkpt lat="45.4470552482979" lon="9.044205196199945"><ele>121.66666666666666</ele><time>2026-04-12T04:43:58.999Z</time></trkpt><trkpt lat="45.44720248727331" lon="9.044385201941598"><ele>122.0</ele><time>2026-04-12T04:43:59.999Z</time></trkpt><trkpt lat="45.44735051115225" lon="9.044566960412624"><ele>122.0</ele><time>2026-04-12T04:44:00.999Z</time></trkpt><trkpt lat="45.44750122627707" lon="9.044748845877788"><ele>122.0</ele><time>2026-04-12T04:44:01.999Z</time></trkpt><trkpt lat="45.44764584557069" lon="9.044935565972368"><ele>122.0</ele><time>2026-04-12T04:44:02.999Z</time></trkpt><trkpt lat="45.44779400560064" lon="9.045118159758772"><ele>122.33333333333333</ele><time>2026-04-12T04:44:03.999Z</time></trkpt><trkpt lat="45.44793953369486" lon="9.045301966742318"><ele>122.66666666666666</ele><time>2026-04-12T04:44:04.999Z</time></trkpt><trkpt lat="45.44809010364353" lon="9.045477473892623"><ele>123.0</ele><time>2026-04-12T04:44:05.999Z</time></trkpt><trkpt lat="45.44824288891455" lon="9.045649640564974"><ele>123.33333333333334</ele><time>2026-04-12T04:44:06.999Z</time></trkpt><trkpt lat="45.44839466728567" lon="9.045812734005823"><ele>123.66666666666667</ele><time>2026-04-12T04:44:08Z</time></trkpt><trkpt lat="45.44854853485268" lon="9.045970233952447"><ele>124.0</ele><time>2026-04-12T04:44:09Z</time></trkpt><trkpt lat="45.4487083662541" lon="9.046115187532488"><ele>124.0</ele><time>2026-04-12T04:44:10Z</time></trkpt><trkpt lat="45.44887100289251" lon="9.046243662188925"><ele>124.0</ele><time>2026-04-12T04:44:11Z</time></trkpt><trkpt lat="45.44903697314821" lon="9.046365599127103"><ele>124.0</ele><time>2026-04-12T04:44:12Z</time></trkpt><trkpt lat="45.4492066804525" lon="9.046470152509606"><ele>124.0</ele><time>2026-04-12T04:44:13Z</time></trkpt><trkpt lat="45.4493755353413" lon="9.046568659528171"><ele>124.0</ele><time>2026-04-12T04:44:14Z</time></trkpt><trkpt lat="45.449546072475584" lon="9.046657145287469"><ele>124.0</ele><time>2026-04-12T04:44:15Z</time></trkpt><trkpt lat="45.44971785183795" lon="9.046740209979538"><ele>124.66666666666667</ele><time>2026-04-12T04:44:16Z</time></trkpt><trkpt lat="45.44988697742657" lon="9.04682093678956"><ele>125.33333333333334</ele><time>2026-04-12T04:44:17Z</time></trkpt><trkpt lat="45.45005636319529" lon="9.046903451308093"><ele>126.0</ele><time>2026-04-12T04:44:18Z</time></trkpt><trkpt lat="45.450218912433165" lon="9.046976826943451"><ele>126.0</ele><time>2026-04-12T04:44:19Z</time></trkpt><trkpt lat="45.45036752732164" lon="9.04704903725984"><ele>126.0</ele><time>2026-04-12T04:44:20Z</time></trkpt><trkpt lat="45.45050460552969" lon="9.047122628130687"><ele>126.0</ele><time>2026-04-12T04:44:21Z</time></trkpt><trkpt lat="45.45062968794863" lon="9.047213941041974"><ele>126.0</ele><time>2026-04-12T04:44:22Z</time></trkpt><trkpt lat="45.450745105287545" lon="9.047324876137164"><ele>126.0</ele><time>2026-04-12T04:44:23Z</time></trkpt><trkpt lat="45.450841441312875" lon="9.047455882420447"><ele>126.0</ele><time>2026-04-12T04:44:24Z</time></trkpt><trkpt lat="45.45092588998249" lon="9.04759182013885"><ele>126.0</ele><time>2026-04-12T04:44:25Z</time></trkpt><trkpt lat="45.451010179401806" lon="9.047716315968088"><ele>126.0</ele><time>2026-04-12T04:44:26Z</time></trkpt><trkpt lat="45.45109780917858" lon="9.047819468196478"><ele>125.8</ele><time>2026-04-12T04:44:27Z</time></trkpt><trkpt lat="45.451190958004965" lon="9.047899509694801"><ele>125.6</ele><time>2026-04-12T04:44:28Z</time></trkpt><trkpt lat="45.45129889216981" lon="9.047953318883962"><ele>125.4</ele><time>2026-04-12T04:44:29Z</time></trkpt><trkpt lat="45.451405960422456" lon="9.04798086376694"><ele>125.2</ele><time>2026-04-12T04:44:30Z</time></trkpt><trkpt lat="45.451507960492144" lon="9.047968132036793"><ele>125.0</ele><time>2026-04-12T04:44:31Z</time></trkpt><trkpt lat="45.4515981995978" lon="9.047953252113652"><ele>125.0</ele><time>2026-04-12T04:44:32Z</time></trkpt><trkpt lat="45.45166229975851" lon="9.047836996509636"><ele>125.0</ele><time>2026-04-12T04:44:33Z</time></trkpt><trkpt lat="45.45169524056381" lon="9.047708512011866"><ele>125.0</ele><time>2026-04-12T04:44:34Z</time></trkpt><trkpt lat="45.451688872016334" lon="9.04757333173833"><ele>125.0</ele><time>2026-04-12T04:44:35Z</time></trkpt><trkpt lat="45.45164600762211" lon="9.047448540173301"><ele>125.0</ele><time>2026-04-12T04:44:36Z</time></trkpt><trkpt lat="45.45157004413286" lon="9.047347551004288"><ele>125.16666666666666</ele><time>2026-04-12T04:44:37Z</time></trkpt><trkpt lat="45.45150289678719" lon="9.047255636515999"><ele>125.33333333333333</ele><time>2026-04-12T04:44:38Z</time></trkpt><trkpt lat="45.45146501335662" lon="9.04714033655218"><ele>125.5</ele><time>2026-04-12T04:44:39Z</time></trkpt><trkpt lat="45.45146208726929" lon="9.047020926636945"><ele>125.66666666666666</ele><time>2026-04-12T04:44:40Z</time></trkpt><trkpt lat="45.45147199073568" lon="9.046914079411009"><ele>125.83333333333333</ele><time>2026-04-12T04:44:41Z</time></trkpt><trkpt lat="45.451487457077015" lon="9.046818869930647"><ele>126.0</ele><time>2026-04-12T04:44:42Z</time></trkpt><trkpt lat="45.451525400796896" lon="9.046673121519243"><ele>125.8</ele><time>2026-04-12T04:44:44Z</time></trkpt><trkpt lat="45.45162586148544" lon="9.04653324758083"><ele>125.6</ele><time>2026-04-12T04:44:46Z</time></trkpt><trkpt lat="45.45169880378541" lon="9.046479530504298"><ele>125.4</ele><time>2026-04-12T04:44:47Z</time></trkpt><trkpt lat="45.45178158373909" lon="9.046430211341326"><ele>125.2</ele><time>2026-04-12T04:44:48Z</time></trkpt><trkpt lat="45.45186464881714" lon="9.046376869922092"><ele>125.0</ele><time>2026-04-12T04:44:49Z</time></trkpt><trkpt lat="45.451953378804795" lon="9.046313256567805"><ele>125.0</ele><time>2026-04-12T04:44:50Z</time></trkpt><trkpt lat="45.45204296766067" lon="9.046249534509288"><ele>125.0</ele><time>2026-04-12T04:44:51Z</time></trkpt><trkpt lat="45.45213699709218" lon="9.046183709415494"><ele>125.0</ele><time>2026-04-12T04:44:52Z</time></trkpt><trkpt lat="45.45223289486172" lon="9.046116587560125"><ele>125.0</ele><time>2026-04-12T04:44:53Z</time></trkpt><trkpt lat="45.45233547854495" lon="9.046056942421863"><ele>125.0</ele><time>2026-04-12T04:44:54Z</time></trkpt><trkpt lat="45.452432501985456" lon="9.04599310018125"><ele>124.6</ele><time>2026-04-12T04:44:55Z</time></trkpt><trkpt lat="45.45252553389429" lon="9.045924899784826"><ele>124.2</ele><time>2026-04-12T04:44:56Z</time></trkpt><trkpt lat="45.452620939435675" lon="9.04586167885769"><ele>123.80000000000001</ele><time>2026-04-12T04:44:57Z</time></trkpt><trkpt lat="45.45271340569609" lon="9.045797753780151"><ele>123.4</ele><time>2026-04-12T04:44:58Z</time></trkpt><trkpt lat="45.452806341579695" lon="9.045737577281967"><ele>123.0</ele><time>2026-04-12T04:44:59Z</time></trkpt><trkpt lat="45.4529007550549" lon="9.045677523850484"><ele>123.4</ele><time>2026-04-12T04:45:00Z</time></trkpt><trkpt lat="45.45299175367216" lon="9.045613898745582"><ele>123.80000000000001</ele><time>2026-04-12T04:45:01Z</time></trkpt><trkpt lat="45.453080856095035" lon="9.04555019444836"><ele>124.2</ele><time>2026-04-12T04:45:02Z</time></trkpt><trkpt lat="45.45317079264767" lon="9.04548937597486"><ele>124.6</ele><time>2026-04-12T04:45:03Z</time></trkpt><trkpt lat="45.45325946583404" lon="9.045425178555764"><ele>125.0</ele><time>2026-04-12T04:45:04Z</time></trkpt><trkpt lat="45.453344171289764" lon="9.04536544053789"><ele>125.0</ele><time>2026-04-12T04:45:05Z</time></trkpt><trkpt lat="45.453430311322585" lon="9.04530587131929"><ele>125.0</ele><time>2026-04-12T04:45:06Z</time></trkpt><trkpt lat="45.453516707387514" lon="9.045253148535506"><ele>125.0</ele><time>2026-04-12T04:45:07Z</time></trkpt><trkpt lat="45.45359881782873" lon="9.045199475367593"><ele>125.0</ele><time>2026-04-12T04:45:08Z</time></trkpt><trkpt lat="45.45368228720232" lon="9.045156756629895"><ele>125.0</ele><time>2026-04-12T04:45:09Z</time></trkpt><trkpt lat="45.45376515116206" lon="9.045096092206663"><ele>125.2</ele><time>2026-04-12T04:45:10Z</time></trkpt><trkpt lat="45.45384386348511" lon="9.045029596918626"><ele>125.4</ele><time>2026-04-12T04:45:11Z</time></trkpt><trkpt lat="45.45392263216243" lon="9.044965470660527"><ele>125.6</ele><time>2026-04-12T04:45:12Z</time></trkpt><trkpt lat="45.454010648444445" lon="9.044914853230832"><ele>125.8</ele><time>2026-04-12T04:45:13Z</time></trkpt><trkpt lat="45.4540930537325" lon="9.044859406302939"><ele>126.0</ele><time>2026-04-12T04:45:13.999Z</time></trkpt><trkpt lat="45.45417580451881" lon="9.044802016919459"><ele>126.0</ele><time>2026-04-12T04:45:14.999Z</time></trkpt><trkpt lat="45.45426028195582" lon="9.044744412340592"><ele>126.0</ele><time>2026-04-12T04:45:15.999Z</time></trkpt><trkpt lat="45.45434505095183" lon="9.044693658974282"><ele>126.0</ele><time>2026-04-12T04:45:16.999Z</time></trkpt><trkpt lat="45.45441895035574" lon="9.044643923225333"><ele>126.0</ele><time>2026-04-12T04:45:17.999Z</time></trkpt><trkpt lat="45.454488938530744" lon="9.04459475409004"><ele>126.0</ele><time>2026-04-12T04:45:18.999Z</time></trkpt><trkpt lat="45.45455502359765" lon="9.04454635201801"><ele>126.0</ele><time>2026-04-12T04:45:19.999Z</time></trkpt><trkpt lat="45.45462871788644" lon="9.04449771770735"><ele>125.66666666666667</ele><time>2026-04-12T04:45:20.999Z</time></trkpt><trkpt lat="45.45470486875069" lon="9.04444905308951"><ele>125.33333333333334</ele><time>2026-04-12T04:45:21.999Z</time></trkpt><trkpt lat="45.45477824714793" lon="9.04439751657255"><ele>125.0</ele><time>2026-04-12T04:45:22.999Z</time></trkpt><trkpt lat="45.454854355303034" lon="9.04434636293105"><ele>124.66666666666667</ele><time>2026-04-12T04:45:23.999Z</time></trkpt><trkpt lat="45.45492910658087" lon="9.04429324828099"><ele>124.33333333333334</ele><time>2026-04-12T04:45:24.999Z</time></trkpt><trkpt lat="45.45500905168537" lon="9.044242122723395"><ele>124.0</ele><time>2026-04-12T04:45:25.999Z</time></trkpt><trkpt lat="45.45508690230432" lon="9.044186338581863"><ele>124.2</ele><time>2026-04-12T04:45:26.999Z</time></trkpt><trkpt lat="45.45516750963346" lon="9.044127702101951"><ele>124.4</ele><time>2026-04-12T04:45:27.999Z</time></trkpt><trkpt lat="45.45525414678478" lon="9.044080940708087"><ele>124.6</ele><time>2026-04-12T04:45:28.999Z</time></trkpt><trkpt lat="45.455337495422455" lon="9.044022128099664"><ele>124.8</ele><time>2026-04-12T04:45:29.999Z</time></trkpt><trkpt lat="45.45542402215871" lon="9.043972883212534"><ele>125.0</ele><time>2026-04-12T04:45:30.999Z</time></trkpt><trkpt lat="45.4555114871171" lon="9.043916885604373"><ele>125.0</ele><time>2026-04-12T04:45:31.999Z</time></trkpt><trkpt lat="45.455600893830585" lon="9.043859302465048"><ele>125.0</ele><time>2026-04-12T04:45:32.999Z</time></trkpt><trkpt lat="45.45568703487136" lon="9.043806726622467"><ele>125.0</ele><time>2026-04-12T04:45:33.999Z</time></trkpt><trkpt lat="45.45576372375311" lon="9.043738899250092"><ele>125.0</ele><time>2026-04-12T04:45:34.999Z</time></trkpt><trkpt lat="45.455852659215374" lon="9.043682040604777"><ele>125.0</ele><time>2026-04-12T04:45:35.999Z</time></trkpt><trkpt lat="45.45594295025052" lon="9.043623838407303"><ele>125.0</ele><time>2026-04-12T04:45:36.999Z</time></trkpt><trkpt lat="45.45603291707773" lon="9.043566859675549"><ele>125.0</ele><time>2026-04-12T04:45:37.999Z</time></trkpt><trkpt lat="45.45612064965863" lon="9.0435058543696"><ele>125.0</ele><time>2026-04-12T04:45:38.999Z</time></trkpt><trkpt lat="45.45620877309527" lon="9.043443647463915"><ele>125.0</ele><time>2026-04-12T04:45:39.999Z</time></trkpt><trkpt lat="45.45629394057664" lon="9.043384052643841"><ele>125.0</ele><time>2026-04-12T04:45:40.999Z</time></trkpt><trkpt lat="45.45638566125414" lon="9.043319387845099"><ele>124.8</ele><time>2026-04-12T04:45:41.999Z</time></trkpt><trkpt lat="45.45647858136709" lon="9.043259217257749"><ele>124.6</ele><time>2026-04-12T04:45:42.999Z</time></trkpt><trkpt lat="45.45657430278307" lon="9.04319248743651"><ele>124.4</ele><time>2026-04-12T04:45:43.999Z</time></trkpt><trkpt lat="45.456674788494546" lon="9.043126053135373"><ele>124.2</ele><time>2026-04-12T04:45:44.999Z</time></trkpt><trkpt lat="45.456775874471724" lon="9.043056972439636"><ele>124.0</ele><time>2026-04-12T04:45:45.999Z</time></trkpt><trkpt lat="45.45687930211646" lon="9.04298309495623"><ele>124.0</ele><time>2026-04-12T04:45:46.999Z</time></trkpt><trkpt lat="45.456984976193795" lon="9.042910283520103"><ele>124.0</ele><time>2026-04-12T04:45:47.999Z</time></trkpt><trkpt lat="45.45708961625549" lon="9.042836369060604"><ele>124.0</ele><time>2026-04-12T04:45:48.999Z</time></trkpt><trkpt lat="45.457196114678084" lon="9.04276282982027"><ele>124.0</ele><time>2026-04-12T04:45:49.999Z</time></trkpt><trkpt lat="45.45730360091029" lon="9.042687395398255"><ele>124.2</ele><time>2026-04-12T04:45:50.999Z</time></trkpt><trkpt lat="45.45741135512408" lon="9.042615286458789"><ele>124.4</ele><time>2026-04-12T04:45:51.999Z</time></trkpt><trkpt lat="45.45751957590718" lon="9.042544572759795"><ele>124.6</ele><time>2026-04-12T04:45:52.999Z</time></trkpt><trkpt lat="45.45762110788236" lon="9.042481948188907"><ele>124.8</ele><time>2026-04-12T04:45:53.999Z</time></trkpt><trkpt lat="45.457702325043236" lon="9.042431648645232"><ele>125.0</ele><time>2026-04-12T04:45:54.999Z</time></trkpt><trkpt lat="45.457774572112946" lon="9.042389798920325"><ele>125.0</ele><time>2026-04-12T04:45:55.999Z</time></trkpt><trkpt lat="45.45784829027563" lon="9.04234757520532"><ele>125.0</ele><time>2026-04-12T04:45:56.999Z</time></trkpt><trkpt lat="45.457927503566516" lon="9.04230464725578"><ele>125.0</ele><time>2026-04-12T04:45:57.999Z</time></trkpt><trkpt lat="45.45801576599369" lon="9.042255142629587"><ele>125.0</ele><time>2026-04-12T04:45:58.999Z</time></trkpt><trkpt lat="45.45810914145781" lon="9.042204195918668"><ele>125.0</ele><time>2026-04-12T04:45:59.999Z</time></trkpt><trkpt lat="45.45820475021694" lon="9.042153278600134"><ele>125.6</ele><time>2026-04-12T04:46:00.999Z</time></trkpt><trkpt lat="45.458311002959086" lon="9.042094449607537"><ele>126.2</ele><time>2026-04-12T04:46:01.999Z</time></trkpt><trkpt lat="45.45841248362544" lon="9.04204032896007"><ele>126.80000000000001</ele><time>2026-04-12T04:46:02.999Z</time></trkpt><trkpt lat="45.45851248621723" lon="9.04199248167066"><ele>127.4</ele><time>2026-04-12T04:46:03.999Z</time></trkpt><trkpt lat="45.45861194695298" lon="9.041946930835348"><ele>128.0</ele><time>2026-04-12T04:46:04.999Z</time></trkpt><trkpt lat="45.458709771070005" lon="9.04189929012963"><ele>128.20000000000002</ele><time>2026-04-12T04:46:05.999Z</time></trkpt><trkpt lat="45.45880445920243" lon="9.041855760809014"><ele>128.4</ele><time>2026-04-12T04:46:06.999Z</time></trkpt><trkpt lat="45.458904468802764" lon="9.041803903891063"><ele>128.60000000000002</ele><time>2026-04-12T04:46:07.999Z</time></trkpt><trkpt lat="45.459005520831276" lon="9.041745734015038"><ele>128.8</ele><time>2026-04-12T04:46:08.999Z</time></trkpt><trkpt lat="45.45910146205963" lon="9.041688453567433"><ele>129.0</ele><time>2026-04-12T04:46:09.999Z</time></trkpt><trkpt lat="45.45919841591638" lon="9.041639315405774"><ele>128.8</ele><time>2026-04-12T04:46:10.999Z</time></trkpt><trkpt lat="45.45929459160841" lon="9.04158716600319"><ele>128.60000000000002</ele><time>2026-04-12T04:46:11.999Z</time></trkpt><trkpt lat="45.45940233160922" lon="9.041530274136738"><ele>128.4</ele><time>2026-04-12T04:46:12.999Z</time></trkpt><trkpt lat="45.459499712461295" lon="9.041478625001833"><ele>128.20000000000002</ele><time>2026-04-12T04:46:14Z</time></trkpt><trkpt lat="45.459600787569094" lon="9.041430899155326"><ele>128.0</ele><time>2026-04-12T04:46:15Z</time></trkpt><trkpt lat="45.45970691226951" lon="9.041379984977974"><ele>127.99999999999999</ele><time>2026-04-12T04:46:16Z</time></trkpt><trkpt lat="45.4598076474569" lon="9.041330207466387"><ele>128.0</ele><time>2026-04-12T04:46:17Z</time></trkpt><trkpt lat="45.4599004809719" lon="9.04128333455011"><ele>128.0</ele><time>2026-04-12T04:46:18Z</time></trkpt><trkpt lat="45.45997850726599" lon="9.04123951675222"><ele>128.0</ele><time>2026-04-12T04:46:19Z</time></trkpt><trkpt lat="45.46004644764224" lon="9.041209176863548"><ele>127.99999999999999</ele><time>2026-04-12T04:46:20Z</time></trkpt><trkpt lat="45.460112028109826" lon="9.041176393732677"><ele>128.0</ele><time>2026-04-12T04:46:21Z</time></trkpt><trkpt lat="45.4601814644864" lon="9.041138834494976"><ele>128.0</ele><time>2026-04-12T04:46:22Z</time></trkpt><trkpt lat="45.4602508889722" lon="9.041095982601654"><ele>128.0</ele><time>2026-04-12T04:46:23Z</time></trkpt><trkpt lat="45.460334951207564" lon="9.041051151306142"><ele>128.0</ele><time>2026-04-12T04:46:24Z</time></trkpt><trkpt lat="45.460421926213506" lon="9.041006833413617"><ele>128.0</ele><time>2026-04-12T04:46:25Z</time></trkpt><trkpt lat="45.460510383774235" lon="9.040958477303784"><ele>128.0</ele><time>2026-04-12T04:46:26Z</time></trkpt><trkpt lat="45.460607199521895" lon="9.040904975123608"><ele>128.0</ele><time>2026-04-12T04:46:27Z</time></trkpt><trkpt lat="45.460698999754165" lon="9.040853911379802"><ele>128.0</ele><time>2026-04-12T04:46:28Z</time></trkpt><trkpt lat="45.460796930074544" lon="9.040806855230016"><ele>128.0</ele><time>2026-04-12T04:46:29Z</time></trkpt><trkpt lat="45.46089820014221" lon="9.040754902246611"><ele>128.0</ele><time>2026-04-12T04:46:30Z</time></trkpt><trkpt lat="45.46100242786943" lon="9.040702370647233"><ele>128.0</ele><time>2026-04-12T04:46:31Z</time></trkpt><trkpt lat="45.46110713164208" lon="9.040652879856742"><ele>127.80000000000001</ele><time>2026-04-12T04:46:32Z</time></trkpt><trkpt lat="45.46120756680511" lon="9.040603080092351"><ele>127.60000000000001</ele><time>2026-04-12T04:46:33Z</time></trkpt><trkpt lat="45.46130826583254" lon="9.040547419570713"><ele>127.39999999999999</ele><time>2026-04-12T04:46:34Z</time></trkpt><trkpt lat="45.4614061762414" lon="9.040493458004816"><ele>127.19999999999999</ele><time>2026-04-12T04:46:35Z</time></trkpt><trkpt lat="45.46151080531769" lon="9.040439425238379"><ele>127.0</ele><time>2026-04-12T04:46:36Z</time></trkpt><trkpt lat="45.46161888301859" lon="9.04038730589278"><ele>127.0</ele><time>2026-04-12T04:46:37Z</time></trkpt><trkpt lat="45.46172890834452" lon="9.04033127398326"><ele>127.0</ele><time>2026-04-12T04:46:38Z</time></trkpt><trkpt lat="45.46183878461027" lon="9.040277464421477"><ele>127.0</ele><time>2026-04-12T04:46:39Z</time></trkpt><trkpt lat="45.46195112115696" lon="9.040228740744062"><ele>127.0</ele><time>2026-04-12T04:46:40Z</time></trkpt><trkpt lat="45.462069859428965" lon="9.040168374161418"><ele>127.0</ele><time>2026-04-12T04:46:41Z</time></trkpt><trkpt lat="45.46218903488218" lon="9.040107552805848"><ele>127.0</ele><time>2026-04-12T04:46:42Z</time></trkpt><trkpt lat="45.46230972049288" lon="9.040044430994822"><ele>127.0</ele><time>2026-04-12T04:46:43Z</time></trkpt><trkpt lat="45.462433258522914" lon="9.039969341433329"><ele>127.0</ele><time>2026-04-12T04:46:44Z</time></trkpt><trkpt lat="45.46255267524018" lon="9.039871273407023"><ele>126.75</ele><time>2026-04-12T04:46:45Z</time></trkpt><trkpt lat="45.46265984128862" lon="9.039751410223927"><ele>126.5</ele><time>2026-04-12T04:46:46Z</time></trkpt><trkpt lat="45.46275813625618" lon="9.039606136235003"><ele>126.25</ele><time>2026-04-12T04:46:47Z</time></trkpt><trkpt lat="45.46285522708503" lon="9.039443215165013"><ele>126.0</ele><time>2026-04-12T04:46:48Z</time></trkpt><trkpt lat="45.46295956794205" lon="9.039278763997093"><ele>126.33333333333334</ele><time>2026-04-12T04:46:49Z</time></trkpt><trkpt lat="45.4630694646533" lon="9.03911170947539"><ele>126.66666666666667</ele><time>2026-04-12T04:46:50Z</time></trkpt><trkpt lat="45.46318909628206" lon="9.038951760897687"><ele>127.0</ele><time>2026-04-12T04:46:51Z</time></trkpt><trkpt lat="45.46332039343325" lon="9.038803826474387"><ele>127.0</ele><time>2026-04-12T04:46:52Z</time></trkpt><trkpt lat="45.46346185986146" lon="9.03867326421991"><ele>127.0</ele><time>2026-04-12T04:46:53Z</time></trkpt><trkpt lat="45.46361956877186" lon="9.03856301648844"><ele>127.0</ele><time>2026-04-12T04:46:54Z</time></trkpt><trkpt lat="45.46378439801161" lon="9.038468740462323"><ele>126.66666666666667</ele><time>2026-04-12T04:46:55Z</time></trkpt><trkpt lat="45.46395663117421" lon="9.038382426154705"><ele>126.33333333333334</ele><time>2026-04-12T04:46:56Z</time></trkpt><trkpt lat="45.464128106733995" lon="9.038293553961385"><ele>126.0</ele><time>2026-04-12T04:46:57Z</time></trkpt><trkpt lat="45.464304424469965" lon="9.03820262000118"><ele>127.0</ele><time>2026-04-12T04:46:58Z</time></trkpt><trkpt lat="45.46448321607849" lon="9.038107126742123"><ele>128.0</ele><time>2026-04-12T04:46:59Z</time></trkpt><trkpt lat="45.46466226806761" lon="9.03801365999379"><ele>129.0</ele><time>2026-04-12T04:47:00Z</time></trkpt><trkpt lat="45.46484572134971" lon="9.037920510105108"><ele>129.33333333333334</ele><time>2026-04-12T04:47:01Z</time></trkpt><trkpt lat="45.465029285505615" lon="9.03782364177397"><ele>129.66666666666669</ele><time>2026-04-12T04:47:02Z</time></trkpt><trkpt lat="45.46521418126658" lon="9.037726307582385"><ele>130.0</ele><time>2026-04-12T04:47:03Z</time></trkpt><trkpt lat="45.465403360797985" lon="9.037628858880288"><ele>129.0</ele><time>2026-04-12T04:47:04Z</time></trkpt><trkpt lat="45.46559033848176" lon="9.037533235853273"><ele>128.0</ele><time>2026-04-12T04:47:05Z</time></trkpt><trkpt lat="45.465778850923684" lon="9.037436705104142"><ele>127.0</ele><time>2026-04-12T04:47:06Z</time></trkpt><trkpt lat="45.46596579621264" lon="9.037343381064135"><ele>127.0</ele><time>2026-04-12T04:47:07Z</time></trkpt><trkpt lat="45.46614863965025" lon="9.037248001663045"><ele>127.0</ele><time>2026-04-12T04:47:08Z</time></trkpt><trkpt lat="45.46633378960496" lon="9.037151180418642"><ele>127.0</ele><time>2026-04-12T04:47:09Z</time></trkpt><trkpt lat="45.46652038283186" lon="9.037056390529273"><ele>127.0</ele><time>2026-04-12T04:47:10Z</time></trkpt><trkpt lat="45.46670807626333" lon="9.03695596866866"><ele>127.0</ele><time>2026-04-12T04:47:11Z</time></trkpt><trkpt lat="45.46689387182607" lon="9.036853108609106"><ele>127.0</ele><time>2026-04-12T04:47:12Z</time></trkpt><trkpt lat="45.467077110649484" lon="9.036750891572835"><ele>127.33333333333334</ele><time>2026-04-12T04:47:13Z</time></trkpt><trkpt lat="45.4672578362717" lon="9.036646611723874"><ele>127.66666666666666</ele><time>2026-04-12T04:47:14Z</time></trkpt><trkpt lat="45.467439208686244" lon="9.036539715565297"><ele>128.0</ele><time>2026-04-12T04:47:15Z</time></trkpt><trkpt lat="45.46761843609163" lon="9.036436579405532"><ele>128.33333333333331</ele><time>2026-04-12T04:47:16Z</time></trkpt><trkpt lat="45.46779747019613" lon="9.036338496804527"><ele>128.66666666666666</ele><time>2026-04-12T04:47:17Z</time></trkpt><trkpt lat="45.46797507626123" lon="9.036243511882374"><ele>129.0</ele><time>2026-04-12T04:47:18Z</time></trkpt><trkpt lat="45.46815595505687" lon="9.036155009268583"><ele>129.33333333333334</ele><time>2026-04-12T04:47:19Z</time></trkpt><trkpt lat="45.468337723450254" lon="9.036077396979033"><ele>129.66666666666669</ele><time>2026-04-12T04:47:20Z</time></trkpt><trkpt lat="45.468518762218984" lon="9.036017110779902"><ele>130.0</ele><time>2026-04-12T04:47:21Z</time></trkpt><trkpt lat="45.468704669563216" lon="9.035965698903237"><ele>130.0</ele><time>2026-04-12T04:47:22Z</time></trkpt><trkpt lat="45.4688880380853" lon="9.035915164852796"><ele>130.0</ele><time>2026-04-12T04:47:23Z</time></trkpt><trkpt lat="45.469062258957884" lon="9.035869201995597"><ele>130.0</ele><time>2026-04-12T04:47:24Z</time></trkpt><trkpt lat="45.4692362505381" lon="9.035822370103645"><ele>130.66666666666669</ele><time>2026-04-12T04:47:24.999Z</time></trkpt><trkpt lat="45.46940029028553" lon="9.035772660067376"><ele>131.33333333333334</ele><time>2026-04-12T04:47:25.999Z</time></trkpt><trkpt lat="45.46956117084923" lon="9.035717623213186"><ele>132.0</ele><time>2026-04-12T04:47:26.999Z</time></trkpt><trkpt lat="45.469714993228685" lon="9.035654103355059"><ele>132.33333333333334</ele><time>2026-04-12T04:47:27.999Z</time></trkpt><trkpt lat="45.46986941111131" lon="9.035588359613964"><ele>132.66666666666669</ele><time>2026-04-12T04:47:28.999Z</time></trkpt><trkpt lat="45.4700126315322" lon="9.035517268426076"><ele>133.0</ele><time>2026-04-12T04:47:29.999Z</time></trkpt><trkpt lat="45.470152537663175" lon="9.035444752056256"><ele>133.0</ele><time>2026-04-12T04:47:30.999Z</time></trkpt><trkpt lat="45.47028900715622" lon="9.035373855506007"><ele>133.0</ele><time>2026-04-12T04:47:31.999Z</time></trkpt><trkpt lat="45.47042110107321" lon="9.035304456218757"><ele>133.0</ele><time>2026-04-12T04:47:32.999Z</time></trkpt><trkpt lat="45.47054711563818" lon="9.035231215657314"><ele>133.0</ele><time>2026-04-12T04:47:33.999Z</time></trkpt><trkpt lat="45.47067243137345" lon="9.035164857116992"><ele>133.4</ele><time>2026-04-12T04:47:34.999Z</time></trkpt><trkpt lat="45.47079490276808" lon="9.035101172913565"><ele>133.8</ele><time>2026-04-12T04:47:35.999Z</time></trkpt><trkpt lat="45.47089761969737" lon="9.035046108636497"><ele>134.2</ele><time>2026-04-12T04:47:36.999Z</time></trkpt><trkpt lat="45.47098603533187" lon="9.035000564369607"><ele>134.6</ele><time>2026-04-12T04:47:37.999Z</time></trkpt><trkpt lat="45.4710530848723" lon="9.034962291212993"><ele>135.0</ele><time>2026-04-12T04:47:38.999Z</time></trkpt><trkpt lat="45.471114853134594" lon="9.034931600411328"><ele>135.2</ele><time>2026-04-12T04:47:40.999Z</time></trkpt><trkpt lat="45.471188671939345" lon="9.03487820037321"><ele>135.4</ele><time>2026-04-12T04:48:04.999Z</time></trkpt><trkpt lat="45.47128987855643" lon="9.034838152449733"><ele>135.6</ele><time>2026-04-12T04:48:06.999Z</time></trkpt><trkpt lat="45.4713567487937" lon="9.034854989568844"><ele>135.8</ele><time>2026-04-12T04:48:07.999Z</time></trkpt><trkpt lat="45.47145684765304" lon="9.035004777079575"><ele>136.0</ele><time>2026-04-12T04:48:09.999Z</time></trkpt><trkpt lat="45.47150244427466" lon="9.035114080279273"><ele>135.6</ele><time>2026-04-12T04:48:10.999Z</time></trkpt><trkpt lat="45.47154304989972" lon="9.035237773834364"><ele>135.2</ele><time>2026-04-12T04:48:11.999Z</time></trkpt><trkpt lat="45.47158352540637" lon="9.035375751971037"><ele>134.8</ele><time>2026-04-12T04:48:12.999Z</time></trkpt><trkpt lat="45.47162500820324" lon="9.03551364234113"><ele>134.4</ele><time>2026-04-12T04:48:13.999Z</time></trkpt><trkpt lat="45.47167035605644" lon="9.035662172290689"><ele>134.0</ele><time>2026-04-12T04:48:14.999Z</time></trkpt><trkpt lat="45.471722949848775" lon="9.035823386460478"><ele>134.0</ele><time>2026-04-12T04:48:15.999Z</time></trkpt><trkpt lat="45.47177716149782" lon="9.03598910858724"><ele>134.0</ele><time>2026-04-12T04:48:16.999Z</time></trkpt><trkpt lat="45.471833338273875" lon="9.036152621698786"><ele>134.0</ele><time>2026-04-12T04:48:17.999Z</time></trkpt><trkpt lat="45.471888314413135" lon="9.0363207989629"><ele>134.0</ele><time>2026-04-12T04:48:18.999Z</time></trkpt><trkpt lat="45.471949124046176" lon="9.03649284630579"><ele>134.0</ele><time>2026-04-12T04:48:20Z</time></trkpt><trkpt lat="45.47201331293613" lon="9.036669729849452"><ele>134.0</ele><time>2026-04-12T04:48:21Z</time></trkpt><trkpt lat="45.47207699097541" lon="9.036846982419013"><ele>134.0</ele><time>2026-04-12T04:48:22Z</time></trkpt><trkpt lat="45.472135728748036" lon="9.037026251946642"><ele>134.0</ele><time>2026-04-12T04:48:23Z</time></trkpt><trkpt lat="45.47220034884465" lon="9.037212278636922"><ele>134.0</ele><time>2026-04-12T04:48:24Z</time></trkpt><trkpt lat="45.47226205938726" lon="9.037399004400234"><ele>134.0</ele><time>2026-04-12T04:48:25Z</time></trkpt><trkpt lat="45.47232212266994" lon="9.037590442010703"><ele>134.0</ele><time>2026-04-12T04:48:26Z</time></trkpt><trkpt lat="45.472385423921324" lon="9.03778452797113"><ele>134.0</ele><time>2026-04-12T04:48:27Z</time></trkpt><trkpt lat="45.47245250892758" lon="9.037978348122731"><ele>134.33333333333331</ele><time>2026-04-12T04:48:28Z</time></trkpt><trkpt lat="45.47251781039299" lon="9.038177690436372"><ele>134.66666666666666</ele><time>2026-04-12T04:48:29Z</time></trkpt><trkpt lat="45.472583743483426" lon="9.038375529420076"><ele>135.0</ele><time>2026-04-12T04:48:30Z</time></trkpt><trkpt lat="45.47265019477707" lon="9.038572958882629"><ele>134.66666666666666</ele><time>2026-04-12T04:48:31Z</time></trkpt><trkpt lat="45.472715067134054" lon="9.038772913451405"><ele>134.33333333333331</ele><time>2026-04-12T04:48:32Z</time></trkpt><trkpt lat="45.47277892994678" lon="9.038977738416403"><ele>134.0</ele><time>2026-04-12T04:48:33Z</time></trkpt><trkpt lat="45.4728445756986" lon="9.03918250417162"><ele>134.0</ele><time>2026-04-12T04:48:34Z</time></trkpt><trkpt lat="45.47290692090537" lon="9.039397221380822"><ele>134.0</ele><time>2026-04-12T04:48:35Z</time></trkpt><trkpt lat="45.47297503183718" lon="9.039605120590371"><ele>134.0</ele><time>2026-04-12T04:48:36Z</time></trkpt><trkpt lat="45.47305428359435" lon="9.039801735268806"><ele>134.66666666666666</ele><time>2026-04-12T04:48:37Z</time></trkpt><trkpt lat="45.4731503876461" lon="9.03998619772894"><ele>135.33333333333334</ele><time>2026-04-12T04:48:38Z</time></trkpt><trkpt lat="45.473244667615404" lon="9.040162398430862"><ele>136.0</ele><time>2026-04-12T04:48:39Z</time></trkpt><trkpt lat="45.47333888099591" lon="9.040357263171405"><ele>136.0</ele><time>2026-04-12T04:48:40Z</time></trkpt><trkpt lat="45.47343958605483" lon="9.040549681119913"><ele>136.0</ele><time>2026-04-12T04:48:41Z</time></trkpt><trkpt lat="45.473534866620746" lon="9.040745159676055"><ele>136.0</ele><time>2026-04-12T04:48:42Z</time></trkpt><trkpt lat="45.47363251397651" lon="9.040937832374828"><ele>136.33333333333334</ele><time>2026-04-12T04:48:43Z</time></trkpt><trkpt lat="45.4737483615312" lon="9.041114468463539"><ele>136.66666666666666</ele><time>2026-04-12T04:48:44Z</time></trkpt><trkpt lat="45.4738491492626" lon="9.041310536386781"><ele>137.0</ele><time>2026-04-12T04:48:45Z</time></trkpt><trkpt lat="45.47394863280539" lon="9.041502399908559"><ele>136.66666666666666</ele><time>2026-04-12T04:48:46Z</time></trkpt><trkpt lat="45.4740540710854" lon="9.041698236890715"><ele>136.33333333333334</ele><time>2026-04-12T04:48:47Z</time></trkpt><trkpt lat="45.474158291376966" lon="9.041893030015837"><ele>136.0</ele><time>2026-04-12T04:48:48Z</time></trkpt><trkpt lat="45.47424497941932" lon="9.042086241619236"><ele>136.0</ele><time>2026-04-12T04:48:49Z</time></trkpt><trkpt lat="45.47433898000198" lon="9.04227137024097"><ele>136.0</ele><time>2026-04-12T04:48:50Z</time></trkpt><trkpt lat="45.474438010639524" lon="9.042462036316579"><ele>136.0</ele><time>2026-04-12T04:48:51Z</time></trkpt><trkpt lat="45.47453124898321" lon="9.042646977203937"><ele>136.0</ele><time>2026-04-12T04:48:52Z</time></trkpt><trkpt lat="45.47462422066189" lon="9.042834268286079"><ele>136.0</ele><time>2026-04-12T04:48:53Z</time></trkpt><trkpt lat="45.47471905506627" lon="9.043029773606559"><ele>136.0</ele><time>2026-04-12T04:48:54Z</time></trkpt><trkpt lat="45.47480729464082" lon="9.043228806287383"><ele>135.33333333333334</ele><time>2026-04-12T04:48:55Z</time></trkpt><trkpt lat="45.47488325744925" lon="9.043426065572312"><ele>134.66666666666666</ele><time>2026-04-12T04:48:56Z</time></trkpt><trkpt lat="45.47495617437938" lon="9.043625739720476"><ele>134.0</ele><time>2026-04-12T04:48:57Z</time></trkpt><trkpt lat="45.475018635935925" lon="9.043830615955269"><ele>134.0</ele><time>2026-04-12T04:48:58Z</time></trkpt><trkpt lat="45.47507300828058" lon="9.04404053844613"><ele>134.0</ele><time>2026-04-12T04:48:59Z</time></trkpt><trkpt lat="45.47511731245022" lon="9.044263000072208"><ele>134.0</ele><time>2026-04-12T04:49:00Z</time></trkpt><trkpt lat="45.475148208978695" lon="9.044491750204685"><ele>133.33333333333331</ele><time>2026-04-12T04:49:01Z</time></trkpt><trkpt lat="45.47517255294991" lon="9.044717723039255"><ele>132.66666666666666</ele><time>2026-04-12T04:49:02Z</time></trkpt><trkpt lat="45.47519558430315" lon="9.044941445910856"><ele>132.0</ele><time>2026-04-12T04:49:03Z</time></trkpt><trkpt lat="45.47521335674345" lon="9.04516357047027"><ele>131.33333333333334</ele><time>2026-04-12T04:49:04Z</time></trkpt><trkpt lat="45.47523525580627" lon="9.045384273092091"><ele>130.66666666666669</ele><time>2026-04-12T04:49:05Z</time></trkpt><trkpt lat="45.47525289928891" lon="9.045609646273672"><ele>130.0</ele><time>2026-04-12T04:49:06Z</time></trkpt><trkpt lat="45.47527130894906" lon="9.045835554007576"><ele>129.66666666666669</ele><time>2026-04-12T04:49:07Z</time></trkpt><trkpt lat="45.47529264509704" lon="9.046062392693269"><ele>129.33333333333334</ele><time>2026-04-12T04:49:08Z</time></trkpt><trkpt lat="45.47531829038027" lon="9.046289740775107"><ele>129.0</ele><time>2026-04-12T04:49:09Z</time></trkpt><trkpt lat="45.47535217837539" lon="9.046514046170419"><ele>129.33333333333334</ele><time>2026-04-12T04:49:10Z</time></trkpt><trkpt lat="45.47539491429483" lon="9.046733672076813"><ele>129.66666666666669</ele><time>2026-04-12T04:49:11Z</time></trkpt><trkpt lat="45.475443875686146" lon="9.046945295552588"><ele>130.0</ele><time>2026-04-12T04:49:12Z</time></trkpt><trkpt lat="45.47549489754483" lon="9.047153411415632"><ele>130.66666666666669</ele><time>2026-04-12T04:49:13Z</time></trkpt><trkpt lat="45.47554706604829" lon="9.047359868609378"><ele>131.33333333333334</ele><time>2026-04-12T04:49:14Z</time></trkpt><trkpt lat="45.47560102368355" lon="9.047560099389345"><ele>132.0</ele><time>2026-04-12T04:49:15Z</time></trkpt><trkpt lat="45.475655147049345" lon="9.047759000969148"><ele>132.0</ele><time>2026-04-12T04:49:16Z</time></trkpt><trkpt lat="45.47570469772474" lon="9.047956535233794"><ele>132.0</ele><time>2026-04-12T04:49:17Z</time></trkpt><trkpt lat="45.47575789629444" lon="9.048150631382411"><ele>132.0</ele><time>2026-04-12T04:49:18Z</time></trkpt><trkpt lat="45.47581027116063" lon="9.048342913760862"><ele>132.0</ele><time>2026-04-12T04:49:19Z</time></trkpt><trkpt lat="45.47586334259712" lon="9.048534880061732"><ele>131.75</ele><time>2026-04-12T04:49:20Z</time></trkpt><trkpt lat="45.47591731067983" lon="9.048722528981143"><ele>131.5</ele><time>2026-04-12T04:49:21Z</time></trkpt><trkpt lat="45.47597674899858" lon="9.048904464997202"><ele>131.25</ele><time>2026-04-12T04:49:22Z</time></trkpt><trkpt lat="45.47603433926881" lon="9.049086015576448"><ele>131.0</ele><time>2026-04-12T04:49:23Z</time></trkpt><trkpt lat="45.47609429662362" lon="9.049274247439412"><ele>130.33333333333331</ele><time>2026-04-12T04:49:23.999Z</time></trkpt><trkpt lat="45.476148676950174" lon="9.049468064732707"><ele>129.66666666666666</ele><time>2026-04-12T04:49:24.999Z</time></trkpt><trkpt lat="45.47620021459624" lon="9.049671074302427"><ele>129.0</ele><time>2026-04-12T04:49:25.999Z</time></trkpt><trkpt lat="45.476239017803294" lon="9.049888532681932"><ele>129.66666666666666</ele><time>2026-04-12T04:49:26.999Z</time></trkpt><trkpt lat="45.47626306910051" lon="9.050111696883048"><ele>130.33333333333331</ele><time>2026-04-12T04:49:27.999Z</time></trkpt><trkpt lat="45.47627234757083" lon="9.050348754840725"><ele>131.0</ele><time>2026-04-12T04:49:28.999Z</time></trkpt><trkpt lat="45.47626748924409" lon="9.050588456198371"><ele>132.0</ele><time>2026-04-12T04:49:29.999Z</time></trkpt><trkpt lat="45.476252994613795" lon="9.05083583993735"><ele>133.0</ele><time>2026-04-12T04:49:30.999Z</time></trkpt><trkpt lat="45.47623665110409" lon="9.05108804676338"><ele>134.0</ele><time>2026-04-12T04:49:31.999Z</time></trkpt><trkpt lat="45.476222695272746" lon="9.05133970801821"><ele>134.0</ele><time>2026-04-12T04:49:32.999Z</time></trkpt><trkpt lat="45.47620400449661" lon="9.05159229505913"><ele>134.0</ele><time>2026-04-12T04:49:33.999Z</time></trkpt><trkpt lat="45.47618943804654" lon="9.051855031147428"><ele>134.0</ele><time>2026-04-12T04:49:34.999Z</time></trkpt><trkpt lat="45.47617031278087" lon="9.052115826911788"><ele>133.66666666666666</ele><time>2026-04-12T04:49:35.999Z</time></trkpt><trkpt lat="45.47615929675575" lon="9.052378478116688"><ele>133.33333333333334</ele><time>2026-04-12T04:49:36.999Z</time></trkpt><trkpt lat="45.476166483930285" lon="9.052640623333968"><ele>133.0</ele><time>2026-04-12T04:49:37.999Z</time></trkpt><trkpt lat="45.47619508526593" lon="9.052902015946191"><ele>133.0</ele><time>2026-04-12T04:49:38.999Z</time></trkpt><trkpt lat="45.476237872600635" lon="9.053161883650688"><ele>133.0</ele><time>2026-04-12T04:49:39.999Z</time></trkpt><trkpt lat="45.47629435083913" lon="9.0534208406331"><ele>133.0</ele><time>2026-04-12T04:49:40.999Z</time></trkpt><trkpt lat="45.476352549227286" lon="9.053681020379738"><ele>133.0</ele><time>2026-04-12T04:49:41.999Z</time></trkpt><trkpt lat="45.47641751389296" lon="9.053937944450382"><ele>133.0</ele><time>2026-04-12T04:49:42.999Z</time></trkpt><trkpt lat="45.47648337643199" lon="9.054198506907658"><ele>133.0</ele><time>2026-04-12T04:49:43.999Z</time></trkpt><trkpt lat="45.476546354429416" lon="9.054458066800837"><ele>133.0</ele><time>2026-04-12T04:49:44.999Z</time></trkpt><trkpt lat="45.47660864606363" lon="9.054715960665526"><ele>133.0</ele><time>2026-04-12T04:49:45.999Z</time></trkpt><trkpt lat="45.47666795041763" lon="9.054970898678041"><ele>133.0</ele><time>2026-04-12T04:49:46.999Z</time></trkpt><trkpt lat="45.47672936096382" lon="9.055220584285891"><ele>133.0</ele><time>2026-04-12T04:49:47.999Z</time></trkpt><trkpt lat="45.47679046554407" lon="9.055468064630505"><ele>133.0</ele><time>2026-04-12T04:49:48.999Z</time></trkpt><trkpt lat="45.47685097089897" lon="9.055709992988952"><ele>133.0</ele><time>2026-04-12T04:49:49.999Z</time></trkpt><trkpt lat="45.47690722798155" lon="9.055938612467148"><ele>133.0</ele><time>2026-04-12T04:49:50.999Z</time></trkpt><trkpt lat="45.47696181240251" lon="9.056141909272545"><ele>133.0</ele><time>2026-04-12T04:49:51.999Z</time></trkpt><trkpt lat="45.47700975538663" lon="9.05632660958408"><ele>133.0</ele><time>2026-04-12T04:49:52.999Z</time></trkpt><trkpt lat="45.477045621973474" lon="9.056498767587373"><ele>133.0</ele><time>2026-04-12T04:49:53.999Z</time></trkpt><trkpt lat="45.4770689865396" lon="9.056661154741038"><ele>132.8</ele><time>2026-04-12T04:49:54.999Z</time></trkpt><trkpt lat="45.477081705591814" lon="9.056813509118491"><ele>132.60000000000002</ele><time>2026-04-12T04:49:55.999Z</time></trkpt><trkpt lat="45.477080717125155" lon="9.056956430094951"><ele>132.39999999999998</ele><time>2026-04-12T04:49:56.999Z</time></trkpt><trkpt lat="45.477069234377666" lon="9.057079761889225"><ele>132.2</ele><time>2026-04-12T04:49:57.999Z</time></trkpt><trkpt lat="45.47705926668818" lon="9.057196566803132"><ele>132.0</ele><time>2026-04-12T04:49:58.999Z</time></trkpt><trkpt lat="45.477107498523054" lon="9.057332487745187"><ele>132.0</ele><time>2026-04-12T04:49:59.999Z</time></trkpt><trkpt lat="45.47717055716289" lon="9.057402532039529"><ele>132.0</ele><time>2026-04-12T04:50:00.999Z</time></trkpt><trkpt lat="45.47724035477812" lon="9.057518695910721"><ele>132.0</ele><time>2026-04-12T04:50:01.999Z</time></trkpt><trkpt lat="45.47728464764464" lon="9.057663998119832"><ele>132.0</ele><time>2026-04-12T04:50:02.999Z</time></trkpt><trkpt lat="45.47731906598516" lon="9.057827259762258"><ele>132.0</ele><time>2026-04-12T04:50:03.999Z</time></trkpt><trkpt lat="45.47735855679649" lon="9.058004637134431"><ele>131.75</ele><time>2026-04-12T04:50:04.999Z</time></trkpt><trkpt lat="45.477398053460874" lon="9.05819177591431"><ele>131.5</ele><time>2026-04-12T04:50:05.999Z</time></trkpt><trkpt lat="45.47743245251216" lon="9.05838130130495"><ele>131.25</ele><time>2026-04-12T04:50:06.999Z</time></trkpt><trkpt lat="45.47746952967447" lon="9.05857004137229"><ele>131.0</ele><time>2026-04-12T04:50:07.999Z</time></trkpt><trkpt lat="45.47750750158893" lon="9.058768001634306"><ele>131.5</ele><time>2026-04-12T04:50:08.999Z</time></trkpt><trkpt lat="45.477547489092125" lon="9.058972626183978"><ele>132.0</ele><time>2026-04-12T04:50:09.999Z</time></trkpt><trkpt lat="45.47758259543523" lon="9.059177789086212"><ele>132.5</ele><time>2026-04-12T04:50:10.999Z</time></trkpt><trkpt lat="45.47762106786104" lon="9.059374514149779"><ele>133.0</ele><time>2026-04-12T04:50:11.999Z</time></trkpt><trkpt lat="45.47765958249959" lon="9.059569774241083"><ele>133.20000000000002</ele><time>2026-04-12T04:50:12.999Z</time></trkpt><trkpt lat="45.47769371661359" lon="9.05975741874718"><ele>133.4</ele><time>2026-04-12T04:50:13.999Z</time></trkpt><trkpt lat="45.47772387598816" lon="9.059922093397741"><ele>133.60000000000002</ele><time>2026-04-12T04:50:14.999Z</time></trkpt><trkpt lat="45.47775485446299" lon="9.06005817076109"><ele>133.8</ele><time>2026-04-12T04:50:15.999Z</time></trkpt><trkpt lat="45.47778940715477" lon="9.060165999608152"><ele>134.0</ele><time>2026-04-12T04:50:16.999Z</time></trkpt><trkpt lat="45.477838801926715" lon="9.060245521464699"><ele>134.0</ele><time>2026-04-12T04:50:17.999Z</time></trkpt><trkpt lat="45.47784814606545" lon="9.060354074702172"><ele>134.0</ele><time>2026-04-12T04:50:18.999Z</time></trkpt><trkpt lat="45.477921840920125" lon="9.060478625660652"><ele>134.0</ele><time>2026-04-12T04:50:20.999Z</time></trkpt><trkpt lat="45.477992106355316" lon="9.060486406386344"><ele>134.0</ele><time>2026-04-12T04:50:21.999Z</time></trkpt><trkpt lat="45.478063099819096" lon="9.06044802041412"><ele>134.0</ele><time>2026-04-12T04:50:22.999Z</time></trkpt><trkpt lat="45.47811688594148" lon="9.06036703765056"><ele>134.0</ele><time>2026-04-12T04:50:23.999Z</time></trkpt><trkpt lat="45.478170320793375" lon="9.06029090566332"><ele>134.0</ele><time>2026-04-12T04:50:24.999Z</time></trkpt><trkpt lat="45.47824525111147" lon="9.060263163978926"><ele>134.0</ele><time>2026-04-12T04:50:26Z</time></trkpt><trkpt lat="45.47833454286356" lon="9.060252544306849"><ele>134.0</ele><time>2026-04-12T04:50:27Z</time></trkpt><trkpt lat="45.47842204822801" lon="9.060239610603027"><ele>134.0</ele><time>2026-04-12T04:50:28Z</time></trkpt><trkpt lat="45.47850967985074" lon="9.060231320454715"><ele>134.0</ele><time>2026-04-12T04:50:29Z</time></trkpt><trkpt lat="45.47860325994829" lon="9.06022043672959"><ele>134.0</ele><time>2026-04-12T04:50:30Z</time></trkpt><trkpt lat="45.47870435883554" lon="9.060208749130986"><ele>133.8</ele><time>2026-04-12T04:50:31Z</time></trkpt><trkpt lat="45.47880968493374" lon="9.060200460757418"><ele>133.60000000000002</ele><time>2026-04-12T04:50:32Z</time></trkpt><trkpt lat="45.478912952655314" lon="9.060193026999327"><ele>133.4</ele><time>2026-04-12T04:50:33Z</time></trkpt><trkpt lat="45.47901115538079" lon="9.0601866968923"><ele>133.20000000000002</ele><time>2026-04-12T04:50:34Z</time></trkpt><trkpt lat="45.479091941569436" lon="9.060179511833827"><ele>133.0</ele><time>2026-04-12T04:50:35Z</time></trkpt><trkpt lat="45.479178445003306" lon="9.060172341716292"><ele>133.0</ele><time>2026-04-12T04:50:36Z</time></trkpt><trkpt lat="45.47927552197511" lon="9.060162417380987"><ele>133.0</ele><time>2026-04-12T04:50:37Z</time></trkpt><trkpt lat="45.47937990346448" lon="9.060149768718437"><ele>133.0</ele><time>2026-04-12T04:50:38Z</time></trkpt><trkpt lat="45.479492317683174" lon="9.060127345014306"><ele>133.0</ele><time>2026-04-12T04:50:39Z</time></trkpt><trkpt lat="45.47960567237374" lon="9.06009201461206"><ele>133.0</ele><time>2026-04-12T04:50:40Z</time></trkpt><trkpt lat="45.479723080392006" lon="9.060056843081167"><ele>133.20000000000002</ele><time>2026-04-12T04:50:41Z</time></trkpt><trkpt lat="45.47983060570308" lon="9.060020451515836"><ele>133.4</ele><time>2026-04-12T04:50:42Z</time></trkpt><trkpt lat="45.47991931315374" lon="9.059984142420477"><ele>133.60000000000002</ele><time>2026-04-12T04:50:43Z</time></trkpt><trkpt lat="45.479992375771964" lon="9.059958301667042"><ele>133.8</ele><time>2026-04-12T04:50:44Z</time></trkpt><trkpt lat="45.4800572133943" lon="9.059935877477576"><ele>134.0</ele><time>2026-04-12T04:50:45Z</time></trkpt><trkpt lat="45.48019341946805" lon="9.059915935474066"><ele>134.0</ele><time>2026-04-12T04:50:47Z</time></trkpt><trkpt lat="45.48027066632438" lon="9.059917855622082"><ele>134.0</ele><time>2026-04-12T04:50:48Z</time></trkpt><trkpt lat="45.48034586959799" lon="9.05984043362769"><ele>134.0</ele><time>2026-04-12T04:50:49Z</time></trkpt><trkpt lat="45.48042695581713" lon="9.059799401878847"><ele>134.0</ele><time>2026-04-12T04:50:50Z</time></trkpt><trkpt lat="45.48051095202049" lon="9.059756832367592"><ele>134.0</ele><time>2026-04-12T04:50:51Z</time></trkpt><trkpt lat="45.48060272719154" lon="9.059713807345739"><ele>134.0</ele><time>2026-04-12T04:50:52Z</time></trkpt><trkpt lat="45.48069746022658" lon="9.05967138163381"><ele>134.0</ele><time>2026-04-12T04:50:53Z</time></trkpt><trkpt lat="45.48079581314358" lon="9.059620370541161"><ele>134.0</ele><time>2026-04-12T04:50:54Z</time></trkpt><trkpt lat="45.48089682013988" lon="9.059561020511419"><ele>134.0</ele><time>2026-04-12T04:50:55Z</time></trkpt><trkpt lat="45.480995907714544" lon="9.05949253307601"><ele>134.0</ele><time>2026-04-12T04:50:56Z</time></trkpt><trkpt lat="45.48109935675923" lon="9.059414661819636"><ele>134.0</ele><time>2026-04-12T04:50:57Z</time></trkpt><trkpt lat="45.48120188015074" lon="9.059330019754224"><ele>133.75</ele><time>2026-04-12T04:50:58Z</time></trkpt><trkpt lat="45.48130508933768" lon="9.059241337943686"><ele>133.5</ele><time>2026-04-12T04:50:59Z</time></trkpt><trkpt lat="45.481410576763395" lon="9.059157169345108"><ele>133.25</ele><time>2026-04-12T04:51:00Z</time></trkpt><trkpt lat="45.48150505231112" lon="9.059080407836381"><ele>133.0</ele><time>2026-04-12T04:51:01Z</time></trkpt><trkpt lat="45.48159754225657" lon="9.059016878438792"><ele>133.0</ele><time>2026-04-12T04:51:02Z</time></trkpt><trkpt lat="45.481680231493335" lon="9.058955423538665"><ele>133.0</ele><time>2026-04-12T04:51:03Z</time></trkpt><trkpt lat="45.481762087131415" lon="9.05889283111994"><ele>133.0</ele><time>2026-04-12T04:51:04Z</time></trkpt><trkpt lat="45.48184839587011" lon="9.058821763471938"><ele>133.0</ele><time>2026-04-12T04:51:05Z</time></trkpt><trkpt lat="45.48193120546585" lon="9.05874574941093"><ele>133.0</ele><time>2026-04-12T04:51:06Z</time></trkpt><trkpt lat="45.482021611937924" lon="9.058660720944527"><ele>133.0</ele><time>2026-04-12T04:51:07Z</time></trkpt><trkpt lat="45.48212246559186" lon="9.058571171594197"><ele>133.0</ele><time>2026-04-12T04:51:08Z</time></trkpt><trkpt lat="45.48222526383267" lon="9.058481266090512"><ele>133.0</ele><time>2026-04-12T04:51:09Z</time></trkpt><trkpt lat="45.48233139996422" lon="9.058394995717736"><ele>133.0</ele><time>2026-04-12T04:51:10Z</time></trkpt><trkpt lat="45.48243053562963" lon="9.058314557362142"><ele>133.5</ele><time>2026-04-12T04:51:11Z</time></trkpt><trkpt lat="45.482533940724316" lon="9.058224882418774"><ele>134.0</ele><time>2026-04-12T04:51:12Z</time></trkpt><trkpt lat="45.48264035423303" lon="9.058137710480636"><ele>134.5</ele><time>2026-04-12T04:51:13Z</time></trkpt><trkpt lat="45.4827460567343" lon="9.05804853006645"><ele>135.0</ele><time>2026-04-12T04:51:14Z</time></trkpt><trkpt lat="45.48285134895108" lon="9.057960745260933"><ele>135.5</ele><time>2026-04-12T04:51:15Z</time></trkpt><trkpt lat="45.48296039685967" lon="9.057874667621565"><ele>136.0</ele><time>2026-04-12T04:51:16Z</time></trkpt><trkpt lat="45.483059594933145" lon="9.057785160240295"><ele>136.5</ele><time>2026-04-12T04:51:17Z</time></trkpt><trkpt lat="45.48316160562627" lon="9.057694494669425"><ele>137.0</ele><time>2026-04-12T04:51:18Z</time></trkpt><trkpt lat="45.483261590242556" lon="9.057609307927581"><ele>137.0</ele><time>2026-04-12T04:51:19Z</time></trkpt><trkpt lat="45.4833670564693" lon="9.057544704861895"><ele>137.0</ele><time>2026-04-12T04:51:20Z</time></trkpt><trkpt lat="45.48348411173135" lon="9.057501640512749"><ele>137.0</ele><time>2026-04-12T04:51:21Z</time></trkpt><trkpt lat="45.4835968479905" lon="9.05748658338481"><ele>137.0</ele><time>2026-04-12T04:51:22Z</time></trkpt><trkpt lat="45.483712400904544" lon="9.057468814931019"><ele>137.0</ele><time>2026-04-12T04:51:23Z</time></trkpt><trkpt lat="45.48382027977302" lon="9.057445435889207"><ele>137.0</ele><time>2026-04-12T04:51:24Z</time></trkpt><trkpt lat="45.48392279316295" lon="9.057415915639034"><ele>137.0</ele><time>2026-04-12T04:51:25Z</time></trkpt><trkpt lat="45.484014063001226" lon="9.057394830232917"><ele>137.0</ele><time>2026-04-12T04:51:26Z</time></trkpt><trkpt lat="45.484093609099276" lon="9.057374444820361"><ele>137.0</ele><time>2026-04-12T04:51:27Z</time></trkpt><trkpt lat="45.4841636996437" lon="9.05736511464878"><ele>137.00000000000003</ele><time>2026-04-12T04:51:28Z</time></trkpt><trkpt lat="45.484233312354796" lon="9.057376124050535"><ele>137.0</ele><time>2026-04-12T04:51:29Z</time></trkpt><trkpt lat="45.48430409308799" lon="9.057375386963205"><ele>137.0</ele><time>2026-04-12T04:51:30Z</time></trkpt><trkpt lat="45.4843833446614" lon="9.057360744548197"><ele>137.0</ele><time>2026-04-12T04:51:31Z</time></trkpt><trkpt lat="45.484454013686026" lon="9.05732981702826"><ele>137.0</ele><time>2026-04-12T04:51:32Z</time></trkpt><trkpt lat="45.48451656027788" lon="9.057304848744916"><ele>137.00000000000003</ele><time>2026-04-12T04:51:33Z</time></trkpt><trkpt lat="45.48457866655441" lon="9.05728396976977"><ele>137.0</ele><time>2026-04-12T04:51:33.999Z</time></trkpt><trkpt lat="45.48465149818278" lon="9.057263122345061"><ele>136.4</ele><time>2026-04-12T04:51:34.999Z</time></trkpt><trkpt lat="45.48473610674206" lon="9.057245092039876"><ele>135.79999999999998</ele><time>2026-04-12T04:51:35.999Z</time></trkpt><trkpt lat="45.48483106403495" lon="9.057225376209782"><ele>135.2</ele><time>2026-04-12T04:51:36.999Z</time></trkpt><trkpt lat="45.484931643415734" lon="9.057202377309675"><ele>134.6</ele><time>2026-04-12T04:51:37.999Z</time></trkpt><trkpt lat="45.485041067190586" lon="9.057183041850152"><ele>134.0</ele><time>2026-04-12T04:51:38.999Z</time></trkpt><trkpt lat="45.4851553108095" lon="9.05715964585901"><ele>134.0</ele><time>2026-04-12T04:51:39.999Z</time></trkpt><trkpt lat="45.48526916743287" lon="9.057131635934018"><ele>134.0</ele><time>2026-04-12T04:51:40.999Z</time></trkpt><trkpt lat="45.48538895562997" lon="9.057106330446235"><ele>134.0</ele><time>2026-04-12T04:51:41.999Z</time></trkpt><trkpt lat="45.48548827955886" lon="9.057086897985345"><ele>134.0</ele><time>2026-04-12T04:51:42.999Z</time></trkpt><trkpt lat="45.48557065053676" lon="9.057072006064743"><ele>134.0</ele><time>2026-04-12T04:51:43.999Z</time></trkpt><trkpt lat="45.48564446312356" lon="9.057059685393506"><ele>134.0</ele><time>2026-04-12T04:51:44.999Z</time></trkpt><trkpt lat="45.485719151840016" lon="9.057040766266933"><ele>134.0</ele><time>2026-04-12T04:51:45.999Z</time></trkpt><trkpt lat="45.48580200016274" lon="9.057021069477623"><ele>134.0</ele><time>2026-04-12T04:51:46.999Z</time></trkpt><trkpt lat="45.48589561583745" lon="9.056998169711743"><ele>134.0</ele><time>2026-04-12T04:51:47.999Z</time></trkpt><trkpt lat="45.48599357207292" lon="9.056977711448958"><ele>134.0</ele><time>2026-04-12T04:51:48.999Z</time></trkpt><trkpt lat="45.48608796686083" lon="9.056958994043717"><ele>134.0</ele><time>2026-04-12T04:51:49.999Z</time></trkpt><trkpt lat="45.48618682211531" lon="9.056944455903691"><ele>134.0</ele><time>2026-04-12T04:51:50.999Z</time></trkpt><trkpt lat="45.48628827680261" lon="9.056923540865162"><ele>134.0</ele><time>2026-04-12T04:51:51.999Z</time></trkpt><trkpt lat="45.48638167018046" lon="9.056899536780275"><ele>134.0</ele><time>2026-04-12T04:51:52.999Z</time></trkpt><trkpt lat="45.48646799202141" lon="9.056877978204104"><ele>134.0</ele><time>2026-04-12T04:51:53.999Z</time></trkpt><trkpt lat="45.48655160029266" lon="9.056846296486642"><ele>134.0</ele><time>2026-04-12T04:51:54.999Z</time></trkpt><trkpt lat="45.486637210019765" lon="9.056822362643295"><ele>134.0</ele><time>2026-04-12T04:51:55.999Z</time></trkpt><trkpt lat="45.486725686419405" lon="9.056817349598923"><ele>134.0</ele><time>2026-04-12T04:51:56.999Z</time></trkpt><trkpt lat="45.486817118728055" lon="9.056828033606733"><ele>134.0</ele><time>2026-04-12T04:51:57.999Z</time></trkpt><trkpt lat="45.486904188611184" lon="9.056822171457279"><ele>134.0</ele><time>2026-04-12T04:51:58.999Z</time></trkpt><trkpt lat="45.48701235834576" lon="9.056826066224625"><ele>134.0</ele><time>2026-04-12T04:52:00.999Z</time></trkpt><trkpt lat="45.48705686058274" lon="9.056961942815548"><ele>134.0</ele><time>2026-04-12T04:52:02.999Z</time></trkpt><trkpt lat="45.487058086942305" lon="9.05706766165368"><ele>134.0</ele><time>2026-04-12T04:52:03.999Z</time></trkpt><trkpt lat="45.48706478202515" lon="9.057181468314884"><ele>134.0</ele><time>2026-04-12T04:52:04.999Z</time></trkpt><trkpt lat="45.487077102019214" lon="9.057307484278892"><ele>134.0</ele><time>2026-04-12T04:52:05.999Z</time></trkpt><trkpt lat="45.48708807074137" lon="9.057442569934253"><ele>134.0</ele><time>2026-04-12T04:52:06.999Z</time></trkpt><trkpt lat="45.487101504212525" lon="9.057582690430353"><ele>134.0</ele><time>2026-04-12T04:52:07.999Z</time></trkpt><trkpt lat="45.48711369321713" lon="9.057722385481453"><ele>134.33333333333331</ele><time>2026-04-12T04:52:08.999Z</time></trkpt><trkpt lat="45.487127540740495" lon="9.05785809347188"><ele>134.66666666666666</ele><time>2026-04-12T04:52:09.999Z</time></trkpt><trkpt lat="45.48714317369191" lon="9.057975170930149"><ele>135.0</ele><time>2026-04-12T04:52:10.999Z</time></trkpt><trkpt lat="45.48715354615089" lon="9.058074912721395"><ele>135.33333333333334</ele><time>2026-04-12T04:52:11.999Z</time></trkpt><trkpt lat="45.48716499446826" lon="9.05820355290345"><ele>135.66666666666669</ele><time>2026-04-12T04:52:13.999Z</time></trkpt><trkpt lat="45.48719540291902" lon="9.05828772894249"><ele>136.0</ele><time>2026-04-12T04:52:15.999Z</time></trkpt><trkpt lat="45.48729438965475" lon="9.058249782287437"><ele>136.16666666666669</ele><time>2026-04-12T04:52:16.999Z</time></trkpt><trkpt lat="45.48736254004688" lon="9.058237291591501"><ele>136.33333333333334</ele><time>2026-04-12T04:52:17.999Z</time></trkpt><trkpt lat="45.48744467851485" lon="9.058214740169245"><ele>136.5</ele><time>2026-04-12T04:52:18.999Z</time></trkpt><trkpt lat="45.48753357370403" lon="9.058196860491543"><ele>136.66666666666666</ele><time>2026-04-12T04:52:19.999Z</time></trkpt><trkpt lat="45.48763179252523" lon="9.058185351697373"><ele>136.83333333333331</ele><time>2026-04-12T04:52:20.999Z</time></trkpt><trkpt lat="45.48772988826157" lon="9.058158069422934"><ele>137.0</ele><time>2026-04-12T04:52:21.999Z</time></trkpt><trkpt lat="45.487822856020365" lon="9.058131803849014"><ele>137.0</ele><time>2026-04-12T04:52:22.999Z</time></trkpt><trkpt lat="45.48789704135617" lon="9.058096266431791"><ele>137.0</ele><time>2026-04-12T04:52:23.999Z</time></trkpt><trkpt lat="45.48798243246976" lon="9.05808250331307"><ele>137.0</ele><time>2026-04-12T04:52:24.999Z</time></trkpt><trkpt lat="45.48807508003072" lon="9.058065800256747"><ele>137.0</ele><time>2026-04-12T04:52:25.999Z</time></trkpt><trkpt lat="45.48817654962995" lon="9.058041716312708"><ele>137.0</ele><time>2026-04-12T04:52:26.999Z</time></trkpt><trkpt lat="45.48827504246693" lon="9.058016680220529"><ele>137.0</ele><time>2026-04-12T04:52:27.999Z</time></trkpt><trkpt lat="45.48836353049785" lon="9.057993351237895"><ele>137.0</ele><time>2026-04-12T04:52:28.999Z</time></trkpt><trkpt lat="45.48843717174805" lon="9.057980990105209"><ele>137.0</ele><time>2026-04-12T04:52:29.999Z</time></trkpt><trkpt lat="45.48850176200511" lon="9.057990506657333"><ele>137.0</ele><time>2026-04-12T04:52:30.999Z</time></trkpt><trkpt lat="45.488594499205696" lon="9.058080519524987"><ele>137.0</ele><time>2026-04-12T04:52:33Z</time></trkpt><trkpt lat="45.488599704330525" lon="9.058253643177123"><ele>136.83333333333331</ele><time>2026-04-12T04:52:35Z</time></trkpt><trkpt lat="45.48860542569417" lon="9.058347413847118"><ele>136.66666666666666</ele><time>2026-04-12T04:52:36Z</time></trkpt><trkpt lat="45.488638845828376" lon="9.058506623230773"><ele>136.5</ele><time>2026-04-12T04:52:38Z</time></trkpt><trkpt lat="45.488620638331135" lon="9.058598362822881"><ele>136.33333333333334</ele><time>2026-04-12T04:52:39Z</time></trkpt><trkpt lat="45.48867469949466" lon="9.058722762189758"><ele>136.16666666666669</ele><time>2026-04-12T04:52:41Z</time></trkpt><trkpt lat="45.48873777252207" lon="9.05879334806752"><ele>136.0</ele><time>2026-04-12T04:52:43Z</time></trkpt><trkpt lat="45.488772358024235" lon="9.058968451268553"><ele>135.6</ele><time>2026-04-12T04:52:45Z</time></trkpt><trkpt lat="45.488782734638676" lon="9.059086577697688"><ele>135.2</ele><time>2026-04-12T04:52:46Z</time></trkpt><trkpt lat="45.488798606690466" lon="9.059220909180153"><ele>134.8</ele><time>2026-04-12T04:52:47Z</time></trkpt><trkpt lat="45.48881683773082" lon="9.05937318666423"><ele>134.4</ele><time>2026-04-12T04:52:48Z</time></trkpt><trkpt lat="45.488838630035275" lon="9.059534791458159"><ele>134.0</ele><time>2026-04-12T04:52:49Z</time></trkpt><trkpt lat="45.48885820636113" lon="9.059715612140582"><ele>134.0</ele><time>2026-04-12T04:52:50Z</time></trkpt><trkpt lat="45.4888792457422" lon="9.059899813663183"><ele>134.0</ele><time>2026-04-12T04:52:51Z</time></trkpt><trkpt lat="45.488901911184726" lon="9.06009822566884"><ele>134.0</ele><time>2026-04-12T04:52:52Z</time></trkpt><trkpt lat="45.48892372709824" lon="9.0602989519767"><ele>134.0</ele><time>2026-04-12T04:52:53Z</time></trkpt><trkpt lat="45.488945565481465" lon="9.06050148498681"><ele>134.25</ele><time>2026-04-12T04:52:54Z</time></trkpt><trkpt lat="45.488965974851475" lon="9.060701412987694"><ele>134.5</ele><time>2026-04-12T04:52:55Z</time></trkpt><trkpt lat="45.48898780639917" lon="9.06090088044475"><ele>134.75</ele><time>2026-04-12T04:52:56Z</time></trkpt><trkpt lat="45.489011903778824" lon="9.061102372377889"><ele>135.0</ele><time>2026-04-12T04:52:57Z</time></trkpt><trkpt lat="45.489031438659325" lon="9.061298085794578"><ele>135.0</ele><time>2026-04-12T04:52:58Z</time></trkpt><trkpt lat="45.48902080616982" lon="9.06150603028198"><ele>135.0</ele><time>2026-04-12T04:52:59Z</time></trkpt><trkpt lat="45.48897987674524" lon="9.061713861396635"><ele>135.0</ele><time>2026-04-12T04:53:00Z</time></trkpt><trkpt lat="45.48892764465137" lon="9.061924703942731"><ele>135.0</ele><time>2026-04-12T04:53:01Z</time></trkpt><trkpt lat="45.48887556883664" lon="9.062140216678031"><ele>135.0</ele><time>2026-04-12T04:53:02Z</time></trkpt><trkpt lat="45.48882210146852" lon="9.062359318521013"><ele>135.0</ele><time>2026-04-12T04:53:03Z</time></trkpt><trkpt lat="45.48877170127792" lon="9.06258267537296"><ele>134.66666666666666</ele><time>2026-04-12T04:53:04Z</time></trkpt><trkpt lat="45.48871988187119" lon="9.062807310712474"><ele>134.33333333333331</ele><time>2026-04-12T04:53:05Z</time></trkpt><trkpt lat="45.48866995618887" lon="9.063032904270662"><ele>134.0</ele><time>2026-04-12T04:53:06Z</time></trkpt><trkpt lat="45.48861743942496" lon="9.063256703143239"><ele>134.0</ele><time>2026-04-12T04:53:07Z</time></trkpt><trkpt lat="45.488562859646954" lon="9.063473787222437"><ele>134.0</ele><time>2026-04-12T04:53:08Z</time></trkpt><trkpt lat="45.488517715324576" lon="9.063673697218126"><ele>134.0</ele><time>2026-04-12T04:53:09Z</time></trkpt><trkpt lat="45.488476482416914" lon="9.063852474503438"><ele>134.0</ele><time>2026-04-12T04:53:10Z</time></trkpt><trkpt lat="45.488437998790005" lon="9.064020102300875"><ele>134.0</ele><time>2026-04-12T04:53:11Z</time></trkpt><trkpt lat="45.488404628309766" lon="9.064174708995244"><ele>134.0</ele><time>2026-04-12T04:53:12Z</time></trkpt><trkpt lat="45.48837821381141" lon="9.064325503524186"><ele>134.0</ele><time>2026-04-12T04:53:13Z</time></trkpt><trkpt lat="45.488353300792994" lon="9.064479672744884"><ele>134.0</ele><time>2026-04-12T04:53:14Z</time></trkpt><trkpt lat="45.48834848861212" lon="9.064646395928687"><ele>134.0</ele><time>2026-04-12T04:53:15Z</time></trkpt><trkpt lat="45.48836174125081" lon="9.064827538275596"><ele>134.0</ele><time>2026-04-12T04:53:16Z</time></trkpt><trkpt lat="45.48837618513072" lon="9.06501249109954"><ele>134.0</ele><time>2026-04-12T04:53:17Z</time></trkpt><trkpt lat="45.488383740233154" lon="9.065219507498332"><ele>134.0</ele><time>2026-04-12T04:53:18Z</time></trkpt><trkpt lat="45.48839397251213" lon="9.065434251088714"><ele>134.0</ele><time>2026-04-12T04:53:19Z</time></trkpt><trkpt lat="45.48840733206573" lon="9.065651999371218"><ele>134.0</ele><time>2026-04-12T04:53:20Z</time></trkpt><trkpt lat="45.48842343908401" lon="9.065875388086425"><ele>134.0</ele><time>2026-04-12T04:53:21Z</time></trkpt><trkpt lat="45.48844445434925" lon="9.06609727922203"><ele>134.0</ele><time>2026-04-12T04:53:22Z</time></trkpt><trkpt lat="45.48846643662752" lon="9.066321205690352"><ele>134.0</ele><time>2026-04-12T04:53:23Z</time></trkpt><trkpt lat="45.488484178144205" lon="9.066541931728363"><ele>134.0</ele><time>2026-04-12T04:53:24Z</time></trkpt><trkpt lat="45.48850246737481" lon="9.066759395578504"><ele>134.0</ele><time>2026-04-12T04:53:25Z</time></trkpt><trkpt lat="45.48852034228717" lon="9.066973038341688"><ele>134.0</ele><time>2026-04-12T04:53:26Z</time></trkpt><trkpt lat="45.488536644752514" lon="9.067169874030478"><ele>134.0</ele><time>2026-04-12T04:53:27Z</time></trkpt><trkpt lat="45.488548981182596" lon="9.067348568902865"><ele>134.0</ele><time>2026-04-12T04:53:28Z</time></trkpt><trkpt lat="45.48854266484669" lon="9.067516977171389"><ele>134.0</ele><time>2026-04-12T04:53:29Z</time></trkpt><trkpt lat="45.488512745187194" lon="9.067691889716786"><ele>134.0</ele><time>2026-04-12T04:53:30Z</time></trkpt><trkpt lat="45.4884754218965" lon="9.067857931009431"><ele>134.0</ele><time>2026-04-12T04:53:31Z</time></trkpt><trkpt lat="45.48841748668465" lon="9.068020632147363"><ele>134.0</ele><time>2026-04-12T04:53:32Z</time></trkpt><trkpt lat="45.48833595836561" lon="9.068154309752728"><ele>134.0</ele><time>2026-04-12T04:53:33Z</time></trkpt><trkpt lat="45.4882356511739" lon="9.068263663122895"><ele>134.0</ele><time>2026-04-12T04:53:34Z</time></trkpt><trkpt lat="45.488122396221996" lon="9.068344838497616"><ele>134.0</ele><time>2026-04-12T04:53:35Z</time></trkpt><trkpt lat="45.48800517315221" lon="9.068397089853534"><ele>134.0</ele><time>2026-04-12T04:53:36Z</time></trkpt><trkpt lat="45.48788306677225" lon="9.06840763231708"><ele>134.25</ele><time>2026-04-12T04:53:37Z</time></trkpt><trkpt lat="45.487756128972734" lon="9.06836776159032"><ele>134.5</ele><time>2026-04-12T04:53:37.999Z</time></trkpt><trkpt lat="45.48766811822284" lon="9.068283844576692"><ele>134.75</ele><time>2026-04-12T04:53:38.999Z</time></trkpt><trkpt lat="45.487604198703636" lon="9.068147891759743"><ele>135.0</ele><time>2026-04-12T04:53:39.999Z</time></trkpt><trkpt lat="45.48757915303889" lon="9.06800118236915"><ele>135.2</ele><time>2026-04-12T04:53:40.999Z</time></trkpt><trkpt lat="45.48759741583813" lon="9.067847864919592"><ele>135.4</ele><time>2026-04-12T04:53:41.999Z</time></trkpt><trkpt lat="45.487636988896305" lon="9.067706323222064"><ele>135.6</ele><time>2026-04-12T04:53:42.999Z</time></trkpt><trkpt lat="45.48770912922837" lon="9.067588290375731"><ele>135.8</ele><time>2026-04-12T04:53:43.999Z</time></trkpt><trkpt lat="45.48781093001831" lon="9.067505366112236"><ele>136.0</ele><time>2026-04-12T04:53:44.999Z</time></trkpt><trkpt lat="45.48792571419407" lon="9.067442380825426"><ele>136.0</ele><time>2026-04-12T04:53:45.999Z</time></trkpt><trkpt lat="45.48805244760676" lon="9.067382230749585"><ele>136.0</ele><time>2026-04-12T04:53:46.999Z</time></trkpt><trkpt lat="45.48818538977745" lon="9.067323953741255"><ele>136.0</ele><time>2026-04-12T04:53:47.999Z</time></trkpt><trkpt lat="45.488326579132945" lon="9.067266730975094"><ele>136.0</ele><time>2026-04-12T04:53:48.999Z</time></trkpt><trkpt lat="45.488478189986495" lon="9.067214406389711"><ele>136.0</ele><time>2026-04-12T04:53:49.999Z</time></trkpt><trkpt lat="45.48863116532471" lon="9.06715365716478"><ele>136.0</ele><time>2026-04-12T04:53:50.999Z</time></trkpt><trkpt lat="45.48879088977653" lon="9.06709213639623"><ele>136.0</ele><time>2026-04-12T04:53:51.999Z</time></trkpt><trkpt lat="45.48895682981637" lon="9.06703146488806"><ele>136.0</ele><time>2026-04-12T04:53:52.999Z</time></trkpt><trkpt lat="45.489129396600774" lon="9.066976159264382"><ele>136.0</ele><time>2026-04-12T04:53:53.999Z</time></trkpt><trkpt lat="45.489313582600126" lon="9.06692071583045"><ele>136.0</ele><time>2026-04-12T04:53:54.999Z</time></trkpt><trkpt lat="45.48949406150545" lon="9.066873678280462"><ele>136.0</ele><time>2026-04-12T04:53:55.999Z</time></trkpt><trkpt lat="45.48968656926029" lon="9.066827608099308"><ele>136.0</ele><time>2026-04-12T04:53:56.999Z</time></trkpt><trkpt lat="45.48988283776032" lon="9.066786500554288"><ele>136.0</ele><time>2026-04-12T04:53:57.999Z</time></trkpt><trkpt lat="45.49007988625391" lon="9.066752865029525"><ele>136.0</ele><time>2026-04-12T04:53:58.999Z</time></trkpt><trkpt lat="45.49028774358908" lon="9.066722212080055"><ele>136.0</ele><time>2026-04-12T04:53:59.999Z</time></trkpt><trkpt lat="45.49049873920493" lon="9.066699313004978"><ele>136.0</ele><time>2026-04-12T04:54:00.999Z</time></trkpt><trkpt lat="45.49071308882265" lon="9.066684648935812"><ele>135.33333333333334</ele><time>2026-04-12T04:54:01.999Z</time></trkpt><trkpt lat="45.49093078792031" lon="9.06667534143742"><ele>134.66666666666666</ele><time>2026-04-12T04:54:02.999Z</time></trkpt><trkpt lat="45.491152528834114" lon="9.06667263615698"><ele>134.0</ele><time>2026-04-12T04:54:03.999Z</time></trkpt><trkpt lat="45.49137735194677" lon="9.066676140032783"><ele>133.5</ele><time>2026-04-12T04:54:04.999Z</time></trkpt><trkpt lat="45.49160388140537" lon="9.066682091314682"><ele>133.0</ele><time>2026-04-12T04:54:05.999Z</time></trkpt><trkpt lat="45.49183262694099" lon="9.06669020461621"><ele>133.0</ele><time>2026-04-12T04:54:06.999Z</time></trkpt><trkpt lat="45.492058813302336" lon="9.06669996416065"><ele>133.0</ele><time>2026-04-12T04:54:07.999Z</time></trkpt><trkpt lat="45.49229004107286" lon="9.066707729868902"><ele>133.5</ele><time>2026-04-12T04:54:08.999Z</time></trkpt><trkpt lat="45.49252017700161" lon="9.066715729075536"><ele>134.0</ele><time>2026-04-12T04:54:09.999Z</time></trkpt><trkpt lat="45.49275182905285" lon="9.066722539767516"><ele>136.0</ele><time>2026-04-12T04:54:10.999Z</time></trkpt><trkpt lat="45.4929866451189" lon="9.066728297505872"><ele>138.0</ele><time>2026-04-12T04:54:11.999Z</time></trkpt><trkpt lat="45.49322291075411" lon="9.066731042879395"><ele>138.0</ele><time>2026-04-12T04:54:12.999Z</time></trkpt><trkpt lat="45.493460195174436" lon="9.066738523231532"><ele>138.0</ele><time>2026-04-12T04:54:13.999Z</time></trkpt><trkpt lat="45.49369201913597" lon="9.066749809489167"><ele>137.0</ele><time>2026-04-12T04:54:14.999Z</time></trkpt><trkpt lat="45.49393109122461" lon="9.06676341902664"><ele>136.0</ele><time>2026-04-12T04:54:15.999Z</time></trkpt><trkpt lat="45.49416753311259" lon="9.066775488507336"><ele>136.0</ele><time>2026-04-12T04:54:16.999Z</time></trkpt><trkpt lat="45.49440672096899" lon="9.066784553880474"><ele>136.0</ele><time>2026-04-12T04:54:17.999Z</time></trkpt><trkpt lat="45.49464905434541" lon="9.066791299124631"><ele>135.5</ele><time>2026-04-12T04:54:18.999Z</time></trkpt><trkpt lat="45.49488999174574" lon="9.066802231579732"><ele>135.0</ele><time>2026-04-12T04:54:19.999Z</time></trkpt><trkpt lat="45.49513211583131" lon="9.066809508644845"><ele>135.0</ele><time>2026-04-12T04:54:20.999Z</time></trkpt><trkpt lat="45.495375269752635" lon="9.066817295081751"><ele>135.0</ele><time>2026-04-12T04:54:21.999Z</time></trkpt><trkpt lat="45.49562230013964" lon="9.066827016236656"><ele>135.5</ele><time>2026-04-12T04:54:22.999Z</time></trkpt><trkpt lat="45.495866037867664" lon="9.066837646344313"><ele>136.0</ele><time>2026-04-12T04:54:23.999Z</time></trkpt><trkpt lat="45.49611193596672" lon="9.066847386113675"><ele>136.5</ele><time>2026-04-12T04:54:24.999Z</time></trkpt><trkpt lat="45.49636103110094" lon="9.06685763077676"><ele>137.0</ele><time>2026-04-12T04:54:25.999Z</time></trkpt><trkpt lat="45.49660870139901" lon="9.06686673472184"><ele>137.0</ele><time>2026-04-12T04:54:26.999Z</time></trkpt><trkpt lat="45.496857277300435" lon="9.066877530979049"><ele>137.0</ele><time>2026-04-12T04:54:27.999Z</time></trkpt><trkpt lat="45.49710511295304" lon="9.066888294058232"><ele>137.0</ele><time>2026-04-12T04:54:28.999Z</time></trkpt><trkpt lat="45.49735524856393" lon="9.066898559539208"><ele>137.0</ele><time>2026-04-12T04:54:29.999Z</time></trkpt><trkpt lat="45.49760772397749" lon="9.066910723591862"><ele>137.0</ele><time>2026-04-12T04:54:30.999Z</time></trkpt><trkpt lat="45.49786051249912" lon="9.06692195961561"><ele>137.0</ele><time>2026-04-12T04:54:31.999Z</time></trkpt><trkpt lat="45.49811502112714" lon="9.066932536135123"><ele>136.5</ele><time>2026-04-12T04:54:32.999Z</time></trkpt><trkpt lat="45.49836619364183" lon="9.066939705325996"><ele>136.0</ele><time>2026-04-12T04:54:33.999Z</time></trkpt><trkpt lat="45.49861881157234" lon="9.066947772854682"><ele>135.5</ele><time>2026-04-12T04:54:34.999Z</time></trkpt><trkpt lat="45.498878320541266" lon="9.066959128226122"><ele>135.0</ele><time>2026-04-12T04:54:35.999Z</time></trkpt><trkpt lat="45.49913527765332" lon="9.066967166712661"><ele>135.0</ele><time>2026-04-12T04:54:36.999Z</time></trkpt><trkpt lat="45.49939162578468" lon="9.066964561367271"><ele>135.0</ele><time>2026-04-12T04:54:38Z</time></trkpt><trkpt lat="45.499652322340964" lon="9.06696105586138"><ele>136.5</ele><time>2026-04-12T04:54:39Z</time></trkpt><trkpt lat="45.4999092304865" lon="9.066944262639653"><ele>138.0</ele><time>2026-04-12T04:54:40Z</time></trkpt><trkpt lat="45.50016439019394" lon="9.06691571164117"><ele>137.5</ele><time>2026-04-12T04:54:41Z</time></trkpt><trkpt lat="45.500419796672865" lon="9.066879646982498"><ele>137.0</ele><time>2026-04-12T04:54:42Z</time></trkpt><trkpt lat="45.50067710874029" lon="9.066835307686718"><ele>137.0</ele><time>2026-04-12T04:54:43Z</time></trkpt><trkpt lat="45.50093181393795" lon="9.066782731398886"><ele>137.0</ele><time>2026-04-12T04:54:44Z</time></trkpt><trkpt lat="45.50118527086842" lon="9.06671763706255"><ele>137.5</ele><time>2026-04-12T04:54:45Z</time></trkpt><trkpt lat="45.5014380023772" lon="9.066647017433686"><ele>138.0</ele><time>2026-04-12T04:54:46Z</time></trkpt><trkpt lat="45.50168681475068" lon="9.066564302505318"><ele>138.0</ele><time>2026-04-12T04:54:47Z</time></trkpt><trkpt lat="45.50193145323437" lon="9.066473638615308"><ele>138.0</ele><time>2026-04-12T04:54:48Z</time></trkpt><trkpt lat="45.50217292435372" lon="9.06637816985051"><ele>139.5</ele><time>2026-04-12T04:54:49Z</time></trkpt><trkpt lat="45.50240726336412" lon="9.06628235023569"><ele>141.0</ele><time>2026-04-12T04:54:50Z</time></trkpt><trkpt lat="45.50263674833732" lon="9.066187870828461"><ele>141.0</ele><time>2026-04-12T04:54:51Z</time></trkpt><trkpt lat="45.502864503648816" lon="9.066089479303052"><ele>141.0</ele><time>2026-04-12T04:54:52Z</time></trkpt><trkpt lat="45.50309145447497" lon="9.065997485052398"><ele>140.5</ele><time>2026-04-12T04:54:53Z</time></trkpt><trkpt lat="45.503313370322765" lon="9.065904325634275"><ele>140.0</ele><time>2026-04-12T04:54:54Z</time></trkpt><trkpt lat="45.50353765405488" lon="9.06581109539024"><ele>139.5</ele><time>2026-04-12T04:54:55Z</time></trkpt><trkpt lat="45.50375732860865" lon="9.065720273226674"><ele>139.0</ele><time>2026-04-12T04:54:56Z</time></trkpt><trkpt lat="45.50397607159868" lon="9.065631049781432"><ele>139.0</ele><time>2026-04-12T04:54:57Z</time></trkpt><trkpt lat="45.50419915998448" lon="9.065544404798025"><ele>139.0</ele><time>2026-04-12T04:54:58Z</time></trkpt><trkpt lat="45.50441939891511" lon="9.065454686596812"><ele>140.0</ele><time>2026-04-12T04:54:59Z</time></trkpt><trkpt lat="45.50463987639723" lon="9.06536997669339"><ele>141.0</ele><time>2026-04-12T04:55:00Z</time></trkpt><trkpt lat="45.504861822749355" lon="9.065279973742637"><ele>141.0</ele><time>2026-04-12T04:55:01Z</time></trkpt><trkpt lat="45.50507944782295" lon="9.065197020069604"><ele>141.0</ele><time>2026-04-12T04:55:02Z</time></trkpt><trkpt lat="45.50529748229531" lon="9.065112508224312"><ele>142.5</ele><time>2026-04-12T04:55:03Z</time></trkpt><trkpt lat="45.505516318704956" lon="9.065030782961175"><ele>144.0</ele><time>2026-04-12T04:55:04Z</time></trkpt><trkpt lat="45.50573378254233" lon="9.06494652810922"><ele>144.0</ele><time>2026-04-12T04:55:05Z</time></trkpt><trkpt lat="45.50595220483448" lon="9.064862570635892"><ele>144.0</ele><time>2026-04-12T04:55:06Z</time></trkpt><trkpt lat="45.50616781604131" lon="9.064780227135246"><ele>144.0</ele><time>2026-04-12T04:55:07Z</time></trkpt><trkpt lat="45.506382643610394" lon="9.064695214973007"><ele>143.33333333333334</ele><time>2026-04-12T04:55:08Z</time></trkpt><trkpt lat="45.50659724780561" lon="9.064606610455431"><ele>142.66666666666669</ele><time>2026-04-12T04:55:09Z</time></trkpt><trkpt lat="45.50681026827398" lon="9.06452101348476"><ele>142.0</ele><time>2026-04-12T04:55:10Z</time></trkpt><trkpt lat="45.50702501550011" lon="9.064426944561628"><ele>143.5</ele><time>2026-04-12T04:55:11Z</time></trkpt><trkpt lat="45.50723857118911" lon="9.064329924102571"><ele>145.0</ele><time>2026-04-12T04:55:12Z</time></trkpt><trkpt lat="45.50745350210732" lon="9.064226590494792"><ele>145.0</ele><time>2026-04-12T04:55:13Z</time></trkpt><trkpt lat="45.50766117380166" lon="9.0641162907663"><ele>145.0</ele><time>2026-04-12T04:55:14Z</time></trkpt><trkpt lat="45.507865501742856" lon="9.063994830855345"><ele>145.0</ele><time>2026-04-12T04:55:15Z</time></trkpt><trkpt lat="45.50806604377595" lon="9.063854387220713"><ele>145.33333333333334</ele><time>2026-04-12T04:55:16Z</time></trkpt><trkpt lat="45.50825908505509" lon="9.063701773190838"><ele>145.66666666666666</ele><time>2026-04-12T04:55:17Z</time></trkpt><trkpt lat="45.5084469931895" lon="9.063537190333918"><ele>146.0</ele><time>2026-04-12T04:55:18Z</time></trkpt><trkpt lat="45.50863440866676" lon="9.063364920545583"><ele>146.33333333333331</ele><time>2026-04-12T04:55:19Z</time></trkpt><trkpt lat="45.50881368602886" lon="9.063181450142759"><ele>146.66666666666666</ele><time>2026-04-12T04:55:20Z</time></trkpt><trkpt lat="45.508989409286706" lon="9.06299494529149"><ele>147.0</ele><time>2026-04-12T04:55:21Z</time></trkpt><trkpt lat="45.50916542992233" lon="9.062794441394349"><ele>147.0</ele><time>2026-04-12T04:55:22Z</time></trkpt><trkpt lat="45.50933329449524" lon="9.062578152238526"><ele>147.0</ele><time>2026-04-12T04:55:23Z</time></trkpt><trkpt lat="45.50949331100174" lon="9.062351806697595"><ele>147.0</ele><time>2026-04-12T04:55:24Z</time></trkpt><trkpt lat="45.5096455827666" lon="9.06212711364941"><ele>147.0</ele><time>2026-04-12T04:55:25Z</time></trkpt><trkpt lat="45.509804074358925" lon="9.061900649288988"><ele>147.0</ele><time>2026-04-12T04:55:26Z</time></trkpt><trkpt lat="45.50996429444034" lon="9.061675860097775"><ele>147.0</ele><time>2026-04-12T04:55:27Z</time></trkpt><trkpt lat="45.51012917267587" lon="9.061456852230728"><ele>147.0</ele><time>2026-04-12T04:55:28Z</time></trkpt><trkpt lat="45.51029830082964" lon="9.061240029927422"><ele>148.5</ele><time>2026-04-12T04:55:29Z</time></trkpt><trkpt lat="45.510479177155204" lon="9.061033881649609"><ele>150.0</ele><time>2026-04-12T04:55:30Z</time></trkpt><trkpt lat="45.510667980956995" lon="9.060831793881691"><ele>147.5</ele><time>2026-04-12T04:55:31Z</time></trkpt><trkpt lat="45.510863397979605" lon="9.060653374671197"><ele>145.0</ele><time>2026-04-12T04:55:32Z</time></trkpt><trkpt lat="45.51106682283077" lon="9.060484626785168"><ele>145.0</ele><time>2026-04-12T04:55:33Z</time></trkpt><trkpt lat="45.511275606712275" lon="9.060333599204478"><ele>145.0</ele><time>2026-04-12T04:55:34Z</time></trkpt><trkpt lat="45.51148916657679" lon="9.060197669169082"><ele>145.0</ele><time>2026-04-12T04:55:35Z</time></trkpt><trkpt lat="45.51170833120706" lon="9.06008009351312"><ele>145.0</ele><time>2026-04-12T04:55:36Z</time></trkpt><trkpt lat="45.511930821433246" lon="9.059972468346906"><ele>145.0</ele><time>2026-04-12T04:55:37Z</time></trkpt><trkpt lat="45.51215718561755" lon="9.059877490512477"><ele>145.0</ele><time>2026-04-12T04:55:38Z</time></trkpt><trkpt lat="45.512383442150515" lon="9.059801694377732"><ele>145.0</ele><time>2026-04-12T04:55:39Z</time></trkpt><trkpt lat="45.51261579444554" lon="9.059739662789852"><ele>145.0</ele><time>2026-04-12T04:55:40Z</time></trkpt><trkpt lat="45.51284943802133" lon="9.059693808695767"><ele>145.5</ele><time>2026-04-12T04:55:41Z</time></trkpt><trkpt lat="45.51308681108084" lon="9.059666968079135"><ele>146.0</ele><time>2026-04-12T04:55:42Z</time></trkpt><trkpt lat="45.513324472952405" lon="9.059656850037111"><ele>146.0</ele><time>2026-04-12T04:55:43Z</time></trkpt><trkpt lat="45.51356358558598" lon="9.05966367821294"><ele>146.0</ele><time>2026-04-12T04:55:44Z</time></trkpt><trkpt lat="45.51379959362941" lon="9.059691114357658"><ele>146.5</ele><time>2026-04-12T04:55:45Z</time></trkpt><trkpt lat="45.51403212545199" lon="9.059734465873836"><ele>147.0</ele><time>2026-04-12T04:55:45.999Z</time></trkpt><trkpt lat="45.51426300873889" lon="9.05979855121811"><ele>147.0</ele><time>2026-04-12T04:55:46.999Z</time></trkpt><trkpt lat="45.514489090725135" lon="9.05986600191113"><ele>147.0</ele><time>2026-04-12T04:55:47.999Z</time></trkpt><trkpt lat="45.51471378472005" lon="9.059929174908463"><ele>148.0</ele><time>2026-04-12T04:55:48.999Z</time></trkpt><trkpt lat="45.51493553024161" lon="9.059991946624773"><ele>149.0</ele><time>2026-04-12T04:55:49.999Z</time></trkpt><trkpt lat="45.51515519124724" lon="9.060043015472834"><ele>150.0</ele><time>2026-04-12T04:55:50.999Z</time></trkpt><trkpt lat="45.515372706878985" lon="9.06008503502537"><ele>150.0</ele><time>2026-04-12T04:55:51.999Z</time></trkpt><trkpt lat="45.515591698226146" lon="9.060115794882677"><ele>150.0</ele><time>2026-04-12T04:55:52.999Z</time></trkpt><trkpt lat="45.51581187029835" lon="9.060139082446915"><ele>150.0</ele><time>2026-04-12T04:55:53.999Z</time></trkpt><trkpt lat="45.516032396547416" lon="9.060155805733494"><ele>149.66666666666666</ele><time>2026-04-12T04:55:54.999Z</time></trkpt><trkpt lat="45.516250928410486" lon="9.060159623110811"><ele>149.33333333333331</ele><time>2026-04-12T04:55:55.999Z</time></trkpt><trkpt lat="45.5164676604053" lon="9.060147819522864"><ele>149.0</ele><time>2026-04-12T04:55:56.999Z</time></trkpt><trkpt lat="45.51668405103251" lon="9.06012404466223"><ele>149.0</ele><time>2026-04-12T04:55:57.999Z</time></trkpt><trkpt lat="45.51689916197509" lon="9.06008928345802"><ele>149.0</ele><time>2026-04-12T04:55:58.999Z</time></trkpt><trkpt lat="45.517111632599665" lon="9.06004384646955"><ele>149.0</ele><time>2026-04-12T04:55:59.999Z</time></trkpt><trkpt lat="45.51731991893508" lon="9.059987922302192"><ele>148.0</ele><time>2026-04-12T04:56:00.999Z</time></trkpt><trkpt lat="45.51753045242488" lon="9.059923430425998"><ele>147.0</ele><time>2026-04-12T04:56:01.999Z</time></trkpt><trkpt lat="45.51773965962712" lon="9.059844843492247"><ele>146.0</ele><time>2026-04-12T04:56:02.999Z</time></trkpt><trkpt lat="45.517944963105336" lon="9.059761278611608"><ele>146.0</ele><time>2026-04-12T04:56:03.999Z</time></trkpt><trkpt lat="45.51815223877436" lon="9.059675644524653"><ele>146.0</ele><time>2026-04-12T04:56:04.999Z</time></trkpt><trkpt lat="45.51836174723022" lon="9.05959552536661"><ele>146.0</ele><time>2026-04-12T04:56:05.999Z</time></trkpt><trkpt lat="45.518572128935865" lon="9.059527531596514"><ele>146.66666666666666</ele><time>2026-04-12T04:56:06.999Z</time></trkpt><trkpt lat="45.51878719226096" lon="9.059468554995176"><ele>147.33333333333334</ele><time>2026-04-12T04:56:07.999Z</time></trkpt><trkpt lat="45.518995785348274" lon="9.059418229084857"><ele>148.0</ele><time>2026-04-12T04:56:08.999Z</time></trkpt><trkpt lat="45.51920758683466" lon="9.059371751656109"><ele>148.0</ele><time>2026-04-12T04:56:09.999Z</time></trkpt><trkpt lat="45.51942146131083" lon="9.059338209492626"><ele>148.0</ele><time>2026-04-12T04:56:10.999Z</time></trkpt><trkpt lat="45.51963195078471" lon="9.059318902148773"><ele>148.0</ele><time>2026-04-12T04:56:11.999Z</time></trkpt><trkpt lat="45.519840313145906" lon="9.059309113600527"><ele>148.66666666666669</ele><time>2026-04-12T04:56:12.999Z</time></trkpt><trkpt lat="45.5200390403997" lon="9.059306826716101"><ele>149.33333333333334</ele><time>2026-04-12T04:56:13.999Z</time></trkpt><trkpt lat="45.52022168564224" lon="9.059318692554017"><ele>150.0</ele><time>2026-04-12T04:56:14.999Z</time></trkpt><trkpt lat="45.52039442829589" lon="9.059289169859957"><ele>149.33333333333334</ele><time>2026-04-12T04:56:15.999Z</time></trkpt><trkpt lat="45.52056532306583" lon="9.059413569477444"><ele>148.66666666666669</ele><time>2026-04-12T04:56:16.999Z</time></trkpt><trkpt lat="45.52074207975059" lon="9.059483117777951"><ele>148.0</ele><time>2026-04-12T04:56:17.999Z</time></trkpt><trkpt lat="45.52091579970137" lon="9.059560740538464"><ele>148.0</ele><time>2026-04-12T04:56:18.999Z</time></trkpt><trkpt lat="45.521083443577474" lon="9.059634009898835"><ele>148.0</ele><time>2026-04-12T04:56:19.999Z</time></trkpt><trkpt lat="45.52125081596089" lon="9.059704912729044"><ele>148.0</ele><time>2026-04-12T04:56:20.999Z</time></trkpt><trkpt lat="45.521409298609214" lon="9.05977999952572"><ele>148.33333333333334</ele><time>2026-04-12T04:56:21.999Z</time></trkpt><trkpt lat="45.521554554710974" lon="9.059861165547115"><ele>148.66666666666666</ele><time>2026-04-12T04:56:22.999Z</time></trkpt><trkpt lat="45.52168785141028" lon="9.059951574656797"><ele>149.0</ele><time>2026-04-12T04:56:23.999Z</time></trkpt><trkpt lat="45.5218185282958" lon="9.060054117203778"><ele>149.66666666666666</ele><time>2026-04-12T04:56:24.999Z</time></trkpt><trkpt lat="45.52194805415272" lon="9.060170439763397"><ele>150.33333333333334</ele><time>2026-04-12T04:56:25.999Z</time></trkpt><trkpt lat="45.522075693522865" lon="9.060308627133217"><ele>151.0</ele><time>2026-04-12T04:56:26.999Z</time></trkpt><trkpt lat="45.52219722385556" lon="9.06046641513995"><ele>150.66666666666669</ele><time>2026-04-12T04:56:27.999Z</time></trkpt><trkpt lat="45.5223099333989" lon="9.060638911682938"><ele>150.33333333333334</ele><time>2026-04-12T04:56:28.999Z</time></trkpt><trkpt lat="45.5224173142153" lon="9.060827822130367"><ele>150.0</ele><time>2026-04-12T04:56:29.999Z</time></trkpt><trkpt lat="45.522515335997895" lon="9.061027555550067"><ele>150.0</ele><time>2026-04-12T04:56:30.999Z</time></trkpt><trkpt lat="45.52261074871701" lon="9.061228364723425"><ele>150.0</ele><time>2026-04-12T04:56:31.999Z</time></trkpt><trkpt lat="45.52270494797093" lon="9.061424866444874"><ele>150.0</ele><time>2026-04-12T04:56:32.999Z</time></trkpt><trkpt lat="45.52279368894923" lon="9.061609010344082"><ele>149.75</ele><time>2026-04-12T04:56:33.999Z</time></trkpt><trkpt lat="45.52287115964208" lon="9.061774824443452"><ele>149.5</ele><time>2026-04-12T04:56:34.999Z</time></trkpt><trkpt lat="45.522926296599714" lon="9.061917470850391"><ele>149.25</ele><time>2026-04-12T04:56:35.999Z</time></trkpt><trkpt lat="45.5229575722904" lon="9.062059374113224"><ele>149.0</ele><time>2026-04-12T04:56:36.999Z</time></trkpt><trkpt lat="45.52295571804142" lon="9.062217325810586"><ele>149.2</ele><time>2026-04-12T04:56:37.999Z</time></trkpt><trkpt lat="45.52293829896705" lon="9.062358183574123"><ele>149.4</ele><time>2026-04-12T04:56:38.999Z</time></trkpt><trkpt lat="45.52292279526291" lon="9.062513248177702"><ele>149.6</ele><time>2026-04-12T04:56:39.999Z</time></trkpt><trkpt lat="45.522932444831845" lon="9.062669933341164"><ele>149.8</ele><time>2026-04-12T04:56:40.999Z</time></trkpt><trkpt lat="45.52297081605971" lon="9.062820276888154"><ele>150.0</ele><time>2026-04-12T04:56:41.999Z</time></trkpt><trkpt lat="45.52303553067221" lon="9.062951757039656"><ele>150.0</ele><time>2026-04-12T04:56:42.999Z</time></trkpt><trkpt lat="45.52312453731427" lon="9.06304900055706"><ele>150.0</ele><time>2026-04-12T04:56:44Z</time></trkpt><trkpt lat="45.523226039457896" lon="9.063125143701528"><ele>150.0</ele><time>2026-04-12T04:56:45Z</time></trkpt><trkpt lat="45.52334131579011" lon="9.063155178674885"><ele>150.0</ele><time>2026-04-12T04:56:46Z</time></trkpt><trkpt lat="45.523455372233684" lon="9.063133518219662"><ele>150.0</ele><time>2026-04-12T04:56:47Z</time></trkpt><trkpt lat="45.52356025245802" lon="9.063090667384515"><ele>150.0</ele><time>2026-04-12T04:56:48Z</time></trkpt><trkpt lat="45.523655785632236" lon="9.063052341742027"><ele>150.0</ele><time>2026-04-12T04:56:49Z</time></trkpt><trkpt lat="45.523748402031" lon="9.063059705614116"><ele>150.0</ele><time>2026-04-12T04:56:50Z</time></trkpt><trkpt lat="45.52383322974386" lon="9.06312102164891"><ele>150.0</ele><time>2026-04-12T04:56:51Z</time></trkpt><trkpt lat="45.523901481901646" lon="9.063221740895088"><ele>149.5</ele><time>2026-04-12T04:56:52Z</time></trkpt><trkpt lat="45.52394554793358" lon="9.063361324444415"><ele>149.0</ele><time>2026-04-12T04:56:53Z</time></trkpt><trkpt lat="45.52395705412914" lon="9.063515747809994"><ele>148.5</ele><time>2026-04-12T04:56:54Z</time></trkpt><trkpt lat="45.52395500395557" lon="9.06368873563037"><ele>148.0</ele><time>2026-04-12T04:56:55Z</time></trkpt><trkpt lat="45.52395666798484" lon="9.063877886839704"><ele>148.0</ele><time>2026-04-12T04:56:56Z</time></trkpt><trkpt lat="45.523962027713885" lon="9.064077399395003"><ele>148.0</ele><time>2026-04-12T04:56:57Z</time></trkpt><trkpt lat="45.52396426922318" lon="9.064291133681435"><ele>148.0</ele><time>2026-04-12T04:56:58Z</time></trkpt><trkpt lat="45.52396600901162" lon="9.064512753092735"><ele>148.0</ele><time>2026-04-12T04:56:59Z</time></trkpt><trkpt lat="45.52396949416933" lon="9.06474533774183"><ele>148.33333333333334</ele><time>2026-04-12T04:57:00Z</time></trkpt><trkpt lat="45.52397571897571" lon="9.064986888571068"><ele>148.66666666666666</ele><time>2026-04-12T04:57:01Z</time></trkpt><trkpt lat="45.523997116631804" lon="9.065231270779918"><ele>149.0</ele><time>2026-04-12T04:57:02Z</time></trkpt><trkpt lat="45.52403345594159" lon="9.06547959902815"><ele>149.0</ele><time>2026-04-12T04:57:03Z</time></trkpt><trkpt lat="45.52409650960389" lon="9.065724422312519"><ele>149.0</ele><time>2026-04-12T04:57:04Z</time></trkpt><trkpt lat="45.52416585183733" lon="9.065965028496239"><ele>149.0</ele><time>2026-04-12T04:57:05Z</time></trkpt><trkpt lat="45.52423628034672" lon="9.06619748222244"><ele>149.0</ele><time>2026-04-12T04:57:06Z</time></trkpt><trkpt lat="45.524303748966446" lon="9.066419149715266"><ele>149.0</ele><time>2026-04-12T04:57:07Z</time></trkpt><trkpt lat="45.52436723329688" lon="9.06662293654833"><ele>149.0</ele><time>2026-04-12T04:57:08Z</time></trkpt><trkpt lat="45.52442694562831" lon="9.066816318604902"><ele>149.0</ele><time>2026-04-12T04:57:09Z</time></trkpt><trkpt lat="45.52447968977706" lon="9.066968171467407"><ele>149.0</ele><time>2026-04-12T04:57:10Z</time></trkpt><trkpt lat="45.52453634822927" lon="9.067097119625974"><ele>149.0</ele><time>2026-04-12T04:57:11Z</time></trkpt><trkpt lat="45.52458756330007" lon="9.06720792687803"><ele>149.0</ele><time>2026-04-12T04:57:12Z</time></trkpt><trkpt lat="45.52461874933034" lon="9.06731131385183"><ele>149.0</ele><time>2026-04-12T04:57:13Z</time></trkpt><trkpt lat="45.52462797685871" lon="9.067428427158749"><ele>148.8</ele><time>2026-04-12T04:57:14Z</time></trkpt><trkpt lat="45.52462887418794" lon="9.067561765007758"><ele>148.60000000000002</ele><time>2026-04-12T04:57:15Z</time></trkpt><trkpt lat="45.52463023861683" lon="9.067697470570161"><ele>148.4</ele><time>2026-04-12T04:57:16Z</time></trkpt><trkpt lat="45.524658221191174" lon="9.067836529874151"><ele>148.20000000000002</ele><time>2026-04-12T04:57:17Z</time></trkpt><trkpt lat="45.52471165867719" lon="9.06796657877008"><ele>148.0</ele><time>2026-04-12T04:57:18Z</time></trkpt><trkpt lat="45.52479001751688" lon="9.068064938684271"><ele>148.0</ele><time>2026-04-12T04:57:19Z</time></trkpt><trkpt lat="45.52488090266919" lon="9.068123186345968"><ele>148.0</ele><time>2026-04-12T04:57:20Z</time></trkpt><trkpt lat="45.524983174363555" lon="9.068146161427748"><ele>148.0</ele><time>2026-04-12T04:57:21Z</time></trkpt><trkpt lat="45.52508730906442" lon="9.068132624798979"><ele>148.0</ele><time>2026-04-12T04:57:22Z</time></trkpt><trkpt lat="45.52518109594122" lon="9.068071459651936"><ele>148.0</ele><time>2026-04-12T04:57:23Z</time></trkpt><trkpt lat="45.52525559745344" lon="9.067969682875543"><ele>148.0</ele><time>2026-04-12T04:57:24Z</time></trkpt><trkpt lat="45.52531953675763" lon="9.06785509691318"><ele>148.0</ele><time>2026-04-12T04:57:25Z</time></trkpt><trkpt lat="45.52533246016041" lon="9.067710465092853"><ele>148.0</ele><time>2026-04-12T04:57:26Z</time></trkpt><trkpt lat="45.5253275556495" lon="9.067560970109538"><ele>148.0</ele><time>2026-04-12T04:57:27Z</time></trkpt><trkpt lat="45.525300203053924" lon="9.067425833349224"><ele>148.0</ele><time>2026-04-12T04:57:28Z</time></trkpt><trkpt lat="45.525254508172296" lon="9.067311691697226"><ele>148.16666666666669</ele><time>2026-04-12T04:57:29Z</time></trkpt><trkpt lat="45.525219320855456" lon="9.067236081285067"><ele>148.33333333333334</ele><time>2026-04-12T04:57:30Z</time></trkpt><trkpt lat="45.52514669035224" lon="9.06716383147896"><ele>148.5</ele><time>2026-04-12T04:57:32Z</time></trkpt><trkpt lat="45.52508575534362" lon="9.06713288470542"><ele>148.66666666666666</ele><time>2026-04-12T04:57:33Z</time></trkpt><trkpt lat="45.525003686791706" lon="9.067143265389072"><ele>148.83333333333331</ele><time>2026-04-12T04:57:34Z</time></trkpt><trkpt lat="45.524914291531246" lon="9.067173940336339"><ele>149.0</ele><time>2026-04-12T04:57:35Z</time></trkpt><trkpt lat="45.524822885590716" lon="9.06723097477162"><ele>149.0</ele><time>2026-04-12T04:57:36Z</time></trkpt><trkpt lat="45.52473879263704" lon="9.067323472127027"><ele>149.0</ele><time>2026-04-12T04:57:37Z</time></trkpt><trkpt lat="45.52467707480478" lon="9.067456909016595"><ele>149.0</ele><time>2026-04-12T04:57:38Z</time></trkpt><trkpt lat="45.52464772742703" lon="9.067608713552453"><ele>149.0</ele><time>2026-04-12T04:57:39Z</time></trkpt><trkpt lat="45.5246566574824" lon="9.067765240940918"><ele>149.0</ele><time>2026-04-12T04:57:40Z</time></trkpt><trkpt lat="45.52469271880736" lon="9.067910959812066"><ele>148.8</ele><time>2026-04-12T04:57:41Z</time></trkpt><trkpt lat="45.524752388394774" lon="9.068033150802943"><ele>148.60000000000002</ele><time>2026-04-12T04:57:42Z</time></trkpt><trkpt lat="45.52483564423531" lon="9.0681160746212"><ele>148.4</ele><time>2026-04-12T04:57:43Z</time></trkpt><trkpt lat="45.52493526925372" lon="9.068154326929653"><ele>148.20000000000002</ele><time>2026-04-12T04:57:44Z</time></trkpt><trkpt lat="45.525044491761484" lon="9.068151891825416"><ele>148.0</ele><time>2026-04-12T04:57:45Z</time></trkpt><trkpt lat="45.52514289442478" lon="9.068104794701021"><ele>148.0</ele><time>2026-04-12T04:57:46Z</time></trkpt><trkpt lat="45.525234912938515" lon="9.068035510860097"><ele>148.0</ele><time>2026-04-12T04:57:47Z</time></trkpt><trkpt lat="45.525332294238765" lon="9.06797102234079"><ele>148.0</ele><time>2026-04-12T04:57:48Z</time></trkpt><trkpt lat="45.52543972497684" lon="9.067935002143994"><ele>148.0</ele><time>2026-04-12T04:57:49Z</time></trkpt><trkpt lat="45.52555386126538" lon="9.067918835739363"><ele>148.0</ele><time>2026-04-12T04:57:50Z</time></trkpt><trkpt lat="45.52566441524299" lon="9.067889589658686"><ele>148.25</ele><time>2026-04-12T04:57:51Z</time></trkpt><trkpt lat="45.525782969012624" lon="9.067875228116405"><ele>148.5</ele><time>2026-04-12T04:57:51.999Z</time></trkpt><trkpt lat="45.52588861191324" lon="9.067808151646862"><ele>148.75</ele><time>2026-04-12T04:57:52.999Z</time></trkpt><trkpt lat="45.52598570816661" lon="9.067721446750618"><ele>149.0</ele><time>2026-04-12T04:57:53.999Z</time></trkpt><trkpt lat="45.526083306108" lon="9.067621728595734"><ele>149.0</ele><time>2026-04-12T04:57:54.999Z</time></trkpt><trkpt lat="45.52617081780569" lon="9.067510185017342"><ele>149.0</ele><time>2026-04-12T04:57:55.999Z</time></trkpt><trkpt lat="45.52624474697794" lon="9.067376679256256"><ele>149.0</ele><time>2026-04-12T04:57:56.999Z</time></trkpt><trkpt lat="45.5263015553508" lon="9.067233359371555"><ele>149.0</ele><time>2026-04-12T04:57:57.999Z</time></trkpt><trkpt lat="45.52636387618966" lon="9.067104432667717"><ele>149.0</ele><time>2026-04-12T04:57:58.999Z</time></trkpt><trkpt lat="45.52638873589855" lon="9.066949164056227"><ele>149.0</ele><time>2026-04-12T04:57:59.999Z</time></trkpt><trkpt lat="45.526421395883524" lon="9.066802262748649"><ele>149.0</ele><time>2026-04-12T04:58:00.999Z</time></trkpt><trkpt lat="45.526442744406715" lon="9.06665221215484"><ele>149.0</ele><time>2026-04-12T04:58:01.999Z</time></trkpt><trkpt lat="45.52644737115236" lon="9.066511533364444"><ele>149.0</ele><time>2026-04-12T04:58:02.999Z</time></trkpt><trkpt lat="45.52643982649691" lon="9.066385738923355"><ele>149.16666666666666</ele><time>2026-04-12T04:58:03.999Z</time></trkpt><trkpt lat="45.52642782579668" lon="9.06628124849327"><ele>149.33333333333331</ele><time>2026-04-12T04:58:04.999Z</time></trkpt><trkpt lat="45.526407571507406" lon="9.06616349451985"><ele>149.5</ele><time>2026-04-12T04:58:05.999Z</time></trkpt><trkpt lat="45.52638840166357" lon="9.06604614044798"><ele>149.66666666666666</ele><time>2026-04-12T04:58:06.999Z</time></trkpt><trkpt lat="45.526365218225344" lon="9.065919465623066"><ele>149.83333333333334</ele><time>2026-04-12T04:58:07.999Z</time></trkpt><trkpt lat="45.52633845241385" lon="9.065794863423529"><ele>150.0</ele><time>2026-04-12T04:58:08.999Z</time></trkpt><trkpt lat="45.52631876422169" lon="9.065665664855798"><ele>150.0</ele><time>2026-04-12T04:58:09.999Z</time></trkpt><trkpt lat="45.52629976307607" lon="9.065538211001014"><ele>150.0</ele><time>2026-04-12T04:58:10.999Z</time></trkpt><trkpt lat="45.52627618943599" lon="9.065407791129761"><ele>150.0</ele><time>2026-04-12T04:58:11.999Z</time></trkpt><trkpt lat="45.52625592851114" lon="9.06528295872844"><ele>150.0</ele><time>2026-04-12T04:58:12.999Z</time></trkpt><trkpt lat="45.52623656689441" lon="9.065168228220099"><ele>150.0</ele><time>2026-04-12T04:58:13.999Z</time></trkpt><trkpt lat="45.52621918313424" lon="9.065062968378534"><ele>150.0</ele><time>2026-04-12T04:58:14.999Z</time></trkpt><trkpt lat="45.526191788915625" lon="9.064905673000604"><ele>150.5</ele><time>2026-04-12T04:58:16.999Z</time></trkpt><trkpt lat="45.52617561842016" lon="9.06479080881243"><ele>151.0</ele><time>2026-04-12T04:58:18.999Z</time></trkpt><trkpt lat="45.52616041265238" lon="9.064696401678457"><ele>151.5</ele><time>2026-04-12T04:58:23.999Z</time></trkpt><trkpt lat="45.526144730689985" lon="9.064607923587728"><ele>152.0</ele><time>2026-04-12T04:58:29.999Z</time></trkpt><trkpt lat="45.526129808900556" lon="9.06450844110347"><ele>152.5</ele><time>2026-04-12T04:58:32.999Z</time></trkpt><trkpt lat="45.52611036023314" lon="9.06438204686659"><ele>153.0</ele><time>2026-04-12T04:58:34.999Z</time></trkpt><trkpt lat="45.526080104225876" lon="9.064210841690507"><ele>153.0</ele><time>2026-04-12T04:58:36.999Z</time></trkpt><trkpt lat="45.52607861253708" lon="9.064114009844408"><ele>153.0</ele><time>2026-04-12T04:58:37.999Z</time></trkpt><trkpt lat="45.526067475477724" lon="9.064003443894622"><ele>153.0</ele><time>2026-04-12T04:58:38.999Z</time></trkpt><trkpt lat="45.526054168966844" lon="9.063886382937982"><ele>153.0</ele><time>2026-04-12T04:58:39.999Z</time></trkpt><trkpt lat="45.52603697128777" lon="9.063760045738942"><ele>153.0</ele><time>2026-04-12T04:58:40.999Z</time></trkpt><trkpt lat="45.526023603508854" lon="9.063649821363887"><ele>153.0</ele><time>2026-04-12T04:58:41.999Z</time></trkpt><trkpt lat="45.52601420884437" lon="9.06355854211128"><ele>152.6</ele><time>2026-04-12T04:58:42.999Z</time></trkpt><trkpt lat="45.52599844170416" lon="9.063374748758232"><ele>152.20000000000002</ele><time>2026-04-12T04:58:44.999Z</time></trkpt><trkpt lat="45.525990127484405" lon="9.063267017629977"><ele>151.8</ele><time>2026-04-12T04:58:45.999Z</time></trkpt><trkpt lat="45.52597756847969" lon="9.063145088428444"><ele>151.4</ele><time>2026-04-12T04:58:46.999Z</time></trkpt><trkpt lat="45.525966121722114" lon="9.063016494688249"><ele>151.0</ele><time>2026-04-12T04:58:47.999Z</time></trkpt><trkpt lat="45.52594888600805" lon="9.062882873592779"><ele>150.6</ele><time>2026-04-12T04:58:48.999Z</time></trkpt><trkpt lat="45.525932137594246" lon="9.062745227042182"><ele>150.2</ele><time>2026-04-12T04:58:50Z</time></trkpt><trkpt lat="45.52592764956162" lon="9.062612089807129"><ele>149.8</ele><time>2026-04-12T04:58:51Z</time></trkpt><trkpt lat="45.52590996640467" lon="9.062472222733122"><ele>149.4</ele><time>2026-04-12T04:58:52Z</time></trkpt><trkpt lat="45.52589084836032" lon="9.062340309210876"><ele>149.0</ele><time>2026-04-12T04:58:53Z</time></trkpt><trkpt lat="45.525875280966" lon="9.0622044510251"><ele>149.8</ele><time>2026-04-12T04:58:54Z</time></trkpt><trkpt lat="45.52586506519222" lon="9.062076765966104"><ele>150.60000000000002</ele><time>2026-04-12T04:58:55Z</time></trkpt><trkpt lat="45.52586010041447" lon="9.061969973795186"><ele>151.4</ele><time>2026-04-12T04:58:56Z</time></trkpt><trkpt lat="45.52588700298412" lon="9.061865654430141"><ele>152.20000000000002</ele><time>2026-04-12T04:58:57Z</time></trkpt><trkpt lat="45.52601446623569" lon="9.061822732654338"><ele>153.0</ele><time>2026-04-12T04:58:59Z</time></trkpt><trkpt lat="45.526100422417734" lon="9.061813605142296"><ele>153.0</ele><time>2026-04-12T04:59:00Z</time></trkpt><trkpt lat="45.526206265852" lon="9.061800589866118"><ele>153.0</ele><time>2026-04-12T04:59:01Z</time></trkpt><trkpt lat="45.52632186810587" lon="9.061770953857822"><ele>153.0</ele><time>2026-04-12T04:59:02Z</time></trkpt><trkpt lat="45.5264407936382" lon="9.061751479413815"><ele>153.0</ele><time>2026-04-12T04:59:03Z</time></trkpt><trkpt lat="45.526565843929205" lon="9.061737683425093"><ele>153.5</ele><time>2026-04-12T04:59:04Z</time></trkpt><trkpt lat="45.526690178652366" lon="9.061717913622667"><ele>154.0</ele><time>2026-04-12T04:59:05Z</time></trkpt><trkpt lat="45.526812233113446" lon="9.061692200309272"><ele>154.5</ele><time>2026-04-12T04:59:06Z</time></trkpt><trkpt lat="45.5269423734069" lon="9.061681021435236"><ele>155.0</ele><time>2026-04-12T04:59:07Z</time></trkpt><trkpt lat="45.52707147757841" lon="9.061622247525884"><ele>154.5</ele><time>2026-04-12T04:59:08Z</time></trkpt><trkpt lat="45.52719892169507" lon="9.061561956797572"><ele>154.0</ele><time>2026-04-12T04:59:09Z</time></trkpt><trkpt lat="45.52731628837165" lon="9.061478324951631"><ele>153.5</ele><time>2026-04-12T04:59:10Z</time></trkpt><trkpt lat="45.52742143513498" lon="9.061363412417347"><ele>153.0</ele><time>2026-04-12T04:59:11Z</time></trkpt><trkpt lat="45.52750408329723" lon="9.061226295151275"><ele>153.0</ele><time>2026-04-12T04:59:12Z</time></trkpt><trkpt lat="45.527569201480496" lon="9.061056038070964"><ele>153.0</ele><time>2026-04-12T04:59:13Z</time></trkpt><trkpt lat="45.5275998605841" lon="9.06086576969112"><ele>153.0</ele><time>2026-04-12T04:59:14Z</time></trkpt><trkpt lat="45.527597637018985" lon="9.06066237055171"><ele>153.0</ele><time>2026-04-12T04:59:15Z</time></trkpt><trkpt lat="45.527585289606726" lon="9.06045622616699"><ele>152.66666666666666</ele><time>2026-04-12T04:59:16Z</time></trkpt><trkpt lat="45.52756271891513" lon="9.060243669501563"><ele>152.33333333333331</ele><time>2026-04-12T04:59:17Z</time></trkpt><trkpt lat="45.52754856827099" lon="9.06001485940516"><ele>152.0</ele><time>2026-04-12T04:59:18Z</time></trkpt><trkpt lat="45.527532956966205" lon="9.05978839087832"><ele>152.0</ele><time>2026-04-12T04:59:19Z</time></trkpt><trkpt lat="45.527514960464686" lon="9.05955587763508"><ele>152.0</ele><time>2026-04-12T04:59:20Z</time></trkpt><trkpt lat="45.5275005659068" lon="9.059334713267438"><ele>152.0</ele><time>2026-04-12T04:59:21Z</time></trkpt><trkpt lat="45.527490994025435" lon="9.059109550048907"><ele>152.66666666666666</ele><time>2026-04-12T04:59:22Z</time></trkpt><trkpt lat="45.52749015782305" lon="9.05888621084125"><ele>153.33333333333334</ele><time>2026-04-12T04:59:23Z</time></trkpt><trkpt lat="45.52750007696506" lon="9.058662662353008"><ele>154.0</ele><time>2026-04-12T04:59:24Z</time></trkpt><trkpt lat="45.52752142065625" lon="9.058437127628432"><ele>155.0</ele><time>2026-04-12T04:59:25Z</time></trkpt><trkpt lat="45.52755113184058" lon="9.058211938414965"><ele>156.0</ele><time>2026-04-12T04:59:26Z</time></trkpt><trkpt lat="45.52756927849628" lon="9.057990592209707"><ele>157.0</ele><time>2026-04-12T04:59:27Z</time></trkpt><trkpt lat="45.527588338766975" lon="9.057772558704617"><ele>157.0</ele><time>2026-04-12T04:59:28Z</time></trkpt><trkpt lat="45.52758816204661" lon="9.057549122409164"><ele>157.0</ele><time>2026-04-12T04:59:29Z</time></trkpt><trkpt lat="45.52757202532896" lon="9.057326718526458"><ele>157.0</ele><time>2026-04-12T04:59:30Z</time></trkpt><trkpt lat="45.527533891178905" lon="9.057108129019635"><ele>156.0</ele><time>2026-04-12T04:59:31Z</time></trkpt><trkpt lat="45.52747884396405" lon="9.056899644928967"><ele>155.0</ele><time>2026-04-12T04:59:32Z</time></trkpt><trkpt lat="45.52740131200514" lon="9.056729142033774"><ele>154.0</ele><time>2026-04-12T04:59:33Z</time></trkpt><trkpt lat="45.52729329517021" lon="9.056560014928436"><ele>153.33333333333334</ele><time>2026-04-12T04:59:34Z</time></trkpt><trkpt lat="45.527170589230295" lon="9.056415219708477"><ele>152.66666666666666</ele><time>2026-04-12T04:59:35Z</time></trkpt><trkpt lat="45.52703758280921" lon="9.056277110451601"><ele>152.0</ele><time>2026-04-12T04:59:36Z</time></trkpt><trkpt lat="45.52691219191003" lon="9.056140911570502"><ele>152.0</ele><time>2026-04-12T04:59:37Z</time></trkpt><trkpt lat="45.52679074498897" lon="9.056002870126024"><ele>152.0</ele><time>2026-04-12T04:59:38Z</time></trkpt><trkpt lat="45.52667406793976" lon="9.05586067470871"><ele>152.0</ele><time>2026-04-12T04:59:39Z</time></trkpt><trkpt lat="45.52656654270081" lon="9.05572548149211"><ele>152.33333333333331</ele><time>2026-04-12T04:59:40Z</time></trkpt><trkpt lat="45.52648501950299" lon="9.055555580344945"><ele>152.66666666666666</ele><time>2026-04-12T04:59:41Z</time></trkpt><trkpt lat="45.526420267410465" lon="9.055361482843608"><ele>153.0</ele><time>2026-04-12T04:59:42Z</time></trkpt><trkpt lat="45.52637612919129" lon="9.055148201754864"><ele>152.66666666666666</ele><time>2026-04-12T04:59:43Z</time></trkpt><trkpt lat="45.5263589391586" lon="9.054920472033396"><ele>152.33333333333331</ele><time>2026-04-12T04:59:44Z</time></trkpt><trkpt lat="45.52634369395358" lon="9.054689592603843"><ele>152.0</ele><time>2026-04-12T04:59:45Z</time></trkpt><trkpt lat="45.52631215653491" lon="9.054461974540855"><ele>152.0</ele><time>2026-04-12T04:59:46Z</time></trkpt><trkpt lat="45.52627008556308" lon="9.054230000657416"><ele>152.0</ele><time>2026-04-12T04:59:47Z</time></trkpt><trkpt lat="45.526219673782336" lon="9.05400929812872"><ele>152.0</ele><time>2026-04-12T04:59:48Z</time></trkpt><trkpt lat="45.526161640453175" lon="9.053794275067162"><ele>152.0</ele><time>2026-04-12T04:59:49Z</time></trkpt><trkpt lat="45.52609664789334" lon="9.053602653747944"><ele>152.0</ele><time>2026-04-12T04:59:50Z</time></trkpt><trkpt lat="45.526037935221964" lon="9.05342376821771"><ele>152.0</ele><time>2026-04-12T04:59:51Z</time></trkpt><trkpt lat="45.52598948472049" lon="9.053247557109087"><ele>152.0</ele><time>2026-04-12T04:59:52Z</time></trkpt><trkpt lat="45.5259471034071" lon="9.053097742785818"><ele>152.0</ele><time>2026-04-12T04:59:53Z</time></trkpt><trkpt lat="45.52589097105163" lon="9.052959411899456"><ele>152.0</ele><time>2026-04-12T04:59:54Z</time></trkpt><trkpt lat="45.52583877300751" lon="9.052844781534327"><ele>152.0</ele><time>2026-04-12T04:59:55Z</time></trkpt><trkpt lat="45.525785430137674" lon="9.0527242049457"><ele>152.0</ele><time>2026-04-12T04:59:55.999Z</time></trkpt><trkpt lat="45.52573727285042" lon="9.05259248098763"><ele>152.0</ele><time>2026-04-12T04:59:56.999Z</time></trkpt><trkpt lat="45.52569543475653" lon="9.052450114496049"><ele>152.5</ele><time>2026-04-12T04:59:57.999Z</time></trkpt><trkpt lat="45.52566516131649" lon="9.052298062351372"><ele>153.0</ele><time>2026-04-12T04:59:58.999Z</time></trkpt><trkpt lat="45.525633854948595" lon="9.05214888252465"><ele>153.5</ele><time>2026-04-12T04:59:59.999Z</time></trkpt><trkpt lat="45.52558302677445" lon="9.051996595908667"><ele>154.0</ele><time>2026-04-12T05:00:00.999Z</time></trkpt><trkpt lat="45.5255274445829" lon="9.051845245416674"><ele>154.0</ele><time>2026-04-12T05:00:01.999Z</time></trkpt><trkpt lat="45.52547404345627" lon="9.051682141781697"><ele>154.0</ele><time>2026-04-12T05:00:02.999Z</time></trkpt><trkpt lat="45.52542023875693" lon="9.05151608273397"><ele>154.0</ele><time>2026-04-12T05:00:03.999Z</time></trkpt><trkpt lat="45.525361598383085" lon="9.051344987340157"><ele>154.0</ele><time>2026-04-12T05:00:04.999Z</time></trkpt><trkpt lat="45.525303378816616" lon="9.051169683810626"><ele>154.0</ele><time>2026-04-12T05:00:05.999Z</time></trkpt><trkpt lat="45.52524467113369" lon="9.050993831677557"><ele>154.0</ele><time>2026-04-12T05:00:06.999Z</time></trkpt><trkpt lat="45.52518433682761" lon="9.05082131399671"><ele>154.0</ele><time>2026-04-12T05:00:07.999Z</time></trkpt><trkpt lat="45.5251315667207" lon="9.05065722715559"><ele>154.0</ele><time>2026-04-12T05:00:08.999Z</time></trkpt><trkpt lat="45.52508990919515" lon="9.050522476253999"><ele>154.0</ele><time>2026-04-12T05:00:09.999Z</time></trkpt><trkpt lat="45.52506425970084" lon="9.050438804060562"><ele>154.0</ele><time>2026-04-12T05:00:10.999Z</time></trkpt><trkpt lat="45.5250959846292" lon="9.050525397428522"><ele>154.0</ele><time>2026-04-12T05:00:20.999Z</time></trkpt><trkpt lat="45.52510671959526" lon="9.050465665012538"><ele>154.0</ele><time>2026-04-12T05:08:01Z</time></trkpt><trkpt lat="45.52505352292527" lon="9.05037490599841"><ele>154.0</ele><time>2026-04-12T05:08:07Z</time></trkpt><trkpt lat="45.52501321588454" lon="9.050227279209652"><ele>154.0</ele><time>2026-04-12T05:08:09Z</time></trkpt><trkpt lat="45.52495722825469" lon="9.050054247899466"><ele>154.0</ele><time>2026-04-12T05:08:11Z</time></trkpt><trkpt lat="45.52492519489319" lon="9.049958944027829"><ele>154.0</ele><time>2026-04-12T05:08:12Z</time></trkpt><trkpt lat="45.52489682906696" lon="9.049851338932294"><ele>154.0</ele><time>2026-04-12T05:08:13Z</time></trkpt><trkpt lat="45.524868536433836" lon="9.049732683883613"><ele>154.0</ele><time>2026-04-12T05:08:14Z</time></trkpt><trkpt lat="45.52483071863686" lon="9.049620377967077"><ele>154.0</ele><time>2026-04-12T05:08:15Z</time></trkpt><trkpt lat="45.52480063378929" lon="9.049491862586917"><ele>154.0</ele><time>2026-04-12T05:08:16Z</time></trkpt><trkpt lat="45.52477715562114" lon="9.049397778131961"><ele>154.0</ele><time>2026-04-12T05:08:17Z</time></trkpt><trkpt lat="45.52473222358923" lon="9.049278626829192"><ele>154.0</ele><time>2026-04-12T05:08:18Z</time></trkpt><trkpt lat="45.52469365071929" lon="9.049154774960398"><ele>154.0</ele><time>2026-04-12T05:08:19Z</time></trkpt><trkpt lat="45.52465542901716" lon="9.049031144853062"><ele>154.0</ele><time>2026-04-12T05:08:20Z</time></trkpt><trkpt lat="45.52461708063603" lon="9.048889912066189"><ele>154.0</ele><time>2026-04-12T05:08:21Z</time></trkpt><trkpt lat="45.52457809805623" lon="9.048754341914726"><ele>153.8</ele><time>2026-04-12T05:08:22Z</time></trkpt><trkpt lat="45.52454062014833" lon="9.048623314690039"><ele>153.60000000000002</ele><time>2026-04-12T05:08:23Z</time></trkpt><trkpt lat="45.52451196553926" lon="9.048480167086627"><ele>153.4</ele><time>2026-04-12T05:08:24Z</time></trkpt><trkpt lat="45.52450970006532" lon="9.04833394894412"><ele>153.20000000000002</ele><time>2026-04-12T05:08:25Z</time></trkpt><trkpt lat="45.52452068820641" lon="9.04818295986706"><ele>153.0</ele><time>2026-04-12T05:08:26Z</time></trkpt><trkpt lat="45.52454759700895" lon="9.04802793116578"><ele>153.0</ele><time>2026-04-12T05:08:27Z</time></trkpt><trkpt lat="45.5245834905026" lon="9.047879028047639"><ele>153.0</ele><time>2026-04-12T05:08:28Z</time></trkpt><trkpt lat="45.52462539707774" lon="9.047736879909133"><ele>153.0</ele><time>2026-04-12T05:08:29Z</time></trkpt><trkpt lat="45.52469448087052" lon="9.047616135890168"><ele>153.0</ele><time>2026-04-12T05:08:30Z</time></trkpt><trkpt lat="45.52476109110265" lon="9.047495581665842"><ele>153.0</ele><time>2026-04-12T05:08:31Z</time></trkpt><trkpt lat="45.52484067207183" lon="9.047397180215217"><ele>153.0</ele><time>2026-04-12T05:08:32Z</time></trkpt><trkpt lat="45.524926084698244" lon="9.047314312194128"><ele>153.0</ele><time>2026-04-12T05:08:33Z</time></trkpt><trkpt lat="45.52501309590684" lon="9.047249913408084"><ele>153.0</ele><time>2026-04-12T05:08:34Z</time></trkpt><trkpt lat="45.525114123006006" lon="9.047181558671886"><ele>153.0</ele><time>2026-04-12T05:08:35Z</time></trkpt><trkpt lat="45.52521229851452" lon="9.047114880109735"><ele>153.0</ele><time>2026-04-12T05:08:36Z</time></trkpt><trkpt lat="45.52531590073863" lon="9.047045713688812"><ele>152.75</ele><time>2026-04-12T05:08:37Z</time></trkpt><trkpt lat="45.52541635777413" lon="9.046979183308952"><ele>152.5</ele><time>2026-04-12T05:08:38Z</time></trkpt><trkpt lat="45.52553540049547" lon="9.046898085207975"><ele>152.25</ele><time>2026-04-12T05:08:39Z</time></trkpt><trkpt lat="45.525640976870704" lon="9.04683479882251"><ele>152.0</ele><time>2026-04-12T05:08:40Z</time></trkpt><trkpt lat="45.52573931152272" lon="9.046776293188229"><ele>152.0</ele><time>2026-04-12T05:08:41Z</time></trkpt><trkpt lat="45.525845783554075" lon="9.046707532926746"><ele>152.0</ele><time>2026-04-12T05:08:42Z</time></trkpt><trkpt lat="45.52597304706987" lon="9.046663423019108"><ele>152.0</ele><time>2026-04-12T05:08:43Z</time></trkpt><trkpt lat="45.52608613847703" lon="9.046628979711448"><ele>152.0</ele><time>2026-04-12T05:08:44Z</time></trkpt><trkpt lat="45.526199007122706" lon="9.04660540147621"><ele>152.5</ele><time>2026-04-12T05:08:45Z</time></trkpt><trkpt lat="45.526319555823314" lon="9.04659570300095"><ele>153.0</ele><time>2026-04-12T05:08:46Z</time></trkpt><trkpt lat="45.52644728891025" lon="9.046584448309424"><ele>153.5</ele><time>2026-04-12T05:08:47Z</time></trkpt><trkpt lat="45.52657635130116" lon="9.046576105193594"><ele>154.0</ele><time>2026-04-12T05:08:48Z</time></trkpt><trkpt lat="45.526701996428045" lon="9.046576359005755"><ele>154.0</ele><time>2026-04-12T05:08:49Z</time></trkpt><trkpt lat="45.52682122296215" lon="9.046572456653648"><ele>154.0</ele><time>2026-04-12T05:08:50Z</time></trkpt><trkpt lat="45.5269504494072" lon="9.046554704151019"><ele>154.0</ele><time>2026-04-12T05:08:51Z</time></trkpt><trkpt lat="45.52707638930511" lon="9.0465518905593"><ele>154.0</ele><time>2026-04-12T05:08:52Z</time></trkpt><trkpt lat="45.5272023231554" lon="9.046533449468432"><ele>155.75</ele><time>2026-04-12T05:08:53Z</time></trkpt><trkpt lat="45.52732203076736" lon="9.046527488468616"><ele>157.5</ele><time>2026-04-12T05:08:54Z</time></trkpt><trkpt lat="45.527445441098884" lon="9.046518217967435"><ele>159.25</ele><time>2026-04-12T05:08:55Z</time></trkpt><trkpt lat="45.52758110356724" lon="9.046511355111072"><ele>161.0</ele><time>2026-04-12T05:08:56Z</time></trkpt><trkpt lat="45.527708124004064" lon="9.04650014084207"><ele>161.0</ele><time>2026-04-12T05:08:57Z</time></trkpt><trkpt lat="45.52783264132856" lon="9.046491412588253"><ele>161.0</ele><time>2026-04-12T05:08:57.999Z</time></trkpt><trkpt lat="45.527965352962944" lon="9.046496328802645"><ele>161.0</ele><time>2026-04-12T05:08:58.999Z</time></trkpt><trkpt lat="45.528089048204414" lon="9.04649276576477"><ele>161.0</ele><time>2026-04-12T05:08:59.999Z</time></trkpt><trkpt lat="45.52821515319874" lon="9.046493034980847"><ele>160.20000000000002</ele><time>2026-04-12T05:09:00.999Z</time></trkpt><trkpt lat="45.528327347122605" lon="9.04648856397982"><ele>159.4</ele><time>2026-04-12T05:09:01.999Z</time></trkpt><trkpt lat="45.52843052732312" lon="9.046481569225723"><ele>158.6</ele><time>2026-04-12T05:09:02.999Z</time></trkpt><trkpt lat="45.52852320699209" lon="9.046485458989471"><ele>157.8</ele><time>2026-04-12T05:09:03.999Z</time></trkpt><trkpt lat="45.5286014199963" lon="9.046482029631578"><ele>157.0</ele><time>2026-04-12T05:09:04.999Z</time></trkpt><trkpt lat="45.52867050878492" lon="9.046481724659783"><ele>157.4</ele><time>2026-04-12T05:09:05.999Z</time></trkpt><trkpt lat="45.52875673618795" lon="9.04648785204723"><ele>157.79999999999998</ele><time>2026-04-12T05:09:07.999Z</time></trkpt><trkpt lat="45.5288436701646" lon="9.046458246150534"><ele>158.2</ele><time>2026-04-12T05:10:00Z</time></trkpt><trkpt lat="45.52895677310552" lon="9.046454250454106"><ele>158.6</ele><time>2026-04-12T05:10:02Z</time></trkpt><trkpt lat="45.52904617822059" lon="9.046415787676334"><ele>159.0</ele><time>2026-04-12T05:10:03Z</time></trkpt><trkpt lat="45.529119714515296" lon="9.046390367447147"><ele>159.0</ele><time>2026-04-12T05:10:04Z</time></trkpt><trkpt lat="45.52919435133918" lon="9.046365181942807"><ele>159.0</ele><time>2026-04-12T05:10:05Z</time></trkpt><trkpt lat="45.52928257864854" lon="9.04633343479887"><ele>159.0</ele><time>2026-04-12T05:10:06Z</time></trkpt><trkpt lat="45.52937460199949" lon="9.046297909907576"><ele>159.0</ele><time>2026-04-12T05:10:07Z</time></trkpt><trkpt lat="45.52946720926337" lon="9.046257896321377"><ele>159.0</ele><time>2026-04-12T05:10:08Z</time></trkpt><trkpt lat="45.529565725727004" lon="9.046198271409297"><ele>158.5</ele><time>2026-04-12T05:10:09Z</time></trkpt><trkpt lat="45.52967284575429" lon="9.046119061587442"><ele>158.0</ele><time>2026-04-12T05:10:10Z</time></trkpt><trkpt lat="45.52977694605828" lon="9.046039766405137"><ele>157.5</ele><time>2026-04-12T05:10:11Z</time></trkpt><trkpt lat="45.529856059417895" lon="9.045925009673793"><ele>157.0</ele><time>2026-04-12T05:10:12Z</time></trkpt><trkpt lat="45.52994960316394" lon="9.045804853016243"><ele>157.5</ele><time>2026-04-12T05:10:13Z</time></trkpt><trkpt lat="45.53003065409984" lon="9.045678476136652"><ele>158.0</ele><time>2026-04-12T05:10:14Z</time></trkpt><trkpt lat="45.5301163652107" lon="9.04555723679877"><ele>158.5</ele><time>2026-04-12T05:10:15Z</time></trkpt><trkpt lat="45.53020097992746" lon="9.04543695938321"><ele>159.0</ele><time>2026-04-12T05:10:16Z</time></trkpt><trkpt lat="45.53028824437226" lon="9.045310809820139"><ele>159.0</ele><time>2026-04-12T05:10:17Z</time></trkpt><trkpt lat="45.530368511538576" lon="9.045184612684249"><ele>159.0</ele><time>2026-04-12T05:10:18Z</time></trkpt><trkpt lat="45.530442399455836" lon="9.04504845130698"><ele>159.0</ele><time>2026-04-12T05:10:19Z</time></trkpt><trkpt lat="45.53051750546324" lon="9.04490434553766"><ele>159.0</ele><time>2026-04-12T05:10:20Z</time></trkpt><trkpt lat="45.53059550647567" lon="9.044767071721651"><ele>158.25</ele><time>2026-04-12T05:10:21Z</time></trkpt><trkpt lat="45.53068343825894" lon="9.044618552656203"><ele>157.5</ele><time>2026-04-12T05:10:22Z</time></trkpt><trkpt lat="45.53076857314409" lon="9.044480965462578"><ele>156.75</ele><time>2026-04-12T05:10:23Z</time></trkpt><trkpt lat="45.53085926819257" lon="9.044353316913444"><ele>156.0</ele><time>2026-04-12T05:10:24Z</time></trkpt><trkpt lat="45.5309526386212" lon="9.044231165825154"><ele>156.0</ele><time>2026-04-12T05:10:25Z</time></trkpt><trkpt lat="45.53103428673215" lon="9.044114651921978"><ele>156.0</ele><time>2026-04-12T05:10:26Z</time></trkpt><trkpt lat="45.5311096872414" lon="9.044007867200008"><ele>156.0</ele><time>2026-04-12T05:10:27Z</time></trkpt><trkpt lat="45.53117140997754" lon="9.04391548428264"><ele>156.0</ele><time>2026-04-12T05:10:28Z</time></trkpt><trkpt lat="45.531219031103696" lon="9.04384252006696"><ele>156.0</ele><time>2026-04-12T05:10:29Z</time></trkpt><trkpt lat="45.53128573882089" lon="9.043735802208728"><ele>156.0</ele><time>2026-04-12T05:10:31Z</time></trkpt><trkpt lat="45.531347749294376" lon="9.04364251472694"><ele>156.0</ele><time>2026-04-12T05:10:46Z</time></trkpt><trkpt lat="45.531435229846835" lon="9.043512284220416"><ele>156.0</ele><time>2026-04-12T05:10:48Z</time></trkpt><trkpt lat="45.53148353578202" lon="9.04343978101106"><ele>156.0</ele><time>2026-04-12T05:10:49Z</time></trkpt><trkpt lat="45.531539918999975" lon="9.043355155246667"><ele>156.0</ele><time>2026-04-12T05:10:50Z</time></trkpt><trkpt lat="45.53159909400595" lon="9.043266555637604"><ele>156.0</ele><time>2026-04-12T05:10:51Z</time></trkpt><trkpt lat="45.531661552934395" lon="9.043172959049786"><ele>156.0</ele><time>2026-04-12T05:10:52Z</time></trkpt><trkpt lat="45.53172805550605" lon="9.043073580259021"><ele>156.0</ele><time>2026-04-12T05:10:53Z</time></trkpt><trkpt lat="45.53180256535584" lon="9.042962336696629"><ele>156.0</ele><time>2026-04-12T05:10:54Z</time></trkpt><trkpt lat="45.53187901855518" lon="9.042848191724465"><ele>156.0</ele><time>2026-04-12T05:10:55Z</time></trkpt><trkpt lat="45.531953128814415" lon="9.042737544701103"><ele>156.0</ele><time>2026-04-12T05:10:56Z</time></trkpt><trkpt lat="45.53202980485374" lon="9.042623067685883"><ele>156.0</ele><time>2026-04-12T05:10:57Z</time></trkpt><trkpt lat="45.53210767770729" lon="9.042508345896003"><ele>156.0</ele><time>2026-04-12T05:10:58Z</time></trkpt><trkpt lat="45.53218737428677" lon="9.042390575924644"><ele>156.0</ele><time>2026-04-12T05:10:59Z</time></trkpt><trkpt lat="45.53226963473641" lon="9.042267057591795"><ele>156.5</ele><time>2026-04-12T05:11:00Z</time></trkpt><trkpt lat="45.532351478270385" lon="9.042142738271368"><ele>157.0</ele><time>2026-04-12T05:11:00.999Z</time></trkpt><trkpt lat="45.53243397694879" lon="9.042008418211012"><ele>157.5</ele><time>2026-04-12T05:11:01.999Z</time></trkpt><trkpt lat="45.532516625674184" lon="9.04188041071548"><ele>158.0</ele><time>2026-04-12T05:11:02.999Z</time></trkpt><trkpt lat="45.53259295045478" lon="9.041757259624115"><ele>158.0</ele><time>2026-04-12T05:11:03.999Z</time></trkpt><trkpt lat="45.53267630774158" lon="9.041638328006636"><ele>158.0</ele><time>2026-04-12T05:11:04.999Z</time></trkpt><trkpt lat="45.53275862869271" lon="9.04151890954052"><ele>158.0</ele><time>2026-04-12T05:11:05.999Z</time></trkpt><trkpt lat="45.532829085309004" lon="9.041406156182722"><ele>158.0</ele><time>2026-04-12T05:11:06.999Z</time></trkpt><trkpt lat="45.53289117702387" lon="9.04131313297792"><ele>158.0</ele><time>2026-04-12T05:11:07.999Z</time></trkpt><trkpt lat="45.53295822961847" lon="9.041240106693502"><ele>158.0</ele><time>2026-04-12T05:11:08.999Z</time></trkpt><trkpt lat="45.53299901805379" lon="9.04116935964916"><ele>158.0</ele><time>2026-04-12T05:11:09.999Z</time></trkpt><trkpt lat="45.53305830870164" lon="9.041064866887526"><ele>158.0</ele><time>2026-04-12T05:11:11.999Z</time></trkpt><trkpt lat="45.533088298204135" lon="9.040936187183641"><ele>158.0</ele><time>2026-04-12T05:11:21.999Z</time></trkpt><trkpt lat="45.533103853282775" lon="9.04077864149425"><ele>158.0</ele><time>2026-04-12T05:11:23.999Z</time></trkpt><trkpt lat="45.533108650275906" lon="9.04068462854207"><ele>158.0</ele><time>2026-04-12T05:11:24.999Z</time></trkpt><trkpt lat="45.53310085055004" lon="9.040573270766524"><ele>158.4</ele><time>2026-04-12T05:11:25.999Z</time></trkpt><trkpt lat="45.53307523281097" lon="9.040451747719779"><ele>158.8</ele><time>2026-04-12T05:11:26.999Z</time></trkpt><trkpt lat="45.5330332660249" lon="9.040336215977387"><ele>159.2</ele><time>2026-04-12T05:11:27.999Z</time></trkpt><trkpt lat="45.53298404823382" lon="9.040223837156109"><ele>159.6</ele><time>2026-04-12T05:11:28.999Z</time></trkpt><trkpt lat="45.53291708974324" lon="9.040109949321032"><ele>160.0</ele><time>2026-04-12T05:11:29.999Z</time></trkpt><trkpt lat="45.5328499200885" lon="9.03999403216242"><ele>161.25</ele><time>2026-04-12T05:11:30.999Z</time></trkpt><trkpt lat="45.53277814264491" lon="9.039872131114072"><ele>162.5</ele><time>2026-04-12T05:11:31.999Z</time></trkpt><trkpt lat="45.532721405637155" lon="9.039738859167901"><ele>163.75</ele><time>2026-04-12T05:11:32.999Z</time></trkpt><trkpt lat="45.53267998714455" lon="9.039583078455253"><ele>165.0</ele><time>2026-04-12T05:11:33.999Z</time></trkpt><trkpt lat="45.53266345591108" lon="9.039414861406959"><ele>165.0</ele><time>2026-04-12T05:11:34.999Z</time></trkpt><trkpt lat="45.53267094090372" lon="9.039247200426137"><ele>165.0</ele><time>2026-04-12T05:11:35.999Z</time></trkpt><trkpt lat="45.53268713798533" lon="9.03907237016938"><ele>165.0</ele><time>2026-04-12T05:11:36.999Z</time></trkpt><trkpt lat="45.53270283371259" lon="9.038894041041356"><ele>165.0</ele><time>2026-04-12T05:11:37.999Z</time></trkpt><trkpt lat="45.53272531614829" lon="9.038714520984964"><ele>165.0</ele><time>2026-04-12T05:11:38.999Z</time></trkpt><trkpt lat="45.53274680073591" lon="9.03852716716476"><ele>165.0</ele><time>2026-04-12T05:11:39.999Z</time></trkpt><trkpt lat="45.53276514645813" lon="9.038337631662957"><ele>165.0</ele><time>2026-04-12T05:11:40.999Z</time></trkpt><trkpt lat="45.53278951211629" lon="9.038145633784797"><ele>165.0</ele><time>2026-04-12T05:11:41.999Z</time></trkpt><trkpt lat="45.5328140326878" lon="9.03795192038666"><ele>164.5</ele><time>2026-04-12T05:11:42.999Z</time></trkpt><trkpt lat="45.53283609898077" lon="9.037758495301157"><ele>164.0</ele><time>2026-04-12T05:11:43.999Z</time></trkpt><trkpt lat="45.53285872674646" lon="9.03756230259568"><ele>163.5</ele><time>2026-04-12T05:11:44.999Z</time></trkpt><trkpt lat="45.53287660225927" lon="9.037365149341088"><ele>163.0</ele><time>2026-04-12T05:11:45.999Z</time></trkpt><trkpt lat="45.53290031217285" lon="9.037167655072775"><ele>163.0</ele><time>2026-04-12T05:11:46.999Z</time></trkpt><trkpt lat="45.53292369980077" lon="9.036966540397712"><ele>163.0</ele><time>2026-04-12T05:11:47.999Z</time></trkpt><trkpt lat="45.53294638203438" lon="9.036760061293293"><ele>163.0</ele><time>2026-04-12T05:11:48.999Z</time></trkpt><trkpt lat="45.532967879170585" lon="9.036557186577896"><ele>163.0</ele><time>2026-04-12T05:11:49.999Z</time></trkpt><trkpt lat="45.53299306342392" lon="9.036352045778944"><ele>163.0</ele><time>2026-04-12T05:11:50.999Z</time></trkpt><trkpt lat="45.533011487504524" lon="9.03614779307949"><ele>163.0</ele><time>2026-04-12T05:11:51.999Z</time></trkpt><trkpt lat="45.53303251159886" lon="9.035948108220554"><ele>163.0</ele><time>2026-04-12T05:11:52.999Z</time></trkpt><trkpt lat="45.53305365431162" lon="9.035752788952855"><ele>163.0</ele><time>2026-04-12T05:11:53.999Z</time></trkpt><trkpt lat="45.533071132251564" lon="9.03555429852184"><ele>162.5</ele><time>2026-04-12T05:11:54.999Z</time></trkpt><trkpt lat="45.5330904879646" lon="9.035357660941392"><ele>162.0</ele><time>2026-04-12T05:11:55.999Z</time></trkpt><trkpt lat="45.53311570246024" lon="9.035168990361166"><ele>161.5</ele><time>2026-04-12T05:11:56.999Z</time></trkpt><trkpt lat="45.53314368809006" lon="9.035001115706626"><ele>161.0</ele><time>2026-04-12T05:11:57.999Z</time></trkpt><trkpt lat="45.53315861358827" lon="9.034845369851165"><ele>161.0</ele><time>2026-04-12T05:11:58.999Z</time></trkpt><trkpt lat="45.53317302388721" lon="9.034712653395838"><ele>161.0</ele><time>2026-04-12T05:11:59.999Z</time></trkpt><trkpt lat="45.53318450629812" lon="9.03460561292691"><ele>161.0</ele><time>2026-04-12T05:12:01Z</time></trkpt><trkpt lat="45.53319911548" lon="9.03447332890996"><ele>161.0</ele><time>2026-04-12T05:12:03Z</time></trkpt><trkpt lat="45.5332587245672" lon="9.03436418021937"><ele>161.0</ele><time>2026-04-12T05:12:26Z</time></trkpt><trkpt lat="45.533269324988204" lon="9.034205039262893"><ele>161.0</ele><time>2026-04-12T05:12:28Z</time></trkpt><trkpt lat="45.533275126311864" lon="9.034106980604651"><ele>161.0</ele><time>2026-04-12T05:12:29Z</time></trkpt><trkpt lat="45.5332842839616" lon="9.034001517433897"><ele>161.0</ele><time>2026-04-12T05:12:30Z</time></trkpt><trkpt lat="45.53329445609253" lon="9.03388846852333"><ele>161.0</ele><time>2026-04-12T05:12:31Z</time></trkpt><trkpt lat="45.53330715970423" lon="9.033764898573926"><ele>161.0</ele><time>2026-04-12T05:12:32Z</time></trkpt><trkpt lat="45.53332110995593" lon="9.033631546589257"><ele>161.0</ele><time>2026-04-12T05:12:33Z</time></trkpt><trkpt lat="45.53333507050308" lon="9.033488352309401"><ele>161.0</ele><time>2026-04-12T05:12:34Z</time></trkpt><trkpt lat="45.53335138831433" lon="9.033342143987042"><ele>161.0</ele><time>2026-04-12T05:12:35Z</time></trkpt><trkpt lat="45.533366774384035" lon="9.033186348106856"><ele>161.0</ele><time>2026-04-12T05:12:36Z</time></trkpt><trkpt lat="45.53338412507163" lon="9.033030896908368"><ele>161.0</ele><time>2026-04-12T05:12:37Z</time></trkpt><trkpt lat="45.533399146984216" lon="9.032862448892338"><ele>161.0</ele><time>2026-04-12T05:12:38Z</time></trkpt><trkpt lat="45.533421674787206" lon="9.032701479601387"><ele>160.75</ele><time>2026-04-12T05:12:39Z</time></trkpt><trkpt lat="45.533441388742766" lon="9.032530900155658"><ele>160.5</ele><time>2026-04-12T05:12:40Z</time></trkpt><trkpt lat="45.53346435186912" lon="9.032364681150439"><ele>160.25</ele><time>2026-04-12T05:12:41Z</time></trkpt><trkpt lat="45.53348583187373" lon="9.032191316507118"><ele>160.0</ele><time>2026-04-12T05:12:42Z</time></trkpt><trkpt lat="45.53350134038901" lon="9.032019315790913"><ele>159.8</ele><time>2026-04-12T05:12:43Z</time></trkpt><trkpt lat="45.53351302688413" lon="9.031856834753917"><ele>159.6</ele><time>2026-04-12T05:12:44Z</time></trkpt><trkpt lat="45.53352563176589" lon="9.031699266267392"><ele>159.4</ele><time>2026-04-12T05:12:45Z</time></trkpt><trkpt lat="45.5335386229165" lon="9.031557217581566"><ele>159.2</ele><time>2026-04-12T05:12:46Z</time></trkpt><trkpt lat="45.533548954631335" lon="9.031429614029449"><ele>159.0</ele><time>2026-04-12T05:12:47Z</time></trkpt><trkpt lat="45.533560821785095" lon="9.031320447767339"><ele>159.0</ele><time>2026-04-12T05:12:48Z</time></trkpt><trkpt lat="45.53356722235142" lon="9.03122284396895"><ele>159.0</ele><time>2026-04-12T05:12:49Z</time></trkpt><trkpt lat="45.533579502266754" lon="9.031061503606079"><ele>159.0</ele><time>2026-04-12T05:12:51Z</time></trkpt><trkpt lat="45.533588810729746" lon="9.03096173408424"><ele>159.0</ele><time>2026-04-12T05:12:53Z</time></trkpt><trkpt lat="45.53362289701682" lon="9.03083441439627"><ele>159.0</ele><time>2026-04-12T05:13:07.999Z</time></trkpt><trkpt lat="45.533645842510985" lon="9.030664206322815"><ele>158.66666666666666</ele><time>2026-04-12T05:13:09.999Z</time></trkpt><trkpt lat="45.53365927983867" lon="9.030559766109665"><ele>158.33333333333334</ele><time>2026-04-12T05:13:10.999Z</time></trkpt><trkpt lat="45.533673151401956" lon="9.030444236298548"><ele>158.0</ele><time>2026-04-12T05:13:11.999Z</time></trkpt><trkpt lat="45.533687010287764" lon="9.03031555745444"><ele>157.66666666666669</ele><time>2026-04-12T05:13:12.999Z</time></trkpt><trkpt lat="45.53370429178299" lon="9.03018029376159"><ele>157.33333333333334</ele><time>2026-04-12T05:13:13.999Z</time></trkpt><trkpt lat="45.53371945973879" lon="9.030033538077308"><ele>157.0</ele><time>2026-04-12T05:13:14.999Z</time></trkpt><trkpt lat="45.53373609614692" lon="9.029878037889715"><ele>156.5</ele><time>2026-04-12T05:13:15.999Z</time></trkpt><trkpt lat="45.533758125887715" lon="9.029711486122594"><ele>156.0</ele><time>2026-04-12T05:13:16.999Z</time></trkpt><trkpt lat="45.533782346686785" lon="9.029540805161172"><ele>155.5</ele><time>2026-04-12T05:13:17.999Z</time></trkpt><trkpt lat="45.53380482037269" lon="9.029364305584117"><ele>155.0</ele><time>2026-04-12T05:13:18.999Z</time></trkpt><trkpt lat="45.53383865653318" lon="9.029191057557286"><ele>155.75</ele><time>2026-04-12T05:13:19.999Z</time></trkpt><trkpt lat="45.53386928566822" lon="9.029008069827615"><ele>156.5</ele><time>2026-04-12T05:13:20.999Z</time></trkpt><trkpt lat="45.533899893911965" lon="9.028822830260529"><ele>157.25</ele><time>2026-04-12T05:13:21.999Z</time></trkpt><trkpt lat="45.53393466505346" lon="9.028628869547626"><ele>158.0</ele><time>2026-04-12T05:13:22.999Z</time></trkpt><trkpt lat="45.53396315124572" lon="9.028435217881192"><ele>159.0</ele><time>2026-04-12T05:13:23.999Z</time></trkpt><trkpt lat="45.53399880896925" lon="9.028240894552342"><ele>160.0</ele><time>2026-04-12T05:13:24.999Z</time></trkpt><trkpt lat="45.53404412003839" lon="9.028044724151934"><ele>161.0</ele><time>2026-04-12T05:13:25.999Z</time></trkpt><trkpt lat="45.534084543523804" lon="9.027848405936016"><ele>162.0</ele><time>2026-04-12T05:13:26.999Z</time></trkpt><trkpt lat="45.534125612017455" lon="9.027649825329501"><ele>162.0</ele><time>2026-04-12T05:13:27.999Z</time></trkpt><trkpt lat="45.53417607823357" lon="9.027458869414968"><ele>162.0</ele><time>2026-04-12T05:13:28.999Z</time></trkpt><trkpt lat="45.53422722804352" lon="9.027266966692887"><ele>162.0</ele><time>2026-04-12T05:13:29.999Z</time></trkpt><trkpt lat="45.534296918864044" lon="9.027083526122231"><ele>162.0</ele><time>2026-04-12T05:13:30.999Z</time></trkpt><trkpt lat="45.53435580180328" lon="9.026893384298685"><ele>162.0</ele><time>2026-04-12T05:13:31.999Z</time></trkpt><trkpt lat="45.53441822479209" lon="9.026704248193383"><ele>162.0</ele><time>2026-04-12T05:13:32.999Z</time></trkpt><trkpt lat="45.53447853672077" lon="9.026521377220147"><ele>162.0</ele><time>2026-04-12T05:13:33.999Z</time></trkpt><trkpt lat="45.53453916910009" lon="9.026338994487606"><ele>162.0</ele><time>2026-04-12T05:13:34.999Z</time></trkpt><trkpt lat="45.534602524061974" lon="9.026155753150334"><ele>162.0</ele><time>2026-04-12T05:13:35.999Z</time></trkpt><trkpt lat="45.534662910899634" lon="9.025959795261679"><ele>162.0</ele><time>2026-04-12T05:13:36.999Z</time></trkpt><trkpt lat="45.53473224819927" lon="9.025783534295062"><ele>162.0</ele><time>2026-04-12T05:13:37.999Z</time></trkpt><trkpt lat="45.53480223989743" lon="9.025610177159388"><ele>162.0</ele><time>2026-04-12T05:13:38.999Z</time></trkpt><trkpt lat="45.53488548339618" lon="9.02542757484295"><ele>161.75</ele><time>2026-04-12T05:13:39.999Z</time></trkpt><trkpt lat="45.53496039597406" lon="9.025240724115479"><ele>161.5</ele><time>2026-04-12T05:13:40.999Z</time></trkpt><trkpt lat="45.53503654836746" lon="9.025063181733454"><ele>161.25</ele><time>2026-04-12T05:13:41.999Z</time></trkpt><trkpt lat="45.535116156442214" lon="9.024879376171448"><ele>161.0</ele><time>2026-04-12T05:13:42.999Z</time></trkpt><trkpt lat="45.53519623574775" lon="9.024700203489763"><ele>160.66666666666666</ele><time>2026-04-12T05:13:43.999Z</time></trkpt><trkpt lat="45.535284294992024" lon="9.024514878377676"><ele>160.33333333333334</ele><time>2026-04-12T05:13:44.999Z</time></trkpt><trkpt lat="45.53538595130176" lon="9.024354222608496"><ele>160.0</ele><time>2026-04-12T05:13:45.999Z</time></trkpt><trkpt lat="45.53548089422426" lon="9.024175052016831"><ele>160.0</ele><time>2026-04-12T05:13:46.999Z</time></trkpt><trkpt lat="45.53557347629719" lon="9.024004633322937"><ele>160.0</ele><time>2026-04-12T05:13:47.999Z</time></trkpt><trkpt lat="45.53566438339652" lon="9.023848964790119"><ele>160.0</ele><time>2026-04-12T05:13:48.999Z</time></trkpt><trkpt lat="45.53573854189769" lon="9.023702300195213"><ele>160.0</ele><time>2026-04-12T05:13:49.999Z</time></trkpt><trkpt lat="45.53583145994757" lon="9.023594965687712"><ele>160.0</ele><time>2026-04-12T05:13:50.999Z</time></trkpt><trkpt lat="45.53592044439462" lon="9.023514507798415"><ele>160.0</ele><time>2026-04-12T05:13:51.999Z</time></trkpt><trkpt lat="45.53600731843497" lon="9.023455635579383"><ele>160.0</ele><time>2026-04-12T05:13:52.999Z</time></trkpt><trkpt lat="45.536092232705776" lon="9.023418422441353"><ele>160.0</ele><time>2026-04-12T05:13:53.999Z</time></trkpt><trkpt lat="45.53617114937325" lon="9.023368760108381"><ele>160.0</ele><time>2026-04-12T05:13:54.999Z</time></trkpt><trkpt lat="45.536236341531676" lon="9.023288010801169"><ele>160.4</ele><time>2026-04-12T05:13:55.999Z</time></trkpt><trkpt lat="45.53629195973649" lon="9.023146432616407"><ele>160.8</ele><time>2026-04-12T05:13:56.999Z</time></trkpt><trkpt lat="45.53630394815917" lon="9.023026613675643"><ele>161.2</ele><time>2026-04-12T05:13:57.999Z</time></trkpt><trkpt lat="45.536314760463114" lon="9.02287335317781"><ele>161.6</ele><time>2026-04-12T05:13:58.999Z</time></trkpt><trkpt lat="45.53635467618789" lon="9.02272775017531"><ele>162.0</ele><time>2026-04-12T05:13:59.999Z</time></trkpt><trkpt lat="45.536420516142925" lon="9.02257730847508"><ele>161.5</ele><time>2026-04-12T05:14:00.999Z</time></trkpt><trkpt lat="45.53649831565906" lon="9.022433079327143"><ele>161.0</ele><time>2026-04-12T05:14:01.999Z</time></trkpt><trkpt lat="45.5365863025782" lon="9.02229446737463"><ele>160.5</ele><time>2026-04-12T05:14:02.999Z</time></trkpt><trkpt lat="45.53667667574829" lon="9.022154911473239"><ele>160.0</ele><time>2026-04-12T05:14:03.999Z</time></trkpt><trkpt lat="45.53676490756388" lon="9.022013911183205"><ele>160.0</ele><time>2026-04-12T05:14:04.999Z</time></trkpt><trkpt lat="45.53685063127207" lon="9.021868363771587"><ele>160.0</ele><time>2026-04-12T05:14:05.999Z</time></trkpt><trkpt lat="45.536937226616615" lon="9.021726509965534"><ele>160.0</ele><time>2026-04-12T05:14:07Z</time></trkpt><trkpt lat="45.537028695415515" lon="9.021581741212756"><ele>160.0</ele><time>2026-04-12T05:14:08Z</time></trkpt><trkpt lat="45.53711815162607" lon="9.021431364495008"><ele>160.0</ele><time>2026-04-12T05:14:09Z</time></trkpt><trkpt lat="45.53721114796787" lon="9.021279105828148"><ele>160.0</ele><time>2026-04-12T05:14:10Z</time></trkpt><trkpt lat="45.537305781379445" lon="9.021126840353269"><ele>160.0</ele><time>2026-04-12T05:14:11Z</time></trkpt><trkpt lat="45.53740195831035" lon="9.020967609055331"><ele>160.0</ele><time>2026-04-12T05:14:12Z</time></trkpt><trkpt lat="45.53749789034549" lon="9.020807371710676"><ele>160.0</ele><time>2026-04-12T05:14:13Z</time></trkpt><trkpt lat="45.53759707123501" lon="9.02065068956825"><ele>160.0</ele><time>2026-04-12T05:14:14Z</time></trkpt><trkpt lat="45.53770131091262" lon="9.020494678393906"><ele>160.0</ele><time>2026-04-12T05:14:15Z</time></trkpt><trkpt lat="45.537800939203585" lon="9.02032478874762"><ele>159.33333333333334</ele><time>2026-04-12T05:14:16Z</time></trkpt><trkpt lat="45.53790386960832" lon="9.020155620344749"><ele>158.66666666666666</ele><time>2026-04-12T05:14:17Z</time></trkpt><trkpt lat="45.538017615558914" lon="9.019996084925985"><ele>158.0</ele><time>2026-04-12T05:14:18Z</time></trkpt><trkpt lat="45.53810745852889" lon="9.019822681189748"><ele>159.0</ele><time>2026-04-12T05:14:19Z</time></trkpt><trkpt lat="45.53820356906865" lon="9.019657879499094"><ele>160.0</ele><time>2026-04-12T05:14:20Z</time></trkpt><trkpt lat="45.53831292023483" lon="9.019510191969042"><ele>161.0</ele><time>2026-04-12T05:14:21Z</time></trkpt><trkpt lat="45.53840474232337" lon="9.019347753509713"><ele>162.0</ele><time>2026-04-12T05:14:22Z</time></trkpt><trkpt lat="45.53848684731902" lon="9.019187285960625"><ele>162.0</ele><time>2026-04-12T05:14:23Z</time></trkpt><trkpt lat="45.538550855068564" lon="9.019039206837462"><ele>162.0</ele><time>2026-04-12T05:14:24Z</time></trkpt><trkpt lat="45.53858641558113" lon="9.018890818447863"><ele>162.0</ele><time>2026-04-12T05:14:25Z</time></trkpt><trkpt lat="45.53864106311077" lon="9.018774805358769"><ele>162.0</ele><time>2026-04-12T05:14:26Z</time></trkpt><trkpt lat="45.53874359866327" lon="9.018716626192363"><ele>162.0</ele><time>2026-04-12T05:14:27Z</time></trkpt><trkpt lat="45.53881978699226" lon="9.018612734307665"><ele>162.0</ele><time>2026-04-12T05:14:28Z</time></trkpt><trkpt lat="45.53886561562041" lon="9.018444835324136"><ele>162.0</ele><time>2026-04-12T05:14:29Z</time></trkpt><trkpt lat="45.53896233059579" lon="9.018343097369938"><ele>162.0</ele><time>2026-04-12T05:14:30Z</time></trkpt><trkpt lat="45.53906455550362" lon="9.018229878366832"><ele>162.0</ele><time>2026-04-12T05:14:31Z</time></trkpt><trkpt lat="45.53916459233632" lon="9.01810389549847"><ele>161.75</ele><time>2026-04-12T05:14:32Z</time></trkpt><trkpt lat="45.53926424564213" lon="9.017968047681503"><ele>161.5</ele><time>2026-04-12T05:14:33Z</time></trkpt><trkpt lat="45.53936367013713" lon="9.017815044063125"><ele>161.25</ele><time>2026-04-12T05:14:34Z</time></trkpt><trkpt lat="45.5394602314712" lon="9.017661038074328"><ele>161.0</ele><time>2026-04-12T05:14:35Z</time></trkpt><trkpt lat="45.539555090979725" lon="9.017505825317642"><ele>161.75</ele><time>2026-04-12T05:14:36Z</time></trkpt><trkpt lat="45.53964315598414" lon="9.017362217208179"><ele>162.5</ele><time>2026-04-12T05:14:37Z</time></trkpt><trkpt lat="45.53972514980146" lon="9.017228326629487"><ele>163.25</ele><time>2026-04-12T05:14:38Z</time></trkpt><trkpt lat="45.53980277991652" lon="9.017104341987356"><ele>164.0</ele><time>2026-04-12T05:14:39Z</time></trkpt><trkpt lat="45.539877580417254" lon="9.0169886561066"><ele>164.0</ele><time>2026-04-12T05:14:40Z</time></trkpt><trkpt lat="45.539947861494234" lon="9.016877263955196"><ele>164.0</ele><time>2026-04-12T05:14:41Z</time></trkpt><trkpt lat="45.540015741450595" lon="9.016768007887013"><ele>164.0</ele><time>2026-04-12T05:14:42Z</time></trkpt><trkpt lat="45.54008725197176" lon="9.016684250260038"><ele>164.0</ele><time>2026-04-12T05:14:43Z</time></trkpt><trkpt lat="45.540153420459134" lon="9.016590377478346"><ele>164.0</ele><time>2026-04-12T05:14:44Z</time></trkpt><trkpt lat="45.540222648118565" lon="9.016511097919166"><ele>164.0</ele><time>2026-04-12T05:14:45Z</time></trkpt><trkpt lat="45.540292909180486" lon="9.016423746851432"><ele>164.0</ele><time>2026-04-12T05:14:46Z</time></trkpt><trkpt lat="45.54035091763869" lon="9.016329065985714"><ele>164.0</ele><time>2026-04-12T05:14:47Z</time></trkpt><trkpt lat="45.54039681673754" lon="9.016204907062304"><ele>164.0</ele><time>2026-04-12T05:14:48Z</time></trkpt><trkpt lat="45.54044926660689" lon="9.01607203175313"><ele>164.0</ele><time>2026-04-12T05:14:49Z</time></trkpt><trkpt lat="45.54051354586302" lon="9.015943879463531"><ele>164.0</ele><time>2026-04-12T05:14:50Z</time></trkpt><trkpt lat="45.54058503315435" lon="9.01582184706369"><ele>164.0</ele><time>2026-04-12T05:14:51Z</time></trkpt><trkpt lat="45.54065743099722" lon="9.015709929949537"><ele>164.0</ele><time>2026-04-12T05:14:52Z</time></trkpt><trkpt lat="45.54073108762225" lon="9.015613293538019"><ele>164.0</ele><time>2026-04-12T05:14:53Z</time></trkpt><trkpt lat="45.540814906813345" lon="9.015555832934057"><ele>164.0</ele><time>2026-04-12T05:14:54Z</time></trkpt><trkpt lat="45.540863760088214" lon="9.015473459940578"><ele>164.0</ele><time>2026-04-12T05:14:55Z</time></trkpt><trkpt lat="45.54099412806783" lon="9.015584765194612"><ele>164.0</ele><time>2026-04-12T05:14:56Z</time></trkpt><trkpt lat="45.54105292895462" lon="9.015691090943461"><ele>164.0</ele><time>2026-04-12T05:14:57Z</time></trkpt><trkpt lat="45.54109092693152" lon="9.015818378077695"><ele>164.0</ele><time>2026-04-12T05:14:58Z</time></trkpt><trkpt lat="45.54109553074798" lon="9.015971306968387"><ele>164.0</ele><time>2026-04-12T05:14:59Z</time></trkpt><trkpt lat="45.5410804083288" lon="9.016139703689465"><ele>164.0</ele><time>2026-04-12T05:15:00Z</time></trkpt><trkpt lat="45.54106285736696" lon="9.016316669554977"><ele>164.0</ele><time>2026-04-12T05:15:01Z</time></trkpt><trkpt lat="45.54104767218365" lon="9.016506641270666"><ele>164.0</ele><time>2026-04-12T05:15:02Z</time></trkpt><trkpt lat="45.54103430994389" lon="9.016712585111659"><ele>165.0</ele><time>2026-04-12T05:15:03Z</time></trkpt><trkpt lat="45.54102059400027" lon="9.016932292087573"><ele>166.0</ele><time>2026-04-12T05:15:04Z</time></trkpt><trkpt lat="45.541024191326294" lon="9.017162248481139"><ele>167.0</ele><time>2026-04-12T05:15:05Z</time></trkpt><trkpt lat="45.540991022030376" lon="9.017404989541172"><ele>166.33333333333331</ele><time>2026-04-12T05:15:06Z</time></trkpt><trkpt lat="45.54096754420762" lon="9.017655157557424"><ele>165.66666666666666</ele><time>2026-04-12T05:15:07Z</time></trkpt><trkpt lat="45.54094969384432" lon="9.017912450343538"><ele>165.0</ele><time>2026-04-12T05:15:08Z</time></trkpt><trkpt lat="45.54093034123856" lon="9.01817941837615"><ele>164.66666666666666</ele><time>2026-04-12T05:15:09Z</time></trkpt><trkpt lat="45.54091375058762" lon="9.018441390254072"><ele>164.33333333333331</ele><time>2026-04-12T05:15:10Z</time></trkpt><trkpt lat="45.540892788454876" lon="9.01871026875628"><ele>164.0</ele><time>2026-04-12T05:15:10.999Z</time></trkpt><trkpt lat="45.54087208273112" lon="9.018981056767755"><ele>164.66666666666666</ele><time>2026-04-12T05:15:11.999Z</time></trkpt><trkpt lat="45.54084967520756" lon="9.019254562399494"><ele>165.33333333333334</ele><time>2026-04-12T05:15:12.999Z</time></trkpt><trkpt lat="45.54082588950358" lon="9.01953667655835"><ele>166.0</ele><time>2026-04-12T05:15:13.999Z</time></trkpt><trkpt lat="45.54079919396071" lon="9.01982235716918"><ele>166.0</ele><time>2026-04-12T05:15:14.999Z</time></trkpt><trkpt lat="45.54077746839585" lon="9.02011758398471"><ele>166.0</ele><time>2026-04-12T05:15:15.999Z</time></trkpt><trkpt lat="45.54075253802377" lon="9.020413376840443"><ele>166.0</ele><time>2026-04-12T05:15:16.999Z</time></trkpt><trkpt lat="45.540729118327334" lon="9.02071506940333"><ele>165.0</ele><time>2026-04-12T05:15:17.999Z</time></trkpt><trkpt lat="45.54070254179984" lon="9.021020524823502"><ele>164.0</ele><time>2026-04-12T05:15:18.999Z</time></trkpt><trkpt lat="45.54067887263901" lon="9.021328408177958"><ele>163.0</ele><time>2026-04-12T05:15:19.999Z</time></trkpt><trkpt lat="45.540655373285006" lon="9.021640851504943"><ele>163.0</ele><time>2026-04-12T05:15:20.999Z</time></trkpt><trkpt lat="45.540633134405624" lon="9.021950434397125"><ele>163.0</ele><time>2026-04-12T05:15:21.999Z</time></trkpt><trkpt lat="45.54060983892672" lon="9.022258455122078"><ele>163.0</ele><time>2026-04-12T05:15:22.999Z</time></trkpt><trkpt lat="45.54058815600906" lon="9.02255856598134"><ele>163.0</ele><time>2026-04-12T05:15:23.999Z</time></trkpt><trkpt lat="45.54056465060245" lon="9.022852646974622"><ele>163.0</ele><time>2026-04-12T05:15:24.999Z</time></trkpt><trkpt lat="45.54054321458194" lon="9.023144001171104"><ele>163.0</ele><time>2026-04-12T05:15:25.999Z</time></trkpt><trkpt lat="45.54051873238487" lon="9.023431057952779"><ele>163.0</ele><time>2026-04-12T05:15:26.999Z</time></trkpt><trkpt lat="45.540494311683666" lon="9.023710241043355"><ele>163.0</ele><time>2026-04-12T05:15:27.999Z</time></trkpt><trkpt lat="45.540472840389626" lon="9.023984202572239"><ele>163.0</ele><time>2026-04-12T05:15:28.999Z</time></trkpt><trkpt lat="45.54045757360557" lon="9.024248831892848"><ele>162.33333333333334</ele><time>2026-04-12T05:15:29.999Z</time></trkpt><trkpt lat="45.54043794579798" lon="9.02450496071169"><ele>161.66666666666666</ele><time>2026-04-12T05:15:30.999Z</time></trkpt><trkpt lat="45.54041831684333" lon="9.02474114895874"><ele>161.0</ele><time>2026-04-12T05:15:31.999Z</time></trkpt><trkpt lat="45.54039678831056" lon="9.024964477656647"><ele>161.0</ele><time>2026-04-12T05:15:32.999Z</time></trkpt><trkpt lat="45.540381017108736" lon="9.02517469063584"><ele>161.0</ele><time>2026-04-12T05:15:33.999Z</time></trkpt><trkpt lat="45.54036699248049" lon="9.02536059343795"><ele>161.0</ele><time>2026-04-12T05:15:34.999Z</time></trkpt><trkpt lat="45.54035103771404" lon="9.025529200058136"><ele>161.0</ele><time>2026-04-12T05:15:35.999Z</time></trkpt><trkpt lat="45.54033838006945" lon="9.025676635816193"><ele>161.0</ele><time>2026-04-12T05:15:36.999Z</time></trkpt><trkpt lat="45.54032842617046" lon="9.025803398079344"><ele>161.0</ele><time>2026-04-12T05:15:37.999Z</time></trkpt><trkpt lat="45.54031905529136" lon="9.025915836154216"><ele>161.0</ele><time>2026-04-12T05:15:38.999Z</time></trkpt><trkpt lat="45.54031058659062" lon="9.02601730491002"><ele>161.0</ele><time>2026-04-12T05:15:39.999Z</time></trkpt><trkpt lat="45.54029718196342" lon="9.026163779449629"><ele>161.0</ele><time>2026-04-12T05:15:41.999Z</time></trkpt><trkpt lat="45.54030475791154" lon="9.026293523769617"><ele>161.0</ele><time>2026-04-12T05:16:41Z</time></trkpt><trkpt lat="45.54029462290144" lon="9.026394647637698"><ele>161.5</ele><time>2026-04-12T05:16:43Z</time></trkpt><trkpt lat="45.54028753248396" lon="9.026538353303737"><ele>162.0</ele><time>2026-04-12T05:16:45Z</time></trkpt><trkpt lat="45.540280841398754" lon="9.02662862439314"><ele>162.5</ele><time>2026-04-12T05:16:46Z</time></trkpt><trkpt lat="45.540275578971226" lon="9.026727553128985"><ele>163.0</ele><time>2026-04-12T05:16:47Z</time></trkpt><trkpt lat="45.54026671736875" lon="9.02683773761948"><ele>163.5</ele><time>2026-04-12T05:16:48Z</time></trkpt><trkpt lat="45.54025490521752" lon="9.026954115854123"><ele>164.0</ele><time>2026-04-12T05:16:49Z</time></trkpt><trkpt lat="45.54024871087802" lon="9.02707822262571"><ele>164.0</ele><time>2026-04-12T05:16:50Z</time></trkpt><trkpt lat="45.54023838494156" lon="9.027205917345132"><ele>164.0</ele><time>2026-04-12T05:16:51Z</time></trkpt><trkpt lat="45.540228413194306" lon="9.027346089156975"><ele>164.0</ele><time>2026-04-12T05:16:52Z</time></trkpt><trkpt lat="45.54021915751436" lon="9.02749248767821"><ele>164.0</ele><time>2026-04-12T05:16:53Z</time></trkpt><trkpt lat="45.540208785074086" lon="9.027643093125375"><ele>164.0</ele><time>2026-04-12T05:16:54Z</time></trkpt><trkpt lat="45.54019918227111" lon="9.027800038726987"><ele>163.5</ele><time>2026-04-12T05:16:55Z</time></trkpt><trkpt lat="45.54019050486657" lon="9.027957654739165"><ele>163.0</ele><time>2026-04-12T05:16:56Z</time></trkpt><trkpt lat="45.54018077746498" lon="9.028122779344123"><ele>162.5</ele><time>2026-04-12T05:16:57Z</time></trkpt><trkpt lat="45.54016774394322" lon="9.028290270894987"><ele>162.0</ele><time>2026-04-12T05:16:58Z</time></trkpt><trkpt lat="45.54015554782283" lon="9.028462519627611"><ele>162.0</ele><time>2026-04-12T05:16:59Z</time></trkpt><trkpt lat="45.54014553946883" lon="9.028639173852847"><ele>162.0</ele><time>2026-04-12T05:17:00Z</time></trkpt><trkpt lat="45.54013231347954" lon="9.02882290972093"><ele>162.0</ele><time>2026-04-12T05:17:01Z</time></trkpt><trkpt lat="45.54011916048086" lon="9.029004313906418"><ele>162.0</ele><time>2026-04-12T05:17:02Z</time></trkpt><trkpt lat="45.54010430314238" lon="9.029194327082234"><ele>162.0</ele><time>2026-04-12T05:17:03Z</time></trkpt><trkpt lat="45.54009267772502" lon="9.029389833129681"><ele>162.0</ele><time>2026-04-12T05:17:04Z</time></trkpt><trkpt lat="45.540081399618664" lon="9.029586582130303"><ele>162.0</ele><time>2026-04-12T05:17:05Z</time></trkpt><trkpt lat="45.5400641452009" lon="9.02979108330537"><ele>162.0</ele><time>2026-04-12T05:17:06Z</time></trkpt><trkpt lat="45.540049261984265" lon="9.030004732514561"><ele>162.0</ele><time>2026-04-12T05:17:07Z</time></trkpt><trkpt lat="45.540040553956686" lon="9.030230065049183"><ele>162.0</ele><time>2026-04-12T05:17:08Z</time></trkpt><trkpt lat="45.54003195496591" lon="9.03045833689406"><ele>162.0</ele><time>2026-04-12T05:17:09Z</time></trkpt><trkpt lat="45.54001972113248" lon="9.03068690938745"><ele>162.0</ele><time>2026-04-12T05:17:10Z</time></trkpt><trkpt lat="45.54000557793506" lon="9.03092085622218"><ele>162.0</ele><time>2026-04-12T05:17:11Z</time></trkpt><trkpt lat="45.53998892255419" lon="9.031163663197882"><ele>162.0</ele><time>2026-04-12T05:17:12Z</time></trkpt><trkpt lat="45.53997284408874" lon="9.031402217044361"><ele>161.33333333333334</ele><time>2026-04-12T05:17:13Z</time></trkpt><trkpt lat="45.53993703516291" lon="9.031640632927175"><ele>160.66666666666669</ele><time>2026-04-12T05:17:14Z</time></trkpt><trkpt lat="45.53992074365521" lon="9.031879023310271"><ele>160.0</ele><time>2026-04-12T05:17:15Z</time></trkpt><trkpt lat="45.53990384662081" lon="9.032117313893893"><ele>160.0</ele><time>2026-04-12T05:17:16Z</time></trkpt><trkpt lat="45.539886081732035" lon="9.03235107465759"><ele>160.0</ele><time>2026-04-12T05:17:17Z</time></trkpt><trkpt lat="45.5398705788485" lon="9.032575739291117"><ele>160.0</ele><time>2026-04-12T05:17:18Z</time></trkpt><trkpt lat="45.539857274926625" lon="9.032783193516735"><ele>160.2</ele><time>2026-04-12T05:17:19Z</time></trkpt><trkpt lat="45.5398477245564" lon="9.032973753609047"><ele>160.4</ele><time>2026-04-12T05:17:20Z</time></trkpt><trkpt lat="45.53983751177514" lon="9.033143255671899"><ele>160.60000000000002</ele><time>2026-04-12T05:17:21Z</time></trkpt><trkpt lat="45.53982649020412" lon="9.033286795991483"><ele>160.8</ele><time>2026-04-12T05:17:22Z</time></trkpt><trkpt lat="45.53982138762533" lon="9.03340734282584"><ele>161.0</ele><time>2026-04-12T05:17:23Z</time></trkpt><trkpt lat="45.5398148555966" lon="9.033508862632871"><ele>161.0</ele><time>2026-04-12T05:17:24Z</time></trkpt><trkpt lat="45.53980190107622" lon="9.03365721069448"><ele>161.0</ele><time>2026-04-12T05:17:25.999Z</time></trkpt><trkpt lat="45.53979099148578" lon="9.033766672444274"><ele>161.0</ele><time>2026-04-12T05:17:27.999Z</time></trkpt><trkpt lat="45.53977841999348" lon="9.03386694931363"><ele>161.0</ele><time>2026-04-12T05:17:45.999Z</time></trkpt><trkpt lat="45.53976706348574" lon="9.033962417196555"><ele>161.0</ele><time>2026-04-12T05:17:47.999Z</time></trkpt><trkpt lat="45.539760565962276" lon="9.034118079315434"><ele>161.0</ele><time>2026-04-12T05:17:49.999Z</time></trkpt><trkpt lat="45.539764536766995" lon="9.03425119081407"><ele>161.0</ele><time>2026-04-12T05:17:51.999Z</time></trkpt><trkpt lat="45.539912625094594" lon="9.034270591439139"><ele>161.0</ele><time>2026-04-12T05:17:52.999Z</time></trkpt><trkpt lat="45.53998886508653" lon="9.034201327342917"><ele>161.0</ele><time>2026-04-12T05:17:53.999Z</time></trkpt><trkpt lat="45.54006462545493" lon="9.034127200754801"><ele>161.0</ele><time>2026-04-12T05:17:54.999Z</time></trkpt><trkpt lat="45.54015480159617" lon="9.034060974611535"><ele>161.0</ele><time>2026-04-12T05:17:55.999Z</time></trkpt><trkpt lat="45.54025733262517" lon="9.033993819481179"><ele>161.0</ele><time>2026-04-12T05:17:56.999Z</time></trkpt><trkpt lat="45.54036908745386" lon="9.033927489727628"><ele>161.0</ele><time>2026-04-12T05:17:57.999Z</time></trkpt><trkpt lat="45.540486060563616" lon="9.033854771110207"><ele>161.0</ele><time>2026-04-12T05:17:58.999Z</time></trkpt><trkpt lat="45.540614093384335" lon="9.03377868967486"><ele>161.0</ele><time>2026-04-12T05:17:59.999Z</time></trkpt><trkpt lat="45.540747740742155" lon="9.033699872801146"><ele>160.66666666666666</ele><time>2026-04-12T05:18:00.999Z</time></trkpt><trkpt lat="45.54089198140165" lon="9.033627131324003"><ele>160.33333333333334</ele><time>2026-04-12T05:18:01.999Z</time></trkpt><trkpt lat="45.541041238460686" lon="9.033557866496455"><ele>160.0</ele><time>2026-04-12T05:18:02.999Z</time></trkpt><trkpt lat="45.541196108852304" lon="9.03348792386998"><ele>160.66666666666669</ele><time>2026-04-12T05:18:03.999Z</time></trkpt><trkpt lat="45.54135433662618" lon="9.033422320778806"><ele>161.33333333333334</ele><time>2026-04-12T05:18:04.999Z</time></trkpt><trkpt lat="45.541514069822306" lon="9.033362009957086"><ele>162.0</ele><time>2026-04-12T05:18:05.999Z</time></trkpt><trkpt lat="45.54167742462741" lon="9.033299706725156"><ele>162.0</ele><time>2026-04-12T05:18:06.999Z</time></trkpt><trkpt lat="45.54184299171721" lon="9.033236504856326"><ele>162.0</ele><time>2026-04-12T05:18:07.999Z</time></trkpt><trkpt lat="45.54201275024974" lon="9.033181291166459"><ele>162.0</ele><time>2026-04-12T05:18:08.999Z</time></trkpt><trkpt lat="45.54218159682404" lon="9.033127422876923"><ele>161.66666666666666</ele><time>2026-04-12T05:18:09.999Z</time></trkpt><trkpt lat="45.54235755212315" lon="9.033083180540286"><ele>161.33333333333331</ele><time>2026-04-12T05:18:10.999Z</time></trkpt><trkpt lat="45.54253141367971" lon="9.033046294159792"><ele>161.0</ele><time>2026-04-12T05:18:11.999Z</time></trkpt><trkpt lat="45.54270868097888" lon="9.033016224630575"><ele>161.66666666666666</ele><time>2026-04-12T05:18:12.999Z</time></trkpt><trkpt lat="45.542886727638525" lon="9.032982693072833"><ele>162.33333333333334</ele><time>2026-04-12T05:18:13.999Z</time></trkpt><trkpt lat="45.54307123844483" lon="9.0329527351292"><ele>163.0</ele><time>2026-04-12T05:18:14.999Z</time></trkpt><trkpt lat="45.543246726327574" lon="9.032920499332239"><ele>163.0</ele><time>2026-04-12T05:18:15.999Z</time></trkpt><trkpt lat="45.54342192847666" lon="9.032885241792842"><ele>163.0</ele><time>2026-04-12T05:18:16.999Z</time></trkpt><trkpt lat="45.54359094092096" lon="9.03285615186147"><ele>163.0</ele><time>2026-04-12T05:18:17.999Z</time></trkpt><trkpt lat="45.54375875557936" lon="9.032824189665991"><ele>163.0</ele><time>2026-04-12T05:18:19Z</time></trkpt><trkpt lat="45.54391940313024" lon="9.032793612650819"><ele>163.0</ele><time>2026-04-12T05:18:20Z</time></trkpt><trkpt lat="45.54407192669641" lon="9.0327692246794"><ele>163.0</ele><time>2026-04-12T05:18:21Z</time></trkpt><trkpt lat="45.544220394982304" lon="9.032750820550408"><ele>163.0</ele><time>2026-04-12T05:18:22Z</time></trkpt><trkpt lat="45.544364612995246" lon="9.032754440162181"><ele>163.0</ele><time>2026-04-12T05:18:23Z</time></trkpt><trkpt lat="45.544503762106125" lon="9.03278874246606"><ele>163.0</ele><time>2026-04-12T05:18:24Z</time></trkpt><trkpt lat="45.544627543512" lon="9.032847166054372"><ele>163.0</ele><time>2026-04-12T05:18:25Z</time></trkpt><trkpt lat="45.544739090218854" lon="9.032913516954219"><ele>163.8</ele><time>2026-04-12T05:18:26Z</time></trkpt><trkpt lat="45.544831273953044" lon="9.032992940762176"><ele>164.60000000000002</ele><time>2026-04-12T05:18:27Z</time></trkpt><trkpt lat="45.54490587993789" lon="9.033075025153932"><ele>165.39999999999998</ele><time>2026-04-12T05:18:28Z</time></trkpt><trkpt lat="45.544954914219616" lon="9.033178239856772"><ele>166.2</ele><time>2026-04-12T05:18:29Z</time></trkpt><trkpt lat="45.54499205915949" lon="9.033282688050035"><ele>167.0</ele><time>2026-04-12T05:18:30Z</time></trkpt><trkpt lat="45.54505186075977" lon="9.033362333522435"><ele>167.0</ele><time>2026-04-12T05:18:31Z</time></trkpt><trkpt lat="45.5451300067026" lon="9.033403966062464"><ele>167.0</ele><time>2026-04-12T05:18:32Z</time></trkpt><trkpt lat="45.54522299324322" lon="9.03338022728482"><ele>167.0</ele><time>2026-04-12T05:18:33Z</time></trkpt><trkpt lat="45.54531058059969" lon="9.03331569956084"><ele>167.0</ele><time>2026-04-12T05:18:34Z</time></trkpt><trkpt lat="45.54538447256716" lon="9.033221907737483"><ele>167.0</ele><time>2026-04-12T05:18:35Z</time></trkpt><trkpt lat="45.54548611518698" lon="9.033158074275436"><ele>167.0</ele><time>2026-04-12T05:18:36Z</time></trkpt><trkpt lat="45.545608979812386" lon="9.033139592277886"><ele>167.0</ele><time>2026-04-12T05:18:37Z</time></trkpt><trkpt lat="45.545740744572186" lon="9.033136120240492"><ele>167.0</ele><time>2026-04-12T05:18:38Z</time></trkpt><trkpt lat="45.54587741974367" lon="9.033134254918286"><ele>167.0</ele><time>2026-04-12T05:18:39Z</time></trkpt><trkpt lat="45.54602361560131" lon="9.033135813359932"><ele>167.0</ele><time>2026-04-12T05:18:40Z</time></trkpt><trkpt lat="45.54618078230732" lon="9.033138275562846"><ele>167.0</ele><time>2026-04-12T05:18:41Z</time></trkpt><trkpt lat="45.54634168217715" lon="9.03313385958992"><ele>167.0</ele><time>2026-04-12T05:18:42Z</time></trkpt><trkpt lat="45.54651333361842" lon="9.033128849651533"><ele>166.0</ele><time>2026-04-12T05:18:43Z</time></trkpt><trkpt lat="45.54669311548973" lon="9.033125212657305"><ele>165.0</ele><time>2026-04-12T05:18:44Z</time></trkpt><trkpt lat="45.5468780817301" lon="9.03311207433932"><ele>164.0</ele><time>2026-04-12T05:18:45Z</time></trkpt><trkpt lat="45.547069959697524" lon="9.033101500638109"><ele>164.0</ele><time>2026-04-12T05:18:46Z</time></trkpt><trkpt lat="45.54726753668515" lon="9.033093542440245"><ele>164.0</ele><time>2026-04-12T05:18:47Z</time></trkpt><trkpt lat="45.54746749250716" lon="9.03308425829569"><ele>164.0</ele><time>2026-04-12T05:18:48Z</time></trkpt><trkpt lat="45.54767144420339" lon="9.03306522612969"><ele>164.0</ele><time>2026-04-12T05:18:49Z</time></trkpt><trkpt lat="45.54787739658755" lon="9.033068482986339"><ele>164.0</ele><time>2026-04-12T05:18:50Z</time></trkpt><trkpt lat="45.54808228970162" lon="9.033040885537932"><ele>164.0</ele><time>2026-04-12T05:18:51Z</time></trkpt><trkpt lat="45.548288091337426" lon="9.033003799879356"><ele>164.0</ele><time>2026-04-12T05:18:52Z</time></trkpt><trkpt lat="45.54849335776252" lon="9.032958759257598"><ele>164.0</ele><time>2026-04-12T05:18:53Z</time></trkpt><trkpt lat="45.5487011578441" lon="9.032904458282685"><ele>164.0</ele><time>2026-04-12T05:18:54Z</time></trkpt><trkpt lat="45.54890859340422" lon="9.032848697440368"><ele>164.33333333333331</ele><time>2026-04-12T05:18:55Z</time></trkpt><trkpt lat="45.54911314519428" lon="9.032787981690666"><ele>164.66666666666666</ele><time>2026-04-12T05:18:56Z</time></trkpt><trkpt lat="45.54931501453168" lon="9.032725453646325"><ele>165.0</ele><time>2026-04-12T05:18:57Z</time></trkpt><trkpt lat="45.549516032259675" lon="9.03265290549094"><ele>164.33333333333334</ele><time>2026-04-12T05:18:58Z</time></trkpt><trkpt lat="45.54971861983719" lon="9.032612749330472"><ele>163.66666666666669</ele><time>2026-04-12T05:18:59Z</time></trkpt><trkpt lat="45.54992205690444" lon="9.0325897967096"><ele>163.0</ele><time>2026-04-12T05:19:00Z</time></trkpt><trkpt lat="45.55013199203262" lon="9.032579185325549"><ele>163.0</ele><time>2026-04-12T05:19:01Z</time></trkpt><trkpt lat="45.55033613216212" lon="9.03257591284203"><ele>163.0</ele><time>2026-04-12T05:19:02Z</time></trkpt><trkpt lat="45.55054018855398" lon="9.032585527529271"><ele>163.0</ele><time>2026-04-12T05:19:03Z</time></trkpt><trkpt lat="45.550742239716996" lon="9.032608943507764"><ele>162.66666666666669</ele><time>2026-04-12T05:19:04Z</time></trkpt><trkpt lat="45.55094521712014" lon="9.032648402629073"><ele>162.33333333333334</ele><time>2026-04-12T05:19:05Z</time></trkpt><trkpt lat="45.551148224609385" lon="9.032699611903306"><ele>162.0</ele><time>2026-04-12T05:19:06Z</time></trkpt><trkpt lat="45.55134873073404" lon="9.032766674094109"><ele>163.33333333333334</ele><time>2026-04-12T05:19:07Z</time></trkpt><trkpt lat="45.551544689577625" lon="9.032843448252564"><ele>164.66666666666669</ele><time>2026-04-12T05:19:08Z</time></trkpt><trkpt lat="45.551738428376915" lon="9.032928900518842"><ele>166.0</ele><time>2026-04-12T05:19:09Z</time></trkpt><trkpt lat="45.55192847778904" lon="9.033021697641786"><ele>165.33333333333334</ele><time>2026-04-12T05:19:10Z</time></trkpt><trkpt lat="45.552116319012086" lon="9.033114627010447"><ele>164.66666666666666</ele><time>2026-04-12T05:19:11Z</time></trkpt><trkpt lat="45.55230311003135" lon="9.033202929243947"><ele>164.0</ele><time>2026-04-12T05:19:12Z</time></trkpt><trkpt lat="45.55249409705379" lon="9.033283003503124"><ele>164.66666666666666</ele><time>2026-04-12T05:19:13Z</time></trkpt><trkpt lat="45.55268863982533" lon="9.033348754890854"><ele>165.33333333333334</ele><time>2026-04-12T05:19:14Z</time></trkpt><trkpt lat="45.55288323150888" lon="9.03339902429811"><ele>166.0</ele><time>2026-04-12T05:19:15Z</time></trkpt><trkpt lat="45.55307950825326" lon="9.033435480632798"><ele>166.33333333333334</ele><time>2026-04-12T05:19:16Z</time></trkpt><trkpt lat="45.55327457082359" lon="9.03345137892511"><ele>166.66666666666666</ele><time>2026-04-12T05:19:17Z</time></trkpt><trkpt lat="45.55346331307391" lon="9.03345948571534"><ele>167.0</ele><time>2026-04-12T05:19:18Z</time></trkpt><trkpt lat="45.55364946993859" lon="9.033458961824834"><ele>167.0</ele><time>2026-04-12T05:19:19Z</time></trkpt><trkpt lat="45.55382647734297" lon="9.033452327590332"><ele>167.0</ele><time>2026-04-12T05:19:20Z</time></trkpt><trkpt lat="45.55399252194301" lon="9.033446049708495"><ele>167.0</ele><time>2026-04-12T05:19:21Z</time></trkpt><trkpt lat="45.55414159297359" lon="9.03344053185735"><ele>167.0</ele><time>2026-04-12T05:19:22Z</time></trkpt><trkpt lat="45.554271809671995" lon="9.033444044936266"><ele>167.0</ele><time>2026-04-12T05:19:23Z</time></trkpt><trkpt lat="45.55437881024484" lon="9.033456031796732"><ele>167.0</ele><time>2026-04-12T05:19:24Z</time></trkpt><trkpt lat="45.55446799876794" lon="9.033479107306029"><ele>167.0</ele><time>2026-04-12T05:19:25Z</time></trkpt><trkpt lat="45.55454983342251" lon="9.03353064119947"><ele>167.0</ele><time>2026-04-12T05:19:26Z</time></trkpt><trkpt lat="45.554624746520936" lon="9.033610789697091"><ele>167.25</ele><time>2026-04-12T05:19:27Z</time></trkpt><trkpt lat="45.554687805119826" lon="9.033723899541103"><ele>167.5</ele><time>2026-04-12T05:19:28Z</time></trkpt><trkpt lat="45.55473467912472" lon="9.033867667074233"><ele>167.75</ele><time>2026-04-12T05:19:29Z</time></trkpt><trkpt lat="45.55476263361403" lon="9.034029270400321"><ele>168.0</ele><time>2026-04-12T05:19:30Z</time></trkpt><trkpt lat="45.55477201049505" lon="9.034220026410027"><ele>168.0</ele><time>2026-04-12T05:19:31Z</time></trkpt><trkpt lat="45.55476930638293" lon="9.034418747301563"><ele>168.0</ele><time>2026-04-12T05:19:32Z</time></trkpt><trkpt lat="45.554758727797626" lon="9.034636881918058"><ele>168.0</ele><time>2026-04-12T05:19:33Z</time></trkpt><trkpt lat="45.55474751881027" lon="9.034861532404813"><ele>168.33333333333334</ele><time>2026-04-12T05:19:34Z</time></trkpt><trkpt lat="45.55472874909125" lon="9.035101296008712"><ele>168.66666666666669</ele><time>2026-04-12T05:19:34.999Z</time></trkpt><trkpt lat="45.554728566001856" lon="9.035352779596435"><ele>169.0</ele><time>2026-04-12T05:19:35.999Z</time></trkpt><trkpt lat="45.554713552464165" lon="9.035615316568522"><ele>169.66666666666669</ele><time>2026-04-12T05:19:36.999Z</time></trkpt><trkpt lat="45.55469857134632" lon="9.03587728688196"><ele>170.33333333333334</ele><time>2026-04-12T05:19:37.999Z</time></trkpt><trkpt lat="45.55468332743941" lon="9.036143852526243"><ele>171.0</ele><time>2026-04-12T05:19:38.999Z</time></trkpt><trkpt lat="45.55466784727957" lon="9.03641271990115"><ele>170.33333333333334</ele><time>2026-04-12T05:19:39.999Z</time></trkpt><trkpt lat="45.554652081948284" lon="9.036686470226758"><ele>169.66666666666669</ele><time>2026-04-12T05:19:40.999Z</time></trkpt><trkpt lat="45.554636305267245" lon="9.036962716860598"><ele>169.0</ele><time>2026-04-12T05:19:41.999Z</time></trkpt><trkpt lat="45.554620531758125" lon="9.037238908884767"><ele>168.0</ele><time>2026-04-12T05:19:42.999Z</time></trkpt><trkpt lat="45.55458725880988" lon="9.037512604248231"><ele>167.0</ele><time>2026-04-12T05:19:43.999Z</time></trkpt><trkpt lat="45.55458116270798" lon="9.037790456673132"><ele>166.0</ele><time>2026-04-12T05:19:44.999Z</time></trkpt><trkpt lat="45.55458098574837" lon="9.038068457427869"><ele>165.66666666666669</ele><time>2026-04-12T05:19:45.999Z</time></trkpt><trkpt lat="45.554584790892726" lon="9.03834627487089"><ele>165.33333333333334</ele><time>2026-04-12T05:19:46.999Z</time></trkpt><trkpt lat="45.5545986154833" lon="9.038623284845167"><ele>165.0</ele><time>2026-04-12T05:19:47.999Z</time></trkpt><trkpt lat="45.55463775257656" lon="9.038894294684571"><ele>165.66666666666666</ele><time>2026-04-12T05:19:48.999Z</time></trkpt><trkpt lat="45.55466858460839" lon="9.03916918988867"><ele>166.33333333333331</ele><time>2026-04-12T05:19:49.999Z</time></trkpt><trkpt lat="45.554692157007764" lon="9.039449663347579"><ele>167.0</ele><time>2026-04-12T05:19:50.999Z</time></trkpt><trkpt lat="45.55474265413359" lon="9.039722338474556"><ele>167.0</ele><time>2026-04-12T05:19:51.999Z</time></trkpt><trkpt lat="45.55480200373065" lon="9.039990668471205"><ele>167.0</ele><time>2026-04-12T05:19:52.999Z</time></trkpt><trkpt lat="45.55486772260991" lon="9.040258408574891"><ele>167.0</ele><time>2026-04-12T05:19:53.999Z</time></trkpt><trkpt lat="45.55494472181185" lon="9.040522610144599"><ele>167.0</ele><time>2026-04-12T05:19:54.999Z</time></trkpt><trkpt lat="45.555030148273026" lon="9.040783845044858"><ele>167.0</ele><time>2026-04-12T05:19:55.999Z</time></trkpt><trkpt lat="45.55511918764522" lon="9.041042735656038"><ele>167.0</ele><time>2026-04-12T05:19:56.999Z</time></trkpt><trkpt lat="45.55521832036976" lon="9.041298401052332"><ele>167.0</ele><time>2026-04-12T05:19:57.999Z</time></trkpt><trkpt lat="45.55532432665542" lon="9.041550538244651"><ele>167.0</ele><time>2026-04-12T05:19:58.999Z</time></trkpt><trkpt lat="45.55544470514721" lon="9.041794865542387"><ele>167.0</ele><time>2026-04-12T05:19:59.999Z</time></trkpt><trkpt lat="45.555578734329664" lon="9.042034121326008"><ele>166.33333333333331</ele><time>2026-04-12T05:20:00.999Z</time></trkpt><trkpt lat="45.55571562726285" lon="9.042264096015197"><ele>165.66666666666666</ele><time>2026-04-12T05:20:01.999Z</time></trkpt><trkpt lat="45.55585458876899" lon="9.04248032849605"><ele>165.0</ele><time>2026-04-12T05:20:02.999Z</time></trkpt><trkpt lat="45.55600227066545" lon="9.042690952606613"><ele>165.0</ele><time>2026-04-12T05:20:03.999Z</time></trkpt><trkpt lat="45.55614888450818" lon="9.042880455175139"><ele>165.0</ele><time>2026-04-12T05:20:04.999Z</time></trkpt><trkpt lat="45.55630171775177" lon="9.043062204493992"><ele>165.0</ele><time>2026-04-12T05:20:05.999Z</time></trkpt><trkpt lat="45.5564563013377" lon="9.0432388927827"><ele>165.33333333333334</ele><time>2026-04-12T05:20:06.999Z</time></trkpt><trkpt lat="45.55661378993956" lon="9.043407763350569"><ele>165.66666666666669</ele><time>2026-04-12T05:20:07.999Z</time></trkpt><trkpt lat="45.556775622016794" lon="9.043562542313893"><ele>166.0</ele><time>2026-04-12T05:20:08.999Z</time></trkpt><trkpt lat="45.55694718394437" lon="9.043707824651708"><ele>166.66666666666669</ele><time>2026-04-12T05:20:09.999Z</time></trkpt><trkpt lat="45.55712309723245" lon="9.043837653102118"><ele>167.33333333333334</ele><time>2026-04-12T05:20:10.999Z</time></trkpt><trkpt lat="45.55730392026276" lon="9.043955180621804"><ele>168.0</ele><time>2026-04-12T05:20:11.999Z</time></trkpt><trkpt lat="45.557487216805384" lon="9.044062779781758"><ele>167.66666666666666</ele><time>2026-04-12T05:20:12.999Z</time></trkpt><trkpt lat="45.557667655949" lon="9.04416209927246"><ele>167.33333333333331</ele><time>2026-04-12T05:20:13.999Z</time></trkpt><trkpt lat="45.557852294617156" lon="9.044248201515726"><ele>167.0</ele><time>2026-04-12T05:20:14.999Z</time></trkpt><trkpt lat="45.558042708812394" lon="9.044295428653767"><ele>167.0</ele><time>2026-04-12T05:20:15.999Z</time></trkpt><trkpt lat="45.55822754856609" lon="9.044355284334259"><ele>167.0</ele><time>2026-04-12T05:20:16.999Z</time></trkpt><trkpt lat="45.558413814784195" lon="9.044400826942514"><ele>167.0</ele><time>2026-04-12T05:20:17.999Z</time></trkpt><trkpt lat="45.55860168631231" lon="9.044438812011729"><ele>167.33333333333331</ele><time>2026-04-12T05:20:18.999Z</time></trkpt><trkpt lat="45.55878461362771" lon="9.044468408537396"><ele>167.66666666666666</ele><time>2026-04-12T05:20:19.999Z</time></trkpt><trkpt lat="45.558965281441665" lon="9.0444898136979"><ele>168.0</ele><time>2026-04-12T05:20:20.999Z</time></trkpt><trkpt lat="45.55914007585976" lon="9.044505844685887"><ele>168.0</ele><time>2026-04-12T05:20:21.999Z</time></trkpt><trkpt lat="45.55930325079164" lon="9.044518482194691"><ele>168.0</ele><time>2026-04-12T05:20:22.999Z</time></trkpt><trkpt lat="45.559459864706575" lon="9.044527567170292"><ele>168.0</ele><time>2026-04-12T05:20:23.999Z</time></trkpt><trkpt lat="45.55961125514665" lon="9.044535726770219"><ele>168.0</ele><time>2026-04-12T05:20:25Z</time></trkpt><trkpt lat="45.55976137411803" lon="9.044543212951963"><ele>168.0</ele><time>2026-04-12T05:20:26Z</time></trkpt><trkpt lat="45.559915793608255" lon="9.044546655978014"><ele>168.0</ele><time>2026-04-12T05:20:27Z</time></trkpt><trkpt lat="45.56006963938528" lon="9.044549694571549"><ele>168.0</ele><time>2026-04-12T05:20:28Z</time></trkpt><trkpt lat="45.560218854017094" lon="9.04455246270343"><ele>168.0</ele><time>2026-04-12T05:20:29Z</time></trkpt><trkpt lat="45.56036220075167" lon="9.044554937421562"><ele>168.0</ele><time>2026-04-12T05:20:30Z</time></trkpt><trkpt lat="45.560497364467835" lon="9.044557270868005"><ele>168.0</ele><time>2026-04-12T05:20:31Z</time></trkpt><trkpt lat="45.56062023333256" lon="9.044559392126072"><ele>167.8</ele><time>2026-04-12T05:20:32Z</time></trkpt><trkpt lat="45.56074104977091" lon="9.044560352822787"><ele>167.60000000000002</ele><time>2026-04-12T05:20:33Z</time></trkpt><trkpt lat="45.56085712360269" lon="9.044637532118994"><ele>167.39999999999998</ele><time>2026-04-12T05:20:34Z</time></trkpt><trkpt lat="45.560951162487655" lon="9.044639202959948"><ele>167.2</ele><time>2026-04-12T05:20:35Z</time></trkpt><trkpt lat="45.5610225349259" lon="9.044642450252503"><ele>167.0</ele><time>2026-04-12T05:20:36Z</time></trkpt><trkpt lat="45.5611549022404" lon="9.044655677947459"><ele>167.39999999999998</ele><time>2026-04-12T05:20:38Z</time></trkpt><trkpt lat="45.56122349347995" lon="9.044671511254274"><ele>167.79999999999998</ele><time>2026-04-12T05:20:39Z</time></trkpt><trkpt lat="45.56133718043342" lon="9.044697785236862"><ele>168.2</ele><time>2026-04-12T05:20:41Z</time></trkpt><trkpt lat="45.56142282109406" lon="9.044666396613033"><ele>168.6</ele><time>2026-04-12T05:20:43Z</time></trkpt><trkpt lat="45.561500922827996" lon="9.044820143757683"><ele>169.0</ele><time>2026-04-12T05:20:45Z</time></trkpt><trkpt lat="45.56156439209047" lon="9.044892870369893"><ele>169.0</ele><time>2026-04-12T05:20:46Z</time></trkpt><trkpt lat="45.561637334810946" lon="9.044957371180868"><ele>169.0</ele><time>2026-04-12T05:20:47Z</time></trkpt><trkpt lat="45.561724319074465" lon="9.044990065408651"><ele>169.0</ele><time>2026-04-12T05:20:48Z</time></trkpt><trkpt lat="45.56181256680386" lon="9.045037722390306"><ele>169.0</ele><time>2026-04-12T05:20:49Z</time></trkpt><trkpt lat="45.56190745699388" lon="9.0450110281265"><ele>169.0</ele><time>2026-04-12T05:20:50Z</time></trkpt><trkpt lat="45.56199093033336" lon="9.044955560303666"><ele>169.0</ele><time>2026-04-12T05:20:51Z</time></trkpt><trkpt lat="45.56205867983381" lon="9.044866712375631"><ele>169.0</ele><time>2026-04-12T05:20:52Z</time></trkpt><trkpt lat="45.562141873509745" lon="9.044796108082396"><ele>169.0</ele><time>2026-04-12T05:20:53Z</time></trkpt><trkpt lat="45.56223002696986" lon="9.044718187410696"><ele>169.0</ele><time>2026-04-12T05:20:54Z</time></trkpt><trkpt lat="45.56234292682113" lon="9.044667696633985"><ele>169.0</ele><time>2026-04-12T05:20:55Z</time></trkpt><trkpt lat="45.56247877080871" lon="9.044719165395344"><ele>169.0</ele><time>2026-04-12T05:20:56Z</time></trkpt><trkpt lat="45.56261584727857" lon="9.04472894969515"><ele>169.0</ele><time>2026-04-12T05:20:57Z</time></trkpt><trkpt lat="45.56276164933945" lon="9.04473584070495"><ele>169.0</ele><time>2026-04-12T05:20:58Z</time></trkpt><trkpt lat="45.56291762423265" lon="9.044743981944672"><ele>169.0</ele><time>2026-04-12T05:20:59Z</time></trkpt><trkpt lat="45.563077628702246" lon="9.04474828861445"><ele>168.66666666666669</ele><time>2026-04-12T05:21:00Z</time></trkpt><trkpt lat="45.56323659186374" lon="9.044750373571603"><ele>168.33333333333334</ele><time>2026-04-12T05:21:01Z</time></trkpt><trkpt lat="45.563395891641896" lon="9.044747575720809"><ele>168.0</ele><time>2026-04-12T05:21:02Z</time></trkpt><trkpt lat="45.563558394580326" lon="9.044742149865488"><ele>168.66666666666666</ele><time>2026-04-12T05:21:03Z</time></trkpt><trkpt lat="45.5637231864428" lon="9.044740156305284"><ele>169.33333333333331</ele><time>2026-04-12T05:21:04Z</time></trkpt><trkpt lat="45.56388817788597" lon="9.044742964953858"><ele>170.0</ele><time>2026-04-12T05:21:05Z</time></trkpt><trkpt lat="45.56405908302504" lon="9.044742019660148"><ele>170.0</ele><time>2026-04-12T05:21:06Z</time></trkpt><trkpt lat="45.5642276116435" lon="9.044739781758219"><ele>170.0</ele><time>2026-04-12T05:21:07Z</time></trkpt><trkpt lat="45.56439533980954" lon="9.044736124006162"><ele>170.0</ele><time>2026-04-12T05:21:08Z</time></trkpt><trkpt lat="45.564564823253015" lon="9.044736147534103"><ele>169.33333333333331</ele><time>2026-04-12T05:21:09Z</time></trkpt><trkpt lat="45.564732944064176" lon="9.044739549141225"><ele>168.66666666666666</ele><time>2026-04-12T05:21:10Z</time></trkpt><trkpt lat="45.56490002556654" lon="9.04474218847909"><ele>168.0</ele><time>2026-04-12T05:21:11Z</time></trkpt><trkpt lat="45.5650700509898" lon="9.044746040576216"><ele>168.0</ele><time>2026-04-12T05:21:12Z</time></trkpt><trkpt lat="45.565238971466954" lon="9.04474954866422"><ele>168.0</ele><time>2026-04-12T05:21:13Z</time></trkpt><trkpt lat="45.56540209313359" lon="9.044751089204878"><ele>168.0</ele><time>2026-04-12T05:21:14Z</time></trkpt><trkpt lat="45.56556283732276" lon="9.04475463658224"><ele>169.0</ele><time>2026-04-12T05:21:15Z</time></trkpt><trkpt lat="45.565720735030716" lon="9.044756985644943"><ele>170.0</ele><time>2026-04-12T05:21:16Z</time></trkpt><trkpt lat="45.56587463056613" lon="9.044757055668843"><ele>171.0</ele><time>2026-04-12T05:21:17Z</time></trkpt><trkpt lat="45.56602885476608" lon="9.044758327605203"><ele>171.0</ele><time>2026-04-12T05:21:18Z</time></trkpt><trkpt lat="45.566182028300894" lon="9.044761570845198"><ele>171.0</ele><time>2026-04-12T05:21:19Z</time></trkpt><trkpt lat="45.566333542389586" lon="9.044763295277404"><ele>171.0</ele><time>2026-04-12T05:21:20Z</time></trkpt><trkpt lat="45.5664841312156" lon="9.044766968882543"><ele>171.0</ele><time>2026-04-12T05:21:21Z</time></trkpt><trkpt lat="45.56663445657228" lon="9.044771962897727"><ele>171.0</ele><time>2026-04-12T05:21:22Z</time></trkpt><trkpt lat="45.56678290735081" lon="9.044772742190496"><ele>171.0</ele><time>2026-04-12T05:21:23Z</time></trkpt><trkpt lat="45.566933051551835" lon="9.044775669927509"><ele>171.0</ele><time>2026-04-12T05:21:24Z</time></trkpt><trkpt lat="45.56708085865872" lon="9.044776725531909"><ele>171.0</ele><time>2026-04-12T05:21:25Z</time></trkpt><trkpt lat="45.567224814357125" lon="9.044780614077325"><ele>171.0</ele><time>2026-04-12T05:21:26Z</time></trkpt><trkpt lat="45.56736993036865" lon="9.044784365924954"><ele>171.0</ele><time>2026-04-12T05:21:27Z</time></trkpt><trkpt lat="45.567511547455474" lon="9.044786432589191"><ele>171.0</ele><time>2026-04-12T05:21:28Z</time></trkpt><trkpt lat="45.567652176876635" lon="9.044788300276513"><ele>171.0</ele><time>2026-04-12T05:21:29Z</time></trkpt><trkpt lat="45.56779476481207" lon="9.044789919595424"><ele>171.0</ele><time>2026-04-12T05:21:30Z</time></trkpt><trkpt lat="45.56793846402195" lon="9.044793079866134"><ele>171.0</ele><time>2026-04-12T05:21:31Z</time></trkpt><trkpt lat="45.568076610976135" lon="9.044795602244324"><ele>171.0</ele><time>2026-04-12T05:21:32Z</time></trkpt><trkpt lat="45.56821426961531" lon="9.044797858891709"><ele>171.75</ele><time>2026-04-12T05:21:33Z</time></trkpt><trkpt lat="45.56835257071428" lon="9.044800323274666"><ele>172.5</ele><time>2026-04-12T05:21:34Z</time></trkpt><trkpt lat="45.568491192381316" lon="9.044804207259991"><ele>173.25</ele><time>2026-04-12T05:21:35Z</time></trkpt><trkpt lat="45.568627107331665" lon="9.04481698196585"><ele>174.0</ele><time>2026-04-12T05:21:36Z</time></trkpt><trkpt lat="45.568765458175015" lon="9.044832696052673"><ele>174.0</ele><time>2026-04-12T05:21:37Z</time></trkpt><trkpt lat="45.56890235375963" lon="9.044847906652617"><ele>174.0</ele><time>2026-04-12T05:21:38Z</time></trkpt><trkpt lat="45.56904194701786" lon="9.044866331382282"><ele>174.0</ele><time>2026-04-12T05:21:38.999Z</time></trkpt><trkpt lat="45.569180742139984" lon="9.04488725102055"><ele>174.0</ele><time>2026-04-12T05:21:39.999Z</time></trkpt><trkpt lat="45.569319060665435" lon="9.044911276221393"><ele>174.0</ele><time>2026-04-12T05:21:40.999Z</time></trkpt><trkpt lat="45.569456912433964" lon="9.044939669036145"><ele>174.0</ele><time>2026-04-12T05:21:41.999Z</time></trkpt><trkpt lat="45.56959483680246" lon="9.044972554856528"><ele>174.0</ele><time>2026-04-12T05:21:42.999Z</time></trkpt><trkpt lat="45.56973411040392" lon="9.045011258869375"><ele>174.0</ele><time>2026-04-12T05:21:43.999Z</time></trkpt><trkpt lat="45.56987187273456" lon="9.045051707416704"><ele>174.0</ele><time>2026-04-12T05:21:44.999Z</time></trkpt><trkpt lat="45.570011521247366" lon="9.04509761326732"><ele>174.0</ele><time>2026-04-12T05:21:45.999Z</time></trkpt><trkpt lat="45.570149839610814" lon="9.045146836231215"><ele>174.0</ele><time>2026-04-12T05:21:46.999Z</time></trkpt><trkpt lat="45.57028965722799" lon="9.045200089360002"><ele>174.0</ele><time>2026-04-12T05:21:47.999Z</time></trkpt><trkpt lat="45.57043021406813" lon="9.045257069169221"><ele>174.5</ele><time>2026-04-12T05:21:48.999Z</time></trkpt><trkpt lat="45.570565729473756" lon="9.045317815004324"><ele>175.0</ele><time>2026-04-12T05:21:49.999Z</time></trkpt><trkpt lat="45.570701131255866" lon="9.045380784309291"><ele>175.5</ele><time>2026-04-12T05:21:50.999Z</time></trkpt><trkpt lat="45.57083768165905" lon="9.045446120649439"><ele>176.0</ele><time>2026-04-12T05:21:51.999Z</time></trkpt><trkpt lat="45.57097028199101" lon="9.045514031924498"><ele>176.0</ele><time>2026-04-12T05:21:52.999Z</time></trkpt><trkpt lat="45.57110147056998" lon="9.045582828916105"><ele>176.0</ele><time>2026-04-12T05:21:53.999Z</time></trkpt><trkpt lat="45.57123102008315" lon="9.04565139279092"><ele>176.0</ele><time>2026-04-12T05:21:54.999Z</time></trkpt><trkpt lat="45.57136038540559" lon="9.045719473735572"><ele>176.0</ele><time>2026-04-12T05:21:55.999Z</time></trkpt><trkpt lat="45.57148807694519" lon="9.045790677438081"><ele>176.0</ele><time>2026-04-12T05:21:56.999Z</time></trkpt><trkpt lat="45.57162143804325" lon="9.04586721359396"><ele>176.0</ele><time>2026-04-12T05:21:57.999Z</time></trkpt><trkpt lat="45.571753681942425" lon="9.045940642388786"><ele>176.0</ele><time>2026-04-12T05:21:58.999Z</time></trkpt><trkpt lat="45.57188698743276" lon="9.04601721858889"><ele>176.0</ele><time>2026-04-12T05:21:59.999Z</time></trkpt><trkpt lat="45.57202604054325" lon="9.046090699307312"><ele>176.0</ele><time>2026-04-12T05:22:00.999Z</time></trkpt><trkpt lat="45.572162003029845" lon="9.046167402283515"><ele>176.0</ele><time>2026-04-12T05:22:01.999Z</time></trkpt><trkpt lat="45.57229824291252" lon="9.046245332347883"><ele>176.0</ele><time>2026-04-12T05:22:02.999Z</time></trkpt><trkpt lat="45.57242723771721" lon="9.04631423277156"><ele>176.0</ele><time>2026-04-12T05:22:03.999Z</time></trkpt><trkpt lat="45.572547936638" lon="9.046380368759545"><ele>176.0</ele><time>2026-04-12T05:22:04.999Z</time></trkpt><trkpt lat="45.57266817797123" lon="9.046445380689306"><ele>176.0</ele><time>2026-04-12T05:22:05.999Z</time></trkpt><trkpt lat="45.57278430095922" lon="9.046508769730686"><ele>176.0</ele><time>2026-04-12T05:22:06.999Z</time></trkpt><trkpt lat="45.57290231903243" lon="9.046571120488855"><ele>176.0</ele><time>2026-04-12T05:22:07.999Z</time></trkpt><trkpt lat="45.57301932287842" lon="9.046635695768623"><ele>175.5</ele><time>2026-04-12T05:22:08.999Z</time></trkpt><trkpt lat="45.57313411770594" lon="9.046700933154105"><ele>175.0</ele><time>2026-04-12T05:22:09.999Z</time></trkpt><trkpt lat="45.57325001065759" lon="9.0467670562982"><ele>174.5</ele><time>2026-04-12T05:22:10.999Z</time></trkpt><trkpt lat="45.57336213053389" lon="9.046831981788806"><ele>174.0</ele><time>2026-04-12T05:22:11.999Z</time></trkpt><trkpt lat="45.57346791583743" lon="9.04689622317549"><ele>174.0</ele><time>2026-04-12T05:22:12.999Z</time></trkpt><trkpt lat="45.57356503130821" lon="9.046953627141571"><ele>174.0</ele><time>2026-04-12T05:22:13.999Z</time></trkpt><trkpt lat="45.573655271017465" lon="9.047007658643086"><ele>174.0</ele><time>2026-04-12T05:22:14.999Z</time></trkpt><trkpt lat="45.57373493736837" lon="9.04705890485168"><ele>174.0</ele><time>2026-04-12T05:22:15.999Z</time></trkpt><trkpt lat="45.57380874690672" lon="9.047122172466901"><ele>174.0</ele><time>2026-04-12T05:22:16.999Z</time></trkpt><trkpt lat="45.573872082287544" lon="9.04719763338922"><ele>174.2</ele><time>2026-04-12T05:22:17.999Z</time></trkpt><trkpt lat="45.57392925090397" lon="9.047288994545072"><ele>174.39999999999998</ele><time>2026-04-12T05:22:18.999Z</time></trkpt><trkpt lat="45.573986594781566" lon="9.047381627712813"><ele>174.6</ele><time>2026-04-12T05:22:19.999Z</time></trkpt><trkpt lat="45.57406339955488" lon="9.04745064168018"><ele>174.8</ele><time>2026-04-12T05:22:20.999Z</time></trkpt><trkpt lat="45.574154799829415" lon="9.047481477277135"><ele>175.0</ele><time>2026-04-12T05:22:21.999Z</time></trkpt><trkpt lat="45.57425435625296" lon="9.047450681591998"><ele>175.0</ele><time>2026-04-12T05:22:22.999Z</time></trkpt><trkpt lat="45.57435300301792" lon="9.047416129128345"><ele>175.0</ele><time>2026-04-12T05:22:23.999Z</time></trkpt><trkpt lat="45.57445729095401" lon="9.047436473748244"><ele>175.0</ele><time>2026-04-12T05:22:24.999Z</time></trkpt><trkpt lat="45.574555024762745" lon="9.04746839711394"><ele>175.0</ele><time>2026-04-12T05:22:25.999Z</time></trkpt><trkpt lat="45.574630284366016" lon="9.047631644809156"><ele>175.0</ele><time>2026-04-12T05:22:26.999Z</time></trkpt><trkpt lat="45.57470906795569" lon="9.04775564024934"><ele>175.25</ele><time>2026-04-12T05:22:27.999Z</time></trkpt><trkpt lat="45.574785365204654" lon="9.047884293347344"><ele>175.5</ele><time>2026-04-12T05:22:28.999Z</time></trkpt><trkpt lat="45.57486179455685" lon="9.048027237617468"><ele>175.75</ele><time>2026-04-12T05:22:29.999Z</time></trkpt><trkpt lat="45.57492729002846" lon="9.048188935916965"><ele>176.0</ele><time>2026-04-12T05:22:31Z</time></trkpt><trkpt lat="45.57498396689343" lon="9.048370919090736"><ele>176.0</ele><time>2026-04-12T05:22:32Z</time></trkpt><trkpt lat="45.5750410262772" lon="9.048561311028768"><ele>176.0</ele><time>2026-04-12T05:22:33Z</time></trkpt><trkpt lat="45.575095749563026" lon="9.048756817552405"><ele>176.0</ele><time>2026-04-12T05:22:34Z</time></trkpt><trkpt lat="45.57515117877809" lon="9.048957879321055"><ele>176.0</ele><time>2026-04-12T05:22:35Z</time></trkpt><trkpt lat="45.57520418399616" lon="9.04915463479754"><ele>175.25</ele><time>2026-04-12T05:22:36Z</time></trkpt><trkpt lat="45.57526123208458" lon="9.04935246376768"><ele>174.5</ele><time>2026-04-12T05:22:37Z</time></trkpt><trkpt lat="45.575315006092175" lon="9.049545263779892"><ele>173.75</ele><time>2026-04-12T05:22:38Z</time></trkpt><trkpt lat="45.57537029313852" lon="9.049739678387462"><ele>173.0</ele><time>2026-04-12T05:22:39Z</time></trkpt><trkpt lat="45.57542762434811" lon="9.049934981066698"><ele>174.0</ele><time>2026-04-12T05:22:40Z</time></trkpt><trkpt lat="45.57548714776434" lon="9.050127570592924"><ele>175.0</ele><time>2026-04-12T05:22:41Z</time></trkpt><trkpt lat="45.57554663520823" lon="9.05031799882632"><ele>176.0</ele><time>2026-04-12T05:22:42Z</time></trkpt><trkpt lat="45.57561301326229" lon="9.050505669226089"><ele>177.0</ele><time>2026-04-12T05:22:43Z</time></trkpt><trkpt lat="45.575686334082604" lon="9.05068642317296"><ele>176.75</ele><time>2026-04-12T05:22:44Z</time></trkpt><trkpt lat="45.575767026066714" lon="9.050856725897567"><ele>176.5</ele><time>2026-04-12T05:22:45Z</time></trkpt><trkpt lat="45.57585577280783" lon="9.051017519072971"><ele>176.25</ele><time>2026-04-12T05:22:46Z</time></trkpt><trkpt lat="45.575952193085136" lon="9.05116338472219"><ele>176.0</ele><time>2026-04-12T05:22:47Z</time></trkpt><trkpt lat="45.57605038239317" lon="9.051297768379367"><ele>176.0</ele><time>2026-04-12T05:22:48Z</time></trkpt><trkpt lat="45.576159124291614" lon="9.051421101324003"><ele>176.0</ele><time>2026-04-12T05:22:49Z</time></trkpt><trkpt lat="45.5762714433288" lon="9.051528074886056"><ele>176.0</ele><time>2026-04-12T05:22:50Z</time></trkpt><trkpt lat="45.57638478526759" lon="9.051620115957752"><ele>176.0</ele><time>2026-04-12T05:22:51Z</time></trkpt><trkpt lat="45.57649331266238" lon="9.051702645164227"><ele>176.8</ele><time>2026-04-12T05:22:52Z</time></trkpt><trkpt lat="45.57659971134985" lon="9.051779835190837"><ele>177.60000000000002</ele><time>2026-04-12T05:22:53Z</time></trkpt><trkpt lat="45.57670248957512" lon="9.051856318928602"><ele>178.4</ele><time>2026-04-12T05:22:54Z</time></trkpt><trkpt lat="45.576796065763084" lon="9.051925505977268"><ele>179.2</ele><time>2026-04-12T05:22:55Z</time></trkpt><trkpt lat="45.576878552941174" lon="9.051984158212871"><ele>180.0</ele><time>2026-04-12T05:22:56Z</time></trkpt><trkpt lat="45.576945649213776" lon="9.052036173426297"><ele>180.0</ele><time>2026-04-12T05:22:57Z</time></trkpt><trkpt lat="45.577010556823524" lon="9.052089013023581"><ele>180.0</ele><time>2026-04-12T05:22:58Z</time></trkpt><trkpt lat="45.57707071413578" lon="9.052152137092513"><ele>180.0</ele><time>2026-04-12T05:22:59Z</time></trkpt><trkpt lat="45.5771132242142" lon="9.052239701998117"><ele>180.0</ele><time>2026-04-12T05:23:00Z</time></trkpt><trkpt lat="45.5771624890814" lon="9.052315919676303"><ele>180.0</ele><time>2026-04-12T05:23:01Z</time></trkpt><trkpt lat="45.57717914960159" lon="9.052455462853143"><ele>180.0</ele><time>2026-04-12T05:23:02Z</time></trkpt><trkpt lat="45.577243189701846" lon="9.052553162869458"><ele>179.2</ele><time>2026-04-12T05:23:03Z</time></trkpt><trkpt lat="45.57732134714574" lon="9.052635396800738"><ele>178.4</ele><time>2026-04-12T05:23:04Z</time></trkpt><trkpt lat="45.57739693093422" lon="9.052735993975263"><ele>177.60000000000002</ele><time>2026-04-12T05:23:05Z</time></trkpt><trkpt lat="45.57745160143782" lon="9.05286862310278"><ele>176.8</ele><time>2026-04-12T05:23:06Z</time></trkpt><trkpt lat="45.577488545170816" lon="9.053012676312486"><ele>176.0</ele><time>2026-04-12T05:23:07Z</time></trkpt><trkpt lat="45.577519768888216" lon="9.053183324340681"><ele>176.25</ele><time>2026-04-12T05:23:08Z</time></trkpt><trkpt lat="45.5775569414257" lon="9.053349092727728"><ele>176.5</ele><time>2026-04-12T05:23:09Z</time></trkpt><trkpt lat="45.57759857001719" lon="9.053524241585771"><ele>176.75</ele><time>2026-04-12T05:23:10Z</time></trkpt><trkpt lat="45.57763422244948" lon="9.053701775129097"><ele>177.0</ele><time>2026-04-12T05:23:11Z</time></trkpt><trkpt lat="45.57767756948143" lon="9.053881070434214"><ele>177.0</ele><time>2026-04-12T05:23:12Z</time></trkpt><trkpt lat="45.577726211330024" lon="9.054061024604243"><ele>177.0</ele><time>2026-04-12T05:23:13Z</time></trkpt><trkpt lat="45.577775054498886" lon="9.054241775045455"><ele>177.0</ele><time>2026-04-12T05:23:14Z</time></trkpt><trkpt lat="45.577832221381" lon="9.054417806240144"><ele>177.0</ele><time>2026-04-12T05:23:15Z</time></trkpt><trkpt lat="45.57789466466569" lon="9.054586612428688"><ele>177.5</ele><time>2026-04-12T05:23:16Z</time></trkpt><trkpt lat="45.57796004813133" lon="9.054747799476655"><ele>178.0</ele><time>2026-04-12T05:23:17Z</time></trkpt><trkpt lat="45.578021689984304" lon="9.054894998783192"><ele>178.5</ele><time>2026-04-12T05:23:18Z</time></trkpt><trkpt lat="45.57807806018469" lon="9.055031590387111"><ele>179.0</ele><time>2026-04-12T05:23:19Z</time></trkpt><trkpt lat="45.578131489458734" lon="9.055177321949087"><ele>179.0</ele><time>2026-04-12T05:23:20Z</time></trkpt><trkpt lat="45.57818535977772" lon="9.055326285992665"><ele>179.0</ele><time>2026-04-12T05:23:21Z</time></trkpt><trkpt lat="45.57824705167804" lon="9.055480398414295"><ele>179.0</ele><time>2026-04-12T05:23:22Z</time></trkpt><trkpt lat="45.5783119117954" lon="9.055641660319765"><ele>179.0</ele><time>2026-04-12T05:23:23Z</time></trkpt><trkpt lat="45.57837697572046" lon="9.055809350748156"><ele>178.5</ele><time>2026-04-12T05:23:24Z</time></trkpt><trkpt lat="45.578444700369374" lon="9.055982221158738"><ele>178.0</ele><time>2026-04-12T05:23:25Z</time></trkpt><trkpt lat="45.5785193393259" lon="9.05615599277255"><ele>177.5</ele><time>2026-04-12T05:23:26Z</time></trkpt><trkpt lat="45.578589147960976" lon="9.056334645906666"><ele>177.0</ele><time>2026-04-12T05:23:27Z</time></trkpt><trkpt lat="45.57866218532125" lon="9.056514883572735"><ele>177.75</ele><time>2026-04-12T05:23:28Z</time></trkpt><trkpt lat="45.5787301270346" lon="9.056698907916106"><ele>178.5</ele><time>2026-04-12T05:23:29Z</time></trkpt><trkpt lat="45.578797201127344" lon="9.056887381980896"><ele>179.25</ele><time>2026-04-12T05:23:30Z</time></trkpt><trkpt lat="45.57886082738981" lon="9.05707399462799"><ele>180.0</ele><time>2026-04-12T05:23:31Z</time></trkpt><trkpt lat="45.57891854652334" lon="9.057253015360606"><ele>180.0</ele><time>2026-04-12T05:23:32Z</time></trkpt><trkpt lat="45.578974617401755" lon="9.057434241078393"><ele>180.0</ele><time>2026-04-12T05:23:33Z</time></trkpt><trkpt lat="45.579026347630105" lon="9.057606235060987"><ele>180.0</ele><time>2026-04-12T05:23:34Z</time></trkpt><trkpt lat="45.5790731013778" lon="9.057773480447624"><ele>180.0</ele><time>2026-04-12T05:23:35Z</time></trkpt><trkpt lat="45.57912044030528" lon="9.057939201394301"><ele>180.25</ele><time>2026-04-12T05:23:36Z</time></trkpt><trkpt lat="45.57916507019723" lon="9.058100565910133"><ele>180.5</ele><time>2026-04-12T05:23:37Z</time></trkpt><trkpt lat="45.57920332337254" lon="9.058261383049006"><ele>180.75</ele><time>2026-04-12T05:23:38Z</time></trkpt><trkpt lat="45.57924336626994" lon="9.05842093356594"><ele>181.0</ele><time>2026-04-12T05:23:39Z</time></trkpt><trkpt lat="45.579283569275844" lon="9.05858614009798"><ele>182.0</ele><time>2026-04-12T05:23:40Z</time></trkpt><trkpt lat="45.5793227586313" lon="9.058764562095323"><ele>183.0</ele><time>2026-04-12T05:23:41Z</time></trkpt><trkpt lat="45.57936190335421" lon="9.058941070070476"><ele>184.0</ele><time>2026-04-12T05:23:42Z</time></trkpt><trkpt lat="45.579405139745056" lon="9.059124950140841"><ele>185.0</ele><time>2026-04-12T05:23:43Z</time></trkpt><trkpt lat="45.57944933234784" lon="9.059309617381757"><ele>185.0</ele><time>2026-04-12T05:23:43.999Z</time></trkpt><trkpt lat="45.57949588988508" lon="9.059499560523648"><ele>185.0</ele><time>2026-04-12T05:23:44.999Z</time></trkpt><trkpt lat="45.57954299009674" lon="9.059690671809598"><ele>185.0</ele><time>2026-04-12T05:23:45.999Z</time></trkpt><trkpt lat="45.57958992644155" lon="9.059884485886583"><ele>185.0</ele><time>2026-04-12T05:23:46.999Z</time></trkpt><trkpt lat="45.57964088815727" lon="9.060069221394613"><ele>184.75</ele><time>2026-04-12T05:23:47.999Z</time></trkpt><trkpt lat="45.57968690939062" lon="9.060249991796349"><ele>184.5</ele><time>2026-04-12T05:23:48.999Z</time></trkpt><trkpt lat="45.5797335087586" lon="9.0604259706115"><ele>184.25</ele><time>2026-04-12T05:23:49.999Z</time></trkpt><trkpt lat="45.57977795769573" lon="9.06059296751512"><ele>184.0</ele><time>2026-04-12T05:23:50.999Z</time></trkpt><trkpt lat="45.57981832658854" lon="9.060748768353372"><ele>183.79999999999998</ele><time>2026-04-12T05:23:51.999Z</time></trkpt><trkpt lat="45.579856092575234" lon="9.060893563651808"><ele>183.6</ele><time>2026-04-12T05:23:52.999Z</time></trkpt><trkpt lat="45.57988766817181" lon="9.061023986495426"><ele>183.4</ele><time>2026-04-12T05:23:53.999Z</time></trkpt><trkpt lat="45.579916671344776" lon="9.061134536363268"><ele>183.2</ele><time>2026-04-12T05:23:54.999Z</time></trkpt><trkpt lat="45.57994139439556" lon="9.061253425621103"><ele>183.0</ele><time>2026-04-12T05:23:56.999Z</time></trkpt><trkpt lat="45.5799483824525" lon="9.061395859946613"><ele>183.0</ele><time>2026-04-12T05:23:59.999Z</time></trkpt><trkpt lat="45.57989576149966" lon="9.061558818384093"><ele>183.0</ele><time>2026-04-12T05:24:01.999Z</time></trkpt><trkpt lat="45.579858718160665" lon="9.061657640884677"><ele>183.0</ele><time>2026-04-12T05:24:02.999Z</time></trkpt><trkpt lat="45.5798382984261" lon="9.061774308337691"><ele>183.0</ele><time>2026-04-12T05:24:03.999Z</time></trkpt><trkpt lat="45.57981980790147" lon="9.06190640599215"><ele>183.0</ele><time>2026-04-12T05:24:04.999Z</time></trkpt><trkpt lat="45.579804560984506" lon="9.062030171368452"><ele>182.75</ele><time>2026-04-12T05:24:05.999Z</time></trkpt><trkpt lat="45.57970823373474" lon="9.062155677899772"><ele>182.5</ele><time>2026-04-12T05:24:06.999Z</time></trkpt><trkpt lat="45.57962551994452" lon="9.062262080848502"><ele>182.25</ele><time>2026-04-12T05:24:07.999Z</time></trkpt><trkpt lat="45.57951639393801" lon="9.06235079540243"><ele>182.0</ele><time>2026-04-12T05:24:08.999Z</time></trkpt><trkpt lat="45.579407208894125" lon="9.062460220155218"><ele>182.0</ele><time>2026-04-12T05:24:09.999Z</time></trkpt><trkpt lat="45.579293307534975" lon="9.062572929469939"><ele>182.0</ele><time>2026-04-12T05:24:10.999Z</time></trkpt><trkpt lat="45.57918029348941" lon="9.062691614130808"><ele>182.0</ele><time>2026-04-12T05:24:11.999Z</time></trkpt><trkpt lat="45.57905824805552" lon="9.062810875924287"><ele>182.0</ele><time>2026-04-12T05:24:12.999Z</time></trkpt><trkpt lat="45.5789351716909" lon="9.062934732755444"><ele>182.0</ele><time>2026-04-12T05:24:13.999Z</time></trkpt><trkpt lat="45.578808614497575" lon="9.063062985486615"><ele>182.0</ele><time>2026-04-12T05:24:14.999Z</time></trkpt><trkpt lat="45.578676340417665" lon="9.063193353744657"><ele>182.0</ele><time>2026-04-12T05:24:15.999Z</time></trkpt><trkpt lat="45.57854436796479" lon="9.063321829790056"><ele>182.33333333333331</ele><time>2026-04-12T05:24:16.999Z</time></trkpt><trkpt lat="45.578412748660625" lon="9.06344828232198"><ele>182.66666666666666</ele><time>2026-04-12T05:24:17.999Z</time></trkpt><trkpt lat="45.578280103441124" lon="9.063574645449663"><ele>183.0</ele><time>2026-04-12T05:24:18.999Z</time></trkpt><trkpt lat="45.578147948803284" lon="9.063698715743092"><ele>183.0</ele><time>2026-04-12T05:24:19.999Z</time></trkpt><trkpt lat="45.578018956529604" lon="9.0638251907742"><ele>183.0</ele><time>2026-04-12T05:24:20.999Z</time></trkpt><trkpt lat="45.57789204595869" lon="9.063955330482285"><ele>183.0</ele><time>2026-04-12T05:24:21.999Z</time></trkpt><trkpt lat="45.577772381262236" lon="9.064080012308636"><ele>183.0</ele><time>2026-04-12T05:24:22.999Z</time></trkpt><trkpt lat="45.57765820215221" lon="9.064198290564672"><ele>183.0</ele><time>2026-04-12T05:24:23.999Z</time></trkpt><trkpt lat="45.57754277317176" lon="9.064312985797875"><ele>183.0</ele><time>2026-04-12T05:24:24.999Z</time></trkpt><trkpt lat="45.5774307767476" lon="9.064423125159042"><ele>183.0</ele><time>2026-04-12T05:24:25.999Z</time></trkpt><trkpt lat="45.57732237716558" lon="9.064527308138313"><ele>183.0</ele><time>2026-04-12T05:24:26.999Z</time></trkpt><trkpt lat="45.57721804132028" lon="9.064630013048623"><ele>183.0</ele><time>2026-04-12T05:24:27.999Z</time></trkpt><trkpt lat="45.577119781640405" lon="9.064724619597426"><ele>183.0</ele><time>2026-04-12T05:24:28.999Z</time></trkpt><trkpt lat="45.57703079050476" lon="9.064812662667867"><ele>183.0</ele><time>2026-04-12T05:24:29.999Z</time></trkpt><trkpt lat="45.57694656358086" lon="9.064892327194665"><ele>183.0</ele><time>2026-04-12T05:24:30.999Z</time></trkpt><trkpt lat="45.57687367307826" lon="9.064966225994947"><ele>183.0</ele><time>2026-04-12T05:24:31.999Z</time></trkpt><trkpt lat="45.57681054784469" lon="9.065027553072017"><ele>183.0</ele><time>2026-04-12T05:24:32.999Z</time></trkpt><trkpt lat="45.576754135159234" lon="9.065076135962448"><ele>183.0</ele><time>2026-04-12T05:24:33.999Z</time></trkpt><trkpt lat="45.576687225103164" lon="9.06510131722948"><ele>183.0</ele><time>2026-04-12T05:24:34.999Z</time></trkpt><trkpt lat="45.57661207789287" lon="9.06510081092206"><ele>183.0</ele><time>2026-04-12T05:24:35.999Z</time></trkpt><trkpt lat="45.57653560961119" lon="9.065077272241053"><ele>183.0</ele><time>2026-04-12T05:24:37Z</time></trkpt><trkpt lat="45.576459272206925" lon="9.065076111146068"><ele>183.0</ele><time>2026-04-12T05:24:38Z</time></trkpt><trkpt lat="45.576391383361035" lon="9.065123955343916"><ele>183.0</ele><time>2026-04-12T05:24:39Z</time></trkpt><trkpt lat="45.576338620270654" lon="9.065200627552152"><ele>183.0</ele><time>2026-04-12T05:24:40Z</time></trkpt><trkpt lat="45.576322215884716" lon="9.065308578966336"><ele>183.0</ele><time>2026-04-12T05:24:41Z</time></trkpt><trkpt lat="45.57635120889069" lon="9.065417289579397"><ele>183.0</ele><time>2026-04-12T05:24:42Z</time></trkpt><trkpt lat="45.57629679224798" lon="9.065533345528484"><ele>183.0</ele><time>2026-04-12T05:24:43Z</time></trkpt><trkpt lat="45.57623319272862" lon="9.065616123511745"><ele>183.0</ele><time>2026-04-12T05:24:44Z</time></trkpt><trkpt lat="45.576153161853945" lon="9.065687891917507"><ele>183.0</ele><time>2026-04-12T05:24:45Z</time></trkpt><trkpt lat="45.576071081999615" lon="9.065766401643803"><ele>183.0</ele><time>2026-04-12T05:24:46Z</time></trkpt><trkpt lat="45.57598082001253" lon="9.065854287835062"><ele>183.0</ele><time>2026-04-12T05:24:47Z</time></trkpt><trkpt lat="45.57588510760437" lon="9.06595074854333"><ele>182.75</ele><time>2026-04-12T05:24:48Z</time></trkpt><trkpt lat="45.57578238635309" lon="9.066053127688466"><ele>182.5</ele><time>2026-04-12T05:24:49Z</time></trkpt><trkpt lat="45.575672406127865" lon="9.066159934359598"><ele>182.25</ele><time>2026-04-12T05:24:50Z</time></trkpt><trkpt lat="45.575559287457715" lon="9.066269842213183"><ele>182.0</ele><time>2026-04-12T05:24:51Z</time></trkpt><trkpt lat="45.5754434357436" lon="9.066377995209011"><ele>182.25</ele><time>2026-04-12T05:24:52Z</time></trkpt><trkpt lat="45.57532591730037" lon="9.066489433400736"><ele>182.5</ele><time>2026-04-12T05:24:53Z</time></trkpt><trkpt lat="45.57521141272366" lon="9.06660566429228"><ele>182.75</ele><time>2026-04-12T05:24:54Z</time></trkpt><trkpt lat="45.57509645557967" lon="9.066720726884315"><ele>183.0</ele><time>2026-04-12T05:24:55Z</time></trkpt><trkpt lat="45.574982374944966" lon="9.066834096919608"><ele>183.0</ele><time>2026-04-12T05:24:56Z</time></trkpt><trkpt lat="45.57486588876752" lon="9.06695090076793"><ele>183.0</ele><time>2026-04-12T05:24:57Z</time></trkpt><trkpt lat="45.57474424211178" lon="9.067072488424508"><ele>183.0</ele><time>2026-04-12T05:24:58Z</time></trkpt><trkpt lat="45.574621774006694" lon="9.06719938096909"><ele>183.0</ele><time>2026-04-12T05:24:59Z</time></trkpt><trkpt lat="45.57449508702746" lon="9.067325324469545"><ele>182.0</ele><time>2026-04-12T05:25:00Z</time></trkpt><trkpt lat="45.574365506323694" lon="9.067449002229381"><ele>181.0</ele><time>2026-04-12T05:25:01Z</time></trkpt><trkpt lat="45.574233885816845" lon="9.06757745146207"><ele>180.0</ele><time>2026-04-12T05:25:02Z</time></trkpt><trkpt lat="45.57410320788597" lon="9.067705688726743"><ele>180.0</ele><time>2026-04-12T05:25:03Z</time></trkpt><trkpt lat="45.57397485571521" lon="9.067833672409124"><ele>180.0</ele><time>2026-04-12T05:25:04Z</time></trkpt><trkpt lat="45.5738452094397" lon="9.06796456557711"><ele>180.0</ele><time>2026-04-12T05:25:05Z</time></trkpt><trkpt lat="45.57371507444977" lon="9.068094500674384"><ele>179.66666666666666</ele><time>2026-04-12T05:25:06Z</time></trkpt><trkpt lat="45.573585317310574" lon="9.068225163844811"><ele>179.33333333333331</ele><time>2026-04-12T05:25:07Z</time></trkpt><trkpt lat="45.57345231211833" lon="9.068353524332274"><ele>179.0</ele><time>2026-04-12T05:25:08Z</time></trkpt><trkpt lat="45.573318199010835" lon="9.068482394386704"><ele>179.0</ele><time>2026-04-12T05:25:09Z</time></trkpt><trkpt lat="45.573185462682915" lon="9.068613723492303"><ele>179.0</ele><time>2026-04-12T05:25:10Z</time></trkpt><trkpt lat="45.57305449609552" lon="9.068748501824928"><ele>179.0</ele><time>2026-04-12T05:25:11Z</time></trkpt><trkpt lat="45.57292409592972" lon="9.068873949730847"><ele>179.0</ele><time>2026-04-12T05:25:12Z</time></trkpt><trkpt lat="45.572793690546604" lon="9.069004974331088"><ele>179.0</ele><time>2026-04-12T05:25:13Z</time></trkpt><trkpt lat="45.57266515784337" lon="9.069137393978473"><ele>179.0</ele><time>2026-04-12T05:25:14Z</time></trkpt><trkpt lat="45.572541284835715" lon="9.069260807103035"><ele>179.5</ele><time>2026-04-12T05:25:15Z</time></trkpt><trkpt lat="45.572445060590866" lon="9.069352894653338"><ele>180.0</ele><time>2026-04-12T05:25:16Z</time></trkpt><trkpt lat="45.57235869266755" lon="9.069425735163666"><ele>180.5</ele><time>2026-04-12T05:25:17Z</time></trkpt><trkpt lat="45.572265060542406" lon="9.069516216258881"><ele>181.0</ele><time>2026-04-12T05:25:18Z</time></trkpt><trkpt lat="45.57216317687061" lon="9.069617538067526"><ele>181.0</ele><time>2026-04-12T05:25:19Z</time></trkpt><trkpt lat="45.572053447897424" lon="9.069727158843694"><ele>181.0</ele><time>2026-04-12T05:25:20Z</time></trkpt><trkpt lat="45.57193632055962" lon="9.069846749331266"><ele>181.0</ele><time>2026-04-12T05:25:21Z</time></trkpt><trkpt lat="45.57180876914048" lon="9.069970016237425"><ele>181.0</ele><time>2026-04-12T05:25:22Z</time></trkpt><trkpt lat="45.57168057725149" lon="9.07010482650473"><ele>179.66666666666669</ele><time>2026-04-12T05:25:23Z</time></trkpt><trkpt lat="45.57154676390975" lon="9.070228376306854"><ele>178.33333333333334</ele><time>2026-04-12T05:25:24Z</time></trkpt><trkpt lat="45.571413529747126" lon="9.070357101175627"><ele>177.0</ele><time>2026-04-12T05:25:25Z</time></trkpt><trkpt lat="45.57128097428228" lon="9.070487903185562"><ele>177.33333333333334</ele><time>2026-04-12T05:25:26Z</time></trkpt><trkpt lat="45.571151127246374" lon="9.070621847500105"><ele>177.66666666666669</ele><time>2026-04-12T05:25:27Z</time></trkpt><trkpt lat="45.57102491394368" lon="9.07075054141533"><ele>178.0</ele><time>2026-04-12T05:25:28Z</time></trkpt><trkpt lat="45.570897261190964" lon="9.070876707741355"><ele>177.0</ele><time>2026-04-12T05:25:29Z</time></trkpt><trkpt lat="45.57076697209909" lon="9.071010580440932"><ele>176.0</ele><time>2026-04-12T05:25:30Z</time></trkpt><trkpt lat="45.57063654993591" lon="9.07113835370718"><ele>175.0</ele><time>2026-04-12T05:25:31Z</time></trkpt><trkpt lat="45.57050319713339" lon="9.071262388867966"><ele>175.0</ele><time>2026-04-12T05:25:32Z</time></trkpt><trkpt lat="45.570372692656136" lon="9.071388549844412"><ele>175.0</ele><time>2026-04-12T05:25:33Z</time></trkpt><trkpt lat="45.57024860788118" lon="9.071514158669547"><ele>175.0</ele><time>2026-04-12T05:25:34Z</time></trkpt><trkpt lat="45.570128609635155" lon="9.071634396053403"><ele>175.75</ele><time>2026-04-12T05:25:35Z</time></trkpt><trkpt lat="45.57001004531679" lon="9.071754376548087"><ele>176.5</ele><time>2026-04-12T05:25:36Z</time></trkpt><trkpt lat="45.569891070647316" lon="9.071872449023456"><ele>177.25</ele><time>2026-04-12T05:25:37Z</time></trkpt><trkpt lat="45.56976923318835" lon="9.071992679420353"><ele>178.0</ele><time>2026-04-12T05:25:38Z</time></trkpt><trkpt lat="45.56964709697623" lon="9.072113468044819"><ele>178.0</ele><time>2026-04-12T05:25:38.999Z</time></trkpt><trkpt lat="45.56952614119202" lon="9.072238983445496"><ele>178.0</ele><time>2026-04-12T05:25:39.999Z</time></trkpt><trkpt lat="45.569403264248606" lon="9.072363399279295"><ele>178.0</ele><time>2026-04-12T05:25:40.999Z</time></trkpt><trkpt lat="45.56928241262483" lon="9.072486240729344"><ele>178.0</ele><time>2026-04-12T05:25:41.999Z</time></trkpt><trkpt lat="45.56915878410686" lon="9.072603172714192"><ele>177.5</ele><time>2026-04-12T05:25:42.999Z</time></trkpt><trkpt lat="45.56903687531999" lon="9.072719652964922"><ele>177.0</ele><time>2026-04-12T05:25:43.999Z</time></trkpt><trkpt lat="45.568916738798244" lon="9.072838761846631"><ele>176.5</ele><time>2026-04-12T05:25:44.999Z</time></trkpt><trkpt lat="45.56879718398077" lon="9.072958361271336"><ele>176.0</ele><time>2026-04-12T05:25:45.999Z</time></trkpt><trkpt lat="45.568675969362346" lon="9.073083478567455"><ele>176.0</ele><time>2026-04-12T05:25:46.999Z</time></trkpt><trkpt lat="45.56855528375143" lon="9.073203347033205"><ele>176.0</ele><time>2026-04-12T05:25:47.999Z</time></trkpt><trkpt lat="45.56844064632211" lon="9.073329841703403"><ele>176.0</ele><time>2026-04-12T05:25:48.999Z</time></trkpt><trkpt lat="45.56831920524472" lon="9.073449317037461"><ele>176.0</ele><time>2026-04-12T05:25:49.999Z</time></trkpt><trkpt lat="45.56819514835893" lon="9.073571543500229"><ele>176.0</ele><time>2026-04-12T05:25:50.999Z</time></trkpt><trkpt lat="45.56807332416485" lon="9.073698661711587"><ele>176.0</ele><time>2026-04-12T05:25:51.999Z</time></trkpt><trkpt lat="45.567954132295725" lon="9.073826858824098"><ele>176.0</ele><time>2026-04-12T05:25:52.999Z</time></trkpt><trkpt lat="45.56783154962086" lon="9.073951476694948"><ele>176.0</ele><time>2026-04-12T05:25:53.999Z</time></trkpt><trkpt lat="45.56771115948749" lon="9.074075523442781"><ele>176.0</ele><time>2026-04-12T05:25:54.999Z</time></trkpt><trkpt lat="45.56759034452813" lon="9.07420144273227"><ele>176.0</ele><time>2026-04-12T05:25:55.999Z</time></trkpt><trkpt lat="45.56746872186533" lon="9.07432649585614"><ele>176.0</ele><time>2026-04-12T05:25:56.999Z</time></trkpt><trkpt lat="45.56735011494847" lon="9.074456031247998"><ele>175.5</ele><time>2026-04-12T05:25:57.999Z</time></trkpt><trkpt lat="45.56722613772676" lon="9.074576478957566"><ele>175.0</ele><time>2026-04-12T05:25:58.999Z</time></trkpt><trkpt lat="45.56710628553631" lon="9.074701686772476"><ele>174.5</ele><time>2026-04-12T05:25:59.999Z</time></trkpt><trkpt lat="45.56698604221424" lon="9.074819648450656"><ele>174.0</ele><time>2026-04-12T05:26:00.999Z</time></trkpt><trkpt lat="45.56686847519705" lon="9.074941678096717"><ele>174.0</ele><time>2026-04-12T05:26:01.999Z</time></trkpt><trkpt lat="45.56675095748616" lon="9.075059891098268"><ele>174.0</ele><time>2026-04-12T05:26:02.999Z</time></trkpt><trkpt lat="45.56663773272835" lon="9.075172875415932"><ele>174.0</ele><time>2026-04-12T05:26:03.999Z</time></trkpt><trkpt lat="45.566532804817534" lon="9.07528212180047"><ele>174.0</ele><time>2026-04-12T05:26:04.999Z</time></trkpt><trkpt lat="45.56643463296581" lon="9.075383829950084"><ele>174.0</ele><time>2026-04-12T05:26:05.999Z</time></trkpt><trkpt lat="45.56634867058981" lon="9.075469364655374"><ele>174.0</ele><time>2026-04-12T05:26:06.999Z</time></trkpt><trkpt lat="45.566270880616074" lon="9.075548032134368"><ele>174.0</ele><time>2026-04-12T05:26:07.999Z</time></trkpt><trkpt lat="45.56620060330166" lon="9.075621648108855"><ele>174.0</ele><time>2026-04-12T05:26:08.999Z</time></trkpt><trkpt lat="45.56613634844726" lon="9.075686287870498"><ele>174.0</ele><time>2026-04-12T05:26:09.999Z</time></trkpt><trkpt lat="45.566082215538366" lon="9.075741915266402"><ele>174.0</ele><time>2026-04-12T05:26:10.999Z</time></trkpt><trkpt lat="45.565980755806585" lon="9.075847163040036"><ele>174.0</ele><time>2026-04-12T05:26:12.999Z</time></trkpt><trkpt lat="45.56587031354531" lon="9.075948048467874"><ele>174.0</ele><time>2026-04-12T05:26:14.999Z</time></trkpt><trkpt lat="45.56580977581058" lon="9.076013180437233"><ele>174.0</ele><time>2026-04-12T05:26:15.999Z</time></trkpt><trkpt lat="45.56574259337656" lon="9.07608338144371"><ele>174.0</ele><time>2026-04-12T05:26:16.999Z</time></trkpt><trkpt lat="45.56567109224434" lon="9.07615795423339"><ele>174.0</ele><time>2026-04-12T05:26:17.999Z</time></trkpt><trkpt lat="45.565593109724226" lon="9.076236693061245"><ele>174.0</ele><time>2026-04-12T05:26:18.999Z</time></trkpt><trkpt lat="45.565511673002405" lon="9.07632135825713"><ele>174.0</ele><time>2026-04-12T05:26:19.999Z</time></trkpt><trkpt lat="45.565426563232755" lon="9.07640786340019"><ele>174.0</ele><time>2026-04-12T05:26:20.999Z</time></trkpt><trkpt lat="45.565340250681984" lon="9.076497066330537"><ele>174.0</ele><time>2026-04-12T05:26:21.999Z</time></trkpt><trkpt lat="45.565252382207376" lon="9.076585339428494"><ele>174.0</ele><time>2026-04-12T05:26:22.999Z</time></trkpt><trkpt lat="45.56516094443003" lon="9.076679254546407"><ele>173.75</ele><time>2026-04-12T05:26:23.999Z</time></trkpt><trkpt lat="45.56506752768258" lon="9.076772069967044"><ele>173.5</ele><time>2026-04-12T05:26:24.999Z</time></trkpt><trkpt lat="45.56497089311487" lon="9.076865840499455"><ele>173.25</ele><time>2026-04-12T05:26:25.999Z</time></trkpt><trkpt lat="45.56487572833777" lon="9.076968884324165"><ele>173.0</ele><time>2026-04-12T05:26:26.999Z</time></trkpt><trkpt lat="45.5647756347604" lon="9.0770681815306"><ele>173.0</ele><time>2026-04-12T05:26:27.999Z</time></trkpt><trkpt lat="45.564673915402636" lon="9.077168985707546"><ele>173.0</ele><time>2026-04-12T05:26:28.999Z</time></trkpt><trkpt lat="45.564571883069895" lon="9.07727095516546"><ele>173.0</ele><time>2026-04-12T05:26:29.999Z</time></trkpt><trkpt lat="45.56447291275351" lon="9.07737524256536"><ele>173.0</ele><time>2026-04-12T05:26:30.999Z</time></trkpt><trkpt lat="45.56437302500338" lon="9.077480819434678"><ele>173.25</ele><time>2026-04-12T05:26:31.999Z</time></trkpt><trkpt lat="45.56427589922415" lon="9.07759058067218"><ele>173.5</ele><time>2026-04-12T05:26:32.999Z</time></trkpt><trkpt lat="45.56417787985282" lon="9.077698766117894"><ele>173.75</ele><time>2026-04-12T05:26:33.999Z</time></trkpt><trkpt lat="45.56407825674099" lon="9.077806563436164"><ele>174.0</ele><time>2026-04-12T05:26:34.999Z</time></trkpt><trkpt lat="45.56397731261735" lon="9.077914018416866"><ele>174.0</ele><time>2026-04-12T05:26:35.999Z</time></trkpt><trkpt lat="45.56387484544361" lon="9.07802188525536"><ele>174.0</ele><time>2026-04-12T05:26:36.999Z</time></trkpt><trkpt lat="45.56377151948966" lon="9.078129363289879"><ele>174.0</ele><time>2026-04-12T05:26:37.999Z</time></trkpt><trkpt lat="45.563668532754036" lon="9.078238139536886"><ele>174.0</ele><time>2026-04-12T05:26:38.999Z</time></trkpt><trkpt lat="45.56356290963804" lon="9.078341541710495"><ele>174.2</ele><time>2026-04-12T05:26:39.999Z</time></trkpt><trkpt lat="45.5634599752202" lon="9.078439958844505"><ele>174.39999999999998</ele><time>2026-04-12T05:26:40.999Z</time></trkpt><trkpt lat="45.563370332594864" lon="9.07853216675634"><ele>174.6</ele><time>2026-04-12T05:26:41.999Z</time></trkpt><trkpt lat="45.56329369166281" lon="9.078605091110505"><ele>174.8</ele><time>2026-04-12T05:26:43Z</time></trkpt><trkpt lat="45.56322177933215" lon="9.07865585412083"><ele>175.0</ele><time>2026-04-12T05:26:44Z</time></trkpt><trkpt lat="45.56314832373514" lon="9.078666209914596"><ele>175.0</ele><time>2026-04-12T05:26:45Z</time></trkpt><trkpt lat="45.56307874871119" lon="9.078649883472158"><ele>175.0</ele><time>2026-04-12T05:26:46Z</time></trkpt><trkpt lat="45.56300325695549" lon="9.078628360273852"><ele>175.0</ele><time>2026-04-12T05:26:47Z</time></trkpt><trkpt lat="45.56292805605618" lon="9.078642374355482"><ele>175.0</ele><time>2026-04-12T05:26:48Z</time></trkpt><trkpt lat="45.56286390460742" lon="9.078697850936363"><ele>175.0</ele><time>2026-04-12T05:26:49Z</time></trkpt><trkpt lat="45.56281244474639" lon="9.0787797820837"><ele>175.0</ele><time>2026-04-12T05:26:50Z</time></trkpt><trkpt lat="45.562796428915775" lon="9.078887025653088"><ele>175.2</ele><time>2026-04-12T05:26:51Z</time></trkpt><trkpt lat="45.562822589858484" lon="9.079007666838304"><ele>175.4</ele><time>2026-04-12T05:26:52Z</time></trkpt><trkpt lat="45.56287642963413" lon="9.079105199115638"><ele>175.60000000000002</ele><time>2026-04-12T05:26:53Z</time></trkpt><trkpt lat="45.56294479175694" lon="9.079192193111865"><ele>175.8</ele><time>2026-04-12T05:26:54Z</time></trkpt><trkpt lat="45.563012963208635" lon="9.079301227391486"><ele>176.0</ele><time>2026-04-12T05:26:55Z</time></trkpt><trkpt lat="45.56306971235529" lon="9.07943600092015"><ele>174.5</ele><time>2026-04-12T05:26:56Z</time></trkpt><trkpt lat="45.563129055020994" lon="9.07958330332498"><ele>173.0</ele><time>2026-04-12T05:26:57Z</time></trkpt><trkpt lat="45.56319863737589" lon="9.07973855548986"><ele>171.5</ele><time>2026-04-12T05:26:58Z</time></trkpt><trkpt lat="45.56327801719921" lon="9.07990331732667"><ele>170.0</ele><time>2026-04-12T05:26:59Z</time></trkpt><trkpt lat="45.56336250967449" lon="9.080073055686697"><ele>170.0</ele><time>2026-04-12T05:27:00Z</time></trkpt><trkpt lat="45.56345094672618" lon="9.080245319181774"><ele>170.0</ele><time>2026-04-12T05:27:01Z</time></trkpt><trkpt lat="45.56354833714077" lon="9.080428131820161"><ele>170.0</ele><time>2026-04-12T05:27:02Z</time></trkpt><trkpt lat="45.56364534686192" lon="9.080613107278898"><ele>170.33333333333331</ele><time>2026-04-12T05:27:03Z</time></trkpt><trkpt lat="45.56374099807824" lon="9.080796896771638"><ele>170.66666666666666</ele><time>2026-04-12T05:27:04Z</time></trkpt><trkpt lat="45.56383364559905" lon="9.080984507900231"><ele>171.0</ele><time>2026-04-12T05:27:05Z</time></trkpt><trkpt lat="45.563930183271275" lon="9.081177363567127"><ele>171.0</ele><time>2026-04-12T05:27:06Z</time></trkpt><trkpt lat="45.56401909749158" lon="9.081345883309558"><ele>171.0</ele><time>2026-04-12T05:27:07Z</time></trkpt><trkpt lat="45.56410518274967" lon="9.08150550822103"><ele>171.0</ele><time>2026-04-12T05:27:08Z</time></trkpt><trkpt lat="45.564194803483865" lon="9.081669555730537"><ele>171.0</ele><time>2026-04-12T05:27:09Z</time></trkpt><trkpt lat="45.56428920773463" lon="9.081843211092137"><ele>170.66666666666666</ele><time>2026-04-12T05:27:10Z</time></trkpt><trkpt lat="45.56439152468457" lon="9.082013099988258"><ele>170.33333333333331</ele><time>2026-04-12T05:27:11Z</time></trkpt><trkpt lat="45.56449963771501" lon="9.082187653556677"><ele>170.0</ele><time>2026-04-12T05:27:12Z</time></trkpt><trkpt lat="45.56462629497881" lon="9.082345101406238"><ele>170.66666666666666</ele><time>2026-04-12T05:27:13Z</time></trkpt><trkpt lat="45.564715637054306" lon="9.082571912107396"><ele>171.33333333333334</ele><time>2026-04-12T05:27:14Z</time></trkpt><trkpt lat="45.564825737456886" lon="9.082775819942146"><ele>172.0</ele><time>2026-04-12T05:27:15Z</time></trkpt><trkpt lat="45.564931874269604" lon="9.08298817756035"><ele>172.0</ele><time>2026-04-12T05:27:16Z</time></trkpt><trkpt lat="45.56503181243077" lon="9.08320945233937"><ele>172.0</ele><time>2026-04-12T05:27:17Z</time></trkpt><trkpt lat="45.56513995001155" lon="9.083436583339726"><ele>172.0</ele><time>2026-04-12T05:27:18Z</time></trkpt><trkpt lat="45.565228677039016" lon="9.083667595874676"><ele>171.33333333333334</ele><time>2026-04-12T05:27:19Z</time></trkpt><trkpt lat="45.56532687671425" lon="9.083902441196917"><ele>170.66666666666666</ele><time>2026-04-12T05:27:20Z</time></trkpt><trkpt lat="45.56541898278471" lon="9.084127341514346"><ele>170.0</ele><time>2026-04-12T05:27:21Z</time></trkpt><trkpt lat="45.565514864731036" lon="9.084342913224797"><ele>170.0</ele><time>2026-04-12T05:27:22Z</time></trkpt><trkpt lat="45.56559883210942" lon="9.084537915143107"><ele>170.0</ele><time>2026-04-12T05:27:23Z</time></trkpt><trkpt lat="45.56567981842002" lon="9.084718839325502"><ele>170.0</ele><time>2026-04-12T05:27:24Z</time></trkpt><trkpt lat="45.56574888733579" lon="9.0848874865589"><ele>170.0</ele><time>2026-04-12T05:27:25Z</time></trkpt><trkpt lat="45.56579378727462" lon="9.085050350005236"><ele>170.5</ele><time>2026-04-12T05:27:26Z</time></trkpt><trkpt lat="45.56581840181528" lon="9.085212003383608"><ele>171.0</ele><time>2026-04-12T05:27:27Z</time></trkpt><trkpt lat="45.56582920516873" lon="9.085369446873711"><ele>171.5</ele><time>2026-04-12T05:27:28Z</time></trkpt><trkpt lat="45.565838861846" lon="9.08552372223108"><ele>172.0</ele><time>2026-04-12T05:27:29Z</time></trkpt><trkpt lat="45.565878871698075" lon="9.085677262688252"><ele>171.5</ele><time>2026-04-12T05:27:30Z</time></trkpt><trkpt lat="45.565953378525016" lon="9.085802694041071"><ele>171.0</ele><time>2026-04-12T05:27:31Z</time></trkpt><trkpt lat="45.56606450308749" lon="9.085885715086643"><ele>170.5</ele><time>2026-04-12T05:27:32Z</time></trkpt><trkpt lat="45.56618940782048" lon="9.085937849072659"><ele>170.0</ele><time>2026-04-12T05:27:33Z</time></trkpt><trkpt lat="45.56632316967476" lon="9.086003476078002"><ele>170.0</ele><time>2026-04-12T05:27:34Z</time></trkpt><trkpt lat="45.56645565643376" lon="9.086088551125998"><ele>170.0</ele><time>2026-04-12T05:27:35Z</time></trkpt><trkpt lat="45.56659486820831" lon="9.08619384016892"><ele>170.0</ele><time>2026-04-12T05:27:36Z</time></trkpt><trkpt lat="45.56673665973031" lon="9.086315553287537"><ele>170.0</ele><time>2026-04-12T05:27:37Z</time></trkpt><trkpt lat="45.56688252613333" lon="9.086451735279075"><ele>170.0</ele><time>2026-04-12T05:27:38Z</time></trkpt><trkpt lat="45.56702910844849" lon="9.086601493262286"><ele>170.0</ele><time>2026-04-12T05:27:39Z</time></trkpt><trkpt lat="45.56718032211646" lon="9.086763194708585"><ele>170.0</ele><time>2026-04-12T05:27:40Z</time></trkpt><trkpt lat="45.56733330747548" lon="9.086932208848314"><ele>170.0</ele><time>2026-04-12T05:27:41Z</time></trkpt><trkpt lat="45.56749373276645" lon="9.087102101004685"><ele>170.0</ele><time>2026-04-12T05:27:42Z</time></trkpt><trkpt lat="45.56765642551688" lon="9.087274649249157"><ele>169.66666666666666</ele><time>2026-04-12T05:27:43Z</time></trkpt><trkpt lat="45.56781749661138" lon="9.087446774609962"><ele>169.33333333333334</ele><time>2026-04-12T05:27:44Z</time></trkpt><trkpt lat="45.56797980945324" lon="9.087621712098652"><ele>169.0</ele><time>2026-04-12T05:27:45Z</time></trkpt><trkpt lat="45.56814519339724" lon="9.087797334922035"><ele>170.33333333333334</ele><time>2026-04-12T05:27:46Z</time></trkpt><trkpt lat="45.56830930493191" lon="9.087973968921037"><ele>171.66666666666666</ele><time>2026-04-12T05:27:47Z</time></trkpt><trkpt lat="45.5684749151988" lon="9.088151279221622"><ele>173.0</ele><time>2026-04-12T05:27:48Z</time></trkpt><trkpt lat="45.56864076464493" lon="9.088327804447633"><ele>173.66666666666666</ele><time>2026-04-12T05:27:49Z</time></trkpt><trkpt lat="45.568804273654976" lon="9.088503303144394"><ele>174.33333333333334</ele><time>2026-04-12T05:27:50Z</time></trkpt><trkpt lat="45.568968490201385" lon="9.088679270892639"><ele>175.0</ele><time>2026-04-12T05:27:51Z</time></trkpt><trkpt lat="45.56913238751252" lon="9.088852450588321"><ele>175.0</ele><time>2026-04-12T05:27:52Z</time></trkpt><trkpt lat="45.56929306786012" lon="9.089026414182387"><ele>175.0</ele><time>2026-04-12T05:27:53Z</time></trkpt><trkpt lat="45.5694488251007" lon="9.089206980407468"><ele>175.0</ele><time>2026-04-12T05:27:53.999Z</time></trkpt><trkpt lat="45.569599705706146" lon="9.089400495692201"><ele>175.66666666666669</ele><time>2026-04-12T05:27:54.999Z</time></trkpt><trkpt lat="45.56974062355875" lon="9.08960011541535"><ele>176.33333333333334</ele><time>2026-04-12T05:27:55.999Z</time></trkpt><trkpt lat="45.569873470003834" lon="9.0898100612588"><ele>177.0</ele><time>2026-04-12T05:27:56.999Z</time></trkpt><trkpt lat="45.5699970865948" lon="9.090033534851521"><ele>177.33333333333334</ele><time>2026-04-12T05:27:57.999Z</time></trkpt><trkpt lat="45.57012082067175" lon="9.090256552583453"><ele>177.66666666666669</ele><time>2026-04-12T05:27:58.999Z</time></trkpt><trkpt lat="45.57024806750324" lon="9.090480439382883"><ele>178.0</ele><time>2026-04-12T05:27:59.999Z</time></trkpt><trkpt lat="45.57037553650926" lon="9.090705361075383"><ele>178.0</ele><time>2026-04-12T05:28:00.999Z</time></trkpt><trkpt lat="45.57050285622863" lon="9.090928251037784"><ele>178.0</ele><time>2026-04-12T05:28:01.999Z</time></trkpt><trkpt lat="45.57063166808585" lon="9.091151898464135"><ele>178.0</ele><time>2026-04-12T05:28:02.999Z</time></trkpt><trkpt lat="45.57075689653306" lon="9.09137196244971"><ele>178.0</ele><time>2026-04-12T05:28:03.999Z</time></trkpt><trkpt lat="45.570878638735984" lon="9.091589083186339"><ele>178.0</ele><time>2026-04-12T05:28:04.999Z</time></trkpt><trkpt lat="45.57100254505549" lon="9.091804330531764"><ele>178.0</ele><time>2026-04-12T05:28:05.999Z</time></trkpt><trkpt lat="45.571123576134276" lon="9.092015760199535"><ele>177.66666666666669</ele><time>2026-04-12T05:28:06.999Z</time></trkpt><trkpt lat="45.57124253854576" lon="9.092223114573914"><ele>177.33333333333334</ele><time>2026-04-12T05:28:07.999Z</time></trkpt><trkpt lat="45.571361394920146" lon="9.09242759518345"><ele>177.0</ele><time>2026-04-12T05:28:08.999Z</time></trkpt><trkpt lat="45.571480513543115" lon="9.092632168237891"><ele>177.0</ele><time>2026-04-12T05:28:09.999Z</time></trkpt><trkpt lat="45.571598442018974" lon="9.092836546087343"><ele>177.0</ele><time>2026-04-12T05:28:10.999Z</time></trkpt><trkpt lat="45.57171700877714" lon="9.093040474380144"><ele>177.0</ele><time>2026-04-12T05:28:11.999Z</time></trkpt><trkpt lat="45.57183418484535" lon="9.093234247932335"><ele>176.66666666666666</ele><time>2026-04-12T05:28:12.999Z</time></trkpt><trkpt lat="45.57194579752069" lon="9.09341906222446"><ele>176.33333333333331</ele><time>2026-04-12T05:28:13.999Z</time></trkpt><trkpt lat="45.57205122631603" lon="9.093591911353345"><ele>176.0</ele><time>2026-04-12T05:28:14.999Z</time></trkpt><trkpt lat="45.57214386242185" lon="9.093752626313767"><ele>175.75</ele><time>2026-04-12T05:28:15.999Z</time></trkpt><trkpt lat="45.57222380058665" lon="9.09390855963517"><ele>175.5</ele><time>2026-04-12T05:28:16.999Z</time></trkpt><trkpt lat="45.572282166053135" lon="9.094071842819616"><ele>175.25</ele><time>2026-04-12T05:28:17.999Z</time></trkpt><trkpt lat="45.57231318562264" lon="9.09424495706179"><ele>175.0</ele><time>2026-04-12T05:28:18.999Z</time></trkpt><trkpt lat="45.57232246857738" lon="9.094421362771005"><ele>175.0</ele><time>2026-04-12T05:28:19.999Z</time></trkpt><trkpt lat="45.57232269032621" lon="9.09458336627496"><ele>175.0</ele><time>2026-04-12T05:28:20.999Z</time></trkpt><trkpt lat="45.57233070978288" lon="9.094734003042605"><ele>175.0</ele><time>2026-04-12T05:28:21.999Z</time></trkpt><trkpt lat="45.572351240237516" lon="9.09487173662263"><ele>175.0</ele><time>2026-04-12T05:28:22.999Z</time></trkpt><trkpt lat="45.57242777474152" lon="9.094966826425795"><ele>175.0</ele><time>2026-04-12T05:28:23.999Z</time></trkpt><trkpt lat="45.57248785635662" lon="9.095062903298478"><ele>175.0</ele><time>2026-04-12T05:28:24.999Z</time></trkpt><trkpt lat="45.57261615468781" lon="9.09504316917807"><ele>175.0</ele><time>2026-04-12T05:28:25.999Z</time></trkpt><trkpt lat="45.57271523077865" lon="9.094998667703228"><ele>175.0</ele><time>2026-04-12T05:28:26.999Z</time></trkpt><trkpt lat="45.57279830265815" lon="9.094904613617654"><ele>175.0</ele><time>2026-04-12T05:28:27.999Z</time></trkpt><trkpt lat="45.57284052571269" lon="9.094762843809987"><ele>175.0</ele><time>2026-04-12T05:28:28.999Z</time></trkpt><trkpt lat="45.572915318588045" lon="9.09464162842768"><ele>174.75</ele><time>2026-04-12T05:28:29.999Z</time></trkpt><trkpt lat="45.57300859732914" lon="9.09454079436576"><ele>174.5</ele><time>2026-04-12T05:28:30.999Z</time></trkpt><trkpt lat="45.57311571061269" lon="9.094452486307219"><ele>174.25</ele><time>2026-04-12T05:28:31.999Z</time></trkpt><trkpt lat="45.57326075709857" lon="9.09445008040759"><ele>174.0</ele><time>2026-04-12T05:28:32.999Z</time></trkpt><trkpt lat="45.57340734208893" lon="9.094439743434931"><ele>174.0</ele><time>2026-04-12T05:28:33.999Z</time></trkpt><trkpt lat="45.57356061678335" lon="9.09442645318834"><ele>174.0</ele><time>2026-04-12T05:28:34.999Z</time></trkpt><trkpt lat="45.57372076707239" lon="9.094410950139011"><ele>174.0</ele><time>2026-04-12T05:28:35.999Z</time></trkpt><trkpt lat="45.57388476368329" lon="9.094390579436046"><ele>175.33333333333334</ele><time>2026-04-12T05:28:36.999Z</time></trkpt><trkpt lat="45.57405314932069" lon="9.09437207782193"><ele>176.66666666666669</ele><time>2026-04-12T05:28:37.999Z</time></trkpt><trkpt lat="45.57422232994262" lon="9.094352571661119"><ele>178.0</ele><time>2026-04-12T05:28:38.999Z</time></trkpt><trkpt lat="45.57438811109492" lon="9.094331719612413"><ele>178.0</ele><time>2026-04-12T05:28:39.999Z</time></trkpt><trkpt lat="45.574548427979835" lon="9.0943156038159"><ele>178.0</ele><time>2026-04-12T05:28:40.999Z</time></trkpt><trkpt lat="45.57469941384532" lon="9.094299105798825"><ele>178.0</ele><time>2026-04-12T05:28:41.999Z</time></trkpt><trkpt lat="45.57483006885587" lon="9.094284781623545"><ele>178.0</ele><time>2026-04-12T05:28:42.999Z</time></trkpt><trkpt lat="45.574946138053775" lon="9.09428224330066"><ele>178.0</ele><time>2026-04-12T05:28:43.999Z</time></trkpt><trkpt lat="45.575049634508154" lon="9.09430321197671"><ele>178.0</ele><time>2026-04-12T05:28:44.999Z</time></trkpt><trkpt lat="45.57514943341525" lon="9.094360358954091"><ele>178.0</ele><time>2026-04-12T05:28:45.999Z</time></trkpt><trkpt lat="45.57523971828827" lon="9.09442472899129"><ele>178.0</ele><time>2026-04-12T05:28:46.999Z</time></trkpt><trkpt lat="45.57533459218645" lon="9.094457815898583"><ele>178.0</ele><time>2026-04-12T05:28:47.999Z</time></trkpt><trkpt lat="45.57543111417555" lon="9.094427606410338"><ele>178.5</ele><time>2026-04-12T05:28:49Z</time></trkpt><trkpt lat="45.575517389491935" lon="9.094345836337922"><ele>179.0</ele><time>2026-04-12T05:28:50Z</time></trkpt><trkpt lat="45.57560266957263" lon="9.094244991379602"><ele>179.5</ele><time>2026-04-12T05:28:51Z</time></trkpt><trkpt lat="45.575710002554935" lon="9.094179344099912"><ele>180.0</ele><time>2026-04-12T05:28:52Z</time></trkpt><trkpt lat="45.575837314529835" lon="9.094158893057493"><ele>180.0</ele><time>2026-04-12T05:28:53Z</time></trkpt><trkpt lat="45.57597419571103" lon="9.094150244028912"><ele>180.0</ele><time>2026-04-12T05:28:54Z</time></trkpt><trkpt lat="45.57611879660348" lon="9.0941161071677"><ele>180.0</ele><time>2026-04-12T05:28:55Z</time></trkpt><trkpt lat="45.57626809156053" lon="9.094065424167935"><ele>180.0</ele><time>2026-04-12T05:28:56Z</time></trkpt><trkpt lat="45.57642260845966" lon="9.093996092001982"><ele>180.0</ele><time>2026-04-12T05:28:57Z</time></trkpt><trkpt lat="45.57657612028227" lon="9.093917681529172"><ele>180.0</ele><time>2026-04-12T05:28:58Z</time></trkpt><trkpt lat="45.57673194630085" lon="9.093813256051376"><ele>180.0</ele><time>2026-04-12T05:28:59Z</time></trkpt><trkpt lat="45.57688635710123" lon="9.093703364853326"><ele>180.33333333333334</ele><time>2026-04-12T05:29:00Z</time></trkpt><trkpt lat="45.57703879520428" lon="9.093568227181795"><ele>180.66666666666669</ele><time>2026-04-12T05:29:01Z</time></trkpt><trkpt lat="45.57718360118447" lon="9.093423021478216"><ele>181.0</ele><time>2026-04-12T05:29:02Z</time></trkpt><trkpt lat="45.57732254708498" lon="9.093261186102906"><ele>181.0</ele><time>2026-04-12T05:29:03Z</time></trkpt><trkpt lat="45.5774494319412" lon="9.093088610736753"><ele>181.0</ele><time>2026-04-12T05:29:04Z</time></trkpt><trkpt lat="45.577573726482754" lon="9.092908088398193"><ele>181.0</ele><time>2026-04-12T05:29:05Z</time></trkpt><trkpt lat="45.57770204794649" lon="9.092750984494161"><ele>181.0</ele><time>2026-04-12T05:29:06Z</time></trkpt><trkpt lat="45.57782289603719" lon="9.092591929707773"><ele>181.0</ele><time>2026-04-12T05:29:07Z</time></trkpt><trkpt lat="45.57794360915596" lon="9.092429446875515"><ele>181.0</ele><time>2026-04-12T05:29:08Z</time></trkpt><trkpt lat="45.57807995040864" lon="9.092304887679862"><ele>181.33333333333334</ele><time>2026-04-12T05:29:09Z</time></trkpt><trkpt lat="45.57822299301127" lon="9.092189702204857"><ele>181.66666666666666</ele><time>2026-04-12T05:29:10Z</time></trkpt><trkpt lat="45.57837175713045" lon="9.092098571048595"><ele>182.0</ele><time>2026-04-12T05:29:11Z</time></trkpt><trkpt lat="45.57854047911495" lon="9.092051257018475"><ele>184.0</ele><time>2026-04-12T05:29:12Z</time></trkpt><trkpt lat="45.57870808540288" lon="9.091993885598278"><ele>186.0</ele><time>2026-04-12T05:29:13Z</time></trkpt><trkpt lat="45.57888479077261" lon="9.09195726707745"><ele>188.0</ele><time>2026-04-12T05:29:14Z</time></trkpt><trkpt lat="45.57907845468127" lon="9.091908528179228"><ele>188.0</ele><time>2026-04-12T05:29:15Z</time></trkpt><trkpt lat="45.57925534022093" lon="9.091841867029697"><ele>188.0</ele><time>2026-04-12T05:29:16Z</time></trkpt><trkpt lat="45.57943484159111" lon="9.091799762243014"><ele>188.0</ele><time>2026-04-12T05:29:17Z</time></trkpt><trkpt lat="45.5796089249664" lon="9.091751178850446"><ele>189.0</ele><time>2026-04-12T05:29:18Z</time></trkpt><trkpt lat="45.57978229976834" lon="9.09172777873305"><ele>190.0</ele><time>2026-04-12T05:29:19Z</time></trkpt><trkpt lat="45.57995502292285" lon="9.091663062291028"><ele>191.0</ele><time>2026-04-12T05:29:20Z</time></trkpt><trkpt lat="45.5801256806758" lon="9.091621127290173"><ele>191.0</ele><time>2026-04-12T05:29:21Z</time></trkpt><trkpt lat="45.58030414998193" lon="9.09159653799472"><ele>191.0</ele><time>2026-04-12T05:29:22Z</time></trkpt><trkpt lat="45.580462310550764" lon="9.091554734070924"><ele>191.0</ele><time>2026-04-12T05:29:23Z</time></trkpt><trkpt lat="45.58060046994103" lon="9.09151900026809"><ele>190.4</ele><time>2026-04-12T05:29:24Z</time></trkpt><trkpt lat="45.58071642953726" lon="9.091497312983877"><ele>189.8</ele><time>2026-04-12T05:29:25Z</time></trkpt><trkpt lat="45.580823995926984" lon="9.091489613899453"><ele>189.20000000000002</ele><time>2026-04-12T05:29:26Z</time></trkpt><trkpt lat="45.58092280338782" lon="9.091485047650565"><ele>188.60000000000002</ele><time>2026-04-12T05:29:27Z</time></trkpt><trkpt lat="45.5809959644172" lon="9.091523520035498"><ele>188.0</ele><time>2026-04-12T05:29:28Z</time></trkpt><trkpt lat="45.58105986558598" lon="9.091583185215505"><ele>188.33333333333331</ele><time>2026-04-12T05:29:29Z</time></trkpt><trkpt lat="45.58110783303971" lon="9.091666549742756"><ele>188.66666666666666</ele><time>2026-04-12T05:29:30Z</time></trkpt><trkpt lat="45.581172288261826" lon="9.0917239800083"><ele>189.0</ele><time>2026-04-12T05:29:31Z</time></trkpt><trkpt lat="45.58124451421876" lon="9.091745355776808"><ele>189.33333333333334</ele><time>2026-04-12T05:29:32Z</time></trkpt><trkpt lat="45.5813350127" lon="9.091759258800655"><ele>189.66666666666669</ele><time>2026-04-12T05:29:33Z</time></trkpt><trkpt lat="45.58141925117992" lon="9.091652840667459"><ele>190.0</ele><time>2026-04-12T05:29:34Z</time></trkpt><trkpt lat="45.58146366620097" lon="9.091544388939298"><ele>189.2</ele><time>2026-04-12T05:29:35Z</time></trkpt><trkpt lat="45.58146790747636" lon="9.091390977808604"><ele>188.4</ele><time>2026-04-12T05:29:36Z</time></trkpt><trkpt lat="45.58154991719547" lon="9.0912972320357"><ele>187.60000000000002</ele><time>2026-04-12T05:29:37Z</time></trkpt><trkpt lat="45.581640744770624" lon="9.091224999058932"><ele>186.8</ele><time>2026-04-12T05:29:38Z</time></trkpt><trkpt lat="45.58174834603516" lon="9.091171210000828"><ele>186.0</ele><time>2026-04-12T05:29:39Z</time></trkpt><trkpt lat="45.58187457395431" lon="9.091175717234554"><ele>186.0</ele><time>2026-04-12T05:29:40Z</time></trkpt><trkpt lat="45.582010642051834" lon="9.091141159795018"><ele>186.0</ele><time>2026-04-12T05:29:41Z</time></trkpt><trkpt lat="45.582150152553936" lon="9.091095498232193"><ele>186.0</ele><time>2026-04-12T05:29:42Z</time></trkpt><trkpt lat="45.58228960684598" lon="9.091057325862318"><ele>186.0</ele><time>2026-04-12T05:29:43Z</time></trkpt><trkpt lat="45.58244619797415" lon="9.091033038396604"><ele>186.0</ele><time>2026-04-12T05:29:44Z</time></trkpt><trkpt lat="45.58260244891249" lon="9.090985324834085"><ele>186.0</ele><time>2026-04-12T05:29:45Z</time></trkpt><trkpt lat="45.582758163472896" lon="9.09095119190838"><ele>186.0</ele><time>2026-04-12T05:29:46Z</time></trkpt><trkpt lat="45.582919177368346" lon="9.090908870920096"><ele>186.0</ele><time>2026-04-12T05:29:47Z</time></trkpt><trkpt lat="45.58308545862089" lon="9.09086966594756"><ele>186.0</ele><time>2026-04-12T05:29:48Z</time></trkpt><trkpt lat="45.583247140429556" lon="9.090827020194896"><ele>186.0</ele><time>2026-04-12T05:29:49Z</time></trkpt><trkpt lat="45.5834157204657" lon="9.090793391529646"><ele>186.0</ele><time>2026-04-12T05:29:50Z</time></trkpt><trkpt lat="45.583577342590985" lon="9.090763842689329"><ele>186.0</ele><time>2026-04-12T05:29:51Z</time></trkpt><trkpt lat="45.58374022327536" lon="9.090738748058737"><ele>186.0</ele><time>2026-04-12T05:29:52Z</time></trkpt><trkpt lat="45.58390759506174" lon="9.090723213748173"><ele>185.66666666666666</ele><time>2026-04-12T05:29:53Z</time></trkpt><trkpt lat="45.584075744743735" lon="9.090709085909587"><ele>185.33333333333331</ele><time>2026-04-12T05:29:54Z</time></trkpt><trkpt lat="45.58423998665924" lon="9.090695874610356"><ele>185.0</ele><time>2026-04-12T05:29:55Z</time></trkpt><trkpt lat="45.584391978244575" lon="9.090683304007777"><ele>185.25</ele><time>2026-04-12T05:29:56Z</time></trkpt><trkpt lat="45.58453894836439" lon="9.090674730093827"><ele>185.5</ele><time>2026-04-12T05:29:57Z</time></trkpt><trkpt lat="45.58466158430625" lon="9.09067826793555"><ele>185.75</ele><time>2026-04-12T05:29:58Z</time></trkpt><trkpt lat="45.58475908736433" lon="9.090687970137335"><ele>186.0</ele><time>2026-04-12T05:29:59Z</time></trkpt><trkpt lat="45.58484898068686" lon="9.090711455271231"><ele>186.0</ele><time>2026-04-12T05:30:00Z</time></trkpt><trkpt lat="45.584944396073006" lon="9.090717744963236"><ele>186.0</ele><time>2026-04-12T05:30:01Z</time></trkpt><trkpt lat="45.58504233646661" lon="9.090688285037713"><ele>186.0</ele><time>2026-04-12T05:30:02Z</time></trkpt><trkpt lat="45.58514873468147" lon="9.090635352139065"><ele>186.0</ele><time>2026-04-12T05:30:03Z</time></trkpt><trkpt lat="45.58525363512588" lon="9.090571427892046"><ele>186.0</ele><time>2026-04-12T05:30:03.999Z</time></trkpt><trkpt lat="45.58538162262135" lon="9.090540805374976"><ele>186.25</ele><time>2026-04-12T05:30:04.999Z</time></trkpt><trkpt lat="45.58550744871461" lon="9.090522380978932"><ele>186.5</ele><time>2026-04-12T05:30:05.999Z</time></trkpt><trkpt lat="45.58564659574124" lon="9.090495387563232"><ele>186.75</ele><time>2026-04-12T05:30:06.999Z</time></trkpt><trkpt lat="45.58580050790914" lon="9.090488958762748"><ele>187.0</ele><time>2026-04-12T05:30:07.999Z</time></trkpt><trkpt lat="45.58595240339356" lon="9.090460930412519"><ele>187.0</ele><time>2026-04-12T05:30:08.999Z</time></trkpt><trkpt lat="45.586117332068625" lon="9.09043049715654"><ele>187.0</ele><time>2026-04-12T05:30:09.999Z</time></trkpt><trkpt lat="45.58627914949088" lon="9.09040104529451"><ele>187.0</ele><time>2026-04-12T05:30:10.999Z</time></trkpt><trkpt lat="45.58644271370542" lon="9.090371438933438"><ele>187.0</ele><time>2026-04-12T05:30:11.999Z</time></trkpt><trkpt lat="45.58660574932501" lon="9.090342557263227"><ele>187.0</ele><time>2026-04-12T05:30:12.999Z</time></trkpt><trkpt lat="45.58676211235067" lon="9.090320291791123"><ele>187.0</ele><time>2026-04-12T05:30:13.999Z</time></trkpt><trkpt lat="45.586926763178944" lon="9.090323555527824"><ele>187.33333333333334</ele><time>2026-04-12T05:30:14.999Z</time></trkpt><trkpt lat="45.58708881030835" lon="9.090358570907789"><ele>187.66666666666666</ele><time>2026-04-12T05:30:15.999Z</time></trkpt><trkpt lat="45.58725764105341" lon="9.090412917805464"><ele>188.0</ele><time>2026-04-12T05:30:16.999Z</time></trkpt><trkpt lat="45.58741267187791" lon="9.09050869579079"><ele>188.0</ele><time>2026-04-12T05:30:17.999Z</time></trkpt><trkpt lat="45.58755625140484" lon="9.090635116672827"><ele>188.0</ele><time>2026-04-12T05:30:18.999Z</time></trkpt><trkpt lat="45.58770587239569" lon="9.090744198635862"><ele>188.0</ele><time>2026-04-12T05:30:19.999Z</time></trkpt><trkpt lat="45.58785900287715" lon="9.090856002439287"><ele>189.0</ele><time>2026-04-12T05:30:20.999Z</time></trkpt><trkpt lat="45.58800996246859" lon="9.090966449091859"><ele>190.0</ele><time>2026-04-12T05:30:21.999Z</time></trkpt><trkpt lat="45.588157446655494" lon="9.091073912311224"><ele>191.0</ele><time>2026-04-12T05:30:22.999Z</time></trkpt><trkpt lat="45.58828201110863" lon="9.091162090730805"><ele>191.0</ele><time>2026-04-12T05:30:23.999Z</time></trkpt><trkpt lat="45.588367459048335" lon="9.09123733316394"><ele>191.0</ele><time>2026-04-12T05:30:24.999Z</time></trkpt><trkpt lat="45.588445640806505" lon="9.091295695367096"><ele>191.0</ele><time>2026-04-12T05:30:25.999Z</time></trkpt><trkpt lat="45.58851361559508" lon="9.091347073677891"><ele>191.0</ele><time>2026-04-12T05:30:26.999Z</time></trkpt><trkpt lat="45.58859996171474" lon="9.091439056103185"><ele>191.0</ele><time>2026-04-12T05:30:28.999Z</time></trkpt><trkpt lat="45.58868905093096" lon="9.091549000618555"><ele>191.20000000000002</ele><time>2026-04-12T05:30:30.999Z</time></trkpt><trkpt lat="45.58876034510785" lon="9.091592397793294"><ele>191.4</ele><time>2026-04-12T05:30:31.999Z</time></trkpt><trkpt lat="45.588848796529135" lon="9.091645594981776"><ele>191.6</ele><time>2026-04-12T05:30:32.999Z</time></trkpt><trkpt lat="45.58893368646642" lon="9.091728273075606"><ele>191.8</ele><time>2026-04-12T05:30:33.999Z</time></trkpt><trkpt lat="45.58902441542396" lon="9.091832437231016"><ele>192.0</ele><time>2026-04-12T05:30:34.999Z</time></trkpt><trkpt lat="45.589123838438226" lon="9.091939162982994"><ele>192.0</ele><time>2026-04-12T05:30:35.999Z</time></trkpt><trkpt lat="45.589230768416925" lon="9.092043084720306"><ele>192.0</ele><time>2026-04-12T05:30:36.999Z</time></trkpt><trkpt lat="45.58936157495935" lon="9.092139883876667"><ele>192.0</ele><time>2026-04-12T05:30:37.999Z</time></trkpt><trkpt lat="45.58949943825001" lon="9.092221704808251"><ele>192.0</ele><time>2026-04-12T05:30:38.999Z</time></trkpt><trkpt lat="45.58964538923057" lon="9.0922930077461"><ele>192.33333333333331</ele><time>2026-04-12T05:30:39.999Z</time></trkpt><trkpt lat="45.58980262856998" lon="9.09236542921533"><ele>192.66666666666666</ele><time>2026-04-12T05:30:40.999Z</time></trkpt><trkpt lat="45.58996134282511" lon="9.092436285358659"><ele>193.0</ele><time>2026-04-12T05:30:41.999Z</time></trkpt><trkpt lat="45.59011865092637" lon="9.092504280669303"><ele>193.0</ele><time>2026-04-12T05:30:42.999Z</time></trkpt><trkpt lat="45.59027900188486" lon="9.092570542045404"><ele>193.0</ele><time>2026-04-12T05:30:43.999Z</time></trkpt><trkpt lat="45.59044629670231" lon="9.0926340117007"><ele>193.0</ele><time>2026-04-12T05:30:44.999Z</time></trkpt><trkpt lat="45.590598624494625" lon="9.092692020650029"><ele>193.33333333333331</ele><time>2026-04-12T05:30:45.999Z</time></trkpt><trkpt lat="45.590763019090645" lon="9.092757968574105"><ele>193.66666666666669</ele><time>2026-04-12T05:30:46.999Z</time></trkpt><trkpt lat="45.59093440198407" lon="9.092822594869345"><ele>194.0</ele><time>2026-04-12T05:30:47.999Z</time></trkpt><trkpt lat="45.59109142324918" lon="9.092888965049728"><ele>194.33333333333334</ele><time>2026-04-12T05:30:48.999Z</time></trkpt><trkpt lat="45.591251753687864" lon="9.092961114727418"><ele>194.66666666666669</ele><time>2026-04-12T05:30:49.999Z</time></trkpt><trkpt lat="45.591420101031126" lon="9.093035581807339"><ele>195.0</ele><time>2026-04-12T05:30:50.999Z</time></trkpt><trkpt lat="45.59159207931988" lon="9.0931069387716"><ele>195.0</ele><time>2026-04-12T05:30:51.999Z</time></trkpt><trkpt lat="45.59179694749472" lon="9.093211469762583"><ele>195.0</ele><time>2026-04-12T05:30:52.999Z</time></trkpt><trkpt lat="45.591966366695516" lon="9.093319098671191"><ele>195.0</ele><time>2026-04-12T05:30:53.999Z</time></trkpt><trkpt lat="45.59212199373343" lon="9.093446654234809"><ele>194.66666666666669</ele><time>2026-04-12T05:30:55Z</time></trkpt><trkpt lat="45.59228792047905" lon="9.093567105477936"><ele>194.33333333333334</ele><time>2026-04-12T05:30:56Z</time></trkpt><trkpt lat="45.59246064607626" lon="9.09369162456216"><ele>194.0</ele><time>2026-04-12T05:30:57Z</time></trkpt><trkpt lat="45.592622569190965" lon="9.093807876319666"><ele>194.0</ele><time>2026-04-12T05:30:58Z</time></trkpt><trkpt lat="45.592792404198114" lon="9.093932766679542"><ele>194.0</ele><time>2026-04-12T05:30:59Z</time></trkpt><trkpt lat="45.592956679546596" lon="9.094054186943161"><ele>194.0</ele><time>2026-04-12T05:31:00Z</time></trkpt><trkpt lat="45.593130224329386" lon="9.094189249091764"><ele>194.33333333333334</ele><time>2026-04-12T05:31:01Z</time></trkpt><trkpt lat="45.593315469541864" lon="9.094315515498588"><ele>194.66666666666669</ele><time>2026-04-12T05:31:02Z</time></trkpt><trkpt lat="45.5934841434434" lon="9.094441082459959"><ele>195.0</ele><time>2026-04-12T05:31:03Z</time></trkpt><trkpt lat="45.593649557606305" lon="9.09456921950542"><ele>195.0</ele><time>2026-04-12T05:31:04Z</time></trkpt><trkpt lat="45.5937884697587" lon="9.094682529279078"><ele>195.0</ele><time>2026-04-12T05:31:05Z</time></trkpt><trkpt lat="45.59395334612964" lon="9.094806924688983"><ele>195.0</ele><time>2026-04-12T05:31:06Z</time></trkpt><trkpt lat="45.5941199488382" lon="9.094923527950444"><ele>195.0</ele><time>2026-04-12T05:31:07Z</time></trkpt><trkpt lat="45.59427378354979" lon="9.095047379350037"><ele>195.0</ele><time>2026-04-12T05:31:08Z</time></trkpt><trkpt lat="45.594437244917685" lon="9.095156881088759"><ele>195.0</ele><time>2026-04-12T05:31:09Z</time></trkpt><trkpt lat="45.59458967643383" lon="9.09527275976388"><ele>196.66666666666669</ele><time>2026-04-12T05:31:10Z</time></trkpt><trkpt lat="45.59474813950353" lon="9.095388176292136"><ele>198.33333333333334</ele><time>2026-04-12T05:31:11Z</time></trkpt><trkpt lat="45.59490661081013" lon="9.095499700018038"><ele>200.0</ele><time>2026-04-12T05:31:12Z</time></trkpt><trkpt lat="45.59506034062812" lon="9.095612825100625"><ele>200.0</ele><time>2026-04-12T05:31:13Z</time></trkpt><trkpt lat="45.59521201724964" lon="9.09575272571744"><ele>200.0</ele><time>2026-04-12T05:31:14Z</time></trkpt><trkpt lat="45.59537547899798" lon="9.09584543823546"><ele>200.0</ele><time>2026-04-12T05:31:15Z</time></trkpt><trkpt lat="45.59552454285524" lon="9.095954075193811"><ele>200.0</ele><time>2026-04-12T05:31:16Z</time></trkpt><trkpt lat="45.59566663515591" lon="9.096063749372705"><ele>200.0</ele><time>2026-04-12T05:31:17Z</time></trkpt><trkpt lat="45.595797493667334" lon="9.096168814215602"><ele>200.0</ele><time>2026-04-12T05:31:18Z</time></trkpt><trkpt lat="45.59593731531563" lon="9.096273475960531"><ele>200.0</ele><time>2026-04-12T05:31:19Z</time></trkpt><trkpt lat="45.596078083655584" lon="9.096376740683244"><ele>200.0</ele><time>2026-04-12T05:31:20Z</time></trkpt><trkpt lat="45.596223209612624" lon="9.09648502071491"><ele>200.0</ele><time>2026-04-12T05:31:21Z</time></trkpt><trkpt lat="45.5963599847791" lon="9.096597956468376"><ele>199.66666666666669</ele><time>2026-04-12T05:31:22Z</time></trkpt><trkpt lat="45.59650642499452" lon="9.096715398426547"><ele>199.33333333333331</ele><time>2026-04-12T05:31:23Z</time></trkpt><trkpt lat="45.59663044658938" lon="9.096832432049355"><ele>199.0</ele><time>2026-04-12T05:31:24Z</time></trkpt><trkpt lat="45.596769892559315" lon="9.096948858572192"><ele>199.0</ele><time>2026-04-12T05:31:25Z</time></trkpt><trkpt lat="45.596916854388844" lon="9.097055437280517"><ele>199.0</ele><time>2026-04-12T05:31:26Z</time></trkpt><trkpt lat="45.59706442022928" lon="9.097138438238202"><ele>199.0</ele><time>2026-04-12T05:31:27Z</time></trkpt><trkpt lat="45.597209027077774" lon="9.097225526905238"><ele>198.33333333333331</ele><time>2026-04-12T05:31:28Z</time></trkpt><trkpt lat="45.5973507764182" lon="9.097329680740502"><ele>197.66666666666669</ele><time>2026-04-12T05:31:29Z</time></trkpt><trkpt lat="45.597493999381655" lon="9.097428624014588"><ele>197.0</ele><time>2026-04-12T05:31:30Z</time></trkpt><trkpt lat="45.59764029178028" lon="9.097512125619641"><ele>197.0</ele><time>2026-04-12T05:31:31Z</time></trkpt><trkpt lat="45.597789688944204" lon="9.097553807634501"><ele>197.0</ele><time>2026-04-12T05:31:32Z</time></trkpt><trkpt lat="45.59794885115263" lon="9.097576651800813"><ele>197.0</ele><time>2026-04-12T05:31:33Z</time></trkpt><trkpt lat="45.59807129707298" lon="9.097571563429621"><ele>197.0</ele><time>2026-04-12T05:31:34Z</time></trkpt><trkpt lat="45.59819408433264" lon="9.097578783945357"><ele>197.28571428571428</ele><time>2026-04-12T05:31:35Z</time></trkpt><trkpt lat="45.59828121816917" lon="9.097613653695863"><ele>197.57142857142858</ele><time>2026-04-12T05:31:36Z</time></trkpt><trkpt lat="45.59833346076134" lon="9.097665100237952"><ele>197.85714285714283</ele><time>2026-04-12T05:31:37Z</time></trkpt><trkpt lat="45.59835412876139" lon="9.097758463285198"><ele>198.14285714285714</ele><time>2026-04-12T05:31:38Z</time></trkpt><trkpt lat="45.59837610248478" lon="9.097855592269891"><ele>198.42857142857142</ele><time>2026-04-12T05:31:39Z</time></trkpt><trkpt lat="45.59839318058803" lon="9.097952585179767"><ele>198.7142857142857</ele><time>2026-04-12T05:31:40Z</time></trkpt><trkpt lat="45.59843578244507" lon="9.09803904647369"><ele>199.0</ele><time>2026-04-12T05:31:41Z</time></trkpt><trkpt lat="45.59848832882039" lon="9.098137066695838"><ele>199.0</ele><time>2026-04-12T05:31:42Z</time></trkpt><trkpt lat="45.59857471188554" lon="9.09817036479854"><ele>199.0</ele><time>2026-04-12T05:31:43Z</time></trkpt><trkpt lat="45.598661905264336" lon="9.09818226869036"><ele>199.0</ele><time>2026-04-12T05:31:44Z</time></trkpt><trkpt lat="45.59877620278311" lon="9.098120276530478"><ele>199.0</ele><time>2026-04-12T05:31:45Z</time></trkpt><trkpt lat="45.598846545234146" lon="9.098000928215253"><ele>199.0</ele><time>2026-04-12T05:31:46Z</time></trkpt><trkpt lat="45.59891719294889" lon="9.097881772464849"><ele>198.75</ele><time>2026-04-12T05:31:47Z</time></trkpt><trkpt lat="45.59900819799159" lon="9.097756597924697"><ele>198.5</ele><time>2026-04-12T05:31:48Z</time></trkpt><trkpt lat="45.59911423552587" lon="9.097663031006745"><ele>198.25</ele><time>2026-04-12T05:31:49Z</time></trkpt><trkpt lat="45.59923976890209" lon="9.0976222040097"><ele>198.0</ele><time>2026-04-12T05:31:50Z</time></trkpt><trkpt lat="45.59937815536762" lon="9.097560029941908"><ele>198.33333333333331</ele><time>2026-04-12T05:31:51Z</time></trkpt><trkpt lat="45.59952236141939" lon="9.097480348077747"><ele>198.66666666666666</ele><time>2026-04-12T05:31:52Z</time></trkpt><trkpt lat="45.59966683947034" lon="9.09741386228198"><ele>199.0</ele><time>2026-04-12T05:31:53Z</time></trkpt><trkpt lat="45.59983442006715" lon="9.097367919916666"><ele>199.0</ele><time>2026-04-12T05:31:54Z</time></trkpt><trkpt lat="45.60000561802365" lon="9.09729572159276"><ele>199.0</ele><time>2026-04-12T05:31:55Z</time></trkpt><trkpt lat="45.600172681263956" lon="9.097224818122504"><ele>199.0</ele><time>2026-04-12T05:31:56Z</time></trkpt><trkpt lat="45.60035485193932" lon="9.09714750496186"><ele>199.33333333333331</ele><time>2026-04-12T05:31:57Z</time></trkpt><trkpt lat="45.60053562284112" lon="9.09707078373817"><ele>199.66666666666669</ele><time>2026-04-12T05:31:58Z</time></trkpt><trkpt lat="45.600720063706774" lon="9.0969933297461"><ele>200.0</ele><time>2026-04-12T05:31:59Z</time></trkpt><trkpt lat="45.60091496097941" lon="9.096912953717784"><ele>200.0</ele><time>2026-04-12T05:32:00Z</time></trkpt><trkpt lat="45.60111376018262" lon="9.096830189746965"><ele>200.0</ele><time>2026-04-12T05:32:01Z</time></trkpt><trkpt lat="45.6013144734944" lon="9.096744621291672"><ele>200.0</ele><time>2026-04-12T05:32:02Z</time></trkpt><trkpt lat="45.60151429936277" lon="9.096660820662365"><ele>200.66666666666669</ele><time>2026-04-12T05:32:03Z</time></trkpt><trkpt lat="45.60170729196181" lon="9.096581201465126"><ele>201.33333333333331</ele><time>2026-04-12T05:32:04Z</time></trkpt><trkpt lat="45.60190194194672" lon="9.096497519852687"><ele>202.0</ele><time>2026-04-12T05:32:05Z</time></trkpt><trkpt lat="45.60210044847261" lon="9.096412971757486"><ele>202.0</ele><time>2026-04-12T05:32:06Z</time></trkpt><trkpt lat="45.60230034074322" lon="9.096331131437962"><ele>202.0</ele><time>2026-04-12T05:32:07Z</time></trkpt><trkpt lat="45.60250065138918" lon="9.096250341579013"><ele>202.0</ele><time>2026-04-12T05:32:08Z</time></trkpt><trkpt lat="45.602703107055106" lon="9.096168515882221"><ele>202.33333333333331</ele><time>2026-04-12T05:32:09Z</time></trkpt><trkpt lat="45.602901938217535" lon="9.096083774559755"><ele>202.66666666666669</ele><time>2026-04-12T05:32:10Z</time></trkpt><trkpt lat="45.60309516446991" lon="9.096002064684779"><ele>203.0</ele><time>2026-04-12T05:32:10.999Z</time></trkpt><trkpt lat="45.60328596317554" lon="9.095921399939753"><ele>203.0</ele><time>2026-04-12T05:32:11.999Z</time></trkpt><trkpt lat="45.603469058997575" lon="9.095844632557775"><ele>203.0</ele><time>2026-04-12T05:32:12.999Z</time></trkpt><trkpt lat="45.603655622940636" lon="9.095767968304733"><ele>203.0</ele><time>2026-04-12T05:32:13.999Z</time></trkpt><trkpt lat="45.60383868210688" lon="9.095692744280475"><ele>204.0</ele><time>2026-04-12T05:32:14.999Z</time></trkpt><trkpt lat="45.6040180915604" lon="9.095619020039871"><ele>205.0</ele><time>2026-04-12T05:32:15.999Z</time></trkpt><trkpt lat="45.60419958912074" lon="9.095543492724724"><ele>206.0</ele><time>2026-04-12T05:32:16.999Z</time></trkpt><trkpt lat="45.60437685299853" lon="9.095467083878225"><ele>205.0</ele><time>2026-04-12T05:32:17.999Z</time></trkpt><trkpt lat="45.60455598528909" lon="9.095389869626775"><ele>204.0</ele><time>2026-04-12T05:32:18.999Z</time></trkpt><trkpt lat="45.60473839549148" lon="9.095311242484485"><ele>203.0</ele><time>2026-04-12T05:32:19.999Z</time></trkpt><trkpt lat="45.604909599590265" lon="9.095237452194858"><ele>203.0</ele><time>2026-04-12T05:32:20.999Z</time></trkpt><trkpt lat="45.60508334322338" lon="9.095164371551745"><ele>203.0</ele><time>2026-04-12T05:32:21.999Z</time></trkpt><trkpt lat="45.60526318015595" lon="9.095089751777657"><ele>203.0</ele><time>2026-04-12T05:32:22.999Z</time></trkpt><trkpt lat="45.60542791139345" lon="9.09502042405777"><ele>203.0</ele><time>2026-04-12T05:32:23.999Z</time></trkpt><trkpt lat="45.60558311792948" lon="9.094948261569439"><ele>203.0</ele><time>2026-04-12T05:32:24.999Z</time></trkpt><trkpt lat="45.605732862075556" lon="9.094875893479514"><ele>203.0</ele><time>2026-04-12T05:32:25.999Z</time></trkpt><trkpt lat="45.60587640655022" lon="9.094786451704676"><ele>204.0</ele><time>2026-04-12T05:32:26.999Z</time></trkpt><trkpt lat="45.60603791624294" lon="9.094725335878433"><ele>205.0</ele><time>2026-04-12T05:32:27.999Z</time></trkpt><trkpt lat="45.60619361539099" lon="9.094661052289384"><ele>206.0</ele><time>2026-04-12T05:32:28.999Z</time></trkpt><trkpt lat="45.60635421358142" lon="9.094597091084536"><ele>206.33333333333334</ele><time>2026-04-12T05:32:29.999Z</time></trkpt><trkpt lat="45.606517263371266" lon="9.094528804737507"><ele>206.66666666666669</ele><time>2026-04-12T05:32:30.999Z</time></trkpt><trkpt lat="45.60667016803036" lon="9.094460995822145"><ele>207.0</ele><time>2026-04-12T05:32:31.999Z</time></trkpt><trkpt lat="45.60682567342654" lon="9.094393806516287"><ele>207.0</ele><time>2026-04-12T05:32:32.999Z</time></trkpt><trkpt lat="45.60697396876931" lon="9.09432470107917"><ele>207.0</ele><time>2026-04-12T05:32:33.999Z</time></trkpt><trkpt lat="45.60712466264721" lon="9.094254609011688"><ele>207.0</ele><time>2026-04-12T05:32:34.999Z</time></trkpt><trkpt lat="45.60727842224137" lon="9.094192067995785"><ele>207.0</ele><time>2026-04-12T05:32:35.999Z</time></trkpt><trkpt lat="45.607434224055794" lon="9.09412573003982"><ele>207.0</ele><time>2026-04-12T05:32:36.999Z</time></trkpt><trkpt lat="45.60758385112647" lon="9.094058321123997"><ele>207.0</ele><time>2026-04-12T05:32:37.999Z</time></trkpt><trkpt lat="45.60772511070988" lon="9.09399697585252"><ele>207.0</ele><time>2026-04-12T05:32:38.999Z</time></trkpt><trkpt lat="45.60788505471779" lon="9.093945318708403"><ele>207.0</ele><time>2026-04-12T05:32:39.999Z</time></trkpt><trkpt lat="45.60803713625987" lon="9.093882317650303"><ele>207.0</ele><time>2026-04-12T05:32:40.999Z</time></trkpt><trkpt lat="45.60818598762862" lon="9.093822542030573"><ele>207.0</ele><time>2026-04-12T05:32:41.999Z</time></trkpt><trkpt lat="45.60833767138945" lon="9.093765482023908"><ele>207.0</ele><time>2026-04-12T05:32:42.999Z</time></trkpt><trkpt lat="45.60848303611102" lon="9.093697732151965"><ele>207.0</ele><time>2026-04-12T05:32:43.999Z</time></trkpt><trkpt lat="45.60863156861482" lon="9.093638568329773"><ele>207.33333333333331</ele><time>2026-04-12T05:32:44.999Z</time></trkpt><trkpt lat="45.608778002465705" lon="9.09357961446234"><ele>207.66666666666666</ele><time>2026-04-12T05:32:45.999Z</time></trkpt><trkpt lat="45.608920916530714" lon="9.093519340049284"><ele>208.0</ele><time>2026-04-12T05:32:46.999Z</time></trkpt><trkpt lat="45.6090678832141" lon="9.09346262919171"><ele>208.0</ele><time>2026-04-12T05:32:47.999Z</time></trkpt><trkpt lat="45.60920420112377" lon="9.093404149388988"><ele>208.0</ele><time>2026-04-12T05:32:48.999Z</time></trkpt><trkpt lat="45.60934067301479" lon="9.09334293666469"><ele>208.0</ele><time>2026-04-12T05:32:49.999Z</time></trkpt><trkpt lat="45.6094786104041" lon="9.093271856810796"><ele>208.0</ele><time>2026-04-12T05:32:50.999Z</time></trkpt><trkpt lat="45.60961557622309" lon="9.093210358314169"><ele>208.25</ele><time>2026-04-12T05:32:51.999Z</time></trkpt><trkpt lat="45.60975320044498" lon="9.093155251624468"><ele>208.5</ele><time>2026-04-12T05:32:52.999Z</time></trkpt><trkpt lat="45.60988836781202" lon="9.09309663176919"><ele>208.75</ele><time>2026-04-12T05:32:53.999Z</time></trkpt><trkpt lat="45.61001367239368" lon="9.093039525699385"><ele>209.0</ele><time>2026-04-12T05:32:54.999Z</time></trkpt><trkpt lat="45.6101315317965" lon="9.09299179918887"><ele>209.00000000000003</ele><time>2026-04-12T05:32:55.999Z</time></trkpt><trkpt lat="45.610233469053696" lon="9.09295829089237"><ele>209.0</ele><time>2026-04-12T05:32:56.999Z</time></trkpt><trkpt lat="45.610324639673195" lon="9.092926408412323"><ele>209.0</ele><time>2026-04-12T05:32:57.999Z</time></trkpt><trkpt lat="45.610399028295646" lon="9.092917049238595"><ele>209.0</ele><time>2026-04-12T05:32:58.999Z</time></trkpt><trkpt lat="45.61046454766806" lon="9.092936136846802"><ele>209.00000000000003</ele><time>2026-04-12T05:32:59.999Z</time></trkpt><trkpt lat="45.61052892515675" lon="9.092980956731372"><ele>209.0</ele><time>2026-04-12T05:33:01Z</time></trkpt><trkpt lat="45.61060000193962" lon="9.09302607053116"><ele>209.0</ele><time>2026-04-12T05:33:02Z</time></trkpt><trkpt lat="45.61067613071904" lon="9.093074886259906"><ele>209.0</ele><time>2026-04-12T05:33:03Z</time></trkpt><trkpt lat="45.61077504227909" lon="9.093070015645184"><ele>209.0</ele><time>2026-04-12T05:33:04Z</time></trkpt><trkpt lat="45.61086066605076" lon="9.092981921241272"><ele>209.0</ele><time>2026-04-12T05:33:05Z</time></trkpt><trkpt lat="45.610936524602884" lon="9.092906088964925"><ele>209.0</ele><time>2026-04-12T05:33:06Z</time></trkpt><trkpt lat="45.610988329266384" lon="9.092791599373449"><ele>209.0</ele><time>2026-04-12T05:33:07Z</time></trkpt><trkpt lat="45.611015789025494" lon="9.092649679725794"><ele>209.0</ele><time>2026-04-12T05:33:08Z</time></trkpt><trkpt lat="45.61114020361702" lon="9.092603554662599"><ele>209.0</ele><time>2026-04-12T05:33:09Z</time></trkpt><trkpt lat="45.61124973045291" lon="9.092557948626025"><ele>209.0</ele><time>2026-04-12T05:33:10Z</time></trkpt><trkpt lat="45.611367097625596" lon="9.092509078019907"><ele>209.25</ele><time>2026-04-12T05:33:11Z</time></trkpt><trkpt lat="45.61147482259559" lon="9.09244341074164"><ele>209.5</ele><time>2026-04-12T05:33:12Z</time></trkpt><trkpt lat="45.611585665512266" lon="9.092399764943218"><ele>209.75</ele><time>2026-04-12T05:33:13Z</time></trkpt><trkpt lat="45.61170354844334" lon="9.092353361015961"><ele>210.0</ele><time>2026-04-12T05:33:14Z</time></trkpt><trkpt lat="45.61182261308059" lon="9.092307850841411"><ele>210.0</ele><time>2026-04-12T05:33:15Z</time></trkpt><trkpt lat="45.611937471626504" lon="9.092259306374118"><ele>210.0</ele><time>2026-04-12T05:33:16Z</time></trkpt><trkpt lat="45.61205009580909" lon="9.092207476963772"><ele>210.0</ele><time>2026-04-12T05:33:17Z</time></trkpt><trkpt lat="45.61216005327105" lon="9.092156910005016"><ele>210.0</ele><time>2026-04-12T05:33:18Z</time></trkpt><trkpt lat="45.612278250306694" lon="9.092104838147662"><ele>210.0</ele><time>2026-04-12T05:33:19Z</time></trkpt><trkpt lat="45.612391682380796" lon="9.092057166139412"><ele>210.0</ele><time>2026-04-12T05:33:20Z</time></trkpt><trkpt lat="45.612506209138566" lon="9.09201197952876"><ele>210.0</ele><time>2026-04-12T05:33:21Z</time></trkpt><trkpt lat="45.61261961132472" lon="9.091964522519085"><ele>210.0</ele><time>2026-04-12T05:33:22Z</time></trkpt><trkpt lat="45.612738762169634" lon="9.091913376397203"><ele>210.25</ele><time>2026-04-12T05:33:23Z</time></trkpt><trkpt lat="45.61285216868531" lon="9.091861137917139"><ele>210.5</ele><time>2026-04-12T05:33:24Z</time></trkpt><trkpt lat="45.61297509935366" lon="9.091811841820348"><ele>210.75</ele><time>2026-04-12T05:33:25Z</time></trkpt><trkpt lat="45.61309808689796" lon="9.091761923325025"><ele>211.0</ele><time>2026-04-12T05:33:26Z</time></trkpt><trkpt lat="45.613234746466304" lon="9.09172480055923"><ele>211.0</ele><time>2026-04-12T05:33:27Z</time></trkpt><trkpt lat="45.613362247528705" lon="9.091671001186349"><ele>211.0</ele><time>2026-04-12T05:33:28Z</time></trkpt><trkpt lat="45.61348578864141" lon="9.09161477495908"><ele>211.0</ele><time>2026-04-12T05:33:29Z</time></trkpt><trkpt lat="45.61360510833124" lon="9.091560098849467"><ele>211.0</ele><time>2026-04-12T05:33:30Z</time></trkpt><trkpt lat="45.613723404932195" lon="9.091507367194012"><ele>211.75</ele><time>2026-04-12T05:33:31Z</time></trkpt><trkpt lat="45.61384529154277" lon="9.091456968713487"><ele>212.5</ele><time>2026-04-12T05:33:32Z</time></trkpt><trkpt lat="45.613965518371344" lon="9.091402312675521"><ele>213.25</ele><time>2026-04-12T05:33:33Z</time></trkpt><trkpt lat="45.61409096531777" lon="9.091345180415994"><ele>214.0</ele><time>2026-04-12T05:33:34Z</time></trkpt><trkpt lat="45.61422299793349" lon="9.091303445749505"><ele>214.0</ele><time>2026-04-12T05:33:35Z</time></trkpt><trkpt lat="45.614348036703895" lon="9.091252099238092"><ele>214.0</ele><time>2026-04-12T05:33:36Z</time></trkpt><trkpt lat="45.61447752819716" lon="9.09119952342427"><ele>214.0</ele><time>2026-04-12T05:33:37Z</time></trkpt><trkpt lat="45.61460067524507" lon="9.09114315908178"><ele>214.0</ele><time>2026-04-12T05:33:38Z</time></trkpt><trkpt lat="45.6147244915894" lon="9.091084031737743"><ele>214.0</ele><time>2026-04-12T05:33:39Z</time></trkpt><trkpt lat="45.614857133693135" lon="9.09103312763946"><ele>214.0</ele><time>2026-04-12T05:33:40Z</time></trkpt><trkpt lat="45.61498652135871" lon="9.090983294981307"><ele>214.0</ele><time>2026-04-12T05:33:41Z</time></trkpt><trkpt lat="45.61511565510829" lon="9.090933173688855"><ele>214.0</ele><time>2026-04-12T05:33:42Z</time></trkpt><trkpt lat="45.615245086329196" lon="9.090876242409008"><ele>214.0</ele><time>2026-04-12T05:33:43Z</time></trkpt><trkpt lat="45.61537103795205" lon="9.09081872545957"><ele>214.0</ele><time>2026-04-12T05:33:44Z</time></trkpt><trkpt lat="45.61549353445897" lon="9.090762098801854"><ele>214.0</ele><time>2026-04-12T05:33:45Z</time></trkpt><trkpt lat="45.61562355011417" lon="9.090710534243403"><ele>214.0</ele><time>2026-04-12T05:33:46Z</time></trkpt><trkpt lat="45.61575235326616" lon="9.090670705413649"><ele>214.0</ele><time>2026-04-12T05:33:47Z</time></trkpt><trkpt lat="45.61586976396258" lon="9.090625614573725"><ele>214.0</ele><time>2026-04-12T05:33:48Z</time></trkpt><trkpt lat="45.61599356324113" lon="9.090594047812575"><ele>214.0</ele><time>2026-04-12T05:33:49Z</time></trkpt><trkpt lat="45.61612538670624" lon="9.090565528150352"><ele>214.0</ele><time>2026-04-12T05:33:50Z</time></trkpt><trkpt lat="45.61625586273642" lon="9.090573064060631"><ele>214.5</ele><time>2026-04-12T05:33:51Z</time></trkpt><trkpt lat="45.61638322419481" lon="9.090550047834807"><ele>215.0</ele><time>2026-04-12T05:33:52Z</time></trkpt><trkpt lat="45.61651785829299" lon="9.090545626516775"><ele>215.5</ele><time>2026-04-12T05:33:53Z</time></trkpt><trkpt lat="45.61665248484174" lon="9.090529389422572"><ele>216.0</ele><time>2026-04-12T05:33:54Z</time></trkpt><trkpt lat="45.616784928031585" lon="9.090545318972794"><ele>216.0</ele><time>2026-04-12T05:33:55Z</time></trkpt><trkpt lat="45.61691702771105" lon="9.090510385270266"><ele>216.0</ele><time>2026-04-12T05:33:56Z</time></trkpt><trkpt lat="45.617050056691916" lon="9.090504793337372"><ele>216.0</ele><time>2026-04-12T05:33:57Z</time></trkpt><trkpt lat="45.61718457946232" lon="9.090499777834234"><ele>216.0</ele><time>2026-04-12T05:33:58Z</time></trkpt><trkpt lat="45.61731954813816" lon="9.090495032093243"><ele>215.25</ele><time>2026-04-12T05:33:59Z</time></trkpt><trkpt lat="45.61745409890169" lon="9.090482812304444"><ele>214.5</ele><time>2026-04-12T05:34:00Z</time></trkpt><trkpt lat="45.617590789647366" lon="9.090502204241604"><ele>213.75</ele><time>2026-04-12T05:34:01Z</time></trkpt><trkpt lat="45.617717174091794" lon="9.090479310450755"><ele>213.0</ele><time>2026-04-12T05:34:02Z</time></trkpt><trkpt lat="45.61784018500652" lon="9.090454097521922"><ele>212.8</ele><time>2026-04-12T05:34:03Z</time></trkpt><trkpt lat="45.61795331151396" lon="9.09043091055371"><ele>212.60000000000002</ele><time>2026-04-12T05:34:04Z</time></trkpt><trkpt lat="45.61805136019066" lon="9.090411140985342"><ele>212.39999999999998</ele><time>2026-04-12T05:34:05Z</time></trkpt><trkpt lat="45.61813827811318" lon="9.090394013400095"><ele>212.2</ele><time>2026-04-12T05:34:06Z</time></trkpt><trkpt lat="45.618206470430174" lon="9.090373663973729"><ele>212.0</ele><time>2026-04-12T05:34:07Z</time></trkpt><trkpt lat="45.61830174437503" lon="9.090414158214264"><ele>212.0</ele><time>2026-04-12T05:34:09Z</time></trkpt><trkpt lat="45.618383088821574" lon="9.090549670606789"><ele>212.0</ele><time>2026-04-12T05:34:11Z</time></trkpt><trkpt lat="45.618409654578436" lon="9.090661208764335"><ele>212.0</ele><time>2026-04-12T05:34:12Z</time></trkpt><trkpt lat="45.618446040243676" lon="9.090790712704639"><ele>212.0</ele><time>2026-04-12T05:34:13Z</time></trkpt><trkpt lat="45.61848794768754" lon="9.090932323707271"><ele>212.0</ele><time>2026-04-12T05:34:14Z</time></trkpt><trkpt lat="45.61854087079548" lon="9.091095146197608"><ele>212.0</ele><time>2026-04-12T05:34:15Z</time></trkpt><trkpt lat="45.61860338230946" lon="9.091266519236385"><ele>212.0</ele><time>2026-04-12T05:34:16Z</time></trkpt><trkpt lat="45.61868330925121" lon="9.091463359912343"><ele>212.0</ele><time>2026-04-12T05:34:17Z</time></trkpt><trkpt lat="45.61876223714723" lon="9.091664694501977"><ele>212.0</ele><time>2026-04-12T05:34:18Z</time></trkpt><trkpt lat="45.61884065157996" lon="9.09187460878974"><ele>212.0</ele><time>2026-04-12T05:34:19Z</time></trkpt><trkpt lat="45.6189243706193" lon="9.092093576642421"><ele>212.0</ele><time>2026-04-12T05:34:20Z</time></trkpt><trkpt lat="45.619007627411946" lon="9.092324277730148"><ele>213.66666666666669</ele><time>2026-04-12T05:34:21Z</time></trkpt><trkpt lat="45.61909156813937" lon="9.09255705466469"><ele>215.33333333333331</ele><time>2026-04-12T05:34:22Z</time></trkpt><trkpt lat="45.61917722673892" lon="9.09279397936727"><ele>217.0</ele><time>2026-04-12T05:34:22.999Z</time></trkpt><trkpt lat="45.61926698220354" lon="9.093034191106229"><ele>217.66666666666666</ele><time>2026-04-12T05:34:23.999Z</time></trkpt><trkpt lat="45.61936372972098" lon="9.093276577324348"><ele>218.33333333333331</ele><time>2026-04-12T05:34:24.999Z</time></trkpt><trkpt lat="45.61945894589629" lon="9.093522160886081"><ele>219.0</ele><time>2026-04-12T05:34:25.999Z</time></trkpt><trkpt lat="45.6195500328515" lon="9.09376745850625"><ele>219.33333333333331</ele><time>2026-04-12T05:34:26.999Z</time></trkpt><trkpt lat="45.61964000665897" lon="9.094014973607234"><ele>219.66666666666666</ele><time>2026-04-12T05:34:27.999Z</time></trkpt><trkpt lat="45.619734780482105" lon="9.094265655109156"><ele>220.0</ele><time>2026-04-12T05:34:28.999Z</time></trkpt><trkpt lat="45.61983017794617" lon="9.094517338426652"><ele>219.66666666666666</ele><time>2026-04-12T05:34:29.999Z</time></trkpt><trkpt lat="45.61992461571282" lon="9.094769926021801"><ele>219.33333333333331</ele><time>2026-04-12T05:34:30.999Z</time></trkpt><trkpt lat="45.620016524909644" lon="9.09502990432839"><ele>219.0</ele><time>2026-04-12T05:34:31.999Z</time></trkpt><trkpt lat="45.62010323185439" lon="9.095286710393228"><ele>219.0</ele><time>2026-04-12T05:34:32.999Z</time></trkpt><trkpt lat="45.62017422815915" lon="9.095554664979366"><ele>219.0</ele><time>2026-04-12T05:34:33.999Z</time></trkpt><trkpt lat="45.62023174050487" lon="9.095826255929904"><ele>219.0</ele><time>2026-04-12T05:34:34.999Z</time></trkpt><trkpt lat="45.62026849982852" lon="9.096097013930612"><ele>218.66666666666669</ele><time>2026-04-12T05:34:35.999Z</time></trkpt><trkpt lat="45.620300247362024" lon="9.09637157141893"><ele>218.33333333333334</ele><time>2026-04-12T05:34:36.999Z</time></trkpt><trkpt lat="45.62031089244879" lon="9.096646142679253"><ele>218.0</ele><time>2026-04-12T05:34:37.999Z</time></trkpt><trkpt lat="45.62032144231104" lon="9.09692132021889"><ele>218.33333333333334</ele><time>2026-04-12T05:34:38.999Z</time></trkpt><trkpt lat="45.62033091125071" lon="9.09720476616008"><ele>218.66666666666669</ele><time>2026-04-12T05:34:39.999Z</time></trkpt><trkpt lat="45.620344559406156" lon="9.09748502495543"><ele>219.0</ele><time>2026-04-12T05:34:40.999Z</time></trkpt><trkpt lat="45.62035581078549" lon="9.097756259120438"><ele>219.0</ele><time>2026-04-12T05:34:41.999Z</time></trkpt><trkpt lat="45.62037266087979" lon="9.098033968373572"><ele>219.0</ele><time>2026-04-12T05:34:42.999Z</time></trkpt><trkpt lat="45.62038522874118" lon="9.098308197918984"><ele>219.0</ele><time>2026-04-12T05:34:43.999Z</time></trkpt><trkpt lat="45.620396557279946" lon="9.098590885779219"><ele>219.0</ele><time>2026-04-12T05:34:44.999Z</time></trkpt><trkpt lat="45.62039817246794" lon="9.098845313669687"><ele>219.0</ele><time>2026-04-12T05:34:45.999Z</time></trkpt><trkpt lat="45.62040926710127" lon="9.09911751880861"><ele>219.0</ele><time>2026-04-12T05:34:46.999Z</time></trkpt><trkpt lat="45.620418661498334" lon="9.099384715116244"><ele>219.0</ele><time>2026-04-12T05:34:47.999Z</time></trkpt><trkpt lat="45.620425360252085" lon="9.099656266923752"><ele>219.0</ele><time>2026-04-12T05:34:48.999Z</time></trkpt><trkpt lat="45.62043149171997" lon="9.099930339790669"><ele>219.0</ele><time>2026-04-12T05:34:49.999Z</time></trkpt><trkpt lat="45.62043425874176" lon="9.100190235963279"><ele>219.0</ele><time>2026-04-12T05:34:50.999Z</time></trkpt><trkpt lat="45.6204470720265" lon="9.100431713042816"><ele>219.0</ele><time>2026-04-12T05:34:51.999Z</time></trkpt><trkpt lat="45.6204581611162" lon="9.100676389530603"><ele>219.0</ele><time>2026-04-12T05:34:52.999Z</time></trkpt><trkpt lat="45.62046549454538" lon="9.100909157482011"><ele>219.0</ele><time>2026-04-12T05:34:53.999Z</time></trkpt><trkpt lat="45.620473924198556" lon="9.101131141381046"><ele>219.0</ele><time>2026-04-12T05:34:54.999Z</time></trkpt><trkpt lat="45.62048213205002" lon="9.101344712298662"><ele>219.0</ele><time>2026-04-12T05:34:55.999Z</time></trkpt><trkpt lat="45.6204892360691" lon="9.101546834945248"><ele>219.0</ele><time>2026-04-12T05:34:56.999Z</time></trkpt><trkpt lat="45.620493982211926" lon="9.101752281782183"><ele>219.0</ele><time>2026-04-12T05:34:57.999Z</time></trkpt><trkpt lat="45.62050277114468" lon="9.101942483029084"><ele>219.0</ele><time>2026-04-12T05:34:58.999Z</time></trkpt><trkpt lat="45.62050361427333" lon="9.102129473410999"><ele>219.0</ele><time>2026-04-12T05:34:59.999Z</time></trkpt><trkpt lat="45.62050482305715" lon="9.10230379722384"><ele>219.0</ele><time>2026-04-12T05:35:00.999Z</time></trkpt><trkpt lat="45.62050558156404" lon="9.102467237627268"><ele>219.0</ele><time>2026-04-12T05:35:01.999Z</time></trkpt><trkpt lat="45.62051055136537" lon="9.10260511261088"><ele>219.0</ele><time>2026-04-12T05:35:02.999Z</time></trkpt><trkpt lat="45.62051120980397" lon="9.102717129833124"><ele>219.0</ele><time>2026-04-12T05:35:03.999Z</time></trkpt><trkpt lat="45.620496370737214" lon="9.102807445525496"><ele>219.0</ele><time>2026-04-12T05:35:04.999Z</time></trkpt><trkpt lat="45.62046596769707" lon="9.102906809133701"><ele>219.0</ele><time>2026-04-12T05:35:05.999Z</time></trkpt><trkpt lat="45.62041677782559" lon="9.102986902404316"><ele>219.0</ele><time>2026-04-12T05:35:07Z</time></trkpt><trkpt lat="45.62038219416201" lon="9.103078384234683"><ele>219.0</ele><time>2026-04-12T05:35:08Z</time></trkpt><trkpt lat="45.62038034541418" lon="9.103182601516062"><ele>219.0</ele><time>2026-04-12T05:35:09Z</time></trkpt><trkpt lat="45.620409541399354" lon="9.103289358610962"><ele>219.0</ele><time>2026-04-12T05:35:10Z</time></trkpt><trkpt lat="45.62047872126679" lon="9.10337143048026"><ele>219.0</ele><time>2026-04-12T05:35:11Z</time></trkpt><trkpt lat="45.62053214778286" lon="9.103490000759155"><ele>219.0</ele><time>2026-04-12T05:35:12Z</time></trkpt><trkpt lat="45.62055680537821" lon="9.10363487780619"><ele>219.0</ele><time>2026-04-12T05:35:13Z</time></trkpt><trkpt lat="45.62055811417689" lon="9.10380544189549"><ele>218.5</ele><time>2026-04-12T05:35:14Z</time></trkpt><trkpt lat="45.62056145444531" lon="9.103984242067439"><ele>218.0</ele><time>2026-04-12T05:35:15Z</time></trkpt><trkpt lat="45.62056678407346" lon="9.104168146018594"><ele>217.5</ele><time>2026-04-12T05:35:16Z</time></trkpt><trkpt lat="45.620562384424794" lon="9.104364068310115"><ele>217.0</ele><time>2026-04-12T05:35:17Z</time></trkpt><trkpt lat="45.62056796282311" lon="9.104568105973822"><ele>217.0</ele><time>2026-04-12T05:35:18Z</time></trkpt><trkpt lat="45.62057262724391" lon="9.104780030815506"><ele>217.0</ele><time>2026-04-12T05:35:19Z</time></trkpt><trkpt lat="45.620579891053744" lon="9.104988901637835"><ele>217.0</ele><time>2026-04-12T05:35:20Z</time></trkpt><trkpt lat="45.62058768693479" lon="9.105196405817173"><ele>217.0</ele><time>2026-04-12T05:35:21Z</time></trkpt><trkpt lat="45.62059486212277" lon="9.105407091939169"><ele>217.0</ele><time>2026-04-12T05:35:22Z</time></trkpt><trkpt lat="45.62060350492848" lon="9.105617002923216"><ele>217.0</ele><time>2026-04-12T05:35:23Z</time></trkpt><trkpt lat="45.620607344370384" lon="9.10581964324274"><ele>217.0</ele><time>2026-04-12T05:35:24Z</time></trkpt><trkpt lat="45.62061236736831" lon="9.1060246147898"><ele>217.0</ele><time>2026-04-12T05:35:25Z</time></trkpt><trkpt lat="45.62062322778973" lon="9.10622892107184"><ele>217.0</ele><time>2026-04-12T05:35:26Z</time></trkpt><trkpt lat="45.62063144320889" lon="9.106437433202283"><ele>217.0</ele><time>2026-04-12T05:35:27Z</time></trkpt><trkpt lat="45.62063758692383" lon="9.106650361463627"><ele>217.0</ele><time>2026-04-12T05:35:28Z</time></trkpt><trkpt lat="45.620647000119774" lon="9.106868418110079"><ele>217.0</ele><time>2026-04-12T05:35:29Z</time></trkpt><trkpt lat="45.620656210428436" lon="9.107085799166176"><ele>217.33333333333331</ele><time>2026-04-12T05:35:30Z</time></trkpt><trkpt lat="45.620663315606144" lon="9.10730915208568"><ele>217.66666666666669</ele><time>2026-04-12T05:35:31Z</time></trkpt><trkpt lat="45.6206746895298" lon="9.107533002765715"><ele>218.0</ele><time>2026-04-12T05:35:32Z</time></trkpt><trkpt lat="45.62068515123328" lon="9.107756160370883"><ele>218.0</ele><time>2026-04-12T05:35:33Z</time></trkpt><trkpt lat="45.620696313009795" lon="9.107980114962517"><ele>218.0</ele><time>2026-04-12T05:35:34Z</time></trkpt><trkpt lat="45.62069640617638" lon="9.108207331968483"><ele>218.0</ele><time>2026-04-12T05:35:35Z</time></trkpt><trkpt lat="45.620701897377934" lon="9.108437271205059"><ele>217.0</ele><time>2026-04-12T05:35:36Z</time></trkpt><trkpt lat="45.6207053710375" lon="9.108669404438588"><ele>216.0</ele><time>2026-04-12T05:35:37Z</time></trkpt><trkpt lat="45.620710113566055" lon="9.108905884106967"><ele>215.0</ele><time>2026-04-12T05:35:38Z</time></trkpt><trkpt lat="45.62072379441644" lon="9.109142196900843"><ele>215.0</ele><time>2026-04-12T05:35:39Z</time></trkpt><trkpt lat="45.62073192746202" lon="9.10937795073737"><ele>215.0</ele><time>2026-04-12T05:35:40Z</time></trkpt><trkpt lat="45.62074628958665" lon="9.109620286993925"><ele>215.0</ele><time>2026-04-12T05:35:41Z</time></trkpt><trkpt lat="45.620754120214414" lon="9.109864126142199"><ele>215.66666666666669</ele><time>2026-04-12T05:35:42Z</time></trkpt><trkpt lat="45.6207608235781" lon="9.110110851080053"><ele>216.33333333333331</ele><time>2026-04-12T05:35:43Z</time></trkpt><trkpt lat="45.620759195696884" lon="9.110356303953607"><ele>217.0</ele><time>2026-04-12T05:35:44Z</time></trkpt><trkpt lat="45.62075265717965" lon="9.110603772727478"><ele>216.66666666666666</ele><time>2026-04-12T05:35:45Z</time></trkpt><trkpt lat="45.620739556996554" lon="9.1108557346275"><ele>216.33333333333331</ele><time>2026-04-12T05:35:46Z</time></trkpt><trkpt lat="45.620715956308125" lon="9.11110324345338"><ele>216.0</ele><time>2026-04-12T05:35:47Z</time></trkpt><trkpt lat="45.62067587451302" lon="9.111344971548101"><ele>216.66666666666669</ele><time>2026-04-12T05:35:48Z</time></trkpt><trkpt lat="45.62061954659129" lon="9.111583564790324"><ele>217.33333333333334</ele><time>2026-04-12T05:35:49Z</time></trkpt><trkpt lat="45.62054771636667" lon="9.11182144633569"><ele>218.0</ele><time>2026-04-12T05:35:50Z</time></trkpt><trkpt lat="45.6204589736625" lon="9.11205559950299"><ele>218.0</ele><time>2026-04-12T05:35:51Z</time></trkpt><trkpt lat="45.62037320685138" lon="9.112291053419078"><ele>218.0</ele><time>2026-04-12T05:35:52Z</time></trkpt><trkpt lat="45.62028133685299" lon="9.112530718896771"><ele>218.0</ele><time>2026-04-12T05:35:53Z</time></trkpt><trkpt lat="45.620193328163296" lon="9.112776663358655"><ele>216.0</ele><time>2026-04-12T05:35:54Z</time></trkpt><trkpt lat="45.620097050688116" lon="9.113017113376973"><ele>214.0</ele><time>2026-04-12T05:35:55Z</time></trkpt><trkpt lat="45.62000428252272" lon="9.113254767252599"><ele>212.0</ele><time>2026-04-12T05:35:56Z</time></trkpt><trkpt lat="45.61991474736113" lon="9.113496120847339"><ele>212.0</ele><time>2026-04-12T05:35:57Z</time></trkpt><trkpt lat="45.619823296017124" lon="9.11373608933856"><ele>212.0</ele><time>2026-04-12T05:35:58Z</time></trkpt><trkpt lat="45.619729417705464" lon="9.113978437696407"><ele>212.0</ele><time>2026-04-12T05:35:59Z</time></trkpt><trkpt lat="45.61963927767094" lon="9.114216995730361"><ele>212.0</ele><time>2026-04-12T05:36:00Z</time></trkpt><trkpt lat="45.61954934486918" lon="9.114456760435596"><ele>212.0</ele><time>2026-04-12T05:36:01Z</time></trkpt><trkpt lat="45.619461269934355" lon="9.114693450253798"><ele>212.0</ele><time>2026-04-12T05:36:02Z</time></trkpt><trkpt lat="45.6193739401781" lon="9.114933282072853"><ele>213.0</ele><time>2026-04-12T05:36:03Z</time></trkpt><trkpt lat="45.61928329855116" lon="9.115170782055326"><ele>214.0</ele><time>2026-04-12T05:36:04Z</time></trkpt><trkpt lat="45.61919539188112" lon="9.115404546293915"><ele>215.0</ele><time>2026-04-12T05:36:05Z</time></trkpt><trkpt lat="45.619108302390664" lon="9.115640781390198"><ele>215.0</ele><time>2026-04-12T05:36:06Z</time></trkpt><trkpt lat="45.61902351090074" lon="9.115868248819993"><ele>215.0</ele><time>2026-04-12T05:36:07Z</time></trkpt><trkpt lat="45.61893658024811" lon="9.116092280853707"><ele>215.0</ele><time>2026-04-12T05:36:08Z</time></trkpt><trkpt lat="45.61884924215375" lon="9.116322413545612"><ele>215.0</ele><time>2026-04-12T05:36:09Z</time></trkpt><trkpt lat="45.61876698485197" lon="9.116547270975477"><ele>215.0</ele><time>2026-04-12T05:36:10Z</time></trkpt><trkpt lat="45.61869258838191" lon="9.116767547080448"><ele>215.0</ele><time>2026-04-12T05:36:11Z</time></trkpt><trkpt lat="45.618608050537546" lon="9.116980807843836"><ele>214.66666666666669</ele><time>2026-04-12T05:36:12Z</time></trkpt><trkpt lat="45.61853142968142" lon="9.117192416279154"><ele>214.33333333333331</ele><time>2026-04-12T05:36:13Z</time></trkpt><trkpt lat="45.618455557455164" lon="9.117392502283213"><ele>214.0</ele><time>2026-04-12T05:36:14Z</time></trkpt><trkpt lat="45.61838086792099" lon="9.117585846896603"><ele>214.0</ele><time>2026-04-12T05:36:15Z</time></trkpt><trkpt lat="45.61830339809322" lon="9.117775123654924"><ele>214.0</ele><time>2026-04-12T05:36:16Z</time></trkpt><trkpt lat="45.61822897489076" lon="9.11796739141787"><ele>214.0</ele><time>2026-04-12T05:36:17Z</time></trkpt><trkpt lat="45.618159711714085" lon="9.118148447315157"><ele>214.0</ele><time>2026-04-12T05:36:18Z</time></trkpt><trkpt lat="45.6180942989877" lon="9.118315563456765"><ele>214.0</ele><time>2026-04-12T05:36:19Z</time></trkpt><trkpt lat="45.61802406452627" lon="9.118470496798885"><ele>214.0</ele><time>2026-04-12T05:36:20Z</time></trkpt><trkpt lat="45.617949110060174" lon="9.118611553456601"><ele>214.0</ele><time>2026-04-12T05:36:21Z</time></trkpt><trkpt lat="45.617869996197385" lon="9.118758701070686"><ele>214.0</ele><time>2026-04-12T05:36:22Z</time></trkpt><trkpt lat="45.61778559005164" lon="9.118903724516171"><ele>214.0</ele><time>2026-04-12T05:36:23Z</time></trkpt><trkpt lat="45.61769370442969" lon="9.119045445103403"><ele>214.0</ele><time>2026-04-12T05:36:24Z</time></trkpt><trkpt lat="45.617603593236275" lon="9.119182581128094"><ele>214.0</ele><time>2026-04-12T05:36:25Z</time></trkpt><trkpt lat="45.61751012850065" lon="9.119314159058359"><ele>213.6</ele><time>2026-04-12T05:36:26Z</time></trkpt><trkpt lat="45.61742038315549" lon="9.11944074071157"><ele>213.2</ele><time>2026-04-12T05:36:27Z</time></trkpt><trkpt lat="45.6173485169097" lon="9.119550606534753"><ele>212.79999999999998</ele><time>2026-04-12T05:36:28Z</time></trkpt><trkpt lat="45.61728454465155" lon="9.11963783933167"><ele>212.39999999999998</ele><time>2026-04-12T05:36:29Z</time></trkpt><trkpt lat="45.61721677607451" lon="9.119705963965087"><ele>212.0</ele><time>2026-04-12T05:36:30Z</time></trkpt><trkpt lat="45.617129301945205" lon="9.119760971011468"><ele>212.0</ele><time>2026-04-12T05:36:30.999Z</time></trkpt><trkpt lat="45.61705218531469" lon="9.11984454419032"><ele>212.0</ele><time>2026-04-12T05:36:31.999Z</time></trkpt><trkpt lat="45.616971618963184" lon="9.119940669978504"><ele>212.0</ele><time>2026-04-12T05:36:32.999Z</time></trkpt><trkpt lat="45.616876687464824" lon="9.120026875054641"><ele>212.0</ele><time>2026-04-12T05:36:33.999Z</time></trkpt><trkpt lat="45.616772344600555" lon="9.12010814865595"><ele>212.0</ele><time>2026-04-12T05:36:34.999Z</time></trkpt><trkpt lat="45.616657251854335" lon="9.120186435767483"><ele>212.0</ele><time>2026-04-12T05:36:35.999Z</time></trkpt><trkpt lat="45.61653811646436" lon="9.120256510519344"><ele>212.0</ele><time>2026-04-12T05:36:36.999Z</time></trkpt><trkpt lat="45.6164100539345" lon="9.120320738700897"><ele>212.0</ele><time>2026-04-12T05:36:37.999Z</time></trkpt><trkpt lat="45.616280140483155" lon="9.120377915447616"><ele>212.0</ele><time>2026-04-12T05:36:38.999Z</time></trkpt><trkpt lat="45.61614378195332" lon="9.12042897566719"><ele>211.0</ele><time>2026-04-12T05:36:39.999Z</time></trkpt><trkpt lat="45.61600201051404" lon="9.120476084846985"><ele>210.0</ele><time>2026-04-12T05:36:40.999Z</time></trkpt><trkpt lat="45.61585533129454" lon="9.120513436746505"><ele>209.0</ele><time>2026-04-12T05:36:41.999Z</time></trkpt><trkpt lat="45.615708039898955" lon="9.12054256944533"><ele>208.0</ele><time>2026-04-12T05:36:42.999Z</time></trkpt><trkpt lat="45.61555660217663" lon="9.120563420019518"><ele>208.0</ele><time>2026-04-12T05:36:43.999Z</time></trkpt><trkpt lat="45.61540188696504" lon="9.120582171886571"><ele>208.0</ele><time>2026-04-12T05:36:44.999Z</time></trkpt><trkpt lat="45.61524869388145" lon="9.120599460096338"><ele>208.0</ele><time>2026-04-12T05:36:45.999Z</time></trkpt><trkpt lat="45.615105394633126" lon="9.120612301772551"><ele>208.2</ele><time>2026-04-12T05:36:46.999Z</time></trkpt><trkpt lat="45.6149754120832" lon="9.120626362978413"><ele>208.4</ele><time>2026-04-12T05:36:47.999Z</time></trkpt><trkpt lat="45.614863749780206" lon="9.120639374282655"><ele>208.6</ele><time>2026-04-12T05:36:48.999Z</time></trkpt><trkpt lat="45.614771708671725" lon="9.120651314539938"><ele>208.79999999999998</ele><time>2026-04-12T05:36:49.999Z</time></trkpt><trkpt lat="45.614706184297305" lon="9.120660880588463"><ele>209.0</ele><time>2026-04-12T05:36:50.999Z</time></trkpt><trkpt lat="45.61463888377689" lon="9.120669542081417"><ele>209.0</ele><time>2026-04-12T05:36:52.999Z</time></trkpt><trkpt lat="45.614527084979194" lon="9.120685216183988"><ele>209.0</ele><time>2026-04-12T05:37:33Z</time></trkpt><trkpt lat="45.614454404930825" lon="9.120698309320911"><ele>209.0</ele><time>2026-04-12T05:37:34Z</time></trkpt><trkpt lat="45.61436775053656" lon="9.120711063367995"><ele>209.0</ele><time>2026-04-12T05:37:35Z</time></trkpt><trkpt lat="45.61426661949373" lon="9.120726571995174"><ele>209.0</ele><time>2026-04-12T05:37:36Z</time></trkpt><trkpt lat="45.61415337378733" lon="9.120739369582362"><ele>209.25</ele><time>2026-04-12T05:37:37Z</time></trkpt><trkpt lat="45.61402990896651" lon="9.120761170786546"><ele>209.5</ele><time>2026-04-12T05:37:38Z</time></trkpt><trkpt lat="45.61389617431483" lon="9.120788111718875"><ele>209.75</ele><time>2026-04-12T05:37:39Z</time></trkpt><trkpt lat="45.613752257542046" lon="9.120813893575907"><ele>210.0</ele><time>2026-04-12T05:37:40Z</time></trkpt><trkpt lat="45.6136028869401" lon="9.120841959307226"><ele>210.0</ele><time>2026-04-12T05:37:41Z</time></trkpt><trkpt lat="45.61344347015853" lon="9.120869320142544"><ele>210.0</ele><time>2026-04-12T05:37:42Z</time></trkpt><trkpt lat="45.613277868253796" lon="9.120896997450318"><ele>210.0</ele><time>2026-04-12T05:37:43Z</time></trkpt><trkpt lat="45.61310626288427" lon="9.120923160767518"><ele>210.0</ele><time>2026-04-12T05:37:44Z</time></trkpt><trkpt lat="45.612928417569655" lon="9.12094869290859"><ele>210.0</ele><time>2026-04-12T05:37:45Z</time></trkpt><trkpt lat="45.61274662794602" lon="9.120972751655357"><ele>210.0</ele><time>2026-04-12T05:37:46Z</time></trkpt><trkpt lat="45.612560692271224" lon="9.120994013677894"><ele>209.33333333333331</ele><time>2026-04-12T05:37:47Z</time></trkpt><trkpt lat="45.6123719193029" lon="9.1210168938793"><ele>208.66666666666666</ele><time>2026-04-12T05:37:48Z</time></trkpt><trkpt lat="45.612181511952386" lon="9.121042242433875"><ele>208.0</ele><time>2026-04-12T05:37:49Z</time></trkpt><trkpt lat="45.61199140028593" lon="9.12107599056557"><ele>207.66666666666666</ele><time>2026-04-12T05:37:50Z</time></trkpt><trkpt lat="45.61179725475647" lon="9.12110879091773"><ele>207.33333333333331</ele><time>2026-04-12T05:37:51Z</time></trkpt><trkpt lat="45.61160061388986" lon="9.121136638566778"><ele>207.0</ele><time>2026-04-12T05:37:52Z</time></trkpt><trkpt lat="45.611404988297956" lon="9.12116733945189"><ele>207.0</ele><time>2026-04-12T05:37:53Z</time></trkpt><trkpt lat="45.61120718845436" lon="9.12119963344742"><ele>207.0</ele><time>2026-04-12T05:37:54Z</time></trkpt><trkpt lat="45.61100589509876" lon="9.121228533676971"><ele>207.0</ele><time>2026-04-12T05:37:55Z</time></trkpt><trkpt lat="45.61080689994173" lon="9.121256275948946"><ele>206.0</ele><time>2026-04-12T05:37:56Z</time></trkpt><trkpt lat="45.61060131307329" lon="9.12128611556531"><ele>205.0</ele><time>2026-04-12T05:37:57Z</time></trkpt><trkpt lat="45.610396206120214" lon="9.12131611194019"><ele>204.0</ele><time>2026-04-12T05:37:58Z</time></trkpt><trkpt lat="45.61019031523445" lon="9.121342539720485"><ele>204.0</ele><time>2026-04-12T05:37:59Z</time></trkpt><trkpt lat="45.60998190595892" lon="9.121369908455469"><ele>204.0</ele><time>2026-04-12T05:38:00Z</time></trkpt><trkpt lat="45.60977444409813" lon="9.121400244712323"><ele>204.0</ele><time>2026-04-12T05:38:01Z</time></trkpt><trkpt lat="45.60957144221113" lon="9.121431766433702"><ele>203.33333333333331</ele><time>2026-04-12T05:38:02Z</time></trkpt><trkpt lat="45.60936869241647" lon="9.121460207114014"><ele>202.66666666666666</ele><time>2026-04-12T05:38:03Z</time></trkpt><trkpt lat="45.60917026984228" lon="9.121488467772496"><ele>202.0</ele><time>2026-04-12T05:38:04Z</time></trkpt><trkpt lat="45.608972410489784" lon="9.121518460418732"><ele>202.0</ele><time>2026-04-12T05:38:05Z</time></trkpt><trkpt lat="45.608772655509405" lon="9.121546892553548"><ele>202.0</ele><time>2026-04-12T05:38:06Z</time></trkpt><trkpt lat="45.60857878792111" lon="9.121578048045443"><ele>202.0</ele><time>2026-04-12T05:38:07Z</time></trkpt><trkpt lat="45.608398459957364" lon="9.12161125588534"><ele>200.33333333333331</ele><time>2026-04-12T05:38:08Z</time></trkpt><trkpt lat="45.60823022600473" lon="9.121635856604367"><ele>198.66666666666669</ele><time>2026-04-12T05:38:09Z</time></trkpt><trkpt lat="45.60806935017658" lon="9.121665261059109"><ele>197.0</ele><time>2026-04-12T05:38:10Z</time></trkpt><trkpt lat="45.60792477096058" lon="9.121692525087397"><ele>196.0</ele><time>2026-04-12T05:38:11Z</time></trkpt><trkpt lat="45.60779832173347" lon="9.121728524104475"><ele>195.0</ele><time>2026-04-12T05:38:12Z</time></trkpt><trkpt lat="45.60768977924974" lon="9.121773970929254"><ele>194.0</ele><time>2026-04-12T05:38:13Z</time></trkpt><trkpt lat="45.607593717687884" lon="9.12180070314197"><ele>193.0</ele><time>2026-04-12T05:38:14Z</time></trkpt><trkpt lat="45.607493856028654" lon="9.121811505151866"><ele>192.0</ele><time>2026-04-12T05:38:15Z</time></trkpt><trkpt lat="45.60739560336698" lon="9.121805594363192"><ele>192.0</ele><time>2026-04-12T05:38:16Z</time></trkpt><trkpt lat="45.60729457738125" lon="9.121785292426805"><ele>192.0</ele><time>2026-04-12T05:38:17Z</time></trkpt><trkpt lat="45.6071942810386" lon="9.1217719058225"><ele>192.0</ele><time>2026-04-12T05:38:18Z</time></trkpt><trkpt lat="45.60709891505781" lon="9.121794850575752"><ele>192.0</ele><time>2026-04-12T05:38:19Z</time></trkpt><trkpt lat="45.60701244426919" lon="9.121858887890482"><ele>192.0</ele><time>2026-04-12T05:38:20Z</time></trkpt><trkpt lat="45.60694982957222" lon="9.121962182120914"><ele>191.39999999999998</ele><time>2026-04-12T05:38:21Z</time></trkpt><trkpt lat="45.606914363506355" lon="9.122094155262843"><ele>190.79999999999998</ele><time>2026-04-12T05:38:22Z</time></trkpt><trkpt lat="45.60691068520906" lon="9.122236920193075"><ele>190.2</ele><time>2026-04-12T05:38:23Z</time></trkpt><trkpt lat="45.60693013527148" lon="9.122376594279514"><ele>189.6</ele><time>2026-04-12T05:38:24Z</time></trkpt><trkpt lat="45.606962042733436" lon="9.122513532813084"><ele>189.0</ele><time>2026-04-12T05:38:25Z</time></trkpt><trkpt lat="45.60698082995845" lon="9.122658112957662"><ele>188.75</ele><time>2026-04-12T05:38:26Z</time></trkpt><trkpt lat="45.60696591665392" lon="9.122810572752762"><ele>188.5</ele><time>2026-04-12T05:38:27Z</time></trkpt><trkpt lat="45.606939450781596" lon="9.122975365284487"><ele>188.25</ele><time>2026-04-12T05:38:28Z</time></trkpt><trkpt lat="45.60689469566998" lon="9.123148759473391"><ele>188.0</ele><time>2026-04-12T05:38:29Z</time></trkpt><trkpt lat="45.60686620073999" lon="9.123338030227393"><ele>188.5</ele><time>2026-04-12T05:38:30Z</time></trkpt><trkpt lat="45.60683848364566" lon="9.123536987047343"><ele>189.0</ele><time>2026-04-12T05:38:31Z</time></trkpt><trkpt lat="45.606808190524426" lon="9.123744372190407"><ele>189.5</ele><time>2026-04-12T05:38:32Z</time></trkpt><trkpt lat="45.60677391267826" lon="9.123960290434612"><ele>190.0</ele><time>2026-04-12T05:38:33Z</time></trkpt><trkpt lat="45.6067433313784" lon="9.124177580376731"><ele>190.0</ele><time>2026-04-12T05:38:33.999Z</time></trkpt><trkpt lat="45.60670949461671" lon="9.124400356605902"><ele>190.0</ele><time>2026-04-12T05:38:34.999Z</time></trkpt><trkpt lat="45.60668111351084" lon="9.124630722172816"><ele>190.0</ele><time>2026-04-12T05:38:35.999Z</time></trkpt><trkpt lat="45.606650909306985" lon="9.124859042779248"><ele>189.0</ele><time>2026-04-12T05:38:36.999Z</time></trkpt><trkpt lat="45.60661724008809" lon="9.1250940193002"><ele>188.0</ele><time>2026-04-12T05:38:37.999Z</time></trkpt><trkpt lat="45.60658685506669" lon="9.125332492828859"><ele>187.0</ele><time>2026-04-12T05:38:38.999Z</time></trkpt><trkpt lat="45.60655500332676" lon="9.125569185163373"><ele>186.66666666666669</ele><time>2026-04-12T05:38:39.999Z</time></trkpt><trkpt lat="45.60652427977993" lon="9.125798955736876"><ele>186.33333333333334</ele><time>2026-04-12T05:38:40.999Z</time></trkpt><trkpt lat="45.606501695759164" lon="9.126024812940386"><ele>186.0</ele><time>2026-04-12T05:38:41.999Z</time></trkpt><trkpt lat="45.60648517815152" lon="9.126223541968946"><ele>186.0</ele><time>2026-04-12T05:38:42.999Z</time></trkpt><trkpt lat="45.60647461969906" lon="9.126389155886155"><ele>186.0</ele><time>2026-04-12T05:38:43.999Z</time></trkpt><trkpt lat="45.60646547314536" lon="9.126527231405351"><ele>186.0</ele><time>2026-04-12T05:38:44.999Z</time></trkpt><trkpt lat="45.6064358138895" lon="9.126644327237168"><ele>186.0</ele><time>2026-04-12T05:38:45.999Z</time></trkpt><trkpt lat="45.60638480065243" lon="9.126745178903889"><ele>186.0</ele><time>2026-04-12T05:38:46.999Z</time></trkpt><trkpt lat="45.60632260046614" lon="9.12683992467205"><ele>186.20000000000002</ele><time>2026-04-12T05:38:47.999Z</time></trkpt><trkpt lat="45.606286273078304" lon="9.126958825172022"><ele>186.4</ele><time>2026-04-12T05:38:48.999Z</time></trkpt><trkpt lat="45.606287074748735" lon="9.127106103213347"><ele>186.6</ele><time>2026-04-12T05:38:49.999Z</time></trkpt><trkpt lat="45.60631136283223" lon="9.127255326800949"><ele>186.8</ele><time>2026-04-12T05:38:50.999Z</time></trkpt><trkpt lat="45.60631661811656" lon="9.127420445014984"><ele>187.0</ele><time>2026-04-12T05:38:51.999Z</time></trkpt><trkpt lat="45.60629970128065" lon="9.127599479100063"><ele>187.0</ele><time>2026-04-12T05:38:52.999Z</time></trkpt><trkpt lat="45.606277163688475" lon="9.127790570241215"><ele>187.0</ele><time>2026-04-12T05:38:53.999Z</time></trkpt><trkpt lat="45.606251690190184" lon="9.127991596408828"><ele>187.0</ele><time>2026-04-12T05:38:54.999Z</time></trkpt><trkpt lat="45.60622563207817" lon="9.128203707502488"><ele>187.0</ele><time>2026-04-12T05:38:55.999Z</time></trkpt><trkpt lat="45.60619637992585" lon="9.12842108215919"><ele>186.66666666666669</ele><time>2026-04-12T05:38:56.999Z</time></trkpt><trkpt lat="45.60616523706334" lon="9.128658069644047"><ele>186.33333333333334</ele><time>2026-04-12T05:38:57.999Z</time></trkpt><trkpt lat="45.60613752504033" lon="9.128900275129991"><ele>186.0</ele><time>2026-04-12T05:38:58.999Z</time></trkpt><trkpt lat="45.60610595855604" lon="9.129141598559125"><ele>186.0</ele><time>2026-04-12T05:38:59.999Z</time></trkpt><trkpt lat="45.606076291735725" lon="9.129386274609042"><ele>186.0</ele><time>2026-04-12T05:39:00.999Z</time></trkpt><trkpt lat="45.606043931157636" lon="9.129628853232303"><ele>186.0</ele><time>2026-04-12T05:39:01.999Z</time></trkpt><trkpt lat="45.606012822949886" lon="9.129876966416846"><ele>185.66666666666666</ele><time>2026-04-12T05:39:02.999Z</time></trkpt><trkpt lat="45.60597541547758" lon="9.130121845574179"><ele>185.33333333333331</ele><time>2026-04-12T05:39:03.999Z</time></trkpt><trkpt lat="45.6059393438234" lon="9.130373365772007"><ele>185.0</ele><time>2026-04-12T05:39:04.999Z</time></trkpt><trkpt lat="45.605902485844304" lon="9.130626829175446"><ele>184.66666666666666</ele><time>2026-04-12T05:39:05.999Z</time></trkpt><trkpt lat="45.60586932570067" lon="9.13088390638748"><ele>184.33333333333334</ele><time>2026-04-12T05:39:06.999Z</time></trkpt><trkpt lat="45.605836712969726" lon="9.131138573711912"><ele>184.0</ele><time>2026-04-12T05:39:07.999Z</time></trkpt><trkpt lat="45.60580987239203" lon="9.13139393612599"><ele>183.33333333333334</ele><time>2026-04-12T05:39:08.999Z</time></trkpt><trkpt lat="45.60577700844635" lon="9.131649966849363"><ele>182.66666666666666</ele><time>2026-04-12T05:39:09.999Z</time></trkpt><trkpt lat="45.60575007943864" lon="9.131899320148671"><ele>182.0</ele><time>2026-04-12T05:39:10.999Z</time></trkpt><trkpt lat="45.60571664150389" lon="9.132152946858918"><ele>182.33333333333331</ele><time>2026-04-12T05:39:11.999Z</time></trkpt><trkpt lat="45.605680429440135" lon="9.132408076683259"><ele>182.66666666666666</ele><time>2026-04-12T05:39:12.999Z</time></trkpt><trkpt lat="45.60564585803295" lon="9.132667427745842"><ele>183.0</ele><time>2026-04-12T05:39:13.999Z</time></trkpt><trkpt lat="45.60561524726313" lon="9.13292492370433"><ele>183.0</ele><time>2026-04-12T05:39:14.999Z</time></trkpt><trkpt lat="45.60558162239726" lon="9.13318420307095"><ele>183.0</ele><time>2026-04-12T05:39:15.999Z</time></trkpt><trkpt lat="45.605550305021005" lon="9.13344528840672"><ele>183.0</ele><time>2026-04-12T05:39:16.999Z</time></trkpt><trkpt lat="45.605518220290875" lon="9.133705303968638"><ele>183.0</ele><time>2026-04-12T05:39:17.999Z</time></trkpt><trkpt lat="45.60548761715553" lon="9.133965852220468"><ele>183.0</ele><time>2026-04-12T05:39:19Z</time></trkpt><trkpt lat="45.605457486940345" lon="9.134226904487567"><ele>183.0</ele><time>2026-04-12T05:39:20Z</time></trkpt><trkpt lat="45.60542553960065" lon="9.134485325557387"><ele>183.33333333333334</ele><time>2026-04-12T05:39:21Z</time></trkpt><trkpt lat="45.605393780491866" lon="9.134748393399327"><ele>183.66666666666669</ele><time>2026-04-12T05:39:22Z</time></trkpt><trkpt lat="45.60536002170951" lon="9.135008462768958"><ele>184.0</ele><time>2026-04-12T05:39:23Z</time></trkpt><trkpt lat="45.605325420750866" lon="9.135266721159464"><ele>184.33333333333334</ele><time>2026-04-12T05:39:24Z</time></trkpt><trkpt lat="45.60529161148201" lon="9.135525301969407"><ele>184.66666666666666</ele><time>2026-04-12T05:39:25Z</time></trkpt><trkpt lat="45.605258766936316" lon="9.13578459680987"><ele>185.0</ele><time>2026-04-12T05:39:26Z</time></trkpt><trkpt lat="45.60522393176593" lon="9.136046909587636"><ele>185.0</ele><time>2026-04-12T05:39:27Z</time></trkpt><trkpt lat="45.60518752892099" lon="9.136308686643753"><ele>185.0</ele><time>2026-04-12T05:39:28Z</time></trkpt><trkpt lat="45.60515362766963" lon="9.136571130365578"><ele>185.0</ele><time>2026-04-12T05:39:29Z</time></trkpt><trkpt lat="45.60512031995451" lon="9.136834920889287"><ele>185.33333333333331</ele><time>2026-04-12T05:39:30Z</time></trkpt><trkpt lat="45.60508972807216" lon="9.13709573423707"><ele>185.66666666666666</ele><time>2026-04-12T05:39:31Z</time></trkpt><trkpt lat="45.60505776674959" lon="9.137355736407827"><ele>186.0</ele><time>2026-04-12T05:39:32Z</time></trkpt><trkpt lat="45.60503852623974" lon="9.137602745369728"><ele>186.0</ele><time>2026-04-12T05:39:33Z</time></trkpt><trkpt lat="45.60500817502377" lon="9.137849918308586"><ele>186.0</ele><time>2026-04-12T05:39:34Z</time></trkpt><trkpt lat="45.60497270460729" lon="9.138095248987105"><ele>186.0</ele><time>2026-04-12T05:39:35Z</time></trkpt><trkpt lat="45.60494068144171" lon="9.13833715522146"><ele>186.0</ele><time>2026-04-12T05:39:36Z</time></trkpt><trkpt lat="45.604907283612235" lon="9.138567495646816"><ele>186.0</ele><time>2026-04-12T05:39:37Z</time></trkpt><trkpt lat="45.604872724500524" lon="9.138791665077441"><ele>186.0</ele><time>2026-04-12T05:39:38Z</time></trkpt><trkpt lat="45.60483694529321" lon="9.139002233589368"><ele>186.25</ele><time>2026-04-12T05:39:39Z</time></trkpt><trkpt lat="45.6048113027103" lon="9.139201389200908"><ele>186.5</ele><time>2026-04-12T05:39:40Z</time></trkpt><trkpt lat="45.604783263134095" lon="9.139384468766211"><ele>186.75</ele><time>2026-04-12T05:39:41Z</time></trkpt><trkpt lat="45.60475896264421" lon="9.139544830816979"><ele>187.0</ele><time>2026-04-12T05:39:42Z</time></trkpt><trkpt lat="45.604723942207485" lon="9.13968668964983"><ele>187.0</ele><time>2026-04-12T05:39:43Z</time></trkpt><trkpt lat="45.604651210168555" lon="9.139828403123879"><ele>187.0</ele><time>2026-04-12T05:39:44Z</time></trkpt><trkpt lat="45.60458307559007" lon="9.139869366745737"><ele>187.0</ele><time>2026-04-12T05:39:45Z</time></trkpt><trkpt lat="45.60447668071293" lon="9.13990949084171"><ele>187.0</ele><time>2026-04-12T05:39:46Z</time></trkpt><trkpt lat="45.60436118934589" lon="9.139911710146418"><ele>187.0</ele><time>2026-04-12T05:39:47Z</time></trkpt><trkpt lat="45.60423984920373" lon="9.13990520685079"><ele>186.25</ele><time>2026-04-12T05:39:48Z</time></trkpt><trkpt lat="45.604118789755766" lon="9.139921430536411"><ele>185.5</ele><time>2026-04-12T05:39:49Z</time></trkpt><trkpt lat="45.6040050555945" lon="9.139963281245688"><ele>184.75</ele><time>2026-04-12T05:39:50Z</time></trkpt><trkpt lat="45.60389880271802" lon="9.140037653067022"><ele>184.0</ele><time>2026-04-12T05:39:51Z</time></trkpt><trkpt lat="45.60381290892816" lon="9.14013364992885"><ele>184.0</ele><time>2026-04-12T05:39:52Z</time></trkpt><trkpt lat="45.60374142289316" lon="9.140228549980588"><ele>184.0</ele><time>2026-04-12T05:39:53Z</time></trkpt><trkpt lat="45.60365412847734" lon="9.140302672043342"><ele>184.0</ele><time>2026-04-12T05:39:54Z</time></trkpt><trkpt lat="45.60354353886793" lon="9.140346419079842"><ele>184.0</ele><time>2026-04-12T05:39:55Z</time></trkpt><trkpt lat="45.60343346163675" lon="9.140373083373142"><ele>184.0</ele><time>2026-04-12T05:39:56Z</time></trkpt><trkpt lat="45.60332447849371" lon="9.140396961550758"><ele>183.79999999999998</ele><time>2026-04-12T05:39:57Z</time></trkpt><trkpt lat="45.6032184625489" lon="9.140416916350468"><ele>183.6</ele><time>2026-04-12T05:39:58Z</time></trkpt><trkpt lat="45.60312708317607" lon="9.140434791514618"><ele>183.4</ele><time>2026-04-12T05:39:59Z</time></trkpt><trkpt lat="45.603058517590775" lon="9.14044063855302"><ele>183.2</ele><time>2026-04-12T05:40:00Z</time></trkpt><trkpt lat="45.60295940125995" lon="9.140489387788323"><ele>183.0</ele><time>2026-04-12T05:40:02Z</time></trkpt><trkpt lat="45.60293801385599" lon="9.1407032702002"><ele>183.2</ele><time>2026-04-12T05:40:04Z</time></trkpt><trkpt lat="45.60295815951151" lon="9.14082643642743"><ele>183.4</ele><time>2026-04-12T05:40:05Z</time></trkpt><trkpt lat="45.60295549945273" lon="9.140950939089823"><ele>183.6</ele><time>2026-04-12T05:40:06Z</time></trkpt><trkpt lat="45.602983337165185" lon="9.141085692827808"><ele>183.79999999999998</ele><time>2026-04-12T05:40:07Z</time></trkpt><trkpt lat="45.60298913617446" lon="9.141235779312927"><ele>184.0</ele><time>2026-04-12T05:40:08Z</time></trkpt><trkpt lat="45.60300568229631" lon="9.141394895232617"><ele>184.25</ele><time>2026-04-12T05:40:09Z</time></trkpt><trkpt lat="45.60302267230613" lon="9.141561157470136"><ele>184.5</ele><time>2026-04-12T05:40:10Z</time></trkpt><trkpt lat="45.603038893359766" lon="9.141732174583721"><ele>184.75</ele><time>2026-04-12T05:40:11Z</time></trkpt><trkpt lat="45.603055789450025" lon="9.141906748089184"><ele>185.0</ele><time>2026-04-12T05:40:12Z</time></trkpt><trkpt lat="45.603070939831554" lon="9.14208346578221"><ele>185.0</ele><time>2026-04-12T05:40:13Z</time></trkpt><trkpt lat="45.60308529968288" lon="9.142251239585955"><ele>185.0</ele><time>2026-04-12T05:40:14Z</time></trkpt><trkpt lat="45.60309456641649" lon="9.142394868921462"><ele>185.0</ele><time>2026-04-12T05:40:15Z</time></trkpt><trkpt lat="45.60311196899985" lon="9.14251405516884"><ele>185.0</ele><time>2026-04-12T05:40:16Z</time></trkpt><trkpt lat="45.60311546580326" lon="9.142612162690828"><ele>185.0</ele><time>2026-04-12T05:40:17Z</time></trkpt><trkpt lat="45.60309880703788" lon="9.14270011629677"><ele>185.0</ele><time>2026-04-12T05:40:18Z</time></trkpt><trkpt lat="45.60301306734371" lon="9.142869977720474"><ele>185.0</ele><time>2026-04-12T05:40:20Z</time></trkpt><trkpt lat="45.60297598989771" lon="9.142963360297122"><ele>185.0</ele><time>2026-04-12T05:40:21Z</time></trkpt><trkpt lat="45.60297545643322" lon="9.143075486188517"><ele>185.0</ele><time>2026-04-12T05:40:22Z</time></trkpt><trkpt lat="45.60301481209244" lon="9.143173858057322"><ele>185.0</ele><time>2026-04-12T05:40:23Z</time></trkpt><trkpt lat="45.60307912984291" lon="9.143218512913817"><ele>185.0</ele><time>2026-04-12T05:40:24Z</time></trkpt><trkpt lat="45.603155499319556" lon="9.143217493002101"><ele>185.0</ele><time>2026-04-12T05:40:25Z</time></trkpt><trkpt lat="45.603227810849965" lon="9.143164737380888"><ele>185.0</ele><time>2026-04-12T05:40:26Z</time></trkpt><trkpt lat="45.60329485930586" lon="9.143080822166763"><ele>185.0</ele><time>2026-04-12T05:40:27Z</time></trkpt><trkpt lat="45.60337424530156" lon="9.143003573275145"><ele>185.0</ele><time>2026-04-12T05:40:28Z</time></trkpt><trkpt lat="45.603463880739604" lon="9.142929598818249"><ele>185.0</ele><time>2026-04-12T05:40:29Z</time></trkpt><trkpt lat="45.603564746906855" lon="9.142850979455636"><ele>185.0</ele><time>2026-04-12T05:40:30Z</time></trkpt><trkpt lat="45.60367383897399" lon="9.142767701520825"><ele>185.25</ele><time>2026-04-12T05:40:31Z</time></trkpt><trkpt lat="45.60378981796905" lon="9.142677133653267"><ele>185.5</ele><time>2026-04-12T05:40:32Z</time></trkpt><trkpt lat="45.60391003195152" lon="9.142583787856733"><ele>185.75</ele><time>2026-04-12T05:40:33Z</time></trkpt><trkpt lat="45.6040323067601" lon="9.142490906708506"><ele>186.0</ele><time>2026-04-12T05:40:34Z</time></trkpt><trkpt lat="45.604151986134646" lon="9.142399026890457"><ele>186.0</ele><time>2026-04-12T05:40:35Z</time></trkpt><trkpt lat="45.60427722638182" lon="9.14230184287149"><ele>186.0</ele><time>2026-04-12T05:40:36Z</time></trkpt><trkpt lat="45.60440537543343" lon="9.14220447944032"><ele>186.0</ele><time>2026-04-12T05:40:37Z</time></trkpt><trkpt lat="45.60453421080031" lon="9.142106881195557"><ele>186.0</ele><time>2026-04-12T05:40:38Z</time></trkpt><trkpt lat="45.604661612221776" lon="9.142002578711315"><ele>186.0</ele><time>2026-04-12T05:40:39Z</time></trkpt><trkpt lat="45.60478940325229" lon="9.141896975741266"><ele>186.0</ele><time>2026-04-12T05:40:40Z</time></trkpt><trkpt lat="45.60492433574791" lon="9.141796192510526"><ele>186.0</ele><time>2026-04-12T05:40:41Z</time></trkpt><trkpt lat="45.60505510176606" lon="9.141692772331107"><ele>186.0</ele><time>2026-04-12T05:40:42Z</time></trkpt><trkpt lat="45.60518663864894" lon="9.14159053842051"><ele>186.33333333333334</ele><time>2026-04-12T05:40:43Z</time></trkpt><trkpt lat="45.60532236562639" lon="9.14148812887517"><ele>186.66666666666669</ele><time>2026-04-12T05:40:44Z</time></trkpt><trkpt lat="45.605459850061244" lon="9.141380000501393"><ele>187.0</ele><time>2026-04-12T05:40:45Z</time></trkpt><trkpt lat="45.60559441458821" lon="9.141272799290132"><ele>187.0</ele><time>2026-04-12T05:40:46Z</time></trkpt><trkpt lat="45.60572682626307" lon="9.141172015914881"><ele>187.0</ele><time>2026-04-12T05:40:47Z</time></trkpt><trkpt lat="45.60584571747199" lon="9.141080730623184"><ele>187.0</ele><time>2026-04-12T05:40:48Z</time></trkpt><trkpt lat="45.60594276764204" lon="9.140994187255842"><ele>187.0</ele><time>2026-04-12T05:40:49Z</time></trkpt><trkpt lat="45.6060150445524" lon="9.140911733442426"><ele>187.0</ele><time>2026-04-12T05:40:50Z</time></trkpt><trkpt lat="45.60609359489908" lon="9.140831307706224"><ele>187.0</ele><time>2026-04-12T05:40:51Z</time></trkpt><trkpt lat="45.60618479592894" lon="9.140775405433171"><ele>187.0</ele><time>2026-04-12T05:40:52Z</time></trkpt><trkpt lat="45.60629192292909" lon="9.140706834912988"><ele>187.0</ele><time>2026-04-12T05:40:53Z</time></trkpt><trkpt lat="45.60639639568647" lon="9.14061251204032"><ele>187.0</ele><time>2026-04-12T05:40:53.999Z</time></trkpt><trkpt lat="45.60650264742021" lon="9.140492964055571"><ele>187.75</ele><time>2026-04-12T05:40:54.999Z</time></trkpt><trkpt lat="45.60662249933966" lon="9.14038795288792"><ele>188.5</ele><time>2026-04-12T05:40:55.999Z</time></trkpt><trkpt lat="45.60676156294198" lon="9.140309091495464"><ele>189.25</ele><time>2026-04-12T05:40:56.999Z</time></trkpt><trkpt lat="45.6069103974229" lon="9.14023545925768"><ele>190.0</ele><time>2026-04-12T05:40:57.999Z</time></trkpt><trkpt lat="45.60705836621998" lon="9.140140365951408"><ele>190.0</ele><time>2026-04-12T05:40:58.999Z</time></trkpt><trkpt lat="45.60720599773795" lon="9.140033233179686"><ele>190.0</ele><time>2026-04-12T05:40:59.999Z</time></trkpt><trkpt lat="45.60735644479756" lon="9.139920483159065"><ele>190.0</ele><time>2026-04-12T05:41:00.999Z</time></trkpt><trkpt lat="45.607510304518115" lon="9.139802143311156"><ele>189.66666666666669</ele><time>2026-04-12T05:41:01.999Z</time></trkpt><trkpt lat="45.6076596910747" lon="9.13967956688577"><ele>189.33333333333334</ele><time>2026-04-12T05:41:02.999Z</time></trkpt><trkpt lat="45.60780999206038" lon="9.139561280094085"><ele>189.0</ele><time>2026-04-12T05:41:03.999Z</time></trkpt><trkpt lat="45.60796184306323" lon="9.139439351870461"><ele>188.66666666666666</ele><time>2026-04-12T05:41:04.999Z</time></trkpt><trkpt lat="45.60811159316849" lon="9.139317572689786"><ele>188.33333333333331</ele><time>2026-04-12T05:41:05.999Z</time></trkpt><trkpt lat="45.608265711145904" lon="9.139192318780992"><ele>188.0</ele><time>2026-04-12T05:41:06.999Z</time></trkpt><trkpt lat="45.60841668674613" lon="9.139070428723223"><ele>188.0</ele><time>2026-04-12T05:41:07.999Z</time></trkpt><trkpt lat="45.60856974879402" lon="9.138948115679913"><ele>188.0</ele><time>2026-04-12T05:41:08.999Z</time></trkpt><trkpt lat="45.60872428043706" lon="9.138821451879478"><ele>188.0</ele><time>2026-04-12T05:41:09.999Z</time></trkpt><trkpt lat="45.608870690534744" lon="9.138719004095348"><ele>188.0</ele><time>2026-04-12T05:41:10.999Z</time></trkpt><trkpt lat="45.60901044459255" lon="9.13861296785363"><ele>188.0</ele><time>2026-04-12T05:41:11.999Z</time></trkpt><trkpt lat="45.609134029124846" lon="9.138513926718678"><ele>188.0</ele><time>2026-04-12T05:41:12.999Z</time></trkpt><trkpt lat="45.60924823493818" lon="9.13843026076507"><ele>188.0</ele><time>2026-04-12T05:41:13.999Z</time></trkpt><trkpt lat="45.60934709265173" lon="9.138353359364567"><ele>188.0</ele><time>2026-04-12T05:41:14.999Z</time></trkpt><trkpt lat="45.609435004699414" lon="9.138298878028271"><ele>188.0</ele><time>2026-04-12T05:41:15.999Z</time></trkpt><trkpt lat="45.60951148974057" lon="9.138269935220121"><ele>188.0</ele><time>2026-04-12T05:41:16.999Z</time></trkpt><trkpt lat="45.6095881578507" lon="9.138260022287058"><ele>188.0</ele><time>2026-04-12T05:41:17.999Z</time></trkpt><trkpt lat="45.60966050180507" lon="9.138263237529104"><ele>188.0</ele><time>2026-04-12T05:41:18.999Z</time></trkpt><trkpt lat="45.60974095931862" lon="9.13813156136886"><ele>188.0</ele><time>2026-04-12T05:41:20.999Z</time></trkpt><trkpt lat="45.6097924220516" lon="9.138045441012418"><ele>187.8</ele><time>2026-04-12T05:41:21.999Z</time></trkpt><trkpt lat="45.60986874602079" lon="9.137961460569265"><ele>187.60000000000002</ele><time>2026-04-12T05:41:22.999Z</time></trkpt><trkpt lat="45.609963677845045" lon="9.13790744893837"><ele>187.39999999999998</ele><time>2026-04-12T05:41:23.999Z</time></trkpt><trkpt lat="45.61007779614482" lon="9.137861889585796"><ele>187.2</ele><time>2026-04-12T05:41:25Z</time></trkpt><trkpt lat="45.61019381097389" lon="9.137794035460509"><ele>187.0</ele><time>2026-04-12T05:41:26Z</time></trkpt><trkpt lat="45.61031785071558" lon="9.13772427979659"><ele>187.75</ele><time>2026-04-12T05:41:27Z</time></trkpt><trkpt lat="45.610454967273604" lon="9.137662422592728"><ele>188.5</ele><time>2026-04-12T05:41:28Z</time></trkpt><trkpt lat="45.610596506289426" lon="9.137601603667418"><ele>189.25</ele><time>2026-04-12T05:41:29Z</time></trkpt><trkpt lat="45.610745516497765" lon="9.137542415872309"><ele>190.0</ele><time>2026-04-12T05:41:30Z</time></trkpt><trkpt lat="45.61089781658855" lon="9.137478175400323"><ele>190.0</ele><time>2026-04-12T05:41:31Z</time></trkpt><trkpt lat="45.611055130215156" lon="9.137427626895157"><ele>190.0</ele><time>2026-04-12T05:41:32Z</time></trkpt><trkpt lat="45.611218224885036" lon="9.137387342175485"><ele>190.0</ele><time>2026-04-12T05:41:33Z</time></trkpt><trkpt lat="45.61138184632591" lon="9.137353338773817"><ele>189.66666666666669</ele><time>2026-04-12T05:41:34Z</time></trkpt><trkpt lat="45.611544033237095" lon="9.137325104865143"><ele>189.33333333333334</ele><time>2026-04-12T05:41:35Z</time></trkpt><trkpt lat="45.611705193874634" lon="9.137299139838452"><ele>189.0</ele><time>2026-04-12T05:41:36Z</time></trkpt><trkpt lat="45.61186432323396" lon="9.137273933846334"><ele>189.66666666666666</ele><time>2026-04-12T05:41:37Z</time></trkpt><trkpt lat="45.61202343442676" lon="9.137245478050597"><ele>190.33333333333331</ele><time>2026-04-12T05:41:38Z</time></trkpt><trkpt lat="45.612182426321134" lon="9.137224389689424"><ele>191.0</ele><time>2026-04-12T05:41:39Z</time></trkpt><trkpt lat="45.612333244158656" lon="9.137202971319565"><ele>191.0</ele><time>2026-04-12T05:41:40Z</time></trkpt><trkpt lat="45.612483512779015" lon="9.137178550523062"><ele>191.0</ele><time>2026-04-12T05:41:41Z</time></trkpt><trkpt lat="45.612632085445895" lon="9.137159773958233"><ele>191.0</ele><time>2026-04-12T05:41:42Z</time></trkpt><trkpt lat="45.61277780489329" lon="9.137139665037514"><ele>191.0</ele><time>2026-04-12T05:41:43Z</time></trkpt><trkpt lat="45.61291756144966" lon="9.13711991610766"><ele>191.0</ele><time>2026-04-12T05:41:44Z</time></trkpt><trkpt lat="45.61305706998139" lon="9.13710270876783"><ele>191.0</ele><time>2026-04-12T05:41:45Z</time></trkpt><trkpt lat="45.61318624348836" lon="9.137084705318419"><ele>191.0</ele><time>2026-04-12T05:41:46Z</time></trkpt><trkpt lat="45.613306097099766" lon="9.137069289714018"><ele>191.0</ele><time>2026-04-12T05:41:47Z</time></trkpt><trkpt lat="45.61342251935014" lon="9.13705147196168"><ele>191.0</ele><time>2026-04-12T05:41:48Z</time></trkpt><trkpt lat="45.61353205535214" lon="9.137039859227567"><ele>191.0</ele><time>2026-04-12T05:41:49Z</time></trkpt><trkpt lat="45.61363989905548" lon="9.137028943577691"><ele>191.0</ele><time>2026-04-12T05:41:50Z</time></trkpt><trkpt lat="45.613741163838306" lon="9.137017370119773"><ele>191.0</ele><time>2026-04-12T05:41:51Z</time></trkpt><trkpt lat="45.61384088110478" lon="9.137003170254715"><ele>191.0</ele><time>2026-04-12T05:41:52Z</time></trkpt><trkpt lat="45.61393237461628" lon="9.136989041117127"><ele>191.16666666666666</ele><time>2026-04-12T05:41:53Z</time></trkpt><trkpt lat="45.614015362319236" lon="9.136971264951635"><ele>191.33333333333331</ele><time>2026-04-12T05:41:54Z</time></trkpt><trkpt lat="45.61408384927322" lon="9.136956917919989"><ele>191.5</ele><time>2026-04-12T05:41:55Z</time></trkpt><trkpt lat="45.614187754387416" lon="9.136939935614446"><ele>191.66666666666666</ele><time>2026-04-12T05:41:57Z</time></trkpt><trkpt lat="45.61426281546802" lon="9.136924558462056"><ele>191.83333333333334</ele><time>2026-04-12T05:42:00Z</time></trkpt><trkpt lat="45.61437806633203" lon="9.136914309863995"><ele>192.0</ele><time>2026-04-12T05:42:19Z</time></trkpt><trkpt lat="45.61444645408363" lon="9.136904452801604"><ele>192.2</ele><time>2026-04-12T05:42:20Z</time></trkpt><trkpt lat="45.614522493064605" lon="9.136893492920859"><ele>192.39999999999998</ele><time>2026-04-12T05:42:21Z</time></trkpt><trkpt lat="45.61460951295748" lon="9.136880950298051"><ele>192.60000000000002</ele><time>2026-04-12T05:42:22Z</time></trkpt><trkpt lat="45.61470551846265" lon="9.136866780598774"><ele>192.8</ele><time>2026-04-12T05:42:23Z</time></trkpt><trkpt lat="45.614809394728674" lon="9.136822865969787"><ele>193.0</ele><time>2026-04-12T05:42:24Z</time></trkpt><trkpt lat="45.61491887798805" lon="9.1368082946447"><ele>193.0</ele><time>2026-04-12T05:42:25Z</time></trkpt><trkpt lat="45.61503333465307" lon="9.136798963424702"><ele>193.0</ele><time>2026-04-12T05:42:26Z</time></trkpt><trkpt lat="45.6151583330869" lon="9.136789044889756"><ele>193.0</ele><time>2026-04-12T05:42:27Z</time></trkpt><trkpt lat="45.615283285186074" lon="9.136768882082322"><ele>193.0</ele><time>2026-04-12T05:42:28Z</time></trkpt><trkpt lat="45.615415507236705" lon="9.136751606144847"><ele>193.25</ele><time>2026-04-12T05:42:29Z</time></trkpt><trkpt lat="45.61554695519223" lon="9.136733966365997"><ele>193.5</ele><time>2026-04-12T05:42:30Z</time></trkpt><trkpt lat="45.6156810946219" lon="9.136715634764242"><ele>193.75</ele><time>2026-04-12T05:42:31Z</time></trkpt><trkpt lat="45.61581731354474" lon="9.136697964719415"><ele>194.0</ele><time>2026-04-12T05:42:32Z</time></trkpt><trkpt lat="45.615953340614766" lon="9.136679641510023"><ele>194.0</ele><time>2026-04-12T05:42:33Z</time></trkpt><trkpt lat="45.61608549062149" lon="9.136664178508388"><ele>194.0</ele><time>2026-04-12T05:42:34Z</time></trkpt><trkpt lat="45.61621067756137" lon="9.13665045918103"><ele>194.0</ele><time>2026-04-12T05:42:35Z</time></trkpt><trkpt lat="45.6163296538459" lon="9.136639887720637"><ele>194.0</ele><time>2026-04-12T05:42:36Z</time></trkpt><trkpt lat="45.6164354403925" lon="9.136629330386786"><ele>194.16666666666669</ele><time>2026-04-12T05:42:37Z</time></trkpt><trkpt lat="45.61653286227758" lon="9.136630610907936"><ele>194.33333333333334</ele><time>2026-04-12T05:42:37.999Z</time></trkpt><trkpt lat="45.61661802309883" lon="9.136655907229972"><ele>194.5</ele><time>2026-04-12T05:42:38.999Z</time></trkpt><trkpt lat="45.616692510403524" lon="9.136696861439704"><ele>194.66666666666669</ele><time>2026-04-12T05:42:39.999Z</time></trkpt><trkpt lat="45.616758489663745" lon="9.136765872665837"><ele>194.83333333333334</ele><time>2026-04-12T05:42:40.999Z</time></trkpt><trkpt lat="45.61680993648267" lon="9.136860067760425"><ele>195.0</ele><time>2026-04-12T05:42:41.999Z</time></trkpt><trkpt lat="45.616843603029324" lon="9.136982865009694"><ele>195.0</ele><time>2026-04-12T05:42:42.999Z</time></trkpt><trkpt lat="45.61686031801602" lon="9.137124695179791"><ele>195.0</ele><time>2026-04-12T05:42:43.999Z</time></trkpt><trkpt lat="45.616872924700075" lon="9.137276209898477"><ele>195.0</ele><time>2026-04-12T05:42:44.999Z</time></trkpt><trkpt lat="45.61688317853177" lon="9.137442096643188"><ele>195.0</ele><time>2026-04-12T05:42:45.999Z</time></trkpt><trkpt lat="45.61689191775825" lon="9.137620435030637"><ele>195.0</ele><time>2026-04-12T05:42:46.999Z</time></trkpt><trkpt lat="45.616903351095786" lon="9.137810566855563"><ele>195.0</ele><time>2026-04-12T05:42:47.999Z</time></trkpt><trkpt lat="45.6169145808127" lon="9.138015235340601"><ele>195.0</ele><time>2026-04-12T05:42:48.999Z</time></trkpt><trkpt lat="45.61695926430669" lon="9.138211148596866"><ele>195.0</ele><time>2026-04-12T05:42:49.999Z</time></trkpt><trkpt lat="45.61695011707355" lon="9.138453854523412"><ele>195.0</ele><time>2026-04-12T05:42:50.999Z</time></trkpt><trkpt lat="45.616965049969" lon="9.138691480674991"><ele>195.0</ele><time>2026-04-12T05:42:51.999Z</time></trkpt><trkpt lat="45.61694972714441" lon="9.138939466629829"><ele>195.0</ele><time>2026-04-12T05:42:52.999Z</time></trkpt><trkpt lat="45.616949212849924" lon="9.139192385342305"><ele>194.66666666666669</ele><time>2026-04-12T05:42:53.999Z</time></trkpt><trkpt lat="45.61694813054355" lon="9.139458055481679"><ele>194.33333333333334</ele><time>2026-04-12T05:42:54.999Z</time></trkpt><trkpt lat="45.61694598615619" lon="9.139724278990244"><ele>194.0</ele><time>2026-04-12T05:42:55.999Z</time></trkpt><trkpt lat="45.61694394201627" lon="9.139989415205523"><ele>194.0</ele><time>2026-04-12T05:42:56.999Z</time></trkpt><trkpt lat="45.61695750040621" lon="9.140253242961814"><ele>194.0</ele><time>2026-04-12T05:42:57.999Z</time></trkpt><trkpt lat="45.616948184593156" lon="9.140516854483424"><ele>194.0</ele><time>2026-04-12T05:42:58.999Z</time></trkpt><trkpt lat="45.61694354943199" lon="9.140775187768634"><ele>194.33333333333334</ele><time>2026-04-12T05:42:59.999Z</time></trkpt><trkpt lat="45.61694391895512" lon="9.14102698235411"><ele>194.66666666666669</ele><time>2026-04-12T05:43:00.999Z</time></trkpt><trkpt lat="45.61694761297329" lon="9.14127271316447"><ele>195.0</ele><time>2026-04-12T05:43:01.999Z</time></trkpt><trkpt lat="45.616948395508196" lon="9.141513469046963"><ele>194.33333333333331</ele><time>2026-04-12T05:43:02.999Z</time></trkpt><trkpt lat="45.6169472582735" lon="9.14175388226855"><ele>193.66666666666666</ele><time>2026-04-12T05:43:03.999Z</time></trkpt><trkpt lat="45.61694571289433" lon="9.141992764069228"><ele>193.0</ele><time>2026-04-12T05:43:04.999Z</time></trkpt><trkpt lat="45.616941584228066" lon="9.142231653450432"><ele>193.0</ele><time>2026-04-12T05:43:05.999Z</time></trkpt><trkpt lat="45.616936993549174" lon="9.142476822940958"><ele>193.0</ele><time>2026-04-12T05:43:06.999Z</time></trkpt><trkpt lat="45.616932671112046" lon="9.14272472133909"><ele>193.0</ele><time>2026-04-12T05:43:07.999Z</time></trkpt><trkpt lat="45.61692799069779" lon="9.142975940325707"><ele>192.66666666666666</ele><time>2026-04-12T05:43:08.999Z</time></trkpt><trkpt lat="45.616922018299285" lon="9.143227344202431"><ele>192.33333333333331</ele><time>2026-04-12T05:43:09.999Z</time></trkpt><trkpt lat="45.61691991873188" lon="9.14347958629014"><ele>192.0</ele><time>2026-04-12T05:43:10.999Z</time></trkpt><trkpt lat="45.616914933278025" lon="9.143730616778386"><ele>192.0</ele><time>2026-04-12T05:43:11.999Z</time></trkpt><trkpt lat="45.61691311711929" lon="9.143982998431788"><ele>192.0</ele><time>2026-04-12T05:43:12.999Z</time></trkpt><trkpt lat="45.616911152579675" lon="9.144225459351901"><ele>192.0</ele><time>2026-04-12T05:43:13.999Z</time></trkpt><trkpt lat="45.61690784283097" lon="9.144463803286074"><ele>192.33333333333331</ele><time>2026-04-12T05:43:14.999Z</time></trkpt><trkpt lat="45.61690482928946" lon="9.144695557122954"><ele>192.66666666666666</ele><time>2026-04-12T05:43:15.999Z</time></trkpt><trkpt lat="45.6169036357913" lon="9.144917220553106"><ele>193.0</ele><time>2026-04-12T05:43:16.999Z</time></trkpt><trkpt lat="45.616903342784816" lon="9.145122783007086"><ele>193.0</ele><time>2026-04-12T05:43:17.999Z</time></trkpt><trkpt lat="45.61690142133896" lon="9.145313073115966"><ele>193.0</ele><time>2026-04-12T05:43:18.999Z</time></trkpt><trkpt lat="45.616900222676946" lon="9.145482974375483"><ele>193.0</ele><time>2026-04-12T05:43:19.999Z</time></trkpt><trkpt lat="45.616899946462354" lon="9.145629301918104"><ele>193.0</ele><time>2026-04-12T05:43:20.999Z</time></trkpt><trkpt lat="45.616899159366014" lon="9.14575092764113"><ele>193.0</ele><time>2026-04-12T05:43:21.999Z</time></trkpt><trkpt lat="45.61689978515008" lon="9.145845959154148"><ele>192.99999999999997</ele><time>2026-04-12T05:43:22.999Z</time></trkpt><trkpt lat="45.61690032260782" lon="9.145983828706441"><ele>193.0</ele><time>2026-04-12T05:43:24.999Z</time></trkpt><trkpt lat="45.61689947685979" lon="9.146087134004738"><ele>193.0</ele><time>2026-04-12T05:43:27.999Z</time></trkpt><trkpt lat="45.616873318356305" lon="9.14617432707865"><ele>193.0</ele><time>2026-04-12T05:44:01Z</time></trkpt><trkpt lat="45.61687710790529" lon="9.146291237139046"><ele>192.99999999999997</ele><time>2026-04-12T05:44:03Z</time></trkpt><trkpt lat="45.616879349488336" lon="9.146457205112286"><ele>193.0</ele><time>2026-04-12T05:44:05Z</time></trkpt><trkpt lat="45.61687638809444" lon="9.146556848515441"><ele>193.0</ele><time>2026-04-12T05:44:06Z</time></trkpt><trkpt lat="45.616876078963024" lon="9.146671655219247"><ele>193.0</ele><time>2026-04-12T05:44:07Z</time></trkpt><trkpt lat="45.616877755811224" lon="9.146793624356592"><ele>193.0</ele><time>2026-04-12T05:44:08Z</time></trkpt><trkpt lat="45.61687599040048" lon="9.146933801875587"><ele>193.0</ele><time>2026-04-12T05:44:09Z</time></trkpt><trkpt lat="45.616875804701166" lon="9.147080082726495"><ele>193.0</ele><time>2026-04-12T05:44:10Z</time></trkpt><trkpt lat="45.61687394778274" lon="9.147238933240743"><ele>193.0</ele><time>2026-04-12T05:44:11Z</time></trkpt><trkpt lat="45.616874087609595" lon="9.14739986582994"><ele>193.0</ele><time>2026-04-12T05:44:12Z</time></trkpt><trkpt lat="45.61687557870621" lon="9.147565880023954"><ele>193.0</ele><time>2026-04-12T05:44:13Z</time></trkpt><trkpt lat="45.6168740566586" lon="9.147734038594246"><ele>193.0</ele><time>2026-04-12T05:44:14Z</time></trkpt><trkpt lat="45.61686964596445" lon="9.147903142774396"><ele>193.0</ele><time>2026-04-12T05:44:15Z</time></trkpt><trkpt lat="45.61686605795517" lon="9.148069214023224"><ele>193.0</ele><time>2026-04-12T05:44:16Z</time></trkpt><trkpt lat="45.61686425462973" lon="9.148238098932358"><ele>193.0</ele><time>2026-04-12T05:44:17Z</time></trkpt><trkpt lat="45.61686302169861" lon="9.148406531417795"><ele>193.0</ele><time>2026-04-12T05:44:18Z</time></trkpt><trkpt lat="45.61686432722621" lon="9.148572919068666"><ele>192.75</ele><time>2026-04-12T05:44:19Z</time></trkpt><trkpt lat="45.616863174159995" lon="9.148746187688316"><ele>192.5</ele><time>2026-04-12T05:44:20Z</time></trkpt><trkpt lat="45.616861728434564" lon="9.148925490341412"><ele>192.25</ele><time>2026-04-12T05:44:21Z</time></trkpt><trkpt lat="45.61686190297408" lon="9.149106007272007"><ele>192.0</ele><time>2026-04-12T05:44:22Z</time></trkpt><trkpt lat="45.616864167395626" lon="9.149286008304456"><ele>192.0</ele><time>2026-04-12T05:44:23Z</time></trkpt><trkpt lat="45.616871741321205" lon="9.149464489352997"><ele>192.0</ele><time>2026-04-12T05:44:24Z</time></trkpt><trkpt lat="45.61688166899583" lon="9.149639395067554"><ele>192.0</ele><time>2026-04-12T05:44:25Z</time></trkpt><trkpt lat="45.61689907758389" lon="9.149810546495523"><ele>192.0</ele><time>2026-04-12T05:44:26Z</time></trkpt><trkpt lat="45.61692398487757" lon="9.14997692876511"><ele>192.2</ele><time>2026-04-12T05:44:27Z</time></trkpt><trkpt lat="45.616947527307325" lon="9.15012844107987"><ele>192.39999999999998</ele><time>2026-04-12T05:44:28Z</time></trkpt><trkpt lat="45.61697130097106" lon="9.150262209378718"><ele>192.60000000000002</ele><time>2026-04-12T05:44:29Z</time></trkpt><trkpt lat="45.616997742410746" lon="9.150387680010889"><ele>192.8</ele><time>2026-04-12T05:44:30Z</time></trkpt><trkpt lat="45.617022476472584" lon="9.15050449645773"><ele>193.0</ele><time>2026-04-12T05:44:31Z</time></trkpt><trkpt lat="45.61704576942926" lon="9.150614047100392"><ele>193.14285714285717</ele><time>2026-04-12T05:44:32Z</time></trkpt><trkpt lat="45.61706934187053" lon="9.150718434162137"><ele>193.28571428571428</ele><time>2026-04-12T05:44:33Z</time></trkpt><trkpt lat="45.617091689269174" lon="9.150814154411842"><ele>193.42857142857144</ele><time>2026-04-12T05:44:34Z</time></trkpt><trkpt lat="45.61711124163273" lon="9.150906672229087"><ele>193.57142857142858</ele><time>2026-04-12T05:44:35Z</time></trkpt><trkpt lat="45.61713166331609" lon="9.150998507064596"><ele>193.71428571428572</ele><time>2026-04-12T05:44:36Z</time></trkpt><trkpt lat="45.61715175284246" lon="9.151089492737128"><ele>193.85714285714286</ele><time>2026-04-12T05:44:37Z</time></trkpt><trkpt lat="45.617172149820966" lon="9.151186296036766"><ele>194.0</ele><time>2026-04-12T05:44:38Z</time></trkpt><trkpt lat="45.61719316379937" lon="9.151285092661368"><ele>194.0</ele><time>2026-04-12T05:44:39Z</time></trkpt><trkpt lat="45.61721875644275" lon="9.151394963993132"><ele>194.0</ele><time>2026-04-12T05:44:40Z</time></trkpt><trkpt lat="45.61724577825089" lon="9.151512575754204"><ele>194.0</ele><time>2026-04-12T05:44:41Z</time></trkpt><trkpt lat="45.617274631839265" lon="9.15164116463544"><ele>194.0</ele><time>2026-04-12T05:44:42Z</time></trkpt><trkpt lat="45.61730392746857" lon="9.151780759390736"><ele>194.0</ele><time>2026-04-12T05:44:43Z</time></trkpt><trkpt lat="45.6173361816561" lon="9.151931558106982"><ele>194.0</ele><time>2026-04-12T05:44:44Z</time></trkpt><trkpt lat="45.61736949438356" lon="9.152091949392764"><ele>194.0</ele><time>2026-04-12T05:44:45Z</time></trkpt><trkpt lat="45.617404395674086" lon="9.152261894624669"><ele>194.0</ele><time>2026-04-12T05:44:46Z</time></trkpt><trkpt lat="45.61744273949279" lon="9.152439766236549"><ele>194.0</ele><time>2026-04-12T05:44:46.999Z</time></trkpt><trkpt lat="45.6174825946282" lon="9.15262544126199"><ele>194.0</ele><time>2026-04-12T05:44:47.999Z</time></trkpt><trkpt lat="45.61752052067539" lon="9.152822354015399"><ele>194.0</ele><time>2026-04-12T05:44:48.999Z</time></trkpt><trkpt lat="45.61756489078488" lon="9.153024695248638"><ele>194.0</ele><time>2026-04-12T05:44:49.999Z</time></trkpt><trkpt lat="45.617608625268254" lon="9.153240119306224"><ele>194.0</ele><time>2026-04-12T05:44:50.999Z</time></trkpt><trkpt lat="45.617653760245084" lon="9.153459992718505"><ele>193.66666666666669</ele><time>2026-04-12T05:44:51.999Z</time></trkpt><trkpt lat="45.61770179947745" lon="9.153682051867694"><ele>193.33333333333331</ele><time>2026-04-12T05:44:52.999Z</time></trkpt><trkpt lat="45.617744781932366" lon="9.153908764241173"><ele>193.0</ele><time>2026-04-12T05:44:53.999Z</time></trkpt><trkpt lat="45.61779721105714" lon="9.1541404653013"><ele>193.66666666666666</ele><time>2026-04-12T05:44:54.999Z</time></trkpt><trkpt lat="45.61784461033573" lon="9.154375684536173"><ele>194.33333333333331</ele><time>2026-04-12T05:44:55.999Z</time></trkpt><trkpt lat="45.617886081285384" lon="9.154608607511364"><ele>195.0</ele><time>2026-04-12T05:44:56.999Z</time></trkpt><trkpt lat="45.61792572464158" lon="9.154842608488535"><ele>194.66666666666669</ele><time>2026-04-12T05:44:57.999Z</time></trkpt><trkpt lat="45.61796243309844" lon="9.155076779452383"><ele>194.33333333333334</ele><time>2026-04-12T05:44:58.999Z</time></trkpt><trkpt lat="45.61799628827716" lon="9.15531229607496"><ele>194.0</ele><time>2026-04-12T05:44:59.999Z</time></trkpt><trkpt lat="45.618030866116385" lon="9.155549472071957"><ele>193.66666666666669</ele><time>2026-04-12T05:45:00.999Z</time></trkpt><trkpt lat="45.618064713713935" lon="9.15578292336062"><ele>193.33333333333331</ele><time>2026-04-12T05:45:01.999Z</time></trkpt><trkpt lat="45.618098758972664" lon="9.156014475374882"><ele>193.0</ele><time>2026-04-12T05:45:02.999Z</time></trkpt><trkpt lat="45.61813280626529" lon="9.15624735393295"><ele>193.0</ele><time>2026-04-12T05:45:03.999Z</time></trkpt><trkpt lat="45.618169912146904" lon="9.156476857036834"><ele>193.0</ele><time>2026-04-12T05:45:04.999Z</time></trkpt><trkpt lat="45.61820487447441" lon="9.156705974644431"><ele>193.0</ele><time>2026-04-12T05:45:05.999Z</time></trkpt><trkpt lat="45.61824070618753" lon="9.156932929069699"><ele>193.33333333333331</ele><time>2026-04-12T05:45:06.999Z</time></trkpt><trkpt lat="45.61827449592875" lon="9.157159858360796"><ele>193.66666666666669</ele><time>2026-04-12T05:45:07.999Z</time></trkpt><trkpt lat="45.61830639800377" lon="9.157384117395573"><ele>194.0</ele><time>2026-04-12T05:45:08.999Z</time></trkpt><trkpt lat="45.61833711525418" lon="9.157605951472474"><ele>194.66666666666669</ele><time>2026-04-12T05:45:09.999Z</time></trkpt><trkpt lat="45.618369002878815" lon="9.15782317419588"><ele>195.33333333333331</ele><time>2026-04-12T05:45:10.999Z</time></trkpt><trkpt lat="45.618400074099334" lon="9.158038130396186"><ele>196.0</ele><time>2026-04-12T05:45:11.999Z</time></trkpt><trkpt lat="45.6184347099226" lon="9.158244421033732"><ele>196.25</ele><time>2026-04-12T05:45:12.999Z</time></trkpt><trkpt lat="45.618464992669644" lon="9.158448931306877"><ele>196.5</ele><time>2026-04-12T05:45:13.999Z</time></trkpt><trkpt lat="45.618494230946574" lon="9.15864246280116"><ele>196.75</ele><time>2026-04-12T05:45:14.999Z</time></trkpt><trkpt lat="45.618520929485044" lon="9.158820267478479"><ele>197.0</ele><time>2026-04-12T05:45:15.999Z</time></trkpt><trkpt lat="45.61854347146323" lon="9.158979886829389"><ele>197.00000000000003</ele><time>2026-04-12T05:45:16.999Z</time></trkpt><trkpt lat="45.61856198151531" lon="9.159121705981502"><ele>197.0</ele><time>2026-04-12T05:45:17.999Z</time></trkpt><trkpt lat="45.618571357371906" lon="9.159258530662134"><ele>197.0</ele><time>2026-04-12T05:45:18.999Z</time></trkpt><trkpt lat="45.61856334121706" lon="9.159384207353401"><ele>197.0</ele><time>2026-04-12T05:45:19.999Z</time></trkpt><trkpt lat="45.61854622735503" lon="9.159490336454418"><ele>197.00000000000003</ele><time>2026-04-12T05:45:20.999Z</time></trkpt><trkpt lat="45.618540350706354" lon="9.159601641468742"><ele>197.0</ele><time>2026-04-12T05:45:21.999Z</time></trkpt><trkpt lat="45.618567677298245" lon="9.159714625705444"><ele>197.0</ele><time>2026-04-12T05:45:22.999Z</time></trkpt><trkpt lat="45.61862099929891" lon="9.159825468104412"><ele>197.0</ele><time>2026-04-12T05:45:23.999Z</time></trkpt><trkpt lat="45.61867805129044" lon="9.159923149381019"><ele>197.0</ele><time>2026-04-12T05:45:24.999Z</time></trkpt><trkpt lat="45.618712356023856" lon="9.160060270969817"><ele>197.0</ele><time>2026-04-12T05:45:25.999Z</time></trkpt><trkpt lat="45.6187273530651" lon="9.160216420835273"><ele>197.0</ele><time>2026-04-12T05:45:26.999Z</time></trkpt><trkpt lat="45.61873608914832" lon="9.160381783200036"><ele>197.0</ele><time>2026-04-12T05:45:27.999Z</time></trkpt><trkpt lat="45.618744761652344" lon="9.160554734303496"><ele>197.0</ele><time>2026-04-12T05:45:28.999Z</time></trkpt><trkpt lat="45.618747928708835" lon="9.160736377612936"><ele>197.0</ele><time>2026-04-12T05:45:29.999Z</time></trkpt><trkpt lat="45.618753858286624" lon="9.160921271370773"><ele>197.0</ele><time>2026-04-12T05:45:30.999Z</time></trkpt><trkpt lat="45.61876253817374" lon="9.161108981563027"><ele>197.0</ele><time>2026-04-12T05:45:31.999Z</time></trkpt><trkpt lat="45.61876971291536" lon="9.16129844643811"><ele>197.0</ele><time>2026-04-12T05:45:32.999Z</time></trkpt><trkpt lat="45.618770192871075" lon="9.161487091251763"><ele>197.0</ele><time>2026-04-12T05:45:33.999Z</time></trkpt><trkpt lat="45.61877743730041" lon="9.161681456938826"><ele>197.0</ele><time>2026-04-12T05:45:34.999Z</time></trkpt><trkpt lat="45.61878317657992" lon="9.161877004066568"><ele>197.25</ele><time>2026-04-12T05:45:35.999Z</time></trkpt><trkpt lat="45.61879094056306" lon="9.16207841069881"><ele>197.5</ele><time>2026-04-12T05:45:37Z</time></trkpt><trkpt lat="45.618798211503695" lon="9.162284385582037"><ele>197.75</ele><time>2026-04-12T05:45:38Z</time></trkpt><trkpt lat="45.61880133441151" lon="9.162490353148382"><ele>198.0</ele><time>2026-04-12T05:45:39Z</time></trkpt><trkpt lat="45.61880665600655" lon="9.16270310567461"><ele>198.0</ele><time>2026-04-12T05:45:40Z</time></trkpt><trkpt lat="45.61881581762248" lon="9.162916428514118"><ele>198.0</ele><time>2026-04-12T05:45:41Z</time></trkpt><trkpt lat="45.61882119768431" lon="9.163135681724007"><ele>198.0</ele><time>2026-04-12T05:45:42Z</time></trkpt><trkpt lat="45.61882691062037" lon="9.163357052916952"><ele>198.0</ele><time>2026-04-12T05:45:43Z</time></trkpt><trkpt lat="45.618831964226636" lon="9.163578834771034"><ele>198.0</ele><time>2026-04-12T05:45:44Z</time></trkpt><trkpt lat="45.61884279481482" lon="9.163801277707137"><ele>198.0</ele><time>2026-04-12T05:45:45Z</time></trkpt><trkpt lat="45.618847478609595" lon="9.164025087776585"><ele>198.0</ele><time>2026-04-12T05:45:46Z</time></trkpt><trkpt lat="45.61885702995575" lon="9.164250278820768"><ele>198.0</ele><time>2026-04-12T05:45:47Z</time></trkpt><trkpt lat="45.61886091341475" lon="9.164477552248362"><ele>198.0</ele><time>2026-04-12T05:45:48Z</time></trkpt><trkpt lat="45.61887338444316" lon="9.164707146697253"><ele>197.66666666666669</ele><time>2026-04-12T05:45:49Z</time></trkpt><trkpt lat="45.61888021568682" lon="9.164939759364431"><ele>197.33333333333334</ele><time>2026-04-12T05:45:50Z</time></trkpt><trkpt lat="45.618887475706124" lon="9.165174655946108"><ele>197.0</ele><time>2026-04-12T05:45:51Z</time></trkpt><trkpt lat="45.61889552442326" lon="9.165410206966985"><ele>197.0</ele><time>2026-04-12T05:45:52Z</time></trkpt><trkpt lat="45.61890189248882" lon="9.16564490174059"><ele>197.0</ele><time>2026-04-12T05:45:53Z</time></trkpt><trkpt lat="45.61890981087813" lon="9.165879584055288"><ele>197.0</ele><time>2026-04-12T05:45:54Z</time></trkpt><trkpt lat="45.61892052404963" lon="9.166116818608307"><ele>197.33333333333334</ele><time>2026-04-12T05:45:55Z</time></trkpt><trkpt lat="45.61894222085168" lon="9.166356627848167"><ele>197.66666666666669</ele><time>2026-04-12T05:45:56Z</time></trkpt><trkpt lat="45.61897674447729" lon="9.166595598047154"><ele>198.0</ele><time>2026-04-12T05:45:57Z</time></trkpt><trkpt lat="45.61902193447236" lon="9.166837958977458"><ele>198.33333333333331</ele><time>2026-04-12T05:45:58Z</time></trkpt><trkpt lat="45.61908263110774" lon="9.167078650558569"><ele>198.66666666666666</ele><time>2026-04-12T05:45:59Z</time></trkpt><trkpt lat="45.6191536124578" lon="9.16731749089263"><ele>199.0</ele><time>2026-04-12T05:46:00Z</time></trkpt><trkpt lat="45.619235419675704" lon="9.167554279632721"><ele>199.0</ele><time>2026-04-12T05:46:01Z</time></trkpt><trkpt lat="45.61932751451377" lon="9.167787910451763"><ele>199.0</ele><time>2026-04-12T05:46:02Z</time></trkpt><trkpt lat="45.61943277235554" lon="9.168008938041416"><ele>199.0</ele><time>2026-04-12T05:46:03Z</time></trkpt><trkpt lat="45.619549070757955" lon="9.168221650981163"><ele>199.0</ele><time>2026-04-12T05:46:04Z</time></trkpt><trkpt lat="45.61967732975452" lon="9.168424057806764"><ele>199.0</ele><time>2026-04-12T05:46:05Z</time></trkpt><trkpt lat="45.619812394545214" lon="9.168619947687194"><ele>199.0</ele><time>2026-04-12T05:46:06Z</time></trkpt><trkpt lat="45.6199513306667" lon="9.168811916339859"><ele>199.0</ele><time>2026-04-12T05:46:07Z</time></trkpt><trkpt lat="45.620093260911375" lon="9.169004735014724"><ele>199.0</ele><time>2026-04-12T05:46:08Z</time></trkpt><trkpt lat="45.620232833490704" lon="9.169201509296665"><ele>199.0</ele><time>2026-04-12T05:46:09Z</time></trkpt><trkpt lat="45.620371904766756" lon="9.16939709036674"><ele>199.0</ele><time>2026-04-12T05:46:10Z</time></trkpt><trkpt lat="45.620507200287975" lon="9.16958211732133"><ele>199.0</ele><time>2026-04-12T05:46:11Z</time></trkpt><trkpt lat="45.62064214090153" lon="9.169765693337132"><ele>199.0</ele><time>2026-04-12T05:46:12Z</time></trkpt><trkpt lat="45.62077119182128" lon="9.169941084539035"><ele>199.0</ele><time>2026-04-12T05:46:13Z</time></trkpt><trkpt lat="45.62089866002062" lon="9.170112923880032"><ele>199.0</ele><time>2026-04-12T05:46:14Z</time></trkpt><trkpt lat="45.62102178243827" lon="9.170275745987082"><ele>199.0</ele><time>2026-04-12T05:46:15Z</time></trkpt><trkpt lat="45.62113365025274" lon="9.17043185752638"><ele>199.0</ele><time>2026-04-12T05:46:16Z</time></trkpt><trkpt lat="45.621246580428284" lon="9.17058226402096"><ele>199.0</ele><time>2026-04-12T05:46:17Z</time></trkpt><trkpt lat="45.62135186046283" lon="9.17072953861128"><ele>199.0</ele><time>2026-04-12T05:46:18Z</time></trkpt><trkpt lat="45.62145270918349" lon="9.170876635232032"><ele>199.0</ele><time>2026-04-12T05:46:19Z</time></trkpt><trkpt lat="45.62155067580534" lon="9.171033722189172"><ele>199.0</ele><time>2026-04-12T05:46:20Z</time></trkpt><trkpt lat="45.621646125153745" lon="9.171189049112817"><ele>199.0</ele><time>2026-04-12T05:46:21Z</time></trkpt><trkpt lat="45.62174117602631" lon="9.17134459937568"><ele>199.0</ele><time>2026-04-12T05:46:22Z</time></trkpt><trkpt lat="45.62183416322328" lon="9.171500026166399"><ele>199.0</ele><time>2026-04-12T05:46:23Z</time></trkpt><trkpt lat="45.621924725447236" lon="9.17165664227637"><ele>199.0</ele><time>2026-04-12T05:46:24Z</time></trkpt><trkpt lat="45.62202197790991" lon="9.171818280129944"><ele>199.0</ele><time>2026-04-12T05:46:25Z</time></trkpt><trkpt lat="45.622121814721396" lon="9.171978687072388"><ele>199.0</ele><time>2026-04-12T05:46:26Z</time></trkpt><trkpt lat="45.622218187354584" lon="9.172143662456314"><ele>199.0</ele><time>2026-04-12T05:46:27Z</time></trkpt><trkpt lat="45.62230527726065" lon="9.172322615684237"><ele>199.0</ele><time>2026-04-12T05:46:28Z</time></trkpt><trkpt lat="45.6223778713409" lon="9.172513068845822"><ele>199.0</ele><time>2026-04-12T05:46:29Z</time></trkpt><trkpt lat="45.62243135966167" lon="9.172710682500144"><ele>198.5</ele><time>2026-04-12T05:46:30Z</time></trkpt><trkpt lat="45.62246939024343" lon="9.172914030777884"><ele>198.0</ele><time>2026-04-12T05:46:31Z</time></trkpt><trkpt lat="45.62249439025159" lon="9.173117744825934"><ele>197.5</ele><time>2026-04-12T05:46:32Z</time></trkpt><trkpt lat="45.622508795653204" lon="9.173317693246936"><ele>197.0</ele><time>2026-04-12T05:46:33Z</time></trkpt><trkpt lat="45.62252173851969" lon="9.173515343494024"><ele>197.0</ele><time>2026-04-12T05:46:34Z</time></trkpt><trkpt lat="45.62253607380742" lon="9.173720285135142"><ele>197.0</ele><time>2026-04-12T05:46:35Z</time></trkpt><trkpt lat="45.6225519495458" lon="9.173922625473375"><ele>197.0</ele><time>2026-04-12T05:46:36Z</time></trkpt><trkpt lat="45.62255214373271" lon="9.174133531042994"><ele>197.0</ele><time>2026-04-12T05:46:37Z</time></trkpt><trkpt lat="45.62257014033609" lon="9.174345927930359"><ele>197.25</ele><time>2026-04-12T05:46:38Z</time></trkpt><trkpt lat="45.62258460841025" lon="9.174558588209688"><ele>197.5</ele><time>2026-04-12T05:46:39Z</time></trkpt><trkpt lat="45.62259993854813" lon="9.174769741799745"><ele>197.75</ele><time>2026-04-12T05:46:40Z</time></trkpt><trkpt lat="45.62261137016933" lon="9.174978555643087"><ele>198.0</ele><time>2026-04-12T05:46:41Z</time></trkpt><trkpt lat="45.622624939686126" lon="9.175181559399048"><ele>198.5</ele><time>2026-04-12T05:46:42Z</time></trkpt><trkpt lat="45.62264032341917" lon="9.17538263936075"><ele>199.0</ele><time>2026-04-12T05:46:43Z</time></trkpt><trkpt lat="45.622654385301786" lon="9.175584120176778"><ele>199.5</ele><time>2026-04-12T05:46:44Z</time></trkpt><trkpt lat="45.622666761805206" lon="9.175781936867683"><ele>200.0</ele><time>2026-04-12T05:46:45Z</time></trkpt><trkpt lat="45.62268006910651" lon="9.175977027710799"><ele>200.0</ele><time>2026-04-12T05:46:46Z</time></trkpt><trkpt lat="45.6226940136149" lon="9.176170819203396"><ele>200.0</ele><time>2026-04-12T05:46:47Z</time></trkpt><trkpt lat="45.622706618866204" lon="9.176361516047582"><ele>200.0</ele><time>2026-04-12T05:46:48Z</time></trkpt><trkpt lat="45.62272145407304" lon="9.176547991826725"><ele>200.0</ele><time>2026-04-12T05:46:49Z</time></trkpt><trkpt lat="45.62273471024777" lon="9.176736526443158"><ele>200.0</ele><time>2026-04-12T05:46:50Z</time></trkpt><trkpt lat="45.62274334861411" lon="9.176929171966924"><ele>200.0</ele><time>2026-04-12T05:46:51Z</time></trkpt><trkpt lat="45.62275659240972" lon="9.177121693792921"><ele>200.0</ele><time>2026-04-12T05:46:52Z</time></trkpt><trkpt lat="45.62277196916428" lon="9.177313639068005"><ele>200.0</ele><time>2026-04-12T05:46:53Z</time></trkpt><trkpt lat="45.6227858712576" lon="9.177508617209636"><ele>200.25</ele><time>2026-04-12T05:46:54Z</time></trkpt><trkpt lat="45.62279925291827" lon="9.177706329798852"><ele>200.5</ele><time>2026-04-12T05:46:55Z</time></trkpt><trkpt lat="45.62281204360041" lon="9.177898110877008"><ele>200.75</ele><time>2026-04-12T05:46:56Z</time></trkpt><trkpt lat="45.62282319416293" lon="9.178078683960866"><ele>201.0</ele><time>2026-04-12T05:46:57Z</time></trkpt><trkpt lat="45.622837104028434" lon="9.178259364090454"><ele>201.0</ele><time>2026-04-12T05:46:58Z</time></trkpt><trkpt lat="45.62285232754548" lon="9.178433941007963"><ele>201.0</ele><time>2026-04-12T05:46:59Z</time></trkpt><trkpt lat="45.622865030046604" lon="9.17860567438301"><ele>201.0</ele><time>2026-04-12T05:47:00Z</time></trkpt><trkpt lat="45.62287777484242" lon="9.178770591569066"><ele>201.0</ele><time>2026-04-12T05:47:01Z</time></trkpt><trkpt lat="45.62289039258457" lon="9.178931197379324"><ele>200.5</ele><time>2026-04-12T05:47:02Z</time></trkpt><trkpt lat="45.62290445476755" lon="9.179098021836065"><ele>200.0</ele><time>2026-04-12T05:47:03Z</time></trkpt><trkpt lat="45.62291603035214" lon="9.179259207746327"><ele>199.5</ele><time>2026-04-12T05:47:03.999Z</time></trkpt><trkpt lat="45.6229171837246" lon="9.179436474273377"><ele>199.0</ele><time>2026-04-12T05:47:04.999Z</time></trkpt><trkpt lat="45.62292741731497" lon="9.179597640982772"><ele>199.0</ele><time>2026-04-12T05:47:05.999Z</time></trkpt><trkpt lat="45.62293970985963" lon="9.17976547471402"><ele>199.0</ele><time>2026-04-12T05:47:06.999Z</time></trkpt><trkpt lat="45.622954388838195" lon="9.179930131169998"><ele>199.0</ele><time>2026-04-12T05:47:07.999Z</time></trkpt><trkpt lat="45.62296688197774" lon="9.180089859916004"><ele>199.0</ele><time>2026-04-12T05:47:08.999Z</time></trkpt><trkpt lat="45.622979655672374" lon="9.180250949742582"><ele>198.79999999999998</ele><time>2026-04-12T05:47:09.999Z</time></trkpt><trkpt lat="45.62299282314439" lon="9.180406937990256"><ele>198.6</ele><time>2026-04-12T05:47:10.999Z</time></trkpt><trkpt lat="45.62300293991441" lon="9.180563413334154"><ele>198.4</ele><time>2026-04-12T05:47:11.999Z</time></trkpt><trkpt lat="45.62301351800376" lon="9.180710602937713"><ele>198.2</ele><time>2026-04-12T05:47:12.999Z</time></trkpt><trkpt lat="45.623025007391085" lon="9.180866435069372"><ele>198.0</ele><time>2026-04-12T05:47:13.999Z</time></trkpt><trkpt lat="45.62303650565921" lon="9.181016759700016"><ele>198.0</ele><time>2026-04-12T05:47:14.999Z</time></trkpt><trkpt lat="45.62304807339286" lon="9.18114941587612"><ele>198.0</ele><time>2026-04-12T05:47:15.999Z</time></trkpt><trkpt lat="45.623060226375344" lon="9.181270636781258"><ele>198.0</ele><time>2026-04-12T05:47:16.999Z</time></trkpt><trkpt lat="45.623068618489555" lon="9.181375427163694"><ele>198.0</ele><time>2026-04-12T05:47:17.999Z</time></trkpt><trkpt lat="45.62307230961019" lon="9.1814696010011"><ele>198.0</ele><time>2026-04-12T05:47:18.999Z</time></trkpt><trkpt lat="45.62307772388787" lon="9.181563805310537"><ele>198.0</ele><time>2026-04-12T05:47:19.999Z</time></trkpt><trkpt lat="45.62309185729015" lon="9.181741610981145"><ele>198.0</ele><time>2026-04-12T05:47:21.999Z</time></trkpt><trkpt lat="45.623098210730944" lon="9.181834479187689"><ele>198.0</ele><time>2026-04-12T05:47:22.999Z</time></trkpt><trkpt lat="45.62310388165245" lon="9.181934134492273"><ele>198.0</ele><time>2026-04-12T05:47:23.999Z</time></trkpt><trkpt lat="45.62311024264611" lon="9.182040108383934"><ele>198.0</ele><time>2026-04-12T05:47:24.999Z</time></trkpt><trkpt lat="45.623117157487435" lon="9.182151833327913"><ele>198.0</ele><time>2026-04-12T05:47:25.999Z</time></trkpt><trkpt lat="45.623128285599115" lon="9.182266243123216"><ele>198.0</ele><time>2026-04-12T05:47:26.999Z</time></trkpt><trkpt lat="45.62314066143652" lon="9.182396328049403"><ele>198.0</ele><time>2026-04-12T05:47:27.999Z</time></trkpt><trkpt lat="45.62315096154249" lon="9.182513221547666"><ele>198.0</ele><time>2026-04-12T05:47:28.999Z</time></trkpt><trkpt lat="45.62316171995467" lon="9.182641042145988"><ele>198.0</ele><time>2026-04-12T05:47:29.999Z</time></trkpt><trkpt lat="45.62317222516981" lon="9.182772881347937"><ele>198.0</ele><time>2026-04-12T05:47:30.999Z</time></trkpt><trkpt lat="45.62318143587718" lon="9.182909413323618"><ele>198.0</ele><time>2026-04-12T05:47:31.999Z</time></trkpt><trkpt lat="45.62319028234625" lon="9.18305481639966"><ele>198.2</ele><time>2026-04-12T05:47:32.999Z</time></trkpt><trkpt lat="45.62320005488908" lon="9.183206519347534"><ele>198.4</ele><time>2026-04-12T05:47:33.999Z</time></trkpt><trkpt lat="45.623211906421865" lon="9.183364137599419"><ele>198.6</ele><time>2026-04-12T05:47:34.999Z</time></trkpt><trkpt lat="45.62322194695483" lon="9.183517829709848"><ele>198.79999999999998</ele><time>2026-04-12T05:47:35.999Z</time></trkpt><trkpt lat="45.62323337792154" lon="9.18366723581688"><ele>199.0</ele><time>2026-04-12T05:47:36.999Z</time></trkpt><trkpt lat="45.62324464785387" lon="9.183814703352676"><ele>199.0</ele><time>2026-04-12T05:47:37.999Z</time></trkpt><trkpt lat="45.62325621554591" lon="9.183961396127938"><ele>199.0</ele><time>2026-04-12T05:47:38.999Z</time></trkpt><trkpt lat="45.62326871868587" lon="9.184108276119433"><ele>199.0</ele><time>2026-04-12T05:47:39.999Z</time></trkpt><trkpt lat="45.62328207900796" lon="9.184253695322763"><ele>199.0</ele><time>2026-04-12T05:47:40.999Z</time></trkpt><trkpt lat="45.62329545841062" lon="9.184404454839084"><ele>199.0</ele><time>2026-04-12T05:47:41.999Z</time></trkpt><trkpt lat="45.62330553631711" lon="9.184560209379086"><ele>199.0</ele><time>2026-04-12T05:47:43Z</time></trkpt><trkpt lat="45.623308006358826" lon="9.184722732226696"><ele>199.0</ele><time>2026-04-12T05:47:44Z</time></trkpt><trkpt lat="45.6233196026428" lon="9.184893339084784"><ele>199.0</ele><time>2026-04-12T05:47:45Z</time></trkpt><trkpt lat="45.62333149086054" lon="9.185066459461424"><ele>199.0</ele><time>2026-04-12T05:47:46Z</time></trkpt><trkpt lat="45.62334356306432" lon="9.185250973997041"><ele>199.0</ele><time>2026-04-12T05:47:47Z</time></trkpt><trkpt lat="45.62335393727025" lon="9.185444562664241"><ele>199.0</ele><time>2026-04-12T05:47:48Z</time></trkpt><trkpt lat="45.62336896899624" lon="9.185646593830727"><ele>199.0</ele><time>2026-04-12T05:47:49Z</time></trkpt><trkpt lat="45.623382775257596" lon="9.185844224751595"><ele>199.0</ele><time>2026-04-12T05:47:50Z</time></trkpt><trkpt lat="45.623396172785554" lon="9.186037840544904"><ele>199.0</ele><time>2026-04-12T05:47:51Z</time></trkpt><trkpt lat="45.62340691520416" lon="9.186222974106176"><ele>199.0</ele><time>2026-04-12T05:47:52Z</time></trkpt><trkpt lat="45.62341874834241" lon="9.186393378316046"><ele>199.0</ele><time>2026-04-12T05:47:53Z</time></trkpt><trkpt lat="45.62342777414048" lon="9.186538642709605"><ele>199.0</ele><time>2026-04-12T05:47:54Z</time></trkpt><trkpt lat="45.62343341543193" lon="9.186649021111224"><ele>199.0</ele><time>2026-04-12T05:47:55Z</time></trkpt><trkpt lat="45.62342549854053" lon="9.186801559042706"><ele>199.2</ele><time>2026-04-12T05:47:57Z</time></trkpt><trkpt lat="45.62343711555794" lon="9.186986267671697"><ele>199.39999999999998</ele><time>2026-04-12T05:47:59Z</time></trkpt><trkpt lat="45.62346265606665" lon="9.18709857548397"><ele>199.6</ele><time>2026-04-12T05:48:00Z</time></trkpt><trkpt lat="45.62347505232038" lon="9.187218653261372"><ele>199.8</ele><time>2026-04-12T05:48:01Z</time></trkpt><trkpt lat="45.62348192256829" lon="9.187354588996952"><ele>200.0</ele><time>2026-04-12T05:48:02Z</time></trkpt><trkpt lat="45.62348966049617" lon="9.187511458565188"><ele>199.75</ele><time>2026-04-12T05:48:03Z</time></trkpt><trkpt lat="45.623498839831235" lon="9.18768359260331"><ele>199.5</ele><time>2026-04-12T05:48:04Z</time></trkpt><trkpt lat="45.623510084605485" lon="9.187866662174054"><ele>199.25</ele><time>2026-04-12T05:48:05Z</time></trkpt><trkpt lat="45.623523195047454" lon="9.1880630743459"><ele>199.0</ele><time>2026-04-12T05:48:06Z</time></trkpt><trkpt lat="45.623531872019825" lon="9.188272547892241"><ele>199.0</ele><time>2026-04-12T05:48:07Z</time></trkpt><trkpt lat="45.62354551969087" lon="9.18848453873129"><ele>199.0</ele><time>2026-04-12T05:48:08Z</time></trkpt><trkpt lat="45.623562435051966" lon="9.188706438250502"><ele>199.0</ele><time>2026-04-12T05:48:09Z</time></trkpt><trkpt lat="45.62357926564322" lon="9.188932010754796"><ele>198.66666666666666</ele><time>2026-04-12T05:48:10Z</time></trkpt><trkpt lat="45.62359708225409" lon="9.189154373128039"><ele>198.33333333333331</ele><time>2026-04-12T05:48:11Z</time></trkpt><trkpt lat="45.623615270135595" lon="9.18938373983978"><ele>198.0</ele><time>2026-04-12T05:48:12Z</time></trkpt><trkpt lat="45.62363239324572" lon="9.189616202501634"><ele>199.33333333333331</ele><time>2026-04-12T05:48:13Z</time></trkpt><trkpt lat="45.62364908972613" lon="9.189846304577399"><ele>200.66666666666666</ele><time>2026-04-12T05:48:14Z</time></trkpt><trkpt lat="45.62366170089311" lon="9.19007866324537"><ele>202.0</ele><time>2026-04-12T05:48:15Z</time></trkpt><trkpt lat="45.62367731621387" lon="9.190312346714423"><ele>202.0</ele><time>2026-04-12T05:48:16Z</time></trkpt><trkpt lat="45.62369106291825" lon="9.190541814069983"><ele>202.0</ele><time>2026-04-12T05:48:17Z</time></trkpt><trkpt lat="45.623703196115876" lon="9.1907723119237"><ele>202.0</ele><time>2026-04-12T05:48:18Z</time></trkpt><trkpt lat="45.62371759299096" lon="9.190997189056741"><ele>201.0</ele><time>2026-04-12T05:48:19Z</time></trkpt><trkpt lat="45.62373255003321" lon="9.191219235772357"><ele>200.0</ele><time>2026-04-12T05:48:20Z</time></trkpt><trkpt lat="45.62374705905512" lon="9.19143526692025"><ele>199.0</ele><time>2026-04-12T05:48:21Z</time></trkpt><trkpt lat="45.62376089487807" lon="9.19165099207236"><ele>199.0</ele><time>2026-04-12T05:48:22Z</time></trkpt><trkpt lat="45.62377364809182" lon="9.1918576076683"><ele>199.0</ele><time>2026-04-12T05:48:23Z</time></trkpt><trkpt lat="45.6237860835681" lon="9.192048270424083"><ele>199.0</ele><time>2026-04-12T05:48:24Z</time></trkpt><trkpt lat="45.6237976737414" lon="9.192213771690747"><ele>199.0</ele><time>2026-04-12T05:48:25Z</time></trkpt><trkpt lat="45.62380844223042" lon="9.192358342515929"><ele>198.99999999999997</ele><time>2026-04-12T05:48:26Z</time></trkpt><trkpt lat="45.62381523287171" lon="9.192471500415815"><ele>199.0</ele><time>2026-04-12T05:48:27Z</time></trkpt><trkpt lat="45.62382223879466" lon="9.192589560582157"><ele>199.0</ele><time>2026-04-12T05:48:28Z</time></trkpt><trkpt lat="45.623830060244906" lon="9.192709852335314"><ele>199.0</ele><time>2026-04-12T05:48:29Z</time></trkpt><trkpt lat="45.62383994636348" lon="9.192844588973971"><ele>198.99999999999997</ele><time>2026-04-12T05:48:30Z</time></trkpt><trkpt lat="45.623851699006366" lon="9.192990408496271"><ele>199.0</ele><time>2026-04-12T05:48:31Z</time></trkpt><trkpt lat="45.623863454314595" lon="9.193144784883236"><ele>199.5</ele><time>2026-04-12T05:48:32Z</time></trkpt><trkpt lat="45.62387580928065" lon="9.193299117460306"><ele>200.0</ele><time>2026-04-12T05:48:33Z</time></trkpt><trkpt lat="45.623887064727775" lon="9.193457976660392"><ele>200.5</ele><time>2026-04-12T05:48:34Z</time></trkpt><trkpt lat="45.62388518237196" lon="9.19362097939984"><ele>201.0</ele><time>2026-04-12T05:48:35Z</time></trkpt><trkpt lat="45.62386386910028" lon="9.193784937493836"><ele>201.0</ele><time>2026-04-12T05:48:36Z</time></trkpt><trkpt lat="45.62383054640007" lon="9.193953324507117"><ele>201.0</ele><time>2026-04-12T05:48:37Z</time></trkpt><trkpt lat="45.62379576762966" lon="9.194130149960598"><ele>201.0</ele><time>2026-04-12T05:48:38Z</time></trkpt><trkpt lat="45.62375999402825" lon="9.194308177451877"><ele>201.0</ele><time>2026-04-12T05:48:39Z</time></trkpt><trkpt lat="45.62372284046664" lon="9.19449007882083"><ele>201.0</ele><time>2026-04-12T05:48:40Z</time></trkpt><trkpt lat="45.62368726738429" lon="9.19467066130529"><ele>201.0</ele><time>2026-04-12T05:48:41Z</time></trkpt><trkpt lat="45.623649336691315" lon="9.194854127269569"><ele>201.0</ele><time>2026-04-12T05:48:42Z</time></trkpt><trkpt lat="45.62361164403742" lon="9.195041876621348"><ele>201.0</ele><time>2026-04-12T05:48:43Z</time></trkpt><trkpt lat="45.62357434890003" lon="9.195227849920798"><ele>201.0</ele><time>2026-04-12T05:48:44Z</time></trkpt><trkpt lat="45.623534899794116" lon="9.195413101694184"><ele>201.0</ele><time>2026-04-12T05:48:45Z</time></trkpt><trkpt lat="45.62349828999347" lon="9.195594658389934"><ele>201.0</ele><time>2026-04-12T05:48:46Z</time></trkpt><trkpt lat="45.62346840465545" lon="9.195772810334716"><ele>201.0</ele><time>2026-04-12T05:48:47Z</time></trkpt><trkpt lat="45.62343485089647" lon="9.195939909400401"><ele>201.0</ele><time>2026-04-12T05:48:48Z</time></trkpt><trkpt lat="45.62340388089583" lon="9.196085971122686"><ele>201.0</ele><time>2026-04-12T05:48:49Z</time></trkpt><trkpt lat="45.62337958834574" lon="9.196213559306289"><ele>201.0</ele><time>2026-04-12T05:48:50Z</time></trkpt><trkpt lat="45.62335868126688" lon="9.196328853205994"><ele>201.0</ele><time>2026-04-12T05:48:51Z</time></trkpt><trkpt lat="45.62334292839147" lon="9.19643463174676"><ele>201.0</ele><time>2026-04-12T05:48:52Z</time></trkpt><trkpt lat="45.62332801065442" lon="9.196539687083419"><ele>201.0</ele><time>2026-04-12T05:48:53Z</time></trkpt><trkpt lat="45.62331569423007" lon="9.196653978832716"><ele>200.8</ele><time>2026-04-12T05:48:54Z</time></trkpt><trkpt lat="45.62330080034477" lon="9.196780047178988"><ele>200.60000000000002</ele><time>2026-04-12T05:48:55Z</time></trkpt><trkpt lat="45.62328507967094" lon="9.196911965542014"><ele>200.4</ele><time>2026-04-12T05:48:56Z</time></trkpt><trkpt lat="45.62326384728193" lon="9.197051500632298"><ele>200.2</ele><time>2026-04-12T05:48:57Z</time></trkpt><trkpt lat="45.62324404373549" lon="9.197202513780462"><ele>200.0</ele><time>2026-04-12T05:48:58Z</time></trkpt><trkpt lat="45.62322395812889" lon="9.197352235926854"><ele>199.8</ele><time>2026-04-12T05:48:59Z</time></trkpt><trkpt lat="45.62320592954858" lon="9.197505674943784"><ele>199.6</ele><time>2026-04-12T05:49:00Z</time></trkpt><trkpt lat="45.6231855445759" lon="9.19766642983427"><ele>199.39999999999998</ele><time>2026-04-12T05:49:01Z</time></trkpt><trkpt lat="45.62317005747951" lon="9.197825322382787"><ele>199.2</ele><time>2026-04-12T05:49:02Z</time></trkpt><trkpt lat="45.62315501072764" lon="9.197977358558845"><ele>199.0</ele><time>2026-04-12T05:49:03Z</time></trkpt><trkpt lat="45.62313457858969" lon="9.198123953383691"><ele>199.2</ele><time>2026-04-12T05:49:04Z</time></trkpt><trkpt lat="45.623112662281684" lon="9.19826337438629"><ele>199.39999999999998</ele><time>2026-04-12T05:49:05Z</time></trkpt><trkpt lat="45.62308772869249" lon="9.198387637794003"><ele>199.6</ele><time>2026-04-12T05:49:06Z</time></trkpt><trkpt lat="45.623059276498594" lon="9.198491554098961"><ele>199.8</ele><time>2026-04-12T05:49:06.999Z</time></trkpt><trkpt lat="45.623033848049246" lon="9.198575331199486"><ele>200.0</ele><time>2026-04-12T05:49:07.999Z</time></trkpt><trkpt lat="45.622980469275745" lon="9.198733717643249"><ele>200.00000000000003</ele><time>2026-04-12T05:49:09.999Z</time></trkpt><trkpt lat="45.622948477166574" lon="9.198817759538509"><ele>200.0</ele><time>2026-04-12T05:49:10.999Z</time></trkpt><trkpt lat="45.622930320720506" lon="9.198907683534218"><ele>200.0</ele><time>2026-04-12T05:49:11.999Z</time></trkpt><trkpt lat="45.62293822988996" lon="9.198999776654396"><ele>200.0</ele><time>2026-04-12T05:49:12.999Z</time></trkpt><trkpt lat="45.62297855874166" lon="9.199078421337749"><ele>200.0</ele><time>2026-04-12T05:49:13.999Z</time></trkpt><trkpt lat="45.623042561856494" lon="9.199125043649994"><ele>200.00000000000003</ele><time>2026-04-12T05:49:14.999Z</time></trkpt><trkpt lat="45.62314169487485" lon="9.19911421706522"><ele>200.0</ele><time>2026-04-12T05:49:15.999Z</time></trkpt><trkpt lat="45.62323950599839" lon="9.198979095238805"><ele>200.0</ele><time>2026-04-12T05:49:17.999Z</time></trkpt><trkpt lat="45.623345532170354" lon="9.198972369086876"><ele>200.0</ele><time>2026-04-12T05:49:18.999Z</time></trkpt><trkpt lat="45.623436559658636" lon="9.198946220410543"><ele>200.0</ele><time>2026-04-12T05:49:19.999Z</time></trkpt><trkpt lat="45.623535329650494" lon="9.198935156366307"><ele>200.0</ele><time>2026-04-12T05:49:20.999Z</time></trkpt><trkpt lat="45.623630785473985" lon="9.198933898671699"><ele>200.0</ele><time>2026-04-12T05:49:21.999Z</time></trkpt><trkpt lat="45.62373317822326" lon="9.198942812696226"><ele>199.8</ele><time>2026-04-12T05:49:22.999Z</time></trkpt><trkpt lat="45.62383679981439" lon="9.198962487719346"><ele>199.6</ele><time>2026-04-12T05:49:23.999Z</time></trkpt><trkpt lat="45.62393973392938" lon="9.199000834163321"><ele>199.39999999999998</ele><time>2026-04-12T05:49:24.999Z</time></trkpt><trkpt lat="45.624044985875386" lon="9.199048113437902"><ele>199.2</ele><time>2026-04-12T05:49:25.999Z</time></trkpt><trkpt lat="45.6241454262927" lon="9.199109073310721"><ele>199.0</ele><time>2026-04-12T05:49:26.999Z</time></trkpt><trkpt lat="45.62424938256964" lon="9.199184429067895"><ele>199.5</ele><time>2026-04-12T05:49:27.999Z</time></trkpt><trkpt lat="45.62435106243046" lon="9.199273512031482"><ele>200.0</ele><time>2026-04-12T05:49:28.999Z</time></trkpt><trkpt lat="45.62445044243027" lon="9.199376379773069"><ele>200.5</ele><time>2026-04-12T05:49:29.999Z</time></trkpt><trkpt lat="45.62454851552121" lon="9.19948362308239"><ele>201.0</ele><time>2026-04-12T05:49:30.999Z</time></trkpt><trkpt lat="45.62465111948236" lon="9.199606932920464"><ele>201.5</ele><time>2026-04-12T05:49:31.999Z</time></trkpt><trkpt lat="45.624735969630926" lon="9.199747647217164"><ele>202.0</ele><time>2026-04-12T05:49:32.999Z</time></trkpt><trkpt lat="45.62481722946313" lon="9.199899770094452"><ele>202.5</ele><time>2026-04-12T05:49:33.999Z</time></trkpt><trkpt lat="45.624885320937864" lon="9.200056294961742"><ele>203.0</ele><time>2026-04-12T05:49:34.999Z</time></trkpt><trkpt lat="45.62494810040752" lon="9.200220199041139"><ele>203.0</ele><time>2026-04-12T05:49:35.999Z</time></trkpt><trkpt lat="45.6250071393512" lon="9.200387364533052"><ele>203.0</ele><time>2026-04-12T05:49:36.999Z</time></trkpt><trkpt lat="45.62504059522863" lon="9.200562046271672"><ele>203.0</ele><time>2026-04-12T05:49:37.999Z</time></trkpt><trkpt lat="45.62506713981076" lon="9.200729630528034"><ele>203.0</ele><time>2026-04-12T05:49:38.999Z</time></trkpt><trkpt lat="45.62509909324976" lon="9.200899440138343"><ele>203.0</ele><time>2026-04-12T05:49:39.999Z</time></trkpt><trkpt lat="45.62512878539201" lon="9.201070031313291"><ele>203.0</ele><time>2026-04-12T05:49:40.999Z</time></trkpt><trkpt lat="45.62516308421565" lon="9.201243779777965"><ele>203.0</ele><time>2026-04-12T05:49:41.999Z</time></trkpt><trkpt lat="45.62519349977294" lon="9.201419183280343"><ele>203.0</ele><time>2026-04-12T05:49:42.999Z</time></trkpt><trkpt lat="45.62522561810987" lon="9.201591964526402"><ele>203.0</ele><time>2026-04-12T05:49:43.999Z</time></trkpt><trkpt lat="45.62525627309628" lon="9.201762598106702"><ele>203.0</ele><time>2026-04-12T05:49:44.999Z</time></trkpt><trkpt lat="45.625281530705166" lon="9.201932740157641"><ele>203.0</ele><time>2026-04-12T05:49:45.999Z</time></trkpt><trkpt lat="45.625315329513185" lon="9.202107919193018"><ele>203.0</ele><time>2026-04-12T05:49:46.999Z</time></trkpt><trkpt lat="45.62535585613008" lon="9.202284479845117"><ele>203.0</ele><time>2026-04-12T05:49:47.999Z</time></trkpt><trkpt lat="45.62538876582927" lon="9.202463327331202"><ele>203.0</ele><time>2026-04-12T05:49:49Z</time></trkpt><trkpt lat="45.62540459300901" lon="9.202644953775406"><ele>203.0</ele><time>2026-04-12T05:49:50Z</time></trkpt><trkpt lat="45.62543894465242" lon="9.202824273827602"><ele>203.0</ele><time>2026-04-12T05:49:51Z</time></trkpt><trkpt lat="45.62547224997284" lon="9.203001694711062"><ele>202.75</ele><time>2026-04-12T05:49:52Z</time></trkpt><trkpt lat="45.62550630665712" lon="9.20317561208839"><ele>202.5</ele><time>2026-04-12T05:49:53Z</time></trkpt><trkpt lat="45.62554002567234" lon="9.203348236477298"><ele>202.25</ele><time>2026-04-12T05:49:54Z</time></trkpt><trkpt lat="45.625574975878926" lon="9.203518564135457"><ele>202.0</ele><time>2026-04-12T05:49:55Z</time></trkpt><trkpt lat="45.62561491153457" lon="9.20368960555571"><ele>202.0</ele><time>2026-04-12T05:49:56Z</time></trkpt><trkpt lat="45.62565041135573" lon="9.20385779188512"><ele>202.0</ele><time>2026-04-12T05:49:57Z</time></trkpt><trkpt lat="45.62567936452125" lon="9.204024102617613"><ele>202.0</ele><time>2026-04-12T05:49:58Z</time></trkpt><trkpt lat="45.62570744963519" lon="9.204193532358488"><ele>202.0</ele><time>2026-04-12T05:49:59Z</time></trkpt><trkpt lat="45.62574294222096" lon="9.204363888702034"><ele>202.25</ele><time>2026-04-12T05:50:00Z</time></trkpt><trkpt lat="45.62577555908421" lon="9.204532541558867"><ele>202.5</ele><time>2026-04-12T05:50:01Z</time></trkpt><trkpt lat="45.6258105889059" lon="9.204698940441668"><ele>202.75</ele><time>2026-04-12T05:50:02Z</time></trkpt><trkpt lat="45.62584554880494" lon="9.204859901270954"><ele>203.0</ele><time>2026-04-12T05:50:03Z</time></trkpt><trkpt lat="45.6258901050195" lon="9.205015567444773"><ele>203.0</ele><time>2026-04-12T05:50:04Z</time></trkpt><trkpt lat="45.62592608899696" lon="9.205167989073235"><ele>203.0</ele><time>2026-04-12T05:50:05Z</time></trkpt><trkpt lat="45.62596003800366" lon="9.205315832033142"><ele>203.0</ele><time>2026-04-12T05:50:06Z</time></trkpt><trkpt lat="45.625984951213844" lon="9.205464346894797"><ele>203.0</ele><time>2026-04-12T05:50:07Z</time></trkpt><trkpt lat="45.6260095685682" lon="9.205607669471267"><ele>203.0</ele><time>2026-04-12T05:50:08Z</time></trkpt><trkpt lat="45.6260362155958" lon="9.205757114431407"><ele>203.0</ele><time>2026-04-12T05:50:09Z</time></trkpt><trkpt lat="45.62606657110788" lon="9.205910366017198"><ele>203.0</ele><time>2026-04-12T05:50:10Z</time></trkpt><trkpt lat="45.626099572084605" lon="9.206062843037719"><ele>203.0</ele><time>2026-04-12T05:50:11Z</time></trkpt><trkpt lat="45.62613532176167" lon="9.206192390229196"><ele>203.0</ele><time>2026-04-12T05:50:12Z</time></trkpt><trkpt lat="45.626163919643375" lon="9.206300369675951"><ele>203.0</ele><time>2026-04-12T05:50:13Z</time></trkpt><trkpt lat="45.62620073004698" lon="9.206403340953925"><ele>203.16666666666669</ele><time>2026-04-12T05:50:14Z</time></trkpt><trkpt lat="45.62624441010717" lon="9.206501713259845"><ele>203.33333333333334</ele><time>2026-04-12T05:50:15Z</time></trkpt><trkpt lat="45.626294903103904" lon="9.206588947372945"><ele>203.5</ele><time>2026-04-12T05:50:16Z</time></trkpt><trkpt lat="45.62636436665252" lon="9.20666016301532"><ele>203.66666666666669</ele><time>2026-04-12T05:50:17Z</time></trkpt><trkpt lat="45.626442694332425" lon="9.2067073809444"><ele>203.83333333333334</ele><time>2026-04-12T05:50:18Z</time></trkpt><trkpt lat="45.62653079569692" lon="9.206718135956665"><ele>204.0</ele><time>2026-04-12T05:50:19Z</time></trkpt><trkpt lat="45.6266117240951" lon="9.206657829659493"><ele>204.0</ele><time>2026-04-12T05:50:20Z</time></trkpt><trkpt lat="45.626719087469034" lon="9.206663114202794"><ele>204.0</ele><time>2026-04-12T05:50:21Z</time></trkpt><trkpt lat="45.62681687076548" lon="9.20663358507096"><ele>204.0</ele><time>2026-04-12T05:50:22Z</time></trkpt><trkpt lat="45.62692350411946" lon="9.206601826494643"><ele>204.0</ele><time>2026-04-12T05:50:23Z</time></trkpt><trkpt lat="45.62703449544096" lon="9.206558780270258"><ele>204.0</ele><time>2026-04-12T05:50:24Z</time></trkpt><trkpt lat="45.62715074692619" lon="9.20651553404508"><ele>203.75</ele><time>2026-04-12T05:50:25Z</time></trkpt><trkpt lat="45.62726836038317" lon="9.206473146481846"><ele>203.5</ele><time>2026-04-12T05:50:26Z</time></trkpt><trkpt lat="45.627380792846864" lon="9.20638589690436"><ele>203.25</ele><time>2026-04-12T05:50:27Z</time></trkpt><trkpt lat="45.62752034345063" lon="9.206376955729233"><ele>203.0</ele><time>2026-04-12T05:50:28Z</time></trkpt><trkpt lat="45.62764899356325" lon="9.206320368696552"><ele>203.0</ele><time>2026-04-12T05:50:29Z</time></trkpt><trkpt lat="45.627781691223355" lon="9.206260299088541"><ele>203.0</ele><time>2026-04-12T05:50:30Z</time></trkpt><trkpt lat="45.627912679431155" lon="9.206202624826776"><ele>203.0</ele><time>2026-04-12T05:50:31Z</time></trkpt><trkpt lat="45.62804169425957" lon="9.206143265039948"><ele>203.0</ele><time>2026-04-12T05:50:32Z</time></trkpt><trkpt lat="45.62817028294906" lon="9.20608204328963"><ele>203.25</ele><time>2026-04-12T05:50:33Z</time></trkpt><trkpt lat="45.62830556222166" lon="9.206024884333782"><ele>203.5</ele><time>2026-04-12T05:50:34Z</time></trkpt><trkpt lat="45.62844115413921" lon="9.205967567433877"><ele>203.75</ele><time>2026-04-12T05:50:35Z</time></trkpt><trkpt lat="45.628576500760914" lon="9.205904475831213"><ele>204.0</ele><time>2026-04-12T05:50:36Z</time></trkpt><trkpt lat="45.628713906286414" lon="9.205841371796275"><ele>204.5</ele><time>2026-04-12T05:50:37Z</time></trkpt><trkpt lat="45.6288468988044" lon="9.205784867406987"><ele>205.0</ele><time>2026-04-12T05:50:38Z</time></trkpt><trkpt lat="45.62898085647882" lon="9.205721887675152"><ele>205.5</ele><time>2026-04-12T05:50:39Z</time></trkpt><trkpt lat="45.629119272682665" lon="9.205664332944803"><ele>206.0</ele><time>2026-04-12T05:50:40Z</time></trkpt><trkpt lat="45.62925828225932" lon="9.20560192105615"><ele>206.0</ele><time>2026-04-12T05:50:41Z</time></trkpt><trkpt lat="45.629395595649996" lon="9.205539386123052"><ele>206.0</ele><time>2026-04-12T05:50:42Z</time></trkpt><trkpt lat="45.62953388972786" lon="9.2054822266212"><ele>206.0</ele><time>2026-04-12T05:50:43Z</time></trkpt><trkpt lat="45.629670673256776" lon="9.205423664881778"><ele>206.0</ele><time>2026-04-12T05:50:44Z</time></trkpt><trkpt lat="45.62980748289997" lon="9.205369821078685"><ele>206.5</ele><time>2026-04-12T05:50:45Z</time></trkpt><trkpt lat="45.62994075350072" lon="9.205309746782826"><ele>207.0</ele><time>2026-04-12T05:50:46Z</time></trkpt><trkpt lat="45.630074533247104" lon="9.205253014869964"><ele>207.5</ele><time>2026-04-12T05:50:47Z</time></trkpt><trkpt lat="45.63020746808296" lon="9.205196087742411"><ele>208.0</ele><time>2026-04-12T05:50:48Z</time></trkpt><trkpt lat="45.6303399199784" lon="9.205139473113155"><ele>208.0</ele><time>2026-04-12T05:50:49Z</time></trkpt><trkpt lat="45.63047147569567" lon="9.205080460963734"><ele>208.0</ele><time>2026-04-12T05:50:50Z</time></trkpt><trkpt lat="45.63060436971722" lon="9.205033109068262"><ele>208.0</ele><time>2026-04-12T05:50:51Z</time></trkpt><trkpt lat="45.63073594246059" lon="9.204979103605632"><ele>208.0</ele><time>2026-04-12T05:50:52Z</time></trkpt><trkpt lat="45.6308682394905" lon="9.204929912193128"><ele>208.0</ele><time>2026-04-12T05:50:53Z</time></trkpt><trkpt lat="45.63100320607251" lon="9.20487851157679"><ele>208.0</ele><time>2026-04-12T05:50:54Z</time></trkpt><trkpt lat="45.63113309150945" lon="9.204821776648284"><ele>208.0</ele><time>2026-04-12T05:50:55Z</time></trkpt><trkpt lat="45.631260979077396" lon="9.2047630570052"><ele>208.0</ele><time>2026-04-12T05:50:56Z</time></trkpt><trkpt lat="45.63138457991119" lon="9.204710505089071"><ele>207.5</ele><time>2026-04-12T05:50:57Z</time></trkpt><trkpt lat="45.6315125035938" lon="9.204660816082537"><ele>207.0</ele><time>2026-04-12T05:50:58Z</time></trkpt><trkpt lat="45.631631189345924" lon="9.204609024254005"><ele>206.5</ele><time>2026-04-12T05:50:59Z</time></trkpt><trkpt lat="45.63173382192019" lon="9.204566022476154"><ele>206.0</ele><time>2026-04-12T05:51:00Z</time></trkpt><trkpt lat="45.631819916100774" lon="9.204531626828791"><ele>206.00000000000003</ele><time>2026-04-12T05:51:01Z</time></trkpt><trkpt lat="45.631895034603055" lon="9.204530628448664"><ele>206.0</ele><time>2026-04-12T05:51:02Z</time></trkpt><trkpt lat="45.63196515807184" lon="9.204562753148146"><ele>206.0</ele><time>2026-04-12T05:51:03Z</time></trkpt><trkpt lat="45.632031289528484" lon="9.204605536370511"><ele>206.0</ele><time>2026-04-12T05:51:04Z</time></trkpt><trkpt lat="45.63211274108935" lon="9.204632373304834"><ele>206.00000000000003</ele><time>2026-04-12T05:51:05Z</time></trkpt><trkpt lat="45.63219704233901" lon="9.204605179081465"><ele>206.0</ele><time>2026-04-12T05:51:06Z</time></trkpt><trkpt lat="45.63227765454006" lon="9.204524384636834"><ele>206.0</ele><time>2026-04-12T05:51:07Z</time></trkpt><trkpt lat="45.63233479882547" lon="9.204441391004561"><ele>206.0</ele><time>2026-04-12T05:51:08Z</time></trkpt><trkpt lat="45.63241956275543" lon="9.20438550939763"><ele>206.0</ele><time>2026-04-12T05:51:09Z</time></trkpt><trkpt lat="45.63251753152409" lon="9.204370123376997"><ele>206.0</ele><time>2026-04-12T05:51:10Z</time></trkpt><trkpt lat="45.63262449642011" lon="9.204391419777833"><ele>206.0</ele><time>2026-04-12T05:51:11Z</time></trkpt><trkpt lat="45.63273028361144" lon="9.204417034757917"><ele>206.75</ele><time>2026-04-12T05:51:12Z</time></trkpt><trkpt lat="45.632847721285295" lon="9.20444963269499"><ele>207.5</ele><time>2026-04-12T05:51:13Z</time></trkpt><trkpt lat="45.63297682776561" lon="9.204479022914878"><ele>208.25</ele><time>2026-04-12T05:51:14Z</time></trkpt><trkpt lat="45.63311103520133" lon="9.2045054111378"><ele>209.0</ele><time>2026-04-12T05:51:14.999Z</time></trkpt><trkpt lat="45.6332508109031" lon="9.204531990989041"><ele>209.0</ele><time>2026-04-12T05:51:15.999Z</time></trkpt><trkpt lat="45.633396022034866" lon="9.204562979600817"><ele>209.0</ele><time>2026-04-12T05:51:16.999Z</time></trkpt><trkpt lat="45.63354495972597" lon="9.20459678030144"><ele>209.0</ele><time>2026-04-12T05:51:17.999Z</time></trkpt><trkpt lat="45.63369890191345" lon="9.204641990638276"><ele>209.33333333333334</ele><time>2026-04-12T05:51:18.999Z</time></trkpt><trkpt lat="45.63385332200373" lon="9.204675664868722"><ele>209.66666666666669</ele><time>2026-04-12T05:51:19.999Z</time></trkpt><trkpt lat="45.63400674480223" lon="9.204710847707863"><ele>210.0</ele><time>2026-04-12T05:51:20.999Z</time></trkpt><trkpt lat="45.634158239293555" lon="9.204744238662734"><ele>210.0</ele><time>2026-04-12T05:51:21.999Z</time></trkpt><trkpt lat="45.63430723201841" lon="9.204778502868404"><ele>210.0</ele><time>2026-04-12T05:51:22.999Z</time></trkpt><trkpt lat="45.63445409087528" lon="9.204809471946078"><ele>210.0</ele><time>2026-04-12T05:51:23.999Z</time></trkpt><trkpt lat="45.63459867084299" lon="9.204842624319651"><ele>210.0</ele><time>2026-04-12T05:51:24.999Z</time></trkpt><trkpt lat="45.63473532815536" lon="9.204872362825608"><ele>210.0</ele><time>2026-04-12T05:51:25.999Z</time></trkpt><trkpt lat="45.63487157015856" lon="9.20490359649473"><ele>210.0</ele><time>2026-04-12T05:51:26.999Z</time></trkpt><trkpt lat="45.63500470633716" lon="9.204931622659357"><ele>210.0</ele><time>2026-04-12T05:51:27.999Z</time></trkpt><trkpt lat="45.635138735298966" lon="9.204963049352545"><ele>210.0</ele><time>2026-04-12T05:51:28.999Z</time></trkpt><trkpt lat="45.63526841943162" lon="9.204989800591232"><ele>210.6</ele><time>2026-04-12T05:51:29.999Z</time></trkpt><trkpt lat="45.63538480530164" lon="9.205013883717458"><ele>211.2</ele><time>2026-04-12T05:51:30.999Z</time></trkpt><trkpt lat="45.635494636543065" lon="9.205039073913293"><ele>211.8</ele><time>2026-04-12T05:51:31.999Z</time></trkpt><trkpt lat="45.63559723661322" lon="9.205060793730615"><ele>212.4</ele><time>2026-04-12T05:51:32.999Z</time></trkpt><trkpt lat="45.63569189999228" lon="9.205082453497951"><ele>213.0</ele><time>2026-04-12T05:51:33.999Z</time></trkpt><trkpt lat="45.635780493678425" lon="9.205099033379067"><ele>213.0</ele><time>2026-04-12T05:51:34.999Z</time></trkpt><trkpt lat="45.63585299368822" lon="9.205114836107416"><ele>213.0</ele><time>2026-04-12T05:51:35.999Z</time></trkpt><trkpt lat="45.635919073485354" lon="9.20512899176403"><ele>213.0</ele><time>2026-04-12T05:51:36.999Z</time></trkpt><trkpt lat="45.636018883562315" lon="9.20515152717176"><ele>213.0</ele><time>2026-04-12T05:51:38.999Z</time></trkpt><trkpt lat="45.636089178835434" lon="9.20516701939074"><ele>213.0</ele><time>2026-04-12T05:51:41.999Z</time></trkpt><trkpt lat="45.636190728427124" lon="9.205190832233487"><ele>213.0</ele><time>2026-04-12T05:52:00Z</time></trkpt><trkpt lat="45.63631869050474" lon="9.205218652469263"><ele>213.0</ele><time>2026-04-12T05:52:02Z</time></trkpt><trkpt lat="45.63639683583367" lon="9.205235941802602"><ele>213.0</ele><time>2026-04-12T05:52:03Z</time></trkpt><trkpt lat="45.636484410584856" lon="9.2052493027488"><ele>213.0</ele><time>2026-04-12T05:52:04Z</time></trkpt><trkpt lat="45.63657501762828" lon="9.20527016070717"><ele>213.0</ele><time>2026-04-12T05:52:05Z</time></trkpt><trkpt lat="45.636665705901926" lon="9.205288962070663"><ele>213.0</ele><time>2026-04-12T05:52:06Z</time></trkpt><trkpt lat="45.63675272247481" lon="9.205307350561977"><ele>213.0</ele><time>2026-04-12T05:52:07Z</time></trkpt><trkpt lat="45.6368373262086" lon="9.205326705711714"><ele>213.0</ele><time>2026-04-12T05:52:08Z</time></trkpt><trkpt lat="45.63691407357597" lon="9.205346881404868"><ele>213.0</ele><time>2026-04-12T05:52:09Z</time></trkpt><trkpt lat="45.63698078109001" lon="9.20536267675006"><ele>213.0</ele><time>2026-04-12T05:52:10Z</time></trkpt><trkpt lat="45.63705933338739" lon="9.205383110564101"><ele>213.0</ele><time>2026-04-12T05:52:12Z</time></trkpt><trkpt lat="45.63716307007572" lon="9.205429503066439"><ele>213.0</ele><time>2026-04-12T05:52:38Z</time></trkpt><trkpt lat="45.63729270146362" lon="9.205462774370636"><ele>213.2</ele><time>2026-04-12T05:52:40Z</time></trkpt><trkpt lat="45.63737069303962" lon="9.20548025310808"><ele>213.4</ele><time>2026-04-12T05:52:41Z</time></trkpt><trkpt lat="45.63745752591411" lon="9.205496318428654"><ele>213.59999999999997</ele><time>2026-04-12T05:52:42Z</time></trkpt><trkpt lat="45.63755172823105" lon="9.205515486244096"><ele>213.79999999999998</ele><time>2026-04-12T05:52:43Z</time></trkpt><trkpt lat="45.637654734176294" lon="9.205535765869193"><ele>214.0</ele><time>2026-04-12T05:52:44Z</time></trkpt><trkpt lat="45.637762048528224" lon="9.205557417860453"><ele>214.0</ele><time>2026-04-12T05:52:45Z</time></trkpt><trkpt lat="45.63787323894932" lon="9.205579518533309"><ele>214.0</ele><time>2026-04-12T05:52:46Z</time></trkpt><trkpt lat="45.63799145122462" lon="9.205601719997812"><ele>214.0</ele><time>2026-04-12T05:52:47Z</time></trkpt><trkpt lat="45.638101194249025" lon="9.20563031706887"><ele>214.0</ele><time>2026-04-12T05:52:48Z</time></trkpt><trkpt lat="45.63821206589855" lon="9.20565751531822"><ele>214.2</ele><time>2026-04-12T05:52:49Z</time></trkpt><trkpt lat="45.63831980275267" lon="9.205681682870292"><ele>214.39999999999998</ele><time>2026-04-12T05:52:50Z</time></trkpt><trkpt lat="45.638430306957204" lon="9.205706051473783"><ele>214.6</ele><time>2026-04-12T05:52:51Z</time></trkpt><trkpt lat="45.63853946529974" lon="9.205735953301382"><ele>214.8</ele><time>2026-04-12T05:52:52Z</time></trkpt><trkpt lat="45.63865346013027" lon="9.205767067849004"><ele>215.0</ele><time>2026-04-12T05:52:53Z</time></trkpt><trkpt lat="45.63876621418915" lon="9.205808293256029"><ele>215.25</ele><time>2026-04-12T05:52:54Z</time></trkpt><trkpt lat="45.63887797242419" lon="9.205851725732458"><ele>215.5</ele><time>2026-04-12T05:52:55Z</time></trkpt><trkpt lat="45.63899521107315" lon="9.205900365555951"><ele>215.75</ele><time>2026-04-12T05:52:56Z</time></trkpt><trkpt lat="45.639115339597616" lon="9.205951031849535"><ele>216.0</ele><time>2026-04-12T05:52:57Z</time></trkpt><trkpt lat="45.639238406086406" lon="9.206005227654186"><ele>216.0</ele><time>2026-04-12T05:52:58Z</time></trkpt><trkpt lat="45.63936104669497" lon="9.206063719602968"><ele>216.0</ele><time>2026-04-12T05:52:59Z</time></trkpt><trkpt lat="45.639484276321184" lon="9.20612908165579"><ele>216.0</ele><time>2026-04-12T05:53:00Z</time></trkpt><trkpt lat="45.639606446746015" lon="9.206198074210779"><ele>216.0</ele><time>2026-04-12T05:53:01Z</time></trkpt><trkpt lat="45.63972542846646" lon="9.206273590305441"><ele>215.75</ele><time>2026-04-12T05:53:02Z</time></trkpt><trkpt lat="45.639847578914306" lon="9.206345567567704"><ele>215.5</ele><time>2026-04-12T05:53:03Z</time></trkpt><trkpt lat="45.639967812595145" lon="9.206416873721995"><ele>215.25</ele><time>2026-04-12T05:53:04Z</time></trkpt><trkpt lat="45.64009375906409" lon="9.20649108211878"><ele>215.0</ele><time>2026-04-12T05:53:05Z</time></trkpt><trkpt lat="45.64021081697928" lon="9.206559078202387"><ele>215.75</ele><time>2026-04-12T05:53:06Z</time></trkpt><trkpt lat="45.64032029018352" lon="9.20662460543191"><ele>216.5</ele><time>2026-04-12T05:53:07Z</time></trkpt><trkpt lat="45.640428386782375" lon="9.206690550043255"><ele>217.25</ele><time>2026-04-12T05:53:08Z</time></trkpt><trkpt lat="45.64054153510825" lon="9.206755868892147"><ele>218.0</ele><time>2026-04-12T05:53:09Z</time></trkpt><trkpt lat="45.64066311597278" lon="9.206825678444297"><ele>218.0</ele><time>2026-04-12T05:53:10Z</time></trkpt><trkpt lat="45.64078533074313" lon="9.206900345172123"><ele>218.0</ele><time>2026-04-12T05:53:11Z</time></trkpt><trkpt lat="45.64090983950653" lon="9.206972861017151"><ele>218.0</ele><time>2026-04-12T05:53:12Z</time></trkpt><trkpt lat="45.64104117269111" lon="9.207052783075312"><ele>218.0</ele><time>2026-04-12T05:53:13Z</time></trkpt><trkpt lat="45.64116713204289" lon="9.207129251034619"><ele>218.25</ele><time>2026-04-12T05:53:14Z</time></trkpt><trkpt lat="45.6412958941318" lon="9.207204393320309"><ele>218.5</ele><time>2026-04-12T05:53:15Z</time></trkpt><trkpt lat="45.64143510651934" lon="9.207283885380091"><ele>218.75</ele><time>2026-04-12T05:53:16Z</time></trkpt><trkpt lat="45.64157214317988" lon="9.207368051958834"><ele>219.0</ele><time>2026-04-12T05:53:17Z</time></trkpt><trkpt lat="45.64170895698463" lon="9.207449821903275"><ele>218.33333333333331</ele><time>2026-04-12T05:53:17.999Z</time></trkpt><trkpt lat="45.64185091375666" lon="9.207534972687121"><ele>217.66666666666666</ele><time>2026-04-12T05:53:18.999Z</time></trkpt><trkpt lat="45.64199516441174" lon="9.207620675345012"><ele>217.0</ele><time>2026-04-12T05:53:19.999Z</time></trkpt><trkpt lat="45.642142599635065" lon="9.20770405541532"><ele>217.0</ele><time>2026-04-12T05:53:20.999Z</time></trkpt><trkpt lat="45.64228937805302" lon="9.207788774251163"><ele>217.0</ele><time>2026-04-12T05:53:21.999Z</time></trkpt><trkpt lat="45.642437102050025" lon="9.207868449258674"><ele>217.0</ele><time>2026-04-12T05:53:22.999Z</time></trkpt><trkpt lat="45.6425821832953" lon="9.207950897593378"><ele>217.0</ele><time>2026-04-12T05:53:23.999Z</time></trkpt><trkpt lat="45.642722528469754" lon="9.20803598469022"><ele>217.0</ele><time>2026-04-12T05:53:24.999Z</time></trkpt><trkpt lat="45.64286448002598" lon="9.208120748154938"><ele>217.0</ele><time>2026-04-12T05:53:25.999Z</time></trkpt><trkpt lat="45.64299485501477" lon="9.208201782762849"><ele>217.0</ele><time>2026-04-12T05:53:26.999Z</time></trkpt><trkpt lat="45.643132260493616" lon="9.208276488856704"><ele>217.0</ele><time>2026-04-12T05:53:27.999Z</time></trkpt><trkpt lat="45.64326899964453" lon="9.208356452900603"><ele>217.0</ele><time>2026-04-12T05:53:28.999Z</time></trkpt><trkpt lat="45.6434079492196" lon="9.208424423234362"><ele>217.0</ele><time>2026-04-12T05:53:29.999Z</time></trkpt><trkpt lat="45.64355272106147" lon="9.208485216916097"><ele>217.0</ele><time>2026-04-12T05:53:30.999Z</time></trkpt><trkpt lat="45.64370171607017" lon="9.208537754979524"><ele>217.0</ele><time>2026-04-12T05:53:31.999Z</time></trkpt><trkpt lat="45.643842575164044" lon="9.208583041133064"><ele>217.0</ele><time>2026-04-12T05:53:32.999Z</time></trkpt><trkpt lat="45.64397625281596" lon="9.208610410849708"><ele>217.0</ele><time>2026-04-12T05:53:33.999Z</time></trkpt><trkpt lat="45.64410793765902" lon="9.208634869701973"><ele>217.0</ele><time>2026-04-12T05:53:34.999Z</time></trkpt><trkpt lat="45.64423671203947" lon="9.208652535136629"><ele>217.0</ele><time>2026-04-12T05:53:35.999Z</time></trkpt><trkpt lat="45.64435139238887" lon="9.208659405234553"><ele>217.0</ele><time>2026-04-12T05:53:36.999Z</time></trkpt><trkpt lat="45.644451956711116" lon="9.208655286146698"><ele>217.0</ele><time>2026-04-12T05:53:37.999Z</time></trkpt><trkpt lat="45.64453830407554" lon="9.20863594766594"><ele>217.0</ele><time>2026-04-12T05:53:38.999Z</time></trkpt><trkpt lat="45.64461330789604" lon="9.208612298964802"><ele>217.0</ele><time>2026-04-12T05:53:39.999Z</time></trkpt><trkpt lat="45.64469190071206" lon="9.208615240375712"><ele>217.8</ele><time>2026-04-12T05:53:40.999Z</time></trkpt><trkpt lat="45.644776423374104" lon="9.208644251082294"><ele>218.6</ele><time>2026-04-12T05:53:41.999Z</time></trkpt><trkpt lat="45.64487043600488" lon="9.208657069862145"><ele>219.40000000000003</ele><time>2026-04-12T05:53:42.999Z</time></trkpt><trkpt lat="45.64496926140612" lon="9.208657299851273"><ele>220.20000000000002</ele><time>2026-04-12T05:53:43.999Z</time></trkpt><trkpt lat="45.64507631186537" lon="9.208645145065125"><ele>221.0</ele><time>2026-04-12T05:53:44.999Z</time></trkpt><trkpt lat="45.64518318689527" lon="9.208630740963782"><ele>221.0</ele><time>2026-04-12T05:53:45.999Z</time></trkpt><trkpt lat="45.64529419864972" lon="9.208616836773354"><ele>221.0</ele><time>2026-04-12T05:53:46.999Z</time></trkpt><trkpt lat="45.645401510260584" lon="9.208603038565615"><ele>221.0</ele><time>2026-04-12T05:53:47.999Z</time></trkpt><trkpt lat="45.64551916083396" lon="9.208595669564634"><ele>221.0</ele><time>2026-04-12T05:53:48.999Z</time></trkpt><trkpt lat="45.64563924431966" lon="9.208584652263925"><ele>221.0</ele><time>2026-04-12T05:53:49.999Z</time></trkpt><trkpt lat="45.64575726504136" lon="9.208575727310079"><ele>221.0</ele><time>2026-04-12T05:53:50.999Z</time></trkpt><trkpt lat="45.64587510453922" lon="9.208565999413695"><ele>221.0</ele><time>2026-04-12T05:53:51.999Z</time></trkpt><trkpt lat="45.64599124087528" lon="9.20855724928825"><ele>221.0</ele><time>2026-04-12T05:53:52.999Z</time></trkpt><trkpt lat="45.646105119868054" lon="9.208550363127165"><ele>221.4</ele><time>2026-04-12T05:53:53.999Z</time></trkpt><trkpt lat="45.64621727048808" lon="9.208546503292718"><ele>221.8</ele><time>2026-04-12T05:53:54.999Z</time></trkpt><trkpt lat="45.646319111063036" lon="9.208542140370078"><ele>222.20000000000002</ele><time>2026-04-12T05:53:55.999Z</time></trkpt><trkpt lat="45.64641478748201" lon="9.208535642367897"><ele>222.60000000000002</ele><time>2026-04-12T05:53:56.999Z</time></trkpt><trkpt lat="45.64649776144075" lon="9.208533613540109"><ele>223.0</ele><time>2026-04-12T05:53:57.999Z</time></trkpt><trkpt lat="45.64656423146252" lon="9.208526704647168"><ele>222.99999999999997</ele><time>2026-04-12T05:53:58.999Z</time></trkpt><trkpt lat="45.646646533087505" lon="9.208519643841404"><ele>223.0</ele><time>2026-04-12T05:54:01Z</time></trkpt><trkpt lat="45.64671400462359" lon="9.208505138292614"><ele>223.0</ele><time>2026-04-12T05:54:07Z</time></trkpt><trkpt lat="45.646815009525916" lon="9.208488908716946"><ele>223.0</ele><time>2026-04-12T05:54:09Z</time></trkpt><trkpt lat="45.646878186019684" lon="9.208479494109413"><ele>222.99999999999997</ele><time>2026-04-12T05:54:10Z</time></trkpt><trkpt lat="45.64695300671177" lon="9.208473963620348"><ele>223.0</ele><time>2026-04-12T05:54:11Z</time></trkpt><trkpt lat="45.64703813106623" lon="9.208464752390386"><ele>223.2</ele><time>2026-04-12T05:54:12Z</time></trkpt><trkpt lat="45.64712724193759" lon="9.208463414143814"><ele>223.4</ele><time>2026-04-12T05:54:13Z</time></trkpt><trkpt lat="45.647224748454356" lon="9.208462128458473"><ele>223.59999999999997</ele><time>2026-04-12T05:54:14Z</time></trkpt><trkpt lat="45.64732600929149" lon="9.208473282073268"><ele>223.79999999999998</ele><time>2026-04-12T05:54:15Z</time></trkpt><trkpt lat="45.64742499108039" lon="9.208482011980077"><ele>224.0</ele><time>2026-04-12T05:54:16Z</time></trkpt><trkpt lat="45.64753275811132" lon="9.208487356029014"><ele>224.0</ele><time>2026-04-12T05:54:17Z</time></trkpt><trkpt lat="45.6476345527482" lon="9.208496536515865"><ele>224.0</ele><time>2026-04-12T05:54:18Z</time></trkpt><trkpt lat="45.64775583314574" lon="9.208503405995273"><ele>224.0</ele><time>2026-04-12T05:54:19Z</time></trkpt><trkpt lat="45.647875808227106" lon="9.208509958673337"><ele>224.0</ele><time>2026-04-12T05:54:20Z</time></trkpt><trkpt lat="45.64799341431422" lon="9.208520292934717"><ele>225.0</ele><time>2026-04-12T05:54:21Z</time></trkpt><trkpt lat="45.64811301032828" lon="9.208534118742866"><ele>226.0</ele><time>2026-04-12T05:54:22Z</time></trkpt><trkpt lat="45.64823450087488" lon="9.208545236082907"><ele>227.0</ele><time>2026-04-12T05:54:23Z</time></trkpt><trkpt lat="45.648354314284255" lon="9.208551596296962"><ele>228.0</ele><time>2026-04-12T05:54:24Z</time></trkpt><trkpt lat="45.64847483226473" lon="9.208559285841675"><ele>228.0</ele><time>2026-04-12T05:54:25Z</time></trkpt><trkpt lat="45.64859580143292" lon="9.208567924063198"><ele>228.0</ele><time>2026-04-12T05:54:26Z</time></trkpt><trkpt lat="45.64871498268599" lon="9.208573211902694"><ele>228.0</ele><time>2026-04-12T05:54:27Z</time></trkpt><trkpt lat="45.64883630716227" lon="9.20857168952141"><ele>228.0</ele><time>2026-04-12T05:54:28Z</time></trkpt><trkpt lat="45.64895982999179" lon="9.208579990742837"><ele>228.0</ele><time>2026-04-12T05:54:29Z</time></trkpt><trkpt lat="45.649076979379075" lon="9.208580257015422"><ele>228.0</ele><time>2026-04-12T05:54:30Z</time></trkpt><trkpt lat="45.64921213092462" lon="9.208583511936968"><ele>228.0</ele><time>2026-04-12T05:54:31Z</time></trkpt><trkpt lat="45.649333178141546" lon="9.208585709228737"><ele>228.0</ele><time>2026-04-12T05:54:32Z</time></trkpt><trkpt lat="45.649453972515914" lon="9.2085958189627"><ele>228.0</ele><time>2026-04-12T05:54:33Z</time></trkpt><trkpt lat="45.649572776949924" lon="9.208604603284785"><ele>228.0</ele><time>2026-04-12T05:54:34Z</time></trkpt><trkpt lat="45.649663553109065" lon="9.208610510604624"><ele>228.0</ele><time>2026-04-12T05:54:35Z</time></trkpt><trkpt lat="45.649768975016606" lon="9.20862603079026"><ele>228.0</ele><time>2026-04-12T05:54:37Z</time></trkpt><trkpt lat="45.64983222179815" lon="9.208627555279678"><ele>228.0</ele><time>2026-04-12T05:54:39Z</time></trkpt><trkpt lat="45.64994754856715" lon="9.208589170616614"><ele>228.0</ele><time>2026-04-12T05:55:00Z</time></trkpt><trkpt lat="45.65001384198955" lon="9.208594227843882"><ele>228.0</ele><time>2026-04-12T05:55:02Z</time></trkpt><trkpt lat="45.650136230209675" lon="9.208604899833867"><ele>228.0</ele><time>2026-04-12T05:55:04Z</time></trkpt><trkpt lat="45.650210917009055" lon="9.208613955483218"><ele>228.0</ele><time>2026-04-12T05:55:05Z</time></trkpt><trkpt lat="45.65028849712745" lon="9.208622587385168"><ele>228.0</ele><time>2026-04-12T05:55:06Z</time></trkpt><trkpt lat="45.65037682578428" lon="9.208632415218169"><ele>228.0</ele><time>2026-04-12T05:55:07Z</time></trkpt><trkpt lat="45.650504758515886" lon="9.208647687238129"><ele>228.5</ele><time>2026-04-12T05:55:08Z</time></trkpt><trkpt lat="45.650624886667316" lon="9.20864079575136"><ele>229.0</ele><time>2026-04-12T05:55:09Z</time></trkpt><trkpt lat="45.650725685973626" lon="9.208652224803428"><ele>229.5</ele><time>2026-04-12T05:55:10Z</time></trkpt><trkpt lat="45.65083328752569" lon="9.208688892281435"><ele>230.0</ele><time>2026-04-12T05:55:11Z</time></trkpt><trkpt lat="45.65095304759834" lon="9.208697034378378"><ele>230.0</ele><time>2026-04-12T05:55:12Z</time></trkpt><trkpt lat="45.65105414474838" lon="9.208707724022943"><ele>230.0</ele><time>2026-04-12T05:55:13Z</time></trkpt><trkpt lat="45.65116900666376" lon="9.208719008366588"><ele>230.0</ele><time>2026-04-12T05:55:14Z</time></trkpt><trkpt lat="45.65128150386726" lon="9.208733426623217"><ele>230.0</ele><time>2026-04-12T05:55:15Z</time></trkpt><trkpt lat="45.651408119240806" lon="9.208744905181392"><ele>229.75</ele><time>2026-04-12T05:55:16Z</time></trkpt><trkpt lat="45.651531536894055" lon="9.208758648851612"><ele>229.5</ele><time>2026-04-12T05:55:17Z</time></trkpt><trkpt lat="45.651662085399394" lon="9.208772415560803"><ele>229.25</ele><time>2026-04-12T05:55:18Z</time></trkpt><trkpt lat="45.65178399241815" lon="9.208783853122938"><ele>229.0</ele><time>2026-04-12T05:55:19Z</time></trkpt><trkpt lat="45.6519109534909" lon="9.208800567157242"><ele>228.75</ele><time>2026-04-12T05:55:20Z</time></trkpt><trkpt lat="45.652038621565275" lon="9.208817116702734"><ele>228.5</ele><time>2026-04-12T05:55:21Z</time></trkpt><trkpt lat="45.65216078103685" lon="9.208836684044167"><ele>228.25</ele><time>2026-04-12T05:55:22Z</time></trkpt><trkpt lat="45.65228643864163" lon="9.208851502574811"><ele>228.0</ele><time>2026-04-12T05:55:23Z</time></trkpt><trkpt lat="45.652411716258186" lon="9.208860787943737"><ele>228.0</ele><time>2026-04-12T05:55:24Z</time></trkpt><trkpt lat="45.652533125765466" lon="9.20887093021739"><ele>228.0</ele><time>2026-04-12T05:55:25Z</time></trkpt><trkpt lat="45.65265659719912" lon="9.208872001901005"><ele>228.0</ele><time>2026-04-12T05:55:26Z</time></trkpt><trkpt lat="45.65276977380525" lon="9.20889028691202"><ele>228.0</ele><time>2026-04-12T05:55:27Z</time></trkpt><trkpt lat="45.65288656901763" lon="9.208902254863856"><ele>228.0</ele><time>2026-04-12T05:55:28Z</time></trkpt><trkpt lat="45.6529982825111" lon="9.208909749427088"><ele>228.0</ele><time>2026-04-12T05:55:28.999Z</time></trkpt><trkpt lat="45.65311266122984" lon="9.20891972091444"><ele>228.0</ele><time>2026-04-12T05:55:29.999Z</time></trkpt><trkpt lat="45.653226080674706" lon="9.208928652388124"><ele>228.0</ele><time>2026-04-12T05:55:30.999Z</time></trkpt><trkpt lat="45.653347977473324" lon="9.208929313873037"><ele>228.0</ele><time>2026-04-12T05:55:31.999Z</time></trkpt><trkpt lat="45.653467120148164" lon="9.208937838277336"><ele>228.0</ele><time>2026-04-12T05:55:32.999Z</time></trkpt><trkpt lat="45.653589952119944" lon="9.208943449109341"><ele>228.0</ele><time>2026-04-12T05:55:33.999Z</time></trkpt><trkpt lat="45.65371271835957" lon="9.20895149662058"><ele>228.0</ele><time>2026-04-12T05:55:34.999Z</time></trkpt><trkpt lat="45.653835414794926" lon="9.20896160844741"><ele>228.5</ele><time>2026-04-12T05:55:35.999Z</time></trkpt><trkpt lat="45.65396208971563" lon="9.208960846203267"><ele>229.0</ele><time>2026-04-12T05:55:36.999Z</time></trkpt><trkpt lat="45.654086666081824" lon="9.208963886372091"><ele>229.5</ele><time>2026-04-12T05:55:37.999Z</time></trkpt><trkpt lat="45.65421054589435" lon="9.208967427283863"><ele>230.0</ele><time>2026-04-12T05:55:38.999Z</time></trkpt><trkpt lat="45.65433414634149" lon="9.208974018735507"><ele>230.25</ele><time>2026-04-12T05:55:39.999Z</time></trkpt><trkpt lat="45.654461650731356" lon="9.208973010801776"><ele>230.5</ele><time>2026-04-12T05:55:40.999Z</time></trkpt><trkpt lat="45.654584864655725" lon="9.208976856316873"><ele>230.75</ele><time>2026-04-12T05:55:41.999Z</time></trkpt><trkpt lat="45.654706883996184" lon="9.208979406370997"><ele>231.0</ele><time>2026-04-12T05:55:42.999Z</time></trkpt><trkpt lat="45.65482359974872" lon="9.208994481199966"><ele>231.0</ele><time>2026-04-12T05:55:43.999Z</time></trkpt><trkpt lat="45.65495171449785" lon="9.208987075456465"><ele>231.0</ele><time>2026-04-12T05:55:44.999Z</time></trkpt><trkpt lat="45.65507154057743" lon="9.208981411443833"><ele>231.0</ele><time>2026-04-12T05:55:45.999Z</time></trkpt><trkpt lat="45.6551923584739" lon="9.208979641158216"><ele>231.0</ele><time>2026-04-12T05:55:46.999Z</time></trkpt><trkpt lat="45.65529892896838" lon="9.208983160165491"><ele>230.8</ele><time>2026-04-12T05:55:47.999Z</time></trkpt><trkpt lat="45.65540594307142" lon="9.208988725814068"><ele>230.60000000000002</ele><time>2026-04-12T05:55:48.999Z</time></trkpt><trkpt lat="45.65550589256294" lon="9.20899080781051"><ele>230.4</ele><time>2026-04-12T05:55:49.999Z</time></trkpt><trkpt lat="45.65560537920182" lon="9.208991606121428"><ele>230.2</ele><time>2026-04-12T05:55:50.999Z</time></trkpt><trkpt lat="45.655697301552856" lon="9.209003392660266"><ele>230.0</ele><time>2026-04-12T05:55:51.999Z</time></trkpt><trkpt lat="45.655779999820716" lon="9.209008536524372"><ele>230.0</ele><time>2026-04-12T05:55:52.999Z</time></trkpt><trkpt lat="45.65584296568861" lon="9.209007016519406"><ele>230.0</ele><time>2026-04-12T05:55:53.999Z</time></trkpt><trkpt lat="45.65593990216366" lon="9.209048327161161"><ele>230.0</ele><time>2026-04-12T05:55:55.999Z</time></trkpt><trkpt lat="45.65605626173908" lon="9.209130309627492"><ele>230.0</ele><time>2026-04-12T05:55:57.999Z</time></trkpt><trkpt lat="45.65613632245059" lon="9.209120853972262"><ele>230.0</ele><time>2026-04-12T05:55:58.999Z</time></trkpt><trkpt lat="45.656226386730395" lon="9.209080911990803"><ele>230.0</ele><time>2026-04-12T05:55:59.999Z</time></trkpt><trkpt lat="45.656330096499026" lon="9.209107581497408"><ele>230.0</ele><time>2026-04-12T05:56:00.999Z</time></trkpt><trkpt lat="45.65643220581115" lon="9.209120475729556"><ele>230.0</ele><time>2026-04-12T05:56:01.999Z</time></trkpt><trkpt lat="45.6565374285312" lon="9.209142694380043"><ele>230.0</ele><time>2026-04-12T05:56:02.999Z</time></trkpt><trkpt lat="45.65664677055501" lon="9.209165834054849"><ele>230.0</ele><time>2026-04-12T05:56:03.999Z</time></trkpt><trkpt lat="45.65675170193393" lon="9.20919422430311"><ele>230.0</ele><time>2026-04-12T05:56:04.999Z</time></trkpt><trkpt lat="45.65686199519721" lon="9.209227742898431"><ele>230.0</ele><time>2026-04-12T05:56:05.999Z</time></trkpt><trkpt lat="45.656971050964955" lon="9.209269079100356"><ele>230.0</ele><time>2026-04-12T05:56:07Z</time></trkpt><trkpt lat="45.65708478370715" lon="9.2093172522662"><ele>230.0</ele><time>2026-04-12T05:56:08Z</time></trkpt><trkpt lat="45.65720135915817" lon="9.20937840122042"><ele>230.75</ele><time>2026-04-12T05:56:09Z</time></trkpt><trkpt lat="45.65731876382731" lon="9.209452715578438"><ele>231.5</ele><time>2026-04-12T05:56:10Z</time></trkpt><trkpt lat="45.65742695288148" lon="9.209542183999163"><ele>232.25</ele><time>2026-04-12T05:56:11Z</time></trkpt><trkpt lat="45.657528698310635" lon="9.209636618511697"><ele>233.0</ele><time>2026-04-12T05:56:12Z</time></trkpt><trkpt lat="45.65762189747881" lon="9.209734808370596"><ele>232.8</ele><time>2026-04-12T05:56:13Z</time></trkpt><trkpt lat="45.65770664042332" lon="9.20983788831444"><ele>232.60000000000002</ele><time>2026-04-12T05:56:14Z</time></trkpt><trkpt lat="45.657779116505964" lon="9.209942310347717"><ele>232.39999999999998</ele><time>2026-04-12T05:56:15Z</time></trkpt><trkpt lat="45.65784551728019" lon="9.210033637187353"><ele>232.2</ele><time>2026-04-12T05:56:16Z</time></trkpt><trkpt lat="45.65790552259911" lon="9.210113959538562"><ele>232.0</ele><time>2026-04-12T05:56:17Z</time></trkpt><trkpt lat="45.657966524978114" lon="9.210190417087013"><ele>232.0</ele><time>2026-04-12T05:56:18Z</time></trkpt><trkpt lat="45.658030663128116" lon="9.210280614410017"><ele>232.0</ele><time>2026-04-12T05:56:19Z</time></trkpt><trkpt lat="45.65810105528635" lon="9.21037030936749"><ele>232.0</ele><time>2026-04-12T05:56:20Z</time></trkpt><trkpt lat="45.65816830472676" lon="9.210474682997939"><ele>232.0</ele><time>2026-04-12T05:56:21Z</time></trkpt><trkpt lat="45.65822942365862" lon="9.210591752301767"><ele>232.0</ele><time>2026-04-12T05:56:22Z</time></trkpt><trkpt lat="45.65830170397899" lon="9.210716656064493"><ele>232.25</ele><time>2026-04-12T05:56:23Z</time></trkpt><trkpt lat="45.65838112906373" lon="9.210842220676945"><ele>232.5</ele><time>2026-04-12T05:56:24Z</time></trkpt><trkpt lat="45.658454148781345" lon="9.210972627902656"><ele>232.75</ele><time>2026-04-12T05:56:25Z</time></trkpt><trkpt lat="45.65852928309661" lon="9.21110557200208"><ele>233.0</ele><time>2026-04-12T05:56:26Z</time></trkpt><trkpt lat="45.65860320800432" lon="9.211238064241842"><ele>232.60000000000002</ele><time>2026-04-12T05:56:27Z</time></trkpt><trkpt lat="45.65868307048746" lon="9.211364097095036"><ele>232.20000000000002</ele><time>2026-04-12T05:56:28Z</time></trkpt><trkpt lat="45.65876063382109" lon="9.211481464442945"><ele>231.8</ele><time>2026-04-12T05:56:29Z</time></trkpt><trkpt lat="45.65883663581105" lon="9.211587313515771"><ele>231.4</ele><time>2026-04-12T05:56:30Z</time></trkpt><trkpt lat="45.658908701334525" lon="9.21167692027541"><ele>231.0</ele><time>2026-04-12T05:56:31Z</time></trkpt><trkpt lat="45.65894780140489" lon="9.211786087196053"><ele>231.0</ele><time>2026-04-12T05:56:32Z</time></trkpt><trkpt lat="45.65899695473546" lon="9.211875652115337"><ele>231.0</ele><time>2026-04-12T05:56:33Z</time></trkpt><trkpt lat="45.65903432600233" lon="9.211950742436036"><ele>231.0</ele><time>2026-04-12T05:56:34Z</time></trkpt><trkpt lat="45.659075248051295" lon="9.212058124874426"><ele>231.0</ele><time>2026-04-12T05:56:35Z</time></trkpt><trkpt lat="45.659135880716775" lon="9.212165991609194"><ele>231.0</ele><time>2026-04-12T05:56:36Z</time></trkpt><trkpt lat="45.659205628128284" lon="9.212277414632187"><ele>231.0</ele><time>2026-04-12T05:56:37Z</time></trkpt><trkpt lat="45.65927566008975" lon="9.212399435655426"><ele>231.25</ele><time>2026-04-12T05:56:38Z</time></trkpt><trkpt lat="45.65935347278292" lon="9.212532107909746"><ele>231.5</ele><time>2026-04-12T05:56:39Z</time></trkpt><trkpt lat="45.6594338140562" lon="9.212670100783386"><ele>231.75</ele><time>2026-04-12T05:56:40Z</time></trkpt><trkpt lat="45.65951756205474" lon="9.212815751273663"><ele>232.0</ele><time>2026-04-12T05:56:41Z</time></trkpt><trkpt lat="45.65960614202893" lon="9.212965984062969"><ele>232.0</ele><time>2026-04-12T05:56:42Z</time></trkpt><trkpt lat="45.65970097028879" lon="9.213116365946094"><ele>232.0</ele><time>2026-04-12T05:56:43Z</time></trkpt><trkpt lat="45.65979157407141" lon="9.213273382304092"><ele>232.0</ele><time>2026-04-12T05:56:44Z</time></trkpt><trkpt lat="45.65989034773499" lon="9.213429478818103"><ele>232.0</ele><time>2026-04-12T05:56:45Z</time></trkpt><trkpt lat="45.65998626222076" lon="9.213588033321638"><ele>232.0</ele><time>2026-04-12T05:56:46Z</time></trkpt><trkpt lat="45.66007698767089" lon="9.213748393956125"><ele>232.0</ele><time>2026-04-12T05:56:47Z</time></trkpt><trkpt lat="45.66016368587668" lon="9.213914952177179"><ele>232.0</ele><time>2026-04-12T05:56:48Z</time></trkpt><trkpt lat="45.66025292122826" lon="9.214074496912001"><ele>232.0</ele><time>2026-04-12T05:56:49Z</time></trkpt><trkpt lat="45.660342220948195" lon="9.214235824523639"><ele>232.0</ele><time>2026-04-12T05:56:50Z</time></trkpt><trkpt lat="45.660436926744744" lon="9.214393071044986"><ele>232.0</ele><time>2026-04-12T05:56:51Z</time></trkpt><trkpt lat="45.66052704724831" lon="9.214545027088056"><ele>232.0</ele><time>2026-04-12T05:56:52Z</time></trkpt><trkpt lat="45.66061771938651" lon="9.214700458667023"><ele>232.0</ele><time>2026-04-12T05:56:53Z</time></trkpt><trkpt lat="45.66071377773359" lon="9.214856574134538"><ele>232.25</ele><time>2026-04-12T05:56:54Z</time></trkpt><trkpt lat="45.66081265175663" lon="9.215010512021165"><ele>232.5</ele><time>2026-04-12T05:56:55Z</time></trkpt><trkpt lat="45.66091222312736" lon="9.21517384625208"><ele>232.75</ele><time>2026-04-12T05:56:56Z</time></trkpt><trkpt lat="45.66100828071366" lon="9.215340234875482"><ele>233.0</ele><time>2026-04-12T05:56:57Z</time></trkpt><trkpt lat="45.661103373346606" lon="9.215507794863555"><ele>233.66666666666669</ele><time>2026-04-12T05:56:58Z</time></trkpt><trkpt lat="45.66120033029536" lon="9.215672947191036"><ele>234.33333333333331</ele><time>2026-04-12T05:56:59Z</time></trkpt><trkpt lat="45.661293894987004" lon="9.215839503099756"><ele>235.0</ele><time>2026-04-12T05:57:00Z</time></trkpt><trkpt lat="45.661390395028164" lon="9.216003099917973"><ele>235.0</ele><time>2026-04-12T05:57:01Z</time></trkpt><trkpt lat="45.66149290776787" lon="9.216170832223865"><ele>235.0</ele><time>2026-04-12T05:57:02Z</time></trkpt><trkpt lat="45.661590063882976" lon="9.216334154004818"><ele>235.0</ele><time>2026-04-12T05:57:03Z</time></trkpt><trkpt lat="45.66169306874839" lon="9.216497191351998"><ele>234.66666666666666</ele><time>2026-04-12T05:57:04Z</time></trkpt><trkpt lat="45.66180227796562" lon="9.216667276829932"><ele>234.33333333333331</ele><time>2026-04-12T05:57:05Z</time></trkpt><trkpt lat="45.66190248822168" lon="9.216828577983591"><ele>234.0</ele><time>2026-04-12T05:57:06Z</time></trkpt><trkpt lat="45.66200935478988" lon="9.216987473252683"><ele>234.0</ele><time>2026-04-12T05:57:07Z</time></trkpt><trkpt lat="45.66211042731449" lon="9.217142541955566"><ele>234.0</ele><time>2026-04-12T05:57:08Z</time></trkpt><trkpt lat="45.66220078853595" lon="9.21729579140825"><ele>234.0</ele><time>2026-04-12T05:57:09Z</time></trkpt><trkpt lat="45.66228195420043" lon="9.217450192853565"><ele>234.0</ele><time>2026-04-12T05:57:10Z</time></trkpt><trkpt lat="45.66234841165499" lon="9.217610097369414"><ele>233.75</ele><time>2026-04-12T05:57:11Z</time></trkpt><trkpt lat="45.662397513521704" lon="9.217782677948586"><ele>233.5</ele><time>2026-04-12T05:57:12Z</time></trkpt><trkpt lat="45.66242858660069" lon="9.217958209153695"><ele>233.25</ele><time>2026-04-12T05:57:13Z</time></trkpt><trkpt lat="45.66244907959473" lon="9.218131271866667"><ele>233.0</ele><time>2026-04-12T05:57:14Z</time></trkpt><trkpt lat="45.66250777287915" lon="9.218287350367055"><ele>233.5</ele><time>2026-04-12T05:57:15Z</time></trkpt><trkpt lat="45.66257509916175" lon="9.218435129628771"><ele>234.0</ele><time>2026-04-12T05:57:16Z</time></trkpt><trkpt lat="45.662683210212755" lon="9.218535884288466"><ele>234.5</ele><time>2026-04-12T05:57:17Z</time></trkpt><trkpt lat="45.6627965505413" lon="9.218614637025247"><ele>235.0</ele><time>2026-04-12T05:57:18Z</time></trkpt><trkpt lat="45.66291529018698" lon="9.218702607934944"><ele>235.0</ele><time>2026-04-12T05:57:19Z</time></trkpt><trkpt lat="45.66303341106335" lon="9.218803731111317"><ele>235.0</ele><time>2026-04-12T05:57:20Z</time></trkpt><trkpt lat="45.663156644515155" lon="9.21891840560245"><ele>235.0</ele><time>2026-04-12T05:57:21Z</time></trkpt><trkpt lat="45.66327228479583" lon="9.219058445795437"><ele>235.0</ele><time>2026-04-12T05:57:22Z</time></trkpt><trkpt lat="45.663374627938644" lon="9.219218595938898"><ele>234.33333333333331</ele><time>2026-04-12T05:57:23Z</time></trkpt><trkpt lat="45.66347817682047" lon="9.219389195649052"><ele>233.66666666666669</ele><time>2026-04-12T05:57:24Z</time></trkpt><trkpt lat="45.66358513664661" lon="9.219564991574936"><ele>233.0</ele><time>2026-04-12T05:57:25Z</time></trkpt><trkpt lat="45.66369227045177" lon="9.219741157792043"><ele>233.33333333333334</ele><time>2026-04-12T05:57:26Z</time></trkpt><trkpt lat="45.663797296551174" lon="9.219915880616124"><ele>233.66666666666669</ele><time>2026-04-12T05:57:27Z</time></trkpt><trkpt lat="45.66390139727907" lon="9.220091007574162"><ele>234.0</ele><time>2026-04-12T05:57:28Z</time></trkpt><trkpt lat="45.66400544728931" lon="9.220257497665111"><ele>234.0</ele><time>2026-04-12T05:57:29Z</time></trkpt><trkpt lat="45.664108177683055" lon="9.220424549356315"><ele>234.0</ele><time>2026-04-12T05:57:30Z</time></trkpt><trkpt lat="45.664207482572664" lon="9.220590341907933"><ele>234.0</ele><time>2026-04-12T05:57:31Z</time></trkpt><trkpt lat="45.66431813663006" lon="9.220744414699718"><ele>234.33333333333331</ele><time>2026-04-12T05:57:32Z</time></trkpt><trkpt lat="45.6644429464453" lon="9.220874698749222"><ele>234.66666666666666</ele><time>2026-04-12T05:57:33Z</time></trkpt><trkpt lat="45.66457839036461" lon="9.220990675397514"><ele>235.0</ele><time>2026-04-12T05:57:34Z</time></trkpt><trkpt lat="45.6647249359192" lon="9.22107641626996"><ele>235.25</ele><time>2026-04-12T05:57:35Z</time></trkpt><trkpt lat="45.66487351659656" lon="9.221152685299597"><ele>235.5</ele><time>2026-04-12T05:57:36Z</time></trkpt><trkpt lat="45.665012486632804" lon="9.22122802179496"><ele>235.75</ele><time>2026-04-12T05:57:36.999Z</time></trkpt><trkpt lat="45.66514153750834" lon="9.22128898001266"><ele>236.0</ele><time>2026-04-12T05:57:37.999Z</time></trkpt><trkpt lat="45.66524292636506" lon="9.221339134489856"><ele>236.50000000000003</ele><time>2026-04-12T05:57:38.999Z</time></trkpt><trkpt lat="45.66532382862983" lon="9.221410764237334"><ele>237.0</ele><time>2026-04-12T05:57:39.999Z</time></trkpt><trkpt lat="45.66537554818159" lon="9.221505716965007"><ele>237.5</ele><time>2026-04-12T05:57:40.999Z</time></trkpt><trkpt lat="45.665405614910476" lon="9.2216098984583"><ele>238.0</ele><time>2026-04-12T05:57:41.999Z</time></trkpt><trkpt lat="45.66541376984575" lon="9.221705701134205"><ele>238.50000000000003</ele><time>2026-04-12T05:57:42.999Z</time></trkpt><trkpt lat="45.66539293135008" lon="9.221821241039118"><ele>239.0</ele><time>2026-04-12T05:57:44.999Z</time></trkpt><trkpt lat="45.6653265689265" lon="9.221962092572408"><ele>238.39999999999998</ele><time>2026-04-12T05:57:47.999Z</time></trkpt><trkpt lat="45.6652642800275" lon="9.222017822315198"><ele>237.79999999999998</ele><time>2026-04-12T05:57:48.999Z</time></trkpt><trkpt lat="45.66519377655206" lon="9.222083369823144"><ele>237.20000000000002</ele><time>2026-04-12T05:57:49.999Z</time></trkpt><trkpt lat="45.66511215000414" lon="9.222152278319681"><ele>236.60000000000002</ele><time>2026-04-12T05:57:50.999Z</time></trkpt><trkpt lat="45.66503166803125" lon="9.222236253687694"><ele>236.0</ele><time>2026-04-12T05:57:51.999Z</time></trkpt><trkpt lat="45.66496506036741" lon="9.222355724610521"><ele>236.0</ele><time>2026-04-12T05:57:52.999Z</time></trkpt><trkpt lat="45.664917378203334" lon="9.222499372129704"><ele>236.0</ele><time>2026-04-12T05:57:53.999Z</time></trkpt><trkpt lat="45.66489177127679" lon="9.222662309722704"><ele>236.0</ele><time>2026-04-12T05:57:54.999Z</time></trkpt><trkpt lat="45.66489076062611" lon="9.222831625218614"><ele>236.0</ele><time>2026-04-12T05:57:55.999Z</time></trkpt><trkpt lat="45.6649188949001" lon="9.223000590213749"><ele>236.5</ele><time>2026-04-12T05:57:56.999Z</time></trkpt><trkpt lat="45.66496536371996" lon="9.223155552886494"><ele>237.0</ele><time>2026-04-12T05:57:57.999Z</time></trkpt><trkpt lat="45.66504811575497" lon="9.223282697942198"><ele>237.5</ele><time>2026-04-12T05:57:58.999Z</time></trkpt><trkpt lat="45.665147881211524" lon="9.22338029823641"><ele>238.0</ele><time>2026-04-12T05:57:59.999Z</time></trkpt><trkpt lat="45.66526483196633" lon="9.223435778189973"><ele>237.5</ele><time>2026-04-12T05:58:00.999Z</time></trkpt><trkpt lat="45.665396284771354" lon="9.223458219878314"><ele>237.0</ele><time>2026-04-12T05:58:01.999Z</time></trkpt><trkpt lat="45.665512899898495" lon="9.22343994706425"><ele>236.5</ele><time>2026-04-12T05:58:02.999Z</time></trkpt><trkpt lat="45.66563776135474" lon="9.223500095677762"><ele>236.0</ele><time>2026-04-12T05:58:03.999Z</time></trkpt><trkpt lat="45.66575649393532" lon="9.223570689522473"><ele>236.0</ele><time>2026-04-12T05:58:04.999Z</time></trkpt><trkpt lat="45.66586468717469" lon="9.223679422371585"><ele>236.0</ele><time>2026-04-12T05:58:05.999Z</time></trkpt><trkpt lat="45.665963552859616" lon="9.223822863991552"><ele>236.0</ele><time>2026-04-12T05:58:06.999Z</time></trkpt><trkpt lat="45.666062391070206" lon="9.223971697204236"><ele>236.0</ele><time>2026-04-12T05:58:07.999Z</time></trkpt><trkpt lat="45.66615425973031" lon="9.224111852390315"><ele>236.00000000000003</ele><time>2026-04-12T05:58:08.999Z</time></trkpt><trkpt lat="45.666230051651894" lon="9.224228557990266"><ele>236.0</ele><time>2026-04-12T05:58:09.999Z</time></trkpt><trkpt lat="45.66629203894875" lon="9.22432486973718"><ele>236.0</ele><time>2026-04-12T05:58:10.999Z</time></trkpt><trkpt lat="45.66633929960367" lon="9.224424160744027"><ele>236.0</ele><time>2026-04-12T05:58:11.999Z</time></trkpt><trkpt lat="45.666369527389456" lon="9.224526510911058"><ele>236.00000000000003</ele><time>2026-04-12T05:58:13Z</time></trkpt><trkpt lat="45.66638887138853" lon="9.224633119344725"><ele>236.0</ele><time>2026-04-12T05:58:14Z</time></trkpt><trkpt lat="45.666417661699356" lon="9.224740815778006"><ele>236.4</ele><time>2026-04-12T05:58:15Z</time></trkpt><trkpt lat="45.66648280626024" lon="9.224831825534856"><ele>236.8</ele><time>2026-04-12T05:58:16Z</time></trkpt><trkpt lat="45.66657693188547" lon="9.22487727983087"><ele>237.20000000000002</ele><time>2026-04-12T05:58:17Z</time></trkpt><trkpt lat="45.666675984950224" lon="9.224899424409049"><ele>237.60000000000002</ele><time>2026-04-12T05:58:18Z</time></trkpt><trkpt lat="45.66677593265577" lon="9.22495257141224"><ele>238.0</ele><time>2026-04-12T05:58:19Z</time></trkpt><trkpt lat="45.666880359812836" lon="9.224988429705121"><ele>238.0</ele><time>2026-04-12T05:58:20Z</time></trkpt><trkpt lat="45.66695941479486" lon="9.225154069593499"><ele>238.0</ele><time>2026-04-12T05:58:21Z</time></trkpt><trkpt lat="45.66704047549538" lon="9.22528782206281"><ele>238.0</ele><time>2026-04-12T05:58:22Z</time></trkpt><trkpt lat="45.667124231577155" lon="9.225430698938899"><ele>238.0</ele><time>2026-04-12T05:58:23Z</time></trkpt><trkpt lat="45.667207798692" lon="9.225578251780474"><ele>237.75</ele><time>2026-04-12T05:58:24Z</time></trkpt><trkpt lat="45.667300748192716" lon="9.225726518770923"><ele>237.5</ele><time>2026-04-12T05:58:25Z</time></trkpt><trkpt lat="45.66739352346117" lon="9.225877639249221"><ele>237.25</ele><time>2026-04-12T05:58:26Z</time></trkpt><trkpt lat="45.667488594681586" lon="9.226036627903534"><ele>237.0</ele><time>2026-04-12T05:58:27Z</time></trkpt><trkpt lat="45.66758554719329" lon="9.226199332235648"><ele>237.0</ele><time>2026-04-12T05:58:28Z</time></trkpt><trkpt lat="45.66768444941835" lon="9.226362769893651"><ele>237.0</ele><time>2026-04-12T05:58:29Z</time></trkpt><trkpt lat="45.66778486854459" lon="9.22653170624327"><ele>237.0</ele><time>2026-04-12T05:58:30Z</time></trkpt><trkpt lat="45.66788523548108" lon="9.22669874584409"><ele>237.66666666666669</ele><time>2026-04-12T05:58:31Z</time></trkpt><trkpt lat="45.66798647593907" lon="9.2268674507727"><ele>238.33333333333334</ele><time>2026-04-12T05:58:32Z</time></trkpt><trkpt lat="45.66809455141598" lon="9.22703819188683"><ele>239.0</ele><time>2026-04-12T05:58:33Z</time></trkpt><trkpt lat="45.66819599999735" lon="9.227212035767822"><ele>239.0</ele><time>2026-04-12T05:58:34Z</time></trkpt><trkpt lat="45.66830194691816" lon="9.227384532762244"><ele>239.0</ele><time>2026-04-12T05:58:35Z</time></trkpt><trkpt lat="45.6684047519272" lon="9.227557819368421"><ele>239.0</ele><time>2026-04-12T05:58:36Z</time></trkpt><trkpt lat="45.66850322784259" lon="9.227736413622106"><ele>239.0</ele><time>2026-04-12T05:58:37Z</time></trkpt><trkpt lat="45.668606713912084" lon="9.227908521071978"><ele>239.0</ele><time>2026-04-12T05:58:38Z</time></trkpt><trkpt lat="45.66871015304924" lon="9.228076123905444"><ele>239.0</ele><time>2026-04-12T05:58:39Z</time></trkpt><trkpt lat="45.66880821770132" lon="9.228243651068743"><ele>240.0</ele><time>2026-04-12T05:58:40Z</time></trkpt><trkpt lat="45.66890682140922" lon="9.228409414113123"><ele>241.0</ele><time>2026-04-12T05:58:41Z</time></trkpt><trkpt lat="45.669004715010026" lon="9.228575343000905"><ele>242.0</ele><time>2026-04-12T05:58:42Z</time></trkpt><trkpt lat="45.66910433341481" lon="9.228740778848499"><ele>242.0</ele><time>2026-04-12T05:58:43Z</time></trkpt><trkpt lat="45.66920650151762" lon="9.228900612810703"><ele>242.0</ele><time>2026-04-12T05:58:44Z</time></trkpt><trkpt lat="45.66930534186373" lon="9.229058639157405"><ele>242.0</ele><time>2026-04-12T05:58:45Z</time></trkpt><trkpt lat="45.66940183094149" lon="9.229211690385137"><ele>242.0</ele><time>2026-04-12T05:58:46Z</time></trkpt><trkpt lat="45.669488150346496" lon="9.22934398367008"><ele>242.00000000000003</ele><time>2026-04-12T05:58:47Z</time></trkpt><trkpt lat="45.66955286076914" lon="9.229450494713936"><ele>242.0</ele><time>2026-04-12T05:58:48Z</time></trkpt><trkpt lat="45.66960620089162" lon="9.229541538886972"><ele>242.0</ele><time>2026-04-12T05:58:49Z</time></trkpt><trkpt lat="45.66965177778067" lon="9.229627720948036"><ele>242.0</ele><time>2026-04-12T05:58:50Z</time></trkpt><trkpt lat="45.669681870852756" lon="9.22972895578862"><ele>242.00000000000003</ele><time>2026-04-12T05:58:51Z</time></trkpt><trkpt lat="45.6696966727252" lon="9.229830437322184"><ele>242.0</ele><time>2026-04-12T05:58:52Z</time></trkpt><trkpt lat="45.66971196775372" lon="9.229931477074151"><ele>242.0</ele><time>2026-04-12T05:58:53Z</time></trkpt><trkpt lat="45.669752455544504" lon="9.23002095106162"><ele>242.0</ele><time>2026-04-12T05:58:54Z</time></trkpt><trkpt lat="45.66983236187919" lon="9.23007685666097"><ele>242.0</ele><time>2026-04-12T05:58:55Z</time></trkpt><trkpt lat="45.6699134171569" lon="9.23011163901588"><ele>242.0</ele><time>2026-04-12T05:58:56Z</time></trkpt><trkpt lat="45.66998913169699" lon="9.230182797108116"><ele>242.0</ele><time>2026-04-12T05:58:57Z</time></trkpt><trkpt lat="45.6700668403547" lon="9.230301519570522"><ele>242.0</ele><time>2026-04-12T05:58:58Z</time></trkpt><trkpt lat="45.67013716249318" lon="9.230424113921766"><ele>242.0</ele><time>2026-04-12T05:58:59Z</time></trkpt><trkpt lat="45.67021218938106" lon="9.230550081326555"><ele>242.0</ele><time>2026-04-12T05:59:00Z</time></trkpt><trkpt lat="45.67029478986842" lon="9.230685530610716"><ele>242.0</ele><time>2026-04-12T05:59:01Z</time></trkpt><trkpt lat="45.67037765141944" lon="9.230825623084188"><ele>242.25</ele><time>2026-04-12T05:59:02Z</time></trkpt><trkpt lat="45.67046412372233" lon="9.230965766849822"><ele>242.5</ele><time>2026-04-12T05:59:03Z</time></trkpt><trkpt lat="45.67054671245347" lon="9.231108805657009"><ele>242.75</ele><time>2026-04-12T05:59:04Z</time></trkpt><trkpt lat="45.67063120140779" lon="9.231261206227522"><ele>243.0</ele><time>2026-04-12T05:59:05Z</time></trkpt><trkpt lat="45.67070900303919" lon="9.231424896420613"><ele>243.75</ele><time>2026-04-12T05:59:06Z</time></trkpt><trkpt lat="45.670780330592216" lon="9.231599515333464"><ele>244.5</ele><time>2026-04-12T05:59:07Z</time></trkpt><trkpt lat="45.670846837124245" lon="9.231779481245843"><ele>245.25</ele><time>2026-04-12T05:59:08Z</time></trkpt><trkpt lat="45.67090231296809" lon="9.231969731578658"><ele>246.0</ele><time>2026-04-12T05:59:09Z</time></trkpt><trkpt lat="45.67095530583197" lon="9.232165148599048"><ele>246.5</ele><time>2026-04-12T05:59:10Z</time></trkpt><trkpt lat="45.671004405911" lon="9.232366127144248"><ele>247.0</ele><time>2026-04-12T05:59:11Z</time></trkpt><trkpt lat="45.671047775427105" lon="9.232571239718173"><ele>247.5</ele><time>2026-04-12T05:59:12Z</time></trkpt><trkpt lat="45.67108996097975" lon="9.232778360386453"><ele>248.0</ele><time>2026-04-12T05:59:13Z</time></trkpt><trkpt lat="45.67113413597174" lon="9.232990439988232"><ele>249.0</ele><time>2026-04-12T05:59:14Z</time></trkpt><trkpt lat="45.67118284352929" lon="9.233197217541086"><ele>250.0</ele><time>2026-04-12T05:59:15Z</time></trkpt><trkpt lat="45.671212660877195" lon="9.233406413134453"><ele>251.0</ele><time>2026-04-12T05:59:16Z</time></trkpt><trkpt lat="45.67125423448797" lon="9.233599827602973"><ele>252.0</ele><time>2026-04-12T05:59:17Z</time></trkpt><trkpt lat="45.67129686318347" lon="9.23379815052984"><ele>251.5</ele><time>2026-04-12T05:59:18Z</time></trkpt><trkpt lat="45.671338497247625" lon="9.233991846002857"><ele>251.0</ele><time>2026-04-12T05:59:19Z</time></trkpt><trkpt lat="45.67138080148015" lon="9.234139420217582"><ele>250.5</ele><time>2026-04-12T05:59:20Z</time></trkpt><trkpt lat="45.671397769518144" lon="9.234292636891453"><ele>250.0</ele><time>2026-04-12T05:59:21Z</time></trkpt><trkpt lat="45.67142345778689" lon="9.234418898033825"><ele>249.99999999999997</ele><time>2026-04-12T05:59:22Z</time></trkpt><trkpt lat="45.67142896695409" lon="9.234531071615597"><ele>250.0</ele><time>2026-04-12T05:59:23Z</time></trkpt><trkpt lat="45.67142142267618" lon="9.234636078205348"><ele>250.0</ele><time>2026-04-12T05:59:24Z</time></trkpt><trkpt lat="45.671426256522004" lon="9.234741329678641"><ele>250.0</ele><time>2026-04-12T05:59:25Z</time></trkpt><trkpt lat="45.671465379882456" lon="9.234836460612012"><ele>249.99999999999997</ele><time>2026-04-12T05:59:26Z</time></trkpt><trkpt lat="45.671510194435555" lon="9.234933126620728"><ele>250.0</ele><time>2026-04-12T05:59:27Z</time></trkpt><trkpt lat="45.67156026433281" lon="9.235036353932415"><ele>249.8</ele><time>2026-04-12T05:59:28Z</time></trkpt><trkpt lat="45.67159660090428" lon="9.235165083720316"><ele>249.6</ele><time>2026-04-12T05:59:29Z</time></trkpt><trkpt lat="45.6716288555321" lon="9.235307827198511"><ele>249.39999999999998</ele><time>2026-04-12T05:59:30Z</time></trkpt><trkpt lat="45.67166199464998" lon="9.235460917192633"><ele>249.2</ele><time>2026-04-12T05:59:31Z</time></trkpt><trkpt lat="45.671696450967104" lon="9.235625153732563"><ele>249.0</ele><time>2026-04-12T05:59:32Z</time></trkpt><trkpt lat="45.67173061864817" lon="9.235795237775328"><ele>249.0</ele><time>2026-04-12T05:59:32.999Z</time></trkpt><trkpt lat="45.67176260602491" lon="9.235968194953436"><ele>249.0</ele><time>2026-04-12T05:59:33.999Z</time></trkpt><trkpt lat="45.67180048450293" lon="9.236141527548705"><ele>249.0</ele><time>2026-04-12T05:59:34.999Z</time></trkpt><trkpt lat="45.67184112882948" lon="9.236312068820263"><ele>249.0</ele><time>2026-04-12T05:59:35.999Z</time></trkpt><trkpt lat="45.67187765094214" lon="9.236479461693126"><ele>248.75</ele><time>2026-04-12T05:59:36.999Z</time></trkpt><trkpt lat="45.67191133023796" lon="9.236646640173516"><ele>248.5</ele><time>2026-04-12T05:59:37.999Z</time></trkpt><trkpt lat="45.671947345058015" lon="9.236806337137358"><ele>248.25</ele><time>2026-04-12T05:59:38.999Z</time></trkpt><trkpt lat="45.671977930728794" lon="9.236959413108156"><ele>248.0</ele><time>2026-04-12T05:59:39.999Z</time></trkpt><trkpt lat="45.67199844631783" lon="9.23710371377682"><ele>248.2857142857143</ele><time>2026-04-12T05:59:40.999Z</time></trkpt><trkpt lat="45.67200300779937" lon="9.237233621393935"><ele>248.5714285714286</ele><time>2026-04-12T05:59:41.999Z</time></trkpt><trkpt lat="45.67199228300746" lon="9.237340905316543"><ele>248.85714285714286</ele><time>2026-04-12T05:59:42.999Z</time></trkpt><trkpt lat="45.67196865673726" lon="9.237437149678648"><ele>249.14285714285717</ele><time>2026-04-12T05:59:43.999Z</time></trkpt><trkpt lat="45.67194926795719" lon="9.237530383068288"><ele>249.42857142857144</ele><time>2026-04-12T05:59:44.999Z</time></trkpt><trkpt lat="45.67196064027225" lon="9.237623616108648"><ele>249.71428571428572</ele><time>2026-04-12T05:59:45.999Z</time></trkpt><trkpt lat="45.67200015235348" lon="9.237711813892663"><ele>250.0</ele><time>2026-04-12T05:59:46.999Z</time></trkpt><trkpt lat="45.67206247541568" lon="9.237805064089475"><ele>250.0</ele><time>2026-04-12T05:59:47.999Z</time></trkpt><trkpt lat="45.67211084717507" lon="9.237916869371103"><ele>250.0</ele><time>2026-04-12T05:59:48.999Z</time></trkpt><trkpt lat="45.67214839066317" lon="9.238041232135606"><ele>250.0</ele><time>2026-04-12T05:59:49.999Z</time></trkpt><trkpt lat="45.67219172970727" lon="9.238179330477262"><ele>250.0</ele><time>2026-04-12T05:59:50.999Z</time></trkpt><trkpt lat="45.67223860709913" lon="9.238331238178173"><ele>250.0</ele><time>2026-04-12T05:59:51.999Z</time></trkpt><trkpt lat="45.672292938936806" lon="9.238496105240605"><ele>250.0</ele><time>2026-04-12T05:59:52.999Z</time></trkpt><trkpt lat="45.672347712979" lon="9.238670816298843"><ele>250.0</ele><time>2026-04-12T05:59:53.999Z</time></trkpt><trkpt lat="45.672393417451204" lon="9.238847637329869"><ele>250.0</ele><time>2026-04-12T05:59:54.999Z</time></trkpt><trkpt lat="45.672434453169" lon="9.239027114526294"><ele>250.0</ele><time>2026-04-12T05:59:55.999Z</time></trkpt><trkpt lat="45.67245813943429" lon="9.23921543807818"><ele>250.25</ele><time>2026-04-12T05:59:56.999Z</time></trkpt><trkpt lat="45.67249764455472" lon="9.239398764853801"><ele>250.5</ele><time>2026-04-12T05:59:57.999Z</time></trkpt><trkpt lat="45.672535387746805" lon="9.239574448128376"><ele>250.75</ele><time>2026-04-12T05:59:58.999Z</time></trkpt><trkpt lat="45.67257280630083" lon="9.239752006590235"><ele>251.0</ele><time>2026-04-12T05:59:59.999Z</time></trkpt><trkpt lat="45.67260808982299" lon="9.239914349619232"><ele>251.0</ele><time>2026-04-12T06:00:00.999Z</time></trkpt><trkpt lat="45.672640375366214" lon="9.240053073986546"><ele>251.00000000000003</ele><time>2026-04-12T06:00:01.999Z</time></trkpt><trkpt lat="45.67265870855297" lon="9.240155017720245"><ele>251.00000000000003</ele><time>2026-04-12T06:00:02.999Z</time></trkpt><trkpt lat="45.672654417991325" lon="9.240301650560362"><ele>251.0</ele><time>2026-04-12T06:00:04.999Z</time></trkpt><trkpt lat="45.67264770400047" lon="9.240469269969124"><ele>251.0</ele><time>2026-04-12T06:00:06.999Z</time></trkpt><trkpt lat="45.67266985383759" lon="9.240568946689196"><ele>251.20000000000002</ele><time>2026-04-12T06:00:07.999Z</time></trkpt><trkpt lat="45.67271281211606" lon="9.240669128346173"><ele>251.40000000000003</ele><time>2026-04-12T06:00:08.999Z</time></trkpt><trkpt lat="45.672770026301805" lon="9.24077308673596"><ele>251.6</ele><time>2026-04-12T06:00:09.999Z</time></trkpt><trkpt lat="45.672811899720784" lon="9.240895598256575"><ele>251.8</ele><time>2026-04-12T06:00:10.999Z</time></trkpt><trkpt lat="45.67285001719047" lon="9.241034328774068"><ele>252.0</ele><time>2026-04-12T06:00:11.999Z</time></trkpt><trkpt lat="45.67288793763762" lon="9.241193735998062"><ele>252.0</ele><time>2026-04-12T06:00:12.999Z</time></trkpt><trkpt lat="45.67292397644665" lon="9.241357565038891"><ele>252.0</ele><time>2026-04-12T06:00:13.999Z</time></trkpt><trkpt lat="45.67295025651841" lon="9.24148498278405"><ele>252.0</ele><time>2026-04-12T06:00:14.999Z</time></trkpt><trkpt lat="45.672972272202514" lon="9.241579744128565"><ele>252.0</ele><time>2026-04-12T06:00:15.999Z</time></trkpt><trkpt lat="45.672992976376904" lon="9.241676655399223"><ele>252.0</ele><time>2026-04-12T06:00:16.999Z</time></trkpt><trkpt lat="45.673018275528946" lon="9.24179520115962"><ele>252.0</ele><time>2026-04-12T06:00:19Z</time></trkpt><trkpt lat="45.67304999062168" lon="9.241951029966438"><ele>251.66666666666666</ele><time>2026-04-12T06:00:21Z</time></trkpt><trkpt lat="45.67307269222622" lon="9.242055700304162"><ele>251.33333333333331</ele><time>2026-04-12T06:00:22Z</time></trkpt><trkpt lat="45.67309677277255" lon="9.242174836120109"><ele>251.0</ele><time>2026-04-12T06:00:23Z</time></trkpt><trkpt lat="45.673116054825606" lon="9.242298460244239"><ele>250.66666666666666</ele><time>2026-04-12T06:00:24Z</time></trkpt><trkpt lat="45.67311676911799" lon="9.242428163121431"><ele>250.33333333333331</ele><time>2026-04-12T06:00:25Z</time></trkpt><trkpt lat="45.67310177427733" lon="9.242556413581976"><ele>250.0</ele><time>2026-04-12T06:00:26Z</time></trkpt><trkpt lat="45.673078432211895" lon="9.242681726202651"><ele>249.42857142857142</ele><time>2026-04-12T06:00:27Z</time></trkpt><trkpt lat="45.67304452166433" lon="9.242788750091762"><ele>248.8571428571429</ele><time>2026-04-12T06:00:28Z</time></trkpt><trkpt lat="45.673000812389006" lon="9.242881188434476"><ele>248.2857142857143</ele><time>2026-04-12T06:00:29Z</time></trkpt><trkpt lat="45.6729549256579" lon="9.242952037713202"><ele>247.71428571428572</ele><time>2026-04-12T06:00:30Z</time></trkpt><trkpt lat="45.672912315673905" lon="9.243034990136639"><ele>247.14285714285717</ele><time>2026-04-12T06:00:31Z</time></trkpt><trkpt lat="45.672891327004045" lon="9.243127392409805"><ele>246.5714285714286</ele><time>2026-04-12T06:00:32Z</time></trkpt><trkpt lat="45.67289961896369" lon="9.243222566988695"><ele>246.00000000000003</ele><time>2026-04-12T06:00:33Z</time></trkpt><trkpt lat="45.672932551570305" lon="9.243301744498181"><ele>245.66666666666666</ele><time>2026-04-12T06:00:34Z</time></trkpt><trkpt lat="45.67300237615604" lon="9.243354778314892"><ele>245.33333333333331</ele><time>2026-04-12T06:00:35Z</time></trkpt><trkpt lat="45.673083392248095" lon="9.243363587669377"><ele>245.0</ele><time>2026-04-12T06:00:36Z</time></trkpt><trkpt lat="45.67315503660527" lon="9.243296634327685"><ele>244.66666666666666</ele><time>2026-04-12T06:00:37Z</time></trkpt><trkpt lat="45.67324994538016" lon="9.243272021431222"><ele>244.33333333333331</ele><time>2026-04-12T06:00:38Z</time></trkpt><trkpt lat="45.67334555028038" lon="9.243233107667875"><ele>244.0</ele><time>2026-04-12T06:00:39Z</time></trkpt><trkpt lat="45.673442548386646" lon="9.243197017871553"><ele>243.99999999999997</ele><time>2026-04-12T06:00:40Z</time></trkpt><trkpt lat="45.6735363224812" lon="9.243165992430539"><ele>244.0</ele><time>2026-04-12T06:00:41Z</time></trkpt><trkpt lat="45.673618126461506" lon="9.243141785400653"><ele>244.0</ele><time>2026-04-12T06:00:42Z</time></trkpt><trkpt lat="45.67368368209834" lon="9.243119101002844"><ele>244.0</ele><time>2026-04-12T06:00:43Z</time></trkpt><trkpt lat="45.67374983308028" lon="9.243097862904314"><ele>243.99999999999997</ele><time>2026-04-12T06:00:44Z</time></trkpt><trkpt lat="45.673827581310796" lon="9.243072165865167"><ele>244.0</ele><time>2026-04-12T06:00:45Z</time></trkpt><trkpt lat="45.67391961105701" lon="9.243043032943124"><ele>245.25</ele><time>2026-04-12T06:00:46Z</time></trkpt><trkpt lat="45.674020153716064" lon="9.243011876457542"><ele>246.5</ele><time>2026-04-12T06:00:47Z</time></trkpt><trkpt lat="45.67412798419975" lon="9.24297769185755"><ele>247.75</ele><time>2026-04-12T06:00:48Z</time></trkpt><trkpt lat="45.67424590452683" lon="9.242948906675435"><ele>249.0</ele><time>2026-04-12T06:00:49Z</time></trkpt><trkpt lat="45.67436937752" lon="9.242924267232768"><ele>249.0</ele><time>2026-04-12T06:00:50Z</time></trkpt><trkpt lat="45.674497652258665" lon="9.242909332470845"><ele>249.0</ele><time>2026-04-12T06:00:51Z</time></trkpt><trkpt lat="45.674631121979644" lon="9.24290035399719"><ele>249.0</ele><time>2026-04-12T06:00:52Z</time></trkpt><trkpt lat="45.67476551380878" lon="9.242906825626177"><ele>249.0</ele><time>2026-04-12T06:00:53Z</time></trkpt><trkpt lat="45.67489832383953" lon="9.242917366982638"><ele>249.0</ele><time>2026-04-12T06:00:54Z</time></trkpt><trkpt lat="45.67503943627814" lon="9.242934805397114"><ele>249.0</ele><time>2026-04-12T06:00:55Z</time></trkpt><trkpt lat="45.6751777114796" lon="9.242944979679535"><ele>249.0</ele><time>2026-04-12T06:00:56Z</time></trkpt><trkpt lat="45.675306403318515" lon="9.24295557593286"><ele>249.0</ele><time>2026-04-12T06:00:57Z</time></trkpt><trkpt lat="45.67543825550375" lon="9.24295593850295"><ele>248.6</ele><time>2026-04-12T06:00:58Z</time></trkpt><trkpt lat="45.67555761492951" lon="9.242954932630555"><ele>248.2</ele><time>2026-04-12T06:00:59Z</time></trkpt><trkpt lat="45.675667519616304" lon="9.242948107487784"><ele>247.79999999999998</ele><time>2026-04-12T06:01:00Z</time></trkpt><trkpt lat="45.67575652667207" lon="9.242950218182433"><ele>247.39999999999998</ele><time>2026-04-12T06:01:01Z</time></trkpt><trkpt lat="45.67583100713091" lon="9.242963698950525"><ele>247.0</ele><time>2026-04-12T06:01:02Z</time></trkpt><trkpt lat="45.67589460562375" lon="9.242998012550371"><ele>247.0</ele><time>2026-04-12T06:01:03Z</time></trkpt><trkpt lat="45.67595710333115" lon="9.24305797870679"><ele>247.0</ele><time>2026-04-12T06:01:04Z</time></trkpt><trkpt lat="45.676033873674726" lon="9.243140709599663"><ele>247.0</ele><time>2026-04-12T06:01:05Z</time></trkpt><trkpt lat="45.67612411970951" lon="9.243223201029052"><ele>247.0</ele><time>2026-04-12T06:01:06Z</time></trkpt><trkpt lat="45.67622275712514" lon="9.243298650590672"><ele>247.0</ele><time>2026-04-12T06:01:07Z</time></trkpt><trkpt lat="45.676331480104665" lon="9.243363911624542"><ele>245.75</ele><time>2026-04-12T06:01:08Z</time></trkpt><trkpt lat="45.676439657464684" lon="9.243435903603556"><ele>244.5</ele><time>2026-04-12T06:01:09Z</time></trkpt><trkpt lat="45.676544442129135" lon="9.243511856396161"><ele>243.25</ele><time>2026-04-12T06:01:10Z</time></trkpt><trkpt lat="45.67665086372017" lon="9.243596957490851"><ele>242.0</ele><time>2026-04-12T06:01:11Z</time></trkpt><trkpt lat="45.67675893015662" lon="9.243682850062058"><ele>242.00000000000003</ele><time>2026-04-12T06:01:12Z</time></trkpt><trkpt lat="45.676851508263624" lon="9.243758229996033"><ele>242.0</ele><time>2026-04-12T06:01:13Z</time></trkpt><trkpt lat="45.67692784063584" lon="9.243821068967314"><ele>242.0</ele><time>2026-04-12T06:01:14Z</time></trkpt><trkpt lat="45.67699548749865" lon="9.243874393903825"><ele>242.0</ele><time>2026-04-12T06:01:15Z</time></trkpt><trkpt lat="45.677068580922" lon="9.24393230475941"><ele>242.00000000000003</ele><time>2026-04-12T06:01:16Z</time></trkpt><trkpt lat="45.67714338736219" lon="9.244005823831886"><ele>242.0</ele><time>2026-04-12T06:01:17Z</time></trkpt><trkpt lat="45.677219568102956" lon="9.244092610954002"><ele>241.0</ele><time>2026-04-12T06:01:18Z</time></trkpt><trkpt lat="45.67729399715999" lon="9.244180694249323"><ele>240.0</ele><time>2026-04-12T06:01:19Z</time></trkpt><trkpt lat="45.67737980292573" lon="9.244267890036832"><ele>239.0</ele><time>2026-04-12T06:01:20Z</time></trkpt><trkpt lat="45.6774748611415" lon="9.244340028637488"><ele>238.0</ele><time>2026-04-12T06:01:21Z</time></trkpt><trkpt lat="45.6775793805399" lon="9.244416701174028"><ele>237.0</ele><time>2026-04-12T06:01:22Z</time></trkpt><trkpt lat="45.67768766400314" lon="9.244497096062068"><ele>236.75</ele><time>2026-04-12T06:01:23Z</time></trkpt><trkpt lat="45.67780120713723" lon="9.244583815919105"><ele>236.5</ele><time>2026-04-12T06:01:24Z</time></trkpt><trkpt lat="45.67791778348318" lon="9.244673220983257"><ele>236.25</ele><time>2026-04-12T06:01:25Z</time></trkpt><trkpt lat="45.67803493346488" lon="9.244769825835657"><ele>236.0</ele><time>2026-04-12T06:01:26Z</time></trkpt><trkpt lat="45.67816096158451" lon="9.244865920394776"><ele>234.66666666666669</ele><time>2026-04-12T06:01:27Z</time></trkpt><trkpt lat="45.678296528299384" lon="9.244974210929774"><ele>233.33333333333331</ele><time>2026-04-12T06:01:28Z</time></trkpt><trkpt lat="45.67842575161262" lon="9.24507516067611"><ele>232.0</ele><time>2026-04-12T06:01:29Z</time></trkpt><trkpt lat="45.678579171411855" lon="9.245184972820486"><ele>230.0</ele><time>2026-04-12T06:01:30Z</time></trkpt><trkpt lat="45.67872857650992" lon="9.245296070875119"><ele>228.0</ele><time>2026-04-12T06:01:31Z</time></trkpt><trkpt lat="45.67888028043856" lon="9.245400150879323"><ele>226.0</ele><time>2026-04-12T06:01:32Z</time></trkpt><trkpt lat="45.679027700235416" lon="9.245508045427753"><ele>226.0</ele><time>2026-04-12T06:01:33Z</time></trkpt><trkpt lat="45.67917153259055" lon="9.245612201007054"><ele>226.0</ele><time>2026-04-12T06:01:34Z</time></trkpt><trkpt lat="45.67931758913247" lon="9.245716821830339"><ele>226.0</ele><time>2026-04-12T06:01:35Z</time></trkpt><trkpt lat="45.679459330429786" lon="9.245816823829703"><ele>223.33333333333331</ele><time>2026-04-12T06:01:36Z</time></trkpt><trkpt lat="45.679595200271066" lon="9.24591883915018"><ele>220.66666666666669</ele><time>2026-04-12T06:01:37Z</time></trkpt><trkpt lat="45.67972805590769" lon="9.246016276169314"><ele>218.0</ele><time>2026-04-12T06:01:38Z</time></trkpt><trkpt lat="45.67986176877557" lon="9.246110299701035"><ele>218.0</ele><time>2026-04-12T06:01:39Z</time></trkpt><trkpt lat="45.6799854686429" lon="9.246200381865085"><ele>218.0</ele><time>2026-04-12T06:01:40Z</time></trkpt><trkpt lat="45.68009921529137" lon="9.246283788013866"><ele>218.0</ele><time>2026-04-12T06:01:41Z</time></trkpt><trkpt lat="45.68020152158012" lon="9.246368468304283"><ele>218.0</ele><time>2026-04-12T06:01:42Z</time></trkpt><trkpt lat="45.680295522602485" lon="9.246472308437951"><ele>225.0</ele><time>2026-04-12T06:01:42.999Z</time></trkpt><trkpt lat="45.680369569442064" lon="9.246596210239167"><ele>232.0</ele><time>2026-04-12T06:01:43.999Z</time></trkpt><trkpt lat="45.68045493007656" lon="9.246734899675847"><ele>239.0</ele><time>2026-04-12T06:01:44.999Z</time></trkpt><trkpt lat="45.68054577654466" lon="9.246875435430821"><ele>246.0</ele><time>2026-04-12T06:01:45.999Z</time></trkpt><trkpt lat="45.68064128404451" lon="9.247017936669542"><ele>246.0</ele><time>2026-04-12T06:01:46.999Z</time></trkpt><trkpt lat="45.68073988770093" lon="9.24716130453736"><ele>246.0</ele><time>2026-04-12T06:01:47.999Z</time></trkpt><trkpt lat="45.68083294717129" lon="9.247307386200257"><ele>246.0</ele><time>2026-04-12T06:01:48.999Z</time></trkpt><trkpt lat="45.680915027132585" lon="9.247467428714184"><ele>246.0</ele><time>2026-04-12T06:01:49.999Z</time></trkpt><trkpt lat="45.68097594851198" lon="9.247644495447801"><ele>244.25</ele><time>2026-04-12T06:01:50.999Z</time></trkpt><trkpt lat="45.681030308444136" lon="9.247819080751613"><ele>242.5</ele><time>2026-04-12T06:01:51.999Z</time></trkpt><trkpt lat="45.68101984062737" lon="9.248035038110217"><ele>240.75</ele><time>2026-04-12T06:01:52.999Z</time></trkpt><trkpt lat="45.68098276875024" lon="9.248235125371062"><ele>239.0</ele><time>2026-04-12T06:01:53.999Z</time></trkpt><trkpt lat="45.680953580447174" lon="9.248437887708818"><ele>238.0</ele><time>2026-04-12T06:01:54.999Z</time></trkpt><trkpt lat="45.680929649481925" lon="9.24863995557658"><ele>237.0</ele><time>2026-04-12T06:01:55.999Z</time></trkpt><trkpt lat="45.68091315256588" lon="9.24884931019845"><ele>236.0</ele><time>2026-04-12T06:01:56.999Z</time></trkpt><trkpt lat="45.680916591939564" lon="9.24906165703295"><ele>235.0</ele><time>2026-04-12T06:01:57.999Z</time></trkpt><trkpt lat="45.68095756859497" lon="9.249267780682613"><ele>235.0</ele><time>2026-04-12T06:01:58.999Z</time></trkpt><trkpt lat="45.681006434114714" lon="9.249492348122335"><ele>235.0</ele><time>2026-04-12T06:01:59.999Z</time></trkpt><trkpt lat="45.68110506441826" lon="9.24966030796322"><ele>235.0</ele><time>2026-04-12T06:02:00.999Z</time></trkpt><trkpt lat="45.68121585240587" lon="9.249819352925588"><ele>238.0</ele><time>2026-04-12T06:02:01.999Z</time></trkpt><trkpt lat="45.68133261102566" lon="9.249945818926642"><ele>241.0</ele><time>2026-04-12T06:02:02.999Z</time></trkpt><trkpt lat="45.681456901246044" lon="9.250068727112977"><ele>244.0</ele><time>2026-04-12T06:02:03.999Z</time></trkpt><trkpt lat="45.68157223158418" lon="9.25020977200691"><ele>247.0</ele><time>2026-04-12T06:02:04.999Z</time></trkpt><trkpt lat="45.681685867448174" lon="9.250352518037374"><ele>247.0</ele><time>2026-04-12T06:02:05.999Z</time></trkpt><trkpt lat="45.68175879451946" lon="9.25052279310123"><ele>247.0</ele><time>2026-04-12T06:02:06.999Z</time></trkpt><trkpt lat="45.68178732934789" lon="9.25071709638903"><ele>247.0</ele><time>2026-04-12T06:02:07.999Z</time></trkpt><trkpt lat="45.681787887586715" lon="9.250927653167814"><ele>247.0</ele><time>2026-04-12T06:02:08.999Z</time></trkpt><trkpt lat="45.68177275739664" lon="9.251138317332565"><ele>246.66666666666666</ele><time>2026-04-12T06:02:09.999Z</time></trkpt><trkpt lat="45.68176080943499" lon="9.2513545348165"><ele>246.33333333333331</ele><time>2026-04-12T06:02:10.999Z</time></trkpt><trkpt lat="45.681750639274405" lon="9.251571395159855"><ele>246.0</ele><time>2026-04-12T06:02:11.999Z</time></trkpt><trkpt lat="45.681760347120786" lon="9.251799205033116"><ele>245.66666666666669</ele><time>2026-04-12T06:02:12.999Z</time></trkpt><trkpt lat="45.68179655366235" lon="9.252023437361013"><ele>245.33333333333334</ele><time>2026-04-12T06:02:13.999Z</time></trkpt><trkpt lat="45.68185010635676" lon="9.252242825488544"><ele>245.0</ele><time>2026-04-12T06:02:14.999Z</time></trkpt><trkpt lat="45.681918103858635" lon="9.252455226639034"><ele>246.66666666666669</ele><time>2026-04-12T06:02:15.999Z</time></trkpt><trkpt lat="45.68200464294199" lon="9.252657093944745"><ele>248.33333333333331</ele><time>2026-04-12T06:02:16.999Z</time></trkpt><trkpt lat="45.682107827572736" lon="9.252848059431098"><ele>250.0</ele><time>2026-04-12T06:02:17.999Z</time></trkpt><trkpt lat="45.682236982383124" lon="9.253002722810216"><ele>248.66666666666666</ele><time>2026-04-12T06:02:18.999Z</time></trkpt><trkpt lat="45.68235932538281" lon="9.253168413014981"><ele>247.33333333333331</ele><time>2026-04-12T06:02:19.999Z</time></trkpt><trkpt lat="45.682475685784965" lon="9.253358157720479"><ele>246.0</ele><time>2026-04-12T06:02:20.999Z</time></trkpt><trkpt lat="45.68260157950581" lon="9.253527737246051"><ele>246.0</ele><time>2026-04-12T06:02:21.999Z</time></trkpt><trkpt lat="45.68272681979391" lon="9.25369180915255"><ele>246.0</ele><time>2026-04-12T06:02:22.999Z</time></trkpt><trkpt lat="45.68286251328217" lon="9.253841940383749"><ele>246.0</ele><time>2026-04-12T06:02:23.999Z</time></trkpt><trkpt lat="45.68298172967534" lon="9.253995819582594"><ele>246.66666666666669</ele><time>2026-04-12T06:02:25Z</time></trkpt><trkpt lat="45.68311139538324" lon="9.254132142500696"><ele>247.33333333333334</ele><time>2026-04-12T06:02:26Z</time></trkpt><trkpt lat="45.68326334232405" lon="9.254229032602558"><ele>248.0</ele><time>2026-04-12T06:02:27Z</time></trkpt><trkpt lat="45.68342781297227" lon="9.254294021432989"><ele>249.0</ele><time>2026-04-12T06:02:28Z</time></trkpt><trkpt lat="45.68359797608185" lon="9.25433418968602"><ele>250.0</ele><time>2026-04-12T06:02:29Z</time></trkpt><trkpt lat="45.68376856527323" lon="9.254375924850487"><ele>251.0</ele><time>2026-04-12T06:02:30Z</time></trkpt><trkpt lat="45.683942419062845" lon="9.254418752526963"><ele>251.0</ele><time>2026-04-12T06:02:31Z</time></trkpt><trkpt lat="45.68411954318197" lon="9.254466186149655"><ele>251.0</ele><time>2026-04-12T06:02:32Z</time></trkpt><trkpt lat="45.6842990366557" lon="9.254518892040391"><ele>251.0</ele><time>2026-04-12T06:02:33Z</time></trkpt><trkpt lat="45.68448190367092" lon="9.254570684015786"><ele>252.33333333333334</ele><time>2026-04-12T06:02:34Z</time></trkpt><trkpt lat="45.68466507183166" lon="9.254622635789874"><ele>253.66666666666669</ele><time>2026-04-12T06:02:35Z</time></trkpt><trkpt lat="45.68484633785162" lon="9.254676317831418"><ele>255.0</ele><time>2026-04-12T06:02:36Z</time></trkpt><trkpt lat="45.68502545362898" lon="9.254726450428704"><ele>255.0</ele><time>2026-04-12T06:02:37Z</time></trkpt><trkpt lat="45.68520287408483" lon="9.25477225320592"><ele>255.0</ele><time>2026-04-12T06:02:38Z</time></trkpt><trkpt lat="45.68538270168612" lon="9.254817019456876"><ele>255.0</ele><time>2026-04-12T06:02:39Z</time></trkpt><trkpt lat="45.68556407483488" lon="9.254864265121073"><ele>256.0</ele><time>2026-04-12T06:02:40Z</time></trkpt><trkpt lat="45.685746465729494" lon="9.254911142000061"><ele>257.0</ele><time>2026-04-12T06:02:41Z</time></trkpt><trkpt lat="45.685928666642496" lon="9.254958692377219"><ele>258.0</ele><time>2026-04-12T06:02:42Z</time></trkpt><trkpt lat="45.68610718568837" lon="9.255032895691306"><ele>259.3333333333333</ele><time>2026-04-12T06:02:43Z</time></trkpt><trkpt lat="45.686292290281585" lon="9.25506186663338"><ele>260.66666666666663</ele><time>2026-04-12T06:02:44Z</time></trkpt><trkpt lat="45.68647070954545" lon="9.25513641110678"><ele>262.0</ele><time>2026-04-12T06:02:45Z</time></trkpt><trkpt lat="45.6866518475911" lon="9.255187490623765"><ele>262.0</ele><time>2026-04-12T06:02:46Z</time></trkpt><trkpt lat="45.68683080643072" lon="9.255236419303735"><ele>262.0</ele><time>2026-04-12T06:02:47Z</time></trkpt><trkpt lat="45.68700972056101" lon="9.255285335771685"><ele>262.0</ele><time>2026-04-12T06:02:48Z</time></trkpt><trkpt lat="45.68719075571585" lon="9.255334832151824"><ele>264.66666666666663</ele><time>2026-04-12T06:02:49Z</time></trkpt><trkpt lat="45.68737226713116" lon="9.2553844587346"><ele>267.3333333333333</ele><time>2026-04-12T06:02:50Z</time></trkpt><trkpt lat="45.68755366994332" lon="9.25543405562184"><ele>270.0</ele><time>2026-04-12T06:02:51Z</time></trkpt><trkpt lat="45.68773435930154" lon="9.25546257610252"><ele>270.6666666666667</ele><time>2026-04-12T06:02:52Z</time></trkpt><trkpt lat="45.68791067539081" lon="9.255510719152658"><ele>271.33333333333337</ele><time>2026-04-12T06:02:53Z</time></trkpt><trkpt lat="45.68807712808083" lon="9.255557497414994"><ele>272.0</ele><time>2026-04-12T06:02:54Z</time></trkpt><trkpt lat="45.688242805477145" lon="9.255600653886267"><ele>271.0</ele><time>2026-04-12T06:02:55Z</time></trkpt><trkpt lat="45.68840095309299" lon="9.25566609584658"><ele>270.0</ele><time>2026-04-12T06:02:56Z</time></trkpt><trkpt lat="45.68855708260553" lon="9.255683103252348"><ele>269.0</ele><time>2026-04-12T06:02:57Z</time></trkpt><trkpt lat="45.688698395376704" lon="9.255761972763736"><ele>269.0</ele><time>2026-04-12T06:02:58Z</time></trkpt><trkpt lat="45.688831252034205" lon="9.255841461337496"><ele>269.0</ele><time>2026-04-12T06:02:59Z</time></trkpt><trkpt lat="45.688957293949436" lon="9.255961772839518"><ele>269.0</ele><time>2026-04-12T06:03:00Z</time></trkpt><trkpt lat="45.68904961850459" lon="9.256103570489053"><ele>269.0</ele><time>2026-04-12T06:03:01Z</time></trkpt><trkpt lat="45.68912481271887" lon="9.256258436947016"><ele>269.0</ele><time>2026-04-12T06:03:02Z</time></trkpt><trkpt lat="45.68919830615551" lon="9.256429854255584"><ele>269.0</ele><time>2026-04-12T06:03:03Z</time></trkpt><trkpt lat="45.68927362571205" lon="9.256613606636794"><ele>269.0</ele><time>2026-04-12T06:03:04Z</time></trkpt><trkpt lat="45.68934337740329" lon="9.256786452083446"><ele>269.0</ele><time>2026-04-12T06:03:05Z</time></trkpt><trkpt lat="45.689411450205924" lon="9.256924206007044"><ele>269.0</ele><time>2026-04-12T06:03:06Z</time></trkpt><trkpt lat="45.68947129647763" lon="9.257082634944426"><ele>269.0</ele><time>2026-04-12T06:03:07Z</time></trkpt><trkpt lat="45.68953632230506" lon="9.257240314235345"><ele>269.0</ele><time>2026-04-12T06:03:08Z</time></trkpt><trkpt lat="45.68959394405584" lon="9.257396721946124"><ele>269.0</ele><time>2026-04-12T06:03:09Z</time></trkpt><trkpt lat="45.6896400884116" lon="9.257554278726946"><ele>269.5</ele><time>2026-04-12T06:03:10Z</time></trkpt><trkpt lat="45.68965915145836" lon="9.257725932156252"><ele>270.0</ele><time>2026-04-12T06:03:11Z</time></trkpt><trkpt lat="45.68966790362657" lon="9.257902460629886"><ele>270.5</ele><time>2026-04-12T06:03:12Z</time></trkpt><trkpt lat="45.689668435004585" lon="9.25808310620476"><ele>271.0</ele><time>2026-04-12T06:03:13Z</time></trkpt><trkpt lat="45.689667216663096" lon="9.258266075807281"><ele>271.75</ele><time>2026-04-12T06:03:14Z</time></trkpt><trkpt lat="45.6896676626884" lon="9.258456527100243"><ele>272.5</ele><time>2026-04-12T06:03:15Z</time></trkpt><trkpt lat="45.689658091492355" lon="9.258651996562795"><ele>273.25</ele><time>2026-04-12T06:03:16Z</time></trkpt><trkpt lat="45.68965230259477" lon="9.258865948581263"><ele>274.0</ele><time>2026-04-12T06:03:17Z</time></trkpt><trkpt lat="45.689645975037166" lon="9.259083386974499"><ele>274.0</ele><time>2026-04-12T06:03:18Z</time></trkpt><trkpt lat="45.68964269293134" lon="9.25930543861192"><ele>274.0</ele><time>2026-04-12T06:03:19Z</time></trkpt><trkpt lat="45.68963844120111" lon="9.259522517235064"><ele>274.0</ele><time>2026-04-12T06:03:20Z</time></trkpt><trkpt lat="45.68963303114629" lon="9.259742845279115"><ele>273.66666666666663</ele><time>2026-04-12T06:03:21Z</time></trkpt><trkpt lat="45.689629965094454" lon="9.259960039396036"><ele>273.3333333333333</ele><time>2026-04-12T06:03:22Z</time></trkpt><trkpt lat="45.68960963797553" lon="9.26017879550095"><ele>273.0</ele><time>2026-04-12T06:03:23Z</time></trkpt><trkpt lat="45.68960233748272" lon="9.260392069309926"><ele>273.0</ele><time>2026-04-12T06:03:24Z</time></trkpt><trkpt lat="45.68960148494089" lon="9.260596746126307"><ele>273.0</ele><time>2026-04-12T06:03:25Z</time></trkpt><trkpt lat="45.689598300974396" lon="9.260794483637321"><ele>273.0</ele><time>2026-04-12T06:03:26Z</time></trkpt><trkpt lat="45.68959456348988" lon="9.260980790169596"><ele>273.0</ele><time>2026-04-12T06:03:27Z</time></trkpt><trkpt lat="45.689589480552854" lon="9.261158417452247"><ele>273.8</ele><time>2026-04-12T06:03:28Z</time></trkpt><trkpt lat="45.68958741848041" lon="9.261314471612897"><ele>274.6</ele><time>2026-04-12T06:03:29Z</time></trkpt><trkpt lat="45.68958399353548" lon="9.26144334142668"><ele>275.4</ele><time>2026-04-12T06:03:30Z</time></trkpt><trkpt lat="45.6895800436232" lon="9.261619538202034"><ele>276.2</ele><time>2026-04-12T06:03:32Z</time></trkpt><trkpt lat="45.689575430435504" lon="9.261730065539302"><ele>277.0</ele><time>2026-04-12T06:03:33Z</time></trkpt><trkpt lat="45.68957134513519" lon="9.261847637485854"><ele>277.66666666666663</ele><time>2026-04-12T06:03:34Z</time></trkpt><trkpt lat="45.68956635781933" lon="9.26196749634629"><ele>278.3333333333333</ele><time>2026-04-12T06:03:35Z</time></trkpt><trkpt lat="45.689559359814304" lon="9.262093100680223"><ele>279.0</ele><time>2026-04-12T06:03:36Z</time></trkpt><trkpt lat="45.68955807980322" lon="9.262214610641756"><ele>279.6666666666667</ele><time>2026-04-12T06:03:37Z</time></trkpt><trkpt lat="45.68954910241108" lon="9.262329499161831"><ele>280.33333333333337</ele><time>2026-04-12T06:03:38Z</time></trkpt><trkpt lat="45.689549309771735" lon="9.262426791538521"><ele>281.0</ele><time>2026-04-12T06:03:38.999Z</time></trkpt><trkpt lat="45.689546168703004" lon="9.262583883126837"><ele>281.6666666666667</ele><time>2026-04-12T06:03:40.999Z</time></trkpt><trkpt lat="45.68953704019074" lon="9.26268078979437"><ele>282.33333333333337</ele><time>2026-04-12T06:03:44.999Z</time></trkpt><trkpt lat="45.68953389269262" lon="9.262772773890067"><ele>283.0</ele><time>2026-04-12T06:03:57.999Z</time></trkpt><trkpt lat="45.68952747124104" lon="9.262935719833344"><ele>283.6666666666667</ele><time>2026-04-12T06:03:59.999Z</time></trkpt><trkpt lat="45.68952323336364" lon="9.263042513957611"><ele>284.3333333333333</ele><time>2026-04-12T06:04:00.999Z</time></trkpt><trkpt lat="45.68952016584891" lon="9.263162976384166"><ele>285.0</ele><time>2026-04-12T06:04:01.999Z</time></trkpt><trkpt lat="45.68951795229236" lon="9.263295672814442"><ele>285.4</ele><time>2026-04-12T06:04:02.999Z</time></trkpt><trkpt lat="45.68951560101537" lon="9.263439958677425"><ele>285.8</ele><time>2026-04-12T06:04:03.999Z</time></trkpt><trkpt lat="45.689519412378786" lon="9.263592592537362"><ele>286.2</ele><time>2026-04-12T06:04:04.999Z</time></trkpt><trkpt lat="45.689533795811485" lon="9.263753368897405"><ele>286.6</ele><time>2026-04-12T06:04:05.999Z</time></trkpt><trkpt lat="45.6895604156535" lon="9.263916758831341"><ele>287.0</ele><time>2026-04-12T06:04:06.999Z</time></trkpt><trkpt lat="45.68958084412047" lon="9.264090243601375"><ele>287.5</ele><time>2026-04-12T06:04:07.999Z</time></trkpt><trkpt lat="45.68962776384852" lon="9.264254128781744"><ele>288.0</ele><time>2026-04-12T06:04:08.999Z</time></trkpt><trkpt lat="45.689686072421914" lon="9.264416872474154"><ele>288.5</ele><time>2026-04-12T06:04:09.999Z</time></trkpt><trkpt lat="45.68975425273452" lon="9.264574947591143"><ele>289.0</ele><time>2026-04-12T06:04:10.999Z</time></trkpt><trkpt lat="45.689845386575776" lon="9.264715323168447"><ele>288.75</ele><time>2026-04-12T06:04:11.999Z</time></trkpt><trkpt lat="45.689933195716364" lon="9.264860678599083"><ele>288.5</ele><time>2026-04-12T06:04:12.999Z</time></trkpt><trkpt lat="45.69003059098702" lon="9.264991927896096"><ele>288.25</ele><time>2026-04-12T06:04:13.999Z</time></trkpt><trkpt lat="45.69013826030554" lon="9.265094129736228"><ele>288.0</ele><time>2026-04-12T06:04:14.999Z</time></trkpt><trkpt lat="45.69023840611676" lon="9.265186320104828"><ele>287.6666666666667</ele><time>2026-04-12T06:04:15.999Z</time></trkpt><trkpt lat="45.69033336416401" lon="9.265263007573651"><ele>287.3333333333333</ele><time>2026-04-12T06:04:16.999Z</time></trkpt><trkpt lat="45.69041080369459" lon="9.265333692749484"><ele>287.0</ele><time>2026-04-12T06:04:17.999Z</time></trkpt><trkpt lat="45.69046935653746" lon="9.265401552106622"><ele>286.66666666666663</ele><time>2026-04-12T06:04:18.999Z</time></trkpt><trkpt lat="45.690507077410366" lon="9.265485357548156"><ele>286.3333333333333</ele><time>2026-04-12T06:04:19.999Z</time></trkpt><trkpt lat="45.69053712823301" lon="9.265585590437707"><ele>286.0</ele><time>2026-04-12T06:04:20.999Z</time></trkpt><trkpt lat="45.69058267755201" lon="9.265674837788167"><ele>285.0</ele><time>2026-04-12T06:04:21.999Z</time></trkpt><trkpt lat="45.690649570657385" lon="9.265739742451174"><ele>284.0</ele><time>2026-04-12T06:04:22.999Z</time></trkpt><trkpt lat="45.69073485051595" lon="9.265778318276464"><ele>283.0</ele><time>2026-04-12T06:04:23.999Z</time></trkpt><trkpt lat="45.69083276719587" lon="9.265791820519174"><ele>282.0</ele><time>2026-04-12T06:04:24.999Z</time></trkpt><trkpt lat="45.69092889561244" lon="9.265796463779505"><ele>281.0</ele><time>2026-04-12T06:04:25.999Z</time></trkpt><trkpt lat="45.69103035946053" lon="9.265860391935746"><ele>281.75</ele><time>2026-04-12T06:04:26.999Z</time></trkpt><trkpt lat="45.69113154354997" lon="9.265958562295053"><ele>282.5</ele><time>2026-04-12T06:04:27.999Z</time></trkpt><trkpt lat="45.691244843738524" lon="9.266055580510887"><ele>283.25</ele><time>2026-04-12T06:04:28.999Z</time></trkpt><trkpt lat="45.69135484778324" lon="9.266163233881075"><ele>284.0</ele><time>2026-04-12T06:04:29.999Z</time></trkpt><trkpt lat="45.69146706164558" lon="9.266259887577485"><ele>284.0</ele><time>2026-04-12T06:04:31Z</time></trkpt><trkpt lat="45.69158141369881" lon="9.266364255592192"><ele>284.0</ele><time>2026-04-12T06:04:32Z</time></trkpt><trkpt lat="45.69169071218776" lon="9.266465588519454"><ele>284.0</ele><time>2026-04-12T06:04:33Z</time></trkpt><trkpt lat="45.6918006106228" lon="9.266567656516088"><ele>284.0</ele><time>2026-04-12T06:04:34Z</time></trkpt><trkpt lat="45.69190856340357" lon="9.266668544000748"><ele>284.75</ele><time>2026-04-12T06:04:35Z</time></trkpt><trkpt lat="45.692014920695854" lon="9.266778343352804"><ele>285.5</ele><time>2026-04-12T06:04:36Z</time></trkpt><trkpt lat="45.69211782440064" lon="9.266892973437324"><ele>286.25</ele><time>2026-04-12T06:04:37Z</time></trkpt><trkpt lat="45.6922217002387" lon="9.267016946246425"><ele>287.0</ele><time>2026-04-12T06:04:38Z</time></trkpt><trkpt lat="45.69232655477766" lon="9.267140909791333"><ele>287.0</ele><time>2026-04-12T06:04:39Z</time></trkpt><trkpt lat="45.69242562052798" lon="9.267275575363298"><ele>287.0</ele><time>2026-04-12T06:04:40Z</time></trkpt><trkpt lat="45.69254094137085" lon="9.267389378751659"><ele>287.0</ele><time>2026-04-12T06:04:41Z</time></trkpt><trkpt lat="45.69264267155366" lon="9.267503143522793"><ele>287.0</ele><time>2026-04-12T06:04:42Z</time></trkpt><trkpt lat="45.69274174288895" lon="9.267636063166973"><ele>286.75</ele><time>2026-04-12T06:04:43Z</time></trkpt><trkpt lat="45.69285086787007" lon="9.267765064531403"><ele>286.5</ele><time>2026-04-12T06:04:44Z</time></trkpt><trkpt lat="45.69294915130585" lon="9.26789191621531"><ele>286.25</ele><time>2026-04-12T06:04:45Z</time></trkpt><trkpt lat="45.6930475109134" lon="9.268022149543864"><ele>286.0</ele><time>2026-04-12T06:04:46Z</time></trkpt><trkpt lat="45.69313978989632" lon="9.268165184452101"><ele>285.25</ele><time>2026-04-12T06:04:47Z</time></trkpt><trkpt lat="45.693223571134624" lon="9.268319126875898"><ele>284.5</ele><time>2026-04-12T06:04:48Z</time></trkpt><trkpt lat="45.69328187935649" lon="9.268499020746978"><ele>283.75</ele><time>2026-04-12T06:04:49Z</time></trkpt><trkpt lat="45.69334653237749" lon="9.268675490056438"><ele>283.0</ele><time>2026-04-12T06:04:50Z</time></trkpt><trkpt lat="45.69340335169448" lon="9.268866794071117"><ele>283.0</ele><time>2026-04-12T06:04:51Z</time></trkpt><trkpt lat="45.69346980885856" lon="9.269056219073487"><ele>283.0</ele><time>2026-04-12T06:04:52Z</time></trkpt><trkpt lat="45.693506492031936" lon="9.269270713608023"><ele>283.0</ele><time>2026-04-12T06:04:53Z</time></trkpt><trkpt lat="45.69356894130043" lon="9.269462337648585"><ele>284.66666666666663</ele><time>2026-04-12T06:04:54Z</time></trkpt><trkpt lat="45.69361991181548" lon="9.269672295635786"><ele>286.3333333333333</ele><time>2026-04-12T06:04:55Z</time></trkpt><trkpt lat="45.69367062367685" lon="9.269884301166101"><ele>288.0</ele><time>2026-04-12T06:04:56Z</time></trkpt><trkpt lat="45.69372689715494" lon="9.27009509730631"><ele>290.0</ele><time>2026-04-12T06:04:57Z</time></trkpt><trkpt lat="45.69378127914357" lon="9.270304588392777"><ele>292.0</ele><time>2026-04-12T06:04:58Z</time></trkpt><trkpt lat="45.69381645909457" lon="9.27051403785429"><ele>294.0</ele><time>2026-04-12T06:04:59Z</time></trkpt><trkpt lat="45.69386942833914" lon="9.270714984167306"><ele>294.75</ele><time>2026-04-12T06:05:00Z</time></trkpt><trkpt lat="45.69392585683888" lon="9.270908507677293"><ele>295.5</ele><time>2026-04-12T06:05:01Z</time></trkpt><trkpt lat="45.6939907336237" lon="9.271101412107456"><ele>296.25</ele><time>2026-04-12T06:05:02Z</time></trkpt><trkpt lat="45.694079080204176" lon="9.27127821421036"><ele>297.0</ele><time>2026-04-12T06:05:03Z</time></trkpt><trkpt lat="45.69416853066063" lon="9.271455901561207"><ele>297.0</ele><time>2026-04-12T06:05:04Z</time></trkpt><trkpt lat="45.694268461701384" lon="9.271623473097968"><ele>297.0</ele><time>2026-04-12T06:05:05Z</time></trkpt><trkpt lat="45.694375899852645" lon="9.271774116474399"><ele>297.0</ele><time>2026-04-12T06:05:06Z</time></trkpt><trkpt lat="45.69449302525423" lon="9.27192208667161"><ele>297.0</ele><time>2026-04-12T06:05:07Z</time></trkpt><trkpt lat="45.69461774037264" lon="9.272071872203233"><ele>297.0</ele><time>2026-04-12T06:05:08Z</time></trkpt><trkpt lat="45.6947387985715" lon="9.272219958069424"><ele>297.0</ele><time>2026-04-12T06:05:09Z</time></trkpt><trkpt lat="45.69485972642585" lon="9.272358200675708"><ele>293.3333333333333</ele><time>2026-04-12T06:05:10Z</time></trkpt><trkpt lat="45.69498708881262" lon="9.27249778221071"><ele>289.66666666666663</ele><time>2026-04-12T06:05:11Z</time></trkpt><trkpt lat="45.695116570301856" lon="9.272643286308217"><ele>286.0</ele><time>2026-04-12T06:05:12Z</time></trkpt><trkpt lat="45.695234392454985" lon="9.272779017511203"><ele>286.5</ele><time>2026-04-12T06:05:13Z</time></trkpt><trkpt lat="45.695345232813416" lon="9.27290807987521"><ele>287.0</ele><time>2026-04-12T06:05:14Z</time></trkpt><trkpt lat="45.69545404707164" lon="9.273028023889504"><ele>287.5</ele><time>2026-04-12T06:05:15Z</time></trkpt><trkpt lat="45.695550297791215" lon="9.27313572286007"><ele>288.0</ele><time>2026-04-12T06:05:16Z</time></trkpt><trkpt lat="45.6956118035049" lon="9.273211403855132"><ele>288.0</ele><time>2026-04-12T06:05:17Z</time></trkpt><trkpt lat="45.695685940546866" lon="9.273295612021316"><ele>288.0</ele><time>2026-04-12T06:05:18Z</time></trkpt><trkpt lat="45.695753652012655" lon="9.273381868995209"><ele>288.0</ele><time>2026-04-12T06:05:19Z</time></trkpt><trkpt lat="45.69580901105241" lon="9.273474057066643"><ele>288.0</ele><time>2026-04-12T06:05:20Z</time></trkpt><trkpt lat="45.69586281977389" lon="9.273574077901602"><ele>288.0</ele><time>2026-04-12T06:05:21Z</time></trkpt><trkpt lat="45.69591776150472" lon="9.27368362918283"><ele>288.0</ele><time>2026-04-12T06:05:22Z</time></trkpt><trkpt lat="45.69598453987672" lon="9.273808428045065"><ele>288.0</ele><time>2026-04-12T06:05:23Z</time></trkpt><trkpt lat="45.69604434068383" lon="9.273948523377141"><ele>288.0</ele><time>2026-04-12T06:05:24Z</time></trkpt><trkpt lat="45.6960954842676" lon="9.2741104592625"><ele>288.0</ele><time>2026-04-12T06:05:25Z</time></trkpt><trkpt lat="45.6961447988566" lon="9.27428795214987"><ele>290.0</ele><time>2026-04-12T06:05:26Z</time></trkpt><trkpt lat="45.69619079453161" lon="9.274475402329893"><ele>292.0</ele><time>2026-04-12T06:05:27Z</time></trkpt><trkpt lat="45.6962220270076" lon="9.274667234585978"><ele>294.0</ele><time>2026-04-12T06:05:28Z</time></trkpt><trkpt lat="45.696254780903466" lon="9.274869727040276"><ele>296.0</ele><time>2026-04-12T06:05:29Z</time></trkpt><trkpt lat="45.696276293533174" lon="9.275076206197513"><ele>296.6666666666667</ele><time>2026-04-12T06:05:30Z</time></trkpt><trkpt lat="45.69631153442783" lon="9.275284610387347"><ele>297.3333333333333</ele><time>2026-04-12T06:05:31Z</time></trkpt><trkpt lat="45.69634962437427" lon="9.275498502034052"><ele>298.0</ele><time>2026-04-12T06:05:32Z</time></trkpt><trkpt lat="45.69638831244376" lon="9.275704873322272"><ele>298.0</ele><time>2026-04-12T06:05:33Z</time></trkpt><trkpt lat="45.69641960586738" lon="9.275920053969159"><ele>298.0</ele><time>2026-04-12T06:05:34Z</time></trkpt><trkpt lat="45.696458635117956" lon="9.276130105287367"><ele>298.0</ele><time>2026-04-12T06:05:35Z</time></trkpt><trkpt lat="45.69649248601697" lon="9.276352602872937"><ele>297.66666666666663</ele><time>2026-04-12T06:05:36Z</time></trkpt><trkpt lat="45.69655090891535" lon="9.276562810829638"><ele>297.3333333333333</ele><time>2026-04-12T06:05:37Z</time></trkpt><trkpt lat="45.69663452166462" lon="9.276777546232154"><ele>297.0</ele><time>2026-04-12T06:05:38Z</time></trkpt><trkpt lat="45.69671234581804" lon="9.276976915957475"><ele>297.0</ele><time>2026-04-12T06:05:39Z</time></trkpt><trkpt lat="45.69678858046941" lon="9.27717256878027"><ele>297.0</ele><time>2026-04-12T06:05:40Z</time></trkpt><trkpt lat="45.69686179338532" lon="9.27736064319096"><ele>297.0</ele><time>2026-04-12T06:05:41Z</time></trkpt><trkpt lat="45.6969309046356" lon="9.277541328688773"><ele>297.1666666666667</ele><time>2026-04-12T06:05:42Z</time></trkpt><trkpt lat="45.696991425225825" lon="9.277699524296393"><ele>297.3333333333333</ele><time>2026-04-12T06:05:43Z</time></trkpt><trkpt lat="45.697041446881165" lon="9.277830276564229"><ele>297.5</ele><time>2026-04-12T06:05:44Z</time></trkpt><trkpt lat="45.697078279621174" lon="9.277931868005824"><ele>297.66666666666663</ele><time>2026-04-12T06:05:45Z</time></trkpt><trkpt lat="45.697110563914364" lon="9.278013492824641"><ele>297.8333333333333</ele><time>2026-04-12T06:05:46Z</time></trkpt><trkpt lat="45.69710632034155" lon="9.278107559514215"><ele>298.0</ele><time>2026-04-12T06:05:47Z</time></trkpt><trkpt lat="45.69712456911635" lon="9.278287848688299"><ele>298.0</ele><time>2026-04-12T06:05:49Z</time></trkpt><trkpt lat="45.69717145512504" lon="9.278357471146629"><ele>298.0</ele><time>2026-04-12T06:05:50Z</time></trkpt><trkpt lat="45.69724211617764" lon="9.278412049128416"><ele>298.0</ele><time>2026-04-12T06:05:51Z</time></trkpt><trkpt lat="45.69730720206732" lon="9.278483281680739"><ele>298.0</ele><time>2026-04-12T06:05:52Z</time></trkpt><trkpt lat="45.697354912982995" lon="9.278588865839257"><ele>298.0</ele><time>2026-04-12T06:05:52.999Z</time></trkpt><trkpt lat="45.69738963154489" lon="9.278720394389264"><ele>298.0</ele><time>2026-04-12T06:05:53.999Z</time></trkpt><trkpt lat="45.69745398343812" lon="9.278847335859073"><ele>298.5</ele><time>2026-04-12T06:05:54.999Z</time></trkpt><trkpt lat="45.69748802774224" lon="9.278999201381628"><ele>299.0</ele><time>2026-04-12T06:05:55.999Z</time></trkpt><trkpt lat="45.69754805974976" lon="9.27915346085901"><ele>299.5</ele><time>2026-04-12T06:05:56.999Z</time></trkpt><trkpt lat="45.697614285178844" lon="9.279309151930855"><ele>300.0</ele><time>2026-04-12T06:05:57.999Z</time></trkpt><trkpt lat="45.69768378115356" lon="9.279468334169357"><ele>300.0</ele><time>2026-04-12T06:05:58.999Z</time></trkpt><trkpt lat="45.69774619169214" lon="9.279631655614512"><ele>300.0</ele><time>2026-04-12T06:05:59.999Z</time></trkpt><trkpt lat="45.69780925033385" lon="9.279798454053504"><ele>300.0</ele><time>2026-04-12T06:06:00.999Z</time></trkpt><trkpt lat="45.69788703010527" lon="9.279976189259733"><ele>300.0</ele><time>2026-04-12T06:06:01.999Z</time></trkpt><trkpt lat="45.69795501899118" lon="9.280146994905893"><ele>301.5</ele><time>2026-04-12T06:06:02.999Z</time></trkpt><trkpt lat="45.697998511932376" lon="9.280329914178651"><ele>303.0</ele><time>2026-04-12T06:06:03.999Z</time></trkpt><trkpt lat="45.69804841963066" lon="9.280513123749012"><ele>304.5</ele><time>2026-04-12T06:06:04.999Z</time></trkpt><trkpt lat="45.6981129306539" lon="9.28068892144351"><ele>306.0</ele><time>2026-04-12T06:06:05.999Z</time></trkpt><trkpt lat="45.6981364359401" lon="9.280874667323042"><ele>307.25</ele><time>2026-04-12T06:06:06.999Z</time></trkpt><trkpt lat="45.69816500257112" lon="9.281071084218176"><ele>308.5</ele><time>2026-04-12T06:06:07.999Z</time></trkpt><trkpt lat="45.69819020130718" lon="9.281268067925385"><ele>309.75</ele><time>2026-04-12T06:06:08.999Z</time></trkpt><trkpt lat="45.69817590806488" lon="9.281472947994326"><ele>311.0</ele><time>2026-04-12T06:06:09.999Z</time></trkpt><trkpt lat="45.698182235377956" lon="9.281674924348215"><ele>311.75</ele><time>2026-04-12T06:06:10.999Z</time></trkpt><trkpt lat="45.69818480529987" lon="9.281885667770434"><ele>312.5</ele><time>2026-04-12T06:06:11.999Z</time></trkpt><trkpt lat="45.69818704307183" lon="9.28208434340604"><ele>313.25</ele><time>2026-04-12T06:06:12.999Z</time></trkpt><trkpt lat="45.69819226261919" lon="9.282284202878273"><ele>314.0</ele><time>2026-04-12T06:06:13.999Z</time></trkpt><trkpt lat="45.69820931750107" lon="9.28248741763494"><ele>315.25</ele><time>2026-04-12T06:06:14.999Z</time></trkpt><trkpt lat="45.698234384174945" lon="9.282688749954808"><ele>316.5</ele><time>2026-04-12T06:06:15.999Z</time></trkpt><trkpt lat="45.6982689605057" lon="9.28289489789915"><ele>317.75</ele><time>2026-04-12T06:06:16.999Z</time></trkpt><trkpt lat="45.69831292293882" lon="9.283100432146087"><ele>319.0</ele><time>2026-04-12T06:06:17.999Z</time></trkpt><trkpt lat="45.698365420019265" lon="9.283298777396203"><ele>319.25</ele><time>2026-04-12T06:06:18.999Z</time></trkpt><trkpt lat="45.69842409698884" lon="9.283496804312977"><ele>319.5</ele><time>2026-04-12T06:06:19.999Z</time></trkpt><trkpt lat="45.69848736091921" lon="9.283691723800873"><ele>319.75</ele><time>2026-04-12T06:06:20.999Z</time></trkpt><trkpt lat="45.6985501749738" lon="9.283879567771704"><ele>320.0</ele><time>2026-04-12T06:06:21.999Z</time></trkpt><trkpt lat="45.698600271795435" lon="9.284072042513401"><ele>322.25</ele><time>2026-04-12T06:06:22.999Z</time></trkpt><trkpt lat="45.69866134975986" lon="9.28425248249375"><ele>324.5</ele><time>2026-04-12T06:06:23.999Z</time></trkpt><trkpt lat="45.69871474268552" lon="9.28443810480251"><ele>326.75</ele><time>2026-04-12T06:06:24.999Z</time></trkpt><trkpt lat="45.69875365155938" lon="9.284627442574871"><ele>329.0</ele><time>2026-04-12T06:06:25.999Z</time></trkpt><trkpt lat="45.69879550399116" lon="9.284824037058979"><ele>329.0</ele><time>2026-04-12T06:06:26.999Z</time></trkpt><trkpt lat="45.69881425343677" lon="9.285030303695178"><ele>329.0</ele><time>2026-04-12T06:06:27.999Z</time></trkpt><trkpt lat="45.698830977460986" lon="9.28523932715039"><ele>329.0</ele><time>2026-04-12T06:06:28.999Z</time></trkpt><trkpt lat="45.69884509383904" lon="9.28544221583474"><ele>329.0</ele><time>2026-04-12T06:06:29.999Z</time></trkpt><trkpt lat="45.69886389038958" lon="9.285655136165905"><ele>330.0</ele><time>2026-04-12T06:06:30.999Z</time></trkpt><trkpt lat="45.69888725166804" lon="9.285866285347389"><ele>331.0</ele><time>2026-04-12T06:06:31.999Z</time></trkpt><trkpt lat="45.6988866066969" lon="9.286073519803827"><ele>332.0</ele><time>2026-04-12T06:06:32.999Z</time></trkpt><trkpt lat="45.698916398650354" lon="9.286279228715436"><ele>333.0</ele><time>2026-04-12T06:06:33.999Z</time></trkpt><trkpt lat="45.698917388662636" lon="9.28649382505781"><ele>333.25</ele><time>2026-04-12T06:06:34.999Z</time></trkpt><trkpt lat="45.69892447710095" lon="9.286694156627377"><ele>333.5</ele><time>2026-04-12T06:06:35.999Z</time></trkpt><trkpt lat="45.69894483325412" lon="9.286893099166578"><ele>333.75</ele><time>2026-04-12T06:06:37Z</time></trkpt><trkpt lat="45.69896873369438" lon="9.287087279996463"><ele>334.0</ele><time>2026-04-12T06:06:38Z</time></trkpt><trkpt lat="45.69899127026657" lon="9.287268237083817"><ele>333.0</ele><time>2026-04-12T06:06:39Z</time></trkpt><trkpt lat="45.69901692539355" lon="9.287454143799614"><ele>332.0</ele><time>2026-04-12T06:06:40Z</time></trkpt><trkpt lat="45.69904060513466" lon="9.287635107053944"><ele>331.0</ele><time>2026-04-12T06:06:41Z</time></trkpt><trkpt lat="45.699064429047716" lon="9.287815656696344"><ele>330.0</ele><time>2026-04-12T06:06:42Z</time></trkpt><trkpt lat="45.69908862366359" lon="9.287990945557016"><ele>330.0</ele><time>2026-04-12T06:06:43Z</time></trkpt><trkpt lat="45.69911044652954" lon="9.288168691934802"><ele>330.0</ele><time>2026-04-12T06:06:44Z</time></trkpt><trkpt lat="45.699130760033164" lon="9.288344179843113"><ele>330.0</ele><time>2026-04-12T06:06:45Z</time></trkpt><trkpt lat="45.69915337413641" lon="9.28851735329756"><ele>330.0</ele><time>2026-04-12T06:06:46Z</time></trkpt><trkpt lat="45.6991637970043" lon="9.28868642043157"><ele>330.0</ele><time>2026-04-12T06:06:47Z</time></trkpt><trkpt lat="45.699187069507985" lon="9.288865009672056"><ele>330.0</ele><time>2026-04-12T06:06:48Z</time></trkpt><trkpt lat="45.699210140271866" lon="9.289047596492686"><ele>330.0</ele><time>2026-04-12T06:06:49Z</time></trkpt><trkpt lat="45.69923357681984" lon="9.289222455038459"><ele>330.0</ele><time>2026-04-12T06:06:50Z</time></trkpt><trkpt lat="45.69925587738676" lon="9.28940756415337"><ele>330.5</ele><time>2026-04-12T06:06:51Z</time></trkpt><trkpt lat="45.69928119896967" lon="9.289592811328651"><ele>331.0</ele><time>2026-04-12T06:06:52Z</time></trkpt><trkpt lat="45.69931310523118" lon="9.289777475362166"><ele>331.5</ele><time>2026-04-12T06:06:53Z</time></trkpt><trkpt lat="45.699358453226594" lon="9.289963884258638"><ele>332.0</ele><time>2026-04-12T06:06:54Z</time></trkpt><trkpt lat="45.69940745034569" lon="9.290142610287683"><ele>335.5</ele><time>2026-04-12T06:06:55Z</time></trkpt><trkpt lat="45.69946457219618" lon="9.29031982269467"><ele>339.0</ele><time>2026-04-12T06:06:56Z</time></trkpt><trkpt lat="45.69952636831622" lon="9.290492530568757"><ele>342.5</ele><time>2026-04-12T06:06:57Z</time></trkpt><trkpt lat="45.699591669395865" lon="9.290668486767506"><ele>346.0</ele><time>2026-04-12T06:06:58Z</time></trkpt><trkpt lat="45.699659902684495" lon="9.290835259386293"><ele>346.0</ele><time>2026-04-12T06:06:59Z</time></trkpt><trkpt lat="45.69973032681363" lon="9.29099896379114"><ele>346.0</ele><time>2026-04-12T06:07:00Z</time></trkpt><trkpt lat="45.69980282524845" lon="9.291157944856456"><ele>346.0</ele><time>2026-04-12T06:07:01Z</time></trkpt><trkpt lat="45.69987236495392" lon="9.291307109348583"><ele>346.0</ele><time>2026-04-12T06:07:02Z</time></trkpt><trkpt lat="45.699939579332856" lon="9.291447244468062"><ele>346.20000000000005</ele><time>2026-04-12T06:07:03Z</time></trkpt><trkpt lat="45.700003222438234" lon="9.29157313847322"><ele>346.40000000000003</ele><time>2026-04-12T06:07:04Z</time></trkpt><trkpt lat="45.70005477230445" lon="9.291675504805443"><ele>346.6</ele><time>2026-04-12T06:07:05Z</time></trkpt><trkpt lat="45.700100033921316" lon="9.291774181124827"><ele>346.8</ele><time>2026-04-12T06:07:06Z</time></trkpt><trkpt lat="45.70013902947163" lon="9.29185690564447"><ele>347.0</ele><time>2026-04-12T06:07:07Z</time></trkpt><trkpt lat="45.700205471472" lon="9.29200019043116"><ele>347.0</ele><time>2026-04-12T06:07:09Z</time></trkpt><trkpt lat="45.70022523357929" lon="9.292092048617443"><ele>347.0</ele><time>2026-04-12T06:07:12Z</time></trkpt><trkpt lat="45.70024109328976" lon="9.292194382946242"><ele>347.0</ele><time>2026-04-12T06:07:14Z</time></trkpt><trkpt lat="45.700290860860086" lon="9.292325577329157"><ele>347.0</ele><time>2026-04-12T06:07:16Z</time></trkpt><trkpt lat="45.700330358263145" lon="9.292403509612644"><ele>347.0</ele><time>2026-04-12T06:07:17Z</time></trkpt><trkpt lat="45.70036028437881" lon="9.292493514183866"><ele>347.0</ele><time>2026-04-12T06:07:18Z</time></trkpt><trkpt lat="45.7003832778655" lon="9.29259748396739"><ele>347.20000000000005</ele><time>2026-04-12T06:07:19Z</time></trkpt><trkpt lat="45.70040355335741" lon="9.292713708920639"><ele>347.4</ele><time>2026-04-12T06:07:20Z</time></trkpt><trkpt lat="45.700423385824436" lon="9.292841594036402"><ele>347.6</ele><time>2026-04-12T06:07:21Z</time></trkpt><trkpt lat="45.700448171750885" lon="9.292984204914942"><ele>347.79999999999995</ele><time>2026-04-12T06:07:22Z</time></trkpt><trkpt lat="45.70047348409876" lon="9.293135652788434"><ele>348.0</ele><time>2026-04-12T06:07:23Z</time></trkpt><trkpt lat="45.70050192360919" lon="9.293291709559155"><ele>349.0</ele><time>2026-04-12T06:07:24Z</time></trkpt><trkpt lat="45.70053091195456" lon="9.293457982962266"><ele>350.0</ele><time>2026-04-12T06:07:25Z</time></trkpt><trkpt lat="45.700562704593864" lon="9.293627094044952"><ele>351.0</ele><time>2026-04-12T06:07:26Z</time></trkpt><trkpt lat="45.70059337765962" lon="9.293802710065085"><ele>352.0</ele><time>2026-04-12T06:07:27Z</time></trkpt><trkpt lat="45.70062744206822" lon="9.293983469085791"><ele>353.25</ele><time>2026-04-12T06:07:28Z</time></trkpt><trkpt lat="45.7006587420408" lon="9.294166007277202"><ele>354.5</ele><time>2026-04-12T06:07:29Z</time></trkpt><trkpt lat="45.70069083912324" lon="9.294350445084927"><ele>355.75</ele><time>2026-04-12T06:07:30Z</time></trkpt><trkpt lat="45.700724963843946" lon="9.294530902839789"><ele>357.0</ele><time>2026-04-12T06:07:31Z</time></trkpt><trkpt lat="45.7007573623519" lon="9.294710455844829"><ele>357.5</ele><time>2026-04-12T06:07:32Z</time></trkpt><trkpt lat="45.70079618244259" lon="9.29489718147897"><ele>358.0</ele><time>2026-04-12T06:07:33Z</time></trkpt><trkpt lat="45.700811454094435" lon="9.295082970081983"><ele>358.5</ele><time>2026-04-12T06:07:34Z</time></trkpt><trkpt lat="45.700842766578106" lon="9.295264061152581"><ele>359.0</ele><time>2026-04-12T06:07:35Z</time></trkpt><trkpt lat="45.700851545689865" lon="9.295441179004282"><ele>360.0</ele><time>2026-04-12T06:07:36Z</time></trkpt><trkpt lat="45.70088096057533" lon="9.295617400897994"><ele>361.0</ele><time>2026-04-12T06:07:37Z</time></trkpt><trkpt lat="45.70091194957207" lon="9.295789705073403"><ele>362.0</ele><time>2026-04-12T06:07:38Z</time></trkpt><trkpt lat="45.70095346639326" lon="9.29596274395129"><ele>363.0</ele><time>2026-04-12T06:07:39Z</time></trkpt><trkpt lat="45.7009952683292" lon="9.296130319321042"><ele>363.0</ele><time>2026-04-12T06:07:40Z</time></trkpt><trkpt lat="45.701039066396035" lon="9.296295120061691"><ele>363.0</ele><time>2026-04-12T06:07:41Z</time></trkpt><trkpt lat="45.7010816092642" lon="9.296454849863457"><ele>363.0</ele><time>2026-04-12T06:07:42Z</time></trkpt><trkpt lat="45.70114721754617" lon="9.296662984053093"><ele>363.0</ele><time>2026-04-12T06:07:43Z</time></trkpt><trkpt lat="45.70121534382672" lon="9.296822643907394"><ele>363.25</ele><time>2026-04-12T06:07:44Z</time></trkpt><trkpt lat="45.70127051660601" lon="9.296993278172662"><ele>363.5</ele><time>2026-04-12T06:07:45Z</time></trkpt><trkpt lat="45.701322957437974" lon="9.297162233867843"><ele>363.75</ele><time>2026-04-12T06:07:46Z</time></trkpt><trkpt lat="45.7013920960885" lon="9.29732909610382"><ele>364.0</ele><time>2026-04-12T06:07:47Z</time></trkpt><trkpt lat="45.7014458850114" lon="9.297490034299189"><ele>364.0</ele><time>2026-04-12T06:07:48Z</time></trkpt><trkpt lat="45.701490267440306" lon="9.297655242518282"><ele>364.0</ele><time>2026-04-12T06:07:49Z</time></trkpt><trkpt lat="45.70154305477043" lon="9.297822843593487"><ele>364.0</ele><time>2026-04-12T06:07:50Z</time></trkpt><trkpt lat="45.70159444043493" lon="9.29798301852283"><ele>364.0</ele><time>2026-04-12T06:07:51Z</time></trkpt><trkpt lat="45.70164273790249" lon="9.298145972433627"><ele>365.5</ele><time>2026-04-12T06:07:52Z</time></trkpt><trkpt lat="45.70168835671371" lon="9.2983075926243"><ele>367.0</ele><time>2026-04-12T06:07:53Z</time></trkpt><trkpt lat="45.70174205378688" lon="9.298469826155678"><ele>368.5</ele><time>2026-04-12T06:07:54Z</time></trkpt><trkpt lat="45.70180810505213" lon="9.298628285353765"><ele>370.0</ele><time>2026-04-12T06:07:55Z</time></trkpt><trkpt lat="45.701888933788425" lon="9.298776606812252"><ele>370.0</ele><time>2026-04-12T06:07:56Z</time></trkpt><trkpt lat="45.70198354787526" lon="9.298904656856772"><ele>370.0</ele><time>2026-04-12T06:07:57Z</time></trkpt><trkpt lat="45.702079388030704" lon="9.29902740405393"><ele>370.0</ele><time>2026-04-12T06:07:58Z</time></trkpt><trkpt lat="45.70218094082642" lon="9.299150235034164"><ele>370.0</ele><time>2026-04-12T06:07:59Z</time></trkpt><trkpt lat="45.70227529262153" lon="9.29927338124928"><ele>370.0</ele><time>2026-04-12T06:08:00Z</time></trkpt><trkpt lat="45.70237372500992" lon="9.299397305155143"><ele>370.0</ele><time>2026-04-12T06:08:01Z</time></trkpt><trkpt lat="45.702468765857105" lon="9.299519228530116"><ele>370.0</ele><time>2026-04-12T06:08:02Z</time></trkpt><trkpt lat="45.70256476300802" lon="9.299639166384784"><ele>370.0</ele><time>2026-04-12T06:08:03Z</time></trkpt><trkpt lat="45.70266200578667" lon="9.29976206852643"><ele>371.0</ele><time>2026-04-12T06:08:03.999Z</time></trkpt><trkpt lat="45.70275982257001" lon="9.299883163183097"><ele>372.0</ele><time>2026-04-12T06:08:04.999Z</time></trkpt><trkpt lat="45.70285827194426" lon="9.300003197617245"><ele>373.0</ele><time>2026-04-12T06:08:05.999Z</time></trkpt><trkpt lat="45.70295012210057" lon="9.300120549926948"><ele>374.0</ele><time>2026-04-12T06:08:06.999Z</time></trkpt><trkpt lat="45.703040192338065" lon="9.300236674480665"><ele>374.0</ele><time>2026-04-12T06:08:07.999Z</time></trkpt><trkpt lat="45.70312449828463" lon="9.300352877711168"><ele>374.0</ele><time>2026-04-12T06:08:08.999Z</time></trkpt><trkpt lat="45.70320442947144" lon="9.300467700710696"><ele>374.0</ele><time>2026-04-12T06:08:09.999Z</time></trkpt><trkpt lat="45.70327838219536" lon="9.300592694535544"><ele>374.0</ele><time>2026-04-12T06:08:10.999Z</time></trkpt><trkpt lat="45.70334750846297" lon="9.30072572201586"><ele>376.0</ele><time>2026-04-12T06:08:11.999Z</time></trkpt><trkpt lat="45.703405633518656" lon="9.300868570285854"><ele>378.0</ele><time>2026-04-12T06:08:12.999Z</time></trkpt><trkpt lat="45.70345726939468" lon="9.301020187432052"><ele>380.0</ele><time>2026-04-12T06:08:13.999Z</time></trkpt><trkpt lat="45.70350587973673" lon="9.301172245559561"><ele>382.0</ele><time>2026-04-12T06:08:14.999Z</time></trkpt><trkpt lat="45.70355807311579" lon="9.301326262560082"><ele>381.0</ele><time>2026-04-12T06:08:15.999Z</time></trkpt><trkpt lat="45.70360850401348" lon="9.301484589493967"><ele>380.0</ele><time>2026-04-12T06:08:16.999Z</time></trkpt><trkpt lat="45.703659974418485" lon="9.301646270614178"><ele>379.0</ele><time>2026-04-12T06:08:17.999Z</time></trkpt><trkpt lat="45.70371828772199" lon="9.301809800732764"><ele>378.0</ele><time>2026-04-12T06:08:18.999Z</time></trkpt><trkpt lat="45.703778481866074" lon="9.301980540230682"><ele>378.0</ele><time>2026-04-12T06:08:19.999Z</time></trkpt><trkpt lat="45.703832007449456" lon="9.30215086122422"><ele>378.0</ele><time>2026-04-12T06:08:20.999Z</time></trkpt><trkpt lat="45.70388952339364" lon="9.302325036633546"><ele>378.0</ele><time>2026-04-12T06:08:21.999Z</time></trkpt><trkpt lat="45.70394650802829" lon="9.30250276091462"><ele>378.0</ele><time>2026-04-12T06:08:22.999Z</time></trkpt><trkpt lat="45.704007583433935" lon="9.302685228732768"><ele>378.5</ele><time>2026-04-12T06:08:23.999Z</time></trkpt><trkpt lat="45.704069559673286" lon="9.302870128930282"><ele>379.0</ele><time>2026-04-12T06:08:24.999Z</time></trkpt><trkpt lat="45.70413127199928" lon="9.303058519018645"><ele>379.5</ele><time>2026-04-12T06:08:25.999Z</time></trkpt><trkpt lat="45.704193105435124" lon="9.303248993368747"><ele>380.0</ele><time>2026-04-12T06:08:26.999Z</time></trkpt><trkpt lat="45.70425875541977" lon="9.303441495336946"><ele>379.75</ele><time>2026-04-12T06:08:27.999Z</time></trkpt><trkpt lat="45.70432426517255" lon="9.30363440961766"><ele>379.5</ele><time>2026-04-12T06:08:28.999Z</time></trkpt><trkpt lat="45.704393223206495" lon="9.303824786833722"><ele>379.25</ele><time>2026-04-12T06:08:29.999Z</time></trkpt><trkpt lat="45.704460497735795" lon="9.304014984239076"><ele>379.0</ele><time>2026-04-12T06:08:30.999Z</time></trkpt><trkpt lat="45.70452525525794" lon="9.304206852264139"><ele>379.0</ele><time>2026-04-12T06:08:31.999Z</time></trkpt><trkpt lat="45.70459838027445" lon="9.304396304425183"><ele>379.0</ele><time>2026-04-12T06:08:32.999Z</time></trkpt><trkpt lat="45.704667359250344" lon="9.304583941516338"><ele>379.0</ele><time>2026-04-12T06:08:33.999Z</time></trkpt><trkpt lat="45.70473763627878" lon="9.304765952812364"><ele>379.0</ele><time>2026-04-12T06:08:34.999Z</time></trkpt><trkpt lat="45.70480987419094" lon="9.30494145999686"><ele>380.5</ele><time>2026-04-12T06:08:35.999Z</time></trkpt><trkpt lat="45.704885178639664" lon="9.305108045440667"><ele>382.0</ele><time>2026-04-12T06:08:36.999Z</time></trkpt><trkpt lat="45.70496320555658" lon="9.305267291091166"><ele>383.5</ele><time>2026-04-12T06:08:37.999Z</time></trkpt><trkpt lat="45.70503923685228" lon="9.30542436516237"><ele>385.0</ele><time>2026-04-12T06:08:38.999Z</time></trkpt><trkpt lat="45.705117490293446" lon="9.305580109526717"><ele>385.25</ele><time>2026-04-12T06:08:39.999Z</time></trkpt><trkpt lat="45.7051930121543" lon="9.30573818349061"><ele>385.5</ele><time>2026-04-12T06:08:40.999Z</time></trkpt><trkpt lat="45.705261200013496" lon="9.3058965982912"><ele>385.75</ele><time>2026-04-12T06:08:41.999Z</time></trkpt><trkpt lat="45.705341738709876" lon="9.306055629748926"><ele>386.0</ele><time>2026-04-12T06:08:43Z</time></trkpt><trkpt lat="45.70543384107648" lon="9.306204618653812"><ele>386.0</ele><time>2026-04-12T06:08:44Z</time></trkpt><trkpt lat="45.70551567007526" lon="9.306352960881922"><ele>386.0</ele><time>2026-04-12T06:08:45Z</time></trkpt><trkpt lat="45.705600720306194" lon="9.306506163159838"><ele>386.0</ele><time>2026-04-12T06:08:46Z</time></trkpt><trkpt lat="45.705684536105174" lon="9.306661811156973"><ele>386.0</ele><time>2026-04-12T06:08:47Z</time></trkpt><trkpt lat="45.7057687477962" lon="9.306815352899855"><ele>386.75</ele><time>2026-04-12T06:08:48Z</time></trkpt><trkpt lat="45.70585073172494" lon="9.306973558443458"><ele>387.5</ele><time>2026-04-12T06:08:49Z</time></trkpt><trkpt lat="45.70593498754206" lon="9.30712911137864"><ele>388.25</ele><time>2026-04-12T06:08:50Z</time></trkpt><trkpt lat="45.706023242821686" lon="9.307286663540532"><ele>389.0</ele><time>2026-04-12T06:08:51Z</time></trkpt><trkpt lat="45.70610472348095" lon="9.307439071017347"><ele>389.0</ele><time>2026-04-12T06:08:52Z</time></trkpt><trkpt lat="45.70618836699268" lon="9.307590327746423"><ele>389.0</ele><time>2026-04-12T06:08:53Z</time></trkpt><trkpt lat="45.70626627950934" lon="9.30774526938196"><ele>389.0</ele><time>2026-04-12T06:08:54Z</time></trkpt><trkpt lat="45.70634407590816" lon="9.307893849261413"><ele>389.0</ele><time>2026-04-12T06:08:55Z</time></trkpt><trkpt lat="45.70641702620246" lon="9.308043629308282"><ele>390.0</ele><time>2026-04-12T06:08:56Z</time></trkpt><trkpt lat="45.706494788787886" lon="9.308187817248246"><ele>391.0</ele><time>2026-04-12T06:08:57Z</time></trkpt><trkpt lat="45.70656898380212" lon="9.308333248553222"><ele>392.0</ele><time>2026-04-12T06:08:58Z</time></trkpt><trkpt lat="45.706644925057915" lon="9.308478963305125"><ele>393.0</ele><time>2026-04-12T06:08:59Z</time></trkpt><trkpt lat="45.70672112452477" lon="9.308623393329714"><ele>393.0</ele><time>2026-04-12T06:09:00Z</time></trkpt><trkpt lat="45.70679431157065" lon="9.30876561352271"><ele>393.0</ele><time>2026-04-12T06:09:01Z</time></trkpt><trkpt lat="45.706868016124616" lon="9.30890551692824"><ele>393.0</ele><time>2026-04-12T06:09:02Z</time></trkpt><trkpt lat="45.70694473520286" lon="9.309052528709636"><ele>393.0</ele><time>2026-04-12T06:09:03Z</time></trkpt><trkpt lat="45.70701483724419" lon="9.30920032162375"><ele>393.5</ele><time>2026-04-12T06:09:04Z</time></trkpt><trkpt lat="45.707071476112944" lon="9.309360995975345"><ele>394.0</ele><time>2026-04-12T06:09:05Z</time></trkpt><trkpt lat="45.70711739120666" lon="9.30953858234154"><ele>394.5</ele><time>2026-04-12T06:09:06Z</time></trkpt><trkpt lat="45.70715832000039" lon="9.309722735475551"><ele>395.0</ele><time>2026-04-12T06:09:07Z</time></trkpt><trkpt lat="45.707199541932205" lon="9.309905555194561"><ele>393.75</ele><time>2026-04-12T06:09:08Z</time></trkpt><trkpt lat="45.70724309367733" lon="9.310091497599611"><ele>392.5</ele><time>2026-04-12T06:09:09Z</time></trkpt><trkpt lat="45.70728241770513" lon="9.310272344389713"><ele>391.25</ele><time>2026-04-12T06:09:10Z</time></trkpt><trkpt lat="45.70732223920653" lon="9.310442495679027"><ele>390.0</ele><time>2026-04-12T06:09:11Z</time></trkpt><trkpt lat="45.707357292891025" lon="9.310613082215422"><ele>389.4</ele><time>2026-04-12T06:09:12Z</time></trkpt><trkpt lat="45.70738889062955" lon="9.310773451938902"><ele>388.8</ele><time>2026-04-12T06:09:13Z</time></trkpt><trkpt lat="45.7074228893042" lon="9.310933683352106"><ele>388.20000000000005</ele><time>2026-04-12T06:09:14Z</time></trkpt><trkpt lat="45.707453799032855" lon="9.311068806568171"><ele>387.6</ele><time>2026-04-12T06:09:15Z</time></trkpt><trkpt lat="45.70748049378638" lon="9.311201350490004"><ele>387.0</ele><time>2026-04-12T06:09:16Z</time></trkpt><trkpt lat="45.707508864097576" lon="9.311320225525613"><ele>386.20000000000005</ele><time>2026-04-12T06:09:17Z</time></trkpt><trkpt lat="45.70754394413611" lon="9.311463827751856"><ele>385.4</ele><time>2026-04-12T06:09:19Z</time></trkpt><trkpt lat="45.7075636535469" lon="9.311603145038683"><ele>384.6</ele><time>2026-04-12T06:09:22Z</time></trkpt><trkpt lat="45.707565719236094" lon="9.3117538850642"><ele>383.79999999999995</ele><time>2026-04-12T06:09:24Z</time></trkpt><trkpt lat="45.70762239472411" lon="9.311906033788352"><ele>383.0</ele><time>2026-04-12T06:09:26Z</time></trkpt><trkpt lat="45.70765387409668" lon="9.311997187445092"><ele>383.0</ele><time>2026-04-12T06:09:27Z</time></trkpt><trkpt lat="45.70767574683146" lon="9.312107951753584"><ele>383.0</ele><time>2026-04-12T06:09:28Z</time></trkpt><trkpt lat="45.70765409381749" lon="9.312220040605954"><ele>383.0</ele><time>2026-04-12T06:09:29Z</time></trkpt><trkpt lat="45.7076283996791" lon="9.312341007116745"><ele>383.0</ele><time>2026-04-12T06:09:30Z</time></trkpt><trkpt lat="45.70758203177968" lon="9.312456064657523"><ele>383.0</ele><time>2026-04-12T06:09:31Z</time></trkpt><trkpt lat="45.70752762896011" lon="9.312568736524018"><ele>383.0</ele><time>2026-04-12T06:09:32Z</time></trkpt><trkpt lat="45.70746694337966" lon="9.312675185703583"><ele>382.0</ele><time>2026-04-12T06:09:33Z</time></trkpt><trkpt lat="45.70741226176851" lon="9.312781933762738"><ele>381.0</ele><time>2026-04-12T06:09:34Z</time></trkpt><trkpt lat="45.707367418180205" lon="9.312896944617263"><ele>380.0</ele><time>2026-04-12T06:09:35Z</time></trkpt><trkpt lat="45.70735341163729" lon="9.313036167082917"><ele>379.0</ele><time>2026-04-12T06:09:36Z</time></trkpt><trkpt lat="45.70735488665339" lon="9.313192283393095"><ele>378.0</ele><time>2026-04-12T06:09:37Z</time></trkpt><trkpt lat="45.70741128536279" lon="9.313320536192778"><ele>377.0</ele><time>2026-04-12T06:09:38Z</time></trkpt><trkpt lat="45.707475007334395" lon="9.313436320452752"><ele>376.0</ele><time>2026-04-12T06:09:39Z</time></trkpt><trkpt lat="45.70755026486591" lon="9.313563046872659"><ele>375.0</ele><time>2026-04-12T06:09:40Z</time></trkpt><trkpt lat="45.70761946425563" lon="9.313653220034984"><ele>374.0</ele><time>2026-04-12T06:09:41Z</time></trkpt><trkpt lat="45.70770784860684" lon="9.313753646309861"><ele>373.0</ele><time>2026-04-12T06:09:42Z</time></trkpt><trkpt lat="45.70779164844965" lon="9.313832382340328"><ele>374.2</ele><time>2026-04-12T06:09:43Z</time></trkpt><trkpt lat="45.70786984450394" lon="9.313880664468211"><ele>375.4</ele><time>2026-04-12T06:09:44Z</time></trkpt><trkpt lat="45.70792787056323" lon="9.313916330067908"><ele>376.59999999999997</ele><time>2026-04-12T06:09:45Z</time></trkpt><trkpt lat="45.708013886228606" lon="9.31396919971994"><ele>377.79999999999995</ele><time>2026-04-12T06:09:47Z</time></trkpt><trkpt lat="45.70800638899767" lon="9.314116275019034"><ele>379.0</ele><time>2026-04-12T06:09:50Z</time></trkpt><trkpt lat="45.7079009590656" lon="9.314197901025482"><ele>379.0</ele><time>2026-04-12T06:09:52Z</time></trkpt><trkpt lat="45.70783594601356" lon="9.314229407151487"><ele>379.0</ele><time>2026-04-12T06:09:53Z</time></trkpt><trkpt lat="45.707770105230416" lon="9.31438913160874"><ele>379.0</ele><time>2026-04-12T06:09:55Z</time></trkpt><trkpt lat="45.70777995812746" lon="9.314490726582921"><ele>379.0</ele><time>2026-04-12T06:09:56Z</time></trkpt><trkpt lat="45.70781923325764" lon="9.314573811276778"><ele>379.0</ele><time>2026-04-12T06:09:57Z</time></trkpt><trkpt lat="45.707878388758566" lon="9.314642487126283"><ele>379.0</ele><time>2026-04-12T06:09:58Z</time></trkpt><trkpt lat="45.707953843617354" lon="9.314674675555905"><ele>379.0</ele><time>2026-04-12T06:09:59Z</time></trkpt><trkpt lat="45.708005655455416" lon="9.31473783089877"><ele>379.0</ele><time>2026-04-12T06:10:00Z</time></trkpt><trkpt lat="45.70810979899017" lon="9.314637681825795"><ele>379.0</ele><time>2026-04-12T06:10:01Z</time></trkpt><trkpt lat="45.70820188922974" lon="9.31462296197805"><ele>379.0</ele><time>2026-04-12T06:10:02Z</time></trkpt><trkpt lat="45.70829601744947" lon="9.314629691158764"><ele>379.0</ele><time>2026-04-12T06:10:03Z</time></trkpt><trkpt lat="45.70838927193553" lon="9.31466824862628"><ele>377.0</ele><time>2026-04-12T06:10:04Z</time></trkpt><trkpt lat="45.70848584859553" lon="9.314738155570126"><ele>375.0</ele><time>2026-04-12T06:10:05Z</time></trkpt><trkpt lat="45.70857133974057" lon="9.314827323722144"><ele>373.0</ele><time>2026-04-12T06:10:06Z</time></trkpt><trkpt lat="45.70866280514785" lon="9.31493024443533"><ele>371.0</ele><time>2026-04-12T06:10:07Z</time></trkpt><trkpt lat="45.70875050134372" lon="9.31505200692271"><ele>373.5</ele><time>2026-04-12T06:10:08Z</time></trkpt><trkpt lat="45.70882528299218" lon="9.315192263738831"><ele>376.0</ele><time>2026-04-12T06:10:09Z</time></trkpt><trkpt lat="45.708871038017975" lon="9.315365727234648"><ele>378.5</ele><time>2026-04-12T06:10:10Z</time></trkpt><trkpt lat="45.70892559908213" lon="9.315536420342214"><ele>381.0</ele><time>2026-04-12T06:10:11Z</time></trkpt><trkpt lat="45.708981937877994" lon="9.31571776991524"><ele>381.0</ele><time>2026-04-12T06:10:12Z</time></trkpt><trkpt lat="45.709041451891665" lon="9.31589669948544"><ele>381.0</ele><time>2026-04-12T06:10:13Z</time></trkpt><trkpt lat="45.70909518640246" lon="9.316065313302287"><ele>381.0</ele><time>2026-04-12T06:10:14Z</time></trkpt><trkpt lat="45.709151839430156" lon="9.316241864493593"><ele>381.0</ele><time>2026-04-12T06:10:15Z</time></trkpt><trkpt lat="45.709208460088156" lon="9.316419655226996"><ele>381.0</ele><time>2026-04-12T06:10:16Z</time></trkpt><trkpt lat="45.70926854641734" lon="9.316597602678794"><ele>381.0</ele><time>2026-04-12T06:10:17Z</time></trkpt><trkpt lat="45.70933549713832" lon="9.316776520090551"><ele>381.0</ele><time>2026-04-12T06:10:17.999Z</time></trkpt><trkpt lat="45.70941632428572" lon="9.316944024283776"><ele>381.0</ele><time>2026-04-12T06:10:18.999Z</time></trkpt><trkpt lat="45.7095114995472" lon="9.317101614287674"><ele>379.75</ele><time>2026-04-12T06:10:19.999Z</time></trkpt><trkpt lat="45.709622412235746" lon="9.317241413630487"><ele>378.5</ele><time>2026-04-12T06:10:20.999Z</time></trkpt><trkpt lat="45.709737670473324" lon="9.317362267223814"><ele>377.25</ele><time>2026-04-12T06:10:21.999Z</time></trkpt><trkpt lat="45.7098607006163" lon="9.317465427660867"><ele>376.0</ele><time>2026-04-12T06:10:22.999Z</time></trkpt><trkpt lat="45.70999444591525" lon="9.317549329241547"><ele>376.0</ele><time>2026-04-12T06:10:23.999Z</time></trkpt><trkpt lat="45.71013073952097" lon="9.317618675756197"><ele>376.0</ele><time>2026-04-12T06:10:24.999Z</time></trkpt><trkpt lat="45.710271772651666" lon="9.317665264864125"><ele>376.0</ele><time>2026-04-12T06:10:25.999Z</time></trkpt><trkpt lat="45.71040889828864" lon="9.31772273208482"><ele>376.0</ele><time>2026-04-12T06:10:26.999Z</time></trkpt><trkpt lat="45.710554289034924" lon="9.317785057082004"><ele>378.25</ele><time>2026-04-12T06:10:27.999Z</time></trkpt><trkpt lat="45.7106941443057" lon="9.317835841790542"><ele>380.5</ele><time>2026-04-12T06:10:28.999Z</time></trkpt><trkpt lat="45.710830928283016" lon="9.317917285155206"><ele>382.75</ele><time>2026-04-12T06:10:29.999Z</time></trkpt><trkpt lat="45.71097756408283" lon="9.317959333957623"><ele>385.0</ele><time>2026-04-12T06:10:30.999Z</time></trkpt><trkpt lat="45.71112804049771" lon="9.318019769369473"><ele>382.6666666666667</ele><time>2026-04-12T06:10:31.999Z</time></trkpt><trkpt lat="45.711292862889024" lon="9.318087202802019"><ele>380.33333333333337</ele><time>2026-04-12T06:10:32.999Z</time></trkpt><trkpt lat="45.71145058111574" lon="9.318175066259663"><ele>378.0</ele><time>2026-04-12T06:10:33.999Z</time></trkpt><trkpt lat="45.711598340552015" lon="9.318218392976144"><ele>378.0</ele><time>2026-04-12T06:10:34.999Z</time></trkpt><trkpt lat="45.71173423243491" lon="9.318271885182268"><ele>378.0</ele><time>2026-04-12T06:10:35.999Z</time></trkpt><trkpt lat="45.71187329132557" lon="9.3183518549491"><ele>378.0</ele><time>2026-04-12T06:10:36.999Z</time></trkpt><trkpt lat="45.71200618215677" lon="9.318405243325358"><ele>378.0</ele><time>2026-04-12T06:10:37.999Z</time></trkpt><trkpt lat="45.71213675375895" lon="9.318450586074427"><ele>379.3333333333333</ele><time>2026-04-12T06:10:38.999Z</time></trkpt><trkpt lat="45.71227943787652" lon="9.318495553442956"><ele>380.66666666666663</ele><time>2026-04-12T06:10:39.999Z</time></trkpt><trkpt lat="45.712432048148706" lon="9.318536341033216"><ele>382.0</ele><time>2026-04-12T06:10:40.999Z</time></trkpt><trkpt lat="45.71258638543197" lon="9.318543289293492"><ele>382.0</ele><time>2026-04-12T06:10:41.999Z</time></trkpt><trkpt lat="45.712727601889675" lon="9.318563373420067"><ele>382.0</ele><time>2026-04-12T06:10:42.999Z</time></trkpt><trkpt lat="45.71287754683394" lon="9.318603731990379"><ele>382.0</ele><time>2026-04-12T06:10:43.999Z</time></trkpt><trkpt lat="45.7130292064853" lon="9.318588560410983"><ele>382.0</ele><time>2026-04-12T06:10:44.999Z</time></trkpt><trkpt lat="45.713176237307664" lon="9.318591196470422"><ele>382.20000000000005</ele><time>2026-04-12T06:10:45.999Z</time></trkpt><trkpt lat="45.713296048988546" lon="9.318632039252256"><ele>382.4</ele><time>2026-04-12T06:10:46.999Z</time></trkpt><trkpt lat="45.71341578762425" lon="9.318623172190149"><ele>382.6</ele><time>2026-04-12T06:10:47.999Z</time></trkpt><trkpt lat="45.71352569431141" lon="9.318614442604794"><ele>382.79999999999995</ele><time>2026-04-12T06:10:49Z</time></trkpt><trkpt lat="45.713620781171315" lon="9.318610228897995"><ele>383.0</ele><time>2026-04-12T06:10:50Z</time></trkpt><trkpt lat="45.71369872649217" lon="9.31860320481245"><ele>382.59999999999997</ele><time>2026-04-12T06:10:51Z</time></trkpt><trkpt lat="45.71376866313447" lon="9.31859588670392"><ele>382.2</ele><time>2026-04-12T06:10:52Z</time></trkpt><trkpt lat="45.71388019615989" lon="9.318600607259176"><ele>381.8</ele><time>2026-04-12T06:10:54Z</time></trkpt><trkpt lat="45.713979452910095" lon="9.318650947019739"><ele>381.4</ele><time>2026-04-12T06:10:56Z</time></trkpt><trkpt lat="45.714115234917465" lon="9.318655275487368"><ele>381.0</ele><time>2026-04-12T06:10:58Z</time></trkpt><trkpt lat="45.714196113098794" lon="9.3186051701256"><ele>381.0</ele><time>2026-04-12T06:10:59Z</time></trkpt><trkpt lat="45.714272731658646" lon="9.318580902850762"><ele>381.0</ele><time>2026-04-12T06:11:00Z</time></trkpt><trkpt lat="45.714361801054196" lon="9.318574628342105"><ele>381.0</ele><time>2026-04-12T06:11:01Z</time></trkpt><trkpt lat="45.71446296936596" lon="9.318563710186268"><ele>381.0</ele><time>2026-04-12T06:11:02Z</time></trkpt><trkpt lat="45.71456868269553" lon="9.318556774249636"><ele>381.0</ele><time>2026-04-12T06:11:03Z</time></trkpt><trkpt lat="45.71467671368137" lon="9.318554571933007"><ele>380.25</ele><time>2026-04-12T06:11:04Z</time></trkpt><trkpt lat="45.714790555043706" lon="9.318547600086942"><ele>379.5</ele><time>2026-04-12T06:11:05Z</time></trkpt><trkpt lat="45.714909665324" lon="9.318541059734414"><ele>378.75</ele><time>2026-04-12T06:11:06Z</time></trkpt><trkpt lat="45.715028253084476" lon="9.318534603186581"><ele>378.0</ele><time>2026-04-12T06:11:07Z</time></trkpt><trkpt lat="45.715152513243424" lon="9.318524168383913"><ele>377.5</ele><time>2026-04-12T06:11:08Z</time></trkpt><trkpt lat="45.71527872770607" lon="9.3185131322741"><ele>377.0</ele><time>2026-04-12T06:11:09Z</time></trkpt><trkpt lat="45.715401863367724" lon="9.318504931064723"><ele>376.5</ele><time>2026-04-12T06:11:10Z</time></trkpt><trkpt lat="45.71553707917862" lon="9.318494816867997"><ele>376.0</ele><time>2026-04-12T06:11:11Z</time></trkpt><trkpt lat="45.7156747692982" lon="9.318487542472154"><ele>376.0</ele><time>2026-04-12T06:11:12Z</time></trkpt><trkpt lat="45.715814264206" lon="9.318480874805083"><ele>376.0</ele><time>2026-04-12T06:11:13Z</time></trkpt><trkpt lat="45.715949140026304" lon="9.31847566633066"><ele>376.0</ele><time>2026-04-12T06:11:14Z</time></trkpt><trkpt lat="45.71608862508948" lon="9.318465181254727"><ele>376.0</ele><time>2026-04-12T06:11:15Z</time></trkpt><trkpt lat="45.71622985070379" lon="9.318455281661695"><ele>375.75</ele><time>2026-04-12T06:11:16Z</time></trkpt><trkpt lat="45.716367566792904" lon="9.318450325460411"><ele>375.5</ele><time>2026-04-12T06:11:17Z</time></trkpt><trkpt lat="45.71650757989021" lon="9.318442144607571"><ele>375.25</ele><time>2026-04-12T06:11:18Z</time></trkpt><trkpt lat="45.7166438866127" lon="9.318437557642401"><ele>375.0</ele><time>2026-04-12T06:11:19Z</time></trkpt><trkpt lat="45.71677356766044" lon="9.318437119753687"><ele>375.0</ele><time>2026-04-12T06:11:20Z</time></trkpt><trkpt lat="45.71688929736928" lon="9.318438737710862"><ele>375.0</ele><time>2026-04-12T06:11:21Z</time></trkpt><trkpt lat="45.7169990518914" lon="9.318442511733974"><ele>375.0</ele><time>2026-04-12T06:11:22Z</time></trkpt><trkpt lat="45.7170984597292" lon="9.318449361904872"><ele>375.0</ele><time>2026-04-12T06:11:23Z</time></trkpt><trkpt lat="45.717187553227625" lon="9.318474234420654"><ele>375.0</ele><time>2026-04-12T06:11:24Z</time></trkpt><trkpt lat="45.717248938894784" lon="9.318515517889812"><ele>374.6</ele><time>2026-04-12T06:11:25Z</time></trkpt><trkpt lat="45.71736169071606" lon="9.318589775583781"><ele>374.2</ele><time>2026-04-12T06:11:27Z</time></trkpt><trkpt lat="45.71743671058905" lon="9.318581611598265"><ele>373.79999999999995</ele><time>2026-04-12T06:11:28Z</time></trkpt><trkpt lat="45.71749525944279" lon="9.318459819711256"><ele>373.4</ele><time>2026-04-12T06:11:29Z</time></trkpt><trkpt lat="45.71755086324816" lon="9.318411964664344"><ele>373.0</ele><time>2026-04-12T06:11:30Z</time></trkpt><trkpt lat="45.71759657687417" lon="9.318310771432659"><ele>373.0</ele><time>2026-04-12T06:11:31Z</time></trkpt><trkpt lat="45.717661598788396" lon="9.31822035611108"><ele>373.0</ele><time>2026-04-12T06:11:32Z</time></trkpt><trkpt lat="45.71773792881171" lon="9.318135514715122"><ele>373.0</ele><time>2026-04-12T06:11:33Z</time></trkpt><trkpt lat="45.717827099918146" lon="9.318045273379578"><ele>373.0</ele><time>2026-04-12T06:11:34Z</time></trkpt><trkpt lat="45.7179242913474" lon="9.317954580402278"><ele>373.0</ele><time>2026-04-12T06:11:35Z</time></trkpt><trkpt lat="45.718021752982956" lon="9.317866455172675"><ele>374.25</ele><time>2026-04-12T06:11:36Z</time></trkpt><trkpt lat="45.7181228169389" lon="9.317784746591748"><ele>375.5</ele><time>2026-04-12T06:11:37Z</time></trkpt><trkpt lat="45.718230803421434" lon="9.317717761716164"><ele>376.75</ele><time>2026-04-12T06:11:38Z</time></trkpt><trkpt lat="45.71833999152967" lon="9.31766334238291"><ele>378.0</ele><time>2026-04-12T06:11:39Z</time></trkpt><trkpt lat="45.71845677807463" lon="9.317616464238421"><ele>378.25</ele><time>2026-04-12T06:11:40Z</time></trkpt><trkpt lat="45.71857564857728" lon="9.317584327778537"><ele>378.5</ele><time>2026-04-12T06:11:41Z</time></trkpt><trkpt lat="45.71869760068482" lon="9.317574516251453"><ele>378.75</ele><time>2026-04-12T06:11:42Z</time></trkpt><trkpt lat="45.718821888389265" lon="9.317574370538093"><ele>379.0</ele><time>2026-04-12T06:11:43Z</time></trkpt><trkpt lat="45.718944959630484" lon="9.31757810441347"><ele>379.0</ele><time>2026-04-12T06:11:44Z</time></trkpt><trkpt lat="45.71905871300783" lon="9.317571003443089"><ele>379.0</ele><time>2026-04-12T06:11:45Z</time></trkpt><trkpt lat="45.719154272652126" lon="9.317561624184432"><ele>379.0</ele><time>2026-04-12T06:11:46Z</time></trkpt><trkpt lat="45.719231661721416" lon="9.317551328819638"><ele>379.0</ele><time>2026-04-12T06:11:47Z</time></trkpt><trkpt lat="45.7193128153048" lon="9.317543805057289"><ele>379.0</ele><time>2026-04-12T06:11:48Z</time></trkpt><trkpt lat="45.719408142166" lon="9.317523833433764"><ele>379.0</ele><time>2026-04-12T06:11:49Z</time></trkpt><trkpt lat="45.71951566620115" lon="9.317504040824947"><ele>379.0</ele><time>2026-04-12T06:11:50Z</time></trkpt><trkpt lat="45.71963333771025" lon="9.3174754435832"><ele>379.0</ele><time>2026-04-12T06:11:51Z</time></trkpt><trkpt lat="45.71975520874426" lon="9.317439396493391"><ele>379.0</ele><time>2026-04-12T06:11:52Z</time></trkpt><trkpt lat="45.719890474762764" lon="9.317395937729701"><ele>379.0</ele><time>2026-04-12T06:11:53Z</time></trkpt><trkpt lat="45.72003095304738" lon="9.317352884656088"><ele>379.0</ele><time>2026-04-12T06:11:54Z</time></trkpt><trkpt lat="45.720177420904726" lon="9.317308206719337"><ele>379.0</ele><time>2026-04-12T06:11:55Z</time></trkpt><trkpt lat="45.720326869469794" lon="9.31726033369244"><ele>379.0</ele><time>2026-04-12T06:11:56Z</time></trkpt><trkpt lat="45.72047913940763" lon="9.317210867606587"><ele>374.3333333333333</ele><time>2026-04-12T06:11:57Z</time></trkpt><trkpt lat="45.72063306796925" lon="9.317162387357167"><ele>369.6666666666667</ele><time>2026-04-12T06:11:58Z</time></trkpt><trkpt lat="45.72078717632017" lon="9.31711444218386"><ele>365.0</ele><time>2026-04-12T06:11:59Z</time></trkpt><trkpt lat="45.72094345514763" lon="9.31706919276531"><ele>364.33333333333337</ele><time>2026-04-12T06:12:00Z</time></trkpt><trkpt lat="45.72109955441206" lon="9.317020812979008"><ele>363.6666666666667</ele><time>2026-04-12T06:12:01Z</time></trkpt><trkpt lat="45.72125651231923" lon="9.316975551534318"><ele>363.0</ele><time>2026-04-12T06:12:02Z</time></trkpt><trkpt lat="45.72141301681118" lon="9.316931480599788"><ele>363.0</ele><time>2026-04-12T06:12:03Z</time></trkpt><trkpt lat="45.72157334309187" lon="9.316890896716947"><ele>363.0</ele><time>2026-04-12T06:12:04Z</time></trkpt><trkpt lat="45.72173279200895" lon="9.316858661833061"><ele>363.0</ele><time>2026-04-12T06:12:05Z</time></trkpt><trkpt lat="45.72190708301356" lon="9.31683010836166"><ele>363.3333333333333</ele><time>2026-04-12T06:12:06Z</time></trkpt><trkpt lat="45.72207982341685" lon="9.316807582021656"><ele>363.66666666666663</ele><time>2026-04-12T06:12:07Z</time></trkpt><trkpt lat="45.722255537780164" lon="9.316793478811103"><ele>364.0</ele><time>2026-04-12T06:12:08Z</time></trkpt><trkpt lat="45.72243055698803" lon="9.316790507935528"><ele>364.0</ele><time>2026-04-12T06:12:09Z</time></trkpt><trkpt lat="45.72260361907746" lon="9.316798661360187"><ele>364.0</ele><time>2026-04-12T06:12:10Z</time></trkpt><trkpt lat="45.72278322477614" lon="9.316814927021678"><ele>364.0</ele><time>2026-04-12T06:12:11Z</time></trkpt><trkpt lat="45.72295628461102" lon="9.316837490982854"><ele>365.0</ele><time>2026-04-12T06:12:12Z</time></trkpt><trkpt lat="45.72312845527591" lon="9.316858984573635"><ele>366.0</ele><time>2026-04-12T06:12:13Z</time></trkpt><trkpt lat="45.72330090282002" lon="9.316878761102425"><ele>367.0</ele><time>2026-04-12T06:12:14Z</time></trkpt><trkpt lat="45.72347424715722" lon="9.316897137493756"><ele>365.66666666666663</ele><time>2026-04-12T06:12:15Z</time></trkpt><trkpt lat="45.723641451503525" lon="9.316918479799314"><ele>364.3333333333333</ele><time>2026-04-12T06:12:16Z</time></trkpt><trkpt lat="45.72380815882547" lon="9.316938049724028"><ele>363.0</ele><time>2026-04-12T06:12:17Z</time></trkpt><trkpt lat="45.72397317110335" lon="9.316959916450164"><ele>363.0</ele><time>2026-04-12T06:12:17.999Z</time></trkpt><trkpt lat="45.724137516612764" lon="9.316986997430135"><ele>363.0</ele><time>2026-04-12T06:12:18.999Z</time></trkpt><trkpt lat="45.72429966632384" lon="9.317013836025632"><ele>363.0</ele><time>2026-04-12T06:12:19.999Z</time></trkpt><trkpt lat="45.72446621126098" lon="9.317036499604583"><ele>364.6666666666667</ele><time>2026-04-12T06:12:20.999Z</time></trkpt><trkpt lat="45.72463228581812" lon="9.317054409195645"><ele>366.33333333333337</ele><time>2026-04-12T06:12:21.999Z</time></trkpt><trkpt lat="45.724800931597336" lon="9.317059133858962"><ele>368.0</ele><time>2026-04-12T06:12:22.999Z</time></trkpt><trkpt lat="45.72496591282188" lon="9.317034756965604"><ele>368.0</ele><time>2026-04-12T06:12:23.999Z</time></trkpt><trkpt lat="45.7251175613059" lon="9.31699033160567"><ele>368.0</ele><time>2026-04-12T06:12:24.999Z</time></trkpt><trkpt lat="45.72525711018407" lon="9.316942468366896"><ele>368.0</ele><time>2026-04-12T06:12:25.999Z</time></trkpt><trkpt lat="45.72538113848023" lon="9.316889122657436"><ele>368.0</ele><time>2026-04-12T06:12:26.999Z</time></trkpt><trkpt lat="45.72549859364235" lon="9.316838199875953"><ele>369.25</ele><time>2026-04-12T06:12:27.999Z</time></trkpt><trkpt lat="45.72561985425926" lon="9.316787599417296"><ele>370.5</ele><time>2026-04-12T06:12:28.999Z</time></trkpt><trkpt lat="45.72574489139477" lon="9.316733548892087"><ele>371.75</ele><time>2026-04-12T06:12:29.999Z</time></trkpt><trkpt lat="45.7258675234925" lon="9.316677140703622"><ele>373.0</ele><time>2026-04-12T06:12:30.999Z</time></trkpt><trkpt lat="45.725994426642806" lon="9.316618531523188"><ele>371.75</ele><time>2026-04-12T06:12:31.999Z</time></trkpt><trkpt lat="45.72612193531474" lon="9.316558094465357"><ele>370.5</ele><time>2026-04-12T06:12:32.999Z</time></trkpt><trkpt lat="45.72625346713971" lon="9.31649714324604"><ele>369.25</ele><time>2026-04-12T06:12:33.999Z</time></trkpt><trkpt lat="45.726386611117604" lon="9.316440796230694"><ele>368.0</ele><time>2026-04-12T06:12:34.999Z</time></trkpt><trkpt lat="45.72652823771368" lon="9.316399692826414"><ele>368.0</ele><time>2026-04-12T06:12:35.999Z</time></trkpt><trkpt lat="45.72667119025223" lon="9.316368879674583"><ele>368.0</ele><time>2026-04-12T06:12:36.999Z</time></trkpt><trkpt lat="45.7268186888201" lon="9.316345743083199"><ele>368.0</ele><time>2026-04-12T06:12:37.999Z</time></trkpt><trkpt lat="45.72696864358962" lon="9.316330252241249"><ele>368.0</ele><time>2026-04-12T06:12:38.999Z</time></trkpt><trkpt lat="45.72711849222124" lon="9.316319636686401"><ele>368.6666666666667</ele><time>2026-04-12T06:12:39.999Z</time></trkpt><trkpt lat="45.72726606150927" lon="9.316317155534096"><ele>369.3333333333333</ele><time>2026-04-12T06:12:40.999Z</time></trkpt><trkpt lat="45.72741585791539" lon="9.31632894381935"><ele>370.0</ele><time>2026-04-12T06:12:41.999Z</time></trkpt><trkpt lat="45.72756514033924" lon="9.31639505752552"><ele>373.0</ele><time>2026-04-12T06:12:42.999Z</time></trkpt><trkpt lat="45.727718346550674" lon="9.316409795052015"><ele>376.0</ele><time>2026-04-12T06:12:43.999Z</time></trkpt><trkpt lat="45.727867696848364" lon="9.316471553683447"><ele>379.0</ele><time>2026-04-12T06:12:44.999Z</time></trkpt><trkpt lat="45.72801603873712" lon="9.316539822620518"><ele>379.0</ele><time>2026-04-12T06:12:45.999Z</time></trkpt><trkpt lat="45.728170123925786" lon="9.316614842194861"><ele>379.0</ele><time>2026-04-12T06:12:46.999Z</time></trkpt><trkpt lat="45.72835061653946" lon="9.316419005516487"><ele>379.0</ele><time>2026-04-12T06:12:47.999Z</time></trkpt><trkpt lat="45.728566661829866" lon="9.316880799626832"><ele>377.75</ele><time>2026-04-12T06:12:49.999Z</time></trkpt><trkpt lat="45.728690803398266" lon="9.31696755185906"><ele>376.5</ele><time>2026-04-12T06:12:50.999Z</time></trkpt><trkpt lat="45.72880005284947" lon="9.31704335416164"><ele>375.25</ele><time>2026-04-12T06:12:51.999Z</time></trkpt><trkpt lat="45.72890027679808" lon="9.317117211745561"><ele>374.0</ele><time>2026-04-12T06:12:52.999Z</time></trkpt><trkpt lat="45.72899828935103" lon="9.317188478705607"><ele>375.75</ele><time>2026-04-12T06:12:53.999Z</time></trkpt><trkpt lat="45.72910329130573" lon="9.317262066652498"><ele>377.5</ele><time>2026-04-12T06:12:55Z</time></trkpt><trkpt lat="45.72921094006995" lon="9.317340696241502"><ele>379.25</ele><time>2026-04-12T06:12:56Z</time></trkpt><trkpt lat="45.7293283632544" lon="9.317420607908408"><ele>381.0</ele><time>2026-04-12T06:12:57Z</time></trkpt><trkpt lat="45.72945115216828" lon="9.31750512451086"><ele>381.0</ele><time>2026-04-12T06:12:58Z</time></trkpt><trkpt lat="45.72957320256328" lon="9.317587927526223"><ele>381.0</ele><time>2026-04-12T06:12:59Z</time></trkpt><trkpt lat="45.72969960477338" lon="9.317674171159863"><ele>381.0</ele><time>2026-04-12T06:13:00Z</time></trkpt><trkpt lat="45.72982196414377" lon="9.317763361366922"><ele>381.0</ele><time>2026-04-12T06:13:01Z</time></trkpt><trkpt lat="45.72994552391309" lon="9.31785208144105"><ele>381.0</ele><time>2026-04-12T06:13:02Z</time></trkpt><trkpt lat="45.730064917844004" lon="9.317937878991572"><ele>381.0</ele><time>2026-04-12T06:13:03Z</time></trkpt><trkpt lat="45.73018947416978" lon="9.31801377287068"><ele>381.0</ele><time>2026-04-12T06:13:04Z</time></trkpt><trkpt lat="45.730328398619825" lon="9.318056687692136"><ele>381.0</ele><time>2026-04-12T06:13:05Z</time></trkpt><trkpt lat="45.73046288143873" lon="9.318059078023252"><ele>382.0</ele><time>2026-04-12T06:13:06Z</time></trkpt><trkpt lat="45.73060395419108" lon="9.31802306298411"><ele>383.0</ele><time>2026-04-12T06:13:07Z</time></trkpt><trkpt lat="45.730731465873745" lon="9.31794331771473"><ele>384.0</ele><time>2026-04-12T06:13:08Z</time></trkpt><trkpt lat="45.73084270495325" lon="9.317819238371106"><ele>385.0</ele><time>2026-04-12T06:13:09Z</time></trkpt><trkpt lat="45.730944519630334" lon="9.317664890986809"><ele>385.0</ele><time>2026-04-12T06:13:10Z</time></trkpt><trkpt lat="45.73103900896186" lon="9.317501088084422"><ele>385.0</ele><time>2026-04-12T06:13:11Z</time></trkpt><trkpt lat="45.7311401400606" lon="9.317344371263788"><ele>385.0</ele><time>2026-04-12T06:13:12Z</time></trkpt><trkpt lat="45.731246436609794" lon="9.317194928273844"><ele>385.0</ele><time>2026-04-12T06:13:13Z</time></trkpt><trkpt lat="45.73135562316984" lon="9.317055650228648"><ele>385.33333333333337</ele><time>2026-04-12T06:13:14Z</time></trkpt><trkpt lat="45.73147747407871" lon="9.316920428855592"><ele>385.66666666666663</ele><time>2026-04-12T06:13:15Z</time></trkpt><trkpt lat="45.73160170227613" lon="9.31679805706896"><ele>386.0</ele><time>2026-04-12T06:13:16Z</time></trkpt><trkpt lat="45.73174140365865" lon="9.316660915222698"><ele>386.0</ele><time>2026-04-12T06:13:17Z</time></trkpt><trkpt lat="45.731862397703956" lon="9.316510394483592"><ele>386.0</ele><time>2026-04-12T06:13:18Z</time></trkpt><trkpt lat="45.73198006605355" lon="9.316373130975995"><ele>386.0</ele><time>2026-04-12T06:13:19Z</time></trkpt><trkpt lat="45.73209568469381" lon="9.316239317798813"><ele>385.5</ele><time>2026-04-12T06:13:20Z</time></trkpt><trkpt lat="45.73221447391929" lon="9.316113377225157"><ele>385.0</ele><time>2026-04-12T06:13:21Z</time></trkpt><trkpt lat="45.73233406065342" lon="9.316013558927391"><ele>384.5</ele><time>2026-04-12T06:13:22Z</time></trkpt><trkpt lat="45.732463208492234" lon="9.315940394434733"><ele>384.0</ele><time>2026-04-12T06:13:23Z</time></trkpt><trkpt lat="45.73260380549407" lon="9.315902596017258"><ele>383.3333333333333</ele><time>2026-04-12T06:13:24Z</time></trkpt><trkpt lat="45.732756124376465" lon="9.315904123351299"><ele>382.66666666666663</ele><time>2026-04-12T06:13:25Z</time></trkpt><trkpt lat="45.73290467413055" lon="9.315949587448904"><ele>382.0</ele><time>2026-04-12T06:13:26Z</time></trkpt><trkpt lat="45.7330429176372" lon="9.316039644803562"><ele>382.0</ele><time>2026-04-12T06:13:27Z</time></trkpt><trkpt lat="45.73317334161569" lon="9.316159944333302"><ele>382.0</ele><time>2026-04-12T06:13:28Z</time></trkpt><trkpt lat="45.73330097226679" lon="9.316297995954212"><ele>382.0</ele><time>2026-04-12T06:13:29Z</time></trkpt><trkpt lat="45.73343312209702" lon="9.31643524174679"><ele>382.66666666666663</ele><time>2026-04-12T06:13:30Z</time></trkpt><trkpt lat="45.733566008434785" lon="9.316574821424467"><ele>383.3333333333333</ele><time>2026-04-12T06:13:31Z</time></trkpt><trkpt lat="45.73370093752798" lon="9.316713176408072"><ele>384.0</ele><time>2026-04-12T06:13:32Z</time></trkpt><trkpt lat="45.733831935297566" lon="9.316846244101079"><ele>384.0</ele><time>2026-04-12T06:13:33Z</time></trkpt><trkpt lat="45.73395488956087" lon="9.317004136432962"><ele>384.0</ele><time>2026-04-12T06:13:34Z</time></trkpt><trkpt lat="45.73407438177121" lon="9.31715085065799"><ele>384.0</ele><time>2026-04-12T06:13:35Z</time></trkpt><trkpt lat="45.73418047433461" lon="9.317315073590741"><ele>383.25</ele><time>2026-04-12T06:13:36Z</time></trkpt><trkpt lat="45.734270123149415" lon="9.317484024676412"><ele>382.5</ele><time>2026-04-12T06:13:37Z</time></trkpt><trkpt lat="45.734349137601455" lon="9.317660934556047"><ele>381.75</ele><time>2026-04-12T06:13:38Z</time></trkpt><trkpt lat="45.73443812505709" lon="9.317831665603006"><ele>381.0</ele><time>2026-04-12T06:13:39Z</time></trkpt><trkpt lat="45.734488179001026" lon="9.31801231168644"><ele>381.25</ele><time>2026-04-12T06:13:40Z</time></trkpt><trkpt lat="45.73455625937815" lon="9.318175321157428"><ele>381.5</ele><time>2026-04-12T06:13:41Z</time></trkpt><trkpt lat="45.73461812647357" lon="9.318312664340322"><ele>381.75</ele><time>2026-04-12T06:13:42Z</time></trkpt><trkpt lat="45.73467325551079" lon="9.318439036996676"><ele>382.0</ele><time>2026-04-12T06:13:43Z</time></trkpt><trkpt lat="45.73473226430334" lon="9.318556687377999"><ele>382.0</ele><time>2026-04-12T06:13:44Z</time></trkpt><trkpt lat="45.73479433980368" lon="9.318651512546843"><ele>382.0</ele><time>2026-04-12T06:13:45Z</time></trkpt><trkpt lat="45.73486775918345" lon="9.318733084189343"><ele>382.0</ele><time>2026-04-12T06:13:46Z</time></trkpt><trkpt lat="45.73495341763635" lon="9.318800302739907"><ele>382.0</ele><time>2026-04-12T06:13:47Z</time></trkpt><trkpt lat="45.73505463659088" lon="9.31885227913717"><ele>382.0</ele><time>2026-04-12T06:13:48Z</time></trkpt><trkpt lat="45.73517031588767" lon="9.318888525939663"><ele>382.5</ele><time>2026-04-12T06:13:49Z</time></trkpt><trkpt lat="45.73528897526966" lon="9.318918367021071"><ele>383.0</ele><time>2026-04-12T06:13:50Z</time></trkpt><trkpt lat="45.73541258666083" lon="9.318950036464777"><ele>383.5</ele><time>2026-04-12T06:13:51Z</time></trkpt><trkpt lat="45.735545650013506" lon="9.318986141404583"><ele>384.0</ele><time>2026-04-12T06:13:52Z</time></trkpt><trkpt lat="45.73568315562754" lon="9.319019448881683"><ele>384.0</ele><time>2026-04-12T06:13:53Z</time></trkpt><trkpt lat="45.73582214582606" lon="9.319052012768383"><ele>384.0</ele><time>2026-04-12T06:13:54Z</time></trkpt><trkpt lat="45.735963425150274" lon="9.319087429089054"><ele>384.0</ele><time>2026-04-12T06:13:55Z</time></trkpt><trkpt lat="45.736106302360284" lon="9.319130088590956"><ele>384.0</ele><time>2026-04-12T06:13:56Z</time></trkpt><trkpt lat="45.7362458644201" lon="9.319189074245568"><ele>381.0</ele><time>2026-04-12T06:13:57Z</time></trkpt><trkpt lat="45.736382945947845" lon="9.319278089234484"><ele>378.0</ele><time>2026-04-12T06:13:58Z</time></trkpt><trkpt lat="45.73651886893861" lon="9.319384291658327"><ele>375.0</ele><time>2026-04-12T06:13:59Z</time></trkpt><trkpt lat="45.7366728655583" lon="9.319497503350187"><ele>375.0</ele><time>2026-04-12T06:14:00Z</time></trkpt><trkpt lat="45.736821901734466" lon="9.319602403925582"><ele>375.0</ele><time>2026-04-12T06:14:01Z</time></trkpt><trkpt lat="45.73697665794563" lon="9.319711026092257"><ele>375.0</ele><time>2026-04-12T06:14:02Z</time></trkpt><trkpt lat="45.73713129506243" lon="9.31982432698092"><ele>377.3333333333333</ele><time>2026-04-12T06:14:03Z</time></trkpt><trkpt lat="45.73728527941601" lon="9.319935681267664"><ele>379.66666666666663</ele><time>2026-04-12T06:14:04Z</time></trkpt><trkpt lat="45.73744134196597" lon="9.320047596923335"><ele>382.0</ele><time>2026-04-12T06:14:05Z</time></trkpt><trkpt lat="45.73759900572216" lon="9.32015881782816"><ele>378.66666666666663</ele><time>2026-04-12T06:14:06Z</time></trkpt><trkpt lat="45.73774964081716" lon="9.320268045383491"><ele>375.3333333333333</ele><time>2026-04-12T06:14:07Z</time></trkpt><trkpt lat="45.737902932694034" lon="9.320379349973901"><ele>372.0</ele><time>2026-04-12T06:14:08Z</time></trkpt><trkpt lat="45.73805576484732" lon="9.320488738903112"><ele>375.3333333333333</ele><time>2026-04-12T06:14:09Z</time></trkpt><trkpt lat="45.73820782319714" lon="9.320586587794047"><ele>378.66666666666663</ele><time>2026-04-12T06:14:10Z</time></trkpt><trkpt lat="45.73836729447219" lon="9.320664536603148"><ele>382.0</ele><time>2026-04-12T06:14:11Z</time></trkpt><trkpt lat="45.73853458493806" lon="9.320727723513524"><ele>379.66666666666663</ele><time>2026-04-12T06:14:12Z</time></trkpt><trkpt lat="45.738700743919445" lon="9.320756165072106"><ele>377.3333333333333</ele><time>2026-04-12T06:14:13Z</time></trkpt><trkpt lat="45.7388623318411" lon="9.320761401811911"><ele>375.0</ele><time>2026-04-12T06:14:14Z</time></trkpt><trkpt lat="45.73902871860344" lon="9.320738327985936"><ele>375.0</ele><time>2026-04-12T06:14:15Z</time></trkpt><trkpt lat="45.739188775731144" lon="9.320699986759115"><ele>375.0</ele><time>2026-04-12T06:14:16Z</time></trkpt><trkpt lat="45.73934746596083" lon="9.320657381132314"><ele>375.0</ele><time>2026-04-12T06:14:17Z</time></trkpt><trkpt lat="45.739499062765525" lon="9.320620846137189"><ele>374.6</ele><time>2026-04-12T06:14:18Z</time></trkpt><trkpt lat="45.73963410002204" lon="9.320586943766141"><ele>374.2</ele><time>2026-04-12T06:14:19Z</time></trkpt><trkpt lat="45.739755358394255" lon="9.320555870629967"><ele>373.79999999999995</ele><time>2026-04-12T06:14:20Z</time></trkpt><trkpt lat="45.739855687508545" lon="9.320530274097692"><ele>373.4</ele><time>2026-04-12T06:14:21Z</time></trkpt><trkpt lat="45.739936273699385" lon="9.320515617695143"><ele>373.0</ele><time>2026-04-12T06:14:22Z</time></trkpt><trkpt lat="45.740007896079454" lon="9.320520581862104"><ele>373.0</ele><time>2026-04-12T06:14:23Z</time></trkpt><trkpt lat="45.74008462566379" lon="9.320548794644253"><ele>373.0</ele><time>2026-04-12T06:14:24Z</time></trkpt><trkpt lat="45.74016944393239" lon="9.32056802327113"><ele>373.0</ele><time>2026-04-12T06:14:25Z</time></trkpt><trkpt lat="45.74026351583652" lon="9.320550613196668"><ele>373.0</ele><time>2026-04-12T06:14:26Z</time></trkpt><trkpt lat="45.74036041977953" lon="9.32051186501202"><ele>373.0</ele><time>2026-04-12T06:14:27Z</time></trkpt><trkpt lat="45.740469547232536" lon="9.32050466702705"><ele>371.75</ele><time>2026-04-12T06:14:28Z</time></trkpt><trkpt lat="45.7405910652189" lon="9.320514885496863"><ele>370.5</ele><time>2026-04-12T06:14:29Z</time></trkpt><trkpt lat="45.740709228416975" lon="9.320531834420947"><ele>369.25</ele><time>2026-04-12T06:14:30Z</time></trkpt><trkpt lat="45.74082956481811" lon="9.320547083596185"><ele>368.0</ele><time>2026-04-12T06:14:31Z</time></trkpt><trkpt lat="45.74095675394218" lon="9.320563729395445"><ele>368.25</ele><time>2026-04-12T06:14:32Z</time></trkpt><trkpt lat="45.74108497634317" lon="9.320579906625891"><ele>368.5</ele><time>2026-04-12T06:14:33Z</time></trkpt><trkpt lat="45.74121695751952" lon="9.320595577852725"><ele>368.75</ele><time>2026-04-12T06:14:34Z</time></trkpt><trkpt lat="45.74135191216691" lon="9.32061245895538"><ele>369.0</ele><time>2026-04-12T06:14:35Z</time></trkpt><trkpt lat="45.74149600378221" lon="9.320625115133831"><ele>369.0</ele><time>2026-04-12T06:14:35.999Z</time></trkpt><trkpt lat="45.74164122945216" lon="9.320642924889407"><ele>369.0</ele><time>2026-04-12T06:14:36.999Z</time></trkpt><trkpt lat="45.74178890089113" lon="9.320662578497528"><ele>369.0</ele><time>2026-04-12T06:14:37.999Z</time></trkpt><trkpt lat="45.74193686564924" lon="9.32068069626378"><ele>369.0</ele><time>2026-04-12T06:14:38.999Z</time></trkpt><trkpt lat="45.74208494043008" lon="9.320695682551863"><ele>369.25</ele><time>2026-04-12T06:14:39.999Z</time></trkpt><trkpt lat="45.742228639263395" lon="9.320716481250566"><ele>369.5</ele><time>2026-04-12T06:14:40.999Z</time></trkpt><trkpt lat="45.74236858316233" lon="9.32073459335952"><ele>369.75</ele><time>2026-04-12T06:14:41.999Z</time></trkpt><trkpt lat="45.74249325159835" lon="9.32075402610095"><ele>370.0</ele><time>2026-04-12T06:14:42.999Z</time></trkpt><trkpt lat="45.74259335791007" lon="9.320779633574366"><ele>370.0</ele><time>2026-04-12T06:14:43.999Z</time></trkpt><trkpt lat="45.74267553453524" lon="9.320811088612631"><ele>370.0</ele><time>2026-04-12T06:14:44.999Z</time></trkpt><trkpt lat="45.74275553339907" lon="9.320849017231023"><ele>370.0</ele><time>2026-04-12T06:14:45.999Z</time></trkpt><trkpt lat="45.74283972770404" lon="9.320903426903465"><ele>370.0</ele><time>2026-04-12T06:14:46.999Z</time></trkpt><trkpt lat="45.742919911801955" lon="9.320974749987888"><ele>370.0</ele><time>2026-04-12T06:14:47.999Z</time></trkpt><trkpt lat="45.74302433245593" lon="9.32100937067828"><ele>369.75</ele><time>2026-04-12T06:14:48.999Z</time></trkpt><trkpt lat="45.74311415395504" lon="9.32108507586804"><ele>369.5</ele><time>2026-04-12T06:14:49.999Z</time></trkpt><trkpt lat="45.743208748445795" lon="9.321195189615317"><ele>369.25</ele><time>2026-04-12T06:14:50.999Z</time></trkpt><trkpt lat="45.743296989578845" lon="9.321327667778073"><ele>369.0</ele><time>2026-04-12T06:14:51.999Z</time></trkpt><trkpt lat="45.74337811543056" lon="9.321473096872143"><ele>369.75</ele><time>2026-04-12T06:14:52.999Z</time></trkpt><trkpt lat="45.743460477663774" lon="9.32162955956812"><ele>370.5</ele><time>2026-04-12T06:14:53.999Z</time></trkpt><trkpt lat="45.743543772181866" lon="9.321786961860678"><ele>371.25</ele><time>2026-04-12T06:14:54.999Z</time></trkpt><trkpt lat="45.74362765977972" lon="9.32193907874803"><ele>372.0</ele><time>2026-04-12T06:14:55.999Z</time></trkpt><trkpt lat="45.74371424631203" lon="9.322086945614412"><ele>372.0</ele><time>2026-04-12T06:14:56.999Z</time></trkpt><trkpt lat="45.74380978805079" lon="9.32222530625725"><ele>372.0</ele><time>2026-04-12T06:14:57.999Z</time></trkpt><trkpt lat="45.74391150863906" lon="9.322349012772596"><ele>372.0</ele><time>2026-04-12T06:14:58.999Z</time></trkpt><trkpt lat="45.744023747036884" lon="9.322465901073182"><ele>372.0</ele><time>2026-04-12T06:14:59.999Z</time></trkpt><trkpt lat="45.74414574921205" lon="9.322573257779109"><ele>373.75</ele><time>2026-04-12T06:15:01Z</time></trkpt><trkpt lat="45.7442710412984" lon="9.322674739649575"><ele>375.5</ele><time>2026-04-12T06:15:02Z</time></trkpt><trkpt lat="45.74440580176575" lon="9.322773701981923"><ele>377.25</ele><time>2026-04-12T06:15:03Z</time></trkpt><trkpt lat="45.74453999247026" lon="9.322869921148422"><ele>379.0</ele><time>2026-04-12T06:15:04Z</time></trkpt><trkpt lat="45.744673783447205" lon="9.322974487360272"><ele>380.3333333333333</ele><time>2026-04-12T06:15:05Z</time></trkpt><trkpt lat="45.74480259707974" lon="9.323091753328569"><ele>381.6666666666667</ele><time>2026-04-12T06:15:06Z</time></trkpt><trkpt lat="45.744925998411546" lon="9.323215476266967"><ele>383.0</ele><time>2026-04-12T06:15:07Z</time></trkpt><trkpt lat="45.745047157422995" lon="9.323356009169228"><ele>383.0</ele><time>2026-04-12T06:15:08Z</time></trkpt><trkpt lat="45.745163690632154" lon="9.323502568836057"><ele>383.0</ele><time>2026-04-12T06:15:09Z</time></trkpt><trkpt lat="45.74527823167471" lon="9.323655065448728"><ele>383.0</ele><time>2026-04-12T06:15:10Z</time></trkpt><trkpt lat="45.745389733118294" lon="9.323813995827678"><ele>379.75</ele><time>2026-04-12T06:15:11Z</time></trkpt><trkpt lat="45.745502201237514" lon="9.32396904566779"><ele>376.5</ele><time>2026-04-12T06:15:12Z</time></trkpt><trkpt lat="45.74561203065779" lon="9.324115069039559"><ele>373.25</ele><time>2026-04-12T06:15:13Z</time></trkpt><trkpt lat="45.74570925661314" lon="9.324249644196492"><ele>370.0</ele><time>2026-04-12T06:15:14Z</time></trkpt><trkpt lat="45.74580099186294" lon="9.324371945198704"><ele>370.0</ele><time>2026-04-12T06:15:15Z</time></trkpt><trkpt lat="45.74588449625184" lon="9.324482690039314"><ele>370.0</ele><time>2026-04-12T06:15:16Z</time></trkpt><trkpt lat="45.74595878024987" lon="9.324583094898742"><ele>370.0</ele><time>2026-04-12T06:15:17Z</time></trkpt><trkpt lat="45.74601674242251" lon="9.324702587785138"><ele>370.0</ele><time>2026-04-12T06:15:18Z</time></trkpt><trkpt lat="45.74605246090834" lon="9.324845342578081"><ele>370.0</ele><time>2026-04-12T06:15:19Z</time></trkpt><trkpt lat="45.74606366837462" lon="9.325001042945205"><ele>370.8</ele><time>2026-04-12T06:15:20Z</time></trkpt><trkpt lat="45.746023851233225" lon="9.325140366855686"><ele>371.6</ele><time>2026-04-12T06:15:21Z</time></trkpt><trkpt lat="45.74597093712194" lon="9.325289803414934"><ele>372.4</ele><time>2026-04-12T06:15:22Z</time></trkpt><trkpt lat="45.745951346572255" lon="9.325444559519317"><ele>373.2</ele><time>2026-04-12T06:15:23Z</time></trkpt><trkpt lat="45.745969050000724" lon="9.325596698992108"><ele>374.0</ele><time>2026-04-12T06:15:24Z</time></trkpt><trkpt lat="45.74603983434827" lon="9.32573012760593"><ele>374.75</ele><time>2026-04-12T06:15:25Z</time></trkpt><trkpt lat="45.74610559164102" lon="9.325849971837973"><ele>375.5</ele><time>2026-04-12T06:15:26Z</time></trkpt><trkpt lat="45.74618757299822" lon="9.325979402397472"><ele>376.25</ele><time>2026-04-12T06:15:27Z</time></trkpt><trkpt lat="45.746268500307494" lon="9.326110981932079"><ele>377.0</ele><time>2026-04-12T06:15:28Z</time></trkpt><trkpt lat="45.746338130795515" lon="9.326258306560721"><ele>376.5</ele><time>2026-04-12T06:15:29Z</time></trkpt><trkpt lat="45.746424737947" lon="9.326406317377051"><ele>376.0</ele><time>2026-04-12T06:15:30Z</time></trkpt><trkpt lat="45.746516070527875" lon="9.326563987460858"><ele>375.5</ele><time>2026-04-12T06:15:31Z</time></trkpt><trkpt lat="45.74661361507217" lon="9.32672852164854"><ele>375.0</ele><time>2026-04-12T06:15:32Z</time></trkpt><trkpt lat="45.74671608159361" lon="9.32689413675696"><ele>375.0</ele><time>2026-04-12T06:15:33Z</time></trkpt><trkpt lat="45.74681342289973" lon="9.32706251404591"><ele>375.0</ele><time>2026-04-12T06:15:34Z</time></trkpt><trkpt lat="45.74691602537989" lon="9.327222302256752"><ele>375.0</ele><time>2026-04-12T06:15:35Z</time></trkpt><trkpt lat="45.7470239286665" lon="9.32736798214769"><ele>374.3333333333333</ele><time>2026-04-12T06:15:36Z</time></trkpt><trkpt lat="45.747154953985934" lon="9.327488422657513"><ele>373.66666666666663</ele><time>2026-04-12T06:15:37Z</time></trkpt><trkpt lat="45.74729932320049" lon="9.327582512687762"><ele>373.0</ele><time>2026-04-12T06:15:38Z</time></trkpt><trkpt lat="45.747449968116925" lon="9.327650962373298"><ele>373.0</ele><time>2026-04-12T06:15:39Z</time></trkpt><trkpt lat="45.74759983301198" lon="9.327709655552372"><ele>373.0</ele><time>2026-04-12T06:15:40Z</time></trkpt><trkpt lat="45.747748608364304" lon="9.327777883803625"><ele>373.0</ele><time>2026-04-12T06:15:41Z</time></trkpt><trkpt lat="45.7478961966091" lon="9.32786084511136"><ele>371.3333333333333</ele><time>2026-04-12T06:15:42Z</time></trkpt><trkpt lat="45.748043311895195" lon="9.327959799525123"><ele>369.6666666666667</ele><time>2026-04-12T06:15:43Z</time></trkpt><trkpt lat="45.74818432553681" lon="9.328068102373662"><ele>368.0</ele><time>2026-04-12T06:15:44Z</time></trkpt><trkpt lat="45.74831246941639" lon="9.328193250549422"><ele>368.0</ele><time>2026-04-12T06:15:45Z</time></trkpt><trkpt lat="45.74843318861087" lon="9.328317789828773"><ele>368.0</ele><time>2026-04-12T06:15:46Z</time></trkpt><trkpt lat="45.74854370445817" lon="9.328442098977058"><ele>368.0</ele><time>2026-04-12T06:15:47Z</time></trkpt><trkpt lat="45.748640890707335" lon="9.328577190057956"><ele>368.0</ele><time>2026-04-12T06:15:48Z</time></trkpt><trkpt lat="45.748716903287765" lon="9.328748441847877"><ele>365.33333333333337</ele><time>2026-04-12T06:15:49Z</time></trkpt><trkpt lat="45.7487486695039" lon="9.328953672903149"><ele>362.6666666666667</ele><time>2026-04-12T06:15:50Z</time></trkpt><trkpt lat="45.74879110767876" lon="9.329160462767662"><ele>360.0</ele><time>2026-04-12T06:15:51Z</time></trkpt><trkpt lat="45.74883936011597" lon="9.329370616828097"><ele>360.0</ele><time>2026-04-12T06:15:52Z</time></trkpt><trkpt lat="45.74886080008465" lon="9.329597798420544"><ele>360.0</ele><time>2026-04-12T06:15:53Z</time></trkpt><trkpt lat="45.74889829787384" lon="9.329822585455474"><ele>360.0</ele><time>2026-04-12T06:15:54Z</time></trkpt><trkpt lat="45.74893529598335" lon="9.330051246476065"><ele>360.0</ele><time>2026-04-12T06:15:55Z</time></trkpt><trkpt lat="45.74896856939261" lon="9.33027852060852"><ele>360.0</ele><time>2026-04-12T06:15:56Z</time></trkpt><trkpt lat="45.74901155095896" lon="9.330499699081193"><ele>360.0</ele><time>2026-04-12T06:15:57Z</time></trkpt><trkpt lat="45.749019831310775" lon="9.330719251736381"><ele>360.25</ele><time>2026-04-12T06:15:58Z</time></trkpt><trkpt lat="45.74905706307489" lon="9.330920502102542"><ele>360.5</ele><time>2026-04-12T06:15:59Z</time></trkpt><trkpt lat="45.749074169231555" lon="9.331116194470196"><ele>360.75</ele><time>2026-04-12T06:16:00Z</time></trkpt><trkpt lat="45.74906191893291" lon="9.331307219717623"><ele>361.0</ele><time>2026-04-12T06:16:01Z</time></trkpt><trkpt lat="45.74904638085242" lon="9.331505286459311"><ele>361.0</ele><time>2026-04-12T06:16:02Z</time></trkpt><trkpt lat="45.74902545002408" lon="9.331698008086303"><ele>361.0</ele><time>2026-04-12T06:16:03Z</time></trkpt><trkpt lat="45.74898473212598" lon="9.331878591461495"><ele>361.0</ele><time>2026-04-12T06:16:04Z</time></trkpt><trkpt lat="45.74895321927965" lon="9.332075109786448"><ele>361.0</ele><time>2026-04-12T06:16:05Z</time></trkpt><trkpt lat="45.74890082262247" lon="9.33225983701405"><ele>361.0</ele><time>2026-04-12T06:16:06Z</time></trkpt><trkpt lat="45.74890380496001" lon="9.33244825171457"><ele>361.0</ele><time>2026-04-12T06:16:07Z</time></trkpt><trkpt lat="45.748920444194376" lon="9.332639871353189"><ele>361.0</ele><time>2026-04-12T06:16:08Z</time></trkpt><trkpt lat="45.748967983261586" lon="9.332806927997641"><ele>361.0</ele><time>2026-04-12T06:16:09Z</time></trkpt><trkpt lat="45.74903459095917" lon="9.332967097047968"><ele>361.0</ele><time>2026-04-12T06:16:10Z</time></trkpt><trkpt lat="45.7491249318726" lon="9.333080067484127"><ele>361.0</ele><time>2026-04-12T06:16:11Z</time></trkpt><trkpt lat="45.749212872926094" lon="9.333169589530925"><ele>361.0</ele><time>2026-04-12T06:16:12Z</time></trkpt><trkpt lat="45.74929246090361" lon="9.333236525408877"><ele>361.0</ele><time>2026-04-12T06:16:13Z</time></trkpt><trkpt lat="45.74936093040884" lon="9.333285788908366"><ele>361.0</ele><time>2026-04-12T06:16:14Z</time></trkpt><trkpt lat="45.74942832492977" lon="9.333349410741159"><ele>359.8333333333333</ele><time>2026-04-12T06:16:15Z</time></trkpt><trkpt lat="45.74948931065633" lon="9.333428017388652"><ele>358.66666666666663</ele><time>2026-04-12T06:16:16Z</time></trkpt><trkpt lat="45.74955654893242" lon="9.333494188652368"><ele>357.5</ele><time>2026-04-12T06:16:17Z</time></trkpt><trkpt lat="45.74963184178474" lon="9.333495145013051"><ele>356.3333333333333</ele><time>2026-04-12T06:16:18Z</time></trkpt><trkpt lat="45.74969765668901" lon="9.333452647480017"><ele>355.1666666666667</ele><time>2026-04-12T06:16:19Z</time></trkpt><trkpt lat="45.74974866253448" lon="9.333371741787891"><ele>354.0</ele><time>2026-04-12T06:16:20Z</time></trkpt><trkpt lat="45.74978133805372" lon="9.333278046252024"><ele>354.0</ele><time>2026-04-12T06:16:21Z</time></trkpt><trkpt lat="45.749815691596424" lon="9.333190413187927"><ele>354.0</ele><time>2026-04-12T06:16:22Z</time></trkpt><trkpt lat="45.74986031539757" lon="9.333109489162156"><ele>354.0</ele><time>2026-04-12T06:16:23Z</time></trkpt><trkpt lat="45.74991402654117" lon="9.333031648983402"><ele>354.0</ele><time>2026-04-12T06:16:24Z</time></trkpt><trkpt lat="45.749970375116305" lon="9.332951042610784"><ele>354.0</ele><time>2026-04-12T06:16:25Z</time></trkpt><trkpt lat="45.75003079975212" lon="9.332847306455644"><ele>354.0</ele><time>2026-04-12T06:16:26Z</time></trkpt><trkpt lat="45.750089108798605" lon="9.332727683197112"><ele>354.25</ele><time>2026-04-12T06:16:27Z</time></trkpt><trkpt lat="45.750140737402795" lon="9.332594724387693"><ele>354.5</ele><time>2026-04-12T06:16:28Z</time></trkpt><trkpt lat="45.75019086570374" lon="9.332452208472816"><ele>354.75</ele><time>2026-04-12T06:16:29Z</time></trkpt><trkpt lat="45.7502538354366" lon="9.33231144819068"><ele>355.0</ele><time>2026-04-12T06:16:30Z</time></trkpt><trkpt lat="45.75032976702865" lon="9.332182897546783"><ele>355.25</ele><time>2026-04-12T06:16:30.999Z</time></trkpt><trkpt lat="45.75042919573815" lon="9.332074570525688"><ele>355.5</ele><time>2026-04-12T06:16:31.999Z</time></trkpt><trkpt lat="45.75055081969896" lon="9.33199273671814"><ele>355.75</ele><time>2026-04-12T06:16:32.999Z</time></trkpt><trkpt lat="45.75067435969179" lon="9.33193497315618"><ele>356.0</ele><time>2026-04-12T06:16:33.999Z</time></trkpt><trkpt lat="45.75080520174657" lon="9.331839591770908"><ele>356.0</ele><time>2026-04-12T06:16:34.999Z</time></trkpt><trkpt lat="45.750932244914885" lon="9.331751214578938"><ele>356.0</ele><time>2026-04-12T06:16:35.999Z</time></trkpt><trkpt lat="45.75105458433203" lon="9.331670202953608"><ele>356.0</ele><time>2026-04-12T06:16:36.999Z</time></trkpt><trkpt lat="45.751162595929365" lon="9.331603265034921"><ele>356.0</ele><time>2026-04-12T06:16:37.999Z</time></trkpt><trkpt lat="45.75125810120848" lon="9.331523330781927"><ele>353.25</ele><time>2026-04-12T06:16:38.999Z</time></trkpt><trkpt lat="45.75133921176754" lon="9.331412724415124"><ele>350.5</ele><time>2026-04-12T06:16:39.999Z</time></trkpt><trkpt lat="45.751400720731745" lon="9.33127292274922"><ele>347.75</ele><time>2026-04-12T06:16:40.999Z</time></trkpt><trkpt lat="45.75143575052466" lon="9.331103170329001"><ele>345.0</ele><time>2026-04-12T06:16:41.999Z</time></trkpt><trkpt lat="45.75143697088665" lon="9.330922755135393"><ele>345.0</ele><time>2026-04-12T06:16:42.999Z</time></trkpt><trkpt lat="45.75141992061521" lon="9.330758655419846"><ele>345.0</ele><time>2026-04-12T06:16:43.999Z</time></trkpt><trkpt lat="45.75141475691417" lon="9.330621600181098"><ele>345.0</ele><time>2026-04-12T06:16:44.999Z</time></trkpt><trkpt lat="45.75142996982007" lon="9.330475536434923"><ele>345.0</ele><time>2026-04-12T06:16:45.999Z</time></trkpt><trkpt lat="45.75146449704216" lon="9.330378214555596"><ele>345.0</ele><time>2026-04-12T06:16:46.999Z</time></trkpt><trkpt lat="45.75154442024199" lon="9.330316885615025"><ele>345.0</ele><time>2026-04-12T06:16:48.999Z</time></trkpt><trkpt lat="45.7516415084304" lon="9.330308610890636"><ele>345.0</ele><time>2026-04-12T06:16:53.999Z</time></trkpt><trkpt lat="45.751736657497446" lon="9.330424922230991"><ele>345.0</ele><time>2026-04-12T06:16:55.999Z</time></trkpt><trkpt lat="45.75175468876582" lon="9.330542290884743"><ele>345.0</ele><time>2026-04-12T06:16:56.999Z</time></trkpt><trkpt lat="45.75177143948832" lon="9.330669344074662"><ele>345.0</ele><time>2026-04-12T06:16:57.999Z</time></trkpt><trkpt lat="45.75178379296355" lon="9.330818945065788"><ele>345.0</ele><time>2026-04-12T06:16:58.999Z</time></trkpt><trkpt lat="45.75180322059677" lon="9.330975094869585"><ele>345.0</ele><time>2026-04-12T06:16:59.999Z</time></trkpt><trkpt lat="45.75183697596624" lon="9.33114400989512"><ele>345.0</ele><time>2026-04-12T06:17:00.999Z</time></trkpt><trkpt lat="45.75187759332228" lon="9.331317758839772"><ele>345.0</ele><time>2026-04-12T06:17:01.999Z</time></trkpt><trkpt lat="45.751915027869785" lon="9.331494351682423"><ele>341.5</ele><time>2026-04-12T06:17:02.999Z</time></trkpt><trkpt lat="45.75196175413019" lon="9.331668150801296"><ele>338.0</ele><time>2026-04-12T06:17:03.999Z</time></trkpt><trkpt lat="45.75200702256124" lon="9.331838531393238"><ele>334.5</ele><time>2026-04-12T06:17:04.999Z</time></trkpt><trkpt lat="45.752086291779" lon="9.332007551916766"><ele>331.0</ele><time>2026-04-12T06:17:05.999Z</time></trkpt><trkpt lat="45.75217784290908" lon="9.332158385953221"><ele>331.25</ele><time>2026-04-12T06:17:07Z</time></trkpt><trkpt lat="45.7522759734084" lon="9.332297951204636"><ele>331.5</ele><time>2026-04-12T06:17:08Z</time></trkpt><trkpt lat="45.752381849864065" lon="9.332421771742592"><ele>331.75</ele><time>2026-04-12T06:17:09Z</time></trkpt><trkpt lat="45.75250453955957" lon="9.332537099253805"><ele>332.0</ele><time>2026-04-12T06:17:10Z</time></trkpt><trkpt lat="45.75263109989893" lon="9.332656615963149"><ele>331.6666666666667</ele><time>2026-04-12T06:17:11Z</time></trkpt><trkpt lat="45.75275426580872" lon="9.332777129739586"><ele>331.3333333333333</ele><time>2026-04-12T06:17:12Z</time></trkpt><trkpt lat="45.752880137530596" lon="9.33289927571884"><ele>331.0</ele><time>2026-04-12T06:17:13Z</time></trkpt><trkpt lat="45.75301330182298" lon="9.333016048560978"><ele>331.3333333333333</ele><time>2026-04-12T06:17:14Z</time></trkpt><trkpt lat="45.75314625138736" lon="9.333133400056841"><ele>331.6666666666667</ele><time>2026-04-12T06:17:15Z</time></trkpt><trkpt lat="45.75328154791574" lon="9.333252572843294"><ele>332.0</ele><time>2026-04-12T06:17:16Z</time></trkpt><trkpt lat="45.75341106189367" lon="9.33337626791002"><ele>327.6666666666667</ele><time>2026-04-12T06:17:17Z</time></trkpt><trkpt lat="45.75354238133978" lon="9.333529932823156"><ele>323.3333333333333</ele><time>2026-04-12T06:17:18Z</time></trkpt><trkpt lat="45.753654972973095" lon="9.333700184542419"><ele>319.0</ele><time>2026-04-12T06:17:19Z</time></trkpt><trkpt lat="45.753768028192574" lon="9.333880578964365"><ele>319.66666666666663</ele><time>2026-04-12T06:17:20Z</time></trkpt><trkpt lat="45.75387761394563" lon="9.334070907008874"><ele>320.3333333333333</ele><time>2026-04-12T06:17:21Z</time></trkpt><trkpt lat="45.753984420898206" lon="9.334272684836051"><ele>321.0</ele><time>2026-04-12T06:17:22Z</time></trkpt><trkpt lat="45.75408842579785" lon="9.334476855213078"><ele>321.0</ele><time>2026-04-12T06:17:23Z</time></trkpt><trkpt lat="45.754188074110715" lon="9.334679709662987"><ele>321.0</ele><time>2026-04-12T06:17:24Z</time></trkpt><trkpt lat="45.75429845517641" lon="9.334893031094566"><ele>321.0</ele><time>2026-04-12T06:17:25Z</time></trkpt><trkpt lat="45.75441198177872" lon="9.335100005797345"><ele>317.3333333333333</ele><time>2026-04-12T06:17:26Z</time></trkpt><trkpt lat="45.75451493993892" lon="9.335290853885317"><ele>313.66666666666663</ele><time>2026-04-12T06:17:27Z</time></trkpt><trkpt lat="45.75461580458765" lon="9.335478255711203"><ele>310.0</ele><time>2026-04-12T06:17:28Z</time></trkpt><trkpt lat="45.75471492081372" lon="9.335660291476989"><ele>310.0</ele><time>2026-04-12T06:17:29Z</time></trkpt><trkpt lat="45.754821977052586" lon="9.335821441661428"><ele>310.0</ele><time>2026-04-12T06:17:30Z</time></trkpt><trkpt lat="45.75493444642696" lon="9.335978770336675"><ele>310.0</ele><time>2026-04-12T06:17:31Z</time></trkpt><trkpt lat="45.75505579705098" lon="9.33612033572177"><ele>310.0</ele><time>2026-04-12T06:17:32Z</time></trkpt><trkpt lat="45.755193862009" lon="9.336245153680485"><ele>310.0</ele><time>2026-04-12T06:17:33Z</time></trkpt><trkpt lat="45.75536223551369" lon="9.336361973673796"><ele>310.0</ele><time>2026-04-12T06:17:34Z</time></trkpt><trkpt lat="45.75552791794629" lon="9.336447022581265"><ele>305.66666666666663</ele><time>2026-04-12T06:17:35Z</time></trkpt><trkpt lat="45.75569891183201" lon="9.336527989860516"><ele>301.3333333333333</ele><time>2026-04-12T06:17:36Z</time></trkpt><trkpt lat="45.75587235655246" lon="9.33660857788755"><ele>297.0</ele><time>2026-04-12T06:17:37Z</time></trkpt><trkpt lat="45.75604532487142" lon="9.336686730344939"><ele>296.0</ele><time>2026-04-12T06:17:38Z</time></trkpt><trkpt lat="45.75622522840022" lon="9.336765148770079"><ele>295.0</ele><time>2026-04-12T06:17:39Z</time></trkpt><trkpt lat="45.756407331660014" lon="9.336846089958735"><ele>294.0</ele><time>2026-04-12T06:17:40Z</time></trkpt><trkpt lat="45.75659327274034" lon="9.33692963526939"><ele>294.0</ele><time>2026-04-12T06:17:41Z</time></trkpt><trkpt lat="45.75677648711932" lon="9.33701641635013"><ele>294.0</ele><time>2026-04-12T06:17:42Z</time></trkpt><trkpt lat="45.756943194739556" lon="9.337090271560722"><ele>294.0</ele><time>2026-04-12T06:17:43Z</time></trkpt><trkpt lat="45.757122226430795" lon="9.33716904302977"><ele>293.0</ele><time>2026-04-12T06:17:44Z</time></trkpt><trkpt lat="45.757273176009406" lon="9.33724594723656"><ele>292.0</ele><time>2026-04-12T06:17:45Z</time></trkpt><trkpt lat="45.7574511893429" lon="9.337326227023892"><ele>291.0</ele><time>2026-04-12T06:17:46Z</time></trkpt><trkpt lat="45.757626390841" lon="9.337390888517596"><ele>290.3333333333333</ele><time>2026-04-12T06:17:47Z</time></trkpt><trkpt lat="45.75781024284112" lon="9.33744891739276"><ele>289.66666666666663</ele><time>2026-04-12T06:17:48Z</time></trkpt><trkpt lat="45.75799923954219" lon="9.337490423315446"><ele>289.0</ele><time>2026-04-12T06:17:49Z</time></trkpt><trkpt lat="45.758185384733075" lon="9.337520710031596"><ele>289.0</ele><time>2026-04-12T06:17:50Z</time></trkpt><trkpt lat="45.75837236696867" lon="9.3375468629978"><ele>289.0</ele><time>2026-04-12T06:17:51Z</time></trkpt><trkpt lat="45.75856005297363" lon="9.337574207185527"><ele>289.0</ele><time>2026-04-12T06:17:52Z</time></trkpt><trkpt lat="45.7587505879128" lon="9.337599720665057"><ele>288.3333333333333</ele><time>2026-04-12T06:17:53Z</time></trkpt><trkpt lat="45.758941604970225" lon="9.337624046167022"><ele>287.6666666666667</ele><time>2026-04-12T06:17:54Z</time></trkpt><trkpt lat="45.75913304571546" lon="9.337651687969078"><ele>287.0</ele><time>2026-04-12T06:17:55Z</time></trkpt><trkpt lat="45.75931180909034" lon="9.33767954430538"><ele>286.0</ele><time>2026-04-12T06:17:56Z</time></trkpt><trkpt lat="45.759493124833874" lon="9.337704287546075"><ele>285.0</ele><time>2026-04-12T06:17:57Z</time></trkpt><trkpt lat="45.75967513779998" lon="9.337730640942938"><ele>284.0</ele><time>2026-04-12T06:17:58Z</time></trkpt><trkpt lat="45.75985472248341" lon="9.337759630140512"><ele>284.0</ele><time>2026-04-12T06:17:59Z</time></trkpt><trkpt lat="45.760034541883854" lon="9.337785757109247"><ele>284.0</ele><time>2026-04-12T06:18:00Z</time></trkpt><trkpt lat="45.760209791902206" lon="9.337816070643218"><ele>284.0</ele><time>2026-04-12T06:18:01Z</time></trkpt><trkpt lat="45.76038116073484" lon="9.337838099133151"><ele>281.6666666666667</ele><time>2026-04-12T06:18:02Z</time></trkpt><trkpt lat="45.760555467508404" lon="9.337859264810623"><ele>279.3333333333333</ele><time>2026-04-12T06:18:03Z</time></trkpt><trkpt lat="45.760723425307575" lon="9.337877470086642"><ele>277.0</ele><time>2026-04-12T06:18:04Z</time></trkpt><trkpt lat="45.76089035149836" lon="9.33789992617891"><ele>277.3333333333333</ele><time>2026-04-12T06:18:05Z</time></trkpt><trkpt lat="45.76105532315464" lon="9.337921839672317"><ele>277.6666666666667</ele><time>2026-04-12T06:18:06Z</time></trkpt><trkpt lat="45.76121564701955" lon="9.337947467646996"><ele>278.0</ele><time>2026-04-12T06:18:07Z</time></trkpt><trkpt lat="45.76137060393588" lon="9.337973389403794"><ele>278.0</ele><time>2026-04-12T06:18:08Z</time></trkpt><trkpt lat="45.761520366147316" lon="9.337990464923225"><ele>278.0</ele><time>2026-04-12T06:18:09Z</time></trkpt><trkpt lat="45.76166730490329" lon="9.338006066823665"><ele>278.0</ele><time>2026-04-12T06:18:10Z</time></trkpt><trkpt lat="45.76180855983403" lon="9.338014881329695"><ele>278.0</ele><time>2026-04-12T06:18:11Z</time></trkpt><trkpt lat="45.76194456896886" lon="9.338022871145222"><ele>278.5</ele><time>2026-04-12T06:18:12Z</time></trkpt><trkpt lat="45.76208160712772" lon="9.33803368082035"><ele>279.0</ele><time>2026-04-12T06:18:13Z</time></trkpt><trkpt lat="45.76221696541849" lon="9.338047883327928"><ele>279.5</ele><time>2026-04-12T06:18:14Z</time></trkpt><trkpt lat="45.762337683980086" lon="9.338058742033802"><ele>280.0</ele><time>2026-04-12T06:18:15Z</time></trkpt><trkpt lat="45.7624445192768" lon="9.338065201635636"><ele>280.3333333333333</ele><time>2026-04-12T06:18:16Z</time></trkpt><trkpt lat="45.76253516637973" lon="9.338075535271656"><ele>280.66666666666663</ele><time>2026-04-12T06:18:17Z</time></trkpt><trkpt lat="45.76260893313661" lon="9.338098934703352"><ele>281.0</ele><time>2026-04-12T06:18:18Z</time></trkpt><trkpt lat="45.762681235100345" lon="9.33813895951524"><ele>281.3333333333333</ele><time>2026-04-12T06:18:19Z</time></trkpt><trkpt lat="45.762758573121" lon="9.338142782304425"><ele>281.6666666666667</ele><time>2026-04-12T06:18:20Z</time></trkpt><trkpt lat="45.76283303472549" lon="9.338213897311391"><ele>282.0</ele><time>2026-04-12T06:18:21Z</time></trkpt><trkpt lat="45.762926976481545" lon="9.338208873619717"><ele>282.0</ele><time>2026-04-12T06:18:22Z</time></trkpt><trkpt lat="45.763020773591215" lon="9.338186830386944"><ele>282.0</ele><time>2026-04-12T06:18:23Z</time></trkpt><trkpt lat="45.763123992289266" lon="9.338183094034228"><ele>282.0</ele><time>2026-04-12T06:18:24Z</time></trkpt><trkpt lat="45.76323916806496" lon="9.338196739362619"><ele>282.0</ele><time>2026-04-12T06:18:25Z</time></trkpt><trkpt lat="45.76335853520279" lon="9.338219404481963"><ele>282.0</ele><time>2026-04-12T06:18:26Z</time></trkpt><trkpt lat="45.763486801764564" lon="9.338245861440388"><ele>282.0</ele><time>2026-04-12T06:18:27Z</time></trkpt><trkpt lat="45.76361468677682" lon="9.338273414432509"><ele>282.0</ele><time>2026-04-12T06:18:28Z</time></trkpt><trkpt lat="45.763741734532225" lon="9.338299437111532"><ele>282.0</ele><time>2026-04-12T06:18:29Z</time></trkpt><trkpt lat="45.76387459813577" lon="9.338329357121188"><ele>282.0</ele><time>2026-04-12T06:18:30Z</time></trkpt><trkpt lat="45.76400885222584" lon="9.33836073761748"><ele>282.0</ele><time>2026-04-12T06:18:31Z</time></trkpt><trkpt lat="45.764144855168645" lon="9.338387745820658"><ele>282.0</ele><time>2026-04-12T06:18:32Z</time></trkpt><trkpt lat="45.764283969028114" lon="9.338408269318666"><ele>282.0</ele><time>2026-04-12T06:18:33Z</time></trkpt><trkpt lat="45.76442426002462" lon="9.338425347884122"><ele>282.0</ele><time>2026-04-12T06:18:34Z</time></trkpt><trkpt lat="45.76456397904558" lon="9.33844580352609"><ele>282.25</ele><time>2026-04-12T06:18:35Z</time></trkpt><trkpt lat="45.76470665490144" lon="9.338463596258123"><ele>282.5</ele><time>2026-04-12T06:18:36Z</time></trkpt><trkpt lat="45.76485094386917" lon="9.338483707357462"><ele>282.75</ele><time>2026-04-12T06:18:37Z</time></trkpt><trkpt lat="45.764996737791684" lon="9.338507709896593"><ele>283.0</ele><time>2026-04-12T06:18:38Z</time></trkpt><trkpt lat="45.76514392656812" lon="9.338534868224462"><ele>283.25</ele><time>2026-04-12T06:18:39Z</time></trkpt><trkpt lat="45.76529357606517" lon="9.33856272379363"><ele>283.5</ele><time>2026-04-12T06:18:40Z</time></trkpt><trkpt lat="45.76543993632872" lon="9.338590296232411"><ele>283.75</ele><time>2026-04-12T06:18:41Z</time></trkpt><trkpt lat="45.765584999952345" lon="9.338618111831634"><ele>284.0</ele><time>2026-04-12T06:18:42Z</time></trkpt><trkpt lat="45.76572747884987" lon="9.33864605799491"><ele>284.0</ele><time>2026-04-12T06:18:43Z</time></trkpt><trkpt lat="45.76586404741922" lon="9.338674793118926"><ele>284.0</ele><time>2026-04-12T06:18:43.999Z</time></trkpt><trkpt lat="45.765993147421156" lon="9.338702544538686"><ele>284.0</ele><time>2026-04-12T06:18:44.999Z</time></trkpt><trkpt lat="45.7661112903628" lon="9.338731978683732"><ele>284.0</ele><time>2026-04-12T06:18:45.999Z</time></trkpt><trkpt lat="45.766216881990935" lon="9.338763129671795"><ele>284.0</ele><time>2026-04-12T06:18:46.999Z</time></trkpt><trkpt lat="45.76631801855546" lon="9.338804331155908"><ele>284.0</ele><time>2026-04-12T06:18:47.999Z</time></trkpt><trkpt lat="45.76642293519818" lon="9.338841131951686"><ele>284.0</ele><time>2026-04-12T06:18:48.999Z</time></trkpt><trkpt lat="45.76653471716548" lon="9.338844106794872"><ele>284.0</ele><time>2026-04-12T06:18:49.999Z</time></trkpt><trkpt lat="45.76665162688978" lon="9.338821508952359"><ele>284.0</ele><time>2026-04-12T06:18:50.999Z</time></trkpt><trkpt lat="45.76678032302843" lon="9.338811486976004"><ele>284.0</ele><time>2026-04-12T06:18:51.999Z</time></trkpt><trkpt lat="45.76690993393001" lon="9.338818303979973"><ele>284.0</ele><time>2026-04-12T06:18:52.999Z</time></trkpt><trkpt lat="45.76704997643083" lon="9.338830727352763"><ele>284.0</ele><time>2026-04-12T06:18:53.999Z</time></trkpt><trkpt lat="45.767194725407265" lon="9.338849098520866"><ele>284.0</ele><time>2026-04-12T06:18:54.999Z</time></trkpt><trkpt lat="45.76734689117503" lon="9.338866689055743"><ele>284.6666666666667</ele><time>2026-04-12T06:18:55.999Z</time></trkpt><trkpt lat="45.76750375679247" lon="9.33888463974941"><ele>285.3333333333333</ele><time>2026-04-12T06:18:56.999Z</time></trkpt><trkpt lat="45.767661344134986" lon="9.338903986410841"><ele>286.0</ele><time>2026-04-12T06:18:57.999Z</time></trkpt><trkpt lat="45.76782073219746" lon="9.338921077584402"><ele>286.66666666666663</ele><time>2026-04-12T06:18:58.999Z</time></trkpt><trkpt lat="45.76798355068534" lon="9.338940045241715"><ele>287.3333333333333</ele><time>2026-04-12T06:18:59.999Z</time></trkpt><trkpt lat="45.76814560679615" lon="9.33895761544335"><ele>288.0</ele><time>2026-04-12T06:19:00.999Z</time></trkpt><trkpt lat="45.76830377287093" lon="9.33897621608094"><ele>288.0</ele><time>2026-04-12T06:19:01.999Z</time></trkpt><trkpt lat="45.768466641060314" lon="9.338998232684743"><ele>288.0</ele><time>2026-04-12T06:19:02.999Z</time></trkpt><trkpt lat="45.76862770080403" lon="9.33901975030227"><ele>288.0</ele><time>2026-04-12T06:19:03.999Z</time></trkpt><trkpt lat="45.768788016447814" lon="9.33903031296306"><ele>287.6666666666667</ele><time>2026-04-12T06:19:04.999Z</time></trkpt><trkpt lat="45.768950585204486" lon="9.339035870135762"><ele>287.33333333333337</ele><time>2026-04-12T06:19:05.999Z</time></trkpt><trkpt lat="45.76911229948026" lon="9.339038552839344"><ele>287.0</ele><time>2026-04-12T06:19:06.999Z</time></trkpt><trkpt lat="45.76927424568275" lon="9.339028269977948"><ele>288.0</ele><time>2026-04-12T06:19:07.999Z</time></trkpt><trkpt lat="45.76943750808449" lon="9.339007251865034"><ele>289.0</ele><time>2026-04-12T06:19:08.999Z</time></trkpt><trkpt lat="45.769599765914414" lon="9.33898391622365"><ele>290.0</ele><time>2026-04-12T06:19:09.999Z</time></trkpt><trkpt lat="45.76976208801" lon="9.338957657631472"><ele>290.0</ele><time>2026-04-12T06:19:10.999Z</time></trkpt><trkpt lat="45.76992707161511" lon="9.33893058946082"><ele>290.0</ele><time>2026-04-12T06:19:11.999Z</time></trkpt><trkpt lat="45.77009156961082" lon="9.338905248973171"><ele>290.0</ele><time>2026-04-12T06:19:13Z</time></trkpt><trkpt lat="45.770255729939386" lon="9.338883931669024"><ele>289.0</ele><time>2026-04-12T06:19:14Z</time></trkpt><trkpt lat="45.7704229649232" lon="9.33886174065873"><ele>288.0</ele><time>2026-04-12T06:19:15Z</time></trkpt><trkpt lat="45.77058497968713" lon="9.338840550802141"><ele>287.0</ele><time>2026-04-12T06:19:16Z</time></trkpt><trkpt lat="45.77073498509421" lon="9.338820135712092"><ele>287.0</ele><time>2026-04-12T06:19:17Z</time></trkpt><trkpt lat="45.77086777375881" lon="9.338802897545568"><ele>287.0</ele><time>2026-04-12T06:19:18Z</time></trkpt><trkpt lat="45.77098845063444" lon="9.338784572138767"><ele>287.0</ele><time>2026-04-12T06:19:19Z</time></trkpt><trkpt lat="45.7710841459252" lon="9.338769049652278"><ele>287.0</ele><time>2026-04-12T06:19:20Z</time></trkpt><trkpt lat="45.77115598864906" lon="9.338761613793492"><ele>287.0</ele><time>2026-04-12T06:19:21Z</time></trkpt><trkpt lat="45.7712622586175" lon="9.338809637346975"><ele>286.6666666666667</ele><time>2026-04-12T06:19:23Z</time></trkpt><trkpt lat="45.77132838723996" lon="9.338835574276942"><ele>286.33333333333337</ele><time>2026-04-12T06:19:24Z</time></trkpt><trkpt lat="45.77139706166322" lon="9.338822285839742"><ele>286.0</ele><time>2026-04-12T06:19:25Z</time></trkpt><trkpt lat="45.77147412841206" lon="9.33878134717796"><ele>285.6666666666667</ele><time>2026-04-12T06:19:26Z</time></trkpt><trkpt lat="45.771556671185536" lon="9.338732671174734"><ele>285.3333333333333</ele><time>2026-04-12T06:19:27Z</time></trkpt><trkpt lat="45.771650465070934" lon="9.33869551033891"><ele>285.0</ele><time>2026-04-12T06:19:28Z</time></trkpt><trkpt lat="45.771757430944305" lon="9.338668214957089"><ele>284.75</ele><time>2026-04-12T06:19:29Z</time></trkpt><trkpt lat="45.771867479117205" lon="9.338648498497482"><ele>284.5</ele><time>2026-04-12T06:19:30Z</time></trkpt><trkpt lat="45.77198518845499" lon="9.338636537705145"><ele>284.25</ele><time>2026-04-12T06:19:31Z</time></trkpt><trkpt lat="45.772111339038474" lon="9.338629908402387"><ele>284.0</ele><time>2026-04-12T06:19:32Z</time></trkpt><trkpt lat="45.77223568955188" lon="9.338636084550503"><ele>284.0</ele><time>2026-04-12T06:19:33Z</time></trkpt><trkpt lat="45.77236367894499" lon="9.338649245187227"><ele>284.0</ele><time>2026-04-12T06:19:34Z</time></trkpt><trkpt lat="45.772493095986185" lon="9.338670070889412"><ele>284.0</ele><time>2026-04-12T06:19:35Z</time></trkpt><trkpt lat="45.77262890592023" lon="9.338703890083549"><ele>284.0</ele><time>2026-04-12T06:19:36Z</time></trkpt><trkpt lat="45.77276650215402" lon="9.338760676725553"><ele>283.5</ele><time>2026-04-12T06:19:37Z</time></trkpt><trkpt lat="45.77290370100895" lon="9.338823588012106"><ele>283.0</ele><time>2026-04-12T06:19:38Z</time></trkpt><trkpt lat="45.7730431856413" lon="9.338884646211135"><ele>282.5</ele><time>2026-04-12T06:19:39Z</time></trkpt><trkpt lat="45.77318790686187" lon="9.338943540630577"><ele>282.0</ele><time>2026-04-12T06:19:40Z</time></trkpt><trkpt lat="45.77333691083849" lon="9.339004353314413"><ele>282.0</ele><time>2026-04-12T06:19:41Z</time></trkpt><trkpt lat="45.77348722305618" lon="9.339071376808784"><ele>282.0</ele><time>2026-04-12T06:19:42Z</time></trkpt><trkpt lat="45.77363126872913" lon="9.339137772128954"><ele>282.0</ele><time>2026-04-12T06:19:43Z</time></trkpt><trkpt lat="45.77375937027955" lon="9.339195019849173"><ele>282.0</ele><time>2026-04-12T06:19:44Z</time></trkpt><trkpt lat="45.77388385906182" lon="9.33924573962288"><ele>282.0</ele><time>2026-04-12T06:19:45Z</time></trkpt><trkpt lat="45.77400780907818" lon="9.339296574546863"><ele>282.0</ele><time>2026-04-12T06:19:46Z</time></trkpt><trkpt lat="45.77412460037571" lon="9.339350629009745"><ele>282.0</ele><time>2026-04-12T06:19:47Z</time></trkpt><trkpt lat="45.774227003127535" lon="9.33940142209903"><ele>282.0</ele><time>2026-04-12T06:19:48Z</time></trkpt><trkpt lat="45.774334084672546" lon="9.339450456401948"><ele>281.25</ele><time>2026-04-12T06:19:49Z</time></trkpt><trkpt lat="45.77444788143253" lon="9.339500467691924"><ele>280.5</ele><time>2026-04-12T06:19:50Z</time></trkpt><trkpt lat="45.77457279809918" lon="9.339560508062215"><ele>279.75</ele><time>2026-04-12T06:19:51Z</time></trkpt><trkpt lat="45.77470704640413" lon="9.33962343869105"><ele>279.0</ele><time>2026-04-12T06:19:52Z</time></trkpt><trkpt lat="45.774848397681694" lon="9.339687810776116"><ele>279.3333333333333</ele><time>2026-04-12T06:19:53Z</time></trkpt><trkpt lat="45.774995924674236" lon="9.339751477720165"><ele>279.66666666666663</ele><time>2026-04-12T06:19:54Z</time></trkpt><trkpt lat="45.7751469407092" lon="9.33981640844324"><ele>280.0</ele><time>2026-04-12T06:19:55Z</time></trkpt><trkpt lat="45.77530053543634" lon="9.339874220763408"><ele>278.66666666666663</ele><time>2026-04-12T06:19:56Z</time></trkpt><trkpt lat="45.775455727616546" lon="9.33992518859396"><ele>277.3333333333333</ele><time>2026-04-12T06:19:57Z</time></trkpt><trkpt lat="45.77562736921346" lon="9.339959778994546"><ele>276.0</ele><time>2026-04-12T06:19:58Z</time></trkpt><trkpt lat="45.775800146980494" lon="9.339970145516599"><ele>276.0</ele><time>2026-04-12T06:19:59Z</time></trkpt><trkpt lat="45.775973662530774" lon="9.339950281603665"><ele>276.0</ele><time>2026-04-12T06:20:00Z</time></trkpt><trkpt lat="45.77614749284961" lon="9.339908314440983"><ele>276.0</ele><time>2026-04-12T06:20:01Z</time></trkpt><trkpt lat="45.776317913072674" lon="9.339837986143035"><ele>274.3333333333333</ele><time>2026-04-12T06:20:02Z</time></trkpt><trkpt lat="45.77648587731838" lon="9.339746635113231"><ele>272.66666666666663</ele><time>2026-04-12T06:20:03Z</time></trkpt><trkpt lat="45.776658542019" lon="9.339655343761297"><ele>271.0</ele><time>2026-04-12T06:20:04Z</time></trkpt><trkpt lat="45.776830025685456" lon="9.339566490828922"><ele>271.3333333333333</ele><time>2026-04-12T06:20:05Z</time></trkpt><trkpt lat="45.77700627717027" lon="9.33947806312366"><ele>271.6666666666667</ele><time>2026-04-12T06:20:06Z</time></trkpt><trkpt lat="45.77718263335683" lon="9.339387545797143"><ele>272.0</ele><time>2026-04-12T06:20:07Z</time></trkpt><trkpt lat="45.7773646308216" lon="9.339297667843885"><ele>272.0</ele><time>2026-04-12T06:20:08Z</time></trkpt><trkpt lat="45.77754580717017" lon="9.33920199931427"><ele>272.0</ele><time>2026-04-12T06:20:09Z</time></trkpt><trkpt lat="45.77772440484482" lon="9.339106271460112"><ele>272.0</ele><time>2026-04-12T06:20:10Z</time></trkpt><trkpt lat="45.77790906826334" lon="9.339010175573636"><ele>271.6666666666667</ele><time>2026-04-12T06:20:11Z</time></trkpt><trkpt lat="45.77809007408647" lon="9.33891311499051"><ele>271.3333333333333</ele><time>2026-04-12T06:20:12Z</time></trkpt><trkpt lat="45.7782752714773" lon="9.33881815396642"><ele>271.0</ele><time>2026-04-12T06:20:13Z</time></trkpt><trkpt lat="45.77845894456459" lon="9.338722490046536"><ele>270.66666666666663</ele><time>2026-04-12T06:20:14Z</time></trkpt><trkpt lat="45.778649072487376" lon="9.338628863844981"><ele>270.3333333333333</ele><time>2026-04-12T06:20:15Z</time></trkpt><trkpt lat="45.77883769067806" lon="9.338535355853192"><ele>270.0</ele><time>2026-04-12T06:20:16Z</time></trkpt><trkpt lat="45.77902821513383" lon="9.338436866411918"><ele>270.0</ele><time>2026-04-12T06:20:17Z</time></trkpt><trkpt lat="45.779217338054146" lon="9.338338695385561"><ele>270.0</ele><time>2026-04-12T06:20:18Z</time></trkpt><trkpt lat="45.779406502763266" lon="9.338238017823045"><ele>270.0</ele><time>2026-04-12T06:20:19Z</time></trkpt><trkpt lat="45.779597725697634" lon="9.338138799342472"><ele>269.3333333333333</ele><time>2026-04-12T06:20:20Z</time></trkpt><trkpt lat="45.77978779536842" lon="9.338037988221972"><ele>268.66666666666663</ele><time>2026-04-12T06:20:21Z</time></trkpt><trkpt lat="45.77997691975535" lon="9.337940509633203"><ele>268.0</ele><time>2026-04-12T06:20:22Z</time></trkpt><trkpt lat="45.78016032527912" lon="9.33784176877402"><ele>269.3333333333333</ele><time>2026-04-12T06:20:23Z</time></trkpt><trkpt lat="45.78034743715717" lon="9.33774491253253"><ele>270.6666666666667</ele><time>2026-04-12T06:20:24Z</time></trkpt><trkpt lat="45.78053157580681" lon="9.337663366750784"><ele>272.0</ele><time>2026-04-12T06:20:25Z</time></trkpt><trkpt lat="45.78070990440906" lon="9.337605921831734"><ele>272.0</ele><time>2026-04-12T06:20:26Z</time></trkpt><trkpt lat="45.78089626112054" lon="9.337582031557512"><ele>272.0</ele><time>2026-04-12T06:20:27Z</time></trkpt><trkpt lat="45.78108246990744" lon="9.337588950190137"><ele>272.0</ele><time>2026-04-12T06:20:28Z</time></trkpt><trkpt lat="45.78125766255371" lon="9.337628644398858"><ele>272.0</ele><time>2026-04-12T06:20:29Z</time></trkpt><trkpt lat="45.78142909723615" lon="9.337688418663513"><ele>272.0</ele><time>2026-04-12T06:20:30Z</time></trkpt><trkpt lat="45.78159647151132" lon="9.337770130005918"><ele>272.0</ele><time>2026-04-12T06:20:31Z</time></trkpt><trkpt lat="45.781745131303964" lon="9.337876127419106"><ele>272.6666666666667</ele><time>2026-04-12T06:20:32Z</time></trkpt><trkpt lat="45.78188477589704" lon="9.338010725165708"><ele>273.3333333333333</ele><time>2026-04-12T06:20:33Z</time></trkpt><trkpt lat="45.782015432620526" lon="9.338165126033639"><ele>274.0</ele><time>2026-04-12T06:20:34Z</time></trkpt><trkpt lat="45.782133472389134" lon="9.338334840853078"><ele>274.3333333333333</ele><time>2026-04-12T06:20:35Z</time></trkpt><trkpt lat="45.78224652670715" lon="9.338519090963675"><ele>274.6666666666667</ele><time>2026-04-12T06:20:36Z</time></trkpt><trkpt lat="45.78235581711885" lon="9.338698779431141"><ele>275.0</ele><time>2026-04-12T06:20:37Z</time></trkpt><trkpt lat="45.782469820279076" lon="9.338875434001064"><ele>275.0</ele><time>2026-04-12T06:20:38Z</time></trkpt><trkpt lat="45.782581827726574" lon="9.33905040208816"><ele>275.0</ele><time>2026-04-12T06:20:39Z</time></trkpt><trkpt lat="45.78269307732035" lon="9.339225997919298"><ele>275.0</ele><time>2026-04-12T06:20:40Z</time></trkpt><trkpt lat="45.782811443685105" lon="9.339409289023953"><ele>275.0</ele><time>2026-04-12T06:20:41Z</time></trkpt><trkpt lat="45.782922547163956" lon="9.339587482493771"><ele>275.0</ele><time>2026-04-12T06:20:42Z</time></trkpt><trkpt lat="45.78303145365375" lon="9.339762819811337"><ele>275.0</ele><time>2026-04-12T06:20:43Z</time></trkpt><trkpt lat="45.78313757288467" lon="9.339937532290337"><ele>274.6666666666667</ele><time>2026-04-12T06:20:44Z</time></trkpt><trkpt lat="45.78324298238248" lon="9.340110843834005"><ele>274.3333333333333</ele><time>2026-04-12T06:20:45Z</time></trkpt><trkpt lat="45.78334209265304" lon="9.340270132680546"><ele>274.0</ele><time>2026-04-12T06:20:46Z</time></trkpt><trkpt lat="45.78343770767245" lon="9.340422107621158"><ele>274.25</ele><time>2026-04-12T06:20:47Z</time></trkpt><trkpt lat="45.783527819728505" lon="9.340569181340157"><ele>274.5</ele><time>2026-04-12T06:20:48Z</time></trkpt><trkpt lat="45.783612755653515" lon="9.34071765243762"><ele>274.75</ele><time>2026-04-12T06:20:49Z</time></trkpt><trkpt lat="45.783690461419546" lon="9.340864239306494"><ele>275.0</ele><time>2026-04-12T06:20:50Z</time></trkpt><trkpt lat="45.78376274406527" lon="9.34100306061726"><ele>275.0</ele><time>2026-04-12T06:20:51Z</time></trkpt><trkpt lat="45.78384292853656" lon="9.341139049589707"><ele>275.0</ele><time>2026-04-12T06:20:51.999Z</time></trkpt><trkpt lat="45.78392172096256" lon="9.341266289716232"><ele>275.0</ele><time>2026-04-12T06:20:52.999Z</time></trkpt><trkpt lat="45.78399458375547" lon="9.341375283949848"><ele>275.0</ele><time>2026-04-12T06:20:53.999Z</time></trkpt><trkpt lat="45.78405626319788" lon="9.341465245910108"><ele>275.0</ele><time>2026-04-12T06:20:54.999Z</time></trkpt><trkpt lat="45.784112778229094" lon="9.341535836097638"><ele>274.83333333333337</ele><time>2026-04-12T06:20:55.999Z</time></trkpt><trkpt lat="45.784170793110185" lon="9.34158800918188"><ele>274.6666666666667</ele><time>2026-04-12T06:20:56.999Z</time></trkpt><trkpt lat="45.78423151123804" lon="9.341637367568598"><ele>274.5</ele><time>2026-04-12T06:20:58.999Z</time></trkpt><trkpt lat="45.784295531654664" lon="9.341733772570386"><ele>274.3333333333333</ele><time>2026-04-12T06:21:00.999Z</time></trkpt><trkpt lat="45.78433847926419" lon="9.341807883123417"><ele>274.16666666666663</ele><time>2026-04-12T06:21:01.999Z</time></trkpt><trkpt lat="45.78437982368135" lon="9.34190182053195"><ele>274.0</ele><time>2026-04-12T06:21:02.999Z</time></trkpt><trkpt lat="45.784426089019604" lon="9.342004019937956"><ele>273.59999999999997</ele><time>2026-04-12T06:21:03.999Z</time></trkpt><trkpt lat="45.7844793533871" lon="9.342112017638344"><ele>273.2</ele><time>2026-04-12T06:21:04.999Z</time></trkpt><trkpt lat="45.784539213641736" lon="9.34222232747208"><ele>272.79999999999995</ele><time>2026-04-12T06:21:05.999Z</time></trkpt><trkpt lat="45.78460929906341" lon="9.342332248135056"><ele>272.4</ele><time>2026-04-12T06:21:06.999Z</time></trkpt><trkpt lat="45.78467924486116" lon="9.342446490546607"><ele>272.0</ele><time>2026-04-12T06:21:07.999Z</time></trkpt><trkpt lat="45.784752557146845" lon="9.342562521373058"><ele>272.0</ele><time>2026-04-12T06:21:08.999Z</time></trkpt><trkpt lat="45.78482993588437" lon="9.342686221306181"><ele>272.0</ele><time>2026-04-12T06:21:09.999Z</time></trkpt><trkpt lat="45.784913015007604" lon="9.342815755162064"><ele>272.0</ele><time>2026-04-12T06:21:10.999Z</time></trkpt><trkpt lat="45.78500011610986" lon="9.342953732065707"><ele>272.0</ele><time>2026-04-12T06:21:11.999Z</time></trkpt><trkpt lat="45.78508561835628" lon="9.343093141258757"><ele>272.5</ele><time>2026-04-12T06:21:12.999Z</time></trkpt><trkpt lat="45.78517496561071" lon="9.343234136454715"><ele>273.0</ele><time>2026-04-12T06:21:13.999Z</time></trkpt><trkpt lat="45.785268364855746" lon="9.343377260478697"><ele>273.5</ele><time>2026-04-12T06:21:14.999Z</time></trkpt><trkpt lat="45.78535822896018" lon="9.343521390993894"><ele>274.0</ele><time>2026-04-12T06:21:15.999Z</time></trkpt><trkpt lat="45.785448442148216" lon="9.343665178385113"><ele>272.75</ele><time>2026-04-12T06:21:16.999Z</time></trkpt><trkpt lat="45.785530645923224" lon="9.343802549242698"><ele>271.5</ele><time>2026-04-12T06:21:17.999Z</time></trkpt><trkpt lat="45.78561786662756" lon="9.343946359101878"><ele>270.25</ele><time>2026-04-12T06:21:19Z</time></trkpt><trkpt lat="45.785699160499036" lon="9.344082641073001"><ele>269.0</ele><time>2026-04-12T06:21:20Z</time></trkpt><trkpt lat="45.78577761809196" lon="9.344213967515827"><ele>269.0</ele><time>2026-04-12T06:21:21Z</time></trkpt><trkpt lat="45.785852503240406" lon="9.344336120250492"><ele>269.0</ele><time>2026-04-12T06:21:22Z</time></trkpt><trkpt lat="45.78592916063197" lon="9.344453182782436"><ele>269.0</ele><time>2026-04-12T06:21:23Z</time></trkpt><trkpt lat="45.78600056918021" lon="9.34456875156319"><ele>269.0</ele><time>2026-04-12T06:21:24Z</time></trkpt><trkpt lat="45.78606529471661" lon="9.344679740036705"><ele>269.0</ele><time>2026-04-12T06:21:25Z</time></trkpt><trkpt lat="45.7861350204728" lon="9.34479250498302"><ele>269.0</ele><time>2026-04-12T06:21:26Z</time></trkpt><trkpt lat="45.78620652392125" lon="9.344899679635937"><ele>269.0</ele><time>2026-04-12T06:21:27Z</time></trkpt><trkpt lat="45.78627219876447" lon="9.34501045628831"><ele>269.0</ele><time>2026-04-12T06:21:28Z</time></trkpt><trkpt lat="45.786338317567015" lon="9.345118316398048"><ele>269.0</ele><time>2026-04-12T06:21:29Z</time></trkpt><trkpt lat="45.78640574686536" lon="9.345225142032088"><ele>269.0</ele><time>2026-04-12T06:21:30Z</time></trkpt><trkpt lat="45.78648271222552" lon="9.345333258557398"><ele>269.0</ele><time>2026-04-12T06:21:31Z</time></trkpt><trkpt lat="45.786548148925185" lon="9.345437645863"><ele>269.0</ele><time>2026-04-12T06:21:32Z</time></trkpt><trkpt lat="45.78661101502272" lon="9.345535088681999"><ele>269.0</ele><time>2026-04-12T06:21:33Z</time></trkpt><trkpt lat="45.78667092789007" lon="9.345634114910085"><ele>269.0</ele><time>2026-04-12T06:21:34Z</time></trkpt><trkpt lat="45.786734678781215" lon="9.345733858832089"><ele>269.0</ele><time>2026-04-12T06:21:35Z</time></trkpt><trkpt lat="45.786795979548195" lon="9.345832974091573"><ele>269.59999999999997</ele><time>2026-04-12T06:21:36Z</time></trkpt><trkpt lat="45.78685623833544" lon="9.345923048927292"><ele>270.2</ele><time>2026-04-12T06:21:37Z</time></trkpt><trkpt lat="45.78690438674084" lon="9.346006324422731"><ele>270.79999999999995</ele><time>2026-04-12T06:21:38Z</time></trkpt><trkpt lat="45.78695028707561" lon="9.346086906928365"><ele>271.4</ele><time>2026-04-12T06:21:39Z</time></trkpt><trkpt lat="45.78702006921546" lon="9.34621212174362"><ele>272.0</ele><time>2026-04-12T06:21:41Z</time></trkpt><trkpt lat="45.78706799838061" lon="9.34635083833517"><ele>271.83333333333337</ele><time>2026-04-12T06:21:43Z</time></trkpt><trkpt lat="45.78710536840494" lon="9.34643280337436"><ele>271.6666666666667</ele><time>2026-04-12T06:21:44Z</time></trkpt><trkpt lat="45.78715752828186" lon="9.346505371794132"><ele>271.5</ele><time>2026-04-12T06:21:45Z</time></trkpt><trkpt lat="45.78721966454645" lon="9.346562181502287"><ele>271.3333333333333</ele><time>2026-04-12T06:21:46Z</time></trkpt><trkpt lat="45.7872816345265" lon="9.34662161984923"><ele>271.16666666666663</ele><time>2026-04-12T06:21:47Z</time></trkpt><trkpt lat="45.787339888447406" lon="9.346699761030793"><ele>271.0</ele><time>2026-04-12T06:21:48Z</time></trkpt><trkpt lat="45.787396699267916" lon="9.346785792387527"><ele>271.0</ele><time>2026-04-12T06:21:49Z</time></trkpt><trkpt lat="45.787451921904236" lon="9.346876292525693"><ele>271.0</ele><time>2026-04-12T06:21:50Z</time></trkpt><trkpt lat="45.78750993042999" lon="9.346966626523807"><ele>271.0</ele><time>2026-04-12T06:21:51Z</time></trkpt><trkpt lat="45.78757110625973" lon="9.347064441828767"><ele>271.0</ele><time>2026-04-12T06:21:52Z</time></trkpt><trkpt lat="45.78763089748729" lon="9.347168864290946"><ele>271.0</ele><time>2026-04-12T06:21:53Z</time></trkpt><trkpt lat="45.7876976995281" lon="9.347272070833876"><ele>271.6</ele><time>2026-04-12T06:21:54Z</time></trkpt><trkpt lat="45.78776260838258" lon="9.347381147272506"><ele>272.20000000000005</ele><time>2026-04-12T06:21:55Z</time></trkpt><trkpt lat="45.78783216240867" lon="9.347487562665547"><ele>272.79999999999995</ele><time>2026-04-12T06:21:56Z</time></trkpt><trkpt lat="45.78790160643666" lon="9.347598452828592"><ele>273.4</ele><time>2026-04-12T06:21:57Z</time></trkpt><trkpt lat="45.787973792257205" lon="9.347707892035068"><ele>274.0</ele><time>2026-04-12T06:21:58Z</time></trkpt><trkpt lat="45.78804455325367" lon="9.347817252086422"><ele>274.0</ele><time>2026-04-12T06:21:59Z</time></trkpt><trkpt lat="45.78811434551093" lon="9.34792453736143"><ele>274.0</ele><time>2026-04-12T06:22:00Z</time></trkpt><trkpt lat="45.78817803766798" lon="9.348027857033914"><ele>274.0</ele><time>2026-04-12T06:22:01Z</time></trkpt><trkpt lat="45.788239928039964" lon="9.348128195587572"><ele>274.0</ele><time>2026-04-12T06:22:02Z</time></trkpt><trkpt lat="45.78829887922631" lon="9.348226183021286"><ele>274.0</ele><time>2026-04-12T06:22:03Z</time></trkpt><trkpt lat="45.78835152004924" lon="9.34831926233608"><ele>274.00000000000006</ele><time>2026-04-12T06:22:04Z</time></trkpt><trkpt lat="45.78838667937176" lon="9.348401319676832"><ele>274.0</ele><time>2026-04-12T06:22:05Z</time></trkpt><trkpt lat="45.78842022541888" lon="9.348482601361901"><ele>274.0</ele><time>2026-04-12T06:22:06Z</time></trkpt><trkpt lat="45.788424986568934" lon="9.34858442954989"><ele>274.0</ele><time>2026-04-12T06:22:07Z</time></trkpt><trkpt lat="45.788486876835485" lon="9.348646049576317"><ele>274.0</ele><time>2026-04-12T06:22:08Z</time></trkpt><trkpt lat="45.788549293489616" lon="9.348711267595434"><ele>274.00000000000006</ele><time>2026-04-12T06:22:09Z</time></trkpt><trkpt lat="45.78861711248357" lon="9.348774407277888"><ele>274.0</ele><time>2026-04-12T06:22:10Z</time></trkpt><trkpt lat="45.78868294614613" lon="9.348854723875707"><ele>274.0</ele><time>2026-04-12T06:22:11Z</time></trkpt><trkpt lat="45.78874813743545" lon="9.348955103967826"><ele>274.0</ele><time>2026-04-12T06:22:12Z</time></trkpt><trkpt lat="45.78880998705421" lon="9.349056786386607"><ele>274.0</ele><time>2026-04-12T06:22:13Z</time></trkpt><trkpt lat="45.788877161416266" lon="9.349165296577667"><ele>274.0</ele><time>2026-04-12T06:22:14Z</time></trkpt><trkpt lat="45.78894784860719" lon="9.349275058396938"><ele>274.0</ele><time>2026-04-12T06:22:15Z</time></trkpt><trkpt lat="45.78901393512124" lon="9.349402214368945"><ele>274.0</ele><time>2026-04-12T06:22:16Z</time></trkpt><trkpt lat="45.789086507499796" lon="9.349526797066488"><ele>274.0</ele><time>2026-04-12T06:22:17Z</time></trkpt><trkpt lat="45.789160627755265" lon="9.349653929860963"><ele>274.0</ele><time>2026-04-12T06:22:18Z</time></trkpt><trkpt lat="45.78923625255831" lon="9.349778705450033"><ele>274.0</ele><time>2026-04-12T06:22:19Z</time></trkpt><trkpt lat="45.78931013079297" lon="9.34990440688788"><ele>274.25</ele><time>2026-04-12T06:22:20Z</time></trkpt><trkpt lat="45.789390072644316" lon="9.35003293844736"><ele>274.5</ele><time>2026-04-12T06:22:21Z</time></trkpt><trkpt lat="45.78946580824431" lon="9.350160325928424"><ele>274.75</ele><time>2026-04-12T06:22:22Z</time></trkpt><trkpt lat="45.78954424235404" lon="9.35028788231898"><ele>275.0</ele><time>2026-04-12T06:22:23Z</time></trkpt><trkpt lat="45.789630984899176" lon="9.350419749653774"><ele>275.5</ele><time>2026-04-12T06:22:24Z</time></trkpt><trkpt lat="45.789712319770935" lon="9.350542958459823"><ele>276.0</ele><time>2026-04-12T06:22:25Z</time></trkpt><trkpt lat="45.78979076597898" lon="9.350665837393521"><ele>276.5</ele><time>2026-04-12T06:22:26Z</time></trkpt><trkpt lat="45.78986760336693" lon="9.350791117557668"><ele>277.0</ele><time>2026-04-12T06:22:27Z</time></trkpt><trkpt lat="45.78994588623411" lon="9.35091310031385"><ele>277.0</ele><time>2026-04-12T06:22:28Z</time></trkpt><trkpt lat="45.7900260195139" lon="9.351029736958631"><ele>277.0</ele><time>2026-04-12T06:22:29Z</time></trkpt><trkpt lat="45.79010119725335" lon="9.351150572726837"><ele>277.0</ele><time>2026-04-12T06:22:30Z</time></trkpt><trkpt lat="45.790185124475116" lon="9.35127173575593"><ele>277.0</ele><time>2026-04-12T06:22:31Z</time></trkpt><trkpt lat="45.79026529927732" lon="9.35137892719338"><ele>277.5</ele><time>2026-04-12T06:22:32Z</time></trkpt><trkpt lat="45.79035189881749" lon="9.351488989859757"><ele>278.0</ele><time>2026-04-12T06:22:33Z</time></trkpt><trkpt lat="45.79044456482029" lon="9.351592912162241"><ele>278.5</ele><time>2026-04-12T06:22:34Z</time></trkpt><trkpt lat="45.79054659379345" lon="9.351685873649465"><ele>279.0</ele><time>2026-04-12T06:22:35Z</time></trkpt><trkpt lat="45.79065572966464" lon="9.35177781530818"><ele>279.0</ele><time>2026-04-12T06:22:36Z</time></trkpt><trkpt lat="45.79076648857851" lon="9.351851441722081"><ele>279.0</ele><time>2026-04-12T06:22:37Z</time></trkpt><trkpt lat="45.790879155896334" lon="9.351917752103741"><ele>279.0</ele><time>2026-04-12T06:22:38Z</time></trkpt><trkpt lat="45.79099698368995" lon="9.351982003182252"><ele>279.0</ele><time>2026-04-12T06:22:39Z</time></trkpt><trkpt lat="45.791114157877054" lon="9.352039630614831"><ele>278.75</ele><time>2026-04-12T06:22:40Z</time></trkpt><trkpt lat="45.791222573525985" lon="9.352093155439443"><ele>278.5</ele><time>2026-04-12T06:22:41Z</time></trkpt><trkpt lat="45.79133895954337" lon="9.352143361529345"><ele>278.25</ele><time>2026-04-12T06:22:42Z</time></trkpt><trkpt lat="45.79145012018041" lon="9.352195055419022"><ele>278.0</ele><time>2026-04-12T06:22:43Z</time></trkpt><trkpt lat="45.79154970668659" lon="9.352243082363284"><ele>279.0</ele><time>2026-04-12T06:22:44Z</time></trkpt><trkpt lat="45.791644944247004" lon="9.352289472365522"><ele>280.0</ele><time>2026-04-12T06:22:45Z</time></trkpt><trkpt lat="45.79172308472676" lon="9.352330808060442"><ele>281.0</ele><time>2026-04-12T06:22:46Z</time></trkpt><trkpt lat="45.791797760176095" lon="9.3523690844643"><ele>282.0</ele><time>2026-04-12T06:22:47Z</time></trkpt><trkpt lat="45.79186205546389" lon="9.352399008723562"><ele>283.0</ele><time>2026-04-12T06:22:48Z</time></trkpt><trkpt lat="45.79192796409975" lon="9.352423531209347"><ele>284.0</ele><time>2026-04-12T06:22:49Z</time></trkpt><trkpt lat="45.79204144942439" lon="9.352468453364583"><ele>284.0</ele><time>2026-04-12T06:22:50.999Z</time></trkpt><trkpt lat="45.7921022323077" lon="9.35249274027397"><ele>284.0</ele><time>2026-04-12T06:22:51.999Z</time></trkpt><trkpt lat="45.792167517098484" lon="9.352517577625775"><ele>284.0</ele><time>2026-04-12T06:22:52.999Z</time></trkpt><trkpt lat="45.7922420552112" lon="9.352547728485211"><ele>284.0</ele><time>2026-04-12T06:22:53.999Z</time></trkpt><trkpt lat="45.79232667158169" lon="9.352585688158497"><ele>284.0</ele><time>2026-04-12T06:22:54.999Z</time></trkpt><trkpt lat="45.7924116320357" lon="9.352630873793057"><ele>284.0</ele><time>2026-04-12T06:22:55.999Z</time></trkpt><trkpt lat="45.79250312666748" lon="9.352683699176158"><ele>284.0</ele><time>2026-04-12T06:22:56.999Z</time></trkpt><trkpt lat="45.79260048263739" lon="9.352735135853669"><ele>284.0</ele><time>2026-04-12T06:22:57.999Z</time></trkpt><trkpt lat="45.792701527451975" lon="9.352781797085523"><ele>284.0</ele><time>2026-04-12T06:22:58.999Z</time></trkpt><trkpt lat="45.79280563657898" lon="9.352829920098317"><ele>284.0</ele><time>2026-04-12T06:22:59.999Z</time></trkpt><trkpt lat="45.79290556704032" lon="9.352879822017488"><ele>284.0</ele><time>2026-04-12T06:23:00.999Z</time></trkpt><trkpt lat="45.793001042621604" lon="9.35292484193206"><ele>284.1666666666667</ele><time>2026-04-12T06:23:01.999Z</time></trkpt><trkpt lat="45.79308368529781" lon="9.352967922766148"><ele>284.33333333333337</ele><time>2026-04-12T06:23:02.999Z</time></trkpt><trkpt lat="45.79316320720553" lon="9.353017237226844"><ele>284.5</ele><time>2026-04-12T06:23:03.999Z</time></trkpt><trkpt lat="45.79323266156504" lon="9.353069392255202"><ele>284.6666666666667</ele><time>2026-04-12T06:23:04.999Z</time></trkpt><trkpt lat="45.79329093988447" lon="9.35312826358091"><ele>284.8333333333333</ele><time>2026-04-12T06:23:05.999Z</time></trkpt><trkpt lat="45.79334130118055" lon="9.353185389892984"><ele>285.0</ele><time>2026-04-12T06:23:06.999Z</time></trkpt><trkpt lat="45.793419354456695" lon="9.35332015386631"><ele>285.0</ele><time>2026-04-12T06:23:08.999Z</time></trkpt><trkpt lat="45.79350548529706" lon="9.353428895782045"><ele>285.0</ele><time>2026-04-12T06:23:10.999Z</time></trkpt><trkpt lat="45.79358079645771" lon="9.353442142224022"><ele>285.0</ele><time>2026-04-12T06:23:11.999Z</time></trkpt><trkpt lat="45.79367218851688" lon="9.353313502014847"><ele>285.0</ele><time>2026-04-12T06:23:13.999Z</time></trkpt><trkpt lat="45.79374888398213" lon="9.353269945957313"><ele>285.0</ele><time>2026-04-12T06:23:14.999Z</time></trkpt><trkpt lat="45.79383364336621" lon="9.353265966616103"><ele>285.0</ele><time>2026-04-12T06:23:15.999Z</time></trkpt><trkpt lat="45.793933021431044" lon="9.353281520481296"><ele>285.0</ele><time>2026-04-12T06:23:16.999Z</time></trkpt><trkpt lat="45.79403243039934" lon="9.353305500767934"><ele>285.0</ele><time>2026-04-12T06:23:17.999Z</time></trkpt><trkpt lat="45.79413562783897" lon="9.353348781036997"><ele>285.0</ele><time>2026-04-12T06:23:18.999Z</time></trkpt><trkpt lat="45.79425072403953" lon="9.353395732249052"><ele>285.0</ele><time>2026-04-12T06:23:19.999Z</time></trkpt><trkpt lat="45.79437093396338" lon="9.35346325372211"><ele>283.0</ele><time>2026-04-12T06:23:20.999Z</time></trkpt><trkpt lat="45.794480828658386" lon="9.353561458617612"><ele>281.0</ele><time>2026-04-12T06:23:21.999Z</time></trkpt><trkpt lat="45.794585382581" lon="9.353694573297748"><ele>279.0</ele><time>2026-04-12T06:23:22.999Z</time></trkpt><trkpt lat="45.79467617683284" lon="9.353858665323814"><ele>277.0</ele><time>2026-04-12T06:23:23.999Z</time></trkpt><trkpt lat="45.79475063349204" lon="9.354042534717845"><ele>277.0</ele><time>2026-04-12T06:23:25Z</time></trkpt><trkpt lat="45.79479940305283" lon="9.35424163790686"><ele>277.0</ele><time>2026-04-12T06:23:26Z</time></trkpt><trkpt lat="45.79482990074879" lon="9.354465256351018"><ele>277.0</ele><time>2026-04-12T06:23:27Z</time></trkpt><trkpt lat="45.7948459793978" lon="9.354685346866868"><ele>277.5</ele><time>2026-04-12T06:23:28Z</time></trkpt><trkpt lat="45.79484806887863" lon="9.354901449340092"><ele>278.0</ele><time>2026-04-12T06:23:29Z</time></trkpt><trkpt lat="45.794870464629916" lon="9.355113526701595"><ele>278.5</ele><time>2026-04-12T06:23:30Z</time></trkpt><trkpt lat="45.79491022755358" lon="9.355317654444885"><ele>279.0</ele><time>2026-04-12T06:23:31Z</time></trkpt><trkpt lat="45.79497263434459" lon="9.355513226418406"><ele>278.6666666666667</ele><time>2026-04-12T06:23:32Z</time></trkpt><trkpt lat="45.795061709551476" lon="9.355697042729746"><ele>278.33333333333337</ele><time>2026-04-12T06:23:33Z</time></trkpt><trkpt lat="45.795173995029806" lon="9.355854246725034"><ele>278.0</ele><time>2026-04-12T06:23:34Z</time></trkpt><trkpt lat="45.79530574150077" lon="9.355987541411276"><ele>274.0</ele><time>2026-04-12T06:23:35Z</time></trkpt><trkpt lat="45.79545316791214" lon="9.35608873654603"><ele>270.0</ele><time>2026-04-12T06:23:36Z</time></trkpt><trkpt lat="45.795613289583365" lon="9.35616207013269"><ele>266.0</ele><time>2026-04-12T06:23:37Z</time></trkpt><trkpt lat="45.79577716563586" lon="9.356231431179049"><ele>266.0</ele><time>2026-04-12T06:23:38Z</time></trkpt><trkpt lat="45.795949238400375" lon="9.35629506947885"><ele>266.0</ele><time>2026-04-12T06:23:39Z</time></trkpt><trkpt lat="45.79612219602088" lon="9.356369782021352"><ele>266.0</ele><time>2026-04-12T06:23:40Z</time></trkpt><trkpt lat="45.79629574744835" lon="9.35643685406717"><ele>270.6666666666667</ele><time>2026-04-12T06:23:41Z</time></trkpt><trkpt lat="45.79646913182692" lon="9.356503920195783"><ele>275.3333333333333</ele><time>2026-04-12T06:23:42Z</time></trkpt><trkpt lat="45.796642942097606" lon="9.356571258763354"><ele>280.0</ele><time>2026-04-12T06:23:43Z</time></trkpt><trkpt lat="45.79681766309027" lon="9.356640228007661"><ele>275.3333333333333</ele><time>2026-04-12T06:23:44Z</time></trkpt><trkpt lat="45.79698851396246" lon="9.356709420426421"><ele>270.6666666666667</ele><time>2026-04-12T06:23:45Z</time></trkpt><trkpt lat="45.79716110089039" lon="9.356778599398575"><ele>266.0</ele><time>2026-04-12T06:23:46Z</time></trkpt><trkpt lat="45.79733738468393" lon="9.356851982327102"><ele>266.0</ele><time>2026-04-12T06:23:47Z</time></trkpt><trkpt lat="45.79751921955008" lon="9.35692002627144"><ele>266.0</ele><time>2026-04-12T06:23:48Z</time></trkpt><trkpt lat="45.79770264293466" lon="9.356990744892741"><ele>266.0</ele><time>2026-04-12T06:23:49Z</time></trkpt><trkpt lat="45.79786976114679" lon="9.357057438039012"><ele>268.0</ele><time>2026-04-12T06:23:50Z</time></trkpt><trkpt lat="45.79804099468303" lon="9.35712581556424"><ele>270.0</ele><time>2026-04-12T06:23:51Z</time></trkpt><trkpt lat="45.798212206323434" lon="9.357197145300326"><ele>272.0</ele><time>2026-04-12T06:23:52Z</time></trkpt><trkpt lat="45.79837288964352" lon="9.357263733900233"><ele>268.5</ele><time>2026-04-12T06:23:53Z</time></trkpt><trkpt lat="45.79851105067147" lon="9.357319412655631"><ele>265.0</ele><time>2026-04-12T06:23:54Z</time></trkpt><trkpt lat="45.79862254499685" lon="9.357363763215009"><ele>261.5</ele><time>2026-04-12T06:23:55Z</time></trkpt><trkpt lat="45.798724096984984" lon="9.357405570889355"><ele>258.0</ele><time>2026-04-12T06:23:56Z</time></trkpt><trkpt lat="45.798834664779086" lon="9.357451306637456"><ele>258.0</ele><time>2026-04-12T06:23:57Z</time></trkpt><trkpt lat="45.79895170722306" lon="9.357499091005051"><ele>258.0</ele><time>2026-04-12T06:23:58Z</time></trkpt><trkpt lat="45.79907149570077" lon="9.357544651728368"><ele>258.0</ele><time>2026-04-12T06:23:59Z</time></trkpt><trkpt lat="45.79918956723156" lon="9.357595805546895"><ele>258.0</ele><time>2026-04-12T06:24:00Z</time></trkpt><trkpt lat="45.799317794856584" lon="9.357648219547617"><ele>255.33333333333331</ele><time>2026-04-12T06:24:01Z</time></trkpt><trkpt lat="45.799458423860955" lon="9.357706437544644"><ele>252.66666666666666</ele><time>2026-04-12T06:24:02Z</time></trkpt><trkpt lat="45.79960591015387" lon="9.357766447003954"><ele>250.0</ele><time>2026-04-12T06:24:03Z</time></trkpt><trkpt lat="45.79977428475457" lon="9.357828899655377"><ele>250.0</ele><time>2026-04-12T06:24:04Z</time></trkpt><trkpt lat="45.79993718121489" lon="9.357893061568639"><ele>250.0</ele><time>2026-04-12T06:24:05Z</time></trkpt><trkpt lat="45.80010044632345" lon="9.357955170528827"><ele>250.0</ele><time>2026-04-12T06:24:06Z</time></trkpt><trkpt lat="45.800276869012656" lon="9.358022473223754"><ele>250.33333333333331</ele><time>2026-04-12T06:24:07Z</time></trkpt><trkpt lat="45.80045135744198" lon="9.358090458334708"><ele>250.66666666666669</ele><time>2026-04-12T06:24:08Z</time></trkpt><trkpt lat="45.80062258472938" lon="9.358161928022138"><ele>251.0</ele><time>2026-04-12T06:24:09Z</time></trkpt><trkpt lat="45.8007974378054" lon="9.358234623339149"><ele>251.0</ele><time>2026-04-12T06:24:10Z</time></trkpt><trkpt lat="45.800972891717656" lon="9.358304838254128"><ele>251.0</ele><time>2026-04-12T06:24:11Z</time></trkpt><trkpt lat="45.80114671622889" lon="9.358378664578062"><ele>251.0</ele><time>2026-04-12T06:24:12Z</time></trkpt><trkpt lat="45.801320374561826" lon="9.358451643219503"><ele>247.66666666666669</ele><time>2026-04-12T06:24:13Z</time></trkpt><trkpt lat="45.80151757085973" lon="9.35852421570608"><ele>244.33333333333331</ele><time>2026-04-12T06:24:14Z</time></trkpt><trkpt lat="45.80170333830583" lon="9.358599990034895"><ele>241.0</ele><time>2026-04-12T06:24:15Z</time></trkpt><trkpt lat="45.80189247455477" lon="9.358677720965538"><ele>239.66666666666666</ele><time>2026-04-12T06:24:16Z</time></trkpt><trkpt lat="45.80208711750965" lon="9.358754172661575"><ele>238.33333333333331</ele><time>2026-04-12T06:24:17Z</time></trkpt><trkpt lat="45.8022634896363" lon="9.358828036244356"><ele>237.0</ele><time>2026-04-12T06:24:18Z</time></trkpt><trkpt lat="45.802408072421905" lon="9.35889583579841"><ele>238.6</ele><time>2026-04-12T06:24:19Z</time></trkpt><trkpt lat="45.80253908004519" lon="9.358950895214138"><ele>240.2</ele><time>2026-04-12T06:24:20Z</time></trkpt><trkpt lat="45.80264587477884" lon="9.358990526787805"><ele>241.8</ele><time>2026-04-12T06:24:21Z</time></trkpt><trkpt lat="45.80273027366284" lon="9.359019649727667"><ele>243.4</ele><time>2026-04-12T06:24:22Z</time></trkpt><trkpt lat="45.80280019053595" lon="9.359042194547603"><ele>245.0</ele><time>2026-04-12T06:24:23Z</time></trkpt><trkpt lat="45.80286449888626" lon="9.359061307662746"><ele>245.00000000000003</ele><time>2026-04-12T06:24:24Z</time></trkpt><trkpt lat="45.802928339500816" lon="9.35908764021529"><ele>245.0</ele><time>2026-04-12T06:24:25Z</time></trkpt><trkpt lat="45.80299167674822" lon="9.35913518375315"><ele>245.0</ele><time>2026-04-12T06:24:26Z</time></trkpt><trkpt lat="45.803045441043615" lon="9.359191727198615"><ele>245.0</ele><time>2026-04-12T06:24:27Z</time></trkpt><trkpt lat="45.80317266159354" lon="9.359202151811552"><ele>245.00000000000003</ele><time>2026-04-12T06:24:29Z</time></trkpt><trkpt lat="45.80324171875568" lon="9.359161708238187"><ele>245.0</ele><time>2026-04-12T06:24:30Z</time></trkpt><trkpt lat="45.8033181231364" lon="9.359101719910743"><ele>245.0</ele><time>2026-04-12T06:24:31Z</time></trkpt><trkpt lat="45.803405429426796" lon="9.35905875404541"><ele>245.0</ele><time>2026-04-12T06:24:32Z</time></trkpt><trkpt lat="45.80350768672109" lon="9.359018125226749"><ele>245.0</ele><time>2026-04-12T06:24:33Z</time></trkpt><trkpt lat="45.80361664754348" lon="9.358975252716938"><ele>245.0</ele><time>2026-04-12T06:24:34Z</time></trkpt><trkpt lat="45.803732604764086" lon="9.358930344179246"><ele>245.0</ele><time>2026-04-12T06:24:35Z</time></trkpt><trkpt lat="45.80385084824247" lon="9.358881902191163"><ele>241.5</ele><time>2026-04-12T06:24:36Z</time></trkpt><trkpt lat="45.803976891260874" lon="9.358834549557262"><ele>238.0</ele><time>2026-04-12T06:24:37Z</time></trkpt><trkpt lat="45.8041014687373" lon="9.358792996026049"><ele>234.5</ele><time>2026-04-12T06:24:38Z</time></trkpt><trkpt lat="45.80423336183828" lon="9.358758954428005"><ele>231.0</ele><time>2026-04-12T06:24:39Z</time></trkpt><trkpt lat="45.80437262501053" lon="9.35873544178488"><ele>231.0</ele><time>2026-04-12T06:24:40Z</time></trkpt><trkpt lat="45.80451657982575" lon="9.358727443455674"><ele>231.0</ele><time>2026-04-12T06:24:41Z</time></trkpt><trkpt lat="45.804665077740076" lon="9.358738521571745"><ele>231.0</ele><time>2026-04-12T06:24:42Z</time></trkpt><trkpt lat="45.80481967809753" lon="9.358761812031853"><ele>231.0</ele><time>2026-04-12T06:24:43Z</time></trkpt><trkpt lat="45.80497222806195" lon="9.358798355852349"><ele>231.0</ele><time>2026-04-12T06:24:44Z</time></trkpt><trkpt lat="45.805128313621296" lon="9.358836386795636"><ele>231.0</ele><time>2026-04-12T06:24:45Z</time></trkpt><trkpt lat="45.805287215793044" lon="9.358869535896078"><ele>231.0</ele><time>2026-04-12T06:24:46Z</time></trkpt><trkpt lat="45.80544808379592" lon="9.358905512575703"><ele>230.0</ele><time>2026-04-12T06:24:47Z</time></trkpt><trkpt lat="45.80560953786183" lon="9.358940890811345"><ele>229.0</ele><time>2026-04-12T06:24:48Z</time></trkpt><trkpt lat="45.80577971140209" lon="9.35897081939929"><ele>228.0</ele><time>2026-04-12T06:24:49Z</time></trkpt><trkpt lat="45.80595029682601" lon="9.35900469055318"><ele>228.0</ele><time>2026-04-12T06:24:50Z</time></trkpt><trkpt lat="45.80612154936567" lon="9.359039482263155"><ele>228.0</ele><time>2026-04-12T06:24:51Z</time></trkpt><trkpt lat="45.806293836655506" lon="9.359077776689093"><ele>228.0</ele><time>2026-04-12T06:24:52Z</time></trkpt><trkpt lat="45.80646314761399" lon="9.35911719700355"><ele>228.0</ele><time>2026-04-12T06:24:53Z</time></trkpt><trkpt lat="45.806630243367906" lon="9.359157981702142"><ele>228.0</ele><time>2026-04-12T06:24:54Z</time></trkpt><trkpt lat="45.80678771361359" lon="9.359193244260746"><ele>228.0</ele><time>2026-04-12T06:24:55Z</time></trkpt><trkpt lat="45.80694502014609" lon="9.359227245700707"><ele>227.33333333333331</ele><time>2026-04-12T06:24:56Z</time></trkpt><trkpt lat="45.807103802319986" lon="9.359260758791418"><ele>226.66666666666666</ele><time>2026-04-12T06:24:57Z</time></trkpt><trkpt lat="45.80725679892163" lon="9.35929198669243"><ele>226.0</ele><time>2026-04-12T06:24:58Z</time></trkpt><trkpt lat="45.80740812790446" lon="9.359324198887492"><ele>226.0</ele><time>2026-04-12T06:24:59Z</time></trkpt><trkpt lat="45.80755891437259" lon="9.359354796359987"><ele>226.0</ele><time>2026-04-12T06:25:00Z</time></trkpt><trkpt lat="45.807712662386265" lon="9.359384194619771"><ele>226.0</ele><time>2026-04-12T06:25:01Z</time></trkpt><trkpt lat="45.807872946161545" lon="9.359414533381136"><ele>226.66666666666666</ele><time>2026-04-12T06:25:02Z</time></trkpt><trkpt lat="45.80803609990752" lon="9.359447244403855"><ele>227.33333333333331</ele><time>2026-04-12T06:25:02.999Z</time></trkpt><trkpt lat="45.80820068053615" lon="9.359481367692272"><ele>228.0</ele><time>2026-04-12T06:25:03.999Z</time></trkpt><trkpt lat="45.80836746427763" lon="9.359510362734856"><ele>228.0</ele><time>2026-04-12T06:25:04.999Z</time></trkpt><trkpt lat="45.80853809932514" lon="9.359547150893023"><ele>228.0</ele><time>2026-04-12T06:25:05.999Z</time></trkpt><trkpt lat="45.80870547118333" lon="9.359584868593368"><ele>228.0</ele><time>2026-04-12T06:25:06.999Z</time></trkpt><trkpt lat="45.808872175187986" lon="9.359624058218706"><ele>228.0</ele><time>2026-04-12T06:25:07.999Z</time></trkpt><trkpt lat="45.80903853747864" lon="9.35966197263727"><ele>228.0</ele><time>2026-04-12T06:25:08.999Z</time></trkpt><trkpt lat="45.809206759848564" lon="9.359698439537635"><ele>228.0</ele><time>2026-04-12T06:25:09.999Z</time></trkpt><trkpt lat="45.80937438969725" lon="9.359732901209982"><ele>228.33333333333331</ele><time>2026-04-12T06:25:10.999Z</time></trkpt><trkpt lat="45.80953945155548" lon="9.359768724123711"><ele>228.66666666666666</ele><time>2026-04-12T06:25:11.999Z</time></trkpt><trkpt lat="45.80971345620106" lon="9.359801545856802"><ele>229.0</ele><time>2026-04-12T06:25:12.999Z</time></trkpt><trkpt lat="45.80988693319864" lon="9.359836009531675"><ele>229.0</ele><time>2026-04-12T06:25:13.999Z</time></trkpt><trkpt lat="45.81005966146532" lon="9.359872712949162"><ele>229.0</ele><time>2026-04-12T06:25:14.999Z</time></trkpt><trkpt lat="45.8102289316696" lon="9.359908334984716"><ele>229.0</ele><time>2026-04-12T06:25:15.999Z</time></trkpt><trkpt lat="45.81039634386116" lon="9.35994388826581"><ele>228.0</ele><time>2026-04-12T06:25:16.999Z</time></trkpt><trkpt lat="45.810564413532035" lon="9.35997756603973"><ele>227.0</ele><time>2026-04-12T06:25:17.999Z</time></trkpt><trkpt lat="45.81072881395791" lon="9.36000180607826"><ele>226.0</ele><time>2026-04-12T06:25:18.999Z</time></trkpt><trkpt lat="45.810892833096965" lon="9.360016333878384"><ele>225.66666666666666</ele><time>2026-04-12T06:25:19.999Z</time></trkpt><trkpt lat="45.811055415298284" lon="9.360018927451387"><ele>225.33333333333331</ele><time>2026-04-12T06:25:20.999Z</time></trkpt><trkpt lat="45.81121595521181" lon="9.360013555144237"><ele>225.0</ele><time>2026-04-12T06:25:21.999Z</time></trkpt><trkpt lat="45.811376421110474" lon="9.360000910045459"><ele>225.0</ele><time>2026-04-12T06:25:22.999Z</time></trkpt><trkpt lat="45.81153259862977" lon="9.359986918716688"><ele>225.0</ele><time>2026-04-12T06:25:23.999Z</time></trkpt><trkpt lat="45.8116798976666" lon="9.359970211835881"><ele>225.0</ele><time>2026-04-12T06:25:24.999Z</time></trkpt><trkpt lat="45.81183513435727" lon="9.359962165797823"><ele>225.33333333333331</ele><time>2026-04-12T06:25:25.999Z</time></trkpt><trkpt lat="45.81199013394572" lon="9.359956516828262"><ele>225.66666666666666</ele><time>2026-04-12T06:25:26.999Z</time></trkpt><trkpt lat="45.81214659878793" lon="9.359950284251479"><ele>226.0</ele><time>2026-04-12T06:25:27.999Z</time></trkpt><trkpt lat="45.81230187567796" lon="9.359940475418497"><ele>226.0</ele><time>2026-04-12T06:25:28.999Z</time></trkpt><trkpt lat="45.81245641031307" lon="9.359931482650373"><ele>226.0</ele><time>2026-04-12T06:25:29.999Z</time></trkpt><trkpt lat="45.81261060944381" lon="9.359920333481472"><ele>226.0</ele><time>2026-04-12T06:25:31Z</time></trkpt><trkpt lat="45.81276345254933" lon="9.359911989719345"><ele>228.66666666666666</ele><time>2026-04-12T06:25:32Z</time></trkpt><trkpt lat="45.81291766617872" lon="9.359904561492781"><ele>231.33333333333331</ele><time>2026-04-12T06:25:33Z</time></trkpt><trkpt lat="45.81307223400432" lon="9.359896786965546"><ele>234.0</ele><time>2026-04-12T06:25:34Z</time></trkpt><trkpt lat="45.81322592239681" lon="9.35989093669633"><ele>234.0</ele><time>2026-04-12T06:25:35Z</time></trkpt><trkpt lat="45.81337565309485" lon="9.359885187931608"><ele>234.0</ele><time>2026-04-12T06:25:36Z</time></trkpt><trkpt lat="45.813530223371885" lon="9.359875088497988"><ele>234.0</ele><time>2026-04-12T06:25:37Z</time></trkpt><trkpt lat="45.81368260288529" lon="9.359865078571646"><ele>232.66666666666669</ele><time>2026-04-12T06:25:38Z</time></trkpt><trkpt lat="45.81383584531028" lon="9.359853415787903"><ele>231.33333333333334</ele><time>2026-04-12T06:25:39Z</time></trkpt><trkpt lat="45.81398799772107" lon="9.359843760212934"><ele>230.0</ele><time>2026-04-12T06:25:40Z</time></trkpt><trkpt lat="45.81413793869465" lon="9.359832295090413"><ele>230.0</ele><time>2026-04-12T06:25:41Z</time></trkpt><trkpt lat="45.81429234188787" lon="9.35981937946944"><ele>230.0</ele><time>2026-04-12T06:25:42Z</time></trkpt><trkpt lat="45.81444035971077" lon="9.359811833130596"><ele>230.0</ele><time>2026-04-12T06:25:43Z</time></trkpt><trkpt lat="45.81458939411399" lon="9.35980358886483"><ele>229.5</ele><time>2026-04-12T06:25:44Z</time></trkpt><trkpt lat="45.814735983508086" lon="9.359792489085482"><ele>229.0</ele><time>2026-04-12T06:25:45Z</time></trkpt><trkpt lat="45.814878530267" lon="9.359782562963277"><ele>228.5</ele><time>2026-04-12T06:25:46Z</time></trkpt><trkpt lat="45.8150124526702" lon="9.35977757793053"><ele>228.0</ele><time>2026-04-12T06:25:47Z</time></trkpt><trkpt lat="45.815143449637105" lon="9.359773531792516"><ele>228.0</ele><time>2026-04-12T06:25:48Z</time></trkpt><trkpt lat="45.815269054211775" lon="9.359772639747884"><ele>228.0</ele><time>2026-04-12T06:25:49Z</time></trkpt><trkpt lat="45.81539530550397" lon="9.359775248516764"><ele>228.0</ele><time>2026-04-12T06:25:50Z</time></trkpt><trkpt lat="45.815520290188054" lon="9.359783756478173"><ele>228.0</ele><time>2026-04-12T06:25:51Z</time></trkpt><trkpt lat="45.81563915278786" lon="9.359810797927015"><ele>228.0</ele><time>2026-04-12T06:25:52Z</time></trkpt><trkpt lat="45.815762010581956" lon="9.359848352586921"><ele>228.0</ele><time>2026-04-12T06:25:53Z</time></trkpt><trkpt lat="45.81588545967067" lon="9.359898894247035"><ele>228.0</ele><time>2026-04-12T06:25:54Z</time></trkpt><trkpt lat="45.81600631223924" lon="9.359951306846426"><ele>228.0</ele><time>2026-04-12T06:25:55Z</time></trkpt><trkpt lat="45.816131345039935" lon="9.360007873385323"><ele>227.25</ele><time>2026-04-12T06:25:56Z</time></trkpt><trkpt lat="45.81625460617423" lon="9.360060647111913"><ele>226.5</ele><time>2026-04-12T06:25:57Z</time></trkpt><trkpt lat="45.81637215067324" lon="9.360111233272615"><ele>225.75</ele><time>2026-04-12T06:25:58Z</time></trkpt><trkpt lat="45.816485078890544" lon="9.360159296736505"><ele>225.0</ele><time>2026-04-12T06:25:59Z</time></trkpt><trkpt lat="45.81659840380966" lon="9.360207670282632"><ele>225.0</ele><time>2026-04-12T06:26:00Z</time></trkpt><trkpt lat="45.816705833678" lon="9.36028237855231"><ele>225.0</ele><time>2026-04-12T06:26:01Z</time></trkpt><trkpt lat="45.81682554689097" lon="9.360333705151128"><ele>225.0</ele><time>2026-04-12T06:26:02Z</time></trkpt><trkpt lat="45.816949369408505" lon="9.360386491440178"><ele>225.0</ele><time>2026-04-12T06:26:03Z</time></trkpt><trkpt lat="45.8170723299228" lon="9.3604395246879"><ele>225.0</ele><time>2026-04-12T06:26:04Z</time></trkpt><trkpt lat="45.8171952315826" lon="9.360495098040563"><ele>225.0</ele><time>2026-04-12T06:26:05Z</time></trkpt><trkpt lat="45.81732296685552" lon="9.360553376524805"><ele>225.0</ele><time>2026-04-12T06:26:06Z</time></trkpt><trkpt lat="45.81745414018694" lon="9.36061043557065"><ele>225.0</ele><time>2026-04-12T06:26:07Z</time></trkpt><trkpt lat="45.81758932495377" lon="9.3606667956185"><ele>225.75</ele><time>2026-04-12T06:26:08Z</time></trkpt><trkpt lat="45.817727401395345" lon="9.360719586608521"><ele>226.5</ele><time>2026-04-12T06:26:09Z</time></trkpt><trkpt lat="45.817865155216644" lon="9.360770356604915"><ele>227.25</ele><time>2026-04-12T06:26:10Z</time></trkpt><trkpt lat="45.81800369227328" lon="9.360812809657357"><ele>228.0</ele><time>2026-04-12T06:26:11Z</time></trkpt><trkpt lat="45.81815270735748" lon="9.360835548377892"><ele>228.0</ele><time>2026-04-12T06:26:12Z</time></trkpt><trkpt lat="45.81830587814951" lon="9.360837778459658"><ele>228.0</ele><time>2026-04-12T06:26:13Z</time></trkpt><trkpt lat="45.818450961052115" lon="9.360823138046294"><ele>228.0</ele><time>2026-04-12T06:26:14Z</time></trkpt><trkpt lat="45.81859835309249" lon="9.360787748292411"><ele>228.0</ele><time>2026-04-12T06:26:15Z</time></trkpt><trkpt lat="45.81874572442503" lon="9.36074020973498"><ele>227.66666666666669</ele><time>2026-04-12T06:26:16Z</time></trkpt><trkpt lat="45.818889030765696" lon="9.360676143959932"><ele>227.33333333333334</ele><time>2026-04-12T06:26:17Z</time></trkpt><trkpt lat="45.81902773228611" lon="9.3605917526892"><ele>227.0</ele><time>2026-04-12T06:26:18Z</time></trkpt><trkpt lat="45.81916572493182" lon="9.360488468762421"><ele>227.0</ele><time>2026-04-12T06:26:19Z</time></trkpt><trkpt lat="45.8193062485926" lon="9.360381258782349"><ele>227.0</ele><time>2026-04-12T06:26:20Z</time></trkpt><trkpt lat="45.81944126577734" lon="9.360266399408772"><ele>227.0</ele><time>2026-04-12T06:26:21Z</time></trkpt><trkpt lat="45.81957465484218" lon="9.360152339272735"><ele>228.0</ele><time>2026-04-12T06:26:22Z</time></trkpt><trkpt lat="45.81971288223531" lon="9.36003566771448"><ele>229.0</ele><time>2026-04-12T06:26:23Z</time></trkpt><trkpt lat="45.81985055459114" lon="9.359920123433728"><ele>230.0</ele><time>2026-04-12T06:26:24Z</time></trkpt><trkpt lat="45.819986705663005" lon="9.359808177886697"><ele>229.0</ele><time>2026-04-12T06:26:25Z</time></trkpt><trkpt lat="45.82012652576222" lon="9.359691469164318"><ele>228.0</ele><time>2026-04-12T06:26:26Z</time></trkpt><trkpt lat="45.82026982770063" lon="9.359573038686909"><ele>227.0</ele><time>2026-04-12T06:26:27Z</time></trkpt><trkpt lat="45.82040621844171" lon="9.359452093912417"><ele>227.0</ele><time>2026-04-12T06:26:28Z</time></trkpt><trkpt lat="45.82053864669567" lon="9.359336022758573"><ele>227.0</ele><time>2026-04-12T06:26:29Z</time></trkpt><trkpt lat="45.820670278101574" lon="9.35922286260218"><ele>227.0</ele><time>2026-04-12T06:26:30Z</time></trkpt><trkpt lat="45.820800670331074" lon="9.35910957101319"><ele>227.0</ele><time>2026-04-12T06:26:31Z</time></trkpt><trkpt lat="45.82093281167366" lon="9.358997232931753"><ele>227.0</ele><time>2026-04-12T06:26:32Z</time></trkpt><trkpt lat="45.821066223815244" lon="9.358888930549787"><ele>227.0</ele><time>2026-04-12T06:26:33Z</time></trkpt><trkpt lat="45.82120261984987" lon="9.358779489336095"><ele>227.0</ele><time>2026-04-12T06:26:34Z</time></trkpt><trkpt lat="45.82133643418579" lon="9.358672345918402"><ele>227.0</ele><time>2026-04-12T06:26:35Z</time></trkpt><trkpt lat="45.821473493512656" lon="9.358559786714212"><ele>227.0</ele><time>2026-04-12T06:26:36Z</time></trkpt><trkpt lat="45.82161104314993" lon="9.358443738448623"><ele>227.0</ele><time>2026-04-12T06:26:37Z</time></trkpt><trkpt lat="45.82174855751879" lon="9.358325478515455"><ele>227.0</ele><time>2026-04-12T06:26:38Z</time></trkpt><trkpt lat="45.821889324679844" lon="9.358207536248072"><ele>227.0</ele><time>2026-04-12T06:26:39Z</time></trkpt><trkpt lat="45.82202788704168" lon="9.35808922487251"><ele>227.33333333333334</ele><time>2026-04-12T06:26:40Z</time></trkpt><trkpt lat="45.822167581427365" lon="9.35797096674417"><ele>227.66666666666669</ele><time>2026-04-12T06:26:41Z</time></trkpt><trkpt lat="45.822307957088434" lon="9.357847615503077"><ele>228.0</ele><time>2026-04-12T06:26:42Z</time></trkpt><trkpt lat="45.822445804953055" lon="9.357738594787392"><ele>228.0</ele><time>2026-04-12T06:26:43Z</time></trkpt><trkpt lat="45.8225826495459" lon="9.357624389471258"><ele>228.0</ele><time>2026-04-12T06:26:44Z</time></trkpt><trkpt lat="45.82271781671104" lon="9.357510405106638"><ele>228.0</ele><time>2026-04-12T06:26:45Z</time></trkpt><trkpt lat="45.822851218689664" lon="9.357397672639703"><ele>228.0</ele><time>2026-04-12T06:26:46Z</time></trkpt><trkpt lat="45.82298501048972" lon="9.357287953333211"><ele>228.0</ele><time>2026-04-12T06:26:47Z</time></trkpt><trkpt lat="45.82312165559546" lon="9.357186345921942"><ele>228.0</ele><time>2026-04-12T06:26:48Z</time></trkpt><trkpt lat="45.8232588578252" lon="9.357087231203117"><ele>228.0</ele><time>2026-04-12T06:26:49Z</time></trkpt><trkpt lat="45.82339936334834" lon="9.357007575837933"><ele>228.0</ele><time>2026-04-12T06:26:50Z</time></trkpt><trkpt lat="45.82354778961943" lon="9.35695259379237"><ele>228.0</ele><time>2026-04-12T06:26:51Z</time></trkpt><trkpt lat="45.82369718792151" lon="9.356908677528429"><ele>228.33333333333331</ele><time>2026-04-12T06:26:52Z</time></trkpt><trkpt lat="45.82384849197563" lon="9.356862803754384"><ele>228.66666666666666</ele><time>2026-04-12T06:26:53Z</time></trkpt><trkpt lat="45.82399870118848" lon="9.35681885122878"><ele>229.0</ele><time>2026-04-12T06:26:54Z</time></trkpt><trkpt lat="45.824149641005285" lon="9.356771928151066"><ele>229.0</ele><time>2026-04-12T06:26:55Z</time></trkpt><trkpt lat="45.82430082531187" lon="9.356725420162077"><ele>229.0</ele><time>2026-04-12T06:26:56Z</time></trkpt><trkpt lat="45.82445155214747" lon="9.35668153402044"><ele>229.0</ele><time>2026-04-12T06:26:57Z</time></trkpt><trkpt lat="45.82460312277135" lon="9.356639565652207"><ele>231.66666666666666</ele><time>2026-04-12T06:26:58Z</time></trkpt><trkpt lat="45.82475040223412" lon="9.356593570096889"><ele>234.33333333333331</ele><time>2026-04-12T06:26:59Z</time></trkpt><trkpt lat="45.82490336271223" lon="9.356548849233683"><ele>237.0</ele><time>2026-04-12T06:27:00Z</time></trkpt><trkpt lat="45.82505494000652" lon="9.356505951119976"><ele>241.0</ele><time>2026-04-12T06:27:01Z</time></trkpt><trkpt lat="45.825202094281494" lon="9.356462807096241"><ele>245.0</ele><time>2026-04-12T06:27:02Z</time></trkpt><trkpt lat="45.8253491356313" lon="9.356415830276596"><ele>249.0</ele><time>2026-04-12T06:27:03Z</time></trkpt><trkpt lat="45.82549848781892" lon="9.356372791018742"><ele>241.66666666666669</ele><time>2026-04-12T06:27:04Z</time></trkpt><trkpt lat="45.82564565936863" lon="9.356324514595771"><ele>234.33333333333334</ele><time>2026-04-12T06:27:05Z</time></trkpt><trkpt lat="45.82579220319557" lon="9.356271668638888"><ele>227.0</ele><time>2026-04-12T06:27:06Z</time></trkpt><trkpt lat="45.82593428939559" lon="9.356205931156852"><ele>230.0</ele><time>2026-04-12T06:27:06.999Z</time></trkpt><trkpt lat="45.826075506667244" lon="9.356133278988791"><ele>233.0</ele><time>2026-04-12T06:27:07.999Z</time></trkpt><trkpt lat="45.82620907421882" lon="9.356047076711905"><ele>236.0</ele><time>2026-04-12T06:27:08.999Z</time></trkpt><trkpt lat="45.82632506446113" lon="9.355957418823825"><ele>239.0</ele><time>2026-04-12T06:27:09.999Z</time></trkpt><trkpt lat="45.826429462114504" lon="9.355859982068816"><ele>239.0</ele><time>2026-04-12T06:27:10.999Z</time></trkpt><trkpt lat="45.82652236945929" lon="9.355761038927149"><ele>238.99999999999997</ele><time>2026-04-12T06:27:11.999Z</time></trkpt><trkpt lat="45.82660142916833" lon="9.355667835222842"><ele>238.99999999999997</ele><time>2026-04-12T06:27:12.999Z</time></trkpt><trkpt lat="45.82666464866319" lon="9.355581713094606"><ele>239.0</ele><time>2026-04-12T06:27:13.999Z</time></trkpt><trkpt lat="45.82674536116765" lon="9.355459193015905"><ele>239.0</ele><time>2026-04-12T06:27:15.999Z</time></trkpt><trkpt lat="45.82682440195262" lon="9.355358621264642"><ele>239.50000000000003</ele><time>2026-04-12T06:27:17.999Z</time></trkpt><trkpt lat="45.826874834205285" lon="9.355302377743964"><ele>240.0</ele><time>2026-04-12T06:27:18.999Z</time></trkpt><trkpt lat="45.826937880770956" lon="9.355241924573004"><ele>240.5</ele><time>2026-04-12T06:27:19.999Z</time></trkpt><trkpt lat="45.8270056916472" lon="9.355164009229027"><ele>241.0</ele><time>2026-04-12T06:27:20.999Z</time></trkpt><trkpt lat="45.82708511047107" lon="9.355066959712495"><ele>241.50000000000003</ele><time>2026-04-12T06:27:21.999Z</time></trkpt><trkpt lat="45.82716645553054" lon="9.354951356809734"><ele>242.0</ele><time>2026-04-12T06:27:22.999Z</time></trkpt><trkpt lat="45.82725461991616" lon="9.354824382889792"><ele>242.75</ele><time>2026-04-12T06:27:23.999Z</time></trkpt><trkpt lat="45.82734978659194" lon="9.354688508275641"><ele>243.5</ele><time>2026-04-12T06:27:24.999Z</time></trkpt><trkpt lat="45.82745022514275" lon="9.354543098448673"><ele>244.25</ele><time>2026-04-12T06:27:25.999Z</time></trkpt><trkpt lat="45.82755309500702" lon="9.354392624801578"><ele>245.0</ele><time>2026-04-12T06:27:26.999Z</time></trkpt><trkpt lat="45.82765610326671" lon="9.354239031523157"><ele>245.0</ele><time>2026-04-12T06:27:27.999Z</time></trkpt><trkpt lat="45.82775514449372" lon="9.354084250870773"><ele>245.0</ele><time>2026-04-12T06:27:28.999Z</time></trkpt><trkpt lat="45.827855431357264" lon="9.35392835728064"><ele>245.0</ele><time>2026-04-12T06:27:29.999Z</time></trkpt><trkpt lat="45.82795356089867" lon="9.353779762671113"><ele>245.0</ele><time>2026-04-12T06:27:30.999Z</time></trkpt><trkpt lat="45.82804223376501" lon="9.353650028617775"><ele>243.2</ele><time>2026-04-12T06:27:31.999Z</time></trkpt><trkpt lat="45.82812083761759" lon="9.353531250706887"><ele>241.4</ele><time>2026-04-12T06:27:32.999Z</time></trkpt><trkpt lat="45.82819392777539" lon="9.353420341012137"><ele>239.60000000000002</ele><time>2026-04-12T06:27:33.999Z</time></trkpt><trkpt lat="45.8282558342939" lon="9.35333770976726"><ele>237.8</ele><time>2026-04-12T06:27:34.999Z</time></trkpt><trkpt lat="45.82831449976595" lon="9.353250713774619"><ele>236.0</ele><time>2026-04-12T06:27:35.999Z</time></trkpt><trkpt lat="45.82836706849952" lon="9.353163378063837"><ele>236.0</ele><time>2026-04-12T06:27:37Z</time></trkpt><trkpt lat="45.82841146224097" lon="9.35305473321321"><ele>236.00000000000003</ele><time>2026-04-12T06:27:38Z</time></trkpt><trkpt lat="45.82846588806252" lon="9.352935699771143"><ele>236.00000000000003</ele><time>2026-04-12T06:27:39Z</time></trkpt><trkpt lat="45.82852492675953" lon="9.352829184566776"><ele>236.0</ele><time>2026-04-12T06:27:40Z</time></trkpt><trkpt lat="45.82859388611717" lon="9.352724820346749"><ele>236.0</ele><time>2026-04-12T06:27:41Z</time></trkpt><trkpt lat="45.82867260852034" lon="9.35262426735822"><ele>235.5</ele><time>2026-04-12T06:27:42Z</time></trkpt><trkpt lat="45.82876647036889" lon="9.352534101618403"><ele>235.0</ele><time>2026-04-12T06:27:43Z</time></trkpt><trkpt lat="45.82886958319936" lon="9.352458064829165"><ele>234.5</ele><time>2026-04-12T06:27:44Z</time></trkpt><trkpt lat="45.828978122102995" lon="9.352392943823512"><ele>234.0</ele><time>2026-04-12T06:27:45Z</time></trkpt><trkpt lat="45.829095216164205" lon="9.35234638669114"><ele>234.0</ele><time>2026-04-12T06:27:46Z</time></trkpt><trkpt lat="45.82920836454931" lon="9.35231308656582"><ele>234.0</ele><time>2026-04-12T06:27:47Z</time></trkpt><trkpt lat="45.82931399554266" lon="9.352277798386359"><ele>234.0</ele><time>2026-04-12T06:27:48Z</time></trkpt><trkpt lat="45.82943159625419" lon="9.352226490022884"><ele>234.0</ele><time>2026-04-12T06:27:49Z</time></trkpt><trkpt lat="45.82954007171744" lon="9.352159192419434"><ele>232.5</ele><time>2026-04-12T06:27:50Z</time></trkpt><trkpt lat="45.82964365632373" lon="9.35209500753246"><ele>231.0</ele><time>2026-04-12T06:27:51Z</time></trkpt><trkpt lat="45.82974578254951" lon="9.352029782710204"><ele>229.5</ele><time>2026-04-12T06:27:52Z</time></trkpt><trkpt lat="45.82985408300967" lon="9.351962110095739"><ele>228.0</ele><time>2026-04-12T06:27:53Z</time></trkpt><trkpt lat="45.829963577601276" lon="9.35191291346474"><ele>228.0</ele><time>2026-04-12T06:27:54Z</time></trkpt><trkpt lat="45.83007886943315" lon="9.351889942798236"><ele>228.0</ele><time>2026-04-12T06:27:55Z</time></trkpt><trkpt lat="45.830191835271634" lon="9.351897189856343"><ele>228.0</ele><time>2026-04-12T06:27:56Z</time></trkpt><trkpt lat="45.83030933749773" lon="9.351922761501024"><ele>228.0</ele><time>2026-04-12T06:27:57Z</time></trkpt><trkpt lat="45.830429846896244" lon="9.351952057496796"><ele>227.75</ele><time>2026-04-12T06:27:58Z</time></trkpt><trkpt lat="45.83055240903466" lon="9.351973904431846"><ele>227.5</ele><time>2026-04-12T06:27:59Z</time></trkpt><trkpt lat="45.83067451169175" lon="9.351988843003054"><ele>227.25</ele><time>2026-04-12T06:28:00Z</time></trkpt><trkpt lat="45.830785547105584" lon="9.352000596064011"><ele>227.0</ele><time>2026-04-12T06:28:01Z</time></trkpt><trkpt lat="45.83088932604071" lon="9.352008295090624"><ele>227.0</ele><time>2026-04-12T06:28:02Z</time></trkpt><trkpt lat="45.83098851174489" lon="9.35202410746572"><ele>227.0</ele><time>2026-04-12T06:28:03Z</time></trkpt><trkpt lat="45.83107897428318" lon="9.352052361224256"><ele>227.0</ele><time>2026-04-12T06:28:04Z</time></trkpt><trkpt lat="45.83115911826662" lon="9.352082549954284"><ele>227.0</ele><time>2026-04-12T06:28:05Z</time></trkpt><trkpt lat="45.83123372473403" lon="9.352094281128645"><ele>227.0</ele><time>2026-04-12T06:28:06Z</time></trkpt><trkpt lat="45.83133596151581" lon="9.35208474279754"><ele>227.0</ele><time>2026-04-12T06:28:08Z</time></trkpt><trkpt lat="45.831416720063494" lon="9.35204567380371"><ele>227.0</ele><time>2026-04-12T06:28:10Z</time></trkpt><trkpt lat="45.8314976818953" lon="9.352000576035278"><ele>227.0</ele><time>2026-04-12T06:28:12Z</time></trkpt><trkpt lat="45.83159154761549" lon="9.351911727473734"><ele>227.0</ele><time>2026-04-12T06:28:14Z</time></trkpt><trkpt lat="45.83163598590111" lon="9.35176383402578"><ele>227.0</ele><time>2026-04-12T06:28:16Z</time></trkpt><trkpt lat="45.83162717904312" lon="9.351618134494057"><ele>227.0</ele><time>2026-04-12T06:28:18Z</time></trkpt><trkpt lat="45.83152890390272" lon="9.351535057863433"><ele>227.0</ele><time>2026-04-12T06:28:20Z</time></trkpt><trkpt lat="45.83141428501107" lon="9.351564320393104"><ele>227.0</ele><time>2026-04-12T06:28:22Z</time></trkpt><trkpt lat="45.831350301090396" lon="9.35168943586994"><ele>227.0</ele><time>2026-04-12T06:28:24Z</time></trkpt><trkpt lat="45.831348734541" lon="9.351792820256366"><ele>227.0</ele><time>2026-04-12T06:28:26Z</time></trkpt><trkpt lat="45.83137908225246" lon="9.351878926440413"><ele>227.0</ele><time>2026-04-12T06:28:28Z</time></trkpt><trkpt lat="45.83149111751204" lon="9.351967658257184"><ele>227.0</ele><time>2026-04-12T06:28:30Z</time></trkpt><trkpt lat="45.831563685206575" lon="9.351991103375564"><ele>227.0</ele><time>2026-04-12T06:28:31Z</time></trkpt><trkpt lat="45.83163620199202" lon="9.351937412555255"><ele>227.0</ele><time>2026-04-12T06:28:32Z</time></trkpt><trkpt lat="45.83173375960968" lon="9.352026864021031"><ele>227.0</ele><time>2026-04-12T06:28:33Z</time></trkpt><trkpt lat="45.83183368253106" lon="9.352045447075005"><ele>227.0</ele><time>2026-04-12T06:28:34Z</time></trkpt><trkpt lat="45.83194079737816" lon="9.352064877675396"><ele>227.0</ele><time>2026-04-12T06:28:35Z</time></trkpt><trkpt lat="45.8320618409857" lon="9.352080268442041"><ele>227.0</ele><time>2026-04-12T06:28:36Z</time></trkpt><trkpt lat="45.83218160309329" lon="9.352085133930716"><ele>227.0</ele><time>2026-04-12T06:28:37Z</time></trkpt><trkpt lat="45.83230565023345" lon="9.35206897179683"><ele>227.0</ele><time>2026-04-12T06:28:38Z</time></trkpt><trkpt lat="45.83242813917093" lon="9.352040996761257"><ele>227.0</ele><time>2026-04-12T06:28:39Z</time></trkpt><trkpt lat="45.83254733183998" lon="9.352000323872971"><ele>227.0</ele><time>2026-04-12T06:28:40Z</time></trkpt><trkpt lat="45.83266137760582" lon="9.351953545106138"><ele>227.0</ele><time>2026-04-12T06:28:41Z</time></trkpt><trkpt lat="45.83277268102171" lon="9.351898801512473"><ele>226.5</ele><time>2026-04-12T06:28:42Z</time></trkpt><trkpt lat="45.832885654415826" lon="9.351828960009144"><ele>226.0</ele><time>2026-04-12T06:28:43Z</time></trkpt><trkpt lat="45.83299203082753" lon="9.351753159106378"><ele>225.5</ele><time>2026-04-12T06:28:44Z</time></trkpt><trkpt lat="45.833093468680126" lon="9.351671151199554"><ele>225.0</ele><time>2026-04-12T06:28:45Z</time></trkpt><trkpt lat="45.833190606679395" lon="9.351583713252575"><ele>225.0</ele><time>2026-04-12T06:28:46Z</time></trkpt><trkpt lat="45.83325359675843" lon="9.351523971180354"><ele>225.0</ele><time>2026-04-12T06:28:47Z</time></trkpt><trkpt lat="45.83332588292412" lon="9.351448720302468"><ele>225.0</ele><time>2026-04-12T06:28:51Z</time></trkpt><trkpt lat="45.83341845473095" lon="9.351363131977509"><ele>225.0</ele><time>2026-04-12T06:28:53Z</time></trkpt><trkpt lat="45.833514615756535" lon="9.351256186935496"><ele>225.0</ele><time>2026-04-12T06:28:55Z</time></trkpt><trkpt lat="45.833604644170386" lon="9.35115385947901"><ele>225.16666666666666</ele><time>2026-04-12T06:28:57Z</time></trkpt><trkpt lat="45.83366554984982" lon="9.35107967425729"><ele>225.33333333333331</ele><time>2026-04-12T06:28:58.999Z</time></trkpt><trkpt lat="45.83371541429489" lon="9.351009076077785"><ele>225.5</ele><time>2026-04-12T06:29:00.999Z</time></trkpt><trkpt lat="45.83377749518057" lon="9.350922156367414"><ele>225.66666666666666</ele><time>2026-04-12T06:29:02.999Z</time></trkpt><trkpt lat="45.833852426615564" lon="9.350837400447052"><ele>225.83333333333331</ele><time>2026-04-12T06:29:04.999Z</time></trkpt><trkpt lat="45.833926832404224" lon="9.350742716609107"><ele>226.0</ele><time>2026-04-12T06:29:06.999Z</time></trkpt><trkpt lat="45.833940852035205" lon="9.350577411007123"><ele>225.99999999999997</ele><time>2026-04-12T06:29:08.999Z</time></trkpt><trkpt lat="45.833840554641384" lon="9.350490579150822"><ele>226.0</ele><time>2026-04-12T06:29:10.999Z</time></trkpt><trkpt lat="45.83377816714611" lon="9.350519612779681"><ele>226.0</ele><time>2026-04-12T06:29:11.999Z</time></trkpt><trkpt lat="45.833741614106735" lon="9.350609722706936"><ele>226.0</ele><time>2026-04-12T06:29:12.999Z</time></trkpt><trkpt lat="45.83372421654203" lon="9.35070376963724"><ele>225.99999999999997</ele><time>2026-04-12T06:29:13.999Z</time></trkpt><trkpt lat="45.83371247753191" lon="9.350800800719353"><ele>226.0</ele><time>2026-04-12T06:29:14.999Z</time></trkpt><trkpt lat="45.83368912235625" lon="9.350896903742369"><ele>226.0</ele><time>2026-04-12T06:29:15.999Z</time></trkpt><trkpt lat="45.83364746730631" lon="9.350991062107882"><ele>226.00000000000003</ele><time>2026-04-12T06:29:16.999Z</time></trkpt><trkpt lat="45.83359128517066" lon="9.351074490106521"><ele>226.00000000000003</ele><time>2026-04-12T06:29:17.999Z</time></trkpt><trkpt lat="45.8335207044469" lon="9.351146285534002"><ele>226.0</ele><time>2026-04-12T06:29:18.999Z</time></trkpt><trkpt lat="45.833433620387396" lon="9.35122127548086"><ele>226.0</ele><time>2026-04-12T06:29:19.999Z</time></trkpt><trkpt lat="45.83333853344903" lon="9.351299971790471"><ele>225.8</ele><time>2026-04-12T06:29:20.999Z</time></trkpt><trkpt lat="45.833243311125145" lon="9.351386720483305"><ele>225.60000000000002</ele><time>2026-04-12T06:29:21.999Z</time></trkpt><trkpt lat="45.83315054847805" lon="9.351482006885607"><ele>225.4</ele><time>2026-04-12T06:29:22.999Z</time></trkpt><trkpt lat="45.83305943904672" lon="9.351572846345041"><ele>225.2</ele><time>2026-04-12T06:29:23.999Z</time></trkpt><trkpt lat="45.83297178385387" lon="9.35165585676318"><ele>225.0</ele><time>2026-04-12T06:29:24.999Z</time></trkpt><trkpt lat="45.83288411786639" lon="9.351729245272509"><ele>225.0</ele><time>2026-04-12T06:29:25.999Z</time></trkpt><trkpt lat="45.832792986149414" lon="9.351789533866707"><ele>225.0</ele><time>2026-04-12T06:29:26.999Z</time></trkpt><trkpt lat="45.832699316340765" lon="9.351840335352488"><ele>225.0</ele><time>2026-04-12T06:29:27.999Z</time></trkpt><trkpt lat="45.83259812053227" lon="9.351883334110571"><ele>225.0</ele><time>2026-04-12T06:29:28.999Z</time></trkpt><trkpt lat="45.83249023671043" lon="9.35191736387103"><ele>225.0</ele><time>2026-04-12T06:29:29.999Z</time></trkpt><trkpt lat="45.83237598297949" lon="9.351947451412268"><ele>225.5</ele><time>2026-04-12T06:29:30.999Z</time></trkpt><trkpt lat="45.832255253638905" lon="9.351984530367663"><ele>226.0</ele><time>2026-04-12T06:29:31.999Z</time></trkpt><trkpt lat="45.83213226899341" lon="9.352003983347304"><ele>226.5</ele><time>2026-04-12T06:29:32.999Z</time></trkpt><trkpt lat="45.83201049685038" lon="9.351996417872863"><ele>227.0</ele><time>2026-04-12T06:29:33.999Z</time></trkpt><trkpt lat="45.83189757325509" lon="9.351977669458346"><ele>227.00000000000003</ele><time>2026-04-12T06:29:34.999Z</time></trkpt><trkpt lat="45.831799762251904" lon="9.35194637817228"><ele>227.0</ele><time>2026-04-12T06:29:35.999Z</time></trkpt><trkpt lat="45.83172150725707" lon="9.351906664056678"><ele>227.0</ele><time>2026-04-12T06:29:36.999Z</time></trkpt><trkpt lat="45.83166057700058" lon="9.351848348507461"><ele>227.0</ele><time>2026-04-12T06:29:37.999Z</time></trkpt><trkpt lat="45.83162209437168" lon="9.351768237885512"><ele>227.00000000000003</ele><time>2026-04-12T06:29:38.999Z</time></trkpt><trkpt lat="45.83159581114343" lon="9.35168586975353"><ele>227.0</ele><time>2026-04-12T06:29:39.999Z</time></trkpt><trkpt lat="45.83154729979128" lon="9.351617570314602"><ele>227.00000000000003</ele><time>2026-04-12T06:29:40.999Z</time></trkpt><trkpt lat="45.83145168802073" lon="9.351587466061268"><ele>227.0</ele><time>2026-04-12T06:29:43Z</time></trkpt><trkpt lat="45.83134184609001" lon="9.351646737673423"><ele>227.0</ele><time>2026-04-12T06:29:45Z</time></trkpt><trkpt lat="45.831275709194834" lon="9.351671774515111"><ele>227.0</ele><time>2026-04-12T06:29:46Z</time></trkpt><trkpt lat="45.83121534249944" lon="9.351719221203403"><ele>227.00000000000003</ele><time>2026-04-12T06:29:47Z</time></trkpt><trkpt lat="45.83115386606301" lon="9.351768031980999"><ele>227.0</ele><time>2026-04-12T06:29:48Z</time></trkpt><trkpt lat="45.83108483841773" lon="9.351812694331866"><ele>227.0</ele><time>2026-04-12T06:29:49Z</time></trkpt><trkpt lat="45.83100205421366" lon="9.351822801973091"><ele>227.0</ele><time>2026-04-12T06:29:50Z</time></trkpt><trkpt lat="45.830908793930554" lon="9.351814259262403"><ele>227.0</ele><time>2026-04-12T06:29:51Z</time></trkpt><trkpt lat="45.83080042614871" lon="9.351802308695829"><ele>227.0</ele><time>2026-04-12T06:29:52Z</time></trkpt><trkpt lat="45.83068734003157" lon="9.351789888906493"><ele>227.0</ele><time>2026-04-12T06:29:53Z</time></trkpt><trkpt lat="45.83056561576009" lon="9.351777803025298"><ele>227.0</ele><time>2026-04-12T06:29:54Z</time></trkpt><trkpt lat="45.83044274582924" lon="9.351766478133817"><ele>227.0</ele><time>2026-04-12T06:29:55Z</time></trkpt><trkpt lat="45.83031371992758" lon="9.351755178830647"><ele>227.0</ele><time>2026-04-12T06:29:56Z</time></trkpt><trkpt lat="45.83018765846542" lon="9.351738633678274"><ele>227.0</ele><time>2026-04-12T06:29:57Z</time></trkpt><trkpt lat="45.8300595990675" lon="9.351726104750165"><ele>227.25</ele><time>2026-04-12T06:29:58Z</time></trkpt><trkpt lat="45.82993923147464" lon="9.351716880457372"><ele>227.5</ele><time>2026-04-12T06:29:59Z</time></trkpt><trkpt lat="45.829827149571244" lon="9.35172588926658"><ele>227.75</ele><time>2026-04-12T06:30:00Z</time></trkpt><trkpt lat="45.82971359125856" lon="9.351739408980094"><ele>228.0</ele><time>2026-04-12T06:30:01Z</time></trkpt><trkpt lat="45.82960228174091" lon="9.351738064628105"><ele>228.0</ele><time>2026-04-12T06:30:02Z</time></trkpt><trkpt lat="45.82950369490636" lon="9.351731835396686"><ele>228.0</ele><time>2026-04-12T06:30:03Z</time></trkpt><trkpt lat="45.82942199097708" lon="9.35171004101708"><ele>228.0</ele><time>2026-04-12T06:30:04Z</time></trkpt><trkpt lat="45.82935124350791" lon="9.351669326269713"><ele>228.0</ele><time>2026-04-12T06:30:05Z</time></trkpt><trkpt lat="45.82928174671553" lon="9.351638709203831"><ele>228.0</ele><time>2026-04-12T06:30:06Z</time></trkpt><trkpt lat="45.82920601565396" lon="9.35164424292367"><ele>228.0</ele><time>2026-04-12T06:30:07Z</time></trkpt><trkpt lat="45.829122176766056" lon="9.35165653212259"><ele>228.2</ele><time>2026-04-12T06:30:08Z</time></trkpt><trkpt lat="45.82903555631066" lon="9.351633148322758"><ele>228.4</ele><time>2026-04-12T06:30:09Z</time></trkpt><trkpt lat="45.82894272042615" lon="9.35159592259799"><ele>228.59999999999997</ele><time>2026-04-12T06:30:10Z</time></trkpt><trkpt lat="45.82883902939502" lon="9.351554179799171"><ele>228.79999999999998</ele><time>2026-04-12T06:30:11Z</time></trkpt><trkpt lat="45.82873375487087" lon="9.351507501630723"><ele>229.0</ele><time>2026-04-12T06:30:12Z</time></trkpt><trkpt lat="45.828630939048985" lon="9.351452590555759"><ele>229.0</ele><time>2026-04-12T06:30:13Z</time></trkpt><trkpt lat="45.82853772554651" lon="9.35137408826469"><ele>228.99999999999997</ele><time>2026-04-12T06:30:14Z</time></trkpt><trkpt lat="45.82845704904719" lon="9.35127258436567"><ele>228.99999999999997</ele><time>2026-04-12T06:30:15Z</time></trkpt><trkpt lat="45.82837430432717" lon="9.351159988679052"><ele>229.0</ele><time>2026-04-12T06:30:16Z</time></trkpt><trkpt lat="45.82828622979835" lon="9.351044459373835"><ele>229.0</ele><time>2026-04-12T06:30:17Z</time></trkpt><trkpt lat="45.828193155918584" lon="9.350916906685788"><ele>228.75</ele><time>2026-04-12T06:30:18Z</time></trkpt><trkpt lat="45.82809963562691" lon="9.3507881477706"><ele>228.5</ele><time>2026-04-12T06:30:19Z</time></trkpt><trkpt lat="45.82801128879718" lon="9.350660314769176"><ele>228.25</ele><time>2026-04-12T06:30:20Z</time></trkpt><trkpt lat="45.827926768634505" lon="9.350535319293135"><ele>228.0</ele><time>2026-04-12T06:30:21Z</time></trkpt><trkpt lat="45.82784780224949" lon="9.350422387676561"><ele>228.0</ele><time>2026-04-12T06:30:22Z</time></trkpt><trkpt lat="45.82777380501093" lon="9.35031660535971"><ele>228.0</ele><time>2026-04-12T06:30:23Z</time></trkpt><trkpt lat="45.82770473362591" lon="9.350220164306748"><ele>228.0</ele><time>2026-04-12T06:30:24Z</time></trkpt><trkpt lat="45.82764385803203" lon="9.350132396231945"><ele>228.0</ele><time>2026-04-12T06:30:25Z</time></trkpt><trkpt lat="45.82759140279572" lon="9.350057763210057"><ele>228.0</ele><time>2026-04-12T06:30:26Z</time></trkpt><trkpt lat="45.827530802851825" lon="9.349962300594214"><ele>228.4</ele><time>2026-04-12T06:30:28Z</time></trkpt><trkpt lat="45.82748833060156" lon="9.349891084882339"><ele>228.8</ele><time>2026-04-12T06:30:30Z</time></trkpt><trkpt lat="45.827416333297016" lon="9.349994108822228"><ele>229.2</ele><time>2026-04-12T06:30:32Z</time></trkpt><trkpt lat="45.82733537799454" lon="9.350098183068543"><ele>229.6</ele><time>2026-04-12T06:30:34Z</time></trkpt><trkpt lat="45.82724555409589" lon="9.350217048814052"><ele>230.0</ele><time>2026-04-12T06:30:36Z</time></trkpt><trkpt lat="45.82719431596555" lon="9.350282203021084"><ele>230.00000000000003</ele><time>2026-04-12T06:30:37Z</time></trkpt><trkpt lat="45.82709901212118" lon="9.350262751883141"><ele>230.0</ele><time>2026-04-12T06:30:38Z</time></trkpt><trkpt lat="45.82703400662117" lon="9.35029649559199"><ele>230.0</ele><time>2026-04-12T06:30:39Z</time></trkpt><trkpt lat="45.82697526324633" lon="9.35036182082178"><ele>230.0</ele><time>2026-04-12T06:30:40Z</time></trkpt><trkpt lat="45.82693950531181" lon="9.35045587165325"><ele>230.00000000000003</ele><time>2026-04-12T06:30:41Z</time></trkpt><trkpt lat="45.82693764411225" lon="9.350566674614068"><ele>230.0</ele><time>2026-04-12T06:30:42Z</time></trkpt><trkpt lat="45.826974574240026" lon="9.350664705938602"><ele>230.50000000000003</ele><time>2026-04-12T06:30:43Z</time></trkpt><trkpt lat="45.82704366584592" lon="9.350730525510954"><ele>231.0</ele><time>2026-04-12T06:30:44Z</time></trkpt><trkpt lat="45.827122198032136" lon="9.350770342614153"><ele>231.5</ele><time>2026-04-12T06:30:45Z</time></trkpt><trkpt lat="45.82719786360616" lon="9.350812414954989"><ele>232.0</ele><time>2026-04-12T06:30:46Z</time></trkpt><trkpt lat="45.82727705660403" lon="9.350872561413793"><ele>232.50000000000003</ele><time>2026-04-12T06:30:47Z</time></trkpt><trkpt lat="45.827360744197925" lon="9.350937654354427"><ele>233.0</ele><time>2026-04-12T06:30:48Z</time></trkpt><trkpt lat="45.82745893265044" lon="9.350988392296584"><ele>233.0</ele><time>2026-04-12T06:30:49Z</time></trkpt><trkpt lat="45.82755793786746" lon="9.351062257831247"><ele>233.0</ele><time>2026-04-12T06:30:50Z</time></trkpt><trkpt lat="45.82767109890573" lon="9.351146271056443"><ele>233.0</ele><time>2026-04-12T06:30:51Z</time></trkpt><trkpt lat="45.827773561248605" lon="9.35124336047363"><ele>233.0</ele><time>2026-04-12T06:30:52Z</time></trkpt><trkpt lat="45.82788638964287" lon="9.351309057208109"><ele>232.4</ele><time>2026-04-12T06:30:53Z</time></trkpt><trkpt lat="45.82798604602953" lon="9.351407039139069"><ele>231.8</ele><time>2026-04-12T06:30:54Z</time></trkpt><trkpt lat="45.82808621877868" lon="9.351458927862309"><ele>231.2</ele><time>2026-04-12T06:30:55Z</time></trkpt><trkpt lat="45.8281693637599" lon="9.351521082074544"><ele>230.6</ele><time>2026-04-12T06:30:56Z</time></trkpt><trkpt lat="45.82820102975592" lon="9.351687061880439"><ele>230.0</ele><time>2026-04-12T06:30:57Z</time></trkpt><trkpt lat="45.82823664978264" lon="9.351795702521093"><ele>230.0</ele><time>2026-04-12T06:30:58Z</time></trkpt><trkpt lat="45.82825910559566" lon="9.351920301395952"><ele>230.0</ele><time>2026-04-12T06:30:59Z</time></trkpt><trkpt lat="45.828272412447824" lon="9.352054694243776"><ele>230.0</ele><time>2026-04-12T06:31:00Z</time></trkpt><trkpt lat="45.828272205922694" lon="9.352194854920475"><ele>230.0</ele><time>2026-04-12T06:31:01Z</time></trkpt><trkpt lat="45.828271094963455" lon="9.352332281828856"><ele>230.0</ele><time>2026-04-12T06:31:02Z</time></trkpt><trkpt lat="45.82826578967352" lon="9.352468048210234"><ele>230.6</ele><time>2026-04-12T06:31:03Z</time></trkpt><trkpt lat="45.82826072929947" lon="9.352611566580752"><ele>231.2</ele><time>2026-04-12T06:31:04Z</time></trkpt><trkpt lat="45.828254045155646" lon="9.352763405576498"><ele>231.8</ele><time>2026-04-12T06:31:05Z</time></trkpt><trkpt lat="45.82824831752944" lon="9.352955745939722"><ele>232.4</ele><time>2026-04-12T06:31:06Z</time></trkpt><trkpt lat="45.828221110886346" lon="9.35309806793079"><ele>233.0</ele><time>2026-04-12T06:31:07Z</time></trkpt><trkpt lat="45.828202998524645" lon="9.353228176969735"><ele>233.60000000000002</ele><time>2026-04-12T06:31:08Z</time></trkpt><trkpt lat="45.828176745809266" lon="9.35335735887085"><ele>234.20000000000002</ele><time>2026-04-12T06:31:09Z</time></trkpt><trkpt lat="45.82813784155573" lon="9.35346241047683"><ele>234.8</ele><time>2026-04-12T06:31:10Z</time></trkpt><trkpt lat="45.82804327597596" lon="9.353540816537327"><ele>235.4</ele><time>2026-04-12T06:31:10.999Z</time></trkpt><trkpt lat="45.82797351814137" lon="9.353646029804464"><ele>236.0</ele><time>2026-04-12T06:31:11.999Z</time></trkpt><trkpt lat="45.827895252319045" lon="9.353750843180077"><ele>236.0</ele><time>2026-04-12T06:31:12.999Z</time></trkpt><trkpt lat="45.82781497533726" lon="9.35386557163738"><ele>236.0</ele><time>2026-04-12T06:31:13.999Z</time></trkpt><trkpt lat="45.82773627584637" lon="9.353983126737004"><ele>236.0</ele><time>2026-04-12T06:31:14.999Z</time></trkpt><trkpt lat="45.82756079448371" lon="9.354218272173924"><ele>235.0</ele><time>2026-04-12T06:31:16.999Z</time></trkpt><trkpt lat="45.82747433144109" lon="9.354336096461406"><ele>234.00000000000003</ele><time>2026-04-12T06:31:17.999Z</time></trkpt><trkpt lat="45.827395433847165" lon="9.354443736451547"><ele>233.00000000000003</ele><time>2026-04-12T06:31:18.999Z</time></trkpt><trkpt lat="45.8273218276419" lon="9.354544621658917"><ele>232.0</ele><time>2026-04-12T06:31:19.999Z</time></trkpt><trkpt lat="45.82725909836562" lon="9.354635218970408"><ele>231.0</ele><time>2026-04-12T06:31:20.999Z</time></trkpt><trkpt lat="45.82719650746556" lon="9.354714300668261"><ele>230.0</ele><time>2026-04-12T06:31:21.999Z</time></trkpt><trkpt lat="45.82713558470148" lon="9.354785658838466"><ele>229.00000000000003</ele><time>2026-04-12T06:31:22.999Z</time></trkpt><trkpt lat="45.82707635382211" lon="9.354839041768866"><ele>228.00000000000003</ele><time>2026-04-12T06:31:23.999Z</time></trkpt><trkpt lat="45.82701498949483" lon="9.35487195724411"><ele>227.0</ele><time>2026-04-12T06:31:24.999Z</time></trkpt><trkpt lat="45.826895584224125" lon="9.354867654989244"><ele>226.0</ele><time>2026-04-12T06:31:26.999Z</time></trkpt><trkpt lat="45.82677104739547" lon="9.354918322939985"><ele>225.99999999999997</ele><time>2026-04-12T06:31:28.999Z</time></trkpt><trkpt lat="45.8267269108318" lon="9.354991631838532"><ele>226.0</ele><time>2026-04-12T06:31:29.999Z</time></trkpt><trkpt lat="45.82671074814067" lon="9.355088449145782"><ele>226.0</ele><time>2026-04-12T06:31:30.999Z</time></trkpt><trkpt lat="45.82675548500938" lon="9.355244423329168"><ele>226.0</ele><time>2026-04-12T06:31:32.999Z</time></trkpt><trkpt lat="45.82687779972819" lon="9.355290029106166"><ele>225.99999999999997</ele><time>2026-04-12T06:31:34.999Z</time></trkpt><trkpt lat="45.8269407154897" lon="9.35526313576079"><ele>226.0</ele><time>2026-04-12T06:31:35.999Z</time></trkpt><trkpt lat="45.826992109894434" lon="9.35518498882453"><ele>229.20000000000002</ele><time>2026-04-12T06:31:36.999Z</time></trkpt><trkpt lat="45.82703514764675" lon="9.3550981829672"><ele>232.40000000000003</ele><time>2026-04-12T06:31:37.999Z</time></trkpt><trkpt lat="45.82712020399272" lon="9.35505953111939"><ele>235.6</ele><time>2026-04-12T06:31:38.999Z</time></trkpt><trkpt lat="45.827173871399644" lon="9.354954089448304"><ele>238.8</ele><time>2026-04-12T06:31:39.999Z</time></trkpt><trkpt lat="45.82724327903511" lon="9.354852357819167"><ele>242.0</ele><time>2026-04-12T06:31:40.999Z</time></trkpt><trkpt lat="45.82731743674764" lon="9.354747135250912"><ele>242.75</ele><time>2026-04-12T06:31:41.999Z</time></trkpt><trkpt lat="45.8274036668236" lon="9.35462394202989"><ele>243.5</ele><time>2026-04-12T06:31:42.999Z</time></trkpt><trkpt lat="45.82749739868096" lon="9.35449402745937"><ele>244.25</ele><time>2026-04-12T06:31:43.999Z</time></trkpt><trkpt lat="45.82759473843428" lon="9.354352527476214"><ele>245.0</ele><time>2026-04-12T06:31:44.999Z</time></trkpt><trkpt lat="45.82769399416263" lon="9.354206052260365"><ele>245.0</ele><time>2026-04-12T06:31:45.999Z</time></trkpt><trkpt lat="45.82779578178343" lon="9.35405099216997"><ele>245.0</ele><time>2026-04-12T06:31:46.999Z</time></trkpt><trkpt lat="45.82789665900813" lon="9.353897304852735"><ele>245.0</ele><time>2026-04-12T06:31:47.999Z</time></trkpt><trkpt lat="45.82800334881353" lon="9.353741621180733"><ele>245.0</ele><time>2026-04-12T06:31:49Z</time></trkpt><trkpt lat="45.828110265535706" lon="9.353584245180654"><ele>242.75</ele><time>2026-04-12T06:31:50Z</time></trkpt><trkpt lat="45.828218484949616" lon="9.353430157420675"><ele>240.5</ele><time>2026-04-12T06:31:51Z</time></trkpt><trkpt lat="45.82832107268082" lon="9.353281226147672"><ele>238.25</ele><time>2026-04-12T06:31:52Z</time></trkpt><trkpt lat="45.828427229257926" lon="9.353151463007041"><ele>236.0</ele><time>2026-04-12T06:31:53Z</time></trkpt><trkpt lat="45.82854285931658" lon="9.353026414357286"><ele>235.5</ele><time>2026-04-12T06:31:54Z</time></trkpt><trkpt lat="45.82866313229848" lon="9.352921586268378"><ele>235.0</ele><time>2026-04-12T06:31:55Z</time></trkpt><trkpt lat="45.82879454635192" lon="9.35282569059505"><ele>234.5</ele><time>2026-04-12T06:31:56Z</time></trkpt><trkpt lat="45.82893014211832" lon="9.352744456138986"><ele>234.0</ele><time>2026-04-12T06:31:57Z</time></trkpt><trkpt lat="45.82905961604352" lon="9.352633843463538"><ele>234.0</ele><time>2026-04-12T06:31:58Z</time></trkpt><trkpt lat="45.829208542903764" lon="9.352597984335803"><ele>234.0</ele><time>2026-04-12T06:31:59Z</time></trkpt><trkpt lat="45.829357164922754" lon="9.35253432061004"><ele>234.0</ele><time>2026-04-12T06:32:00Z</time></trkpt><trkpt lat="45.829505459358465" lon="9.352477795736863"><ele>232.25</ele><time>2026-04-12T06:32:01Z</time></trkpt><trkpt lat="45.829653217661495" lon="9.352426434463787"><ele>230.5</ele><time>2026-04-12T06:32:02Z</time></trkpt><trkpt lat="45.82979145573999" lon="9.352386273202903"><ele>228.75</ele><time>2026-04-12T06:32:03Z</time></trkpt><trkpt lat="45.829920690194584" lon="9.352360989575311"><ele>227.0</ele><time>2026-04-12T06:32:04Z</time></trkpt><trkpt lat="45.830028223954386" lon="9.35234757410073"><ele>227.0</ele><time>2026-04-12T06:32:05Z</time></trkpt><trkpt lat="45.83013362951159" lon="9.352343455568032"><ele>227.0</ele><time>2026-04-12T06:32:06Z</time></trkpt><trkpt lat="45.8302496785131" lon="9.352341737657994"><ele>227.0</ele><time>2026-04-12T06:32:07Z</time></trkpt><trkpt lat="45.830374726662065" lon="9.35235514640443"><ele>227.0</ele><time>2026-04-12T06:32:08Z</time></trkpt><trkpt lat="45.83051232840143" lon="9.352383005229724"><ele>227.33333333333334</ele><time>2026-04-12T06:32:09Z</time></trkpt><trkpt lat="45.83065018628116" lon="9.352420046804909"><ele>227.66666666666669</ele><time>2026-04-12T06:32:10Z</time></trkpt><trkpt lat="45.83080440365376" lon="9.352456667939222"><ele>228.0</ele><time>2026-04-12T06:32:11Z</time></trkpt><trkpt lat="45.83096011869412" lon="9.35249070505317"><ele>229.0</ele><time>2026-04-12T06:32:12Z</time></trkpt><trkpt lat="45.831114274578965" lon="9.352526454325456"><ele>230.0</ele><time>2026-04-12T06:32:13Z</time></trkpt><trkpt lat="45.83126872006555" lon="9.352567437544616"><ele>231.0</ele><time>2026-04-12T06:32:14Z</time></trkpt><trkpt lat="45.83142436018156" lon="9.352603853323341"><ele>231.0</ele><time>2026-04-12T06:32:15Z</time></trkpt><trkpt lat="45.831577708714406" lon="9.35263188811378"><ele>231.0</ele><time>2026-04-12T06:32:16Z</time></trkpt><trkpt lat="45.83173631743899" lon="9.35264369688626"><ele>231.0</ele><time>2026-04-12T06:32:17Z</time></trkpt><trkpt lat="45.8318991118203" lon="9.35263652562635"><ele>230.66666666666669</ele><time>2026-04-12T06:32:18Z</time></trkpt><trkpt lat="45.832062519487565" lon="9.35260964129744"><ele>230.33333333333334</ele><time>2026-04-12T06:32:19Z</time></trkpt><trkpt lat="45.83222547882593" lon="9.352571672609168"><ele>230.0</ele><time>2026-04-12T06:32:20Z</time></trkpt><trkpt lat="45.83239152961653" lon="9.352537220108825"><ele>230.0</ele><time>2026-04-12T06:32:21Z</time></trkpt><trkpt lat="45.832570291755395" lon="9.352503518462978"><ele>230.0</ele><time>2026-04-12T06:32:22Z</time></trkpt><trkpt lat="45.8327476830866" lon="9.352477278356023"><ele>230.0</ele><time>2026-04-12T06:32:23Z</time></trkpt><trkpt lat="45.83292197658141" lon="9.352457306871564"><ele>228.33333333333334</ele><time>2026-04-12T06:32:24Z</time></trkpt><trkpt lat="45.83309382273823" lon="9.35245014730013"><ele>226.66666666666669</ele><time>2026-04-12T06:32:25Z</time></trkpt><trkpt lat="45.83326197517928" lon="9.352463485123868"><ele>225.0</ele><time>2026-04-12T06:32:26Z</time></trkpt><trkpt lat="45.833431196466535" lon="9.352498724842711"><ele>223.66666666666669</ele><time>2026-04-12T06:32:27Z</time></trkpt><trkpt lat="45.83359344546061" lon="9.352554813203788"><ele>222.33333333333334</ele><time>2026-04-12T06:32:28Z</time></trkpt><trkpt lat="45.83374832878357" lon="9.352631475841077"><ele>221.0</ele><time>2026-04-12T06:32:29Z</time></trkpt><trkpt lat="45.83390109981551" lon="9.352723756219948"><ele>221.0</ele><time>2026-04-12T06:32:30Z</time></trkpt><trkpt lat="45.83405251025629" lon="9.352836795324556"><ele>221.0</ele><time>2026-04-12T06:32:31Z</time></trkpt><trkpt lat="45.83419612875419" lon="9.352970586670045"><ele>221.0</ele><time>2026-04-12T06:32:32Z</time></trkpt><trkpt lat="45.83434079049622" lon="9.353122479045231"><ele>221.0</ele><time>2026-04-12T06:32:33Z</time></trkpt><trkpt lat="45.83448696556303" lon="9.353278943187082"><ele>221.0</ele><time>2026-04-12T06:32:34Z</time></trkpt><trkpt lat="45.83464220584283" lon="9.353440644349309"><ele>221.0</ele><time>2026-04-12T06:32:35Z</time></trkpt><trkpt lat="45.83480499871954" lon="9.353604666717361"><ele>221.0</ele><time>2026-04-12T06:32:36Z</time></trkpt><trkpt lat="45.834965910410226" lon="9.35377551182668"><ele>221.0</ele><time>2026-04-12T06:32:37Z</time></trkpt><trkpt lat="45.83513205180567" lon="9.353950072300362"><ele>221.0</ele><time>2026-04-12T06:32:38Z</time></trkpt><trkpt lat="45.83530346631048" lon="9.354129148479572"><ele>220.66666666666669</ele><time>2026-04-12T06:32:39Z</time></trkpt><trkpt lat="45.83547676711146" lon="9.354305283396275"><ele>220.33333333333331</ele><time>2026-04-12T06:32:40Z</time></trkpt><trkpt lat="45.83565564465175" lon="9.354485731361686"><ele>220.0</ele><time>2026-04-12T06:32:41Z</time></trkpt><trkpt lat="45.83583034973656" lon="9.354667140405946"><ele>220.33333333333331</ele><time>2026-04-12T06:32:42Z</time></trkpt><trkpt lat="45.83600713055878" lon="9.35484495614037"><ele>220.66666666666669</ele><time>2026-04-12T06:32:43Z</time></trkpt><trkpt lat="45.836182600885806" lon="9.355025407473496"><ele>221.0</ele><time>2026-04-12T06:32:44Z</time></trkpt><trkpt lat="45.83635630444039" lon="9.355207204523074"><ele>221.0</ele><time>2026-04-12T06:32:45Z</time></trkpt><trkpt lat="45.83653332031802" lon="9.355388840432017"><ele>221.0</ele><time>2026-04-12T06:32:46Z</time></trkpt><trkpt lat="45.836706265623" lon="9.35557446851085"><ele>221.0</ele><time>2026-04-12T06:32:47Z</time></trkpt><trkpt lat="45.83688219736314" lon="9.355756166991975"><ele>222.33333333333334</ele><time>2026-04-12T06:32:48Z</time></trkpt><trkpt lat="45.837056658785464" lon="9.355935912637843"><ele>223.66666666666669</ele><time>2026-04-12T06:32:49Z</time></trkpt><trkpt lat="45.83722907739181" lon="9.356111597228102"><ele>225.0</ele><time>2026-04-12T06:32:50Z</time></trkpt><trkpt lat="45.83740005976317" lon="9.35628367127065"><ele>224.33333333333331</ele><time>2026-04-12T06:32:51Z</time></trkpt><trkpt lat="45.837568163488086" lon="9.35645549510264"><ele>223.66666666666666</ele><time>2026-04-12T06:32:52Z</time></trkpt><trkpt lat="45.83773427060449" lon="9.356623359908882"><ele>223.0</ele><time>2026-04-12T06:32:53Z</time></trkpt><trkpt lat="45.83789990820272" lon="9.356788370807818"><ele>223.0</ele><time>2026-04-12T06:32:54Z</time></trkpt><trkpt lat="45.838058717846216" lon="9.35695508403374"><ele>223.0</ele><time>2026-04-12T06:32:55Z</time></trkpt><trkpt lat="45.8382168049456" lon="9.357119739571274"><ele>223.0</ele><time>2026-04-12T06:32:56Z</time></trkpt><trkpt lat="45.83837138873166" lon="9.357281741650041"><ele>223.0</ele><time>2026-04-12T06:32:57Z</time></trkpt><trkpt lat="45.83852923228356" lon="9.357441132512111"><ele>223.0</ele><time>2026-04-12T06:32:58Z</time></trkpt><trkpt lat="45.838686942563335" lon="9.357598880860522"><ele>223.0</ele><time>2026-04-12T06:32:59Z</time></trkpt><trkpt lat="45.83884781662714" lon="9.357748534072947"><ele>223.0</ele><time>2026-04-12T06:33:00Z</time></trkpt><trkpt lat="45.83901385278183" lon="9.35788789711775"><ele>223.0</ele><time>2026-04-12T06:33:01Z</time></trkpt><trkpt lat="45.83918638226211" lon="9.35801545004014"><ele>223.0</ele><time>2026-04-12T06:33:02Z</time></trkpt><trkpt lat="45.839355315463216" lon="9.358129304733854"><ele>223.0</ele><time>2026-04-12T06:33:03Z</time></trkpt><trkpt lat="45.83952235102955" lon="9.358243630002212"><ele>223.0</ele><time>2026-04-12T06:33:04Z</time></trkpt><trkpt lat="45.83968493007428" lon="9.358361687893932"><ele>223.0</ele><time>2026-04-12T06:33:05Z</time></trkpt><trkpt lat="45.839844633334785" lon="9.35848616928645"><ele>223.0</ele><time>2026-04-12T06:33:06Z</time></trkpt><trkpt lat="45.84000256766516" lon="9.358614979684523"><ele>223.0</ele><time>2026-04-12T06:33:06.999Z</time></trkpt><trkpt lat="45.840162339678045" lon="9.358752777813976"><ele>223.0</ele><time>2026-04-12T06:33:07.999Z</time></trkpt><trkpt lat="45.84030933662116" lon="9.35890873236329"><ele>223.0</ele><time>2026-04-12T06:33:08.999Z</time></trkpt><trkpt lat="45.840448306355555" lon="9.35908504974593"><ele>223.0</ele><time>2026-04-12T06:33:09.999Z</time></trkpt><trkpt lat="45.8405708056052" lon="9.359272496871577"><ele>223.0</ele><time>2026-04-12T06:33:10.999Z</time></trkpt><trkpt lat="45.840691871146674" lon="9.35946599463137"><ele>223.0</ele><time>2026-04-12T06:33:11.999Z</time></trkpt><trkpt lat="45.840804421804336" lon="9.359659516523086"><ele>223.0</ele><time>2026-04-12T06:33:12.999Z</time></trkpt><trkpt lat="45.84091703809788" lon="9.359856765583793"><ele>223.0</ele><time>2026-04-12T06:33:13.999Z</time></trkpt><trkpt lat="45.84102877348034" lon="9.360049174762866"><ele>223.0</ele><time>2026-04-12T06:33:14.999Z</time></trkpt><trkpt lat="45.841141196090646" lon="9.3602456250459"><ele>223.0</ele><time>2026-04-12T06:33:15.999Z</time></trkpt><trkpt lat="45.84125719564755" lon="9.360443066577563"><ele>223.0</ele><time>2026-04-12T06:33:16.999Z</time></trkpt><trkpt lat="45.841374164399724" lon="9.360639163115588"><ele>223.0</ele><time>2026-04-12T06:33:17.999Z</time></trkpt><trkpt lat="45.84149655719543" lon="9.360831749391014"><ele>223.0</ele><time>2026-04-12T06:33:18.999Z</time></trkpt><trkpt lat="45.841625239702786" lon="9.361020697384506"><ele>223.0</ele><time>2026-04-12T06:33:19.999Z</time></trkpt><trkpt lat="45.841760041605546" lon="9.361199506367829"><ele>222.33333333333331</ele><time>2026-04-12T06:33:20.999Z</time></trkpt><trkpt lat="45.84189853281201" lon="9.361367735240963"><ele>221.66666666666669</ele><time>2026-04-12T06:33:21.999Z</time></trkpt><trkpt lat="45.8420435371614" lon="9.36153684831127"><ele>221.0</ele><time>2026-04-12T06:33:22.999Z</time></trkpt><trkpt lat="45.84218937991869" lon="9.361710042798148"><ele>221.0</ele><time>2026-04-12T06:33:23.999Z</time></trkpt><trkpt lat="45.842326614565536" lon="9.361880841917495"><ele>221.0</ele><time>2026-04-12T06:33:24.999Z</time></trkpt><trkpt lat="45.842462214506256" lon="9.362051755834589"><ele>221.0</ele><time>2026-04-12T06:33:25.999Z</time></trkpt><trkpt lat="45.84259230659447" lon="9.362226156929026"><ele>220.66666666666669</ele><time>2026-04-12T06:33:26.999Z</time></trkpt><trkpt lat="45.84272286936646" lon="9.36240439137175"><ele>220.33333333333331</ele><time>2026-04-12T06:33:27.999Z</time></trkpt><trkpt lat="45.84285060021978" lon="9.36258591825127"><ele>220.0</ele><time>2026-04-12T06:33:28.999Z</time></trkpt><trkpt lat="45.84297795050436" lon="9.362781572638259"><ele>220.0</ele><time>2026-04-12T06:33:29.999Z</time></trkpt><trkpt lat="45.84309490223088" lon="9.362983183927753"><ele>220.0</ele><time>2026-04-12T06:33:30.999Z</time></trkpt><trkpt lat="45.84320531251327" lon="9.363186757261017"><ele>220.0</ele><time>2026-04-12T06:33:31.999Z</time></trkpt><trkpt lat="45.843310602456704" lon="9.363396572702468"><ele>220.0</ele><time>2026-04-12T06:33:32.999Z</time></trkpt><trkpt lat="45.84341059828533" lon="9.363613600094734"><ele>220.0</ele><time>2026-04-12T06:33:33.999Z</time></trkpt><trkpt lat="45.8435005811189" lon="9.363836523527343"><ele>220.0</ele><time>2026-04-12T06:33:34.999Z</time></trkpt><trkpt lat="45.84358573871889" lon="9.364060225726494"><ele>219.66666666666666</ele><time>2026-04-12T06:33:35.999Z</time></trkpt><trkpt lat="45.84366442737952" lon="9.364281875902623"><ele>219.33333333333331</ele><time>2026-04-12T06:33:36.999Z</time></trkpt><trkpt lat="45.84374138735735" lon="9.36450659827166"><ele>219.0</ele><time>2026-04-12T06:33:37.999Z</time></trkpt><trkpt lat="45.843823021508555" lon="9.364729924895398"><ele>218.66666666666669</ele><time>2026-04-12T06:33:38.999Z</time></trkpt><trkpt lat="45.84390532649275" lon="9.364945506906299"><ele>218.33333333333334</ele><time>2026-04-12T06:33:39.999Z</time></trkpt><trkpt lat="45.8439929891297" lon="9.36516078022556"><ele>218.0</ele><time>2026-04-12T06:33:40.999Z</time></trkpt><trkpt lat="45.844086645064394" lon="9.365362670542039"><ele>219.33333333333334</ele><time>2026-04-12T06:33:41.999Z</time></trkpt><trkpt lat="45.84419264054009" lon="9.365553970575963"><ele>220.66666666666669</ele><time>2026-04-12T06:33:42.999Z</time></trkpt><trkpt lat="45.84431174791017" lon="9.365728114926693"><ele>222.0</ele><time>2026-04-12T06:33:43.999Z</time></trkpt><trkpt lat="45.84443746364836" lon="9.365887453312885"><ele>222.33333333333331</ele><time>2026-04-12T06:33:44.999Z</time></trkpt><trkpt lat="45.844569543268236" lon="9.36603521701218"><ele>222.66666666666666</ele><time>2026-04-12T06:33:45.999Z</time></trkpt><trkpt lat="45.84472105770207" lon="9.36616295643026"><ele>223.0</ele><time>2026-04-12T06:33:46.999Z</time></trkpt><trkpt lat="45.844871542776076" lon="9.366291464369525"><ele>223.33333333333331</ele><time>2026-04-12T06:33:47.999Z</time></trkpt><trkpt lat="45.845013442142665" lon="9.366414659530973"><ele>223.66666666666669</ele><time>2026-04-12T06:33:48.999Z</time></trkpt><trkpt lat="45.84515720468562" lon="9.366535471900558"><ele>224.0</ele><time>2026-04-12T06:33:49.999Z</time></trkpt><trkpt lat="45.845300687366915" lon="9.366662393840326"><ele>224.33333333333334</ele><time>2026-04-12T06:33:50.999Z</time></trkpt><trkpt lat="45.845442649803765" lon="9.366794425834284"><ele>224.66666666666669</ele><time>2026-04-12T06:33:51.999Z</time></trkpt><trkpt lat="45.845579171902614" lon="9.366929387188728"><ele>225.0</ele><time>2026-04-12T06:33:52.999Z</time></trkpt><trkpt lat="45.84571580813211" lon="9.367071547438421"><ele>225.0</ele><time>2026-04-12T06:33:53.999Z</time></trkpt><trkpt lat="45.84584679597229" lon="9.367213564845912"><ele>225.0</ele><time>2026-04-12T06:33:55Z</time></trkpt><trkpt lat="45.8459845853704" lon="9.367354294204004"><ele>225.0</ele><time>2026-04-12T06:33:56Z</time></trkpt><trkpt lat="45.846114036612256" lon="9.36748931638005"><ele>225.33333333333331</ele><time>2026-04-12T06:33:57Z</time></trkpt><trkpt lat="45.84624061477971" lon="9.367621791766894"><ele>225.66666666666666</ele><time>2026-04-12T06:33:58Z</time></trkpt><trkpt lat="45.84636482261761" lon="9.367751187577337"><ele>226.0</ele><time>2026-04-12T06:33:59Z</time></trkpt><trkpt lat="45.84648905701467" lon="9.367883986334212"><ele>226.0</ele><time>2026-04-12T06:34:00Z</time></trkpt><trkpt lat="45.846614416288915" lon="9.368014426073387"><ele>226.0</ele><time>2026-04-12T06:34:01Z</time></trkpt><trkpt lat="45.84673031191059" lon="9.368148496462346"><ele>226.0</ele><time>2026-04-12T06:34:02Z</time></trkpt><trkpt lat="45.84683917031973" lon="9.368282511841057"><ele>226.0</ele><time>2026-04-12T06:34:03Z</time></trkpt><trkpt lat="45.846940401731295" lon="9.368425428209253"><ele>226.75</ele><time>2026-04-12T06:34:04Z</time></trkpt><trkpt lat="45.84703095446118" lon="9.368586790879093"><ele>227.5</ele><time>2026-04-12T06:34:05Z</time></trkpt><trkpt lat="45.847113018017055" lon="9.368753703823339"><ele>228.25</ele><time>2026-04-12T06:34:06Z</time></trkpt><trkpt lat="45.84718712224888" lon="9.368927283815825"><ele>229.0</ele><time>2026-04-12T06:34:07Z</time></trkpt><trkpt lat="45.84725726840999" lon="9.36909816231021"><ele>229.0</ele><time>2026-04-12T06:34:08Z</time></trkpt><trkpt lat="45.847324297421906" lon="9.369263325867056"><ele>229.0</ele><time>2026-04-12T06:34:09Z</time></trkpt><trkpt lat="45.847384995553504" lon="9.36942340129187"><ele>229.0</ele><time>2026-04-12T06:34:10Z</time></trkpt><trkpt lat="45.84744513372097" lon="9.369576586421392"><ele>229.0</ele><time>2026-04-12T06:34:11Z</time></trkpt><trkpt lat="45.84750864735883" lon="9.36972362312216"><ele>229.0</ele><time>2026-04-12T06:34:12Z</time></trkpt><trkpt lat="45.847570263340046" lon="9.369855025327436"><ele>228.99999999999997</ele><time>2026-04-12T06:34:13Z</time></trkpt><trkpt lat="45.84762777346722" lon="9.369975356172214"><ele>228.99999999999997</ele><time>2026-04-12T06:34:14Z</time></trkpt><trkpt lat="45.84767449929639" lon="9.370085246917991"><ele>229.0</ele><time>2026-04-12T06:34:15Z</time></trkpt><trkpt lat="45.847710336375926" lon="9.370189763157223"><ele>229.0</ele><time>2026-04-12T06:34:16Z</time></trkpt><trkpt lat="45.84774402981646" lon="9.370297585271496"><ele>229.0</ele><time>2026-04-12T06:34:17Z</time></trkpt><trkpt lat="45.847778478379695" lon="9.370415218521735"><ele>228.99999999999997</ele><time>2026-04-12T06:34:18Z</time></trkpt><trkpt lat="45.84780976979741" lon="9.370546600719923"><ele>228.99999999999997</ele><time>2026-04-12T06:34:19Z</time></trkpt><trkpt lat="45.84784033102652" lon="9.370692280435362"><ele>229.0</ele><time>2026-04-12T06:34:20Z</time></trkpt><trkpt lat="45.84787800019011" lon="9.370855350082484"><ele>229.0</ele><time>2026-04-12T06:34:21Z</time></trkpt><trkpt lat="45.84792600171981" lon="9.371026692794405"><ele>229.0</ele><time>2026-04-12T06:34:22Z</time></trkpt><trkpt lat="45.84797534356587" lon="9.371206992779792"><ele>229.0</ele><time>2026-04-12T06:34:23Z</time></trkpt><trkpt lat="45.848028273301225" lon="9.371396495595066"><ele>229.0</ele><time>2026-04-12T06:34:24Z</time></trkpt><trkpt lat="45.84808075803257" lon="9.3715916528451"><ele>229.0</ele><time>2026-04-12T06:34:25Z</time></trkpt><trkpt lat="45.84813389467433" lon="9.371789700882085"><ele>229.66666666666666</ele><time>2026-04-12T06:34:26Z</time></trkpt><trkpt lat="45.84818676904421" lon="9.37199118063254"><ele>230.33333333333331</ele><time>2026-04-12T06:34:27Z</time></trkpt><trkpt lat="45.848242957273825" lon="9.372192948316556"><ele>231.0</ele><time>2026-04-12T06:34:28Z</time></trkpt><trkpt lat="45.84829783394228" lon="9.372399541666462"><ele>231.0</ele><time>2026-04-12T06:34:29Z</time></trkpt><trkpt lat="45.84835599018064" lon="9.372608784835393"><ele>231.0</ele><time>2026-04-12T06:34:30Z</time></trkpt><trkpt lat="45.84841466507941" lon="9.372816174208188"><ele>231.0</ele><time>2026-04-12T06:34:31Z</time></trkpt><trkpt lat="45.84847260314609" lon="9.373028768566153"><ele>232.0</ele><time>2026-04-12T06:34:32Z</time></trkpt><trkpt lat="45.84853068877422" lon="9.373234090434861"><ele>233.0</ele><time>2026-04-12T06:34:33Z</time></trkpt><trkpt lat="45.84858637796491" lon="9.373442157672365"><ele>234.0</ele><time>2026-04-12T06:34:34Z</time></trkpt><trkpt lat="45.84864056336223" lon="9.373653165571268"><ele>234.33333333333331</ele><time>2026-04-12T06:34:35Z</time></trkpt><trkpt lat="45.84869813390421" lon="9.373865363597568"><ele>234.66666666666666</ele><time>2026-04-12T06:34:36Z</time></trkpt><trkpt lat="45.84875767223313" lon="9.374080594030177"><ele>235.0</ele><time>2026-04-12T06:34:37Z</time></trkpt><trkpt lat="45.848817358350054" lon="9.374293833504598"><ele>235.0</ele><time>2026-04-12T06:34:38Z</time></trkpt><trkpt lat="45.84887372108913" lon="9.374503325580609"><ele>235.0</ele><time>2026-04-12T06:34:39Z</time></trkpt><trkpt lat="45.84893529262731" lon="9.37471980811353"><ele>235.0</ele><time>2026-04-12T06:34:40Z</time></trkpt><trkpt lat="45.84899579259889" lon="9.374941746925773"><ele>235.0</ele><time>2026-04-12T06:34:41Z</time></trkpt><trkpt lat="45.84905705977215" lon="9.375161807694026"><ele>235.0</ele><time>2026-04-12T06:34:42Z</time></trkpt><trkpt lat="45.84911104857949" lon="9.375382698121477"><ele>235.0</ele><time>2026-04-12T06:34:43Z</time></trkpt><trkpt lat="45.84916400783278" lon="9.375598622842396"><ele>234.33333333333331</ele><time>2026-04-12T06:34:44Z</time></trkpt><trkpt lat="45.84921160504403" lon="9.375817364622408"><ele>233.66666666666669</ele><time>2026-04-12T06:34:45Z</time></trkpt><trkpt lat="45.84925822055536" lon="9.376037271471967"><ele>233.0</ele><time>2026-04-12T06:34:46Z</time></trkpt><trkpt lat="45.84929899563275" lon="9.376253502125543"><ele>233.0</ele><time>2026-04-12T06:34:47Z</time></trkpt><trkpt lat="45.8493347832938" lon="9.376475778901753"><ele>233.0</ele><time>2026-04-12T06:34:48Z</time></trkpt><trkpt lat="45.84936822626158" lon="9.37669857663349"><ele>233.0</ele><time>2026-04-12T06:34:49Z</time></trkpt><trkpt lat="45.84939708289139" lon="9.376918325862697"><ele>233.0</ele><time>2026-04-12T06:34:50Z</time></trkpt><trkpt lat="45.8494209797009" lon="9.377141878608391"><ele>233.0</ele><time>2026-04-12T06:34:51Z</time></trkpt><trkpt lat="45.84944249690347" lon="9.37736495344731"><ele>233.0</ele><time>2026-04-12T06:34:52Z</time></trkpt><trkpt lat="45.84945831613733" lon="9.377590275265241"><ele>232.66666666666669</ele><time>2026-04-12T06:34:53Z</time></trkpt><trkpt lat="45.8494789744728" lon="9.377814307443987"><ele>232.33333333333331</ele><time>2026-04-12T06:34:54Z</time></trkpt><trkpt lat="45.84950225079697" lon="9.378038743189357"><ele>232.0</ele><time>2026-04-12T06:34:55Z</time></trkpt><trkpt lat="45.84952186837164" lon="9.378265439741451"><ele>232.0</ele><time>2026-04-12T06:34:56Z</time></trkpt><trkpt lat="45.849540349174674" lon="9.378488911577188"><ele>232.0</ele><time>2026-04-12T06:34:57Z</time></trkpt><trkpt lat="45.84955147203604" lon="9.378713989176982"><ele>232.0</ele><time>2026-04-12T06:34:58Z</time></trkpt><trkpt lat="45.84955062211871" lon="9.378941226300071"><ele>231.0</ele><time>2026-04-12T06:34:59Z</time></trkpt><trkpt lat="45.8495277172061" lon="9.379165836795758"><ele>230.0</ele><time>2026-04-12T06:35:00Z</time></trkpt><trkpt lat="45.849479472054355" lon="9.379382558174653"><ele>229.0</ele><time>2026-04-12T06:35:01Z</time></trkpt><trkpt lat="45.84941723906444" lon="9.379596634414282"><ele>229.66666666666666</ele><time>2026-04-12T06:35:02Z</time></trkpt><trkpt lat="45.84934730892814" lon="9.379809334039102"><ele>230.33333333333331</ele><time>2026-04-12T06:35:03Z</time></trkpt><trkpt lat="45.849279923248915" lon="9.380033144275055"><ele>231.0</ele><time>2026-04-12T06:35:04Z</time></trkpt><trkpt lat="45.84921144373259" lon="9.38026096529686"><ele>231.0</ele><time>2026-04-12T06:35:05Z</time></trkpt><trkpt lat="45.84914264242622" lon="9.380497472652785"><ele>231.0</ele><time>2026-04-12T06:35:06Z</time></trkpt><trkpt lat="45.84907761522261" lon="9.380739175928435"><ele>231.0</ele><time>2026-04-12T06:35:07Z</time></trkpt><trkpt lat="45.849010709194836" lon="9.380984545365639"><ele>231.0</ele><time>2026-04-12T06:35:08Z</time></trkpt><trkpt lat="45.848947627953414" lon="9.381235579023457"><ele>231.0</ele><time>2026-04-12T06:35:09Z</time></trkpt><trkpt lat="45.84888622002465" lon="9.38148431470744"><ele>231.0</ele><time>2026-04-12T06:35:10Z</time></trkpt><trkpt lat="45.84882587312424" lon="9.381733927395201"><ele>228.33333333333331</ele><time>2026-04-12T06:35:11Z</time></trkpt><trkpt lat="45.84876396789488" lon="9.381983680507867"><ele>225.66666666666666</ele><time>2026-04-12T06:35:12Z</time></trkpt><trkpt lat="45.84870314014792" lon="9.382235011871774"><ele>223.0</ele><time>2026-04-12T06:35:13Z</time></trkpt><trkpt lat="45.84864693930907" lon="9.382493685626269"><ele>220.33333333333331</ele><time>2026-04-12T06:35:14Z</time></trkpt><trkpt lat="45.84859766159286" lon="9.38275332807866"><ele>217.66666666666669</ele><time>2026-04-12T06:35:15Z</time></trkpt><trkpt lat="45.84855476838467" lon="9.383016842527747"><ele>215.0</ele><time>2026-04-12T06:35:16Z</time></trkpt><trkpt lat="45.848520647830334" lon="9.383279373097128"><ele>215.0</ele><time>2026-04-12T06:35:17Z</time></trkpt><trkpt lat="45.84849436887135" lon="9.383545168746709"><ele>215.0</ele><time>2026-04-12T06:35:18Z</time></trkpt><trkpt lat="45.84847218070382" lon="9.383812971983065"><ele>215.0</ele><time>2026-04-12T06:35:19Z</time></trkpt><trkpt lat="45.848447965857005" lon="9.384080689401449"><ele>215.0</ele><time>2026-04-12T06:35:20Z</time></trkpt><trkpt lat="45.848423849743284" lon="9.384344661407296"><ele>215.0</ele><time>2026-04-12T06:35:21Z</time></trkpt><trkpt lat="45.84839475326363" lon="9.3846079336547"><ele>215.0</ele><time>2026-04-12T06:35:22Z</time></trkpt><trkpt lat="45.84836192299759" lon="9.384876143261012"><ele>212.66666666666669</ele><time>2026-04-12T06:35:23Z</time></trkpt><trkpt lat="45.84832451624007" lon="9.385138321972683"><ele>210.33333333333331</ele><time>2026-04-12T06:35:24Z</time></trkpt><trkpt lat="45.84828734962593" lon="9.385389291321948"><ele>208.0</ele><time>2026-04-12T06:35:25Z</time></trkpt><trkpt lat="45.84825067999583" lon="9.38562295541448"><ele>207.25</ele><time>2026-04-12T06:35:26Z</time></trkpt><trkpt lat="45.848214497886325" lon="9.385837179938951"><ele>206.5</ele><time>2026-04-12T06:35:27Z</time></trkpt><trkpt lat="45.848175315713824" lon="9.38603570089087"><ele>205.75</ele><time>2026-04-12T06:35:27.999Z</time></trkpt><trkpt lat="45.84813356709598" lon="9.386213263456275"><ele>205.0</ele><time>2026-04-12T06:35:28.999Z</time></trkpt><trkpt lat="45.84808524806722" lon="9.386367395448781"><ele>204.6</ele><time>2026-04-12T06:35:29.999Z</time></trkpt><trkpt lat="45.848038403567614" lon="9.386509258634051"><ele>204.2</ele><time>2026-04-12T06:35:30.999Z</time></trkpt><trkpt lat="45.84799280754492" lon="9.38664153206658"><ele>203.8</ele><time>2026-04-12T06:35:31.999Z</time></trkpt><trkpt lat="45.84794798614036" lon="9.386769589696987"><ele>203.4</ele><time>2026-04-12T06:35:32.999Z</time></trkpt><trkpt lat="45.8479050587683" lon="9.386891049995464"><ele>203.0</ele><time>2026-04-12T06:35:33.999Z</time></trkpt><trkpt lat="45.84786372397593" lon="9.387004963728014"><ele>203.00000000000003</ele><time>2026-04-12T06:35:34.999Z</time></trkpt><trkpt lat="45.84782729317699" lon="9.387123328487398"><ele>203.0</ele><time>2026-04-12T06:35:35.999Z</time></trkpt><trkpt lat="45.847811610962395" lon="9.387245701240293"><ele>203.0</ele><time>2026-04-12T06:35:36.999Z</time></trkpt><trkpt lat="45.8478322138341" lon="9.387358062985115"><ele>203.0</ele><time>2026-04-12T06:35:37.999Z</time></trkpt><trkpt lat="45.84787527621072" lon="9.387459923069178"><ele>203.00000000000003</ele><time>2026-04-12T06:35:38.999Z</time></trkpt><trkpt lat="45.847946530159284" lon="9.387525488600497"><ele>203.0</ele><time>2026-04-12T06:35:39.999Z</time></trkpt><trkpt lat="45.84803676575384" lon="9.387539137755208"><ele>202.50000000000003</ele><time>2026-04-12T06:35:40.999Z</time></trkpt><trkpt lat="45.848123568875806" lon="9.387508570028304"><ele>202.0</ele><time>2026-04-12T06:35:41.999Z</time></trkpt><trkpt lat="45.84820436455423" lon="9.387463569876411"><ele>201.5</ele><time>2026-04-12T06:35:42.999Z</time></trkpt><trkpt lat="45.84828230487953" lon="9.387447076694631"><ele>201.0</ele><time>2026-04-12T06:35:43.999Z</time></trkpt><trkpt lat="45.84836575041761" lon="9.387467346968721"><ele>200.50000000000003</ele><time>2026-04-12T06:35:44.999Z</time></trkpt><trkpt lat="45.84845042238114" lon="9.387496786419108"><ele>200.0</ele><time>2026-04-12T06:35:45.999Z</time></trkpt><trkpt lat="45.84853993824989" lon="9.38752760998285"><ele>199.6</ele><time>2026-04-12T06:35:46.999Z</time></trkpt><trkpt lat="45.84863598311969" lon="9.387563806946183"><ele>199.2</ele><time>2026-04-12T06:35:47.999Z</time></trkpt><trkpt lat="45.848728603032136" lon="9.387598483910008"><ele>198.8</ele><time>2026-04-12T06:35:48.999Z</time></trkpt><trkpt lat="45.84881478885916" lon="9.387629221423278"><ele>198.4</ele><time>2026-04-12T06:35:49.999Z</time></trkpt><trkpt lat="45.84889991432324" lon="9.387662174049302"><ele>198.0</ele><time>2026-04-12T06:35:50.999Z</time></trkpt><trkpt lat="45.848981502379566" lon="9.387693951382095"><ele>198.0</ele><time>2026-04-12T06:35:51.999Z</time></trkpt><trkpt lat="45.84905793757832" lon="9.38771825012636"><ele>198.0</ele><time>2026-04-12T06:35:52.999Z</time></trkpt><trkpt lat="45.84912417730392" lon="9.38774115803618"><ele>198.0</ele><time>2026-04-12T06:35:53.999Z</time></trkpt><trkpt lat="45.849191999809555" lon="9.387767011931842"><ele>198.0</ele><time>2026-04-12T06:35:54.999Z</time></trkpt><trkpt lat="45.84925938053941" lon="9.387792848330914"><ele>198.0</ele><time>2026-04-12T06:35:55.999Z</time></trkpt><trkpt lat="45.849325120195445" lon="9.387818218907475"><ele>198.0</ele><time>2026-04-12T06:35:56.999Z</time></trkpt><trkpt lat="45.84938941107157" lon="9.387843713526557"><ele>198.0</ele><time>2026-04-12T06:35:57.999Z</time></trkpt><trkpt lat="45.84945722264586" lon="9.387870180789282"><ele>198.2</ele><time>2026-04-12T06:35:58.999Z</time></trkpt><trkpt lat="45.849522691631336" lon="9.387894983531577"><ele>198.4</ele><time>2026-04-12T06:35:59.999Z</time></trkpt><trkpt lat="45.84959890639898" lon="9.387880620452576"><ele>198.6</ele><time>2026-04-12T06:36:01Z</time></trkpt><trkpt lat="45.84968572777926" lon="9.38798458907326"><ele>198.79999999999998</ele><time>2026-04-12T06:36:03Z</time></trkpt><trkpt lat="45.84980000701236" lon="9.388070438664629"><ele>199.0</ele><time>2026-04-12T06:36:05Z</time></trkpt><trkpt lat="45.84987285466168" lon="9.388089678914353"><ele>199.83333333333331</ele><time>2026-04-12T06:36:06Z</time></trkpt><trkpt lat="45.84994726239751" lon="9.388042344882102"><ele>200.66666666666666</ele><time>2026-04-12T06:36:07Z</time></trkpt><trkpt lat="45.85003195698368" lon="9.388082243592159"><ele>201.5</ele><time>2026-04-12T06:36:08Z</time></trkpt><trkpt lat="45.85011049492362" lon="9.388098510237413"><ele>202.33333333333331</ele><time>2026-04-12T06:36:09Z</time></trkpt><trkpt lat="45.85018845568508" lon="9.388130223334468"><ele>203.16666666666666</ele><time>2026-04-12T06:36:10Z</time></trkpt><trkpt lat="45.85026951957062" lon="9.388162780381117"><ele>204.0</ele><time>2026-04-12T06:36:11Z</time></trkpt><trkpt lat="45.85035101352351" lon="9.388198399574406"><ele>204.33333333333334</ele><time>2026-04-12T06:36:12Z</time></trkpt><trkpt lat="45.85043226700709" lon="9.388236918071769"><ele>204.66666666666669</ele><time>2026-04-12T06:36:13Z</time></trkpt><trkpt lat="45.850513652771184" lon="9.388282365984104"><ele>205.0</ele><time>2026-04-12T06:36:14Z</time></trkpt><trkpt lat="45.850602030263154" lon="9.388321021686764"><ele>205.33333333333334</ele><time>2026-04-12T06:36:15Z</time></trkpt><trkpt lat="45.85068955263564" lon="9.388355544657294"><ele>205.66666666666669</ele><time>2026-04-12T06:36:16Z</time></trkpt><trkpt lat="45.85076483373214" lon="9.388382271895477"><ele>206.0</ele><time>2026-04-12T06:36:17Z</time></trkpt><trkpt lat="45.85084816317325" lon="9.388412639484615"><ele>206.00000000000003</ele><time>2026-04-12T06:36:18Z</time></trkpt><trkpt lat="45.850932394914594" lon="9.388440661548296"><ele>206.0</ele><time>2026-04-12T06:36:19Z</time></trkpt><trkpt lat="45.851011025331886" lon="9.388468632695629"><ele>206.0</ele><time>2026-04-12T06:36:20Z</time></trkpt><trkpt lat="45.85108969022301" lon="9.388497851682537"><ele>206.0</ele><time>2026-04-12T06:36:21Z</time></trkpt><trkpt lat="45.85116846948526" lon="9.388521223933324"><ele>206.00000000000003</ele><time>2026-04-12T06:36:22Z</time></trkpt><trkpt lat="45.85124685089662" lon="9.388551332384894"><ele>206.0</ele><time>2026-04-12T06:36:23Z</time></trkpt><trkpt lat="45.851326144543194" lon="9.388578955696497"><ele>206.00000000000003</ele><time>2026-04-12T06:36:24Z</time></trkpt><trkpt lat="45.85140408765239" lon="9.388608187919624"><ele>206.0</ele><time>2026-04-12T06:36:25Z</time></trkpt><trkpt lat="45.85148383402677" lon="9.388633546580524"><ele>206.0</ele><time>2026-04-12T06:36:26Z</time></trkpt><trkpt lat="45.851558452318365" lon="9.388657681099469"><ele>206.0</ele><time>2026-04-12T06:36:27Z</time></trkpt><trkpt lat="45.85164003088654" lon="9.38868042783105"><ele>206.00000000000003</ele><time>2026-04-12T06:36:28Z</time></trkpt><trkpt lat="45.8517228619957" lon="9.388704254493659"><ele>206.0</ele><time>2026-04-12T06:36:29Z</time></trkpt><trkpt lat="45.8518021370583" lon="9.38872472801342"><ele>206.14285714285714</ele><time>2026-04-12T06:36:30Z</time></trkpt><trkpt lat="45.851874254012046" lon="9.388750335277882"><ele>206.28571428571428</ele><time>2026-04-12T06:36:31Z</time></trkpt><trkpt lat="45.85194445172527" lon="9.388778175898594"><ele>206.42857142857144</ele><time>2026-04-12T06:36:32Z</time></trkpt><trkpt lat="45.8520124238512" lon="9.388815122401603"><ele>206.57142857142856</ele><time>2026-04-12T06:36:33Z</time></trkpt><trkpt lat="45.85207762618416" lon="9.388838249927318"><ele>206.71428571428572</ele><time>2026-04-12T06:36:34Z</time></trkpt><trkpt lat="45.852141261266105" lon="9.38886348355918"><ele>206.85714285714286</ele><time>2026-04-12T06:36:35Z</time></trkpt><trkpt lat="45.85220232627294" lon="9.388887001526129"><ele>207.0</ele><time>2026-04-12T06:36:36Z</time></trkpt><trkpt lat="45.852304632243516" lon="9.388931647546386"><ele>206.66666666666666</ele><time>2026-04-12T06:36:38Z</time></trkpt><trkpt lat="45.85239829163047" lon="9.38897567681343"><ele>206.33333333333331</ele><time>2026-04-12T06:36:40Z</time></trkpt><trkpt lat="45.852358928704696" lon="9.38910708081346"><ele>206.0</ele><time>2026-04-12T06:36:41Z</time></trkpt><trkpt lat="45.852339235944385" lon="9.389203506105298"><ele>205.66666666666666</ele><time>2026-04-12T06:36:42Z</time></trkpt><trkpt lat="45.85230958422635" lon="9.389302753447748"><ele>205.33333333333331</ele><time>2026-04-12T06:36:43Z</time></trkpt><trkpt lat="45.85227529298702" lon="9.389414109069852"><ele>205.0</ele><time>2026-04-12T06:36:44Z</time></trkpt><trkpt lat="45.85224852423636" lon="9.38954293961615"><ele>205.4</ele><time>2026-04-12T06:36:45Z</time></trkpt><trkpt lat="45.85222343764842" lon="9.389684962367197"><ele>205.8</ele><time>2026-04-12T06:36:46Z</time></trkpt><trkpt lat="45.85219350875868" lon="9.389833438659643"><ele>206.2</ele><time>2026-04-12T06:36:47Z</time></trkpt><trkpt lat="45.852162963834594" lon="9.389984870444515"><ele>206.6</ele><time>2026-04-12T06:36:48Z</time></trkpt><trkpt lat="45.85213316299783" lon="9.390133031796859"><ele>207.0</ele><time>2026-04-12T06:36:49Z</time></trkpt><trkpt lat="45.852103823194554" lon="9.390288806410968"><ele>207.0</ele><time>2026-04-12T06:36:50Z</time></trkpt><trkpt lat="45.852072484688456" lon="9.390448703639745"><ele>207.0</ele><time>2026-04-12T06:36:51Z</time></trkpt><trkpt lat="45.85204321901758" lon="9.390592856066233"><ele>207.0</ele><time>2026-04-12T06:36:52Z</time></trkpt><trkpt lat="45.85201251525241" lon="9.390734862347298"><ele>207.0</ele><time>2026-04-12T06:36:53Z</time></trkpt><trkpt lat="45.85198399460084" lon="9.390871906770297"><ele>207.0</ele><time>2026-04-12T06:36:54Z</time></trkpt><trkpt lat="45.85196215540179" lon="9.390996759773126"><ele>207.57142857142858</ele><time>2026-04-12T06:36:55Z</time></trkpt><trkpt lat="45.85194327922702" lon="9.391100264099373"><ele>208.14285714285714</ele><time>2026-04-12T06:36:56Z</time></trkpt><trkpt lat="45.85192464620825" lon="9.391196450194842"><ele>208.71428571428572</ele><time>2026-04-12T06:36:57Z</time></trkpt><trkpt lat="45.85190616753066" lon="9.391291225008802"><ele>209.28571428571428</ele><time>2026-04-12T06:36:58Z</time></trkpt><trkpt lat="45.851884045511795" lon="9.391388654736499"><ele>209.85714285714286</ele><time>2026-04-12T06:36:59Z</time></trkpt><trkpt lat="45.85185928025278" lon="9.391485868461686"><ele>210.42857142857144</ele><time>2026-04-12T06:37:00Z</time></trkpt><trkpt lat="45.85182353119165" lon="9.391573099818217"><ele>211.0</ele><time>2026-04-12T06:37:01Z</time></trkpt><trkpt lat="45.851790661240074" lon="9.391653412096865"><ele>211.14285714285714</ele><time>2026-04-12T06:37:02Z</time></trkpt><trkpt lat="45.85175240027745" lon="9.39173521818703"><ele>211.28571428571428</ele><time>2026-04-12T06:37:03Z</time></trkpt><trkpt lat="45.85171600744165" lon="9.391825836219532"><ele>211.42857142857144</ele><time>2026-04-12T06:37:04Z</time></trkpt><trkpt lat="45.85166729055843" lon="9.391908758923847"><ele>211.57142857142856</ele><time>2026-04-12T06:37:05Z</time></trkpt><trkpt lat="45.851643489085454" lon="9.39201538854765"><ele>211.7142857142857</ele><time>2026-04-12T06:37:06Z</time></trkpt><trkpt lat="45.851642139287414" lon="9.392122091566357"><ele>211.85714285714286</ele><time>2026-04-12T06:37:07Z</time></trkpt><trkpt lat="45.85166029677569" lon="9.39222240270855"><ele>212.0</ele><time>2026-04-12T06:37:08Z</time></trkpt><trkpt lat="45.8516614509972" lon="9.392395548047206"><ele>212.0</ele><time>2026-04-12T06:37:10Z</time></trkpt><trkpt lat="45.85158403738988" lon="9.392538876993434"><ele>212.0</ele><time>2026-04-12T06:37:12Z</time></trkpt><trkpt lat="45.85152022647239" lon="9.3926014940567"><ele>212.0</ele><time>2026-04-12T06:37:13Z</time></trkpt><trkpt lat="45.85145080878428" lon="9.392674593463283"><ele>212.0</ele><time>2026-04-12T06:37:14Z</time></trkpt><trkpt lat="45.85137335444947" lon="9.392754883812778"><ele>212.0</ele><time>2026-04-12T06:37:15Z</time></trkpt><trkpt lat="45.85129448787661" lon="9.392838895509088"><ele>212.0</ele><time>2026-04-12T06:37:16Z</time></trkpt><trkpt lat="45.85121184909397" lon="9.392927970816274"><ele>212.0</ele><time>2026-04-12T06:37:17Z</time></trkpt><trkpt lat="45.85112638679768" lon="9.393020469331287"><ele>212.0</ele><time>2026-04-12T06:37:18Z</time></trkpt><trkpt lat="45.8510193636265" lon="9.393095954735632"><ele>212.0</ele><time>2026-04-12T06:37:19Z</time></trkpt><trkpt lat="45.850931964309495" lon="9.393196494146617"><ele>212.0</ele><time>2026-04-12T06:37:20Z</time></trkpt><trkpt lat="45.85084002469836" lon="9.393295945632484"><ele>212.39999999999998</ele><time>2026-04-12T06:37:21Z</time></trkpt><trkpt lat="45.85074547107923" lon="9.393385452668282"><ele>212.79999999999998</ele><time>2026-04-12T06:37:22Z</time></trkpt><trkpt lat="45.8506584472176" lon="9.393486629108464"><ele>213.2</ele><time>2026-04-12T06:37:23Z</time></trkpt><trkpt lat="45.85057063402024" lon="9.393584760974006"><ele>213.6</ele><time>2026-04-12T06:37:24Z</time></trkpt><trkpt lat="45.85048208427362" lon="9.393678295067758"><ele>214.0</ele><time>2026-04-12T06:37:25Z</time></trkpt><trkpt lat="45.850396020419296" lon="9.393773974199314"><ele>214.0</ele><time>2026-04-12T06:37:26Z</time></trkpt><trkpt lat="45.850302087427764" lon="9.39386641629802"><ele>213.99999999999997</ele><time>2026-04-12T06:37:27Z</time></trkpt><trkpt lat="45.8502107966243" lon="9.393966758207679"><ele>213.99999999999997</ele><time>2026-04-12T06:37:28Z</time></trkpt><trkpt lat="45.85012155621184" lon="9.394061206163576"><ele>214.0</ele><time>2026-04-12T06:37:29Z</time></trkpt><trkpt lat="45.85003723033625" lon="9.394150427967684"><ele>214.0</ele><time>2026-04-12T06:37:30Z</time></trkpt><trkpt lat="45.849960657826735" lon="9.394225424641423"><ele>213.66666666666666</ele><time>2026-04-12T06:37:31Z</time></trkpt><trkpt lat="45.849884716680606" lon="9.394279755056957"><ele>213.33333333333331</ele><time>2026-04-12T06:37:32Z</time></trkpt><trkpt lat="45.849828364582706" lon="9.394343459810115"><ele>213.0</ele><time>2026-04-12T06:37:33Z</time></trkpt><trkpt lat="45.849750275125345" lon="9.394432111101523"><ele>212.66666666666669</ele><time>2026-04-12T06:37:34.999Z</time></trkpt><trkpt lat="45.84970437777475" lon="9.3945194295021"><ele>212.33333333333334</ele><time>2026-04-12T06:38:04.999Z</time></trkpt><trkpt lat="45.84964653043682" lon="9.394593821343678"><ele>212.0</ele><time>2026-04-12T06:38:07Z</time></trkpt><trkpt lat="45.84955624052199" lon="9.39470641197213"><ele>212.00000000000003</ele><time>2026-04-12T06:38:09Z</time></trkpt><trkpt lat="45.84950218170181" lon="9.394767403534862"><ele>212.0</ele><time>2026-04-12T06:38:10Z</time></trkpt><trkpt lat="45.84944883391974" lon="9.394827723741576"><ele>212.0</ele><time>2026-04-12T06:38:11Z</time></trkpt><trkpt lat="45.84938892872999" lon="9.394902611758226"><ele>212.0</ele><time>2026-04-12T06:38:12Z</time></trkpt><trkpt lat="45.84931127742247" lon="9.394963348209322"><ele>212.00000000000003</ele><time>2026-04-12T06:38:13Z</time></trkpt><trkpt lat="45.84923689947094" lon="9.395042376778989"><ele>212.0</ele><time>2026-04-12T06:38:14Z</time></trkpt><trkpt lat="45.84915533579926" lon="9.395127099305169"><ele>211.2</ele><time>2026-04-12T06:38:15Z</time></trkpt><trkpt lat="45.84907178560123" lon="9.395217404654613"><ele>210.39999999999998</ele><time>2026-04-12T06:38:16Z</time></trkpt><trkpt lat="45.84897842745411" lon="9.39529294284707"><ele>209.60000000000002</ele><time>2026-04-12T06:38:17Z</time></trkpt><trkpt lat="45.848883542934914" lon="9.395387054716972"><ele>208.8</ele><time>2026-04-12T06:38:18Z</time></trkpt><trkpt lat="45.848792896515626" lon="9.395482134018398"><ele>208.0</ele><time>2026-04-12T06:38:19Z</time></trkpt><trkpt lat="45.848699704005995" lon="9.395576610018047"><ele>208.0</ele><time>2026-04-12T06:38:20Z</time></trkpt><trkpt lat="45.84860690984483" lon="9.395668196974249"><ele>208.0</ele><time>2026-04-12T06:38:21Z</time></trkpt><trkpt lat="45.84851635756436" lon="9.395762048082984"><ele>208.0</ele><time>2026-04-12T06:38:22Z</time></trkpt><trkpt lat="45.848426399885234" lon="9.395861530955445"><ele>208.0</ele><time>2026-04-12T06:38:23Z</time></trkpt><trkpt lat="45.84833256958705" lon="9.395965440364174"><ele>208.0</ele><time>2026-04-12T06:38:24Z</time></trkpt><trkpt lat="45.84823990223535" lon="9.396068557725608"><ele>208.0</ele><time>2026-04-12T06:38:25Z</time></trkpt><trkpt lat="45.84814542419218" lon="9.396176753086245"><ele>208.0</ele><time>2026-04-12T06:38:26Z</time></trkpt><trkpt lat="45.848049713601426" lon="9.396269851875475"><ele>208.0</ele><time>2026-04-12T06:38:27Z</time></trkpt><trkpt lat="45.84795694971072" lon="9.396375308070077"><ele>207.75</ele><time>2026-04-12T06:38:28Z</time></trkpt><trkpt lat="45.847855184174755" lon="9.39647584761753"><ele>207.5</ele><time>2026-04-12T06:38:29Z</time></trkpt><trkpt lat="45.84775123740978" lon="9.396576191200182"><ele>207.25</ele><time>2026-04-12T06:38:30Z</time></trkpt><trkpt lat="45.847656893707146" lon="9.396680813112065"><ele>207.0</ele><time>2026-04-12T06:38:31Z</time></trkpt><trkpt lat="45.8475610956783" lon="9.396779224536528"><ele>206.75</ele><time>2026-04-12T06:38:32Z</time></trkpt><trkpt lat="45.84746727315143" lon="9.39688176976806"><ele>206.5</ele><time>2026-04-12T06:38:33Z</time></trkpt><trkpt lat="45.847372072835604" lon="9.396987072108361"><ele>206.25</ele><time>2026-04-12T06:38:34Z</time></trkpt><trkpt lat="45.84727770475345" lon="9.397087089116617"><ele>206.0</ele><time>2026-04-12T06:38:35Z</time></trkpt><trkpt lat="45.84717924657229" lon="9.397187770406674"><ele>206.0</ele><time>2026-04-12T06:38:36Z</time></trkpt><trkpt lat="45.84708004634626" lon="9.397288349742638"><ele>206.0</ele><time>2026-04-12T06:38:37Z</time></trkpt><trkpt lat="45.84697880728198" lon="9.397391887396015"><ele>206.0</ele><time>2026-04-12T06:38:38Z</time></trkpt><trkpt lat="45.84687571155097" lon="9.397498145581624"><ele>206.0</ele><time>2026-04-12T06:38:39Z</time></trkpt><trkpt lat="45.846775364700214" lon="9.397605008326925"><ele>205.25</ele><time>2026-04-12T06:38:40Z</time></trkpt><trkpt lat="45.84667721059777" lon="9.39772000233842"><ele>204.5</ele><time>2026-04-12T06:38:41Z</time></trkpt><trkpt lat="45.84657568403556" lon="9.397830121379767"><ele>203.75</ele><time>2026-04-12T06:38:42Z</time></trkpt><trkpt lat="45.84646959632247" lon="9.397936438872057"><ele>203.0</ele><time>2026-04-12T06:38:43Z</time></trkpt><trkpt lat="45.84636833275889" lon="9.398045029282162"><ele>203.0</ele><time>2026-04-12T06:38:44Z</time></trkpt><trkpt lat="45.84626867291708" lon="9.398152159085704"><ele>203.0</ele><time>2026-04-12T06:38:45Z</time></trkpt><trkpt lat="45.846169901251784" lon="9.398260413931501"><ele>203.0</ele><time>2026-04-12T06:38:46Z</time></trkpt><trkpt lat="45.84607168448926" lon="9.398364249724896"><ele>203.0</ele><time>2026-04-12T06:38:47Z</time></trkpt><trkpt lat="45.84597328661361" lon="9.398479559462153"><ele>203.0</ele><time>2026-04-12T06:38:48Z</time></trkpt><trkpt lat="45.84587597567483" lon="9.39858484375801"><ele>203.0</ele><time>2026-04-12T06:38:49Z</time></trkpt><trkpt lat="45.84578186505811" lon="9.39868781923323"><ele>203.0</ele><time>2026-04-12T06:38:50Z</time></trkpt><trkpt lat="45.845688202988036" lon="9.398787456988035"><ele>203.0</ele><time>2026-04-12T06:38:51Z</time></trkpt><trkpt lat="45.84559994961098" lon="9.398893013812103"><ele>203.60000000000002</ele><time>2026-04-12T06:38:52Z</time></trkpt><trkpt lat="45.84551418504988" lon="9.399006386038959"><ele>204.20000000000002</ele><time>2026-04-12T06:38:53Z</time></trkpt><trkpt lat="45.84543085656813" lon="9.399112054419525"><ele>204.8</ele><time>2026-04-12T06:38:54Z</time></trkpt><trkpt lat="45.845346397420144" lon="9.399218595584385"><ele>205.4</ele><time>2026-04-12T06:38:55Z</time></trkpt><trkpt lat="45.845274334208476" lon="9.399325310747521"><ele>206.0</ele><time>2026-04-12T06:38:56Z</time></trkpt><trkpt lat="45.84519302009821" lon="9.399420847496549"><ele>206.0</ele><time>2026-04-12T06:38:57Z</time></trkpt><trkpt lat="45.84511698570321" lon="9.399536456356051"><ele>206.0</ele><time>2026-04-12T06:38:58Z</time></trkpt><trkpt lat="45.84503787691379" lon="9.399648919934066"><ele>206.0</ele><time>2026-04-12T06:38:59Z</time></trkpt><trkpt lat="45.84495389132819" lon="9.399763887793451"><ele>206.0</ele><time>2026-04-12T06:39:00Z</time></trkpt><trkpt lat="45.844866003079524" lon="9.399873978402368"><ele>205.8</ele><time>2026-04-12T06:39:01Z</time></trkpt><trkpt lat="45.84478793354136" lon="9.399991375842975"><ele>205.60000000000002</ele><time>2026-04-12T06:39:02Z</time></trkpt><trkpt lat="45.844709123620234" lon="9.400102509121862"><ele>205.4</ele><time>2026-04-12T06:39:03Z</time></trkpt><trkpt lat="45.84463992036066" lon="9.400221235618348"><ele>205.2</ele><time>2026-04-12T06:39:04Z</time></trkpt><trkpt lat="45.84456239555362" lon="9.400337794296679"><ele>205.0</ele><time>2026-04-12T06:39:05Z</time></trkpt><trkpt lat="45.844477373108475" lon="9.40044002763847"><ele>205.2</ele><time>2026-04-12T06:39:06Z</time></trkpt><trkpt lat="45.84439680723083" lon="9.400550671707894"><ele>205.4</ele><time>2026-04-12T06:39:07Z</time></trkpt><trkpt lat="45.84431962523347" lon="9.400661818370711"><ele>205.60000000000002</ele><time>2026-04-12T06:39:08Z</time></trkpt><trkpt lat="45.84424285327274" lon="9.400770686469077"><ele>205.8</ele><time>2026-04-12T06:39:09Z</time></trkpt><trkpt lat="45.84417130302541" lon="9.400876982666418"><ele>206.0</ele><time>2026-04-12T06:39:10Z</time></trkpt><trkpt lat="45.844109598182456" lon="9.400965243939117"><ele>205.4</ele><time>2026-04-12T06:39:11Z</time></trkpt><trkpt lat="45.844059633931074" lon="9.401036765470478"><ele>204.8</ele><time>2026-04-12T06:39:12Z</time></trkpt><trkpt lat="45.84395325365714" lon="9.401146267520936"><ele>204.20000000000002</ele><time>2026-04-12T06:39:14Z</time></trkpt><trkpt lat="45.84389682509469" lon="9.401225960992324"><ele>203.60000000000002</ele><time>2026-04-12T06:39:15Z</time></trkpt><trkpt lat="45.84384218710427" lon="9.40131705776087"><ele>203.0</ele><time>2026-04-12T06:39:16Z</time></trkpt><trkpt lat="45.84378176050428" lon="9.401414140404196"><ele>202.8</ele><time>2026-04-12T06:39:17Z</time></trkpt><trkpt lat="45.84371643066069" lon="9.401516349199946"><ele>202.60000000000002</ele><time>2026-04-12T06:39:18Z</time></trkpt><trkpt lat="45.84364550358714" lon="9.401620833219262"><ele>202.39999999999998</ele><time>2026-04-12T06:39:19Z</time></trkpt><trkpt lat="45.84356998965133" lon="9.40173258696048"><ele>202.2</ele><time>2026-04-12T06:39:20Z</time></trkpt><trkpt lat="45.84348708151947" lon="9.401845637025875"><ele>202.0</ele><time>2026-04-12T06:39:21Z</time></trkpt><trkpt lat="45.84340049324401" lon="9.401963852126404"><ele>202.0</ele><time>2026-04-12T06:39:22Z</time></trkpt><trkpt lat="45.84331308920745" lon="9.40208884888322"><ele>202.0</ele><time>2026-04-12T06:39:23Z</time></trkpt><trkpt lat="45.84322400777837" lon="9.402219895388933"><ele>202.0</ele><time>2026-04-12T06:39:24Z</time></trkpt><trkpt lat="45.84313209860038" lon="9.402352903175185"><ele>202.0</ele><time>2026-04-12T06:39:25Z</time></trkpt><trkpt lat="45.84304278821554" lon="9.402487954017879"><ele>202.0</ele><time>2026-04-12T06:39:26Z</time></trkpt><trkpt lat="45.84294539591949" lon="9.402626199969108"><ele>202.0</ele><time>2026-04-12T06:39:27Z</time></trkpt><trkpt lat="45.84284827566184" lon="9.402765818205827"><ele>202.0</ele><time>2026-04-12T06:39:28Z</time></trkpt><trkpt lat="45.84275192794975" lon="9.402901653631304"><ele>202.0</ele><time>2026-04-12T06:39:29Z</time></trkpt><trkpt lat="45.842652090975825" lon="9.403039234579337"><ele>203.0</ele><time>2026-04-12T06:39:30Z</time></trkpt><trkpt lat="45.842550229135476" lon="9.403176279351644"><ele>204.0</ele><time>2026-04-12T06:39:31Z</time></trkpt><trkpt lat="45.842450791366495" lon="9.403311351268025"><ele>205.0</ele><time>2026-04-12T06:39:32Z</time></trkpt><trkpt lat="45.84235382642732" lon="9.403446634408143"><ele>206.0</ele><time>2026-04-12T06:39:33Z</time></trkpt><trkpt lat="45.842258637690584" lon="9.403575020976971"><ele>206.0</ele><time>2026-04-12T06:39:34Z</time></trkpt><trkpt lat="45.84216172629298" lon="9.403706861527757"><ele>206.0</ele><time>2026-04-12T06:39:35Z</time></trkpt><trkpt lat="45.842066835037826" lon="9.403838543117084"><ele>206.0</ele><time>2026-04-12T06:39:36Z</time></trkpt><trkpt lat="45.84197540327718" lon="9.403970530675071"><ele>206.0</ele><time>2026-04-12T06:39:37Z</time></trkpt><trkpt lat="45.8418973445467" lon="9.40410851653367"><ele>206.0</ele><time>2026-04-12T06:39:38Z</time></trkpt><trkpt lat="45.841832175935735" lon="9.40424434812081"><ele>206.0</ele><time>2026-04-12T06:39:39Z</time></trkpt><trkpt lat="45.84177702982135" lon="9.404374198015944"><ele>206.0</ele><time>2026-04-12T06:39:40Z</time></trkpt><trkpt lat="45.84173827529331" lon="9.404494775531496"><ele>206.0</ele><time>2026-04-12T06:39:41Z</time></trkpt><trkpt lat="45.84170389901834" lon="9.404604873259817"><ele>206.0</ele><time>2026-04-12T06:39:42Z</time></trkpt><trkpt lat="45.84167001307626" lon="9.404686056256255"><ele>206.50000000000003</ele><time>2026-04-12T06:39:43Z</time></trkpt><trkpt lat="45.84161857642745" lon="9.404840438062678"><ele>207.0</ele><time>2026-04-12T06:39:45Z</time></trkpt><trkpt lat="45.841582212880056" lon="9.404916577206595"><ele>207.5</ele><time>2026-04-12T06:39:45.999Z</time></trkpt><trkpt lat="45.84162211808053" lon="9.405032637039886"><ele>208.0</ele><time>2026-04-12T06:39:46.999Z</time></trkpt><trkpt lat="45.841680929226804" lon="9.405089921849925"><ele>208.50000000000003</ele><time>2026-04-12T06:39:47.999Z</time></trkpt><trkpt lat="45.84171518374378" lon="9.405175176031266"><ele>209.0</ele><time>2026-04-12T06:39:48.999Z</time></trkpt><trkpt lat="45.841723104986166" lon="9.405295061698945"><ele>209.0</ele><time>2026-04-12T06:39:49.999Z</time></trkpt><trkpt lat="45.84172091590137" lon="9.405431495610559"><ele>209.0</ele><time>2026-04-12T06:39:50.999Z</time></trkpt><trkpt lat="45.84174408699986" lon="9.405580857263997"><ele>209.0</ele><time>2026-04-12T06:39:51.999Z</time></trkpt><trkpt lat="45.84177410045796" lon="9.405737021971616"><ele>209.0</ele><time>2026-04-12T06:39:52.999Z</time></trkpt><trkpt lat="45.841808785780515" lon="9.405905949291348"><ele>209.0</ele><time>2026-04-12T06:39:53.999Z</time></trkpt><trkpt lat="45.8418432989306" lon="9.406082721196295"><ele>209.75</ele><time>2026-04-12T06:39:54.999Z</time></trkpt><trkpt lat="45.84187969988767" lon="9.406260428786776"><ele>210.5</ele><time>2026-04-12T06:39:55.999Z</time></trkpt><trkpt lat="45.84191181939989" lon="9.406438976584006"><ele>211.25</ele><time>2026-04-12T06:39:56.999Z</time></trkpt><trkpt lat="45.8419331863933" lon="9.406631021951153"><ele>212.0</ele><time>2026-04-12T06:39:57.999Z</time></trkpt><trkpt lat="45.84194113052094" lon="9.406821428403283"><ele>212.0</ele><time>2026-04-12T06:39:58.999Z</time></trkpt><trkpt lat="45.84193534055076" lon="9.407007651045951"><ele>212.0</ele><time>2026-04-12T06:39:59.999Z</time></trkpt><trkpt lat="45.84189730537549" lon="9.40718730227692"><ele>212.0</ele><time>2026-04-12T06:40:00.999Z</time></trkpt><trkpt lat="45.84185972494046" lon="9.407360831729756"><ele>212.0</ele><time>2026-04-12T06:40:01.999Z</time></trkpt><trkpt lat="45.8418235017798" lon="9.407538593088118"><ele>211.0</ele><time>2026-04-12T06:40:02.999Z</time></trkpt><trkpt lat="45.84176255544444" lon="9.407693392721647"><ele>210.0</ele><time>2026-04-12T06:40:03.999Z</time></trkpt><trkpt lat="45.84169081738045" lon="9.407833948087625"><ele>209.0</ele><time>2026-04-12T06:40:04.999Z</time></trkpt><trkpt lat="45.84161585790056" lon="9.407953425603177"><ele>208.0</ele><time>2026-04-12T06:40:05.999Z</time></trkpt><trkpt lat="45.841523398244966" lon="9.408051863338395"><ele>207.99999999999997</ele><time>2026-04-12T06:40:06.999Z</time></trkpt><trkpt lat="45.841446415580336" lon="9.408150403585674"><ele>208.0</ele><time>2026-04-12T06:40:07.999Z</time></trkpt><trkpt lat="45.84137431753883" lon="9.40823654142999"><ele>208.0</ele><time>2026-04-12T06:40:08.999Z</time></trkpt><trkpt lat="45.84131197691779" lon="9.408302799703545"><ele>208.0</ele><time>2026-04-12T06:40:09.999Z</time></trkpt><trkpt lat="45.84125665010939" lon="9.408358175047674"><ele>207.99999999999997</ele><time>2026-04-12T06:40:10.999Z</time></trkpt><trkpt lat="45.841202420864924" lon="9.408415462779995"><ele>208.0</ele><time>2026-04-12T06:40:11.999Z</time></trkpt><trkpt lat="45.841141158303195" lon="9.4084978572747"><ele>208.0</ele><time>2026-04-12T06:40:13Z</time></trkpt><trkpt lat="45.841070151924654" lon="9.408609702641135"><ele>208.0</ele><time>2026-04-12T06:40:14Z</time></trkpt><trkpt lat="45.84099308901278" lon="9.408729683781731"><ele>208.0</ele><time>2026-04-12T06:40:15Z</time></trkpt><trkpt lat="45.840909857183625" lon="9.408850505140782"><ele>208.0</ele><time>2026-04-12T06:40:16Z</time></trkpt><trkpt lat="45.840820357172404" lon="9.408975214467748"><ele>208.5</ele><time>2026-04-12T06:40:17Z</time></trkpt><trkpt lat="45.840719907228845" lon="9.409106194003575"><ele>209.0</ele><time>2026-04-12T06:40:18Z</time></trkpt><trkpt lat="45.840618745982965" lon="9.409236368694637"><ele>209.5</ele><time>2026-04-12T06:40:19Z</time></trkpt><trkpt lat="45.840519768381036" lon="9.409368510505757"><ele>210.0</ele><time>2026-04-12T06:40:20Z</time></trkpt><trkpt lat="45.84041736896563" lon="9.409504153556686"><ele>210.0</ele><time>2026-04-12T06:40:21Z</time></trkpt><trkpt lat="45.84031368453758" lon="9.409640860325398"><ele>210.0</ele><time>2026-04-12T06:40:22Z</time></trkpt><trkpt lat="45.84021188035045" lon="9.40977486199743"><ele>210.0</ele><time>2026-04-12T06:40:23Z</time></trkpt><trkpt lat="45.84011014597446" lon="9.409910525976152"><ele>210.0</ele><time>2026-04-12T06:40:24Z</time></trkpt><trkpt lat="45.84001903831522" lon="9.410036618394159"><ele>209.5</ele><time>2026-04-12T06:40:25Z</time></trkpt><trkpt lat="45.839939686893" lon="9.410149694770215"><ele>209.0</ele><time>2026-04-12T06:40:26Z</time></trkpt><trkpt lat="45.83987100466887" lon="9.41024730761059"><ele>208.5</ele><time>2026-04-12T06:40:27Z</time></trkpt><trkpt lat="45.839817746045355" lon="9.41032631894545"><ele>208.0</ele><time>2026-04-12T06:40:28Z</time></trkpt><trkpt lat="45.8397601171896" lon="9.410409900956136"><ele>207.5</ele><time>2026-04-12T06:40:30Z</time></trkpt><trkpt lat="45.83971367590981" lon="9.410473775180302"><ele>207.0</ele><time>2026-04-12T06:40:34Z</time></trkpt><trkpt lat="45.83966742321432" lon="9.41059693645115"><ele>207.0</ele><time>2026-04-12T06:40:36Z</time></trkpt><trkpt lat="45.839641846555054" lon="9.410715660369327"><ele>207.0</ele><time>2026-04-12T06:40:38Z</time></trkpt><trkpt lat="45.839716144527905" lon="9.410803962860978"><ele>207.0</ele><time>2026-04-12T06:40:39Z</time></trkpt><trkpt lat="45.83979077873974" lon="9.410816011057907"><ele>207.0</ele><time>2026-04-12T06:40:40Z</time></trkpt><trkpt lat="45.83985873135732" lon="9.410795298504102"><ele>207.0</ele><time>2026-04-12T06:40:41Z</time></trkpt><trkpt lat="45.83994047638851" lon="9.41079551016933"><ele>207.0</ele><time>2026-04-12T06:40:42Z</time></trkpt><trkpt lat="45.84002358375" lon="9.410798766314507"><ele>207.0</ele><time>2026-04-12T06:40:43Z</time></trkpt><trkpt lat="45.8401243061401" lon="9.410797822273745"><ele>207.0</ele><time>2026-04-12T06:40:44Z</time></trkpt><trkpt lat="45.84023494850997" lon="9.410787921657656"><ele>207.0</ele><time>2026-04-12T06:40:45Z</time></trkpt><trkpt lat="45.84035247303865" lon="9.410775792245666"><ele>207.0</ele><time>2026-04-12T06:40:46Z</time></trkpt><trkpt lat="45.84047419049456" lon="9.410767411996105"><ele>207.75</ele><time>2026-04-12T06:40:47Z</time></trkpt><trkpt lat="45.84060348162162" lon="9.410759858426617"><ele>208.5</ele><time>2026-04-12T06:40:48Z</time></trkpt><trkpt lat="45.84072966911452" lon="9.410752745245748"><ele>209.25</ele><time>2026-04-12T06:40:49Z</time></trkpt><trkpt lat="45.840855661770114" lon="9.410744205886713"><ele>210.0</ele><time>2026-04-12T06:40:50Z</time></trkpt><trkpt lat="45.84098195280242" lon="9.410733209643023"><ele>210.5</ele><time>2026-04-12T06:40:51Z</time></trkpt><trkpt lat="45.84111138751236" lon="9.410724390478077"><ele>211.0</ele><time>2026-04-12T06:40:52Z</time></trkpt><trkpt lat="45.84124445893686" lon="9.41071186662704"><ele>211.5</ele><time>2026-04-12T06:40:53Z</time></trkpt><trkpt lat="45.84137742269229" lon="9.410695133100486"><ele>212.0</ele><time>2026-04-12T06:40:54Z</time></trkpt><trkpt lat="45.84151210787545" lon="9.41068788039732"><ele>212.0</ele><time>2026-04-12T06:40:55Z</time></trkpt><trkpt lat="45.84164945012308" lon="9.410683104628493"><ele>212.0</ele><time>2026-04-12T06:40:56Z</time></trkpt><trkpt lat="45.84178148311956" lon="9.410671633091484"><ele>212.0</ele><time>2026-04-12T06:40:57Z</time></trkpt><trkpt lat="45.84191876558923" lon="9.41066290196432"><ele>212.0</ele><time>2026-04-12T06:40:58Z</time></trkpt><trkpt lat="45.842061527753785" lon="9.410655479955809"><ele>212.75</ele><time>2026-04-12T06:40:59Z</time></trkpt><trkpt lat="45.842205951234156" lon="9.410648647640231"><ele>213.5</ele><time>2026-04-12T06:41:00Z</time></trkpt><trkpt lat="45.842355052938935" lon="9.410631154883403"><ele>214.25</ele><time>2026-04-12T06:41:01Z</time></trkpt><trkpt lat="45.842496017872776" lon="9.410622040537385"><ele>215.0</ele><time>2026-04-12T06:41:02Z</time></trkpt><trkpt lat="45.84263633647818" lon="9.41061137607368"><ele>215.5</ele><time>2026-04-12T06:41:03Z</time></trkpt><trkpt lat="45.8427727673468" lon="9.410600573974289"><ele>216.0</ele><time>2026-04-12T06:41:04Z</time></trkpt><trkpt lat="45.842904562392846" lon="9.410596210569745"><ele>216.5</ele><time>2026-04-12T06:41:05Z</time></trkpt><trkpt lat="45.84304093198456" lon="9.410586504848064"><ele>217.0</ele><time>2026-04-12T06:41:06Z</time></trkpt><trkpt lat="45.84317954115954" lon="9.410574877468626"><ele>217.0</ele><time>2026-04-12T06:41:07Z</time></trkpt><trkpt lat="45.843322055383666" lon="9.41056184088582"><ele>217.0</ele><time>2026-04-12T06:41:08Z</time></trkpt><trkpt lat="45.84346326589047" lon="9.410554417185901"><ele>217.0</ele><time>2026-04-12T06:41:09Z</time></trkpt><trkpt lat="45.8436008478379" lon="9.410547889121162"><ele>217.0</ele><time>2026-04-12T06:41:10Z</time></trkpt><trkpt lat="45.84373922347931" lon="9.410539775329717"><ele>217.5</ele><time>2026-04-12T06:41:11Z</time></trkpt><trkpt lat="45.843880153810844" lon="9.410528400378391"><ele>218.0</ele><time>2026-04-12T06:41:12Z</time></trkpt><trkpt lat="45.84402170014674" lon="9.410516420357887"><ele>218.5</ele><time>2026-04-12T06:41:13Z</time></trkpt><trkpt lat="45.84416406015255" lon="9.410503872210889"><ele>219.0</ele><time>2026-04-12T06:41:14Z</time></trkpt><trkpt lat="45.844305495271776" lon="9.410492137226546"><ele>218.5</ele><time>2026-04-12T06:41:15Z</time></trkpt><trkpt lat="45.8444420547468" lon="9.41048141954633"><ele>218.0</ele><time>2026-04-12T06:41:16Z</time></trkpt><trkpt lat="45.84458267703692" lon="9.41046825660937"><ele>217.5</ele><time>2026-04-12T06:41:17Z</time></trkpt><trkpt lat="45.844718098507556" lon="9.410457578457315"><ele>217.0</ele><time>2026-04-12T06:41:18Z</time></trkpt><trkpt lat="45.844852688466595" lon="9.410446202036676"><ele>217.0</ele><time>2026-04-12T06:41:19Z</time></trkpt><trkpt lat="45.844983473968284" lon="9.410439585144848"><ele>217.0</ele><time>2026-04-12T06:41:20Z</time></trkpt><trkpt lat="45.845115087569255" lon="9.41043715174311"><ele>217.0</ele><time>2026-04-12T06:41:21Z</time></trkpt><trkpt lat="45.845235947779315" lon="9.410434327809776"><ele>217.0</ele><time>2026-04-12T06:41:22Z</time></trkpt><trkpt lat="45.84535137603937" lon="9.410428921275399"><ele>217.66666666666666</ele><time>2026-04-12T06:41:23Z</time></trkpt><trkpt lat="45.84545137956214" lon="9.410420213818973"><ele>218.33333333333331</ele><time>2026-04-12T06:41:24Z</time></trkpt><trkpt lat="45.84553930007465" lon="9.410410934164245"><ele>219.0</ele><time>2026-04-12T06:41:25Z</time></trkpt><trkpt lat="45.84562751849134" lon="9.410404689631397"><ele>219.66666666666669</ele><time>2026-04-12T06:41:26Z</time></trkpt><trkpt lat="45.84570643756226" lon="9.410397616538178"><ele>220.33333333333334</ele><time>2026-04-12T06:41:27Z</time></trkpt><trkpt lat="45.84577738857694" lon="9.41039326067048"><ele>221.0</ele><time>2026-04-12T06:41:28Z</time></trkpt><trkpt lat="45.84584194467575" lon="9.410384343451813"><ele>221.33333333333334</ele><time>2026-04-12T06:41:29Z</time></trkpt><trkpt lat="45.84596979914745" lon="9.41036456579174"><ele>221.66666666666669</ele><time>2026-04-12T06:41:31Z</time></trkpt><trkpt lat="45.84604128072692" lon="9.410371539152207"><ele>222.0</ele><time>2026-04-12T06:41:32Z</time></trkpt><trkpt lat="45.8461187940143" lon="9.410370598761162"><ele>222.33333333333331</ele><time>2026-04-12T06:41:33Z</time></trkpt><trkpt lat="45.846199734807726" lon="9.410358520600832"><ele>222.66666666666666</ele><time>2026-04-12T06:41:34Z</time></trkpt><trkpt lat="45.84628455229989" lon="9.410352837928663"><ele>223.0</ele><time>2026-04-12T06:41:35Z</time></trkpt><trkpt lat="45.84637096678481" lon="9.410353680548257"><ele>223.0</ele><time>2026-04-12T06:41:36Z</time></trkpt><trkpt lat="45.84646127175335" lon="9.410352498495625"><ele>223.0</ele><time>2026-04-12T06:41:36.999Z</time></trkpt><trkpt lat="45.84655399498752" lon="9.41035052363862"><ele>223.0</ele><time>2026-04-12T06:41:37.999Z</time></trkpt><trkpt lat="45.84664767581509" lon="9.410350390571601"><ele>223.0</ele><time>2026-04-12T06:41:38.999Z</time></trkpt><trkpt lat="45.84674287133545" lon="9.410352006966262"><ele>223.0</ele><time>2026-04-12T06:41:39.999Z</time></trkpt><trkpt lat="45.84683908027071" lon="9.410355747701757"><ele>223.8</ele><time>2026-04-12T06:41:40.999Z</time></trkpt><trkpt lat="45.84693982302901" lon="9.410369744775751"><ele>224.60000000000002</ele><time>2026-04-12T06:41:41.999Z</time></trkpt><trkpt lat="45.84704029864461" lon="9.410406799237139"><ele>225.39999999999998</ele><time>2026-04-12T06:41:42.999Z</time></trkpt><trkpt lat="45.84713442432572" lon="9.410469968444701"><ele>226.2</ele><time>2026-04-12T06:41:43.999Z</time></trkpt><trkpt lat="45.84721937226143" lon="9.410553209367135"><ele>227.0</ele><time>2026-04-12T06:41:44.999Z</time></trkpt><trkpt lat="45.84730232758589" lon="9.410635318291323"><ele>227.00000000000003</ele><time>2026-04-12T06:41:45.999Z</time></trkpt><trkpt lat="45.847373219341435" lon="9.410712926920937"><ele>227.0</ele><time>2026-04-12T06:41:46.999Z</time></trkpt><trkpt lat="45.84744346604199" lon="9.410788215177009"><ele>227.0</ele><time>2026-04-12T06:41:47.999Z</time></trkpt><trkpt lat="45.84751204497462" lon="9.410854088937798"><ele>227.0</ele><time>2026-04-12T06:41:48.999Z</time></trkpt><trkpt lat="45.84758034328558" lon="9.410916952047966"><ele>227.00000000000003</ele><time>2026-04-12T06:41:49.999Z</time></trkpt><trkpt lat="45.84764000743185" lon="9.410977504981757"><ele>227.0</ele><time>2026-04-12T06:41:50.999Z</time></trkpt><trkpt lat="45.847688451439865" lon="9.411035335536715"><ele>227.50000000000003</ele><time>2026-04-12T06:41:51.999Z</time></trkpt><trkpt lat="45.847765838044765" lon="9.411144724145545"><ele>228.0</ele><time>2026-04-12T06:41:53.999Z</time></trkpt><trkpt lat="45.84781353646421" lon="9.411210046908177"><ele>228.5</ele><time>2026-04-12T06:41:54.999Z</time></trkpt><trkpt lat="45.84787013150606" lon="9.41127979229967"><ele>229.0</ele><time>2026-04-12T06:41:55.999Z</time></trkpt><trkpt lat="45.84793215206122" lon="9.41135453761313"><ele>229.50000000000003</ele><time>2026-04-12T06:41:56.999Z</time></trkpt><trkpt lat="45.84799134820929" lon="9.41144140795067"><ele>230.0</ele><time>2026-04-12T06:41:57.999Z</time></trkpt><trkpt lat="45.848057937881535" lon="9.411530796730306"><ele>230.0</ele><time>2026-04-12T06:41:58.999Z</time></trkpt><trkpt lat="45.84812855729513" lon="9.411621909892602"><ele>230.0</ele><time>2026-04-12T06:41:59.999Z</time></trkpt><trkpt lat="45.848204031753" lon="9.411719779160835"><ele>230.0</ele><time>2026-04-12T06:42:00.999Z</time></trkpt><trkpt lat="45.848282972070535" lon="9.411819332266662"><ele>230.0</ele><time>2026-04-12T06:42:01.999Z</time></trkpt><trkpt lat="45.8483600866859" lon="9.411921904727526"><ele>230.0</ele><time>2026-04-12T06:42:02.999Z</time></trkpt><trkpt lat="45.84843460825423" lon="9.412022326199688"><ele>231.2</ele><time>2026-04-12T06:42:03.999Z</time></trkpt><trkpt lat="45.84850951387889" lon="9.412126870389574"><ele>232.4</ele><time>2026-04-12T06:42:04.999Z</time></trkpt><trkpt lat="45.84858275522095" lon="9.412229780535835"><ele>233.60000000000002</ele><time>2026-04-12T06:42:05.999Z</time></trkpt><trkpt lat="45.84865311519515" lon="9.41232972140076"><ele>234.8</ele><time>2026-04-12T06:42:06.999Z</time></trkpt><trkpt lat="45.84872127304019" lon="9.412425412914988"><ele>236.0</ele><time>2026-04-12T06:42:07.999Z</time></trkpt><trkpt lat="45.84879413173822" lon="9.412514104099262"><ele>236.0</ele><time>2026-04-12T06:42:08.999Z</time></trkpt><trkpt lat="45.84887865791363" lon="9.412588778877323"><ele>236.00000000000003</ele><time>2026-04-12T06:42:09.999Z</time></trkpt><trkpt lat="45.84897038532592" lon="9.412642633765435"><ele>236.00000000000003</ele><time>2026-04-12T06:42:10.999Z</time></trkpt><trkpt lat="45.849062463953686" lon="9.41270004669285"><ele>236.0</ele><time>2026-04-12T06:42:11.999Z</time></trkpt><trkpt lat="45.849156815045276" lon="9.412757440261753"><ele>236.0</ele><time>2026-04-12T06:42:12.999Z</time></trkpt><trkpt lat="45.849248622091324" lon="9.412821972405226"><ele>237.0</ele><time>2026-04-12T06:42:13.999Z</time></trkpt><trkpt lat="45.84933614511967" lon="9.412887942024538"><ele>238.00000000000003</ele><time>2026-04-12T06:42:14.999Z</time></trkpt><trkpt lat="45.849419880239594" lon="9.412964110488026"><ele>239.00000000000003</ele><time>2026-04-12T06:42:15.999Z</time></trkpt><trkpt lat="45.84950351407081" lon="9.413040533046296"><ele>240.0</ele><time>2026-04-12T06:42:16.999Z</time></trkpt><trkpt lat="45.84958284701234" lon="9.413124877201897"><ele>241.0</ele><time>2026-04-12T06:42:17.999Z</time></trkpt><trkpt lat="45.84966535012768" lon="9.413213315617968"><ele>241.4</ele><time>2026-04-12T06:42:19Z</time></trkpt><trkpt lat="45.8497523480867" lon="9.41329804347325"><ele>241.8</ele><time>2026-04-12T06:42:20Z</time></trkpt><trkpt lat="45.849841326583714" lon="9.413383442719221"><ele>242.20000000000002</ele><time>2026-04-12T06:42:21Z</time></trkpt><trkpt lat="45.84992783265004" lon="9.413469407940465"><ele>242.60000000000002</ele><time>2026-04-12T06:42:22Z</time></trkpt><trkpt lat="45.85001090710392" lon="9.413552869887596"><ele>243.0</ele><time>2026-04-12T06:42:23Z</time></trkpt><trkpt lat="45.850099661049086" lon="9.413632646878662"><ele>243.8</ele><time>2026-04-12T06:42:24Z</time></trkpt><trkpt lat="45.850185845330635" lon="9.413723353999073"><ele>244.60000000000002</ele><time>2026-04-12T06:42:25Z</time></trkpt><trkpt lat="45.85027703644224" lon="9.413804596055474"><ele>245.39999999999998</ele><time>2026-04-12T06:42:26Z</time></trkpt><trkpt lat="45.85036210071222" lon="9.41387459241883"><ele>246.2</ele><time>2026-04-12T06:42:27Z</time></trkpt><trkpt lat="45.8504424847775" lon="9.413937984892367"><ele>247.0</ele><time>2026-04-12T06:42:28Z</time></trkpt><trkpt lat="45.85051566211707" lon="9.41399344690754"><ele>246.99999999999997</ele><time>2026-04-12T06:42:29Z</time></trkpt><trkpt lat="45.85057132301257" lon="9.41403743920669"><ele>247.0</ele><time>2026-04-12T06:42:30Z</time></trkpt><trkpt lat="45.85062891448989" lon="9.414131710617152"><ele>247.0</ele><time>2026-04-12T06:42:32Z</time></trkpt><trkpt lat="45.8506972802235" lon="9.414207824519822"><ele>247.0</ele><time>2026-04-12T06:42:38Z</time></trkpt><trkpt lat="45.85072028830459" lon="9.414354968107984"><ele>246.99999999999997</ele><time>2026-04-12T06:42:40Z</time></trkpt><trkpt lat="45.850786829674114" lon="9.414400850572715"><ele>247.0</ele><time>2026-04-12T06:42:41Z</time></trkpt><trkpt lat="45.85084627395951" lon="9.414433675534749"><ele>247.0</ele><time>2026-04-12T06:42:42Z</time></trkpt><trkpt lat="45.85091221387016" lon="9.414434188818745"><ele>247.0</ele><time>2026-04-12T06:42:43Z</time></trkpt><trkpt lat="45.85104538465919" lon="9.414394734280132"><ele>247.0</ele><time>2026-04-12T06:42:45Z</time></trkpt><trkpt lat="45.851124960084235" lon="9.41435621954782"><ele>247.0</ele><time>2026-04-12T06:42:46Z</time></trkpt><trkpt lat="45.85121786765144" lon="9.414303579126015"><ele>247.0</ele><time>2026-04-12T06:42:47Z</time></trkpt><trkpt lat="45.85130328791475" lon="9.414248304372698"><ele>248.25</ele><time>2026-04-12T06:42:48Z</time></trkpt><trkpt lat="45.85139894102791" lon="9.414186483637815"><ele>249.5</ele><time>2026-04-12T06:42:49Z</time></trkpt><trkpt lat="45.851499242879115" lon="9.414118966378044"><ele>250.75</ele><time>2026-04-12T06:42:50Z</time></trkpt><trkpt lat="45.85160799076998" lon="9.414048048046565"><ele>252.0</ele><time>2026-04-12T06:42:51Z</time></trkpt><trkpt lat="45.851711726979666" lon="9.413976390367084"><ele>252.25</ele><time>2026-04-12T06:42:52Z</time></trkpt><trkpt lat="45.85182059621524" lon="9.41389667602931"><ele>252.5</ele><time>2026-04-12T06:42:53Z</time></trkpt><trkpt lat="45.851932896026746" lon="9.413808722006783"><ele>252.75</ele><time>2026-04-12T06:42:54Z</time></trkpt><trkpt lat="45.85204812577331" lon="9.413719122055118"><ele>253.0</ele><time>2026-04-12T06:42:55Z</time></trkpt><trkpt lat="45.85216326883017" lon="9.413629353916445"><ele>253.0</ele><time>2026-04-12T06:42:56Z</time></trkpt><trkpt lat="45.852280696336" lon="9.413546517045255"><ele>253.0</ele><time>2026-04-12T06:42:57Z</time></trkpt><trkpt lat="45.8523869729725" lon="9.41344763321748"><ele>253.0</ele><time>2026-04-12T06:42:58Z</time></trkpt><trkpt lat="45.85251197208351" lon="9.413361162472793"><ele>253.0</ele><time>2026-04-12T06:42:59Z</time></trkpt><trkpt lat="45.852641365731145" lon="9.413274111551805"><ele>252.0</ele><time>2026-04-12T06:43:00Z</time></trkpt><trkpt lat="45.85276399213129" lon="9.413173256757325"><ele>251.0</ele><time>2026-04-12T06:43:01Z</time></trkpt><trkpt lat="45.852888382338094" lon="9.413086956958272"><ele>250.0</ele><time>2026-04-12T06:43:02Z</time></trkpt><trkpt lat="45.85301603828945" lon="9.412999980256869"><ele>249.0</ele><time>2026-04-12T06:43:03Z</time></trkpt><trkpt lat="45.85313410636893" lon="9.412915706380321"><ele>248.39999999999998</ele><time>2026-04-12T06:43:04Z</time></trkpt><trkpt lat="45.853242487724415" lon="9.412840747118778"><ele>247.79999999999998</ele><time>2026-04-12T06:43:05Z</time></trkpt><trkpt lat="45.853338157278245" lon="9.412781017857004"><ele>247.20000000000002</ele><time>2026-04-12T06:43:06Z</time></trkpt><trkpt lat="45.85342380594485" lon="9.412733197755134"><ele>246.60000000000002</ele><time>2026-04-12T06:43:07Z</time></trkpt><trkpt lat="45.853507890772626" lon="9.412697219763542"><ele>246.0</ele><time>2026-04-12T06:43:08Z</time></trkpt><trkpt lat="45.8535809585595" lon="9.412679502753965"><ele>246.0</ele><time>2026-04-12T06:43:09Z</time></trkpt><trkpt lat="45.85365831708311" lon="9.412680759861873"><ele>246.0</ele><time>2026-04-12T06:43:10Z</time></trkpt><trkpt lat="45.85373186506837" lon="9.412718495536588"><ele>246.0</ele><time>2026-04-12T06:43:11Z</time></trkpt><trkpt lat="45.85379940847448" lon="9.41266778089768"><ele>246.0</ele><time>2026-04-12T06:43:12Z</time></trkpt><trkpt lat="45.85386120545196" lon="9.412617490434052"><ele>246.0</ele><time>2026-04-12T06:43:13Z</time></trkpt><trkpt lat="45.85392924715616" lon="9.412553660422537"><ele>246.0</ele><time>2026-04-12T06:43:14Z</time></trkpt><trkpt lat="45.85400917822741" lon="9.412488216801265"><ele>246.0</ele><time>2026-04-12T06:43:15Z</time></trkpt><trkpt lat="45.854101936875885" lon="9.412445563118196"><ele>246.00000000000003</ele><time>2026-04-12T06:43:16Z</time></trkpt><trkpt lat="45.85420838891811" lon="9.412461445172395"><ele>246.00000000000003</ele><time>2026-04-12T06:43:17Z</time></trkpt><trkpt lat="45.85431816287364" lon="9.412444944700068"><ele>246.0</ele><time>2026-04-12T06:43:18Z</time></trkpt><trkpt lat="45.85442902690019" lon="9.412428280377698"><ele>246.0</ele><time>2026-04-12T06:43:19Z</time></trkpt><trkpt lat="45.85452937258955" lon="9.412398975062215"><ele>246.4</ele><time>2026-04-12T06:43:20Z</time></trkpt><trkpt lat="45.85463904963546" lon="9.41238203835091"><ele>246.8</ele><time>2026-04-12T06:43:21Z</time></trkpt><trkpt lat="45.85475016325469" lon="9.412363198120367"><ele>247.20000000000002</ele><time>2026-04-12T06:43:22Z</time></trkpt><trkpt lat="45.85485871370498" lon="9.412341348518268"><ele>247.60000000000002</ele><time>2026-04-12T06:43:23Z</time></trkpt><trkpt lat="45.854957657562096" lon="9.412329495970113"><ele>248.0</ele><time>2026-04-12T06:43:24Z</time></trkpt><trkpt lat="45.8550627139891" lon="9.412309485946164"><ele>248.0</ele><time>2026-04-12T06:43:25Z</time></trkpt><trkpt lat="45.855173578233156" lon="9.412287566759876"><ele>248.0</ele><time>2026-04-12T06:43:26Z</time></trkpt><trkpt lat="45.8552789288253" lon="9.412256971614497"><ele>248.0</ele><time>2026-04-12T06:43:27Z</time></trkpt><trkpt lat="45.855384131979065" lon="9.41222215825203"><ele>248.0</ele><time>2026-04-12T06:43:28Z</time></trkpt><trkpt lat="45.8554852802379" lon="9.412185746861574"><ele>248.0</ele><time>2026-04-12T06:43:29Z</time></trkpt><trkpt lat="45.855584340750625" lon="9.412145014050472"><ele>248.00000000000003</ele><time>2026-04-12T06:43:30Z</time></trkpt><trkpt lat="45.855682061494036" lon="9.41210474831263"><ele>248.0</ele><time>2026-04-12T06:43:31Z</time></trkpt><trkpt lat="45.85576745737621" lon="9.412082826752616"><ele>248.0</ele><time>2026-04-12T06:43:32Z</time></trkpt><trkpt lat="45.855846579205355" lon="9.41205012960361"><ele>248.0</ele><time>2026-04-12T06:43:33Z</time></trkpt><trkpt lat="45.85592206889181" lon="9.412034508269581"><ele>248.00000000000003</ele><time>2026-04-12T06:43:34Z</time></trkpt><trkpt lat="45.85600321815159" lon="9.412021696577424"><ele>248.0</ele><time>2026-04-12T06:43:35Z</time></trkpt><trkpt lat="45.85608272667955" lon="9.41197984416372"><ele>248.60000000000002</ele><time>2026-04-12T06:43:36Z</time></trkpt><trkpt lat="45.856168649990664" lon="9.411915681648996"><ele>249.20000000000002</ele><time>2026-04-12T06:43:37Z</time></trkpt><trkpt lat="45.856258587759584" lon="9.411847388466198"><ele>249.8</ele><time>2026-04-12T06:43:38Z</time></trkpt><trkpt lat="45.8563549720312" lon="9.411772899909854"><ele>250.4</ele><time>2026-04-12T06:43:39Z</time></trkpt><trkpt lat="45.85645446678203" lon="9.41169246775049"><ele>251.0</ele><time>2026-04-12T06:43:40Z</time></trkpt><trkpt lat="45.85655367842014" lon="9.411613887103654"><ele>251.00000000000003</ele><time>2026-04-12T06:43:41Z</time></trkpt><trkpt lat="45.85664897304199" lon="9.411532024724746"><ele>251.0</ele><time>2026-04-12T06:43:42Z</time></trkpt><trkpt lat="45.85673840640116" lon="9.41144807331956"><ele>251.0</ele><time>2026-04-12T06:43:43Z</time></trkpt><trkpt lat="45.85681546961333" lon="9.411378806956495"><ele>251.0</ele><time>2026-04-12T06:43:44Z</time></trkpt><trkpt lat="45.8568730991564" lon="9.4113329632861"><ele>251.00000000000003</ele><time>2026-04-12T06:43:45Z</time></trkpt><trkpt lat="45.85693329791906" lon="9.41127637193306"><ele>251.0</ele><time>2026-04-12T06:43:46Z</time></trkpt><trkpt lat="45.85699859526268" lon="9.411209974989616"><ele>251.16666666666669</ele><time>2026-04-12T06:43:47Z</time></trkpt><trkpt lat="45.857057787486966" lon="9.411141065271948"><ele>251.33333333333334</ele><time>2026-04-12T06:43:48Z</time></trkpt><trkpt lat="45.857117840326566" lon="9.411059470695944"><ele>251.5</ele><time>2026-04-12T06:43:49Z</time></trkpt><trkpt lat="45.8571781908368" lon="9.410983826636583"><ele>251.66666666666669</ele><time>2026-04-12T06:43:50Z</time></trkpt><trkpt lat="45.857242744020695" lon="9.41089990449965"><ele>251.83333333333334</ele><time>2026-04-12T06:43:51Z</time></trkpt><trkpt lat="45.857311498261105" lon="9.41080678774585"><ele>252.0</ele><time>2026-04-12T06:43:52Z</time></trkpt><trkpt lat="45.85738277119926" lon="9.41071745995274"><ele>252.0</ele><time>2026-04-12T06:43:52.999Z</time></trkpt><trkpt lat="45.857454377928335" lon="9.41062379337844"><ele>252.0</ele><time>2026-04-12T06:43:53.999Z</time></trkpt><trkpt lat="45.857528858678386" lon="9.410525957691194"><ele>252.0</ele><time>2026-04-12T06:43:54.999Z</time></trkpt><trkpt lat="45.857600220990754" lon="9.41042784461252"><ele>252.0</ele><time>2026-04-12T06:43:55.999Z</time></trkpt><trkpt lat="45.85767317541533" lon="9.410334506536282"><ele>252.0</ele><time>2026-04-12T06:43:56.999Z</time></trkpt><trkpt lat="45.85774462175188" lon="9.410231051426768"><ele>252.39999999999998</ele><time>2026-04-12T06:43:57.999Z</time></trkpt><trkpt lat="45.857819834980184" lon="9.410128897967464"><ele>252.79999999999998</ele><time>2026-04-12T06:43:58.999Z</time></trkpt><trkpt lat="45.857895014586454" lon="9.41001967722324"><ele>253.2</ele><time>2026-04-12T06:43:59.999Z</time></trkpt><trkpt lat="45.857969628701845" lon="9.409908023514545"><ele>253.6</ele><time>2026-04-12T06:44:00.999Z</time></trkpt><trkpt lat="45.85804658044979" lon="9.409797953593367"><ele>254.0</ele><time>2026-04-12T06:44:01.999Z</time></trkpt><trkpt lat="45.85812214972034" lon="9.409688184808191"><ele>254.6</ele><time>2026-04-12T06:44:02.999Z</time></trkpt><trkpt lat="45.858201112354614" lon="9.40958174059572"><ele>255.2</ele><time>2026-04-12T06:44:03.999Z</time></trkpt><trkpt lat="45.85827310796438" lon="9.40947466591507"><ele>255.79999999999998</ele><time>2026-04-12T06:44:04.999Z</time></trkpt><trkpt lat="45.85833619467857" lon="9.409382252149987"><ele>256.4</ele><time>2026-04-12T06:44:05.999Z</time></trkpt><trkpt lat="45.8583911256255" lon="9.409303983362273"><ele>257.0</ele><time>2026-04-12T06:44:06.999Z</time></trkpt><trkpt lat="45.85847775487366" lon="9.409200400690699"><ele>257.0</ele><time>2026-04-12T06:44:08.999Z</time></trkpt><trkpt lat="45.85858980814921" lon="9.409136940567645"><ele>257.0</ele><time>2026-04-12T06:44:10.999Z</time></trkpt><trkpt lat="45.8586273938645" lon="9.409046731724168"><ele>257.0</ele><time>2026-04-12T06:44:11.999Z</time></trkpt><trkpt lat="45.85867837309906" lon="9.40897077473858"><ele>257.0</ele><time>2026-04-12T06:44:12.999Z</time></trkpt><trkpt lat="45.85874454917094" lon="9.408884031232342"><ele>257.0</ele><time>2026-04-12T06:44:13.999Z</time></trkpt><trkpt lat="45.85881527061471" lon="9.408789010922636"><ele>256.0</ele><time>2026-04-12T06:44:14.999Z</time></trkpt><trkpt lat="45.85889598981156" lon="9.408685394337974"><ele>255.0</ele><time>2026-04-12T06:44:15.999Z</time></trkpt><trkpt lat="45.85898017188207" lon="9.408581939283776"><ele>254.0</ele><time>2026-04-12T06:44:16.999Z</time></trkpt><trkpt lat="45.85906568983301" lon="9.408474182747508"><ele>253.0</ele><time>2026-04-12T06:44:17.999Z</time></trkpt><trkpt lat="45.85914660262581" lon="9.4083576530167"><ele>252.0</ele><time>2026-04-12T06:44:18.999Z</time></trkpt><trkpt lat="45.85923149147102" lon="9.40824006475239"><ele>252.25</ele><time>2026-04-12T06:44:19.999Z</time></trkpt><trkpt lat="45.85931575304012" lon="9.408121789964856"><ele>252.5</ele><time>2026-04-12T06:44:20.999Z</time></trkpt><trkpt lat="45.85941028742332" lon="9.408021544974051"><ele>252.75</ele><time>2026-04-12T06:44:21.999Z</time></trkpt><trkpt lat="45.85950009926977" lon="9.407902555240325"><ele>253.0</ele><time>2026-04-12T06:44:22.999Z</time></trkpt><trkpt lat="45.85958992359421" lon="9.407787001483392"><ele>253.0</ele><time>2026-04-12T06:44:23.999Z</time></trkpt><trkpt lat="45.85967752843794" lon="9.407658755319524"><ele>253.0</ele><time>2026-04-12T06:44:25Z</time></trkpt><trkpt lat="45.85979055991539" lon="9.407571672857637"><ele>253.0</ele><time>2026-04-12T06:44:26Z</time></trkpt><trkpt lat="45.85991637533388" lon="9.40753622649476"><ele>253.0</ele><time>2026-04-12T06:44:27Z</time></trkpt><trkpt lat="45.860035227581896" lon="9.407481359139373"><ele>254.0</ele><time>2026-04-12T06:44:28Z</time></trkpt><trkpt lat="45.86015745616474" lon="9.407416970310841"><ele>255.0</ele><time>2026-04-12T06:44:29Z</time></trkpt><trkpt lat="45.860275719983946" lon="9.407360743280922"><ele>256.0</ele><time>2026-04-12T06:44:30Z</time></trkpt><trkpt lat="45.86039025606966" lon="9.407305265049393"><ele>257.0</ele><time>2026-04-12T06:44:31Z</time></trkpt><trkpt lat="45.86051134265978" lon="9.40725316788887"><ele>257.0</ele><time>2026-04-12T06:44:32Z</time></trkpt><trkpt lat="45.86061623066131" lon="9.407204077259982"><ele>257.0</ele><time>2026-04-12T06:44:33Z</time></trkpt><trkpt lat="45.86073690445598" lon="9.407154904457538"><ele>257.0</ele><time>2026-04-12T06:44:34Z</time></trkpt><trkpt lat="45.860852878019166" lon="9.40710214389717"><ele>257.0</ele><time>2026-04-12T06:44:35Z</time></trkpt><trkpt lat="45.860969701564215" lon="9.407050359711222"><ele>257.0</ele><time>2026-04-12T06:44:36Z</time></trkpt><trkpt lat="45.861095131131336" lon="9.40699332328495"><ele>257.0</ele><time>2026-04-12T06:44:37Z</time></trkpt><trkpt lat="45.861217264233716" lon="9.406934189244271"><ele>257.0</ele><time>2026-04-12T06:44:38Z</time></trkpt><trkpt lat="45.861337124473174" lon="9.406862980852624"><ele>257.0</ele><time>2026-04-12T06:44:39Z</time></trkpt><trkpt lat="45.8614561745473" lon="9.40679342362472"><ele>257.0</ele><time>2026-04-12T06:44:40Z</time></trkpt><trkpt lat="45.86157899803444" lon="9.406730190927618"><ele>257.0</ele><time>2026-04-12T06:44:41Z</time></trkpt><trkpt lat="45.86169534392202" lon="9.406667329133178"><ele>257.0</ele><time>2026-04-12T06:44:42Z</time></trkpt><trkpt lat="45.86181466501088" lon="9.406603759818102"><ele>257.0</ele><time>2026-04-12T06:44:43Z</time></trkpt><trkpt lat="45.861927329061736" lon="9.40653179642639"><ele>260.25</ele><time>2026-04-12T06:44:44Z</time></trkpt><trkpt lat="45.86204004855928" lon="9.406447404125602"><ele>263.5</ele><time>2026-04-12T06:44:45Z</time></trkpt><trkpt lat="45.862145195923496" lon="9.406354588979655"><ele>266.75</ele><time>2026-04-12T06:44:46Z</time></trkpt><trkpt lat="45.862242809355735" lon="9.406255662140296"><ele>270.0</ele><time>2026-04-12T06:44:47Z</time></trkpt><trkpt lat="45.86233772612249" lon="9.406152657919185"><ele>270.0</ele><time>2026-04-12T06:44:48Z</time></trkpt><trkpt lat="45.8624297778761" lon="9.406049749157383"><ele>270.0</ele><time>2026-04-12T06:44:49Z</time></trkpt><trkpt lat="45.86250546265548" lon="9.405953956856038"><ele>270.0</ele><time>2026-04-12T06:44:50Z</time></trkpt><trkpt lat="45.86256170954817" lon="9.405875297430985"><ele>270.0</ele><time>2026-04-12T06:44:51Z</time></trkpt><trkpt lat="45.86262680631046" lon="9.40577055141091"><ele>270.0</ele><time>2026-04-12T06:44:53Z</time></trkpt><trkpt lat="45.862664080188374" lon="9.405670700578968"><ele>270.3333333333333</ele><time>2026-04-12T06:45:18Z</time></trkpt><trkpt lat="45.86270715675154" lon="9.405595537608765"><ele>270.6666666666667</ele><time>2026-04-12T06:45:20Z</time></trkpt><trkpt lat="45.86278033517784" lon="9.405469200850572"><ele>271.0</ele><time>2026-04-12T06:45:22Z</time></trkpt><trkpt lat="45.862823208084365" lon="9.405390953260511"><ele>271.33333333333337</ele><time>2026-04-12T06:45:23Z</time></trkpt><trkpt lat="45.862869919366794" lon="9.405299177653161"><ele>271.6666666666667</ele><time>2026-04-12T06:45:24Z</time></trkpt><trkpt lat="45.86292502414052" lon="9.40520189223655"><ele>272.0</ele><time>2026-04-12T06:45:25Z</time></trkpt><trkpt lat="45.86297872445907" lon="9.405102261200636"><ele>272.0</ele><time>2026-04-12T06:45:26Z</time></trkpt><trkpt lat="45.86303573317849" lon="9.404991819000532"><ele>272.0</ele><time>2026-04-12T06:45:27Z</time></trkpt><trkpt lat="45.8630957831016" lon="9.404873380667704"><ele>272.0</ele><time>2026-04-12T06:45:28Z</time></trkpt><trkpt lat="45.86315604947726" lon="9.404747696643371"><ele>272.0</ele><time>2026-04-12T06:45:29Z</time></trkpt><trkpt lat="45.863218506523104" lon="9.404616836746715"><ele>272.0</ele><time>2026-04-12T06:45:30Z</time></trkpt><trkpt lat="45.86328526488024" lon="9.404482536519804"><ele>272.2</ele><time>2026-04-12T06:45:31Z</time></trkpt><trkpt lat="45.86335112907179" lon="9.40435564325934"><ele>272.4</ele><time>2026-04-12T06:45:32Z</time></trkpt><trkpt lat="45.86341741005024" lon="9.40422227126942"><ele>272.6</ele><time>2026-04-12T06:45:33Z</time></trkpt><trkpt lat="45.86348251296031" lon="9.404095816073328"><ele>272.8</ele><time>2026-04-12T06:45:34Z</time></trkpt><trkpt lat="45.863543372297585" lon="9.403978959503979"><ele>273.0</ele><time>2026-04-12T06:45:35Z</time></trkpt><trkpt lat="45.86359753622193" lon="9.403878811886207"><ele>275.0</ele><time>2026-04-12T06:45:36Z</time></trkpt><trkpt lat="45.86364224717643" lon="9.403796531859342"><ele>277.0</ele><time>2026-04-12T06:45:37Z</time></trkpt><trkpt lat="45.86371941518471" lon="9.40368780080769"><ele>279.0</ele><time>2026-04-12T06:45:39Z</time></trkpt><trkpt lat="45.86382377787911" lon="9.403638397302588"><ele>281.0</ele><time>2026-04-12T06:45:41Z</time></trkpt><trkpt lat="45.86394206331369" lon="9.403707276621073"><ele>283.0</ele><time>2026-04-12T06:45:43Z</time></trkpt><trkpt lat="45.863950039833085" lon="9.40383894859732"><ele>283.6</ele><time>2026-04-12T06:45:44Z</time></trkpt><trkpt lat="45.86400071297978" lon="9.403928945176999"><ele>284.20000000000005</ele><time>2026-04-12T06:45:45Z</time></trkpt><trkpt lat="45.8640396935885" lon="9.404034994670356"><ele>284.8</ele><time>2026-04-12T06:45:46Z</time></trkpt><trkpt lat="45.86407102125663" lon="9.404165549953579"><ele>285.40000000000003</ele><time>2026-04-12T06:45:47Z</time></trkpt><trkpt lat="45.864099626120364" lon="9.404301248474736"><ele>286.0</ele><time>2026-04-12T06:45:48Z</time></trkpt><trkpt lat="45.864131682718224" lon="9.40443440267713"><ele>286.0</ele><time>2026-04-12T06:45:49Z</time></trkpt><trkpt lat="45.86414148494266" lon="9.404595454277782"><ele>286.0</ele><time>2026-04-12T06:45:50Z</time></trkpt><trkpt lat="45.86421618057407" lon="9.4047229322933"><ele>286.0</ele><time>2026-04-12T06:45:50.999Z</time></trkpt><trkpt lat="45.86432234729375" lon="9.404799026856344"><ele>286.0</ele><time>2026-04-12T06:45:51.999Z</time></trkpt><trkpt lat="45.86442218123632" lon="9.404846644636182"><ele>287.6</ele><time>2026-04-12T06:45:52.999Z</time></trkpt><trkpt lat="45.86453126227133" lon="9.404917617110005"><ele>289.20000000000005</ele><time>2026-04-12T06:45:53.999Z</time></trkpt><trkpt lat="45.86463902035057" lon="9.404953565981737"><ele>290.79999999999995</ele><time>2026-04-12T06:45:54.999Z</time></trkpt><trkpt lat="45.86473698679474" lon="9.405014814913422"><ele>292.4</ele><time>2026-04-12T06:45:55.999Z</time></trkpt><trkpt lat="45.86483144187777" lon="9.405048761784993"><ele>294.0</ele><time>2026-04-12T06:45:56.999Z</time></trkpt><trkpt lat="45.86492649869678" lon="9.405009577423787"><ele>294.0</ele><time>2026-04-12T06:45:57.999Z</time></trkpt><trkpt lat="45.864995508886224" lon="9.404907500743427"><ele>294.0</ele><time>2026-04-12T06:45:58.999Z</time></trkpt><trkpt lat="45.86501768817272" lon="9.404787884071064"><ele>294.0</ele><time>2026-04-12T06:45:59.999Z</time></trkpt><trkpt lat="45.8650479343751" lon="9.404638192245208"><ele>294.0</ele><time>2026-04-12T06:46:00.999Z</time></trkpt><trkpt lat="45.865093504694116" lon="9.404479985321647"><ele>294.0</ele><time>2026-04-12T06:46:01.999Z</time></trkpt><trkpt lat="45.865132177475815" lon="9.404326863676513"><ele>296.0</ele><time>2026-04-12T06:46:02.999Z</time></trkpt><trkpt lat="45.86516998163912" lon="9.40416709463017"><ele>298.0</ele><time>2026-04-12T06:46:03.999Z</time></trkpt><trkpt lat="45.86520787092086" lon="9.404002232299217"><ele>300.0</ele><time>2026-04-12T06:46:04.999Z</time></trkpt><trkpt lat="45.86524847054405" lon="9.403841996317077"><ele>302.0</ele><time>2026-04-12T06:46:05.999Z</time></trkpt><trkpt lat="45.86530396039893" lon="9.403693766597662"><ele>302.0</ele><time>2026-04-12T06:46:06.999Z</time></trkpt><trkpt lat="45.86538341096823" lon="9.403571045219316"><ele>302.0</ele><time>2026-04-12T06:46:07.999Z</time></trkpt><trkpt lat="45.865481058698336" lon="9.403492131130614"><ele>302.0</ele><time>2026-04-12T06:46:08.999Z</time></trkpt><trkpt lat="45.865588321243735" lon="9.403438757766972"><ele>302.0</ele><time>2026-04-12T06:46:09.999Z</time></trkpt><trkpt lat="45.865687105581245" lon="9.403385897877673"><ele>302.0</ele><time>2026-04-12T06:46:10.999Z</time></trkpt><trkpt lat="45.86577619077581" lon="9.403297489542668"><ele>302.0</ele><time>2026-04-12T06:46:11.999Z</time></trkpt><trkpt lat="45.86585461481382" lon="9.40318638111262"><ele>302.0</ele><time>2026-04-12T06:46:12.999Z</time></trkpt><trkpt lat="45.8659358053314" lon="9.403082033207232"><ele>302.0</ele><time>2026-04-12T06:46:13.999Z</time></trkpt><trkpt lat="45.86602925319862" lon="9.402999820242801"><ele>302.0</ele><time>2026-04-12T06:46:14.999Z</time></trkpt><trkpt lat="45.8661274795566" lon="9.402948400405707"><ele>302.0</ele><time>2026-04-12T06:46:15.999Z</time></trkpt><trkpt lat="45.86623450918039" lon="9.402946267208604"><ele>303.8</ele><time>2026-04-12T06:46:16.999Z</time></trkpt><trkpt lat="45.86633725766908" lon="9.402972575074664"><ele>305.6</ele><time>2026-04-12T06:46:17.999Z</time></trkpt><trkpt lat="45.866426758729034" lon="9.403041988197744"><ele>307.40000000000003</ele><time>2026-04-12T06:46:18.999Z</time></trkpt><trkpt lat="45.866521312913285" lon="9.403106850039167"><ele>309.2</ele><time>2026-04-12T06:46:19.999Z</time></trkpt><trkpt lat="45.866621224094665" lon="9.403160926704768"><ele>311.0</ele><time>2026-04-12T06:46:20.999Z</time></trkpt><trkpt lat="45.86673123922254" lon="9.403218433123286"><ele>313.0</ele><time>2026-04-12T06:46:21.999Z</time></trkpt><trkpt lat="45.86683648153395" lon="9.403277075918833"><ele>315.0</ele><time>2026-04-12T06:46:22.999Z</time></trkpt><trkpt lat="45.866940072937375" lon="9.403329893305008"><ele>317.0</ele><time>2026-04-12T06:46:23.999Z</time></trkpt><trkpt lat="45.8670465090362" lon="9.403387790570187"><ele>319.0</ele><time>2026-04-12T06:46:24.999Z</time></trkpt><trkpt lat="45.86715532848238" lon="9.403440518837538"><ele>319.0</ele><time>2026-04-12T06:46:25.999Z</time></trkpt><trkpt lat="45.86726037063915" lon="9.403482324435668"><ele>319.0</ele><time>2026-04-12T06:46:26.999Z</time></trkpt><trkpt lat="45.867364257537744" lon="9.403538436355301"><ele>319.0</ele><time>2026-04-12T06:46:27.999Z</time></trkpt><trkpt lat="45.867470238113995" lon="9.403593792141992"><ele>319.0</ele><time>2026-04-12T06:46:28.999Z</time></trkpt><trkpt lat="45.86757746039562" lon="9.40364764704151"><ele>319.0</ele><time>2026-04-12T06:46:29.999Z</time></trkpt><trkpt lat="45.86767887178481" lon="9.403695545576708"><ele>319.6</ele><time>2026-04-12T06:46:31Z</time></trkpt><trkpt lat="45.86777893133164" lon="9.403741612978791"><ele>320.2</ele><time>2026-04-12T06:46:32Z</time></trkpt><trkpt lat="45.867880098252876" lon="9.403802652975498"><ele>320.8</ele><time>2026-04-12T06:46:33Z</time></trkpt><trkpt lat="45.86797168781825" lon="9.403863983941388"><ele>321.40000000000003</ele><time>2026-04-12T06:46:34Z</time></trkpt><trkpt lat="45.86807290514453" lon="9.403908208571686"><ele>322.0</ele><time>2026-04-12T06:46:35Z</time></trkpt><trkpt lat="45.868172147897134" lon="9.403922896761058"><ele>322.8</ele><time>2026-04-12T06:46:36Z</time></trkpt><trkpt lat="45.86827654417097" lon="9.403921472765512"><ele>323.6</ele><time>2026-04-12T06:46:37Z</time></trkpt><trkpt lat="45.868379706337365" lon="9.403911988994992"><ele>324.40000000000003</ele><time>2026-04-12T06:46:38Z</time></trkpt><trkpt lat="45.86846086816352" lon="9.403897880478414"><ele>325.20000000000005</ele><time>2026-04-12T06:46:39Z</time></trkpt><trkpt lat="45.86853231109392" lon="9.40387530904493"><ele>326.0</ele><time>2026-04-12T06:46:40Z</time></trkpt><trkpt lat="45.86864504418915" lon="9.403835760247548"><ele>328.4</ele><time>2026-04-12T06:46:42Z</time></trkpt><trkpt lat="45.86870500421823" lon="9.40372053115362"><ele>330.8</ele><time>2026-04-12T06:46:43Z</time></trkpt><trkpt lat="45.868735154660996" lon="9.403576889597007"><ele>333.2</ele><time>2026-04-12T06:46:44Z</time></trkpt><trkpt lat="45.868752571662775" lon="9.403459456900263"><ele>335.59999999999997</ele><time>2026-04-12T06:46:45Z</time></trkpt><trkpt lat="45.86877135975596" lon="9.4033405838397"><ele>338.0</ele><time>2026-04-12T06:46:46Z</time></trkpt><trkpt lat="45.86879416955696" lon="9.403219583340634"><ele>338.0</ele><time>2026-04-12T06:46:47Z</time></trkpt><trkpt lat="45.868802810480695" lon="9.403101016678427"><ele>338.0</ele><time>2026-04-12T06:46:48Z</time></trkpt><trkpt lat="45.86886816096596" lon="9.402998512703201"><ele>338.0</ele><time>2026-04-12T06:46:49Z</time></trkpt><trkpt lat="45.86893583706836" lon="9.402916286942977"><ele>338.0</ele><time>2026-04-12T06:46:50Z</time></trkpt><trkpt lat="45.86902460970581" lon="9.402870018025613"><ele>338.0</ele><time>2026-04-12T06:46:51Z</time></trkpt><trkpt lat="45.86911514636555" lon="9.4028178582299"><ele>336.79999999999995</ele><time>2026-04-12T06:46:52Z</time></trkpt><trkpt lat="45.86921479935964" lon="9.40279631008445"><ele>335.6</ele><time>2026-04-12T06:46:53Z</time></trkpt><trkpt lat="45.86929939933286" lon="9.402752360436684"><ele>334.4</ele><time>2026-04-12T06:46:54Z</time></trkpt><trkpt lat="45.86939239362228" lon="9.402733473932672"><ele>333.20000000000005</ele><time>2026-04-12T06:46:55Z</time></trkpt><trkpt lat="45.869488197383966" lon="9.402746855506734"><ele>332.0</ele><time>2026-04-12T06:46:56Z</time></trkpt><trkpt lat="45.86958749467481" lon="9.402793123205706"><ele>332.0</ele><time>2026-04-12T06:46:57Z</time></trkpt><trkpt lat="45.869684879728815" lon="9.402842657605794"><ele>332.0</ele><time>2026-04-12T06:46:58Z</time></trkpt><trkpt lat="45.86977748979638" lon="9.40288976321615"><ele>332.0</ele><time>2026-04-12T06:46:59Z</time></trkpt><trkpt lat="45.86986627407878" lon="9.402934922870177"><ele>332.0</ele><time>2026-04-12T06:47:00Z</time></trkpt><trkpt lat="45.86994919613261" lon="9.402975615890199"><ele>332.0</ele><time>2026-04-12T06:47:01Z</time></trkpt><trkpt lat="45.87003497369267" lon="9.40301185395485"><ele>332.8</ele><time>2026-04-12T06:47:02Z</time></trkpt><trkpt lat="45.87013452342218" lon="9.403025440409536"><ele>333.6</ele><time>2026-04-12T06:47:03Z</time></trkpt><trkpt lat="45.87021971542892" lon="9.403011781103698"><ele>334.40000000000003</ele><time>2026-04-12T06:47:04Z</time></trkpt><trkpt lat="45.870314052740156" lon="9.40300703591999"><ele>335.20000000000005</ele><time>2026-04-12T06:47:05Z</time></trkpt><trkpt lat="45.870417839608386" lon="9.402994024055227"><ele>336.0</ele><time>2026-04-12T06:47:06Z</time></trkpt><trkpt lat="45.87051814299845" lon="9.402985268569063"><ele>336.0</ele><time>2026-04-12T06:47:07Z</time></trkpt><trkpt lat="45.870617878345286" lon="9.402987857016074"><ele>336.0</ele><time>2026-04-12T06:47:08Z</time></trkpt><trkpt lat="45.870713692209456" lon="9.40300794033791"><ele>336.0</ele><time>2026-04-12T06:47:09Z</time></trkpt><trkpt lat="45.87079138089386" lon="9.403022260475804"><ele>336.0</ele><time>2026-04-12T06:47:10Z</time></trkpt><trkpt lat="45.87088758390669" lon="9.403050860307927"><ele>336.0</ele><time>2026-04-12T06:47:11Z</time></trkpt><trkpt lat="45.870994284149575" lon="9.403075337210245"><ele>337.8</ele><time>2026-04-12T06:47:12Z</time></trkpt><trkpt lat="45.87108270592753" lon="9.403152114555388"><ele>339.6</ele><time>2026-04-12T06:47:13Z</time></trkpt><trkpt lat="45.87117581642577" lon="9.403241527782633"><ele>341.4</ele><time>2026-04-12T06:47:14Z</time></trkpt><trkpt lat="45.87124480481586" lon="9.403309900155918"><ele>343.2</ele><time>2026-04-12T06:47:15Z</time></trkpt><trkpt lat="45.871354449805764" lon="9.403355832870362"><ele>345.0</ele><time>2026-04-12T06:47:16Z</time></trkpt><trkpt lat="45.871459323336964" lon="9.40343313996193"><ele>345.0</ele><time>2026-04-12T06:47:17Z</time></trkpt><trkpt lat="45.871560308223906" lon="9.403545787652764"><ele>345.0</ele><time>2026-04-12T06:47:18Z</time></trkpt><trkpt lat="45.87167168352199" lon="9.403620601061514"><ele>345.0</ele><time>2026-04-12T06:47:19Z</time></trkpt><trkpt lat="45.871779717492615" lon="9.403706373032579"><ele>345.0</ele><time>2026-04-12T06:47:20Z</time></trkpt><trkpt lat="45.87188449712079" lon="9.40379177252064"><ele>348.8</ele><time>2026-04-12T06:47:21Z</time></trkpt><trkpt lat="45.87199118603001" lon="9.403873246470125"><ele>352.6</ele><time>2026-04-12T06:47:22Z</time></trkpt><trkpt lat="45.87207136244319" lon="9.403975952390317"><ele>356.4</ele><time>2026-04-12T06:47:23Z</time></trkpt><trkpt lat="45.87216935513997" lon="9.404046610765734"><ele>360.2</ele><time>2026-04-12T06:47:24Z</time></trkpt><trkpt lat="45.872261260642155" lon="9.404110032508772"><ele>364.0</ele><time>2026-04-12T06:47:25Z</time></trkpt><trkpt lat="45.872363753326596" lon="9.40415699113739"><ele>364.0</ele><time>2026-04-12T06:47:26Z</time></trkpt><trkpt lat="45.872471836964976" lon="9.404175642058537"><ele>364.0</ele><time>2026-04-12T06:47:27Z</time></trkpt><trkpt lat="45.8725899377271" lon="9.40419843980907"><ele>364.0</ele><time>2026-04-12T06:47:28Z</time></trkpt><trkpt lat="45.87269438605219" lon="9.404191052555682"><ele>364.0</ele><time>2026-04-12T06:47:29Z</time></trkpt><trkpt lat="45.87280196609438" lon="9.40418036584444"><ele>364.0</ele><time>2026-04-12T06:47:30Z</time></trkpt><trkpt lat="45.87290393508976" lon="9.40416895922871"><ele>365.2</ele><time>2026-04-12T06:47:31Z</time></trkpt><trkpt lat="45.87300766819055" lon="9.404151747361192"><ele>366.4</ele><time>2026-04-12T06:47:32Z</time></trkpt><trkpt lat="45.873111813434285" lon="9.404153778937324"><ele>367.6</ele><time>2026-04-12T06:47:33Z</time></trkpt><trkpt lat="45.873212447889486" lon="9.404155561659971"><ele>368.8</ele><time>2026-04-12T06:47:34Z</time></trkpt><trkpt lat="45.87331291268841" lon="9.40417589704306"><ele>370.0</ele><time>2026-04-12T06:47:35Z</time></trkpt><trkpt lat="45.87342054342643" lon="9.40418344242697"><ele>370.2</ele><time>2026-04-12T06:47:36Z</time></trkpt><trkpt lat="45.87352040102518" lon="9.40419974582979"><ele>370.4</ele><time>2026-04-12T06:47:37Z</time></trkpt><trkpt lat="45.873626289515784" lon="9.404217113097818"><ele>370.6</ele><time>2026-04-12T06:47:38Z</time></trkpt><trkpt lat="45.87372317690774" lon="9.404249231231104"><ele>370.8</ele><time>2026-04-12T06:47:39Z</time></trkpt><trkpt lat="45.87381794172481" lon="9.404276528893854"><ele>371.0</ele><time>2026-04-12T06:47:40Z</time></trkpt><trkpt lat="45.87387942910237" lon="9.404320929362482"><ele>371.0</ele><time>2026-04-12T06:47:41Z</time></trkpt><trkpt lat="45.87396396444079" lon="9.404342921871187"><ele>371.0</ele><time>2026-04-12T06:47:42Z</time></trkpt><trkpt lat="45.87404341487862" lon="9.404341185624999"><ele>371.0</ele><time>2026-04-12T06:47:43Z</time></trkpt><trkpt lat="45.874133843732736" lon="9.40433695449013"><ele>371.0</ele><time>2026-04-12T06:47:44Z</time></trkpt><trkpt lat="45.87422595032164" lon="9.404281454062348"><ele>371.0</ele><time>2026-04-12T06:47:45Z</time></trkpt><trkpt lat="45.874306860699605" lon="9.404219326736499"><ele>371.0</ele><time>2026-04-12T06:47:46Z</time></trkpt><trkpt lat="45.874390636252286" lon="9.404141735505899"><ele>371.6666666666667</ele><time>2026-04-12T06:47:47Z</time></trkpt><trkpt lat="45.87447110140212" lon="9.40406543315328"><ele>372.33333333333337</ele><time>2026-04-12T06:47:48Z</time></trkpt><trkpt lat="45.87453402898667" lon="9.403965886016474"><ele>373.0</ele><time>2026-04-12T06:47:49Z</time></trkpt><trkpt lat="45.874600181050894" lon="9.403879783208888"><ele>373.6666666666667</ele><time>2026-04-12T06:47:50Z</time></trkpt><trkpt lat="45.87466304574709" lon="9.403794276997063"><ele>374.3333333333333</ele><time>2026-04-12T06:47:51Z</time></trkpt><trkpt lat="45.87472337241423" lon="9.403714234553545"><ele>375.0</ele><time>2026-04-12T06:47:52Z</time></trkpt><trkpt lat="45.874762163507036" lon="9.403627442385607"><ele>377.0</ele><time>2026-04-12T06:47:52.999Z</time></trkpt><trkpt lat="45.874772363123974" lon="9.403514081186726"><ele>379.0</ele><time>2026-04-12T06:47:53.999Z</time></trkpt><trkpt lat="45.8747555952559" lon="9.403401740392983"><ele>381.0</ele><time>2026-04-12T06:47:54.999Z</time></trkpt><trkpt lat="45.87470754384292" lon="9.403305405118807"><ele>383.0</ele><time>2026-04-12T06:47:55.999Z</time></trkpt><trkpt lat="45.8746378747663" lon="9.403219054471469"><ele>385.0</ele><time>2026-04-12T06:47:56.999Z</time></trkpt><trkpt lat="45.87455789952082" lon="9.40314964647116"><ele>387.0</ele><time>2026-04-12T06:47:57.999Z</time></trkpt><trkpt lat="45.87447337181801" lon="9.403084271611819"><ele>387.0</ele><time>2026-04-12T06:47:58.999Z</time></trkpt><trkpt lat="45.87438132336814" lon="9.403027148746911"><ele>387.0</ele><time>2026-04-12T06:47:59.999Z</time></trkpt><trkpt lat="45.8742871658171" lon="9.402976326669163"><ele>387.0</ele><time>2026-04-12T06:48:00.999Z</time></trkpt><trkpt lat="45.874192384887806" lon="9.402926639526376"><ele>387.0</ele><time>2026-04-12T06:48:01.999Z</time></trkpt><trkpt lat="45.874097729353686" lon="9.402885124045481"><ele>387.0</ele><time>2026-04-12T06:48:02.999Z</time></trkpt><trkpt lat="45.874007408873204" lon="9.402836312704938"><ele>385.8</ele><time>2026-04-12T06:48:03.999Z</time></trkpt><trkpt lat="45.87391845198792" lon="9.402769283686622"><ele>384.6</ele><time>2026-04-12T06:48:04.999Z</time></trkpt><trkpt lat="45.87384336180057" lon="9.402688254054837"><ele>383.40000000000003</ele><time>2026-04-12T06:48:05.999Z</time></trkpt><trkpt lat="45.873779762013235" lon="9.402588720426463"><ele>382.20000000000005</ele><time>2026-04-12T06:48:06.999Z</time></trkpt><trkpt lat="45.87372049452616" lon="9.402485097668624"><ele>381.0</ele><time>2026-04-12T06:48:07.999Z</time></trkpt><trkpt lat="45.87366699524831" lon="9.402389035903074"><ele>381.0</ele><time>2026-04-12T06:48:08.999Z</time></trkpt><trkpt lat="45.87362405656885" lon="9.402295508333493"><ele>381.0</ele><time>2026-04-12T06:48:09.999Z</time></trkpt><trkpt lat="45.87358898094434" lon="9.402198856552298"><ele>381.0</ele><time>2026-04-12T06:48:10.999Z</time></trkpt><trkpt lat="45.87358195606551" lon="9.402048642836355"><ele>381.0</ele><time>2026-04-12T06:48:12.999Z</time></trkpt><trkpt lat="45.87367808261373" lon="9.401960044845556"><ele>381.0</ele><time>2026-04-12T06:48:14.999Z</time></trkpt><trkpt lat="45.87376664013873" lon="9.401989746850152"><ele>381.0</ele><time>2026-04-12T06:48:16.999Z</time></trkpt><trkpt lat="45.87383679677523" lon="9.402023363321403"><ele>381.0</ele><time>2026-04-12T06:48:17.999Z</time></trkpt><trkpt lat="45.87389431415451" lon="9.40207843192071"><ele>381.0</ele><time>2026-04-12T06:48:18.999Z</time></trkpt><trkpt lat="45.87397271729783" lon="9.40213066771758"><ele>381.0</ele><time>2026-04-12T06:48:19.999Z</time></trkpt><trkpt lat="45.87406804632263" lon="9.40218705623504"><ele>381.0</ele><time>2026-04-12T06:48:20.999Z</time></trkpt><trkpt lat="45.87412843210399" lon="9.402239255867542"><ele>381.0</ele><time>2026-04-12T06:48:21.999Z</time></trkpt><trkpt lat="45.87421031569709" lon="9.402290696268233"><ele>385.1666666666667</ele><time>2026-04-12T06:48:22.999Z</time></trkpt><trkpt lat="45.87429408370555" lon="9.402339128213114"><ele>389.33333333333337</ele><time>2026-04-12T06:48:23.999Z</time></trkpt><trkpt lat="45.87437846656997" lon="9.402381734881809"><ele>393.5</ele><time>2026-04-12T06:48:24.999Z</time></trkpt><trkpt lat="45.87445730030254" lon="9.402433728082107"><ele>397.6666666666667</ele><time>2026-04-12T06:48:25.999Z</time></trkpt><trkpt lat="45.874531619256764" lon="9.402494290865814"><ele>401.83333333333337</ele><time>2026-04-12T06:48:26.999Z</time></trkpt><trkpt lat="45.87460132982723" lon="9.402555243379407"><ele>406.0</ele><time>2026-04-12T06:48:27.999Z</time></trkpt><trkpt lat="45.874674698130256" lon="9.402611468911221"><ele>406.00000000000006</ele><time>2026-04-12T06:48:28.999Z</time></trkpt><trkpt lat="45.874738010931814" lon="9.402679107221081"><ele>406.0</ele><time>2026-04-12T06:48:29.999Z</time></trkpt><trkpt lat="45.87480419128201" lon="9.402754942859165"><ele>406.0</ele><time>2026-04-12T06:48:30.999Z</time></trkpt><trkpt lat="45.874890071677065" lon="9.40284087270782"><ele>406.0</ele><time>2026-04-12T06:48:31.999Z</time></trkpt><trkpt lat="45.874955648311605" lon="9.402918070212648"><ele>406.00000000000006</ele><time>2026-04-12T06:48:32.999Z</time></trkpt><trkpt lat="45.8750228925105" lon="9.402995221807984"><ele>406.0</ele><time>2026-04-12T06:48:33.999Z</time></trkpt><trkpt lat="45.87509646251002" lon="9.403074340568992"><ele>409.20000000000005</ele><time>2026-04-12T06:48:34.999Z</time></trkpt><trkpt lat="45.87517036941721" lon="9.403154930535363"><ele>412.40000000000003</ele><time>2026-04-12T06:48:35.999Z</time></trkpt><trkpt lat="45.875244436703476" lon="9.403230671251485"><ele>415.6</ele><time>2026-04-12T06:48:37Z</time></trkpt><trkpt lat="45.87533097973083" lon="9.403300601328956"><ele>418.8</ele><time>2026-04-12T06:48:38Z</time></trkpt><trkpt lat="45.87541968563333" lon="9.403366783958441"><ele>422.0</ele><time>2026-04-12T06:48:39Z</time></trkpt><trkpt lat="45.87551339346511" lon="9.403437379755383"><ele>422.0</ele><time>2026-04-12T06:48:40Z</time></trkpt><trkpt lat="45.87558419224972" lon="9.40352023160831"><ele>422.0</ele><time>2026-04-12T06:48:41Z</time></trkpt><trkpt lat="45.87567756432447" lon="9.403583505349904"><ele>422.0</ele><time>2026-04-12T06:48:42Z</time></trkpt><trkpt lat="45.875765632825434" lon="9.403637309578512"><ele>422.0</ele><time>2026-04-12T06:48:43Z</time></trkpt><trkpt lat="45.87585037139446" lon="9.40369842338583"><ele>422.0</ele><time>2026-04-12T06:48:44Z</time></trkpt><trkpt lat="45.875936797850095" lon="9.403751240878261"><ele>420.49999999999994</ele><time>2026-04-12T06:48:45Z</time></trkpt><trkpt lat="45.87601549520906" lon="9.403813599296527"><ele>419.0</ele><time>2026-04-12T06:48:46Z</time></trkpt><trkpt lat="45.876099656426156" lon="9.403860490549077"><ele>417.5</ele><time>2026-04-12T06:48:47Z</time></trkpt><trkpt lat="45.87618091537358" lon="9.403911476092816"><ele>416.0</ele><time>2026-04-12T06:48:48Z</time></trkpt><trkpt lat="45.87626070547047" lon="9.403953111985569"><ele>414.49999999999994</ele><time>2026-04-12T06:48:49Z</time></trkpt><trkpt lat="45.87632714020199" lon="9.40400050261568"><ele>413.0</ele><time>2026-04-12T06:48:50Z</time></trkpt><trkpt lat="45.876412187709" lon="9.404031597534777"><ele>413.0</ele><time>2026-04-12T06:48:51Z</time></trkpt><trkpt lat="45.87649927696632" lon="9.404060804518458"><ele>413.0</ele><time>2026-04-12T06:48:52Z</time></trkpt><trkpt lat="45.876584642584525" lon="9.404097224465135"><ele>413.0</ele><time>2026-04-12T06:48:53Z</time></trkpt><trkpt lat="45.87666718618881" lon="9.404147016505592"><ele>413.0</ele><time>2026-04-12T06:48:54Z</time></trkpt><trkpt lat="45.87674509921612" lon="9.404199461718466"><ele>413.0</ele><time>2026-04-12T06:48:55Z</time></trkpt><trkpt lat="45.87683805253642" lon="9.404263303914657"><ele>418.59999999999997</ele><time>2026-04-12T06:48:56Z</time></trkpt><trkpt lat="45.87691928440803" lon="9.404335795525993"><ele>424.2</ele><time>2026-04-12T06:48:57Z</time></trkpt><trkpt lat="45.87700728125441" lon="9.404402645342204"><ele>429.8</ele><time>2026-04-12T06:48:58Z</time></trkpt><trkpt lat="45.87709517115797" lon="9.404471346318783"><ele>435.4</ele><time>2026-04-12T06:48:59Z</time></trkpt><trkpt lat="45.877189825887704" lon="9.404540373867027"><ele>441.0</ele><time>2026-04-12T06:49:00Z</time></trkpt><trkpt lat="45.87728099502566" lon="9.404610926962686"><ele>440.20000000000005</ele><time>2026-04-12T06:49:01Z</time></trkpt><trkpt lat="45.877371841817606" lon="9.404682946376221"><ele>439.40000000000003</ele><time>2026-04-12T06:49:02Z</time></trkpt><trkpt lat="45.8774675940787" lon="9.404754689264367"><ele>438.6</ele><time>2026-04-12T06:49:03Z</time></trkpt><trkpt lat="45.87756074880297" lon="9.404825705565221"><ele>437.8</ele><time>2026-04-12T06:49:04Z</time></trkpt><trkpt lat="45.87765828478551" lon="9.404893429229016"><ele>437.0</ele><time>2026-04-12T06:49:05Z</time></trkpt><trkpt lat="45.87775602629409" lon="9.40496482241757"><ele>437.0</ele><time>2026-04-12T06:49:06Z</time></trkpt><trkpt lat="45.87784608841436" lon="9.405040384164108"><ele>437.00000000000006</ele><time>2026-04-12T06:49:07Z</time></trkpt><trkpt lat="45.87793618860291" lon="9.405120660208972"><ele>437.00000000000006</ele><time>2026-04-12T06:49:08Z</time></trkpt><trkpt lat="45.87801910351368" lon="9.405208761820738"><ele>437.0</ele><time>2026-04-12T06:49:09Z</time></trkpt><trkpt lat="45.87808225601585" lon="9.40533338845868"><ele>437.0</ele><time>2026-04-12T06:49:10Z</time></trkpt><trkpt lat="45.878155883827" lon="9.405451571267687"><ele>438.0</ele><time>2026-04-12T06:49:11Z</time></trkpt><trkpt lat="45.87821260666481" lon="9.405579657890977"><ele>439.00000000000006</ele><time>2026-04-12T06:49:12Z</time></trkpt><trkpt lat="45.87826478065901" lon="9.405706907123355"><ele>440.00000000000006</ele><time>2026-04-12T06:49:13Z</time></trkpt><trkpt lat="45.87832327301803" lon="9.405835327992726"><ele>441.0</ele><time>2026-04-12T06:49:14Z</time></trkpt><trkpt lat="45.87838166255229" lon="9.405956837138119"><ele>442.0</ele><time>2026-04-12T06:49:15Z</time></trkpt><trkpt lat="45.878441285228845" lon="9.406076284079534"><ele>442.0</ele><time>2026-04-12T06:49:16Z</time></trkpt><trkpt lat="45.87851229406009" lon="9.406182679063944"><ele>442.00000000000006</ele><time>2026-04-12T06:49:17Z</time></trkpt><trkpt lat="45.87857747396039" lon="9.406296605761659"><ele>442.00000000000006</ele><time>2026-04-12T06:49:18Z</time></trkpt><trkpt lat="45.87864718738184" lon="9.406399343927932"><ele>442.0</ele><time>2026-04-12T06:49:19Z</time></trkpt><trkpt lat="45.87872234363152" lon="9.406503735462358"><ele>442.0</ele><time>2026-04-12T06:49:20Z</time></trkpt><trkpt lat="45.87880349264069" lon="9.406615266760253"><ele>440.6</ele><time>2026-04-12T06:49:21Z</time></trkpt><trkpt lat="45.87888882909663" lon="9.40672433730584"><ele>439.20000000000005</ele><time>2026-04-12T06:49:22Z</time></trkpt><trkpt lat="45.87894575247679" lon="9.406844330137128"><ele>437.8</ele><time>2026-04-12T06:49:23Z</time></trkpt><trkpt lat="45.87901628671767" lon="9.40694241301927"><ele>436.4</ele><time>2026-04-12T06:49:24Z</time></trkpt><trkpt lat="45.879093319882024" lon="9.407034681164191"><ele>435.0</ele><time>2026-04-12T06:49:25Z</time></trkpt><trkpt lat="45.879174614592" lon="9.40712601515019"><ele>435.4</ele><time>2026-04-12T06:49:26Z</time></trkpt><trkpt lat="45.879259427521234" lon="9.407205807720876"><ele>435.8</ele><time>2026-04-12T06:49:27Z</time></trkpt><trkpt lat="45.87935750127585" lon="9.407273865730216"><ele>436.20000000000005</ele><time>2026-04-12T06:49:28Z</time></trkpt><trkpt lat="45.879468766105575" lon="9.40731477443402"><ele>436.6</ele><time>2026-04-12T06:49:29Z</time></trkpt><trkpt lat="45.879573668465774" lon="9.407365075501323"><ele>437.0</ele><time>2026-04-12T06:49:30Z</time></trkpt><trkpt lat="45.87967277952456" lon="9.407432552701152"><ele>437.0</ele><time>2026-04-12T06:49:31Z</time></trkpt><trkpt lat="45.87976104492227" lon="9.40751122385454"><ele>437.00000000000006</ele><time>2026-04-12T06:49:32Z</time></trkpt><trkpt lat="45.879860674899305" lon="9.407557106369188"><ele>437.00000000000006</ele><time>2026-04-12T06:49:33Z</time></trkpt><trkpt lat="45.87996517703849" lon="9.407598533439064"><ele>437.0</ele><time>2026-04-12T06:49:34Z</time></trkpt><trkpt lat="45.880073753758644" lon="9.407614343158846"><ele>437.0</ele><time>2026-04-12T06:49:35Z</time></trkpt><trkpt lat="45.8801810411852" lon="9.40762508083154"><ele>438.40000000000003</ele><time>2026-04-12T06:49:36Z</time></trkpt><trkpt lat="45.880282070608445" lon="9.407640614566033"><ele>439.80000000000007</ele><time>2026-04-12T06:49:37Z</time></trkpt><trkpt lat="45.880371222993695" lon="9.407722418562177"><ele>441.2</ele><time>2026-04-12T06:49:38Z</time></trkpt><trkpt lat="45.88045387092304" lon="9.40779830153617"><ele>442.6</ele><time>2026-04-12T06:49:39Z</time></trkpt><trkpt lat="45.880563773003516" lon="9.407853804554163"><ele>444.0</ele><time>2026-04-12T06:49:40Z</time></trkpt><trkpt lat="45.880643642734505" lon="9.407952057559417"><ele>442.0</ele><time>2026-04-12T06:49:41Z</time></trkpt><trkpt lat="45.88072869551932" lon="9.40805128347033"><ele>440.0</ele><time>2026-04-12T06:49:42Z</time></trkpt><trkpt lat="45.88081680794403" lon="9.4081512034444"><ele>438.0</ele><time>2026-04-12T06:49:43Z</time></trkpt><trkpt lat="45.88091085185581" lon="9.40826471143643"><ele>436.0</ele><time>2026-04-12T06:49:44Z</time></trkpt><trkpt lat="45.880991803324534" lon="9.408380003099154"><ele>441.25</ele><time>2026-04-12T06:49:45Z</time></trkpt><trkpt lat="45.881068045728014" lon="9.408494856043916"><ele>446.5</ele><time>2026-04-12T06:49:46Z</time></trkpt><trkpt lat="45.881143523685964" lon="9.408599856820533"><ele>451.75</ele><time>2026-04-12T06:49:47Z</time></trkpt><trkpt lat="45.88124806692504" lon="9.408698197692672"><ele>457.0</ele><time>2026-04-12T06:49:48Z</time></trkpt><trkpt lat="45.881357512889615" lon="9.408790707865213"><ele>457.0</ele><time>2026-04-12T06:49:49Z</time></trkpt><trkpt lat="45.88147600299016" lon="9.408876723316737"><ele>457.0</ele><time>2026-04-12T06:49:50Z</time></trkpt><trkpt lat="45.88159821567698" lon="9.408941693515699"><ele>457.0</ele><time>2026-04-12T06:49:51Z</time></trkpt><trkpt lat="45.88172848478653" lon="9.408990175209436"><ele>457.0</ele><time>2026-04-12T06:49:52Z</time></trkpt><trkpt lat="45.88185615379092" lon="9.409024780804234"><ele>457.0</ele><time>2026-04-12T06:49:53Z</time></trkpt><trkpt lat="45.881970469881324" lon="9.409037435976947"><ele>457.00000000000006</ele><time>2026-04-12T06:49:53.999Z</time></trkpt><trkpt lat="45.88208072617711" lon="9.409075938097407"><ele>457.00000000000006</ele><time>2026-04-12T06:49:54.999Z</time></trkpt><trkpt lat="45.88218195894227" lon="9.409157199895256"><ele>457.0</ele><time>2026-04-12T06:49:55.999Z</time></trkpt><trkpt lat="45.88226683043887" lon="9.40924704284737"><ele>457.0</ele><time>2026-04-12T06:49:56.999Z</time></trkpt><trkpt lat="45.88234086931045" lon="9.409347581952858"><ele>457.0</ele><time>2026-04-12T06:49:57.999Z</time></trkpt><trkpt lat="45.88241952811659" lon="9.409441549675241"><ele>457.00000000000006</ele><time>2026-04-12T06:49:58.999Z</time></trkpt><trkpt lat="45.882497723443656" lon="9.409540849335517"><ele>457.00000000000006</ele><time>2026-04-12T06:49:59.999Z</time></trkpt><trkpt lat="45.882576775649895" lon="9.409625357198996"><ele>457.0</ele><time>2026-04-12T06:50:00.999Z</time></trkpt><trkpt lat="45.88266592451904" lon="9.409670755547667"><ele>457.0</ele><time>2026-04-12T06:50:01.999Z</time></trkpt><trkpt lat="45.882756777406335" lon="9.409694877657657"><ele>457.0</ele><time>2026-04-12T06:50:02.999Z</time></trkpt><trkpt lat="45.88285179157932" lon="9.409692039604314"><ele>457.00000000000006</ele><time>2026-04-12T06:50:03.999Z</time></trkpt><trkpt lat="45.882943335101565" lon="9.409656583703418"><ele>457.00000000000006</ele><time>2026-04-12T06:50:04.999Z</time></trkpt><trkpt lat="45.8830303759018" lon="9.409615069126414"><ele>457.0</ele><time>2026-04-12T06:50:05.999Z</time></trkpt><trkpt lat="45.88311450951495" lon="9.409564214761488"><ele>457.0</ele><time>2026-04-12T06:50:06.999Z</time></trkpt><trkpt lat="45.883198834840904" lon="9.409518555053989"><ele>457.0</ele><time>2026-04-12T06:50:07.999Z</time></trkpt><trkpt lat="45.88328518901185" lon="9.409466705872015"><ele>457.00000000000006</ele><time>2026-04-12T06:50:08.999Z</time></trkpt><trkpt lat="45.883365987215974" lon="9.409412179125125"><ele>457.00000000000006</ele><time>2026-04-12T06:50:09.999Z</time></trkpt><trkpt lat="45.88345083811715" lon="9.409360307867729"><ele>457.0</ele><time>2026-04-12T06:50:10.999Z</time></trkpt><trkpt lat="45.88353591493396" lon="9.409312640149892"><ele>457.0</ele><time>2026-04-12T06:50:11.999Z</time></trkpt><trkpt lat="45.88362578116347" lon="9.409268704354291"><ele>461.33333333333337</ele><time>2026-04-12T06:50:12.999Z</time></trkpt><trkpt lat="45.88370487646573" lon="9.409225359986747"><ele>465.6666666666667</ele><time>2026-04-12T06:50:13.999Z</time></trkpt><trkpt lat="45.883770843559304" lon="9.409175577478582"><ele>470.0</ele><time>2026-04-12T06:50:14.999Z</time></trkpt><trkpt lat="45.88383744232464" lon="9.409124569039864"><ele>474.33333333333337</ele><time>2026-04-12T06:50:15.999Z</time></trkpt><trkpt lat="45.88390047524849" lon="9.409081594345196"><ele>478.6666666666667</ele><time>2026-04-12T06:50:16.999Z</time></trkpt><trkpt lat="45.883962179534116" lon="9.409041765986359"><ele>483.0</ele><time>2026-04-12T06:50:17.999Z</time></trkpt><trkpt lat="45.88407643797038" lon="9.408989677567593"><ele>483.0</ele><time>2026-04-12T06:50:19.999Z</time></trkpt><trkpt lat="45.88416625816323" lon="9.409076835364639"><ele>482.99999999999994</ele><time>2026-04-12T06:50:21.999Z</time></trkpt><trkpt lat="45.88412977917186" lon="9.409222319009004"><ele>482.99999999999994</ele><time>2026-04-12T06:50:23.999Z</time></trkpt><trkpt lat="45.88405196017842" lon="9.409248479515632"><ele>483.0</ele><time>2026-04-12T06:50:24.999Z</time></trkpt><trkpt lat="45.883984893190906" lon="9.409310872195297"><ele>483.0</ele><time>2026-04-12T06:50:25.999Z</time></trkpt><trkpt lat="45.88391238611674" lon="9.409349540114022"><ele>483.0</ele><time>2026-04-12T06:50:26.999Z</time></trkpt><trkpt lat="45.88382999152021" lon="9.40939463245072"><ele>483.0</ele><time>2026-04-12T06:50:27.999Z</time></trkpt><trkpt lat="45.88375291811199" lon="9.409448717970331"><ele>483.0</ele><time>2026-04-12T06:50:28.999Z</time></trkpt><trkpt lat="45.88366212105035" lon="9.409499614911356"><ele>483.0</ele><time>2026-04-12T06:50:29.999Z</time></trkpt><trkpt lat="45.883579935447024" lon="9.409544705603972"><ele>483.0</ele><time>2026-04-12T06:50:30.999Z</time></trkpt><trkpt lat="45.883498849438844" lon="9.40959388732438"><ele>483.0</ele><time>2026-04-12T06:50:31.999Z</time></trkpt><trkpt lat="45.883438502532556" lon="9.40965201738391"><ele>483.6666666666667</ele><time>2026-04-12T06:50:32.999Z</time></trkpt><trkpt lat="45.88340109264883" lon="9.409747449574782"><ele>484.33333333333337</ele><time>2026-04-12T06:50:33.999Z</time></trkpt><trkpt lat="45.88340952943763" lon="9.409853932004935"><ele>485.0</ele><time>2026-04-12T06:50:34.999Z</time></trkpt><trkpt lat="45.8834556016808" lon="9.40995471710296"><ele>485.6666666666667</ele><time>2026-04-12T06:50:35.999Z</time></trkpt><trkpt lat="45.88350560545872" lon="9.410058483750786"><ele>486.33333333333337</ele><time>2026-04-12T06:50:36.999Z</time></trkpt><trkpt lat="45.883573159167106" lon="9.410147465702705"><ele>487.0</ele><time>2026-04-12T06:50:37.999Z</time></trkpt><trkpt lat="45.88362566890427" lon="9.410224911937565"><ele>487.0</ele><time>2026-04-12T06:50:38.999Z</time></trkpt><trkpt lat="45.8836910829651" lon="9.410315004230462"><ele>487.00000000000006</ele><time>2026-04-12T06:50:39.999Z</time></trkpt><trkpt lat="45.883758563187" lon="9.410402437155557"><ele>487.00000000000006</ele><time>2026-04-12T06:50:40.999Z</time></trkpt><trkpt lat="45.88382187112521" lon="9.41049836021745"><ele>487.0</ele><time>2026-04-12T06:50:41.999Z</time></trkpt><trkpt lat="45.88387907301315" lon="9.410601821856547"><ele>487.0</ele><time>2026-04-12T06:50:43Z</time></trkpt><trkpt lat="45.88392255812949" lon="9.410714657703428"><ele>487.33333333333337</ele><time>2026-04-12T06:50:44Z</time></trkpt><trkpt lat="45.88395734760798" lon="9.410831051598835"><ele>487.6666666666667</ele><time>2026-04-12T06:50:45Z</time></trkpt><trkpt lat="45.88398680665131" lon="9.410943257229302"><ele>488.0</ele><time>2026-04-12T06:50:46Z</time></trkpt><trkpt lat="45.884019152675876" lon="9.411051049262678"><ele>488.33333333333337</ele><time>2026-04-12T06:50:47Z</time></trkpt><trkpt lat="45.884051083814" lon="9.41115283769543"><ele>488.6666666666667</ele><time>2026-04-12T06:50:48Z</time></trkpt><trkpt lat="45.88408576637317" lon="9.411256631380638"><ele>489.0</ele><time>2026-04-12T06:50:49Z</time></trkpt><trkpt lat="45.88411919822275" lon="9.411359674173768"><ele>489.0</ele><time>2026-04-12T06:50:50Z</time></trkpt><trkpt lat="45.88415084393683" lon="9.41146404469205"><ele>489.0</ele><time>2026-04-12T06:50:51Z</time></trkpt><trkpt lat="45.8841988225517" lon="9.411558834730782"><ele>489.0</ele><time>2026-04-12T06:50:52Z</time></trkpt><trkpt lat="45.88426221830096" lon="9.41163456704943"><ele>489.0</ele><time>2026-04-12T06:50:53Z</time></trkpt><trkpt lat="45.88434004417728" lon="9.411675963914577"><ele>489.0</ele><time>2026-04-12T06:50:54Z</time></trkpt><trkpt lat="45.88442159458493" lon="9.41168067571509"><ele>489.0</ele><time>2026-04-12T06:50:55Z</time></trkpt><trkpt lat="45.88450725966127" lon="9.411651076464748"><ele>492.6</ele><time>2026-04-12T06:50:56Z</time></trkpt><trkpt lat="45.88458532446296" lon="9.411593011239008"><ele>496.2</ele><time>2026-04-12T06:50:57Z</time></trkpt><trkpt lat="45.884658703023604" lon="9.411529897042922"><ele>499.80000000000007</ele><time>2026-04-12T06:50:58Z</time></trkpt><trkpt lat="45.884689737925754" lon="9.411395020836776"><ele>503.40000000000003</ele><time>2026-04-12T06:50:59Z</time></trkpt><trkpt lat="45.88472826289855" lon="9.411287150035179"><ele>507.0</ele><time>2026-04-12T06:51:00Z</time></trkpt><trkpt lat="45.88470143905496" lon="9.411150368600676"><ele>508.3333333333333</ele><time>2026-04-12T06:51:01Z</time></trkpt><trkpt lat="45.8846884413684" lon="9.411037562179319"><ele>509.66666666666663</ele><time>2026-04-12T06:51:02Z</time></trkpt><trkpt lat="45.88467515288591" lon="9.410924613801425"><ele>511.0</ele><time>2026-04-12T06:51:03Z</time></trkpt><trkpt lat="45.884664533170316" lon="9.41082619272417"><ele>512.3333333333333</ele><time>2026-04-12T06:51:04Z</time></trkpt><trkpt lat="45.88465333573008" lon="9.410737043959935"><ele>513.6666666666666</ele><time>2026-04-12T06:51:05Z</time></trkpt><trkpt lat="45.88463179804784" lon="9.410562871987235"><ele>515.0</ele><time>2026-04-12T06:51:07Z</time></trkpt><trkpt lat="45.88461727137027" lon="9.410468349879379"><ele>515.0</ele><time>2026-04-12T06:51:08Z</time></trkpt><trkpt lat="45.884616183368614" lon="9.410371343515928"><ele>515.0</ele><time>2026-04-12T06:51:09Z</time></trkpt><trkpt lat="45.88464556891093" lon="9.410279630754243"><ele>515.0</ele><time>2026-04-12T06:51:10Z</time></trkpt><trkpt lat="45.88470372408776" lon="9.410227295967065"><ele>515.0</ele><time>2026-04-12T06:51:11Z</time></trkpt><trkpt lat="45.88476875677731" lon="9.410241292580775"><ele>515.0</ele><time>2026-04-12T06:51:12Z</time></trkpt><trkpt lat="45.88483380921667" lon="9.410296433701147"><ele>515.0</ele><time>2026-04-12T06:51:13Z</time></trkpt><trkpt lat="45.88484323810948" lon="9.410415773555524"><ele>515.0</ele><time>2026-04-12T06:51:14Z</time></trkpt><trkpt lat="45.88487332808836" lon="9.410520262480095"><ele>515.0</ele><time>2026-04-12T06:51:15Z</time></trkpt><trkpt lat="45.88491152870973" lon="9.410627091210175"><ele>515.0</ele><time>2026-04-12T06:51:16Z</time></trkpt><trkpt lat="45.88495656804474" lon="9.410734453897184"><ele>515.0</ele><time>2026-04-12T06:51:17Z</time></trkpt><trkpt lat="45.88499747237217" lon="9.410842047688426"><ele>515.0</ele><time>2026-04-12T06:51:18Z</time></trkpt><trkpt lat="45.88505655643894" lon="9.410948255962992"><ele>515.0</ele><time>2026-04-12T06:51:19Z</time></trkpt><trkpt lat="45.88512306139922" lon="9.411055374915072"><ele>522.2</ele><time>2026-04-12T06:51:20Z</time></trkpt><trkpt lat="45.88519019127065" lon="9.411157006785844"><ele>529.4</ele><time>2026-04-12T06:51:21Z</time></trkpt><trkpt lat="45.88525481255222" lon="9.411264996032163"><ele>536.6</ele><time>2026-04-12T06:51:22Z</time></trkpt><trkpt lat="45.88531380927481" lon="9.41136183866833"><ele>543.8</ele><time>2026-04-12T06:51:23Z</time></trkpt><trkpt lat="45.88537492892782" lon="9.411459389384143"><ele>551.0</ele><time>2026-04-12T06:51:24Z</time></trkpt><trkpt lat="45.88543048585357" lon="9.411554723566136"><ele>551.0</ele><time>2026-04-12T06:51:25Z</time></trkpt><trkpt lat="45.88547850273157" lon="9.411653625923657"><ele>551.0</ele><time>2026-04-12T06:51:26Z</time></trkpt><trkpt lat="45.88552748851497" lon="9.411759156845326"><ele>551.0</ele><time>2026-04-12T06:51:27Z</time></trkpt><trkpt lat="45.88557034757806" lon="9.411870898155822"><ele>551.0</ele><time>2026-04-12T06:51:28Z</time></trkpt><trkpt lat="45.885611427372865" lon="9.411971504886905"><ele>551.0</ele><time>2026-04-12T06:51:29Z</time></trkpt><trkpt lat="45.8856443102229" lon="9.412088264566982"><ele>551.0</ele><time>2026-04-12T06:51:30Z</time></trkpt><trkpt lat="45.88568020571247" lon="9.412196386765254"><ele>547.5</ele><time>2026-04-12T06:51:31Z</time></trkpt><trkpt lat="45.88571596959545" lon="9.412305042609859"><ele>544.0</ele><time>2026-04-12T06:51:32Z</time></trkpt><trkpt lat="45.885752088420496" lon="9.41241062236175"><ele>540.5</ele><time>2026-04-12T06:51:33Z</time></trkpt><trkpt lat="45.885786974315884" lon="9.412513510354266"><ele>537.0</ele><time>2026-04-12T06:51:34Z</time></trkpt><trkpt lat="45.88582513038215" lon="9.412618627176142"><ele>533.5</ele><time>2026-04-12T06:51:35Z</time></trkpt><trkpt lat="45.885862068987805" lon="9.412724135347354"><ele>530.0</ele><time>2026-04-12T06:51:36Z</time></trkpt><trkpt lat="45.88589995169746" lon="9.412829786184489"><ele>535.0</ele><time>2026-04-12T06:51:37Z</time></trkpt><trkpt lat="45.88593954137296" lon="9.412936922709815"><ele>540.0</ele><time>2026-04-12T06:51:38Z</time></trkpt><trkpt lat="45.885979506225034" lon="9.413044039306318"><ele>545.0</ele><time>2026-04-12T06:51:39Z</time></trkpt><trkpt lat="45.88601215853203" lon="9.413142215362056"><ele>550.0</ele><time>2026-04-12T06:51:40Z</time></trkpt><trkpt lat="45.88604337512009" lon="9.413247944420226"><ele>555.0</ele><time>2026-04-12T06:51:41Z</time></trkpt><trkpt lat="45.886078680694936" lon="9.413364220440178"><ele>560.0</ele><time>2026-04-12T06:51:42Z</time></trkpt><trkpt lat="45.886120021665675" lon="9.413483087100088"><ele>560.0</ele><time>2026-04-12T06:51:43Z</time></trkpt><trkpt lat="45.8861574981022" lon="9.413604806914535"><ele>560.0</ele><time>2026-04-12T06:51:44Z</time></trkpt><trkpt lat="45.88619697841944" lon="9.413727063442947"><ele>560.0</ele><time>2026-04-12T06:51:45Z</time></trkpt><trkpt lat="45.88622223648825" lon="9.413859475516942"><ele>560.0</ele><time>2026-04-12T06:51:46Z</time></trkpt><trkpt lat="45.886229957630896" lon="9.413995626002961"><ele>560.0</ele><time>2026-04-12T06:51:47Z</time></trkpt><trkpt lat="45.88622234985611" lon="9.414134648117466"><ele>561.2</ele><time>2026-04-12T06:51:48Z</time></trkpt><trkpt lat="45.88620693522255" lon="9.414271849561883"><ele>562.4</ele><time>2026-04-12T06:51:49Z</time></trkpt><trkpt lat="45.88619256725499" lon="9.4144072023758"><ele>563.6</ele><time>2026-04-12T06:51:50Z</time></trkpt><trkpt lat="45.88618209511042" lon="9.414542068446954"><ele>564.8</ele><time>2026-04-12T06:51:51Z</time></trkpt><trkpt lat="45.886172824338665" lon="9.414679518777575"><ele>566.0</ele><time>2026-04-12T06:51:52Z</time></trkpt><trkpt lat="45.886163758212" lon="9.414819893558603"><ele>568.4</ele><time>2026-04-12T06:51:53Z</time></trkpt><trkpt lat="45.886155829851845" lon="9.41495925715315"><ele>570.8</ele><time>2026-04-12T06:51:54Z</time></trkpt><trkpt lat="45.88614490794075" lon="9.415097144054739"><ele>573.1999999999999</ele><time>2026-04-12T06:51:55Z</time></trkpt><trkpt lat="45.88613275286717" lon="9.415234749086077"><ele>575.6</ele><time>2026-04-12T06:51:56Z</time></trkpt><trkpt lat="45.88612789039624" lon="9.415375141762093"><ele>578.0</ele><time>2026-04-12T06:51:57Z</time></trkpt><trkpt lat="45.88612453386407" lon="9.415521375729044"><ele>578.0</ele><time>2026-04-12T06:51:58Z</time></trkpt><trkpt lat="45.886138083680535" lon="9.415664539036415"><ele>578.0</ele><time>2026-04-12T06:51:59Z</time></trkpt><trkpt lat="45.886160570417935" lon="9.415809982358324"><ele>578.0</ele><time>2026-04-12T06:52:00Z</time></trkpt><trkpt lat="45.88619349798703" lon="9.415950014842942"><ele>578.0</ele><time>2026-04-12T06:52:01Z</time></trkpt><trkpt lat="45.88622531589116" lon="9.416084842664633"><ele>578.0</ele><time>2026-04-12T06:52:02Z</time></trkpt><trkpt lat="45.886258985605856" lon="9.416217454843883"><ele>576.8</ele><time>2026-04-12T06:52:03Z</time></trkpt><trkpt lat="45.88628933970473" lon="9.41634710105909"><ele>575.5999999999999</ele><time>2026-04-12T06:52:04Z</time></trkpt><trkpt lat="45.88631870882638" lon="9.416472751178405"><ele>574.4000000000001</ele><time>2026-04-12T06:52:05Z</time></trkpt><trkpt lat="45.886350150043235" lon="9.416597008275744"><ele>573.2</ele><time>2026-04-12T06:52:06Z</time></trkpt><trkpt lat="45.886385387224166" lon="9.416717074571622"><ele>572.0</ele><time>2026-04-12T06:52:07Z</time></trkpt><trkpt lat="45.88642602870362" lon="9.416830328711251"><ele>572.0</ele><time>2026-04-12T06:52:08Z</time></trkpt><trkpt lat="45.88647740940485" lon="9.416934519346476"><ele>572.0</ele><time>2026-04-12T06:52:09Z</time></trkpt><trkpt lat="45.886545893229616" lon="9.417022687218802"><ele>572.0</ele><time>2026-04-12T06:52:10Z</time></trkpt><trkpt lat="45.88662984723411" lon="9.417091943420417"><ele>572.0</ele><time>2026-04-12T06:52:11Z</time></trkpt><trkpt lat="45.886719438016556" lon="9.417148958659752"><ele>572.0</ele><time>2026-04-12T06:52:12Z</time></trkpt><trkpt lat="45.886811397979" lon="9.417203352551683"><ele>575.8000000000001</ele><time>2026-04-12T06:52:12.999Z</time></trkpt><trkpt lat="45.886905428231564" lon="9.4172634175118"><ele>579.6</ele><time>2026-04-12T06:52:13.999Z</time></trkpt><trkpt lat="45.88699868598498" lon="9.417324782414218"><ele>583.4000000000001</ele><time>2026-04-12T06:52:14.999Z</time></trkpt><trkpt lat="45.88709058558234" lon="9.417383285585771"><ele>587.2</ele><time>2026-04-12T06:52:15.999Z</time></trkpt><trkpt lat="45.887175982107" lon="9.41743780424329"><ele>591.0</ele><time>2026-04-12T06:52:16.999Z</time></trkpt><trkpt lat="45.88725047690596" lon="9.417493822722431"><ele>591.0</ele><time>2026-04-12T06:52:17.999Z</time></trkpt><trkpt lat="45.887312480247175" lon="9.417567502736674"><ele>591.0</ele><time>2026-04-12T06:52:18.999Z</time></trkpt><trkpt lat="45.88735523746012" lon="9.417677339577168"><ele>591.0</ele><time>2026-04-12T06:52:19.999Z</time></trkpt><trkpt lat="45.88734610477607" lon="9.417775303119557"><ele>591.0</ele><time>2026-04-12T06:52:20.999Z</time></trkpt><trkpt lat="45.88729779534504" lon="9.417869542795298"><ele>591.0</ele><time>2026-04-12T06:52:21.999Z</time></trkpt><trkpt lat="45.88722098887464" lon="9.417916248003651"><ele>591.0</ele><time>2026-04-12T06:52:22.999Z</time></trkpt><trkpt lat="45.887135615203896" lon="9.417939203846867"><ele>591.0</ele><time>2026-04-12T06:52:23.999Z</time></trkpt><trkpt lat="45.88704332779951" lon="9.417971943197285"><ele>591.0</ele><time>2026-04-12T06:52:24.999Z</time></trkpt><trkpt lat="45.88695561674331" lon="9.418021996048942"><ele>591.0</ele><time>2026-04-12T06:52:25.999Z</time></trkpt><trkpt lat="45.88686899454834" lon="9.418094011433604"><ele>591.0</ele><time>2026-04-12T06:52:26.999Z</time></trkpt><trkpt lat="45.88678625679203" lon="9.418182635669757"><ele>591.0</ele><time>2026-04-12T06:52:27.999Z</time></trkpt><trkpt lat="45.886707017844614" lon="9.418290470936604"><ele>592.8</ele><time>2026-04-12T06:52:28.999Z</time></trkpt><trkpt lat="45.88662993460572" lon="9.418401996256257"><ele>594.6</ele><time>2026-04-12T06:52:29.999Z</time></trkpt><trkpt lat="45.88654974350635" lon="9.418510575654432"><ele>596.4</ele><time>2026-04-12T06:52:30.999Z</time></trkpt><trkpt lat="45.88646884183498" lon="9.418618369901179"><ele>598.2</ele><time>2026-04-12T06:52:31.999Z</time></trkpt><trkpt lat="45.88638518113305" lon="9.41872392735634"><ele>600.0</ele><time>2026-04-12T06:52:32.999Z</time></trkpt><trkpt lat="45.88629913687577" lon="9.418818557030788"><ele>600.0</ele><time>2026-04-12T06:52:33.999Z</time></trkpt><trkpt lat="45.88620686061506" lon="9.418893064863052"><ele>600.0</ele><time>2026-04-12T06:52:34.999Z</time></trkpt><trkpt lat="45.88611139050487" lon="9.418948724933605"><ele>600.0</ele><time>2026-04-12T06:52:35.999Z</time></trkpt><trkpt lat="45.88601113043811" lon="9.418987940481703"><ele>600.0</ele><time>2026-04-12T06:52:36.999Z</time></trkpt><trkpt lat="45.885907048188365" lon="9.419014273215026"><ele>600.0</ele><time>2026-04-12T06:52:37.999Z</time></trkpt><trkpt lat="45.88579711071476" lon="9.41902441857623"><ele>598.5</ele><time>2026-04-12T06:52:38.999Z</time></trkpt><trkpt lat="45.885680472654094" lon="9.419014712493137"><ele>597.0</ele><time>2026-04-12T06:52:39.999Z</time></trkpt><trkpt lat="45.88556998869735" lon="9.418992752711173"><ele>595.5</ele><time>2026-04-12T06:52:40.999Z</time></trkpt><trkpt lat="45.885455196975855" lon="9.41897330303834"><ele>594.0</ele><time>2026-04-12T06:52:41.999Z</time></trkpt><trkpt lat="45.885345276845165" lon="9.41895846550314"><ele>594.0</ele><time>2026-04-12T06:52:42.999Z</time></trkpt><trkpt lat="45.88523393700477" lon="9.418942666409073"><ele>594.0</ele><time>2026-04-12T06:52:43.999Z</time></trkpt><trkpt lat="45.885126957216194" lon="9.418936058205897"><ele>594.0</ele><time>2026-04-12T06:52:44.999Z</time></trkpt><trkpt lat="45.88502356598619" lon="9.418937827145148"><ele>594.0</ele><time>2026-04-12T06:52:45.999Z</time></trkpt><trkpt lat="45.88492397609491" lon="9.418933379757696"><ele>594.0</ele><time>2026-04-12T06:52:46.999Z</time></trkpt><trkpt lat="45.88482830963635" lon="9.418935315877382"><ele>594.4</ele><time>2026-04-12T06:52:47.999Z</time></trkpt><trkpt lat="45.88473294604235" lon="9.418935175388476"><ele>594.8</ele><time>2026-04-12T06:52:49Z</time></trkpt><trkpt lat="45.88464104784315" lon="9.418938863300834"><ele>595.2</ele><time>2026-04-12T06:52:50Z</time></trkpt><trkpt lat="45.88454444646325" lon="9.418945431344943"><ele>595.6</ele><time>2026-04-12T06:52:51Z</time></trkpt><trkpt lat="45.88445444462374" lon="9.418954645325643"><ele>596.0</ele><time>2026-04-12T06:52:52Z</time></trkpt><trkpt lat="45.88436316622593" lon="9.418960972995256"><ele>596.0</ele><time>2026-04-12T06:52:53Z</time></trkpt><trkpt lat="45.88426984935265" lon="9.418963587601612"><ele>596.0</ele><time>2026-04-12T06:52:54Z</time></trkpt><trkpt lat="45.884176745812546" lon="9.418981507523855"><ele>596.0</ele><time>2026-04-12T06:52:55Z</time></trkpt><trkpt lat="45.88409870800188" lon="9.419039453640947"><ele>596.0</ele><time>2026-04-12T06:52:56Z</time></trkpt><trkpt lat="45.8840513321495" lon="9.419145125699014"><ele>596.0</ele><time>2026-04-12T06:52:57Z</time></trkpt><trkpt lat="45.88405077812622" lon="9.41927334248327"><ele>596.0</ele><time>2026-04-12T06:52:58Z</time></trkpt><trkpt lat="45.884092137523574" lon="9.419383046342054"><ele>596.0</ele><time>2026-04-12T06:52:59Z</time></trkpt><trkpt lat="45.884170736195884" lon="9.419453581664916"><ele>596.0</ele><time>2026-04-12T06:53:00Z</time></trkpt><trkpt lat="45.88426682774829" lon="9.419467294719743"><ele>596.0</ele><time>2026-04-12T06:53:01Z</time></trkpt><trkpt lat="45.88437359508606" lon="9.419456692703585"><ele>596.0</ele><time>2026-04-12T06:53:02Z</time></trkpt><trkpt lat="45.88447062098455" lon="9.41943183200914"><ele>596.0</ele><time>2026-04-12T06:53:03Z</time></trkpt><trkpt lat="45.884573839069866" lon="9.419418741156706"><ele>596.0</ele><time>2026-04-12T06:53:04Z</time></trkpt><trkpt lat="45.88468706274958" lon="9.41945493990947"><ele>596.0</ele><time>2026-04-12T06:53:05Z</time></trkpt><trkpt lat="45.88479367546706" lon="9.419480453723722"><ele>596.0</ele><time>2026-04-12T06:53:06Z</time></trkpt><trkpt lat="45.884901366720314" lon="9.419506203055954"><ele>596.0</ele><time>2026-04-12T06:53:07Z</time></trkpt><trkpt lat="45.885014338966876" lon="9.419541901560779"><ele>595.6</ele><time>2026-04-12T06:53:08Z</time></trkpt><trkpt lat="45.88512877713531" lon="9.419574402558451"><ele>595.2</ele><time>2026-04-12T06:53:09Z</time></trkpt><trkpt lat="45.88523961136075" lon="9.419605899928595"><ele>594.8</ele><time>2026-04-12T06:53:10Z</time></trkpt><trkpt lat="45.88534736825489" lon="9.419636740910533"><ele>594.4</ele><time>2026-04-12T06:53:11Z</time></trkpt><trkpt lat="45.88545333510112" lon="9.419675588596245"><ele>594.0</ele><time>2026-04-12T06:53:12Z</time></trkpt><trkpt lat="45.88555018740156" lon="9.419728030432585"><ele>599.4</ele><time>2026-04-12T06:53:13Z</time></trkpt><trkpt lat="45.885645925936004" lon="9.41979269992265"><ele>604.8</ele><time>2026-04-12T06:53:14Z</time></trkpt><trkpt lat="45.8857411456434" lon="9.41986119541271"><ele>610.2</ele><time>2026-04-12T06:53:15Z</time></trkpt><trkpt lat="45.88583315217074" lon="9.419923818460298"><ele>615.6</ele><time>2026-04-12T06:53:16Z</time></trkpt><trkpt lat="45.88592059600037" lon="9.41999136538755"><ele>621.0</ele><time>2026-04-12T06:53:17Z</time></trkpt><trkpt lat="45.88601885989963" lon="9.420050761433469"><ele>621.0</ele><time>2026-04-12T06:53:18Z</time></trkpt><trkpt lat="45.88610488341076" lon="9.420132583989155"><ele>621.0</ele><time>2026-04-12T06:53:19Z</time></trkpt><trkpt lat="45.88620957253861" lon="9.420174141956393"><ele>621.0</ele><time>2026-04-12T06:53:20Z</time></trkpt><trkpt lat="45.88631907738444" lon="9.420213754055855"><ele>621.0</ele><time>2026-04-12T06:53:21Z</time></trkpt><trkpt lat="45.886433906907975" lon="9.42024307625401"><ele>621.0</ele><time>2026-04-12T06:53:22Z</time></trkpt><trkpt lat="45.88654936644272" lon="9.420252270583195"><ele>621.0</ele><time>2026-04-12T06:53:23Z</time></trkpt><trkpt lat="45.88665823660983" lon="9.420230230512113"><ele>621.0</ele><time>2026-04-12T06:53:24Z</time></trkpt><trkpt lat="45.88676645136341" lon="9.420206164987242"><ele>621.0</ele><time>2026-04-12T06:53:25Z</time></trkpt><trkpt lat="45.88687480379992" lon="9.420172282298664"><ele>621.0</ele><time>2026-04-12T06:53:26Z</time></trkpt><trkpt lat="45.88698247830124" lon="9.420148851162686"><ele>621.0</ele><time>2026-04-12T06:53:27Z</time></trkpt><trkpt lat="45.8870862659231" lon="9.420129905784743"><ele>623.6</ele><time>2026-04-12T06:53:28Z</time></trkpt><trkpt lat="45.8871910710308" lon="9.420107176811518"><ele>626.2</ele><time>2026-04-12T06:53:29Z</time></trkpt><trkpt lat="45.88728507160809" lon="9.420090408535668"><ele>628.8</ele><time>2026-04-12T06:53:30Z</time></trkpt><trkpt lat="45.88737693074003" lon="9.420086271761791"><ele>631.4</ele><time>2026-04-12T06:53:31Z</time></trkpt><trkpt lat="45.887467180604915" lon="9.420099468243814"><ele>634.0</ele><time>2026-04-12T06:53:32Z</time></trkpt><trkpt lat="45.88754594290071" lon="9.420135559642146"><ele>635.3333333333334</ele><time>2026-04-12T06:53:33Z</time></trkpt><trkpt lat="45.88762602276813" lon="9.420186615774009"><ele>636.6666666666667</ele><time>2026-04-12T06:53:34Z</time></trkpt><trkpt lat="45.88769765284628" lon="9.420253072247762"><ele>638.0</ele><time>2026-04-12T06:53:35Z</time></trkpt><trkpt lat="45.88776681390826" lon="9.420329740026348"><ele>639.3333333333334</ele><time>2026-04-12T06:53:36Z</time></trkpt><trkpt lat="45.88782834387813" lon="9.420410937445153"><ele>640.6666666666666</ele><time>2026-04-12T06:53:37Z</time></trkpt><trkpt lat="45.887887707810904" lon="9.420480059244387"><ele>642.0</ele><time>2026-04-12T06:53:38Z</time></trkpt><trkpt lat="45.88793934443264" lon="9.42054434779718"><ele>642.0</ele><time>2026-04-12T06:53:39Z</time></trkpt><trkpt lat="45.88799408103526" lon="9.420617460550828"><ele>642.0</ele><time>2026-04-12T06:53:40Z</time></trkpt><trkpt lat="45.88805242505607" lon="9.420688157599475"><ele>642.0</ele><time>2026-04-12T06:53:41Z</time></trkpt><trkpt lat="45.88811595429693" lon="9.420746760730763"><ele>642.0</ele><time>2026-04-12T06:53:42Z</time></trkpt><trkpt lat="45.88819589605574" lon="9.420792940525713"><ele>642.0</ele><time>2026-04-12T06:53:43Z</time></trkpt><trkpt lat="45.88828398679396" lon="9.420825533811332"><ele>642.0</ele><time>2026-04-12T06:53:44Z</time></trkpt><trkpt lat="45.888373077474014" lon="9.420850454391385"><ele>643.4000000000001</ele><time>2026-04-12T06:53:45Z</time></trkpt><trkpt lat="45.888466868532106" lon="9.420873690487909"><ele>644.8000000000001</ele><time>2026-04-12T06:53:46Z</time></trkpt><trkpt lat="45.8885622423878" lon="9.42089673431035"><ele>646.2</ele><time>2026-04-12T06:53:47Z</time></trkpt><trkpt lat="45.88866068349279" lon="9.420920070755523"><ele>647.6</ele><time>2026-04-12T06:53:48Z</time></trkpt><trkpt lat="45.88875396310687" lon="9.42094450009384"><ele>649.0</ele><time>2026-04-12T06:53:49Z</time></trkpt><trkpt lat="45.888854405573454" lon="9.420981429723232"><ele>649.0</ele><time>2026-04-12T06:53:50Z</time></trkpt><trkpt lat="45.88895548218626" lon="9.421027914476712"><ele>649.0</ele><time>2026-04-12T06:53:51Z</time></trkpt><trkpt lat="45.889055612363066" lon="9.421083293693856"><ele>649.0</ele><time>2026-04-12T06:53:52Z</time></trkpt><trkpt lat="45.8891531847292" lon="9.421142869735398"><ele>649.0</ele><time>2026-04-12T06:53:53Z</time></trkpt><trkpt lat="45.88924736462929" lon="9.421208518234192"><ele>649.0</ele><time>2026-04-12T06:53:54Z</time></trkpt><trkpt lat="45.8893404313978" lon="9.421282297853113"><ele>649.25</ele><time>2026-04-12T06:53:55Z</time></trkpt><trkpt lat="45.889431167137836" lon="9.421367263162281"><ele>649.5</ele><time>2026-04-12T06:53:56Z</time></trkpt><trkpt lat="45.889521933313766" lon="9.4214613745594"><ele>649.75</ele><time>2026-04-12T06:53:57Z</time></trkpt><trkpt lat="45.88961467070712" lon="9.421560712291805"><ele>650.0</ele><time>2026-04-12T06:53:58Z</time></trkpt><trkpt lat="45.889707163148366" lon="9.421659371589577"><ele>650.0</ele><time>2026-04-12T06:53:59Z</time></trkpt><trkpt lat="45.88980598895033" lon="9.421762024808887"><ele>650.0</ele><time>2026-04-12T06:54:00Z</time></trkpt><trkpt lat="45.88991039385229" lon="9.421866380002836"><ele>650.0</ele><time>2026-04-12T06:54:01Z</time></trkpt><trkpt lat="45.89001614948002" lon="9.421970076886428"><ele>650.0</ele><time>2026-04-12T06:54:02Z</time></trkpt><trkpt lat="45.890121835849605" lon="9.422074387154039"><ele>649.25</ele><time>2026-04-12T06:54:03Z</time></trkpt><trkpt lat="45.890229541069985" lon="9.422183587862293"><ele>648.5</ele><time>2026-04-12T06:54:04Z</time></trkpt><trkpt lat="45.8903349110542" lon="9.422288677999614"><ele>647.75</ele><time>2026-04-12T06:54:05Z</time></trkpt><trkpt lat="45.8904415546695" lon="9.422397456053067"><ele>647.0</ele><time>2026-04-12T06:54:06Z</time></trkpt><trkpt lat="45.89054979493408" lon="9.422506035419017"><ele>647.0</ele><time>2026-04-12T06:54:07Z</time></trkpt><trkpt lat="45.89065820924323" lon="9.422615984059055"><ele>647.0</ele><time>2026-04-12T06:54:08Z</time></trkpt><trkpt lat="45.890776900954265" lon="9.422729651535168"><ele>647.0</ele><time>2026-04-12T06:54:09Z</time></trkpt><trkpt lat="45.89088506873569" lon="9.422836462578465"><ele>647.0</ele><time>2026-04-12T06:54:10Z</time></trkpt><trkpt lat="45.89098449514324" lon="9.422938518422868"><ele>647.5</ele><time>2026-04-12T06:54:11Z</time></trkpt><trkpt lat="45.891089714195054" lon="9.423043809014773"><ele>648.0</ele><time>2026-04-12T06:54:12Z</time></trkpt><trkpt lat="45.8911929007619" lon="9.423149686641066"><ele>648.5</ele><time>2026-04-12T06:54:12.999Z</time></trkpt><trkpt lat="45.8912968026845" lon="9.42325707439932"><ele>649.0</ele><time>2026-04-12T06:54:13.999Z</time></trkpt><trkpt lat="45.891405789262556" lon="9.423366165856484"><ele>649.0</ele><time>2026-04-12T06:54:14.999Z</time></trkpt><trkpt lat="45.89151435513696" lon="9.423477045681802"><ele>649.0</ele><time>2026-04-12T06:54:15.999Z</time></trkpt><trkpt lat="45.89162394314158" lon="9.423585177850587"><ele>649.0</ele><time>2026-04-12T06:54:16.999Z</time></trkpt><trkpt lat="45.891735327941376" lon="9.423698265642878"><ele>649.0</ele><time>2026-04-12T06:54:17.999Z</time></trkpt><trkpt lat="45.89184349808468" lon="9.423808743866166"><ele>650.0</ele><time>2026-04-12T06:54:18.999Z</time></trkpt><trkpt lat="45.89195224888963" lon="9.4239186145245"><ele>651.0</ele><time>2026-04-12T06:54:19.999Z</time></trkpt><trkpt lat="45.89205958795061" lon="9.424028158376947"><ele>652.0</ele><time>2026-04-12T06:54:20.999Z</time></trkpt><trkpt lat="45.89216376576132" lon="9.4241364378031"><ele>653.0</ele><time>2026-04-12T06:54:21.999Z</time></trkpt><trkpt lat="45.892270956641546" lon="9.424242340149146"><ele>653.0</ele><time>2026-04-12T06:54:22.999Z</time></trkpt><trkpt lat="45.892374095152" lon="9.424346109710292"><ele>653.0</ele><time>2026-04-12T06:54:23.999Z</time></trkpt><trkpt lat="45.89247688082016" lon="9.424450896467912"><ele>653.0</ele><time>2026-04-12T06:54:24.999Z</time></trkpt><trkpt lat="45.89257860367735" lon="9.424549347784085"><ele>653.0</ele><time>2026-04-12T06:54:25.999Z</time></trkpt><trkpt lat="45.89268036002706" lon="9.424654208370935"><ele>653.75</ele><time>2026-04-12T06:54:26.999Z</time></trkpt><trkpt lat="45.892780715426284" lon="9.424746846583497"><ele>654.5</ele><time>2026-04-12T06:54:27.999Z</time></trkpt><trkpt lat="45.89286856610244" lon="9.424854648226548"><ele>655.25</ele><time>2026-04-12T06:54:28.999Z</time></trkpt><trkpt lat="45.89296692430213" lon="9.424959680472758"><ele>656.0</ele><time>2026-04-12T06:54:29.999Z</time></trkpt><trkpt lat="45.893067801841546" lon="9.425065710488877"><ele>656.0</ele><time>2026-04-12T06:54:30.999Z</time></trkpt><trkpt lat="45.89316904875453" lon="9.425160048418919"><ele>656.0</ele><time>2026-04-12T06:54:31.999Z</time></trkpt><trkpt lat="45.89327107963345" lon="9.42524327195936"><ele>656.0</ele><time>2026-04-12T06:54:32.999Z</time></trkpt><trkpt lat="45.89337347088731" lon="9.425314418900859"><ele>656.0</ele><time>2026-04-12T06:54:33.999Z</time></trkpt><trkpt lat="45.89348257393859" lon="9.425372540697369"><ele>657.0</ele><time>2026-04-12T06:54:34.999Z</time></trkpt><trkpt lat="45.89359260998724" lon="9.425417268673028"><ele>658.0</ele><time>2026-04-12T06:54:35.999Z</time></trkpt><trkpt lat="45.89369337780832" lon="9.425451153632391"><ele>659.0</ele><time>2026-04-12T06:54:36.999Z</time></trkpt><trkpt lat="45.89378281114055" lon="9.425475062956027"><ele>660.0</ele><time>2026-04-12T06:54:37.999Z</time></trkpt><trkpt lat="45.8938668485674" lon="9.425519530764653"><ele>661.0</ele><time>2026-04-12T06:54:39.999Z</time></trkpt><trkpt lat="45.8939323737248" lon="9.425556577397447"><ele>661.0</ele><time>2026-04-12T06:55:05Z</time></trkpt><trkpt lat="45.893996491992986" lon="9.425561737493826"><ele>661.0</ele><time>2026-04-12T06:55:31Z</time></trkpt><trkpt lat="45.89406658114592" lon="9.42556538639811"><ele>661.0</ele><time>2026-04-12T06:55:36Z</time></trkpt><trkpt lat="45.89413583493853" lon="9.425564388640284"><ele>661.0</ele><time>2026-04-12T06:55:41Z</time></trkpt><trkpt lat="45.8942092672092" lon="9.425561148591047"><ele>661.0</ele><time>2026-04-12T06:55:48Z</time></trkpt><trkpt lat="45.89428780482856" lon="9.425556034339712"><ele>661.0</ele><time>2026-04-12T06:56:23Z</time></trkpt><trkpt lat="45.894358977631256" lon="9.425547071634476"><ele>661.0</ele><time>2026-04-12T06:57:15Z</time></trkpt><trkpt lat="45.89465410326758" lon="9.426191648522726"><ele>661.2857142857142</ele><time>2026-04-12T06:57:56Z</time></trkpt><trkpt lat="45.894674404126164" lon="9.426279978948681"><ele>661.5714285714286</ele><time>2026-04-12T06:58:00Z</time></trkpt><trkpt lat="45.89470515229721" lon="9.426377311974148"><ele>661.8571428571429</ele><time>2026-04-12T06:59:52Z</time></trkpt><trkpt lat="45.89464401784863" lon="9.426321848812172"><ele>662.1428571428571</ele><time>2026-04-12T07:01:11.999Z</time></trkpt><trkpt lat="45.89461565554556" lon="9.426227467963052"><ele>662.4285714285714</ele><time>2026-04-12T07:01:18Z</time></trkpt><trkpt lat="45.89456935085647" lon="9.426152896106894"><ele>662.7142857142857</ele><time>2026-04-12T07:01:26Z</time></trkpt><trkpt lat="45.894524887426826" lon="9.426066130941173"><ele>663.0</ele><time>2026-04-12T07:01:30Z</time></trkpt><trkpt lat="45.8944828453965" lon="9.425969547656964"><ele>662.9999999999999</ele><time>2026-04-12T07:01:35Z</time></trkpt><trkpt lat="45.8944862019749" lon="9.425872702254185"><ele>663.0</ele><time>2026-04-12T07:01:44Z</time></trkpt><trkpt lat="45.8944498683853" lon="9.425786089110273"><ele>663.0</ele><time>2026-04-12T07:01:52Z</time></trkpt><trkpt lat="45.89441520837298" lon="9.425697194948796"><ele>663.0</ele><time>2026-04-12T07:01:58Z</time></trkpt><trkpt lat="45.89433613645834" lon="9.425686800120848"><ele>663.0</ele><time>2026-04-12T07:02:07Z</time></trkpt><trkpt lat="45.8942504847946" lon="9.425731895302363"><ele>662.9999999999999</ele><time>2026-04-12T07:02:53.999Z</time></trkpt><trkpt lat="45.89418965908294" lon="9.425689124521409"><ele>663.0</ele><time>2026-04-12T07:03:05.999Z</time></trkpt><trkpt lat="45.89412090810897" lon="9.425656985973683"><ele>661.0</ele><time>2026-04-12T07:03:14.999Z</time></trkpt><trkpt lat="45.89404363653704" lon="9.425683670005965"><ele>661.0</ele><time>2026-04-12T07:03:25Z</time></trkpt><trkpt lat="45.89413468299705" lon="9.425676513726847"><ele>661.0</ele><time>2026-04-12T07:05:50Z</time></trkpt><trkpt lat="45.89426405483999" lon="9.425703292634271"><ele>663.0</ele><time>2026-04-12T07:06:06Z</time></trkpt><trkpt lat="45.89433370994141" lon="9.425691413006419"><ele>663.0</ele><time>2026-04-12T07:06:14Z</time></trkpt></trkseg></trk></gpx>